<?xml version="1.0" encoding="UTF-8" standalone="no" ?>
<gpx xmlns="http://www.topografix.com/GPX/1/1" xmlns:xsi="http://www.w3.org/2001/XMLSchema-instance" xsi:schemaLocation="http://www.topografix.com/GPX/1/1 http://www.topografix.com/GPX/1/1/gpx.xsd" version="1.1" creator="VisuGPX - https://www.visugpx.com">
  <metadata>
    <name>Marcelcave</name>
    <desc><![CDATA[raccourcie: canicule]]></desc>
  </metadata>
  <trk>
    <name><![CDATA[Marcelcave_1]]></name>
    <trkseg>
      <trkpt lat="49.84504" lon="2.56775">
        <ele>98.2</ele>
        <time>2022-08-03T07:13:02Z</time>
      </trkpt>
      <trkpt lat="49.84502" lon="2.56775">
        <ele>98.2</ele>
        <time>2022-08-03T07:13:03Z</time>
      </trkpt>
      <trkpt lat="49.84501" lon="2.56776">
        <ele>98.2</ele>
        <time>2022-08-03T07:13:04Z</time>
      </trkpt>
      <trkpt lat="49.84499" lon="2.56776">
        <ele>98.1</ele>
        <time>2022-08-03T07:13:06Z</time>
      </trkpt>
      <trkpt lat="49.84498" lon="2.56776">
        <ele>98.1</ele>
        <time>2022-08-03T07:13:07Z</time>
      </trkpt>
      <trkpt lat="49.84496" lon="2.56776">
        <ele>98.1</ele>
        <time>2022-08-03T07:13:08Z</time>
      </trkpt>
      <trkpt lat="49.84495" lon="2.56777">
        <ele>98.1</ele>
        <time>2022-08-03T07:13:09Z</time>
      </trkpt>
      <trkpt lat="49.84493" lon="2.56777">
        <ele>98.1</ele>
        <time>2022-08-03T07:13:10Z</time>
      </trkpt>
      <trkpt lat="49.84491" lon="2.56778">
        <ele>98</ele>
        <time>2022-08-03T07:13:12Z</time>
      </trkpt>
      <trkpt lat="49.84489" lon="2.56779">
        <ele>98</ele>
        <time>2022-08-03T07:13:14Z</time>
      </trkpt>
      <trkpt lat="49.84488" lon="2.56779">
        <ele>98</ele>
        <time>2022-08-03T07:13:15Z</time>
      </trkpt>
      <trkpt lat="49.84486" lon="2.5678">
        <ele>98</ele>
        <time>2022-08-03T07:13:16Z</time>
      </trkpt>
      <trkpt lat="49.84485" lon="2.56781">
        <ele>98</ele>
        <time>2022-08-03T07:13:17Z</time>
      </trkpt>
      <trkpt lat="49.84484" lon="2.56782">
        <ele>98</ele>
        <time>2022-08-03T07:13:18Z</time>
      </trkpt>
      <trkpt lat="49.84482" lon="2.56783">
        <ele>98</ele>
        <time>2022-08-03T07:13:19Z</time>
      </trkpt>
      <trkpt lat="49.84481" lon="2.56784">
        <ele>97.9</ele>
        <time>2022-08-03T07:13:20Z</time>
      </trkpt>
      <trkpt lat="49.8448" lon="2.56785">
        <ele>97.9</ele>
        <time>2022-08-03T07:13:21Z</time>
      </trkpt>
      <trkpt lat="49.84478" lon="2.56786">
        <ele>97.9</ele>
        <time>2022-08-03T07:13:23Z</time>
      </trkpt>
      <trkpt lat="49.84477" lon="2.56787">
        <ele>97.9</ele>
        <time>2022-08-03T07:13:24Z</time>
      </trkpt>
      <trkpt lat="49.84476" lon="2.56787">
        <ele>97.9</ele>
        <time>2022-08-03T07:13:25Z</time>
      </trkpt>
      <trkpt lat="49.84474" lon="2.56789">
        <ele>97.9</ele>
        <time>2022-08-03T07:13:27Z</time>
      </trkpt>
      <trkpt lat="49.84472" lon="2.5679">
        <ele>97.9</ele>
        <time>2022-08-03T07:13:28Z</time>
      </trkpt>
      <trkpt lat="49.84471" lon="2.56791">
        <ele>97.9</ele>
        <time>2022-08-03T07:13:29Z</time>
      </trkpt>
      <trkpt lat="49.8447" lon="2.56792">
        <ele>97.9</ele>
        <time>2022-08-03T07:13:30Z</time>
      </trkpt>
      <trkpt lat="49.84468" lon="2.56794">
        <ele>97.8</ele>
        <time>2022-08-03T07:13:31Z</time>
      </trkpt>
      <trkpt lat="49.84466" lon="2.56795">
        <ele>97.8</ele>
        <time>2022-08-03T07:13:32Z</time>
      </trkpt>
      <trkpt lat="49.84466" lon="2.56796">
        <ele>97.8</ele>
        <time>2022-08-03T07:13:34Z</time>
      </trkpt>
      <trkpt lat="49.84465" lon="2.56796">
        <ele>97.8</ele>
        <time>2022-08-03T07:13:35Z</time>
      </trkpt>
      <trkpt lat="49.84464" lon="2.56797">
        <ele>97.8</ele>
        <time>2022-08-03T07:13:36Z</time>
      </trkpt>
      <trkpt lat="49.84464" lon="2.56795">
        <ele>97.8</ele>
        <time>2022-08-03T07:13:38Z</time>
      </trkpt>
      <trkpt lat="49.84463" lon="2.56796">
        <ele>97.8</ele>
        <time>2022-08-03T07:13:39Z</time>
      </trkpt>
      <trkpt lat="49.84463" lon="2.56797">
        <ele>97.8</ele>
        <time>2022-08-03T07:13:40Z</time>
      </trkpt>
      <trkpt lat="49.84462" lon="2.56797">
        <ele>97.8</ele>
        <time>2022-08-03T07:13:41Z</time>
      </trkpt>
      <trkpt lat="49.84461" lon="2.56798">
        <ele>97.8</ele>
        <time>2022-08-03T07:13:42Z</time>
      </trkpt>
      <trkpt lat="49.8446" lon="2.56798">
        <ele>97.8</ele>
        <time>2022-08-03T07:13:43Z</time>
      </trkpt>
      <trkpt lat="49.84459" lon="2.56798">
        <ele>97.8</ele>
        <time>2022-08-03T07:13:44Z</time>
      </trkpt>
      <trkpt lat="49.84459" lon="2.56799">
        <ele>97.8</ele>
        <time>2022-08-03T07:13:45Z</time>
      </trkpt>
      <trkpt lat="49.84458" lon="2.56799">
        <ele>97.8</ele>
        <time>2022-08-03T07:13:46Z</time>
      </trkpt>
      <trkpt lat="49.84457" lon="2.568">
        <ele>97.8</ele>
        <time>2022-08-03T07:13:47Z</time>
      </trkpt>
      <trkpt lat="49.84455" lon="2.56801">
        <ele>97.8</ele>
        <time>2022-08-03T07:13:48Z</time>
      </trkpt>
      <trkpt lat="49.84454" lon="2.56802">
        <ele>97.8</ele>
        <time>2022-08-03T07:13:49Z</time>
      </trkpt>
      <trkpt lat="49.84453" lon="2.56803">
        <ele>97.8</ele>
        <time>2022-08-03T07:13:50Z</time>
      </trkpt>
      <trkpt lat="49.84452" lon="2.56804">
        <ele>97.8</ele>
        <time>2022-08-03T07:13:51Z</time>
      </trkpt>
      <trkpt lat="49.84449" lon="2.56806">
        <ele>97.8</ele>
        <time>2022-08-03T07:13:53Z</time>
      </trkpt>
      <trkpt lat="49.84449" lon="2.56806">
        <ele>97.8</ele>
        <time>2022-08-03T07:13:54Z</time>
      </trkpt>
      <trkpt lat="49.84448" lon="2.56807">
        <ele>97.8</ele>
        <time>2022-08-03T07:13:55Z</time>
      </trkpt>
      <trkpt lat="49.84448" lon="2.56807">
        <ele>97.8</ele>
        <time>2022-08-03T07:13:56Z</time>
      </trkpt>
      <trkpt lat="49.84447" lon="2.56807">
        <ele>97.8</ele>
        <time>2022-08-03T07:13:57Z</time>
      </trkpt>
      <trkpt lat="49.84445" lon="2.56808">
        <ele>97.8</ele>
        <time>2022-08-03T07:13:58Z</time>
      </trkpt>
      <trkpt lat="49.84442" lon="2.5681">
        <ele>97.8</ele>
        <time>2022-08-03T07:14:00Z</time>
      </trkpt>
      <trkpt lat="49.84441" lon="2.5681">
        <ele>97.8</ele>
        <time>2022-08-03T07:14:01Z</time>
      </trkpt>
      <trkpt lat="49.8444" lon="2.56812">
        <ele>97.8</ele>
        <time>2022-08-03T07:14:02Z</time>
      </trkpt>
      <trkpt lat="49.84438" lon="2.56813">
        <ele>97.8</ele>
        <time>2022-08-03T07:14:03Z</time>
      </trkpt>
      <trkpt lat="49.84436" lon="2.56815">
        <ele>97.8</ele>
        <time>2022-08-03T07:14:04Z</time>
      </trkpt>
      <trkpt lat="49.84435" lon="2.56816">
        <ele>97.8</ele>
        <time>2022-08-03T07:14:05Z</time>
      </trkpt>
      <trkpt lat="49.84434" lon="2.56818">
        <ele>97.8</ele>
        <time>2022-08-03T07:14:06Z</time>
      </trkpt>
      <trkpt lat="49.84433" lon="2.56819">
        <ele>97.8</ele>
        <time>2022-08-03T07:14:07Z</time>
      </trkpt>
      <trkpt lat="49.84433" lon="2.5682">
        <ele>97.8</ele>
        <time>2022-08-03T07:14:08Z</time>
      </trkpt>
      <trkpt lat="49.84432" lon="2.56821">
        <ele>97.8</ele>
        <time>2022-08-03T07:14:09Z</time>
      </trkpt>
      <trkpt lat="49.84431" lon="2.56823">
        <ele>97.8</ele>
        <time>2022-08-03T07:14:10Z</time>
      </trkpt>
      <trkpt lat="49.8443" lon="2.56823">
        <ele>97.8</ele>
        <time>2022-08-03T07:14:11Z</time>
      </trkpt>
      <trkpt lat="49.84428" lon="2.56824">
        <ele>97.8</ele>
        <time>2022-08-03T07:14:12Z</time>
      </trkpt>
      <trkpt lat="49.84428" lon="2.56825">
        <ele>97.8</ele>
        <time>2022-08-03T07:14:13Z</time>
      </trkpt>
      <trkpt lat="49.84427" lon="2.56826">
        <ele>97.8</ele>
        <time>2022-08-03T07:14:14Z</time>
      </trkpt>
      <trkpt lat="49.84426" lon="2.56826">
        <ele>97.8</ele>
        <time>2022-08-03T07:14:15Z</time>
      </trkpt>
      <trkpt lat="49.84424" lon="2.56828">
        <ele>97.7</ele>
        <time>2022-08-03T07:14:16Z</time>
      </trkpt>
      <trkpt lat="49.84423" lon="2.5683">
        <ele>97.7</ele>
        <time>2022-08-03T07:14:17Z</time>
      </trkpt>
      <trkpt lat="49.84422" lon="2.56831">
        <ele>97.7</ele>
        <time>2022-08-03T07:14:18Z</time>
      </trkpt>
      <trkpt lat="49.84421" lon="2.56832">
        <ele>97.7</ele>
        <time>2022-08-03T07:14:19Z</time>
      </trkpt>
      <trkpt lat="49.84421" lon="2.56833">
        <ele>97.7</ele>
        <time>2022-08-03T07:14:20Z</time>
      </trkpt>
      <trkpt lat="49.84419" lon="2.56835">
        <ele>97.7</ele>
        <time>2022-08-03T07:14:22Z</time>
      </trkpt>
      <trkpt lat="49.84418" lon="2.56835">
        <ele>97.7</ele>
        <time>2022-08-03T07:14:23Z</time>
      </trkpt>
      <trkpt lat="49.84417" lon="2.56837">
        <ele>97.7</ele>
        <time>2022-08-03T07:14:24Z</time>
      </trkpt>
      <trkpt lat="49.84416" lon="2.56837">
        <ele>97.7</ele>
        <time>2022-08-03T07:14:25Z</time>
      </trkpt>
      <trkpt lat="49.84415" lon="2.56838">
        <ele>97.7</ele>
        <time>2022-08-03T07:14:27Z</time>
      </trkpt>
      <trkpt lat="49.84414" lon="2.56839">
        <ele>97.6</ele>
        <time>2022-08-03T07:14:28Z</time>
      </trkpt>
      <trkpt lat="49.84413" lon="2.56839">
        <ele>97.6</ele>
        <time>2022-08-03T07:14:29Z</time>
      </trkpt>
      <trkpt lat="49.84411" lon="2.5684">
        <ele>97.6</ele>
        <time>2022-08-03T07:14:30Z</time>
      </trkpt>
      <trkpt lat="49.8441" lon="2.5684">
        <ele>97.6</ele>
        <time>2022-08-03T07:14:31Z</time>
      </trkpt>
      <trkpt lat="49.84409" lon="2.56841">
        <ele>97.6</ele>
        <time>2022-08-03T07:14:32Z</time>
      </trkpt>
      <trkpt lat="49.84408" lon="2.56841">
        <ele>97.6</ele>
        <time>2022-08-03T07:14:33Z</time>
      </trkpt>
      <trkpt lat="49.84406" lon="2.56842">
        <ele>97.6</ele>
        <time>2022-08-03T07:14:35Z</time>
      </trkpt>
      <trkpt lat="49.84405" lon="2.56843">
        <ele>97.6</ele>
        <time>2022-08-03T07:14:36Z</time>
      </trkpt>
      <trkpt lat="49.84403" lon="2.56843">
        <ele>97.5</ele>
        <time>2022-08-03T07:14:37Z</time>
      </trkpt>
      <trkpt lat="49.84402" lon="2.56843">
        <ele>97.5</ele>
        <time>2022-08-03T07:14:38Z</time>
      </trkpt>
      <trkpt lat="49.84401" lon="2.56843">
        <ele>97.5</ele>
        <time>2022-08-03T07:14:39Z</time>
      </trkpt>
      <trkpt lat="49.84399" lon="2.56843">
        <ele>97.5</ele>
        <time>2022-08-03T07:14:40Z</time>
      </trkpt>
      <trkpt lat="49.84398" lon="2.56842">
        <ele>97.5</ele>
        <time>2022-08-03T07:14:41Z</time>
      </trkpt>
      <trkpt lat="49.84397" lon="2.56842">
        <ele>97.5</ele>
        <time>2022-08-03T07:14:42Z</time>
      </trkpt>
      <trkpt lat="49.84396" lon="2.56841">
        <ele>97.5</ele>
        <time>2022-08-03T07:14:44Z</time>
      </trkpt>
      <trkpt lat="49.84394" lon="2.56841">
        <ele>97.5</ele>
        <time>2022-08-03T07:14:45Z</time>
      </trkpt>
      <trkpt lat="49.84392" lon="2.5684">
        <ele>97.5</ele>
        <time>2022-08-03T07:14:46Z</time>
      </trkpt>
      <trkpt lat="49.84391" lon="2.5684">
        <ele>97.4</ele>
        <time>2022-08-03T07:14:47Z</time>
      </trkpt>
      <trkpt lat="49.8439" lon="2.56839">
        <ele>97.4</ele>
        <time>2022-08-03T07:14:48Z</time>
      </trkpt>
      <trkpt lat="49.84389" lon="2.56839">
        <ele>97.4</ele>
        <time>2022-08-03T07:14:49Z</time>
      </trkpt>
      <trkpt lat="49.84386" lon="2.56837">
        <ele>97.4</ele>
        <time>2022-08-03T07:14:50Z</time>
      </trkpt>
      <trkpt lat="49.84385" lon="2.56837">
        <ele>97.4</ele>
        <time>2022-08-03T07:14:52Z</time>
      </trkpt>
      <trkpt lat="49.84384" lon="2.56836">
        <ele>97.4</ele>
        <time>2022-08-03T07:14:53Z</time>
      </trkpt>
      <trkpt lat="49.84383" lon="2.56836">
        <ele>97.4</ele>
        <time>2022-08-03T07:14:54Z</time>
      </trkpt>
      <trkpt lat="49.84382" lon="2.56835">
        <ele>97.3</ele>
        <time>2022-08-03T07:14:55Z</time>
      </trkpt>
      <trkpt lat="49.8438" lon="2.56835">
        <ele>97.3</ele>
        <time>2022-08-03T07:14:56Z</time>
      </trkpt>
      <trkpt lat="49.84379" lon="2.56835">
        <ele>97.3</ele>
        <time>2022-08-03T07:14:58Z</time>
      </trkpt>
      <trkpt lat="49.84377" lon="2.56834">
        <ele>97.3</ele>
        <time>2022-08-03T07:14:59Z</time>
      </trkpt>
      <trkpt lat="49.84376" lon="2.56834">
        <ele>97.3</ele>
        <time>2022-08-03T07:15:00Z</time>
      </trkpt>
      <trkpt lat="49.84375" lon="2.56834">
        <ele>97.2</ele>
        <time>2022-08-03T07:15:01Z</time>
      </trkpt>
      <trkpt lat="49.84373" lon="2.56834">
        <ele>97.2</ele>
        <time>2022-08-03T07:15:02Z</time>
      </trkpt>
      <trkpt lat="49.84372" lon="2.56834">
        <ele>97.2</ele>
        <time>2022-08-03T07:15:03Z</time>
      </trkpt>
      <trkpt lat="49.84371" lon="2.56834">
        <ele>97.2</ele>
        <time>2022-08-03T07:15:04Z</time>
      </trkpt>
      <trkpt lat="49.8437" lon="2.56834">
        <ele>97.2</ele>
        <time>2022-08-03T07:15:05Z</time>
      </trkpt>
      <trkpt lat="49.84369" lon="2.56834">
        <ele>97.2</ele>
        <time>2022-08-03T07:15:06Z</time>
      </trkpt>
      <trkpt lat="49.84368" lon="2.56834">
        <ele>97.1</ele>
        <time>2022-08-03T07:15:07Z</time>
      </trkpt>
      <trkpt lat="49.84366" lon="2.56833">
        <ele>97.1</ele>
        <time>2022-08-03T07:15:09Z</time>
      </trkpt>
      <trkpt lat="49.84365" lon="2.56833">
        <ele>97.1</ele>
        <time>2022-08-03T07:15:10Z</time>
      </trkpt>
      <trkpt lat="49.84363" lon="2.56833">
        <ele>97.1</ele>
        <time>2022-08-03T07:15:11Z</time>
      </trkpt>
      <trkpt lat="49.84361" lon="2.56832">
        <ele>97</ele>
        <time>2022-08-03T07:15:12Z</time>
      </trkpt>
      <trkpt lat="49.8436" lon="2.56832">
        <ele>97</ele>
        <time>2022-08-03T07:15:13Z</time>
      </trkpt>
      <trkpt lat="49.8436" lon="2.56832">
        <ele>97</ele>
        <time>2022-08-03T07:15:14Z</time>
      </trkpt>
      <trkpt lat="49.84359" lon="2.56832">
        <ele>97</ele>
        <time>2022-08-03T07:15:15Z</time>
      </trkpt>
      <trkpt lat="49.84357" lon="2.56832">
        <ele>97</ele>
        <time>2022-08-03T07:15:17Z</time>
      </trkpt>
      <trkpt lat="49.84356" lon="2.56832">
        <ele>97</ele>
        <time>2022-08-03T07:15:18Z</time>
      </trkpt>
      <trkpt lat="49.84355" lon="2.56832">
        <ele>96.9</ele>
        <time>2022-08-03T07:15:19Z</time>
      </trkpt>
      <trkpt lat="49.84354" lon="2.56831">
        <ele>96.9</ele>
        <time>2022-08-03T07:15:20Z</time>
      </trkpt>
      <trkpt lat="49.84351" lon="2.5683">
        <ele>96.9</ele>
        <time>2022-08-03T07:15:21Z</time>
      </trkpt>
      <trkpt lat="49.8435" lon="2.5683">
        <ele>96.9</ele>
        <time>2022-08-03T07:15:22Z</time>
      </trkpt>
      <trkpt lat="49.84349" lon="2.56829">
        <ele>96.9</ele>
        <time>2022-08-03T07:15:24Z</time>
      </trkpt>
      <trkpt lat="49.84348" lon="2.56828">
        <ele>96.8</ele>
        <time>2022-08-03T07:15:25Z</time>
      </trkpt>
      <trkpt lat="49.84347" lon="2.56827">
        <ele>96.8</ele>
        <time>2022-08-03T07:15:26Z</time>
      </trkpt>
      <trkpt lat="49.84345" lon="2.56827">
        <ele>96.8</ele>
        <time>2022-08-03T07:15:27Z</time>
      </trkpt>
      <trkpt lat="49.84343" lon="2.56826">
        <ele>96.7</ele>
        <time>2022-08-03T07:15:28Z</time>
      </trkpt>
      <trkpt lat="49.84342" lon="2.56825">
        <ele>96.7</ele>
        <time>2022-08-03T07:15:30Z</time>
      </trkpt>
      <trkpt lat="49.8434" lon="2.56825">
        <ele>96.7</ele>
        <time>2022-08-03T07:15:31Z</time>
      </trkpt>
      <trkpt lat="49.84339" lon="2.56824">
        <ele>96.6</ele>
        <time>2022-08-03T07:15:32Z</time>
      </trkpt>
      <trkpt lat="49.84338" lon="2.56824">
        <ele>96.6</ele>
        <time>2022-08-03T07:15:33Z</time>
      </trkpt>
      <trkpt lat="49.84336" lon="2.56823">
        <ele>96.6</ele>
        <time>2022-08-03T07:15:35Z</time>
      </trkpt>
      <trkpt lat="49.84336" lon="2.56822">
        <ele>96.6</ele>
        <time>2022-08-03T07:15:36Z</time>
      </trkpt>
      <trkpt lat="49.84335" lon="2.56822">
        <ele>96.6</ele>
        <time>2022-08-03T07:15:37Z</time>
      </trkpt>
      <trkpt lat="49.84333" lon="2.56821">
        <ele>96.5</ele>
        <time>2022-08-03T07:15:38Z</time>
      </trkpt>
      <trkpt lat="49.84332" lon="2.56821">
        <ele>96.5</ele>
        <time>2022-08-03T07:15:39Z</time>
      </trkpt>
      <trkpt lat="49.84331" lon="2.5682">
        <ele>96.5</ele>
        <time>2022-08-03T07:15:40Z</time>
      </trkpt>
      <trkpt lat="49.84329" lon="2.56819">
        <ele>96.5</ele>
        <time>2022-08-03T07:15:41Z</time>
      </trkpt>
      <trkpt lat="49.84329" lon="2.56819">
        <ele>96.5</ele>
        <time>2022-08-03T07:15:42Z</time>
      </trkpt>
      <trkpt lat="49.84328" lon="2.56819">
        <ele>96.5</ele>
        <time>2022-08-03T07:15:43Z</time>
      </trkpt>
      <trkpt lat="49.84326" lon="2.56817">
        <ele>96.5</ele>
        <time>2022-08-03T07:15:44Z</time>
      </trkpt>
      <trkpt lat="49.84325" lon="2.56817">
        <ele>96.5</ele>
        <time>2022-08-03T07:15:45Z</time>
      </trkpt>
      <trkpt lat="49.84324" lon="2.56816">
        <ele>96.5</ele>
        <time>2022-08-03T07:15:47Z</time>
      </trkpt>
      <trkpt lat="49.84323" lon="2.56816">
        <ele>96.5</ele>
        <time>2022-08-03T07:15:48Z</time>
      </trkpt>
      <trkpt lat="49.84322" lon="2.56815">
        <ele>96.5</ele>
        <time>2022-08-03T07:15:49Z</time>
      </trkpt>
      <trkpt lat="49.84321" lon="2.56815">
        <ele>96.5</ele>
        <time>2022-08-03T07:15:50Z</time>
      </trkpt>
      <trkpt lat="49.8432" lon="2.56814">
        <ele>96.5</ele>
        <time>2022-08-03T07:15:51Z</time>
      </trkpt>
      <trkpt lat="49.84319" lon="2.56813">
        <ele>96.5</ele>
        <time>2022-08-03T07:15:52Z</time>
      </trkpt>
      <trkpt lat="49.84318" lon="2.56812">
        <ele>96.5</ele>
        <time>2022-08-03T07:15:53Z</time>
      </trkpt>
      <trkpt lat="49.84317" lon="2.56811">
        <ele>96.5</ele>
        <time>2022-08-03T07:15:54Z</time>
      </trkpt>
      <trkpt lat="49.84316" lon="2.56809">
        <ele>96.5</ele>
        <time>2022-08-03T07:15:56Z</time>
      </trkpt>
      <trkpt lat="49.84316" lon="2.56808">
        <ele>96.5</ele>
        <time>2022-08-03T07:15:57Z</time>
      </trkpt>
      <trkpt lat="49.84315" lon="2.56808">
        <ele>96.5</ele>
        <time>2022-08-03T07:15:58Z</time>
      </trkpt>
      <trkpt lat="49.84314" lon="2.56807">
        <ele>96.5</ele>
        <time>2022-08-03T07:15:59Z</time>
      </trkpt>
      <trkpt lat="49.84313" lon="2.56805">
        <ele>96.4</ele>
        <time>2022-08-03T07:16:00Z</time>
      </trkpt>
      <trkpt lat="49.84311" lon="2.56805">
        <ele>96.4</ele>
        <time>2022-08-03T07:16:01Z</time>
      </trkpt>
      <trkpt lat="49.8431" lon="2.56805">
        <ele>96.4</ele>
        <time>2022-08-03T07:16:02Z</time>
      </trkpt>
      <trkpt lat="49.84309" lon="2.56805">
        <ele>96.4</ele>
        <time>2022-08-03T07:16:03Z</time>
      </trkpt>
      <trkpt lat="49.84308" lon="2.56804">
        <ele>96.4</ele>
        <time>2022-08-03T07:16:05Z</time>
      </trkpt>
      <trkpt lat="49.84307" lon="2.56804">
        <ele>96.4</ele>
        <time>2022-08-03T07:16:06Z</time>
      </trkpt>
      <trkpt lat="49.84306" lon="2.56803">
        <ele>96.4</ele>
        <time>2022-08-03T07:16:07Z</time>
      </trkpt>
      <trkpt lat="49.84305" lon="2.56802">
        <ele>96.4</ele>
        <time>2022-08-03T07:16:08Z</time>
      </trkpt>
      <trkpt lat="49.84304" lon="2.56802">
        <ele>96.4</ele>
        <time>2022-08-03T07:16:09Z</time>
      </trkpt>
      <trkpt lat="49.84302" lon="2.56801">
        <ele>96.3</ele>
        <time>2022-08-03T07:16:11Z</time>
      </trkpt>
      <trkpt lat="49.84301" lon="2.56799">
        <ele>96.3</ele>
        <time>2022-08-03T07:16:12Z</time>
      </trkpt>
      <trkpt lat="49.843" lon="2.56799">
        <ele>96.3</ele>
        <time>2022-08-03T07:16:13Z</time>
      </trkpt>
      <trkpt lat="49.843" lon="2.56798">
        <ele>96.3</ele>
        <time>2022-08-03T07:16:14Z</time>
      </trkpt>
      <trkpt lat="49.84299" lon="2.56796">
        <ele>96.3</ele>
        <time>2022-08-03T07:16:15Z</time>
      </trkpt>
      <trkpt lat="49.84298" lon="2.56795">
        <ele>96.3</ele>
        <time>2022-08-03T07:16:16Z</time>
      </trkpt>
      <trkpt lat="49.84298" lon="2.56794">
        <ele>96.3</ele>
        <time>2022-08-03T07:16:17Z</time>
      </trkpt>
      <trkpt lat="49.84297" lon="2.56792">
        <ele>96.3</ele>
        <time>2022-08-03T07:16:18Z</time>
      </trkpt>
      <trkpt lat="49.84296" lon="2.56791">
        <ele>96.3</ele>
        <time>2022-08-03T07:16:19Z</time>
      </trkpt>
      <trkpt lat="49.84295" lon="2.5679">
        <ele>96.3</ele>
        <time>2022-08-03T07:16:21Z</time>
      </trkpt>
      <trkpt lat="49.84294" lon="2.56789">
        <ele>96.3</ele>
        <time>2022-08-03T07:16:22Z</time>
      </trkpt>
      <trkpt lat="49.84293" lon="2.56788">
        <ele>96.3</ele>
        <time>2022-08-03T07:16:23Z</time>
      </trkpt>
      <trkpt lat="49.84292" lon="2.56787">
        <ele>96.3</ele>
        <time>2022-08-03T07:16:24Z</time>
      </trkpt>
      <trkpt lat="49.84291" lon="2.56786">
        <ele>96.3</ele>
        <time>2022-08-03T07:16:25Z</time>
      </trkpt>
      <trkpt lat="49.8429" lon="2.56785">
        <ele>96.3</ele>
        <time>2022-08-03T07:16:26Z</time>
      </trkpt>
      <trkpt lat="49.84289" lon="2.56784">
        <ele>96.3</ele>
        <time>2022-08-03T07:16:28Z</time>
      </trkpt>
      <trkpt lat="49.84289" lon="2.56783">
        <ele>96.3</ele>
        <time>2022-08-03T07:16:29Z</time>
      </trkpt>
      <trkpt lat="49.84288" lon="2.56782">
        <ele>96.3</ele>
        <time>2022-08-03T07:16:30Z</time>
      </trkpt>
      <trkpt lat="49.84287" lon="2.56781">
        <ele>96.3</ele>
        <time>2022-08-03T07:16:31Z</time>
      </trkpt>
      <trkpt lat="49.84285" lon="2.56778">
        <ele>96.3</ele>
        <time>2022-08-03T07:16:32Z</time>
      </trkpt>
      <trkpt lat="49.84285" lon="2.56777">
        <ele>96.3</ele>
        <time>2022-08-03T07:16:33Z</time>
      </trkpt>
      <trkpt lat="49.84283" lon="2.56776">
        <ele>96.3</ele>
        <time>2022-08-03T07:16:35Z</time>
      </trkpt>
      <trkpt lat="49.84282" lon="2.56774">
        <ele>96.3</ele>
        <time>2022-08-03T07:16:36Z</time>
      </trkpt>
      <trkpt lat="49.84281" lon="2.56772">
        <ele>96.3</ele>
        <time>2022-08-03T07:16:37Z</time>
      </trkpt>
      <trkpt lat="49.8428" lon="2.56772">
        <ele>96.3</ele>
        <time>2022-08-03T07:16:38Z</time>
      </trkpt>
      <trkpt lat="49.84279" lon="2.56771">
        <ele>96.3</ele>
        <time>2022-08-03T07:16:39Z</time>
      </trkpt>
      <trkpt lat="49.84277" lon="2.56769">
        <ele>96.3</ele>
        <time>2022-08-03T07:16:40Z</time>
      </trkpt>
      <trkpt lat="49.84277" lon="2.56768">
        <ele>96.3</ele>
        <time>2022-08-03T07:16:41Z</time>
      </trkpt>
      <trkpt lat="49.84276" lon="2.56768">
        <ele>96.3</ele>
        <time>2022-08-03T07:16:42Z</time>
      </trkpt>
      <trkpt lat="49.84275" lon="2.56767">
        <ele>96.3</ele>
        <time>2022-08-03T07:16:43Z</time>
      </trkpt>
      <trkpt lat="49.84274" lon="2.56765">
        <ele>96.3</ele>
        <time>2022-08-03T07:16:44Z</time>
      </trkpt>
      <trkpt lat="49.84273" lon="2.56764">
        <ele>96.3</ele>
        <time>2022-08-03T07:16:45Z</time>
      </trkpt>
      <trkpt lat="49.84272" lon="2.56763">
        <ele>96.4</ele>
        <time>2022-08-03T07:16:46Z</time>
      </trkpt>
      <trkpt lat="49.84271" lon="2.56762">
        <ele>96.4</ele>
        <time>2022-08-03T07:16:47Z</time>
      </trkpt>
      <trkpt lat="49.8427" lon="2.5676">
        <ele>96.4</ele>
        <time>2022-08-03T07:16:49Z</time>
      </trkpt>
      <trkpt lat="49.84268" lon="2.56758">
        <ele>96.4</ele>
        <time>2022-08-03T07:16:50Z</time>
      </trkpt>
      <trkpt lat="49.84268" lon="2.56757">
        <ele>96.4</ele>
        <time>2022-08-03T07:16:51Z</time>
      </trkpt>
      <trkpt lat="49.84267" lon="2.56757">
        <ele>96.4</ele>
        <time>2022-08-03T07:16:52Z</time>
      </trkpt>
      <trkpt lat="49.84265" lon="2.56754">
        <ele>96.4</ele>
        <time>2022-08-03T07:16:53Z</time>
      </trkpt>
      <trkpt lat="49.84265" lon="2.56753">
        <ele>96.4</ele>
        <time>2022-08-03T07:16:54Z</time>
      </trkpt>
      <trkpt lat="49.84264" lon="2.56753">
        <ele>96.4</ele>
        <time>2022-08-03T07:16:55Z</time>
      </trkpt>
      <trkpt lat="49.84262" lon="2.56751">
        <ele>96.4</ele>
        <time>2022-08-03T07:16:56Z</time>
      </trkpt>
      <trkpt lat="49.84262" lon="2.5675">
        <ele>96.5</ele>
        <time>2022-08-03T07:16:57Z</time>
      </trkpt>
      <trkpt lat="49.84261" lon="2.56749">
        <ele>96.5</ele>
        <time>2022-08-03T07:16:58Z</time>
      </trkpt>
      <trkpt lat="49.8426" lon="2.56748">
        <ele>96.5</ele>
        <time>2022-08-03T07:16:59Z</time>
      </trkpt>
      <trkpt lat="49.84258" lon="2.56747">
        <ele>96.5</ele>
        <time>2022-08-03T07:17:01Z</time>
      </trkpt>
      <trkpt lat="49.84257" lon="2.56746">
        <ele>96.5</ele>
        <time>2022-08-03T07:17:02Z</time>
      </trkpt>
      <trkpt lat="49.84256" lon="2.56745">
        <ele>96.5</ele>
        <time>2022-08-03T07:17:03Z</time>
      </trkpt>
      <trkpt lat="49.84255" lon="2.56744">
        <ele>96.5</ele>
        <time>2022-08-03T07:17:04Z</time>
      </trkpt>
      <trkpt lat="49.84254" lon="2.56743">
        <ele>96.5</ele>
        <time>2022-08-03T07:17:05Z</time>
      </trkpt>
      <trkpt lat="49.84252" lon="2.5674">
        <ele>96.6</ele>
        <time>2022-08-03T07:17:06Z</time>
      </trkpt>
      <trkpt lat="49.84251" lon="2.56739">
        <ele>96.6</ele>
        <time>2022-08-03T07:17:07Z</time>
      </trkpt>
      <trkpt lat="49.8425" lon="2.56738">
        <ele>96.6</ele>
        <time>2022-08-03T07:17:08Z</time>
      </trkpt>
      <trkpt lat="49.8425" lon="2.56737">
        <ele>96.6</ele>
        <time>2022-08-03T07:17:09Z</time>
      </trkpt>
      <trkpt lat="49.84249" lon="2.56736">
        <ele>96.6</ele>
        <time>2022-08-03T07:17:11Z</time>
      </trkpt>
      <trkpt lat="49.84248" lon="2.56735">
        <ele>96.6</ele>
        <time>2022-08-03T07:17:12Z</time>
      </trkpt>
      <trkpt lat="49.84246" lon="2.56733">
        <ele>96.6</ele>
        <time>2022-08-03T07:17:13Z</time>
      </trkpt>
      <trkpt lat="49.84245" lon="2.56733">
        <ele>96.7</ele>
        <time>2022-08-03T07:17:14Z</time>
      </trkpt>
      <trkpt lat="49.84245" lon="2.56732">
        <ele>96.7</ele>
        <time>2022-08-03T07:17:15Z</time>
      </trkpt>
      <trkpt lat="49.84244" lon="2.56731">
        <ele>96.7</ele>
        <time>2022-08-03T07:17:16Z</time>
      </trkpt>
      <trkpt lat="49.84243" lon="2.5673">
        <ele>96.7</ele>
        <time>2022-08-03T07:17:17Z</time>
      </trkpt>
      <trkpt lat="49.84242" lon="2.56729">
        <ele>96.7</ele>
        <time>2022-08-03T07:17:18Z</time>
      </trkpt>
      <trkpt lat="49.84241" lon="2.56728">
        <ele>96.7</ele>
        <time>2022-08-03T07:17:20Z</time>
      </trkpt>
      <trkpt lat="49.8424" lon="2.56728">
        <ele>96.7</ele>
        <time>2022-08-03T07:17:21Z</time>
      </trkpt>
      <trkpt lat="49.84239" lon="2.56727">
        <ele>96.7</ele>
        <time>2022-08-03T07:17:22Z</time>
      </trkpt>
      <trkpt lat="49.84238" lon="2.56726">
        <ele>96.8</ele>
        <time>2022-08-03T07:17:23Z</time>
      </trkpt>
      <trkpt lat="49.84237" lon="2.56725">
        <ele>96.8</ele>
        <time>2022-08-03T07:17:24Z</time>
      </trkpt>
      <trkpt lat="49.84237" lon="2.56724">
        <ele>96.8</ele>
        <time>2022-08-03T07:17:25Z</time>
      </trkpt>
      <trkpt lat="49.84236" lon="2.56723">
        <ele>96.8</ele>
        <time>2022-08-03T07:17:26Z</time>
      </trkpt>
      <trkpt lat="49.84235" lon="2.56722">
        <ele>96.8</ele>
        <time>2022-08-03T07:17:27Z</time>
      </trkpt>
      <trkpt lat="49.84234" lon="2.56721">
        <ele>96.9</ele>
        <time>2022-08-03T07:17:28Z</time>
      </trkpt>
      <trkpt lat="49.84233" lon="2.5672">
        <ele>96.9</ele>
        <time>2022-08-03T07:17:30Z</time>
      </trkpt>
      <trkpt lat="49.84232" lon="2.56719">
        <ele>96.9</ele>
        <time>2022-08-03T07:17:31Z</time>
      </trkpt>
      <trkpt lat="49.84231" lon="2.56718">
        <ele>96.9</ele>
        <time>2022-08-03T07:17:32Z</time>
      </trkpt>
      <trkpt lat="49.8423" lon="2.56716">
        <ele>96.9</ele>
        <time>2022-08-03T07:17:33Z</time>
      </trkpt>
      <trkpt lat="49.84229" lon="2.56715">
        <ele>97</ele>
        <time>2022-08-03T07:17:34Z</time>
      </trkpt>
      <trkpt lat="49.84228" lon="2.56714">
        <ele>97</ele>
        <time>2022-08-03T07:17:35Z</time>
      </trkpt>
      <trkpt lat="49.84228" lon="2.56713">
        <ele>97</ele>
        <time>2022-08-03T07:17:36Z</time>
      </trkpt>
      <trkpt lat="49.84227" lon="2.56712">
        <ele>97</ele>
        <time>2022-08-03T07:17:37Z</time>
      </trkpt>
      <trkpt lat="49.84226" lon="2.5671">
        <ele>97</ele>
        <time>2022-08-03T07:17:38Z</time>
      </trkpt>
      <trkpt lat="49.84224" lon="2.56708">
        <ele>97.1</ele>
        <time>2022-08-03T07:17:39Z</time>
      </trkpt>
      <trkpt lat="49.84224" lon="2.56708">
        <ele>97.1</ele>
        <time>2022-08-03T07:17:41Z</time>
      </trkpt>
      <trkpt lat="49.84223" lon="2.56707">
        <ele>97.1</ele>
        <time>2022-08-03T07:17:42Z</time>
      </trkpt>
      <trkpt lat="49.84221" lon="2.56704">
        <ele>97.1</ele>
        <time>2022-08-03T07:17:43Z</time>
      </trkpt>
      <trkpt lat="49.8422" lon="2.56703">
        <ele>97.2</ele>
        <time>2022-08-03T07:17:44Z</time>
      </trkpt>
      <trkpt lat="49.84218" lon="2.56701">
        <ele>97.2</ele>
        <time>2022-08-03T07:17:46Z</time>
      </trkpt>
      <trkpt lat="49.84218" lon="2.567">
        <ele>97.2</ele>
        <time>2022-08-03T07:17:47Z</time>
      </trkpt>
      <trkpt lat="49.84217" lon="2.567">
        <ele>97.2</ele>
        <time>2022-08-03T07:17:48Z</time>
      </trkpt>
      <trkpt lat="49.84216" lon="2.56698">
        <ele>97.2</ele>
        <time>2022-08-03T07:17:49Z</time>
      </trkpt>
      <trkpt lat="49.84215" lon="2.56697">
        <ele>97.3</ele>
        <time>2022-08-03T07:17:50Z</time>
      </trkpt>
      <trkpt lat="49.84214" lon="2.56695">
        <ele>97.3</ele>
        <time>2022-08-03T07:17:51Z</time>
      </trkpt>
      <trkpt lat="49.84213" lon="2.56694">
        <ele>97.3</ele>
        <time>2022-08-03T07:17:52Z</time>
      </trkpt>
      <trkpt lat="49.84211" lon="2.56692">
        <ele>97.3</ele>
        <time>2022-08-03T07:17:53Z</time>
      </trkpt>
      <trkpt lat="49.84211" lon="2.56691">
        <ele>97.3</ele>
        <time>2022-08-03T07:17:55Z</time>
      </trkpt>
      <trkpt lat="49.8421" lon="2.5669">
        <ele>97.4</ele>
        <time>2022-08-03T07:17:56Z</time>
      </trkpt>
      <trkpt lat="49.84208" lon="2.56688">
        <ele>97.4</ele>
        <time>2022-08-03T07:17:57Z</time>
      </trkpt>
      <trkpt lat="49.84208" lon="2.56688">
        <ele>97.4</ele>
        <time>2022-08-03T07:17:58Z</time>
      </trkpt>
      <trkpt lat="49.84207" lon="2.56687">
        <ele>97.4</ele>
        <time>2022-08-03T07:17:59Z</time>
      </trkpt>
      <trkpt lat="49.84205" lon="2.56684">
        <ele>97.5</ele>
        <time>2022-08-03T07:18:00Z</time>
      </trkpt>
      <trkpt lat="49.84204" lon="2.56683">
        <ele>97.5</ele>
        <time>2022-08-03T07:18:01Z</time>
      </trkpt>
      <trkpt lat="49.84204" lon="2.56682">
        <ele>97.5</ele>
        <time>2022-08-03T07:18:02Z</time>
      </trkpt>
      <trkpt lat="49.84203" lon="2.56681">
        <ele>97.5</ele>
        <time>2022-08-03T07:18:04Z</time>
      </trkpt>
      <trkpt lat="49.84202" lon="2.5668">
        <ele>97.5</ele>
        <time>2022-08-03T07:18:05Z</time>
      </trkpt>
      <trkpt lat="49.84201" lon="2.56679">
        <ele>97.6</ele>
        <time>2022-08-03T07:18:06Z</time>
      </trkpt>
      <trkpt lat="49.84199" lon="2.56677">
        <ele>97.6</ele>
        <time>2022-08-03T07:18:07Z</time>
      </trkpt>
      <trkpt lat="49.84199" lon="2.56676">
        <ele>97.6</ele>
        <time>2022-08-03T07:18:08Z</time>
      </trkpt>
      <trkpt lat="49.84198" lon="2.56675">
        <ele>97.6</ele>
        <time>2022-08-03T07:18:09Z</time>
      </trkpt>
      <trkpt lat="49.84197" lon="2.56674">
        <ele>97.6</ele>
        <time>2022-08-03T07:18:10Z</time>
      </trkpt>
      <trkpt lat="49.84196" lon="2.56672">
        <ele>97.7</ele>
        <time>2022-08-03T07:18:11Z</time>
      </trkpt>
      <trkpt lat="49.84195" lon="2.56671">
        <ele>97.7</ele>
        <time>2022-08-03T07:18:13Z</time>
      </trkpt>
      <trkpt lat="49.84195" lon="2.5667">
        <ele>97.7</ele>
        <time>2022-08-03T07:18:14Z</time>
      </trkpt>
      <trkpt lat="49.84194" lon="2.56669">
        <ele>97.7</ele>
        <time>2022-08-03T07:18:15Z</time>
      </trkpt>
      <trkpt lat="49.84193" lon="2.56669">
        <ele>97.7</ele>
        <time>2022-08-03T07:18:16Z</time>
      </trkpt>
      <trkpt lat="49.84191" lon="2.56667">
        <ele>97.8</ele>
        <time>2022-08-03T07:18:17Z</time>
      </trkpt>
      <trkpt lat="49.8419" lon="2.56666">
        <ele>97.8</ele>
        <time>2022-08-03T07:18:18Z</time>
      </trkpt>
      <trkpt lat="49.84189" lon="2.56665">
        <ele>97.8</ele>
        <time>2022-08-03T07:18:19Z</time>
      </trkpt>
      <trkpt lat="49.84189" lon="2.56664">
        <ele>97.8</ele>
        <time>2022-08-03T07:18:20Z</time>
      </trkpt>
      <trkpt lat="49.84188" lon="2.56663">
        <ele>97.8</ele>
        <time>2022-08-03T07:18:21Z</time>
      </trkpt>
      <trkpt lat="49.84187" lon="2.56662">
        <ele>97.9</ele>
        <time>2022-08-03T07:18:23Z</time>
      </trkpt>
      <trkpt lat="49.84186" lon="2.56661">
        <ele>97.9</ele>
        <time>2022-08-03T07:18:24Z</time>
      </trkpt>
      <trkpt lat="49.84185" lon="2.5666">
        <ele>97.9</ele>
        <time>2022-08-03T07:18:25Z</time>
      </trkpt>
      <trkpt lat="49.84184" lon="2.5666">
        <ele>97.9</ele>
        <time>2022-08-03T07:18:26Z</time>
      </trkpt>
      <trkpt lat="49.84183" lon="2.56659">
        <ele>97.9</ele>
        <time>2022-08-03T07:18:27Z</time>
      </trkpt>
      <trkpt lat="49.84182" lon="2.56658">
        <ele>98</ele>
        <time>2022-08-03T07:18:28Z</time>
      </trkpt>
      <trkpt lat="49.8418" lon="2.56657">
        <ele>98</ele>
        <time>2022-08-03T07:18:29Z</time>
      </trkpt>
      <trkpt lat="49.84179" lon="2.56656">
        <ele>98</ele>
        <time>2022-08-03T07:18:30Z</time>
      </trkpt>
      <trkpt lat="49.84177" lon="2.56654">
        <ele>98</ele>
        <time>2022-08-03T07:18:31Z</time>
      </trkpt>
      <trkpt lat="49.84177" lon="2.56653">
        <ele>98.1</ele>
        <time>2022-08-03T07:18:33Z</time>
      </trkpt>
      <trkpt lat="49.84176" lon="2.56652">
        <ele>98.1</ele>
        <time>2022-08-03T07:18:34Z</time>
      </trkpt>
      <trkpt lat="49.84175" lon="2.56652">
        <ele>98.1</ele>
        <time>2022-08-03T07:18:35Z</time>
      </trkpt>
      <trkpt lat="49.84174" lon="2.56651">
        <ele>98.1</ele>
        <time>2022-08-03T07:18:36Z</time>
      </trkpt>
      <trkpt lat="49.84173" lon="2.5665">
        <ele>98.1</ele>
        <time>2022-08-03T07:18:37Z</time>
      </trkpt>
      <trkpt lat="49.84172" lon="2.56649">
        <ele>98.1</ele>
        <time>2022-08-03T07:18:38Z</time>
      </trkpt>
      <trkpt lat="49.8417" lon="2.56647">
        <ele>98.2</ele>
        <time>2022-08-03T07:18:39Z</time>
      </trkpt>
      <trkpt lat="49.84169" lon="2.56647">
        <ele>98.2</ele>
        <time>2022-08-03T07:18:40Z</time>
      </trkpt>
      <trkpt lat="49.84168" lon="2.56646">
        <ele>98.2</ele>
        <time>2022-08-03T07:18:41Z</time>
      </trkpt>
      <trkpt lat="49.84167" lon="2.56644">
        <ele>98.2</ele>
        <time>2022-08-03T07:18:42Z</time>
      </trkpt>
      <trkpt lat="49.84166" lon="2.56643">
        <ele>98.3</ele>
        <time>2022-08-03T07:18:43Z</time>
      </trkpt>
      <trkpt lat="49.84165" lon="2.56643">
        <ele>98.3</ele>
        <time>2022-08-03T07:18:45Z</time>
      </trkpt>
      <trkpt lat="49.84164" lon="2.56641">
        <ele>98.3</ele>
        <time>2022-08-03T07:18:47Z</time>
      </trkpt>
      <trkpt lat="49.84162" lon="2.56639">
        <ele>98.3</ele>
        <time>2022-08-03T07:18:48Z</time>
      </trkpt>
      <trkpt lat="49.84161" lon="2.56638">
        <ele>98.3</ele>
        <time>2022-08-03T07:18:49Z</time>
      </trkpt>
      <trkpt lat="49.84161" lon="2.56638">
        <ele>98.3</ele>
        <time>2022-08-03T07:18:50Z</time>
      </trkpt>
      <trkpt lat="49.8416" lon="2.56637">
        <ele>98.4</ele>
        <time>2022-08-03T07:18:51Z</time>
      </trkpt>
      <trkpt lat="49.84159" lon="2.56636">
        <ele>98.4</ele>
        <time>2022-08-03T07:18:52Z</time>
      </trkpt>
      <trkpt lat="49.84158" lon="2.56635">
        <ele>98.4</ele>
        <time>2022-08-03T07:18:54Z</time>
      </trkpt>
      <trkpt lat="49.84158" lon="2.56635">
        <ele>98.4</ele>
        <time>2022-08-03T07:18:55Z</time>
      </trkpt>
      <trkpt lat="49.84157" lon="2.56634">
        <ele>98.4</ele>
        <time>2022-08-03T07:18:56Z</time>
      </trkpt>
      <trkpt lat="49.84157" lon="2.56633">
        <ele>98.4</ele>
        <time>2022-08-03T07:18:57Z</time>
      </trkpt>
      <trkpt lat="49.84156" lon="2.56631">
        <ele>98.4</ele>
        <time>2022-08-03T07:18:59Z</time>
      </trkpt>
      <trkpt lat="49.84155" lon="2.56631">
        <ele>98.4</ele>
        <time>2022-08-03T07:19:00Z</time>
      </trkpt>
      <trkpt lat="49.84154" lon="2.5663">
        <ele>98.5</ele>
        <time>2022-08-03T07:19:01Z</time>
      </trkpt>
      <trkpt lat="49.84153" lon="2.56629">
        <ele>98.5</ele>
        <time>2022-08-03T07:19:02Z</time>
      </trkpt>
      <trkpt lat="49.84153" lon="2.56628">
        <ele>98.5</ele>
        <time>2022-08-03T07:19:03Z</time>
      </trkpt>
      <trkpt lat="49.84152" lon="2.56627">
        <ele>98.5</ele>
        <time>2022-08-03T07:19:04Z</time>
      </trkpt>
      <trkpt lat="49.84152" lon="2.56626">
        <ele>98.5</ele>
        <time>2022-08-03T07:19:05Z</time>
      </trkpt>
      <trkpt lat="49.84151" lon="2.56625">
        <ele>98.5</ele>
        <time>2022-08-03T07:19:06Z</time>
      </trkpt>
      <trkpt lat="49.8415" lon="2.56624">
        <ele>98.5</ele>
        <time>2022-08-03T07:19:08Z</time>
      </trkpt>
      <trkpt lat="49.84149" lon="2.56623">
        <ele>98.5</ele>
        <time>2022-08-03T07:19:09Z</time>
      </trkpt>
      <trkpt lat="49.84148" lon="2.56622">
        <ele>98.6</ele>
        <time>2022-08-03T07:19:10Z</time>
      </trkpt>
      <trkpt lat="49.84148" lon="2.56621">
        <ele>98.6</ele>
        <time>2022-08-03T07:19:11Z</time>
      </trkpt>
      <trkpt lat="49.84146" lon="2.56618">
        <ele>98.6</ele>
        <time>2022-08-03T07:19:13Z</time>
      </trkpt>
      <trkpt lat="49.84146" lon="2.56617">
        <ele>98.6</ele>
        <time>2022-08-03T07:19:14Z</time>
      </trkpt>
      <trkpt lat="49.84144" lon="2.56614">
        <ele>98.6</ele>
        <time>2022-08-03T07:19:15Z</time>
      </trkpt>
      <trkpt lat="49.84143" lon="2.56613">
        <ele>98.7</ele>
        <time>2022-08-03T07:19:16Z</time>
      </trkpt>
      <trkpt lat="49.84142" lon="2.56612">
        <ele>98.7</ele>
        <time>2022-08-03T07:19:17Z</time>
      </trkpt>
      <trkpt lat="49.8414" lon="2.5661">
        <ele>98.7</ele>
        <time>2022-08-03T07:19:18Z</time>
      </trkpt>
      <trkpt lat="49.84139" lon="2.56609">
        <ele>98.7</ele>
        <time>2022-08-03T07:19:19Z</time>
      </trkpt>
      <trkpt lat="49.84138" lon="2.56608">
        <ele>98.7</ele>
        <time>2022-08-03T07:19:20Z</time>
      </trkpt>
      <trkpt lat="49.84136" lon="2.56606">
        <ele>98.7</ele>
        <time>2022-08-03T07:19:22Z</time>
      </trkpt>
      <trkpt lat="49.84135" lon="2.56606">
        <ele>98.8</ele>
        <time>2022-08-03T07:19:23Z</time>
      </trkpt>
      <trkpt lat="49.84134" lon="2.56605">
        <ele>98.8</ele>
        <time>2022-08-03T07:19:24Z</time>
      </trkpt>
      <trkpt lat="49.84132" lon="2.56603">
        <ele>98.8</ele>
        <time>2022-08-03T07:19:25Z</time>
      </trkpt>
      <trkpt lat="49.84132" lon="2.56602">
        <ele>98.8</ele>
        <time>2022-08-03T07:19:26Z</time>
      </trkpt>
      <trkpt lat="49.84131" lon="2.56602">
        <ele>98.8</ele>
        <time>2022-08-03T07:19:27Z</time>
      </trkpt>
      <trkpt lat="49.8413" lon="2.566">
        <ele>98.8</ele>
        <time>2022-08-03T07:19:28Z</time>
      </trkpt>
      <trkpt lat="49.84129" lon="2.566">
        <ele>98.8</ele>
        <time>2022-08-03T07:19:29Z</time>
      </trkpt>
      <trkpt lat="49.84128" lon="2.56599">
        <ele>98.8</ele>
        <time>2022-08-03T07:19:31Z</time>
      </trkpt>
      <trkpt lat="49.84126" lon="2.56598">
        <ele>98.9</ele>
        <time>2022-08-03T07:19:32Z</time>
      </trkpt>
      <trkpt lat="49.84126" lon="2.56597">
        <ele>98.9</ele>
        <time>2022-08-03T07:19:33Z</time>
      </trkpt>
      <trkpt lat="49.84125" lon="2.56597">
        <ele>98.9</ele>
        <time>2022-08-03T07:19:34Z</time>
      </trkpt>
      <trkpt lat="49.84123" lon="2.56595">
        <ele>98.9</ele>
        <time>2022-08-03T07:19:36Z</time>
      </trkpt>
      <trkpt lat="49.84122" lon="2.56594">
        <ele>98.9</ele>
        <time>2022-08-03T07:19:37Z</time>
      </trkpt>
      <trkpt lat="49.8412" lon="2.56592">
        <ele>99</ele>
        <time>2022-08-03T07:19:38Z</time>
      </trkpt>
      <trkpt lat="49.84119" lon="2.56592">
        <ele>99</ele>
        <time>2022-08-03T07:19:39Z</time>
      </trkpt>
      <trkpt lat="49.84118" lon="2.56591">
        <ele>99</ele>
        <time>2022-08-03T07:19:40Z</time>
      </trkpt>
      <trkpt lat="49.84118" lon="2.5659">
        <ele>99</ele>
        <time>2022-08-03T07:19:41Z</time>
      </trkpt>
      <trkpt lat="49.84117" lon="2.56589">
        <ele>99</ele>
        <time>2022-08-03T07:19:43Z</time>
      </trkpt>
      <trkpt lat="49.84116" lon="2.56588">
        <ele>99</ele>
        <time>2022-08-03T07:19:44Z</time>
      </trkpt>
      <trkpt lat="49.84115" lon="2.56587">
        <ele>99.1</ele>
        <time>2022-08-03T07:19:45Z</time>
      </trkpt>
      <trkpt lat="49.84114" lon="2.56586">
        <ele>99.1</ele>
        <time>2022-08-03T07:19:46Z</time>
      </trkpt>
      <trkpt lat="49.84114" lon="2.56585">
        <ele>99.1</ele>
        <time>2022-08-03T07:19:47Z</time>
      </trkpt>
      <trkpt lat="49.84113" lon="2.56585">
        <ele>99.1</ele>
        <time>2022-08-03T07:19:48Z</time>
      </trkpt>
      <trkpt lat="49.84112" lon="2.56584">
        <ele>99.1</ele>
        <time>2022-08-03T07:19:49Z</time>
      </trkpt>
      <trkpt lat="49.84112" lon="2.56583">
        <ele>99.1</ele>
        <time>2022-08-03T07:19:50Z</time>
      </trkpt>
      <trkpt lat="49.84111" lon="2.56583">
        <ele>99.1</ele>
        <time>2022-08-03T07:19:52Z</time>
      </trkpt>
      <trkpt lat="49.84111" lon="2.56582">
        <ele>99.1</ele>
        <time>2022-08-03T07:19:53Z</time>
      </trkpt>
      <trkpt lat="49.84111" lon="2.56583">
        <ele>99.2</ele>
        <time>2022-08-03T07:19:54Z</time>
      </trkpt>
      <trkpt lat="49.84111" lon="2.56583">
        <ele>99.2</ele>
        <time>2022-08-03T07:19:56Z</time>
      </trkpt>
      <trkpt lat="49.8411" lon="2.56583">
        <ele>99.2</ele>
        <time>2022-08-03T07:19:57Z</time>
      </trkpt>
      <trkpt lat="49.84108" lon="2.56581">
        <ele>99.2</ele>
        <time>2022-08-03T07:19:58Z</time>
      </trkpt>
      <trkpt lat="49.84107" lon="2.5658">
        <ele>99.2</ele>
        <time>2022-08-03T07:20:00Z</time>
      </trkpt>
      <trkpt lat="49.84106" lon="2.56577">
        <ele>99.2</ele>
        <time>2022-08-03T07:20:01Z</time>
      </trkpt>
      <trkpt lat="49.84105" lon="2.56576">
        <ele>99.3</ele>
        <time>2022-08-03T07:20:02Z</time>
      </trkpt>
      <trkpt lat="49.84105" lon="2.56575">
        <ele>99.3</ele>
        <time>2022-08-03T07:20:03Z</time>
      </trkpt>
      <trkpt lat="49.84104" lon="2.56574">
        <ele>99.3</ele>
        <time>2022-08-03T07:20:04Z</time>
      </trkpt>
      <trkpt lat="49.84103" lon="2.56573">
        <ele>99.3</ele>
        <time>2022-08-03T07:20:05Z</time>
      </trkpt>
      <trkpt lat="49.84102" lon="2.56572">
        <ele>99.3</ele>
        <time>2022-08-03T07:20:06Z</time>
      </trkpt>
      <trkpt lat="49.84101" lon="2.56571">
        <ele>99.3</ele>
        <time>2022-08-03T07:20:07Z</time>
      </trkpt>
      <trkpt lat="49.841" lon="2.56569">
        <ele>99.3</ele>
        <time>2022-08-03T07:20:08Z</time>
      </trkpt>
      <trkpt lat="49.84099" lon="2.56568">
        <ele>99.3</ele>
        <time>2022-08-03T07:20:10Z</time>
      </trkpt>
      <trkpt lat="49.84098" lon="2.56567">
        <ele>99.4</ele>
        <time>2022-08-03T07:20:11Z</time>
      </trkpt>
      <trkpt lat="49.84097" lon="2.56566">
        <ele>99.4</ele>
        <time>2022-08-03T07:20:12Z</time>
      </trkpt>
      <trkpt lat="49.84095" lon="2.56565">
        <ele>99.4</ele>
        <time>2022-08-03T07:20:13Z</time>
      </trkpt>
      <trkpt lat="49.84094" lon="2.56563">
        <ele>99.4</ele>
        <time>2022-08-03T07:20:14Z</time>
      </trkpt>
      <trkpt lat="49.84092" lon="2.56562">
        <ele>99.4</ele>
        <time>2022-08-03T07:20:15Z</time>
      </trkpt>
      <trkpt lat="49.84091" lon="2.56561">
        <ele>99.4</ele>
        <time>2022-08-03T07:20:16Z</time>
      </trkpt>
      <trkpt lat="49.84089" lon="2.56559">
        <ele>99.5</ele>
        <time>2022-08-03T07:20:17Z</time>
      </trkpt>
      <trkpt lat="49.84088" lon="2.56558">
        <ele>99.5</ele>
        <time>2022-08-03T07:20:18Z</time>
      </trkpt>
      <trkpt lat="49.84086" lon="2.56557">
        <ele>99.5</ele>
        <time>2022-08-03T07:20:20Z</time>
      </trkpt>
      <trkpt lat="49.84085" lon="2.56555">
        <ele>99.5</ele>
        <time>2022-08-03T07:20:21Z</time>
      </trkpt>
      <trkpt lat="49.84084" lon="2.56554">
        <ele>99.5</ele>
        <time>2022-08-03T07:20:22Z</time>
      </trkpt>
      <trkpt lat="49.84083" lon="2.56553">
        <ele>99.5</ele>
        <time>2022-08-03T07:20:23Z</time>
      </trkpt>
      <trkpt lat="49.84081" lon="2.56552">
        <ele>99.6</ele>
        <time>2022-08-03T07:20:24Z</time>
      </trkpt>
      <trkpt lat="49.8408" lon="2.5655">
        <ele>99.6</ele>
        <time>2022-08-03T07:20:25Z</time>
      </trkpt>
      <trkpt lat="49.84079" lon="2.56549">
        <ele>99.6</ele>
        <time>2022-08-03T07:20:26Z</time>
      </trkpt>
      <trkpt lat="49.84078" lon="2.56548">
        <ele>99.6</ele>
        <time>2022-08-03T07:20:27Z</time>
      </trkpt>
      <trkpt lat="49.84078" lon="2.56547">
        <ele>99.6</ele>
        <time>2022-08-03T07:20:28Z</time>
      </trkpt>
      <trkpt lat="49.84077" lon="2.56546">
        <ele>99.6</ele>
        <time>2022-08-03T07:20:29Z</time>
      </trkpt>
      <trkpt lat="49.84075" lon="2.56544">
        <ele>99.6</ele>
        <time>2022-08-03T07:20:31Z</time>
      </trkpt>
      <trkpt lat="49.84075" lon="2.56544">
        <ele>99.6</ele>
        <time>2022-08-03T07:20:32Z</time>
      </trkpt>
      <trkpt lat="49.84074" lon="2.56543">
        <ele>99.6</ele>
        <time>2022-08-03T07:20:33Z</time>
      </trkpt>
      <trkpt lat="49.84074" lon="2.56542">
        <ele>99.7</ele>
        <time>2022-08-03T07:20:34Z</time>
      </trkpt>
      <trkpt lat="49.84073" lon="2.56542">
        <ele>99.7</ele>
        <time>2022-08-03T07:20:36Z</time>
      </trkpt>
      <trkpt lat="49.84073" lon="2.56541">
        <ele>99.7</ele>
        <time>2022-08-03T07:20:37Z</time>
      </trkpt>
      <trkpt lat="49.84073" lon="2.56542">
        <ele>99.7</ele>
        <time>2022-08-03T07:20:38Z</time>
      </trkpt>
      <trkpt lat="49.84072" lon="2.56542">
        <ele>99.7</ele>
        <time>2022-08-03T07:20:39Z</time>
      </trkpt>
      <trkpt lat="49.8407" lon="2.56541">
        <ele>99.7</ele>
        <time>2022-08-03T07:20:40Z</time>
      </trkpt>
      <trkpt lat="49.84069" lon="2.5654">
        <ele>99.7</ele>
        <time>2022-08-03T07:20:41Z</time>
      </trkpt>
      <trkpt lat="49.84067" lon="2.56536">
        <ele>99.7</ele>
        <time>2022-08-03T07:20:43Z</time>
      </trkpt>
      <trkpt lat="49.84067" lon="2.56535">
        <ele>99.7</ele>
        <time>2022-08-03T07:20:44Z</time>
      </trkpt>
      <trkpt lat="49.84065" lon="2.56532">
        <ele>99.7</ele>
        <time>2022-08-03T07:20:45Z</time>
      </trkpt>
      <trkpt lat="49.84064" lon="2.56531">
        <ele>99.7</ele>
        <time>2022-08-03T07:20:46Z</time>
      </trkpt>
      <trkpt lat="49.84063" lon="2.5653">
        <ele>99.8</ele>
        <time>2022-08-03T07:20:47Z</time>
      </trkpt>
      <trkpt lat="49.84062" lon="2.56528">
        <ele>99.8</ele>
        <time>2022-08-03T07:20:49Z</time>
      </trkpt>
      <trkpt lat="49.84061" lon="2.56527">
        <ele>99.8</ele>
        <time>2022-08-03T07:20:50Z</time>
      </trkpt>
      <trkpt lat="49.84061" lon="2.56526">
        <ele>99.8</ele>
        <time>2022-08-03T07:20:51Z</time>
      </trkpt>
      <trkpt lat="49.8406" lon="2.56524">
        <ele>99.8</ele>
        <time>2022-08-03T07:20:52Z</time>
      </trkpt>
      <trkpt lat="49.84059" lon="2.56523">
        <ele>99.8</ele>
        <time>2022-08-03T07:20:53Z</time>
      </trkpt>
      <trkpt lat="49.84058" lon="2.56522">
        <ele>99.8</ele>
        <time>2022-08-03T07:20:54Z</time>
      </trkpt>
      <trkpt lat="49.84057" lon="2.56521">
        <ele>99.8</ele>
        <time>2022-08-03T07:20:55Z</time>
      </trkpt>
      <trkpt lat="49.84057" lon="2.5652">
        <ele>99.8</ele>
        <time>2022-08-03T07:20:56Z</time>
      </trkpt>
      <trkpt lat="49.84056" lon="2.56519">
        <ele>99.8</ele>
        <time>2022-08-03T07:20:57Z</time>
      </trkpt>
      <trkpt lat="49.84055" lon="2.56518">
        <ele>99.8</ele>
        <time>2022-08-03T07:20:59Z</time>
      </trkpt>
      <trkpt lat="49.84054" lon="2.56516">
        <ele>99.8</ele>
        <time>2022-08-03T07:21:00Z</time>
      </trkpt>
      <trkpt lat="49.84052" lon="2.56515">
        <ele>99.8</ele>
        <time>2022-08-03T07:21:01Z</time>
      </trkpt>
      <trkpt lat="49.84051" lon="2.56514">
        <ele>99.8</ele>
        <time>2022-08-03T07:21:02Z</time>
      </trkpt>
      <trkpt lat="49.8405" lon="2.56513">
        <ele>99.8</ele>
        <time>2022-08-03T07:21:03Z</time>
      </trkpt>
      <trkpt lat="49.84049" lon="2.56511">
        <ele>99.8</ele>
        <time>2022-08-03T07:21:04Z</time>
      </trkpt>
      <trkpt lat="49.84048" lon="2.5651">
        <ele>99.8</ele>
        <time>2022-08-03T07:21:05Z</time>
      </trkpt>
      <trkpt lat="49.84047" lon="2.56509">
        <ele>99.8</ele>
        <time>2022-08-03T07:21:07Z</time>
      </trkpt>
      <trkpt lat="49.84046" lon="2.56508">
        <ele>99.8</ele>
        <time>2022-08-03T07:21:08Z</time>
      </trkpt>
      <trkpt lat="49.84046" lon="2.56508">
        <ele>99.8</ele>
        <time>2022-08-03T07:21:09Z</time>
      </trkpt>
      <trkpt lat="49.84044" lon="2.56507">
        <ele>99.8</ele>
        <time>2022-08-03T07:21:10Z</time>
      </trkpt>
      <trkpt lat="49.84043" lon="2.56505">
        <ele>99.8</ele>
        <time>2022-08-03T07:21:11Z</time>
      </trkpt>
      <trkpt lat="49.84042" lon="2.56505">
        <ele>99.8</ele>
        <time>2022-08-03T07:21:12Z</time>
      </trkpt>
      <trkpt lat="49.84041" lon="2.56503">
        <ele>99.9</ele>
        <time>2022-08-03T07:21:14Z</time>
      </trkpt>
      <trkpt lat="49.84039" lon="2.56502">
        <ele>99.9</ele>
        <time>2022-08-03T07:21:15Z</time>
      </trkpt>
      <trkpt lat="49.84038" lon="2.565">
        <ele>99.9</ele>
        <time>2022-08-03T07:21:16Z</time>
      </trkpt>
      <trkpt lat="49.84036" lon="2.56499">
        <ele>99.9</ele>
        <time>2022-08-03T07:21:17Z</time>
      </trkpt>
      <trkpt lat="49.84034" lon="2.56497">
        <ele>99.9</ele>
        <time>2022-08-03T07:21:18Z</time>
      </trkpt>
      <trkpt lat="49.84033" lon="2.56496">
        <ele>99.9</ele>
        <time>2022-08-03T07:21:19Z</time>
      </trkpt>
      <trkpt lat="49.84031" lon="2.56493">
        <ele>100</ele>
        <time>2022-08-03T07:21:20Z</time>
      </trkpt>
      <trkpt lat="49.8403" lon="2.56491">
        <ele>100</ele>
        <time>2022-08-03T07:21:22Z</time>
      </trkpt>
      <trkpt lat="49.84028" lon="2.56489">
        <ele>100</ele>
        <time>2022-08-03T07:21:23Z</time>
      </trkpt>
      <trkpt lat="49.84027" lon="2.56488">
        <ele>100</ele>
        <time>2022-08-03T07:21:24Z</time>
      </trkpt>
      <trkpt lat="49.84026" lon="2.56487">
        <ele>100</ele>
        <time>2022-08-03T07:21:25Z</time>
      </trkpt>
      <trkpt lat="49.84024" lon="2.56485">
        <ele>100</ele>
        <time>2022-08-03T07:21:26Z</time>
      </trkpt>
      <trkpt lat="49.84023" lon="2.56484">
        <ele>100</ele>
        <time>2022-08-03T07:21:27Z</time>
      </trkpt>
      <trkpt lat="49.84022" lon="2.56483">
        <ele>100</ele>
        <time>2022-08-03T07:21:28Z</time>
      </trkpt>
      <trkpt lat="49.84021" lon="2.56482">
        <ele>100</ele>
        <time>2022-08-03T07:21:29Z</time>
      </trkpt>
      <trkpt lat="49.84019" lon="2.5648">
        <ele>100</ele>
        <time>2022-08-03T07:21:31Z</time>
      </trkpt>
      <trkpt lat="49.84018" lon="2.56479">
        <ele>100</ele>
        <time>2022-08-03T07:21:32Z</time>
      </trkpt>
      <trkpt lat="49.84016" lon="2.56477">
        <ele>100.1</ele>
        <time>2022-08-03T07:21:33Z</time>
      </trkpt>
      <trkpt lat="49.84016" lon="2.56476">
        <ele>100.1</ele>
        <time>2022-08-03T07:21:35Z</time>
      </trkpt>
      <trkpt lat="49.84015" lon="2.56475">
        <ele>100.1</ele>
        <time>2022-08-03T07:21:36Z</time>
      </trkpt>
      <trkpt lat="49.84014" lon="2.56474">
        <ele>100.1</ele>
        <time>2022-08-03T07:21:37Z</time>
      </trkpt>
      <trkpt lat="49.84013" lon="2.56473">
        <ele>100.1</ele>
        <time>2022-08-03T07:21:38Z</time>
      </trkpt>
      <trkpt lat="49.84012" lon="2.56472">
        <ele>100.1</ele>
        <time>2022-08-03T07:21:39Z</time>
      </trkpt>
      <trkpt lat="49.84011" lon="2.56471">
        <ele>100.1</ele>
        <time>2022-08-03T07:21:40Z</time>
      </trkpt>
      <trkpt lat="49.84009" lon="2.56468">
        <ele>100.1</ele>
        <time>2022-08-03T07:21:41Z</time>
      </trkpt>
      <trkpt lat="49.84008" lon="2.56467">
        <ele>100.1</ele>
        <time>2022-08-03T07:21:43Z</time>
      </trkpt>
      <trkpt lat="49.84007" lon="2.56466">
        <ele>100.1</ele>
        <time>2022-08-03T07:21:44Z</time>
      </trkpt>
      <trkpt lat="49.84006" lon="2.56465">
        <ele>100.1</ele>
        <time>2022-08-03T07:21:45Z</time>
      </trkpt>
      <trkpt lat="49.84005" lon="2.56464">
        <ele>100.1</ele>
        <time>2022-08-03T07:21:46Z</time>
      </trkpt>
      <trkpt lat="49.84004" lon="2.56462">
        <ele>100.1</ele>
        <time>2022-08-03T07:21:47Z</time>
      </trkpt>
      <trkpt lat="49.84003" lon="2.56461">
        <ele>100.1</ele>
        <time>2022-08-03T07:21:48Z</time>
      </trkpt>
      <trkpt lat="49.84001" lon="2.56459">
        <ele>100.1</ele>
        <time>2022-08-03T07:21:49Z</time>
      </trkpt>
      <trkpt lat="49.84" lon="2.56459">
        <ele>100.1</ele>
        <time>2022-08-03T07:21:50Z</time>
      </trkpt>
      <trkpt lat="49.83999" lon="2.56458">
        <ele>100.1</ele>
        <time>2022-08-03T07:21:52Z</time>
      </trkpt>
      <trkpt lat="49.83997" lon="2.56457">
        <ele>100.1</ele>
        <time>2022-08-03T07:21:53Z</time>
      </trkpt>
      <trkpt lat="49.83996" lon="2.56457">
        <ele>100.1</ele>
        <time>2022-08-03T07:21:54Z</time>
      </trkpt>
      <trkpt lat="49.83995" lon="2.56457">
        <ele>100.1</ele>
        <time>2022-08-03T07:21:55Z</time>
      </trkpt>
      <trkpt lat="49.83994" lon="2.56456">
        <ele>100.1</ele>
        <time>2022-08-03T07:21:56Z</time>
      </trkpt>
      <trkpt lat="49.83993" lon="2.56456">
        <ele>100.1</ele>
        <time>2022-08-03T07:21:57Z</time>
      </trkpt>
      <trkpt lat="49.83992" lon="2.56455">
        <ele>100.1</ele>
        <time>2022-08-03T07:21:58Z</time>
      </trkpt>
      <trkpt lat="49.83992" lon="2.56454">
        <ele>100.1</ele>
        <time>2022-08-03T07:21:59Z</time>
      </trkpt>
      <trkpt lat="49.83991" lon="2.56454">
        <ele>100.1</ele>
        <time>2022-08-03T07:22:01Z</time>
      </trkpt>
      <trkpt lat="49.8399" lon="2.56453">
        <ele>100.1</ele>
        <time>2022-08-03T07:22:02Z</time>
      </trkpt>
      <trkpt lat="49.8399" lon="2.56453">
        <ele>100.1</ele>
        <time>2022-08-03T07:22:03Z</time>
      </trkpt>
      <trkpt lat="49.83989" lon="2.56452">
        <ele>100.1</ele>
        <time>2022-08-03T07:22:04Z</time>
      </trkpt>
      <trkpt lat="49.83989" lon="2.56451">
        <ele>100.1</ele>
        <time>2022-08-03T07:22:05Z</time>
      </trkpt>
      <trkpt lat="49.83988" lon="2.5645">
        <ele>100.1</ele>
        <time>2022-08-03T07:22:06Z</time>
      </trkpt>
      <trkpt lat="49.83988" lon="2.56449">
        <ele>100.1</ele>
        <time>2022-08-03T07:22:07Z</time>
      </trkpt>
      <trkpt lat="49.83987" lon="2.56448">
        <ele>100.1</ele>
        <time>2022-08-03T07:22:08Z</time>
      </trkpt>
      <trkpt lat="49.83987" lon="2.56447">
        <ele>100.1</ele>
        <time>2022-08-03T07:22:09Z</time>
      </trkpt>
      <trkpt lat="49.83987" lon="2.56445">
        <ele>100.1</ele>
        <time>2022-08-03T07:22:11Z</time>
      </trkpt>
      <trkpt lat="49.83985" lon="2.56443">
        <ele>100.1</ele>
        <time>2022-08-03T07:22:13Z</time>
      </trkpt>
      <trkpt lat="49.83982" lon="2.56441">
        <ele>100.1</ele>
        <time>2022-08-03T07:22:14Z</time>
      </trkpt>
      <trkpt lat="49.83981" lon="2.5644">
        <ele>100.1</ele>
        <time>2022-08-03T07:22:15Z</time>
      </trkpt>
      <trkpt lat="49.8398" lon="2.56438">
        <ele>100.1</ele>
        <time>2022-08-03T07:22:16Z</time>
      </trkpt>
      <trkpt lat="49.83977" lon="2.56436">
        <ele>100.1</ele>
        <time>2022-08-03T07:22:18Z</time>
      </trkpt>
      <trkpt lat="49.83976" lon="2.56435">
        <ele>100.1</ele>
        <time>2022-08-03T07:22:19Z</time>
      </trkpt>
      <trkpt lat="49.83975" lon="2.56434">
        <ele>100.1</ele>
        <time>2022-08-03T07:22:20Z</time>
      </trkpt>
      <trkpt lat="49.83971" lon="2.56432">
        <ele>100.1</ele>
        <time>2022-08-03T07:22:22Z</time>
      </trkpt>
      <trkpt lat="49.83971" lon="2.56431">
        <ele>100.1</ele>
        <time>2022-08-03T07:22:23Z</time>
      </trkpt>
      <trkpt lat="49.83969" lon="2.5643">
        <ele>100.1</ele>
        <time>2022-08-03T07:22:24Z</time>
      </trkpt>
      <trkpt lat="49.83968" lon="2.56428">
        <ele>100.2</ele>
        <time>2022-08-03T07:22:25Z</time>
      </trkpt>
      <trkpt lat="49.83966" lon="2.56427">
        <ele>100.2</ele>
        <time>2022-08-03T07:22:26Z</time>
      </trkpt>
      <trkpt lat="49.83965" lon="2.56425">
        <ele>100.2</ele>
        <time>2022-08-03T07:22:28Z</time>
      </trkpt>
      <trkpt lat="49.83963" lon="2.56424">
        <ele>100.2</ele>
        <time>2022-08-03T07:22:29Z</time>
      </trkpt>
      <trkpt lat="49.83962" lon="2.56423">
        <ele>100.2</ele>
        <time>2022-08-03T07:22:30Z</time>
      </trkpt>
      <trkpt lat="49.83961" lon="2.56421">
        <ele>100.2</ele>
        <time>2022-08-03T07:22:31Z</time>
      </trkpt>
      <trkpt lat="49.8396" lon="2.5642">
        <ele>100.2</ele>
        <time>2022-08-03T07:22:32Z</time>
      </trkpt>
      <trkpt lat="49.83958" lon="2.56418">
        <ele>100.2</ele>
        <time>2022-08-03T07:22:33Z</time>
      </trkpt>
      <trkpt lat="49.83957" lon="2.56417">
        <ele>100.2</ele>
        <time>2022-08-03T07:22:34Z</time>
      </trkpt>
      <trkpt lat="49.83956" lon="2.56416">
        <ele>100.2</ele>
        <time>2022-08-03T07:22:36Z</time>
      </trkpt>
      <trkpt lat="49.83955" lon="2.56415">
        <ele>100.2</ele>
        <time>2022-08-03T07:22:37Z</time>
      </trkpt>
      <trkpt lat="49.83954" lon="2.56413">
        <ele>100.2</ele>
        <time>2022-08-03T07:22:38Z</time>
      </trkpt>
      <trkpt lat="49.83953" lon="2.56411">
        <ele>100.3</ele>
        <time>2022-08-03T07:22:39Z</time>
      </trkpt>
      <trkpt lat="49.83952" lon="2.5641">
        <ele>100.3</ele>
        <time>2022-08-03T07:22:40Z</time>
      </trkpt>
      <trkpt lat="49.8395" lon="2.56408">
        <ele>100.3</ele>
        <time>2022-08-03T07:22:41Z</time>
      </trkpt>
      <trkpt lat="49.83949" lon="2.56407">
        <ele>100.3</ele>
        <time>2022-08-03T07:22:43Z</time>
      </trkpt>
      <trkpt lat="49.83948" lon="2.56405">
        <ele>100.3</ele>
        <time>2022-08-03T07:22:44Z</time>
      </trkpt>
      <trkpt lat="49.83947" lon="2.56402">
        <ele>100.3</ele>
        <time>2022-08-03T07:22:45Z</time>
      </trkpt>
      <trkpt lat="49.83946" lon="2.56401">
        <ele>100.3</ele>
        <time>2022-08-03T07:22:46Z</time>
      </trkpt>
      <trkpt lat="49.83946" lon="2.564">
        <ele>100.3</ele>
        <time>2022-08-03T07:22:47Z</time>
      </trkpt>
      <trkpt lat="49.83945" lon="2.56398">
        <ele>100.4</ele>
        <time>2022-08-03T07:22:48Z</time>
      </trkpt>
      <trkpt lat="49.83944" lon="2.56396">
        <ele>100.4</ele>
        <time>2022-08-03T07:22:49Z</time>
      </trkpt>
      <trkpt lat="49.83943" lon="2.56394">
        <ele>100.4</ele>
        <time>2022-08-03T07:22:50Z</time>
      </trkpt>
      <trkpt lat="49.83943" lon="2.56393">
        <ele>100.4</ele>
        <time>2022-08-03T07:22:51Z</time>
      </trkpt>
      <trkpt lat="49.83942" lon="2.56391">
        <ele>100.4</ele>
        <time>2022-08-03T07:22:52Z</time>
      </trkpt>
      <trkpt lat="49.83941" lon="2.56389">
        <ele>100.4</ele>
        <time>2022-08-03T07:22:53Z</time>
      </trkpt>
      <trkpt lat="49.8394" lon="2.56388">
        <ele>100.4</ele>
        <time>2022-08-03T07:22:54Z</time>
      </trkpt>
      <trkpt lat="49.8394" lon="2.56387">
        <ele>100.4</ele>
        <time>2022-08-03T07:22:56Z</time>
      </trkpt>
      <trkpt lat="49.83938" lon="2.56385">
        <ele>100.5</ele>
        <time>2022-08-03T07:22:57Z</time>
      </trkpt>
      <trkpt lat="49.83938" lon="2.56384">
        <ele>100.5</ele>
        <time>2022-08-03T07:22:58Z</time>
      </trkpt>
      <trkpt lat="49.83937" lon="2.56383">
        <ele>100.5</ele>
        <time>2022-08-03T07:22:59Z</time>
      </trkpt>
      <trkpt lat="49.83936" lon="2.56382">
        <ele>100.5</ele>
        <time>2022-08-03T07:23:00Z</time>
      </trkpt>
      <trkpt lat="49.83935" lon="2.56381">
        <ele>100.5</ele>
        <time>2022-08-03T07:23:01Z</time>
      </trkpt>
      <trkpt lat="49.83935" lon="2.56379">
        <ele>100.5</ele>
        <time>2022-08-03T07:23:02Z</time>
      </trkpt>
      <trkpt lat="49.83933" lon="2.56378">
        <ele>100.5</ele>
        <time>2022-08-03T07:23:03Z</time>
      </trkpt>
      <trkpt lat="49.83933" lon="2.56378">
        <ele>100.5</ele>
        <time>2022-08-03T07:23:04Z</time>
      </trkpt>
      <trkpt lat="49.83932" lon="2.56377">
        <ele>100.5</ele>
        <time>2022-08-03T07:23:05Z</time>
      </trkpt>
      <trkpt lat="49.8393" lon="2.56374">
        <ele>100.6</ele>
        <time>2022-08-03T07:23:07Z</time>
      </trkpt>
      <trkpt lat="49.8393" lon="2.56373">
        <ele>100.6</ele>
        <time>2022-08-03T07:23:08Z</time>
      </trkpt>
      <trkpt lat="49.83929" lon="2.56373">
        <ele>100.6</ele>
        <time>2022-08-03T07:23:09Z</time>
      </trkpt>
      <trkpt lat="49.83928" lon="2.56371">
        <ele>100.6</ele>
        <time>2022-08-03T07:23:10Z</time>
      </trkpt>
      <trkpt lat="49.83927" lon="2.5637">
        <ele>100.6</ele>
        <time>2022-08-03T07:23:11Z</time>
      </trkpt>
      <trkpt lat="49.83926" lon="2.5637">
        <ele>100.6</ele>
        <time>2022-08-03T07:23:12Z</time>
      </trkpt>
      <trkpt lat="49.83925" lon="2.56369">
        <ele>100.6</ele>
        <time>2022-08-03T07:23:14Z</time>
      </trkpt>
      <trkpt lat="49.83924" lon="2.56368">
        <ele>100.6</ele>
        <time>2022-08-03T07:23:15Z</time>
      </trkpt>
      <trkpt lat="49.83922" lon="2.56366">
        <ele>100.7</ele>
        <time>2022-08-03T07:23:16Z</time>
      </trkpt>
      <trkpt lat="49.83921" lon="2.56365">
        <ele>100.7</ele>
        <time>2022-08-03T07:23:17Z</time>
      </trkpt>
      <trkpt lat="49.8392" lon="2.56364">
        <ele>100.7</ele>
        <time>2022-08-03T07:23:18Z</time>
      </trkpt>
      <trkpt lat="49.83919" lon="2.56363">
        <ele>100.7</ele>
        <time>2022-08-03T07:23:19Z</time>
      </trkpt>
      <trkpt lat="49.83918" lon="2.56362">
        <ele>100.7</ele>
        <time>2022-08-03T07:23:21Z</time>
      </trkpt>
      <trkpt lat="49.83917" lon="2.56361">
        <ele>100.7</ele>
        <time>2022-08-03T07:23:22Z</time>
      </trkpt>
      <trkpt lat="49.83915" lon="2.5636">
        <ele>100.8</ele>
        <time>2022-08-03T07:23:23Z</time>
      </trkpt>
      <trkpt lat="49.83915" lon="2.5636">
        <ele>100.8</ele>
        <time>2022-08-03T07:23:24Z</time>
      </trkpt>
      <trkpt lat="49.83914" lon="2.5636">
        <ele>100.8</ele>
        <time>2022-08-03T07:23:25Z</time>
      </trkpt>
      <trkpt lat="49.83912" lon="2.56358">
        <ele>100.8</ele>
        <time>2022-08-03T07:23:26Z</time>
      </trkpt>
      <trkpt lat="49.83911" lon="2.56357">
        <ele>100.8</ele>
        <time>2022-08-03T07:23:28Z</time>
      </trkpt>
      <trkpt lat="49.8391" lon="2.56356">
        <ele>100.8</ele>
        <time>2022-08-03T07:23:29Z</time>
      </trkpt>
      <trkpt lat="49.83909" lon="2.56355">
        <ele>100.8</ele>
        <time>2022-08-03T07:23:30Z</time>
      </trkpt>
      <trkpt lat="49.83909" lon="2.56354">
        <ele>100.8</ele>
        <time>2022-08-03T07:23:31Z</time>
      </trkpt>
      <trkpt lat="49.83908" lon="2.56354">
        <ele>100.9</ele>
        <time>2022-08-03T07:23:32Z</time>
      </trkpt>
      <trkpt lat="49.83907" lon="2.56353">
        <ele>100.9</ele>
        <time>2022-08-03T07:23:33Z</time>
      </trkpt>
      <trkpt lat="49.83906" lon="2.56352">
        <ele>100.9</ele>
        <time>2022-08-03T07:23:34Z</time>
      </trkpt>
      <trkpt lat="49.83905" lon="2.56351">
        <ele>100.9</ele>
        <time>2022-08-03T07:23:36Z</time>
      </trkpt>
      <trkpt lat="49.83904" lon="2.5635">
        <ele>100.9</ele>
        <time>2022-08-03T07:23:37Z</time>
      </trkpt>
      <trkpt lat="49.83904" lon="2.56349">
        <ele>100.9</ele>
        <time>2022-08-03T07:23:38Z</time>
      </trkpt>
      <trkpt lat="49.83903" lon="2.56348">
        <ele>100.9</ele>
        <time>2022-08-03T07:23:39Z</time>
      </trkpt>
      <trkpt lat="49.83902" lon="2.56347">
        <ele>101</ele>
        <time>2022-08-03T07:23:40Z</time>
      </trkpt>
      <trkpt lat="49.83901" lon="2.56346">
        <ele>101</ele>
        <time>2022-08-03T07:23:41Z</time>
      </trkpt>
      <trkpt lat="49.839" lon="2.56346">
        <ele>101</ele>
        <time>2022-08-03T07:23:42Z</time>
      </trkpt>
      <trkpt lat="49.83898" lon="2.56346">
        <ele>101</ele>
        <time>2022-08-03T07:23:44Z</time>
      </trkpt>
      <trkpt lat="49.83897" lon="2.56346">
        <ele>101</ele>
        <time>2022-08-03T07:23:45Z</time>
      </trkpt>
      <trkpt lat="49.83897" lon="2.56346">
        <ele>101</ele>
        <time>2022-08-03T07:23:46Z</time>
      </trkpt>
      <trkpt lat="49.83896" lon="2.56345">
        <ele>101.1</ele>
        <time>2022-08-03T07:23:47Z</time>
      </trkpt>
      <trkpt lat="49.83894" lon="2.56344">
        <ele>101.1</ele>
        <time>2022-08-03T07:23:48Z</time>
      </trkpt>
      <trkpt lat="49.83893" lon="2.56343">
        <ele>101.1</ele>
        <time>2022-08-03T07:23:50Z</time>
      </trkpt>
      <trkpt lat="49.83892" lon="2.56343">
        <ele>101.1</ele>
        <time>2022-08-03T07:23:51Z</time>
      </trkpt>
      <trkpt lat="49.8389" lon="2.56342">
        <ele>101.1</ele>
        <time>2022-08-03T07:23:52Z</time>
      </trkpt>
      <trkpt lat="49.83889" lon="2.56341">
        <ele>101.2</ele>
        <time>2022-08-03T07:23:53Z</time>
      </trkpt>
      <trkpt lat="49.83888" lon="2.5634">
        <ele>101.2</ele>
        <time>2022-08-03T07:23:54Z</time>
      </trkpt>
      <trkpt lat="49.83888" lon="2.5634">
        <ele>101.2</ele>
        <time>2022-08-03T07:23:55Z</time>
      </trkpt>
      <trkpt lat="49.83887" lon="2.56339">
        <ele>101.2</ele>
        <time>2022-08-03T07:23:56Z</time>
      </trkpt>
      <trkpt lat="49.83886" lon="2.56338">
        <ele>101.2</ele>
        <time>2022-08-03T07:23:58Z</time>
      </trkpt>
      <trkpt lat="49.83884" lon="2.56336">
        <ele>101.2</ele>
        <time>2022-08-03T07:23:59Z</time>
      </trkpt>
      <trkpt lat="49.83884" lon="2.56336">
        <ele>101.3</ele>
        <time>2022-08-03T07:24:00Z</time>
      </trkpt>
      <trkpt lat="49.83883" lon="2.56335">
        <ele>101.3</ele>
        <time>2022-08-03T07:24:01Z</time>
      </trkpt>
      <trkpt lat="49.83882" lon="2.56334">
        <ele>101.3</ele>
        <time>2022-08-03T07:24:02Z</time>
      </trkpt>
      <trkpt lat="49.83881" lon="2.56333">
        <ele>101.3</ele>
        <time>2022-08-03T07:24:03Z</time>
      </trkpt>
      <trkpt lat="49.83879" lon="2.56331">
        <ele>101.3</ele>
        <time>2022-08-03T07:24:05Z</time>
      </trkpt>
      <trkpt lat="49.83878" lon="2.5633">
        <ele>101.3</ele>
        <time>2022-08-03T07:24:06Z</time>
      </trkpt>
      <trkpt lat="49.83878" lon="2.56329">
        <ele>101.4</ele>
        <time>2022-08-03T07:24:07Z</time>
      </trkpt>
      <trkpt lat="49.83877" lon="2.56327">
        <ele>101.4</ele>
        <time>2022-08-03T07:24:08Z</time>
      </trkpt>
      <trkpt lat="49.83876" lon="2.56325">
        <ele>101.4</ele>
        <time>2022-08-03T07:24:10Z</time>
      </trkpt>
      <trkpt lat="49.83875" lon="2.56324">
        <ele>101.4</ele>
        <time>2022-08-03T07:24:11Z</time>
      </trkpt>
      <trkpt lat="49.83874" lon="2.56321">
        <ele>101.4</ele>
        <time>2022-08-03T07:24:12Z</time>
      </trkpt>
      <trkpt lat="49.83873" lon="2.56319">
        <ele>101.5</ele>
        <time>2022-08-03T07:24:13Z</time>
      </trkpt>
      <trkpt lat="49.83873" lon="2.56317">
        <ele>101.5</ele>
        <time>2022-08-03T07:24:14Z</time>
      </trkpt>
      <trkpt lat="49.83871" lon="2.56314">
        <ele>101.5</ele>
        <time>2022-08-03T07:24:15Z</time>
      </trkpt>
      <trkpt lat="49.83871" lon="2.56314">
        <ele>101.5</ele>
        <time>2022-08-03T07:24:17Z</time>
      </trkpt>
      <trkpt lat="49.8387" lon="2.56313">
        <ele>101.5</ele>
        <time>2022-08-03T07:24:18Z</time>
      </trkpt>
      <trkpt lat="49.83869" lon="2.5631">
        <ele>101.5</ele>
        <time>2022-08-03T07:24:19Z</time>
      </trkpt>
      <trkpt lat="49.83869" lon="2.56309">
        <ele>101.6</ele>
        <time>2022-08-03T07:24:20Z</time>
      </trkpt>
      <trkpt lat="49.83867" lon="2.56307">
        <ele>101.6</ele>
        <time>2022-08-03T07:24:22Z</time>
      </trkpt>
      <trkpt lat="49.83866" lon="2.56306">
        <ele>101.6</ele>
        <time>2022-08-03T07:24:24Z</time>
      </trkpt>
      <trkpt lat="49.83865" lon="2.56304">
        <ele>101.6</ele>
        <time>2022-08-03T07:24:25Z</time>
      </trkpt>
      <trkpt lat="49.83864" lon="2.56303">
        <ele>101.6</ele>
        <time>2022-08-03T07:24:26Z</time>
      </trkpt>
      <trkpt lat="49.83862" lon="2.56301">
        <ele>101.7</ele>
        <time>2022-08-03T07:24:27Z</time>
      </trkpt>
      <trkpt lat="49.83861" lon="2.563">
        <ele>101.7</ele>
        <time>2022-08-03T07:24:28Z</time>
      </trkpt>
      <trkpt lat="49.8386" lon="2.56299">
        <ele>101.7</ele>
        <time>2022-08-03T07:24:29Z</time>
      </trkpt>
      <trkpt lat="49.83858" lon="2.56298">
        <ele>101.7</ele>
        <time>2022-08-03T07:24:30Z</time>
      </trkpt>
      <trkpt lat="49.83857" lon="2.56297">
        <ele>101.7</ele>
        <time>2022-08-03T07:24:32Z</time>
      </trkpt>
      <trkpt lat="49.83857" lon="2.56297">
        <ele>101.7</ele>
        <time>2022-08-03T07:24:33Z</time>
      </trkpt>
      <trkpt lat="49.83856" lon="2.56296">
        <ele>101.7</ele>
        <time>2022-08-03T07:24:34Z</time>
      </trkpt>
      <trkpt lat="49.83854" lon="2.56294">
        <ele>101.8</ele>
        <time>2022-08-03T07:24:35Z</time>
      </trkpt>
      <trkpt lat="49.83852" lon="2.56293">
        <ele>101.8</ele>
        <time>2022-08-03T07:24:36Z</time>
      </trkpt>
      <trkpt lat="49.83851" lon="2.56292">
        <ele>101.8</ele>
        <time>2022-08-03T07:24:37Z</time>
      </trkpt>
      <trkpt lat="49.8385" lon="2.56292">
        <ele>101.8</ele>
        <time>2022-08-03T07:24:38Z</time>
      </trkpt>
      <trkpt lat="49.83847" lon="2.56289">
        <ele>101.8</ele>
        <time>2022-08-03T07:24:39Z</time>
      </trkpt>
      <trkpt lat="49.83846" lon="2.56289">
        <ele>101.9</ele>
        <time>2022-08-03T07:24:41Z</time>
      </trkpt>
      <trkpt lat="49.83845" lon="2.56288">
        <ele>101.9</ele>
        <time>2022-08-03T07:24:42Z</time>
      </trkpt>
      <trkpt lat="49.83844" lon="2.56287">
        <ele>101.9</ele>
        <time>2022-08-03T07:24:43Z</time>
      </trkpt>
      <trkpt lat="49.83843" lon="2.56286">
        <ele>101.9</ele>
        <time>2022-08-03T07:24:44Z</time>
      </trkpt>
      <trkpt lat="49.83842" lon="2.56285">
        <ele>101.9</ele>
        <time>2022-08-03T07:24:45Z</time>
      </trkpt>
      <trkpt lat="49.83841" lon="2.56285">
        <ele>101.9</ele>
        <time>2022-08-03T07:24:46Z</time>
      </trkpt>
      <trkpt lat="49.8384" lon="2.56284">
        <ele>101.9</ele>
        <time>2022-08-03T07:24:48Z</time>
      </trkpt>
      <trkpt lat="49.83839" lon="2.56283">
        <ele>101.9</ele>
        <time>2022-08-03T07:24:49Z</time>
      </trkpt>
      <trkpt lat="49.83838" lon="2.56281">
        <ele>101.9</ele>
        <time>2022-08-03T07:24:50Z</time>
      </trkpt>
      <trkpt lat="49.83837" lon="2.5628">
        <ele>101.9</ele>
        <time>2022-08-03T07:24:51Z</time>
      </trkpt>
      <trkpt lat="49.83836" lon="2.56279">
        <ele>102</ele>
        <time>2022-08-03T07:24:52Z</time>
      </trkpt>
      <trkpt lat="49.83835" lon="2.56278">
        <ele>102</ele>
        <time>2022-08-03T07:24:53Z</time>
      </trkpt>
      <trkpt lat="49.83834" lon="2.56276">
        <ele>102</ele>
        <time>2022-08-03T07:24:54Z</time>
      </trkpt>
      <trkpt lat="49.83833" lon="2.56275">
        <ele>102</ele>
        <time>2022-08-03T07:24:55Z</time>
      </trkpt>
      <trkpt lat="49.83832" lon="2.56274">
        <ele>102</ele>
        <time>2022-08-03T07:24:57Z</time>
      </trkpt>
      <trkpt lat="49.83831" lon="2.56273">
        <ele>102</ele>
        <time>2022-08-03T07:24:58Z</time>
      </trkpt>
      <trkpt lat="49.8383" lon="2.56272">
        <ele>102</ele>
        <time>2022-08-03T07:24:59Z</time>
      </trkpt>
      <trkpt lat="49.83829" lon="2.5627">
        <ele>102</ele>
        <time>2022-08-03T07:25:00Z</time>
      </trkpt>
      <trkpt lat="49.83828" lon="2.56269">
        <ele>102</ele>
        <time>2022-08-03T07:25:01Z</time>
      </trkpt>
      <trkpt lat="49.83828" lon="2.56269">
        <ele>102</ele>
        <time>2022-08-03T07:25:02Z</time>
      </trkpt>
      <trkpt lat="49.83826" lon="2.56266">
        <ele>102</ele>
        <time>2022-08-03T07:25:03Z</time>
      </trkpt>
      <trkpt lat="49.83825" lon="2.56265">
        <ele>102</ele>
        <time>2022-08-03T07:25:04Z</time>
      </trkpt>
      <trkpt lat="49.83824" lon="2.56264">
        <ele>102</ele>
        <time>2022-08-03T07:25:06Z</time>
      </trkpt>
      <trkpt lat="49.83823" lon="2.56263">
        <ele>102</ele>
        <time>2022-08-03T07:25:07Z</time>
      </trkpt>
      <trkpt lat="49.83823" lon="2.56262">
        <ele>102</ele>
        <time>2022-08-03T07:25:08Z</time>
      </trkpt>
      <trkpt lat="49.83819" lon="2.56257">
        <ele>102.1</ele>
        <time>2022-08-03T07:25:10Z</time>
      </trkpt>
      <trkpt lat="49.83819" lon="2.56256">
        <ele>102.1</ele>
        <time>2022-08-03T07:25:11Z</time>
      </trkpt>
      <trkpt lat="49.83818" lon="2.56255">
        <ele>102.1</ele>
        <time>2022-08-03T07:25:12Z</time>
      </trkpt>
      <trkpt lat="49.83817" lon="2.56254">
        <ele>102.1</ele>
        <time>2022-08-03T07:25:13Z</time>
      </trkpt>
      <trkpt lat="49.83815" lon="2.56253">
        <ele>102.1</ele>
        <time>2022-08-03T07:25:15Z</time>
      </trkpt>
      <trkpt lat="49.83814" lon="2.56252">
        <ele>102.1</ele>
        <time>2022-08-03T07:25:16Z</time>
      </trkpt>
      <trkpt lat="49.83813" lon="2.56251">
        <ele>102.1</ele>
        <time>2022-08-03T07:25:17Z</time>
      </trkpt>
      <trkpt lat="49.83812" lon="2.56251">
        <ele>102.1</ele>
        <time>2022-08-03T07:25:18Z</time>
      </trkpt>
      <trkpt lat="49.83812" lon="2.5625">
        <ele>102.1</ele>
        <time>2022-08-03T07:25:19Z</time>
      </trkpt>
      <trkpt lat="49.8381" lon="2.56248">
        <ele>102.2</ele>
        <time>2022-08-03T07:25:20Z</time>
      </trkpt>
      <trkpt lat="49.83809" lon="2.56247">
        <ele>102.2</ele>
        <time>2022-08-03T07:25:21Z</time>
      </trkpt>
      <trkpt lat="49.83808" lon="2.56247">
        <ele>102.2</ele>
        <time>2022-08-03T07:25:22Z</time>
      </trkpt>
      <trkpt lat="49.83807" lon="2.56245">
        <ele>102.2</ele>
        <time>2022-08-03T07:25:23Z</time>
      </trkpt>
      <trkpt lat="49.83806" lon="2.56244">
        <ele>102.2</ele>
        <time>2022-08-03T07:25:24Z</time>
      </trkpt>
      <trkpt lat="49.83805" lon="2.56244">
        <ele>102.2</ele>
        <time>2022-08-03T07:25:25Z</time>
      </trkpt>
      <trkpt lat="49.83804" lon="2.56243">
        <ele>102.2</ele>
        <time>2022-08-03T07:25:26Z</time>
      </trkpt>
      <trkpt lat="49.83804" lon="2.56242">
        <ele>102.2</ele>
        <time>2022-08-03T07:25:27Z</time>
      </trkpt>
      <trkpt lat="49.83803" lon="2.56241">
        <ele>102.2</ele>
        <time>2022-08-03T07:25:28Z</time>
      </trkpt>
      <trkpt lat="49.83801" lon="2.5624">
        <ele>102.2</ele>
        <time>2022-08-03T07:25:29Z</time>
      </trkpt>
      <trkpt lat="49.838" lon="2.56239">
        <ele>102.2</ele>
        <time>2022-08-03T07:25:30Z</time>
      </trkpt>
      <trkpt lat="49.83799" lon="2.56238">
        <ele>102.2</ele>
        <time>2022-08-03T07:25:32Z</time>
      </trkpt>
      <trkpt lat="49.83798" lon="2.56236">
        <ele>102.2</ele>
        <time>2022-08-03T07:25:33Z</time>
      </trkpt>
      <trkpt lat="49.83797" lon="2.56236">
        <ele>102.2</ele>
        <time>2022-08-03T07:25:34Z</time>
      </trkpt>
      <trkpt lat="49.83796" lon="2.56234">
        <ele>102.2</ele>
        <time>2022-08-03T07:25:35Z</time>
      </trkpt>
      <trkpt lat="49.83794" lon="2.56232">
        <ele>102.2</ele>
        <time>2022-08-03T07:25:37Z</time>
      </trkpt>
      <trkpt lat="49.83793" lon="2.56231">
        <ele>102.2</ele>
        <time>2022-08-03T07:25:38Z</time>
      </trkpt>
      <trkpt lat="49.83792" lon="2.5623">
        <ele>102.2</ele>
        <time>2022-08-03T07:25:39Z</time>
      </trkpt>
      <trkpt lat="49.83791" lon="2.56229">
        <ele>102.2</ele>
        <time>2022-08-03T07:25:40Z</time>
      </trkpt>
      <trkpt lat="49.8379" lon="2.56228">
        <ele>102.2</ele>
        <time>2022-08-03T07:25:41Z</time>
      </trkpt>
      <trkpt lat="49.83789" lon="2.56227">
        <ele>102.2</ele>
        <time>2022-08-03T07:25:42Z</time>
      </trkpt>
      <trkpt lat="49.83788" lon="2.56226">
        <ele>102.2</ele>
        <time>2022-08-03T07:25:43Z</time>
      </trkpt>
      <trkpt lat="49.83787" lon="2.56225">
        <ele>102.2</ele>
        <time>2022-08-03T07:25:45Z</time>
      </trkpt>
      <trkpt lat="49.83785" lon="2.56223">
        <ele>102.2</ele>
        <time>2022-08-03T07:25:46Z</time>
      </trkpt>
      <trkpt lat="49.83784" lon="2.56223">
        <ele>102.2</ele>
        <time>2022-08-03T07:25:47Z</time>
      </trkpt>
      <trkpt lat="49.83783" lon="2.56222">
        <ele>102.2</ele>
        <time>2022-08-03T07:25:48Z</time>
      </trkpt>
      <trkpt lat="49.83782" lon="2.56221">
        <ele>102.2</ele>
        <time>2022-08-03T07:25:49Z</time>
      </trkpt>
      <trkpt lat="49.83781" lon="2.5622">
        <ele>102.2</ele>
        <time>2022-08-03T07:25:50Z</time>
      </trkpt>
      <trkpt lat="49.83781" lon="2.56219">
        <ele>102.2</ele>
        <time>2022-08-03T07:25:51Z</time>
      </trkpt>
      <trkpt lat="49.83779" lon="2.56217">
        <ele>102.2</ele>
        <time>2022-08-03T07:25:52Z</time>
      </trkpt>
      <trkpt lat="49.83778" lon="2.56217">
        <ele>102.2</ele>
        <time>2022-08-03T07:25:53Z</time>
      </trkpt>
      <trkpt lat="49.83777" lon="2.56216">
        <ele>102.2</ele>
        <time>2022-08-03T07:25:54Z</time>
      </trkpt>
      <trkpt lat="49.83777" lon="2.56215">
        <ele>102.2</ele>
        <time>2022-08-03T07:25:55Z</time>
      </trkpt>
      <trkpt lat="49.83776" lon="2.56214">
        <ele>102.2</ele>
        <time>2022-08-03T07:25:57Z</time>
      </trkpt>
      <trkpt lat="49.83775" lon="2.56213">
        <ele>102.2</ele>
        <time>2022-08-03T07:25:58Z</time>
      </trkpt>
      <trkpt lat="49.83774" lon="2.56212">
        <ele>102.2</ele>
        <time>2022-08-03T07:25:59Z</time>
      </trkpt>
      <trkpt lat="49.83773" lon="2.5621">
        <ele>102.2</ele>
        <time>2022-08-03T07:26:00Z</time>
      </trkpt>
      <trkpt lat="49.83772" lon="2.56209">
        <ele>102.2</ele>
        <time>2022-08-03T07:26:01Z</time>
      </trkpt>
      <trkpt lat="49.8377" lon="2.56207">
        <ele>102.2</ele>
        <time>2022-08-03T07:26:02Z</time>
      </trkpt>
      <trkpt lat="49.83769" lon="2.56205">
        <ele>102.2</ele>
        <time>2022-08-03T07:26:04Z</time>
      </trkpt>
      <trkpt lat="49.83768" lon="2.56204">
        <ele>102.2</ele>
        <time>2022-08-03T07:26:05Z</time>
      </trkpt>
      <trkpt lat="49.83766" lon="2.56202">
        <ele>102.2</ele>
        <time>2022-08-03T07:26:06Z</time>
      </trkpt>
      <trkpt lat="49.83765" lon="2.56201">
        <ele>102.2</ele>
        <time>2022-08-03T07:26:07Z</time>
      </trkpt>
      <trkpt lat="49.83764" lon="2.56201">
        <ele>102.2</ele>
        <time>2022-08-03T07:26:08Z</time>
      </trkpt>
      <trkpt lat="49.83762" lon="2.56199">
        <ele>102.2</ele>
        <time>2022-08-03T07:26:09Z</time>
      </trkpt>
      <trkpt lat="49.83761" lon="2.56199">
        <ele>102.2</ele>
        <time>2022-08-03T07:26:11Z</time>
      </trkpt>
      <trkpt lat="49.83761" lon="2.56199">
        <ele>102.2</ele>
        <time>2022-08-03T07:26:12Z</time>
      </trkpt>
      <trkpt lat="49.8376" lon="2.56198">
        <ele>102.2</ele>
        <time>2022-08-03T07:26:13Z</time>
      </trkpt>
      <trkpt lat="49.83759" lon="2.56198">
        <ele>102.2</ele>
        <time>2022-08-03T07:26:14Z</time>
      </trkpt>
      <trkpt lat="49.83758" lon="2.56197">
        <ele>102.2</ele>
        <time>2022-08-03T07:26:15Z</time>
      </trkpt>
      <trkpt lat="49.83756" lon="2.56196">
        <ele>102.2</ele>
        <time>2022-08-03T07:26:16Z</time>
      </trkpt>
      <trkpt lat="49.83755" lon="2.56195">
        <ele>102.2</ele>
        <time>2022-08-03T07:26:17Z</time>
      </trkpt>
      <trkpt lat="49.83753" lon="2.56194">
        <ele>102.2</ele>
        <time>2022-08-03T07:26:18Z</time>
      </trkpt>
      <trkpt lat="49.83752" lon="2.56193">
        <ele>102.2</ele>
        <time>2022-08-03T07:26:19Z</time>
      </trkpt>
      <trkpt lat="49.83751" lon="2.56192">
        <ele>102.2</ele>
        <time>2022-08-03T07:26:21Z</time>
      </trkpt>
      <trkpt lat="49.83749" lon="2.5619">
        <ele>102.2</ele>
        <time>2022-08-03T07:26:22Z</time>
      </trkpt>
      <trkpt lat="49.83748" lon="2.5619">
        <ele>102.2</ele>
        <time>2022-08-03T07:26:23Z</time>
      </trkpt>
      <trkpt lat="49.83746" lon="2.56189">
        <ele>102.2</ele>
        <time>2022-08-03T07:26:24Z</time>
      </trkpt>
      <trkpt lat="49.83744" lon="2.56187">
        <ele>102.2</ele>
        <time>2022-08-03T07:26:25Z</time>
      </trkpt>
      <trkpt lat="49.83742" lon="2.56187">
        <ele>102.1</ele>
        <time>2022-08-03T07:26:26Z</time>
      </trkpt>
      <trkpt lat="49.83741" lon="2.56186">
        <ele>102.1</ele>
        <time>2022-08-03T07:26:27Z</time>
      </trkpt>
      <trkpt lat="49.83739" lon="2.56186">
        <ele>102.1</ele>
        <time>2022-08-03T07:26:29Z</time>
      </trkpt>
      <trkpt lat="49.83738" lon="2.56186">
        <ele>102.1</ele>
        <time>2022-08-03T07:26:30Z</time>
      </trkpt>
      <trkpt lat="49.83737" lon="2.56186">
        <ele>102.1</ele>
        <time>2022-08-03T07:26:31Z</time>
      </trkpt>
      <trkpt lat="49.83735" lon="2.56183">
        <ele>102.1</ele>
        <time>2022-08-03T07:26:32Z</time>
      </trkpt>
      <trkpt lat="49.83735" lon="2.56182">
        <ele>102.1</ele>
        <time>2022-08-03T07:26:33Z</time>
      </trkpt>
      <trkpt lat="49.83734" lon="2.56181">
        <ele>102.1</ele>
        <time>2022-08-03T07:26:34Z</time>
      </trkpt>
      <trkpt lat="49.83733" lon="2.56179">
        <ele>102.1</ele>
        <time>2022-08-03T07:26:35Z</time>
      </trkpt>
      <trkpt lat="49.83732" lon="2.56178">
        <ele>102.1</ele>
        <time>2022-08-03T07:26:37Z</time>
      </trkpt>
      <trkpt lat="49.83732" lon="2.56177">
        <ele>102.1</ele>
        <time>2022-08-03T07:26:38Z</time>
      </trkpt>
      <trkpt lat="49.83731" lon="2.56176">
        <ele>102.1</ele>
        <time>2022-08-03T07:26:39Z</time>
      </trkpt>
      <trkpt lat="49.8373" lon="2.56174">
        <ele>102.1</ele>
        <time>2022-08-03T07:26:40Z</time>
      </trkpt>
      <trkpt lat="49.83728" lon="2.56172">
        <ele>102</ele>
        <time>2022-08-03T07:26:41Z</time>
      </trkpt>
      <trkpt lat="49.83728" lon="2.56172">
        <ele>102</ele>
        <time>2022-08-03T07:26:42Z</time>
      </trkpt>
      <trkpt lat="49.83727" lon="2.56171">
        <ele>102</ele>
        <time>2022-08-03T07:26:43Z</time>
      </trkpt>
      <trkpt lat="49.83725" lon="2.5617">
        <ele>102</ele>
        <time>2022-08-03T07:26:44Z</time>
      </trkpt>
      <trkpt lat="49.83724" lon="2.56169">
        <ele>102</ele>
        <time>2022-08-03T07:26:46Z</time>
      </trkpt>
      <trkpt lat="49.83723" lon="2.56169">
        <ele>102</ele>
        <time>2022-08-03T07:26:47Z</time>
      </trkpt>
      <trkpt lat="49.83722" lon="2.56168">
        <ele>102</ele>
        <time>2022-08-03T07:26:48Z</time>
      </trkpt>
      <trkpt lat="49.83721" lon="2.56168">
        <ele>102</ele>
        <time>2022-08-03T07:26:49Z</time>
      </trkpt>
      <trkpt lat="49.8372" lon="2.56166">
        <ele>102</ele>
        <time>2022-08-03T07:26:50Z</time>
      </trkpt>
      <trkpt lat="49.83719" lon="2.56165">
        <ele>102</ele>
        <time>2022-08-03T07:26:52Z</time>
      </trkpt>
      <trkpt lat="49.83719" lon="2.56164">
        <ele>102</ele>
        <time>2022-08-03T07:26:53Z</time>
      </trkpt>
      <trkpt lat="49.83718" lon="2.56164">
        <ele>102</ele>
        <time>2022-08-03T07:26:54Z</time>
      </trkpt>
      <trkpt lat="49.83718" lon="2.56163">
        <ele>101.9</ele>
        <time>2022-08-03T07:26:55Z</time>
      </trkpt>
      <trkpt lat="49.83717" lon="2.56162">
        <ele>101.9</ele>
        <time>2022-08-03T07:26:56Z</time>
      </trkpt>
      <trkpt lat="49.83716" lon="2.56162">
        <ele>101.9</ele>
        <time>2022-08-03T07:26:57Z</time>
      </trkpt>
      <trkpt lat="49.83715" lon="2.56161">
        <ele>101.9</ele>
        <time>2022-08-03T07:26:58Z</time>
      </trkpt>
      <trkpt lat="49.83715" lon="2.5616">
        <ele>101.9</ele>
        <time>2022-08-03T07:26:59Z</time>
      </trkpt>
      <trkpt lat="49.83713" lon="2.56159">
        <ele>101.9</ele>
        <time>2022-08-03T07:27:01Z</time>
      </trkpt>
      <trkpt lat="49.83712" lon="2.56158">
        <ele>101.9</ele>
        <time>2022-08-03T07:27:02Z</time>
      </trkpt>
      <trkpt lat="49.83711" lon="2.56156">
        <ele>101.9</ele>
        <time>2022-08-03T07:27:03Z</time>
      </trkpt>
      <trkpt lat="49.8371" lon="2.56156">
        <ele>101.9</ele>
        <time>2022-08-03T07:27:04Z</time>
      </trkpt>
      <trkpt lat="49.83708" lon="2.56154">
        <ele>101.9</ele>
        <time>2022-08-03T07:27:05Z</time>
      </trkpt>
      <trkpt lat="49.83707" lon="2.56153">
        <ele>101.9</ele>
        <time>2022-08-03T07:27:06Z</time>
      </trkpt>
      <trkpt lat="49.83706" lon="2.56153">
        <ele>101.9</ele>
        <time>2022-08-03T07:27:07Z</time>
      </trkpt>
      <trkpt lat="49.83704" lon="2.5615">
        <ele>101.8</ele>
        <time>2022-08-03T07:27:08Z</time>
      </trkpt>
      <trkpt lat="49.83702" lon="2.56149">
        <ele>101.8</ele>
        <time>2022-08-03T07:27:10Z</time>
      </trkpt>
      <trkpt lat="49.83701" lon="2.56148">
        <ele>101.8</ele>
        <time>2022-08-03T07:27:11Z</time>
      </trkpt>
      <trkpt lat="49.837" lon="2.56147">
        <ele>101.8</ele>
        <time>2022-08-03T07:27:12Z</time>
      </trkpt>
      <trkpt lat="49.83699" lon="2.56146">
        <ele>101.7</ele>
        <time>2022-08-03T07:27:13Z</time>
      </trkpt>
      <trkpt lat="49.83697" lon="2.56144">
        <ele>101.7</ele>
        <time>2022-08-03T07:27:14Z</time>
      </trkpt>
      <trkpt lat="49.83695" lon="2.56142">
        <ele>101.7</ele>
        <time>2022-08-03T07:27:15Z</time>
      </trkpt>
      <trkpt lat="49.83694" lon="2.56141">
        <ele>101.7</ele>
        <time>2022-08-03T07:27:16Z</time>
      </trkpt>
      <trkpt lat="49.83692" lon="2.56139">
        <ele>101.6</ele>
        <time>2022-08-03T07:27:17Z</time>
      </trkpt>
      <trkpt lat="49.83691" lon="2.56139">
        <ele>101.6</ele>
        <time>2022-08-03T07:27:19Z</time>
      </trkpt>
      <trkpt lat="49.8369" lon="2.56138">
        <ele>101.6</ele>
        <time>2022-08-03T07:27:20Z</time>
      </trkpt>
      <trkpt lat="49.83689" lon="2.56137">
        <ele>101.6</ele>
        <time>2022-08-03T07:27:21Z</time>
      </trkpt>
      <trkpt lat="49.83688" lon="2.56136">
        <ele>101.6</ele>
        <time>2022-08-03T07:27:22Z</time>
      </trkpt>
      <trkpt lat="49.83687" lon="2.56136">
        <ele>101.6</ele>
        <time>2022-08-03T07:27:23Z</time>
      </trkpt>
      <trkpt lat="49.83685" lon="2.56135">
        <ele>101.6</ele>
        <time>2022-08-03T07:27:24Z</time>
      </trkpt>
      <trkpt lat="49.83683" lon="2.56134">
        <ele>101.5</ele>
        <time>2022-08-03T07:27:25Z</time>
      </trkpt>
      <trkpt lat="49.83681" lon="2.56133">
        <ele>101.5</ele>
        <time>2022-08-03T07:27:26Z</time>
      </trkpt>
      <trkpt lat="49.83679" lon="2.56132">
        <ele>101.5</ele>
        <time>2022-08-03T07:27:28Z</time>
      </trkpt>
      <trkpt lat="49.83679" lon="2.56131">
        <ele>101.5</ele>
        <time>2022-08-03T07:27:29Z</time>
      </trkpt>
      <trkpt lat="49.83678" lon="2.56131">
        <ele>101.5</ele>
        <time>2022-08-03T07:27:30Z</time>
      </trkpt>
      <trkpt lat="49.83676" lon="2.56129">
        <ele>101.5</ele>
        <time>2022-08-03T07:27:31Z</time>
      </trkpt>
      <trkpt lat="49.83675" lon="2.56128">
        <ele>101.4</ele>
        <time>2022-08-03T07:27:32Z</time>
      </trkpt>
      <trkpt lat="49.83675" lon="2.56128">
        <ele>101.4</ele>
        <time>2022-08-03T07:27:33Z</time>
      </trkpt>
      <trkpt lat="49.83673" lon="2.56126">
        <ele>101.4</ele>
        <time>2022-08-03T07:27:34Z</time>
      </trkpt>
      <trkpt lat="49.83672" lon="2.56125">
        <ele>101.4</ele>
        <time>2022-08-03T07:27:35Z</time>
      </trkpt>
      <trkpt lat="49.83671" lon="2.56124">
        <ele>101.4</ele>
        <time>2022-08-03T07:27:36Z</time>
      </trkpt>
      <trkpt lat="49.8367" lon="2.56123">
        <ele>101.4</ele>
        <time>2022-08-03T07:27:37Z</time>
      </trkpt>
      <trkpt lat="49.83669" lon="2.56122">
        <ele>101.4</ele>
        <time>2022-08-03T07:27:38Z</time>
      </trkpt>
      <trkpt lat="49.83668" lon="2.5612">
        <ele>101.3</ele>
        <time>2022-08-03T07:27:39Z</time>
      </trkpt>
      <trkpt lat="49.83667" lon="2.56119">
        <ele>101.3</ele>
        <time>2022-08-03T07:27:41Z</time>
      </trkpt>
      <trkpt lat="49.83666" lon="2.56118">
        <ele>101.3</ele>
        <time>2022-08-03T07:27:42Z</time>
      </trkpt>
      <trkpt lat="49.83665" lon="2.56116">
        <ele>101.3</ele>
        <time>2022-08-03T07:27:43Z</time>
      </trkpt>
      <trkpt lat="49.83665" lon="2.56115">
        <ele>101.3</ele>
        <time>2022-08-03T07:27:44Z</time>
      </trkpt>
      <trkpt lat="49.83664" lon="2.56114">
        <ele>101.3</ele>
        <time>2022-08-03T07:27:45Z</time>
      </trkpt>
      <trkpt lat="49.83663" lon="2.56112">
        <ele>101.3</ele>
        <time>2022-08-03T07:27:46Z</time>
      </trkpt>
      <trkpt lat="49.83662" lon="2.56111">
        <ele>101.3</ele>
        <time>2022-08-03T07:27:48Z</time>
      </trkpt>
      <trkpt lat="49.83661" lon="2.5611">
        <ele>101.2</ele>
        <time>2022-08-03T07:27:49Z</time>
      </trkpt>
      <trkpt lat="49.8366" lon="2.56108">
        <ele>101.2</ele>
        <time>2022-08-03T07:27:51Z</time>
      </trkpt>
      <trkpt lat="49.83659" lon="2.56108">
        <ele>101.2</ele>
        <time>2022-08-03T07:27:52Z</time>
      </trkpt>
      <trkpt lat="49.83658" lon="2.56107">
        <ele>101.2</ele>
        <time>2022-08-03T07:27:53Z</time>
      </trkpt>
      <trkpt lat="49.83657" lon="2.56107">
        <ele>101.2</ele>
        <time>2022-08-03T07:27:54Z</time>
      </trkpt>
      <trkpt lat="49.83656" lon="2.56106">
        <ele>101.2</ele>
        <time>2022-08-03T07:27:55Z</time>
      </trkpt>
      <trkpt lat="49.83655" lon="2.56105">
        <ele>101.2</ele>
        <time>2022-08-03T07:27:56Z</time>
      </trkpt>
      <trkpt lat="49.83654" lon="2.56104">
        <ele>101.2</ele>
        <time>2022-08-03T07:27:58Z</time>
      </trkpt>
      <trkpt lat="49.83653" lon="2.56104">
        <ele>101.2</ele>
        <time>2022-08-03T07:27:59Z</time>
      </trkpt>
      <trkpt lat="49.83652" lon="2.56103">
        <ele>101.2</ele>
        <time>2022-08-03T07:28:00Z</time>
      </trkpt>
      <trkpt lat="49.83652" lon="2.56102">
        <ele>101.2</ele>
        <time>2022-08-03T07:28:01Z</time>
      </trkpt>
      <trkpt lat="49.8365" lon="2.56101">
        <ele>101.1</ele>
        <time>2022-08-03T07:28:02Z</time>
      </trkpt>
      <trkpt lat="49.8365" lon="2.561">
        <ele>101.1</ele>
        <time>2022-08-03T07:28:04Z</time>
      </trkpt>
      <trkpt lat="49.83649" lon="2.56099">
        <ele>101.1</ele>
        <time>2022-08-03T07:28:05Z</time>
      </trkpt>
      <trkpt lat="49.83649" lon="2.56098">
        <ele>101.1</ele>
        <time>2022-08-03T07:28:06Z</time>
      </trkpt>
      <trkpt lat="49.83649" lon="2.56098">
        <ele>101.1</ele>
        <time>2022-08-03T07:28:07Z</time>
      </trkpt>
      <trkpt lat="49.8365" lon="2.56097">
        <ele>101.1</ele>
        <time>2022-08-03T07:28:08Z</time>
      </trkpt>
      <trkpt lat="49.8365" lon="2.56096">
        <ele>101.1</ele>
        <time>2022-08-03T07:28:09Z</time>
      </trkpt>
      <trkpt lat="49.83651" lon="2.56096">
        <ele>101.1</ele>
        <time>2022-08-03T07:28:10Z</time>
      </trkpt>
      <trkpt lat="49.83651" lon="2.56096">
        <ele>101.1</ele>
        <time>2022-08-03T07:28:11Z</time>
      </trkpt>
      <trkpt lat="49.83651" lon="2.56096">
        <ele>101.1</ele>
        <time>2022-08-03T07:28:12Z</time>
      </trkpt>
      <trkpt lat="49.83651" lon="2.56096">
        <ele>101.1</ele>
        <time>2022-08-03T07:28:13Z</time>
      </trkpt>
      <trkpt lat="49.83651" lon="2.56096">
        <ele>101.1</ele>
        <time>2022-08-03T07:28:14Z</time>
      </trkpt>
      <trkpt lat="49.83651" lon="2.56096">
        <ele>101.1</ele>
        <time>2022-08-03T07:28:15Z</time>
      </trkpt>
      <trkpt lat="49.83651" lon="2.56096">
        <ele>101.1</ele>
        <time>2022-08-03T07:28:16Z</time>
      </trkpt>
      <trkpt lat="49.83651" lon="2.56097">
        <ele>101.1</ele>
        <time>2022-08-03T07:28:17Z</time>
      </trkpt>
      <trkpt lat="49.83651" lon="2.56097">
        <ele>101.1</ele>
        <time>2022-08-03T07:28:18Z</time>
      </trkpt>
      <trkpt lat="49.83651" lon="2.56097">
        <ele>101.1</ele>
        <time>2022-08-03T07:28:19Z</time>
      </trkpt>
      <trkpt lat="49.83651" lon="2.56097">
        <ele>101.1</ele>
        <time>2022-08-03T07:28:20Z</time>
      </trkpt>
      <trkpt lat="49.83651" lon="2.56097">
        <ele>101.1</ele>
        <time>2022-08-03T07:28:21Z</time>
      </trkpt>
      <trkpt lat="49.83651" lon="2.56097">
        <ele>101.1</ele>
        <time>2022-08-03T07:28:23Z</time>
      </trkpt>
      <trkpt lat="49.83651" lon="2.56097">
        <ele>101.1</ele>
        <time>2022-08-03T07:28:24Z</time>
      </trkpt>
      <trkpt lat="49.83651" lon="2.56097">
        <ele>101.1</ele>
        <time>2022-08-03T07:28:25Z</time>
      </trkpt>
      <trkpt lat="49.83651" lon="2.56097">
        <ele>101.1</ele>
        <time>2022-08-03T07:28:26Z</time>
      </trkpt>
      <trkpt lat="49.83651" lon="2.56097">
        <ele>101.1</ele>
        <time>2022-08-03T07:28:28Z</time>
      </trkpt>
      <trkpt lat="49.83651" lon="2.56097">
        <ele>101.1</ele>
        <time>2022-08-03T07:28:29Z</time>
      </trkpt>
      <trkpt lat="49.83651" lon="2.56097">
        <ele>101.1</ele>
        <time>2022-08-03T07:28:30Z</time>
      </trkpt>
      <trkpt lat="49.83651" lon="2.56097">
        <ele>101.1</ele>
        <time>2022-08-03T07:28:31Z</time>
      </trkpt>
      <trkpt lat="49.83651" lon="2.56097">
        <ele>101.1</ele>
        <time>2022-08-03T07:28:32Z</time>
      </trkpt>
      <trkpt lat="49.83651" lon="2.56097">
        <ele>101.1</ele>
        <time>2022-08-03T07:28:33Z</time>
      </trkpt>
      <trkpt lat="49.83651" lon="2.56097">
        <ele>101.1</ele>
        <time>2022-08-03T07:28:34Z</time>
      </trkpt>
      <trkpt lat="49.83651" lon="2.56097">
        <ele>101.1</ele>
        <time>2022-08-03T07:28:35Z</time>
      </trkpt>
      <trkpt lat="49.83651" lon="2.56097">
        <ele>101.1</ele>
        <time>2022-08-03T07:28:36Z</time>
      </trkpt>
      <trkpt lat="49.83651" lon="2.56098">
        <ele>101.1</ele>
        <time>2022-08-03T07:28:37Z</time>
      </trkpt>
      <trkpt lat="49.83651" lon="2.56098">
        <ele>101.1</ele>
        <time>2022-08-03T07:28:38Z</time>
      </trkpt>
      <trkpt lat="49.83651" lon="2.56098">
        <ele>101.1</ele>
        <time>2022-08-03T07:28:39Z</time>
      </trkpt>
      <trkpt lat="49.83651" lon="2.56098">
        <ele>101.1</ele>
        <time>2022-08-03T07:28:40Z</time>
      </trkpt>
      <trkpt lat="49.83651" lon="2.56098">
        <ele>101.1</ele>
        <time>2022-08-03T07:28:41Z</time>
      </trkpt>
      <trkpt lat="49.83651" lon="2.56098">
        <ele>101.1</ele>
        <time>2022-08-03T07:28:42Z</time>
      </trkpt>
      <trkpt lat="49.83651" lon="2.56098">
        <ele>101.1</ele>
        <time>2022-08-03T07:28:43Z</time>
      </trkpt>
      <trkpt lat="49.83651" lon="2.56098">
        <ele>101.1</ele>
        <time>2022-08-03T07:28:44Z</time>
      </trkpt>
      <trkpt lat="49.83651" lon="2.56098">
        <ele>101.1</ele>
        <time>2022-08-03T07:28:45Z</time>
      </trkpt>
      <trkpt lat="49.83651" lon="2.56098">
        <ele>101.1</ele>
        <time>2022-08-03T07:28:46Z</time>
      </trkpt>
      <trkpt lat="49.83651" lon="2.56098">
        <ele>101.1</ele>
        <time>2022-08-03T07:28:47Z</time>
      </trkpt>
      <trkpt lat="49.83651" lon="2.56098">
        <ele>101.1</ele>
        <time>2022-08-03T07:28:48Z</time>
      </trkpt>
      <trkpt lat="49.83651" lon="2.56098">
        <ele>101.1</ele>
        <time>2022-08-03T07:28:49Z</time>
      </trkpt>
      <trkpt lat="49.83651" lon="2.56098">
        <ele>101.1</ele>
        <time>2022-08-03T07:28:50Z</time>
      </trkpt>
      <trkpt lat="49.83651" lon="2.56098">
        <ele>101.1</ele>
        <time>2022-08-03T07:28:51Z</time>
      </trkpt>
      <trkpt lat="49.83651" lon="2.56098">
        <ele>101.1</ele>
        <time>2022-08-03T07:28:52Z</time>
      </trkpt>
      <trkpt lat="49.83651" lon="2.56098">
        <ele>101.1</ele>
        <time>2022-08-03T07:28:53Z</time>
      </trkpt>
      <trkpt lat="49.83651" lon="2.56098">
        <ele>101.1</ele>
        <time>2022-08-03T07:28:54Z</time>
      </trkpt>
      <trkpt lat="49.83651" lon="2.56098">
        <ele>101.1</ele>
        <time>2022-08-03T07:28:55Z</time>
      </trkpt>
      <trkpt lat="49.83651" lon="2.56099">
        <ele>101.1</ele>
        <time>2022-08-03T07:28:56Z</time>
      </trkpt>
      <trkpt lat="49.83651" lon="2.56099">
        <ele>101.1</ele>
        <time>2022-08-03T07:28:57Z</time>
      </trkpt>
      <trkpt lat="49.83651" lon="2.56099">
        <ele>101.1</ele>
        <time>2022-08-03T07:28:58Z</time>
      </trkpt>
      <trkpt lat="49.83651" lon="2.56099">
        <ele>101.1</ele>
        <time>2022-08-03T07:28:59Z</time>
      </trkpt>
      <trkpt lat="49.83651" lon="2.56099">
        <ele>101.1</ele>
        <time>2022-08-03T07:29:00Z</time>
      </trkpt>
      <trkpt lat="49.83651" lon="2.56099">
        <ele>101.1</ele>
        <time>2022-08-03T07:29:01Z</time>
      </trkpt>
      <trkpt lat="49.83651" lon="2.56099">
        <ele>101.1</ele>
        <time>2022-08-03T07:29:02Z</time>
      </trkpt>
      <trkpt lat="49.83651" lon="2.56099">
        <ele>101.1</ele>
        <time>2022-08-03T07:29:03Z</time>
      </trkpt>
      <trkpt lat="49.83651" lon="2.56099">
        <ele>101.1</ele>
        <time>2022-08-03T07:29:04Z</time>
      </trkpt>
      <trkpt lat="49.83651" lon="2.56099">
        <ele>101.1</ele>
        <time>2022-08-03T07:29:05Z</time>
      </trkpt>
      <trkpt lat="49.83651" lon="2.56099">
        <ele>101.1</ele>
        <time>2022-08-03T07:29:06Z</time>
      </trkpt>
      <trkpt lat="49.83651" lon="2.56099">
        <ele>101.1</ele>
        <time>2022-08-03T07:29:07Z</time>
      </trkpt>
      <trkpt lat="49.83651" lon="2.56099">
        <ele>101.1</ele>
        <time>2022-08-03T07:29:08Z</time>
      </trkpt>
      <trkpt lat="49.83651" lon="2.56099">
        <ele>101.1</ele>
        <time>2022-08-03T07:29:09Z</time>
      </trkpt>
      <trkpt lat="49.83651" lon="2.56099">
        <ele>101.1</ele>
        <time>2022-08-03T07:29:10Z</time>
      </trkpt>
      <trkpt lat="49.83651" lon="2.56099">
        <ele>101.1</ele>
        <time>2022-08-03T07:29:11Z</time>
      </trkpt>
      <trkpt lat="49.83651" lon="2.56099">
        <ele>101.1</ele>
        <time>2022-08-03T07:29:12Z</time>
      </trkpt>
      <trkpt lat="49.83651" lon="2.56099">
        <ele>101.1</ele>
        <time>2022-08-03T07:29:13Z</time>
      </trkpt>
      <trkpt lat="49.83651" lon="2.561">
        <ele>101.1</ele>
        <time>2022-08-03T07:29:14Z</time>
      </trkpt>
      <trkpt lat="49.8365" lon="2.56102">
        <ele>101.1</ele>
        <time>2022-08-03T07:29:15Z</time>
      </trkpt>
      <trkpt lat="49.8365" lon="2.56103">
        <ele>101.1</ele>
        <time>2022-08-03T07:29:16Z</time>
      </trkpt>
      <trkpt lat="49.8365" lon="2.56104">
        <ele>101.1</ele>
        <time>2022-08-03T07:29:17Z</time>
      </trkpt>
      <trkpt lat="49.83649" lon="2.56105">
        <ele>101.1</ele>
        <time>2022-08-03T07:29:18Z</time>
      </trkpt>
      <trkpt lat="49.83649" lon="2.56106">
        <ele>101.1</ele>
        <time>2022-08-03T07:29:19Z</time>
      </trkpt>
      <trkpt lat="49.83649" lon="2.56106">
        <ele>101.1</ele>
        <time>2022-08-03T07:29:20Z</time>
      </trkpt>
      <trkpt lat="49.83649" lon="2.56107">
        <ele>101.1</ele>
        <time>2022-08-03T07:29:21Z</time>
      </trkpt>
      <trkpt lat="49.83649" lon="2.56106">
        <ele>101.1</ele>
        <time>2022-08-03T07:29:22Z</time>
      </trkpt>
      <trkpt lat="49.83649" lon="2.56106">
        <ele>101</ele>
        <time>2022-08-03T07:29:23Z</time>
      </trkpt>
      <trkpt lat="49.83649" lon="2.56106">
        <ele>101</ele>
        <time>2022-08-03T07:29:24Z</time>
      </trkpt>
      <trkpt lat="49.83649" lon="2.56106">
        <ele>101</ele>
        <time>2022-08-03T07:29:25Z</time>
      </trkpt>
      <trkpt lat="49.83649" lon="2.56106">
        <ele>101</ele>
        <time>2022-08-03T07:29:26Z</time>
      </trkpt>
      <trkpt lat="49.83649" lon="2.56106">
        <ele>101</ele>
        <time>2022-08-03T07:29:27Z</time>
      </trkpt>
      <trkpt lat="49.83649" lon="2.56106">
        <ele>101</ele>
        <time>2022-08-03T07:29:28Z</time>
      </trkpt>
      <trkpt lat="49.83649" lon="2.56106">
        <ele>101</ele>
        <time>2022-08-03T07:29:29Z</time>
      </trkpt>
      <trkpt lat="49.83649" lon="2.56106">
        <ele>101</ele>
        <time>2022-08-03T07:29:30Z</time>
      </trkpt>
      <trkpt lat="49.83649" lon="2.56106">
        <ele>101</ele>
        <time>2022-08-03T07:29:31Z</time>
      </trkpt>
      <trkpt lat="49.83649" lon="2.56106">
        <ele>101</ele>
        <time>2022-08-03T07:29:32Z</time>
      </trkpt>
      <trkpt lat="49.83649" lon="2.56106">
        <ele>101</ele>
        <time>2022-08-03T07:29:33Z</time>
      </trkpt>
      <trkpt lat="49.83649" lon="2.56106">
        <ele>101</ele>
        <time>2022-08-03T07:29:34Z</time>
      </trkpt>
      <trkpt lat="49.83649" lon="2.56106">
        <ele>101</ele>
        <time>2022-08-03T07:29:35Z</time>
      </trkpt>
      <trkpt lat="49.83649" lon="2.56106">
        <ele>101</ele>
        <time>2022-08-03T07:29:36Z</time>
      </trkpt>
      <trkpt lat="49.83649" lon="2.56106">
        <ele>101</ele>
        <time>2022-08-03T07:29:37Z</time>
      </trkpt>
      <trkpt lat="49.83649" lon="2.56106">
        <ele>101</ele>
        <time>2022-08-03T07:29:38Z</time>
      </trkpt>
      <trkpt lat="49.83649" lon="2.56106">
        <ele>101</ele>
        <time>2022-08-03T07:29:39Z</time>
      </trkpt>
      <trkpt lat="49.83649" lon="2.56107">
        <ele>101</ele>
        <time>2022-08-03T07:29:41Z</time>
      </trkpt>
      <trkpt lat="49.83649" lon="2.56107">
        <ele>101</ele>
        <time>2022-08-03T07:29:42Z</time>
      </trkpt>
      <trkpt lat="49.83649" lon="2.56107">
        <ele>101</ele>
        <time>2022-08-03T07:29:44Z</time>
      </trkpt>
      <trkpt lat="49.83649" lon="2.56107">
        <ele>101</ele>
        <time>2022-08-03T07:29:45Z</time>
      </trkpt>
      <trkpt lat="49.83649" lon="2.56107">
        <ele>101</ele>
        <time>2022-08-03T07:29:46Z</time>
      </trkpt>
      <trkpt lat="49.83649" lon="2.56107">
        <ele>101</ele>
        <time>2022-08-03T07:29:47Z</time>
      </trkpt>
      <trkpt lat="49.83649" lon="2.56107">
        <ele>101</ele>
        <time>2022-08-03T07:29:48Z</time>
      </trkpt>
      <trkpt lat="49.83649" lon="2.56108">
        <ele>101</ele>
        <time>2022-08-03T07:29:50Z</time>
      </trkpt>
      <trkpt lat="49.83648" lon="2.56108">
        <ele>101</ele>
        <time>2022-08-03T07:29:51Z</time>
      </trkpt>
      <trkpt lat="49.83648" lon="2.56108">
        <ele>101</ele>
        <time>2022-08-03T07:29:53Z</time>
      </trkpt>
      <trkpt lat="49.83646" lon="2.56106">
        <ele>101</ele>
        <time>2022-08-03T07:29:54Z</time>
      </trkpt>
      <trkpt lat="49.83645" lon="2.56104">
        <ele>101</ele>
        <time>2022-08-03T07:29:55Z</time>
      </trkpt>
      <trkpt lat="49.83644" lon="2.56102">
        <ele>101</ele>
        <time>2022-08-03T07:29:56Z</time>
      </trkpt>
      <trkpt lat="49.83642" lon="2.56098">
        <ele>101</ele>
        <time>2022-08-03T07:29:57Z</time>
      </trkpt>
      <trkpt lat="49.83642" lon="2.56097">
        <ele>101</ele>
        <time>2022-08-03T07:29:58Z</time>
      </trkpt>
      <trkpt lat="49.83641" lon="2.56094">
        <ele>100.9</ele>
        <time>2022-08-03T07:30:00Z</time>
      </trkpt>
      <trkpt lat="49.8364" lon="2.56093">
        <ele>100.9</ele>
        <time>2022-08-03T07:30:01Z</time>
      </trkpt>
      <trkpt lat="49.8364" lon="2.56091">
        <ele>100.9</ele>
        <time>2022-08-03T07:30:02Z</time>
      </trkpt>
      <trkpt lat="49.83639" lon="2.56087">
        <ele>100.9</ele>
        <time>2022-08-03T07:30:03Z</time>
      </trkpt>
      <trkpt lat="49.83639" lon="2.56086">
        <ele>100.9</ele>
        <time>2022-08-03T07:30:04Z</time>
      </trkpt>
      <trkpt lat="49.83638" lon="2.56084">
        <ele>100.9</ele>
        <time>2022-08-03T07:30:05Z</time>
      </trkpt>
      <trkpt lat="49.83639" lon="2.56082">
        <ele>100.8</ele>
        <time>2022-08-03T07:30:07Z</time>
      </trkpt>
      <trkpt lat="49.83639" lon="2.5608">
        <ele>100.8</ele>
        <time>2022-08-03T07:30:08Z</time>
      </trkpt>
      <trkpt lat="49.83638" lon="2.56078">
        <ele>100.8</ele>
        <time>2022-08-03T07:30:09Z</time>
      </trkpt>
      <trkpt lat="49.83638" lon="2.56076">
        <ele>100.8</ele>
        <time>2022-08-03T07:30:10Z</time>
      </trkpt>
      <trkpt lat="49.83638" lon="2.56073">
        <ele>100.8</ele>
        <time>2022-08-03T07:30:11Z</time>
      </trkpt>
      <trkpt lat="49.83638" lon="2.56071">
        <ele>100.8</ele>
        <time>2022-08-03T07:30:12Z</time>
      </trkpt>
      <trkpt lat="49.83638" lon="2.5607">
        <ele>100.8</ele>
        <time>2022-08-03T07:30:13Z</time>
      </trkpt>
      <trkpt lat="49.83638" lon="2.56069">
        <ele>100.8</ele>
        <time>2022-08-03T07:30:14Z</time>
      </trkpt>
      <trkpt lat="49.83638" lon="2.56067">
        <ele>100.8</ele>
        <time>2022-08-03T07:30:16Z</time>
      </trkpt>
      <trkpt lat="49.83638" lon="2.56065">
        <ele>100.8</ele>
        <time>2022-08-03T07:30:17Z</time>
      </trkpt>
      <trkpt lat="49.83639" lon="2.56062">
        <ele>100.8</ele>
        <time>2022-08-03T07:30:18Z</time>
      </trkpt>
      <trkpt lat="49.83639" lon="2.56061">
        <ele>100.8</ele>
        <time>2022-08-03T07:30:19Z</time>
      </trkpt>
      <trkpt lat="49.83639" lon="2.5606">
        <ele>100.8</ele>
        <time>2022-08-03T07:30:20Z</time>
      </trkpt>
      <trkpt lat="49.8364" lon="2.56056">
        <ele>100.8</ele>
        <time>2022-08-03T07:30:21Z</time>
      </trkpt>
      <trkpt lat="49.8364" lon="2.56055">
        <ele>100.8</ele>
        <time>2022-08-03T07:30:22Z</time>
      </trkpt>
      <trkpt lat="49.83641" lon="2.56053">
        <ele>100.8</ele>
        <time>2022-08-03T07:30:23Z</time>
      </trkpt>
      <trkpt lat="49.83641" lon="2.56052">
        <ele>100.8</ele>
        <time>2022-08-03T07:30:25Z</time>
      </trkpt>
      <trkpt lat="49.83641" lon="2.56051">
        <ele>100.8</ele>
        <time>2022-08-03T07:30:26Z</time>
      </trkpt>
      <trkpt lat="49.83641" lon="2.56049">
        <ele>100.8</ele>
        <time>2022-08-03T07:30:27Z</time>
      </trkpt>
      <trkpt lat="49.83641" lon="2.56048">
        <ele>100.9</ele>
        <time>2022-08-03T07:30:28Z</time>
      </trkpt>
      <trkpt lat="49.83641" lon="2.56043">
        <ele>100.9</ele>
        <time>2022-08-03T07:30:29Z</time>
      </trkpt>
      <trkpt lat="49.83641" lon="2.56041">
        <ele>100.9</ele>
        <time>2022-08-03T07:30:31Z</time>
      </trkpt>
      <trkpt lat="49.83641" lon="2.5604">
        <ele>100.9</ele>
        <time>2022-08-03T07:30:32Z</time>
      </trkpt>
      <trkpt lat="49.83641" lon="2.56038">
        <ele>100.9</ele>
        <time>2022-08-03T07:30:33Z</time>
      </trkpt>
      <trkpt lat="49.83641" lon="2.56036">
        <ele>100.9</ele>
        <time>2022-08-03T07:30:34Z</time>
      </trkpt>
      <trkpt lat="49.83641" lon="2.56035">
        <ele>100.9</ele>
        <time>2022-08-03T07:30:35Z</time>
      </trkpt>
      <trkpt lat="49.83642" lon="2.56033">
        <ele>100.9</ele>
        <time>2022-08-03T07:30:36Z</time>
      </trkpt>
      <trkpt lat="49.83642" lon="2.56031">
        <ele>100.9</ele>
        <time>2022-08-03T07:30:37Z</time>
      </trkpt>
      <trkpt lat="49.83642" lon="2.56027">
        <ele>100.9</ele>
        <time>2022-08-03T07:30:38Z</time>
      </trkpt>
      <trkpt lat="49.83642" lon="2.56026">
        <ele>100.9</ele>
        <time>2022-08-03T07:30:39Z</time>
      </trkpt>
      <trkpt lat="49.83642" lon="2.56025">
        <ele>100.9</ele>
        <time>2022-08-03T07:30:40Z</time>
      </trkpt>
      <trkpt lat="49.83642" lon="2.56023">
        <ele>100.9</ele>
        <time>2022-08-03T07:30:42Z</time>
      </trkpt>
      <trkpt lat="49.83642" lon="2.56021">
        <ele>100.9</ele>
        <time>2022-08-03T07:30:43Z</time>
      </trkpt>
      <trkpt lat="49.83641" lon="2.56017">
        <ele>100.9</ele>
        <time>2022-08-03T07:30:44Z</time>
      </trkpt>
      <trkpt lat="49.83641" lon="2.56015">
        <ele>100.9</ele>
        <time>2022-08-03T07:30:45Z</time>
      </trkpt>
      <trkpt lat="49.83641" lon="2.56014">
        <ele>100.9</ele>
        <time>2022-08-03T07:30:46Z</time>
      </trkpt>
      <trkpt lat="49.83641" lon="2.5601">
        <ele>100.9</ele>
        <time>2022-08-03T07:30:48Z</time>
      </trkpt>
      <trkpt lat="49.8364" lon="2.56008">
        <ele>100.9</ele>
        <time>2022-08-03T07:30:50Z</time>
      </trkpt>
      <trkpt lat="49.8364" lon="2.56005">
        <ele>100.9</ele>
        <time>2022-08-03T07:30:51Z</time>
      </trkpt>
      <trkpt lat="49.8364" lon="2.56003">
        <ele>100.9</ele>
        <time>2022-08-03T07:30:53Z</time>
      </trkpt>
      <trkpt lat="49.8364" lon="2.56">
        <ele>100.9</ele>
        <time>2022-08-03T07:30:54Z</time>
      </trkpt>
      <trkpt lat="49.8364" lon="2.55997">
        <ele>100.9</ele>
        <time>2022-08-03T07:30:55Z</time>
      </trkpt>
      <trkpt lat="49.8364" lon="2.55995">
        <ele>100.9</ele>
        <time>2022-08-03T07:30:56Z</time>
      </trkpt>
      <trkpt lat="49.83639" lon="2.55994">
        <ele>100.9</ele>
        <time>2022-08-03T07:30:57Z</time>
      </trkpt>
      <trkpt lat="49.83639" lon="2.55991">
        <ele>100.9</ele>
        <time>2022-08-03T07:30:58Z</time>
      </trkpt>
      <trkpt lat="49.83639" lon="2.55989">
        <ele>100.9</ele>
        <time>2022-08-03T07:30:59Z</time>
      </trkpt>
      <trkpt lat="49.83639" lon="2.55986">
        <ele>100.9</ele>
        <time>2022-08-03T07:31:01Z</time>
      </trkpt>
      <trkpt lat="49.83639" lon="2.55984">
        <ele>100.8</ele>
        <time>2022-08-03T07:31:02Z</time>
      </trkpt>
      <trkpt lat="49.83638" lon="2.55982">
        <ele>100.8</ele>
        <time>2022-08-03T07:31:03Z</time>
      </trkpt>
      <trkpt lat="49.83638" lon="2.55981">
        <ele>100.8</ele>
        <time>2022-08-03T07:31:05Z</time>
      </trkpt>
      <trkpt lat="49.83638" lon="2.55979">
        <ele>100.8</ele>
        <time>2022-08-03T07:31:06Z</time>
      </trkpt>
      <trkpt lat="49.83638" lon="2.55977">
        <ele>100.8</ele>
        <time>2022-08-03T07:31:07Z</time>
      </trkpt>
      <trkpt lat="49.83638" lon="2.55974">
        <ele>100.8</ele>
        <time>2022-08-03T07:31:08Z</time>
      </trkpt>
      <trkpt lat="49.83638" lon="2.55973">
        <ele>100.8</ele>
        <time>2022-08-03T07:31:09Z</time>
      </trkpt>
      <trkpt lat="49.83638" lon="2.55972">
        <ele>100.8</ele>
        <time>2022-08-03T07:31:10Z</time>
      </trkpt>
      <trkpt lat="49.83637" lon="2.55969">
        <ele>100.8</ele>
        <time>2022-08-03T07:31:11Z</time>
      </trkpt>
      <trkpt lat="49.83637" lon="2.55967">
        <ele>100.8</ele>
        <time>2022-08-03T07:31:12Z</time>
      </trkpt>
      <trkpt lat="49.83637" lon="2.55966">
        <ele>100.8</ele>
        <time>2022-08-03T07:31:13Z</time>
      </trkpt>
      <trkpt lat="49.83637" lon="2.55965">
        <ele>100.7</ele>
        <time>2022-08-03T07:31:15Z</time>
      </trkpt>
      <trkpt lat="49.83637" lon="2.55963">
        <ele>100.7</ele>
        <time>2022-08-03T07:31:16Z</time>
      </trkpt>
      <trkpt lat="49.83637" lon="2.55962">
        <ele>100.7</ele>
        <time>2022-08-03T07:31:17Z</time>
      </trkpt>
      <trkpt lat="49.83637" lon="2.5596">
        <ele>100.7</ele>
        <time>2022-08-03T07:31:18Z</time>
      </trkpt>
      <trkpt lat="49.83637" lon="2.55957">
        <ele>100.7</ele>
        <time>2022-08-03T07:31:19Z</time>
      </trkpt>
      <trkpt lat="49.83637" lon="2.55956">
        <ele>100.7</ele>
        <time>2022-08-03T07:31:20Z</time>
      </trkpt>
      <trkpt lat="49.83637" lon="2.55954">
        <ele>100.7</ele>
        <time>2022-08-03T07:31:21Z</time>
      </trkpt>
      <trkpt lat="49.83638" lon="2.55952">
        <ele>100.7</ele>
        <time>2022-08-03T07:31:22Z</time>
      </trkpt>
      <trkpt lat="49.83638" lon="2.55948">
        <ele>100.7</ele>
        <time>2022-08-03T07:31:23Z</time>
      </trkpt>
      <trkpt lat="49.83638" lon="2.55947">
        <ele>100.7</ele>
        <time>2022-08-03T07:31:24Z</time>
      </trkpt>
      <trkpt lat="49.83638" lon="2.55945">
        <ele>100.7</ele>
        <time>2022-08-03T07:31:26Z</time>
      </trkpt>
      <trkpt lat="49.83638" lon="2.55944">
        <ele>100.6</ele>
        <time>2022-08-03T07:31:27Z</time>
      </trkpt>
      <trkpt lat="49.83638" lon="2.55942">
        <ele>100.6</ele>
        <time>2022-08-03T07:31:28Z</time>
      </trkpt>
      <trkpt lat="49.83638" lon="2.55941">
        <ele>100.6</ele>
        <time>2022-08-03T07:31:29Z</time>
      </trkpt>
      <trkpt lat="49.83638" lon="2.55939">
        <ele>100.6</ele>
        <time>2022-08-03T07:31:30Z</time>
      </trkpt>
      <trkpt lat="49.83638" lon="2.55937">
        <ele>100.6</ele>
        <time>2022-08-03T07:31:31Z</time>
      </trkpt>
      <trkpt lat="49.83637" lon="2.55936">
        <ele>100.6</ele>
        <time>2022-08-03T07:31:32Z</time>
      </trkpt>
      <trkpt lat="49.83638" lon="2.55934">
        <ele>100.6</ele>
        <time>2022-08-03T07:31:33Z</time>
      </trkpt>
      <trkpt lat="49.83638" lon="2.55932">
        <ele>100.6</ele>
        <time>2022-08-03T07:31:34Z</time>
      </trkpt>
      <trkpt lat="49.83638" lon="2.5593">
        <ele>100.6</ele>
        <time>2022-08-03T07:31:36Z</time>
      </trkpt>
      <trkpt lat="49.83638" lon="2.55927">
        <ele>100.6</ele>
        <time>2022-08-03T07:31:37Z</time>
      </trkpt>
      <trkpt lat="49.83638" lon="2.55925">
        <ele>100.6</ele>
        <time>2022-08-03T07:31:38Z</time>
      </trkpt>
      <trkpt lat="49.83638" lon="2.55924">
        <ele>100.6</ele>
        <time>2022-08-03T07:31:39Z</time>
      </trkpt>
      <trkpt lat="49.83638" lon="2.55921">
        <ele>100.5</ele>
        <time>2022-08-03T07:31:40Z</time>
      </trkpt>
      <trkpt lat="49.83638" lon="2.55919">
        <ele>100.5</ele>
        <time>2022-08-03T07:31:41Z</time>
      </trkpt>
      <trkpt lat="49.83638" lon="2.55918">
        <ele>100.5</ele>
        <time>2022-08-03T07:31:42Z</time>
      </trkpt>
      <trkpt lat="49.83638" lon="2.55915">
        <ele>100.5</ele>
        <time>2022-08-03T07:31:43Z</time>
      </trkpt>
      <trkpt lat="49.83638" lon="2.55914">
        <ele>100.5</ele>
        <time>2022-08-03T07:31:44Z</time>
      </trkpt>
      <trkpt lat="49.83638" lon="2.55912">
        <ele>100.5</ele>
        <time>2022-08-03T07:31:46Z</time>
      </trkpt>
      <trkpt lat="49.83638" lon="2.5591">
        <ele>100.5</ele>
        <time>2022-08-03T07:31:47Z</time>
      </trkpt>
      <trkpt lat="49.83638" lon="2.55909">
        <ele>100.5</ele>
        <time>2022-08-03T07:31:48Z</time>
      </trkpt>
      <trkpt lat="49.83638" lon="2.55907">
        <ele>100.5</ele>
        <time>2022-08-03T07:31:49Z</time>
      </trkpt>
      <trkpt lat="49.83638" lon="2.55904">
        <ele>100.4</ele>
        <time>2022-08-03T07:31:50Z</time>
      </trkpt>
      <trkpt lat="49.83637" lon="2.55903">
        <ele>100.4</ele>
        <time>2022-08-03T07:31:51Z</time>
      </trkpt>
      <trkpt lat="49.83637" lon="2.55902">
        <ele>100.4</ele>
        <time>2022-08-03T07:31:52Z</time>
      </trkpt>
      <trkpt lat="49.83637" lon="2.559">
        <ele>100.4</ele>
        <time>2022-08-03T07:31:53Z</time>
      </trkpt>
      <trkpt lat="49.83637" lon="2.55897">
        <ele>100.4</ele>
        <time>2022-08-03T07:31:55Z</time>
      </trkpt>
      <trkpt lat="49.83637" lon="2.55896">
        <ele>100.4</ele>
        <time>2022-08-03T07:31:56Z</time>
      </trkpt>
      <trkpt lat="49.83637" lon="2.55894">
        <ele>100.4</ele>
        <time>2022-08-03T07:31:57Z</time>
      </trkpt>
      <trkpt lat="49.83637" lon="2.55892">
        <ele>100.4</ele>
        <time>2022-08-03T07:31:58Z</time>
      </trkpt>
      <trkpt lat="49.83637" lon="2.55889">
        <ele>100.4</ele>
        <time>2022-08-03T07:31:59Z</time>
      </trkpt>
      <trkpt lat="49.83637" lon="2.55888">
        <ele>100.4</ele>
        <time>2022-08-03T07:32:00Z</time>
      </trkpt>
      <trkpt lat="49.83637" lon="2.55886">
        <ele>100.3</ele>
        <time>2022-08-03T07:32:01Z</time>
      </trkpt>
      <trkpt lat="49.83637" lon="2.55885">
        <ele>100.3</ele>
        <time>2022-08-03T07:32:02Z</time>
      </trkpt>
      <trkpt lat="49.83637" lon="2.55884">
        <ele>100.3</ele>
        <time>2022-08-03T07:32:04Z</time>
      </trkpt>
      <trkpt lat="49.83636" lon="2.55881">
        <ele>100.3</ele>
        <time>2022-08-03T07:32:05Z</time>
      </trkpt>
      <trkpt lat="49.83636" lon="2.5588">
        <ele>100.3</ele>
        <time>2022-08-03T07:32:06Z</time>
      </trkpt>
      <trkpt lat="49.83636" lon="2.55878">
        <ele>100.3</ele>
        <time>2022-08-03T07:32:07Z</time>
      </trkpt>
      <trkpt lat="49.83636" lon="2.55876">
        <ele>100.3</ele>
        <time>2022-08-03T07:32:08Z</time>
      </trkpt>
      <trkpt lat="49.83636" lon="2.55871">
        <ele>100.3</ele>
        <time>2022-08-03T07:32:09Z</time>
      </trkpt>
      <trkpt lat="49.83636" lon="2.55869">
        <ele>100.3</ele>
        <time>2022-08-03T07:32:11Z</time>
      </trkpt>
      <trkpt lat="49.83637" lon="2.55867">
        <ele>100.2</ele>
        <time>2022-08-03T07:32:12Z</time>
      </trkpt>
      <trkpt lat="49.83637" lon="2.55866">
        <ele>100.2</ele>
        <time>2022-08-03T07:32:13Z</time>
      </trkpt>
      <trkpt lat="49.83637" lon="2.55864">
        <ele>100.2</ele>
        <time>2022-08-03T07:32:14Z</time>
      </trkpt>
      <trkpt lat="49.83638" lon="2.55861">
        <ele>100.2</ele>
        <time>2022-08-03T07:32:15Z</time>
      </trkpt>
      <trkpt lat="49.83638" lon="2.5586">
        <ele>100.2</ele>
        <time>2022-08-03T07:32:17Z</time>
      </trkpt>
      <trkpt lat="49.83639" lon="2.55858">
        <ele>100.2</ele>
        <time>2022-08-03T07:32:18Z</time>
      </trkpt>
      <trkpt lat="49.83639" lon="2.55856">
        <ele>100.2</ele>
        <time>2022-08-03T07:32:19Z</time>
      </trkpt>
      <trkpt lat="49.83639" lon="2.55855">
        <ele>100.2</ele>
        <time>2022-08-03T07:32:20Z</time>
      </trkpt>
      <trkpt lat="49.83639" lon="2.55853">
        <ele>100.1</ele>
        <time>2022-08-03T07:32:22Z</time>
      </trkpt>
      <trkpt lat="49.83639" lon="2.5585">
        <ele>100.1</ele>
        <time>2022-08-03T07:32:23Z</time>
      </trkpt>
      <trkpt lat="49.83639" lon="2.55848">
        <ele>100.1</ele>
        <time>2022-08-03T07:32:24Z</time>
      </trkpt>
      <trkpt lat="49.83639" lon="2.55847">
        <ele>100.1</ele>
        <time>2022-08-03T07:32:25Z</time>
      </trkpt>
      <trkpt lat="49.83639" lon="2.55844">
        <ele>100.1</ele>
        <time>2022-08-03T07:32:26Z</time>
      </trkpt>
      <trkpt lat="49.83639" lon="2.55843">
        <ele>100.1</ele>
        <time>2022-08-03T07:32:27Z</time>
      </trkpt>
      <trkpt lat="49.83639" lon="2.55841">
        <ele>100.1</ele>
        <time>2022-08-03T07:32:28Z</time>
      </trkpt>
      <trkpt lat="49.83639" lon="2.55839">
        <ele>100.1</ele>
        <time>2022-08-03T07:32:29Z</time>
      </trkpt>
      <trkpt lat="49.83639" lon="2.55837">
        <ele>100.1</ele>
        <time>2022-08-03T07:32:30Z</time>
      </trkpt>
      <trkpt lat="49.83639" lon="2.55835">
        <ele>100</ele>
        <time>2022-08-03T07:32:31Z</time>
      </trkpt>
      <trkpt lat="49.83639" lon="2.55834">
        <ele>100</ele>
        <time>2022-08-03T07:32:33Z</time>
      </trkpt>
      <trkpt lat="49.83639" lon="2.55832">
        <ele>100</ele>
        <time>2022-08-03T07:32:34Z</time>
      </trkpt>
      <trkpt lat="49.83638" lon="2.55829">
        <ele>100</ele>
        <time>2022-08-03T07:32:35Z</time>
      </trkpt>
      <trkpt lat="49.83637" lon="2.55828">
        <ele>99.9</ele>
        <time>2022-08-03T07:32:36Z</time>
      </trkpt>
      <trkpt lat="49.83635" lon="2.55826">
        <ele>99.9</ele>
        <time>2022-08-03T07:32:37Z</time>
      </trkpt>
      <trkpt lat="49.83634" lon="2.55826">
        <ele>99.9</ele>
        <time>2022-08-03T07:32:38Z</time>
      </trkpt>
      <trkpt lat="49.83633" lon="2.55825">
        <ele>99.9</ele>
        <time>2022-08-03T07:32:39Z</time>
      </trkpt>
      <trkpt lat="49.83632" lon="2.55825">
        <ele>99.9</ele>
        <time>2022-08-03T07:32:40Z</time>
      </trkpt>
      <trkpt lat="49.83631" lon="2.55826">
        <ele>99.9</ele>
        <time>2022-08-03T07:32:41Z</time>
      </trkpt>
      <trkpt lat="49.83629" lon="2.55826">
        <ele>99.9</ele>
        <time>2022-08-03T07:32:43Z</time>
      </trkpt>
      <trkpt lat="49.83627" lon="2.55828">
        <ele>99.8</ele>
        <time>2022-08-03T07:32:44Z</time>
      </trkpt>
      <trkpt lat="49.83626" lon="2.55829">
        <ele>99.8</ele>
        <time>2022-08-03T07:32:45Z</time>
      </trkpt>
      <trkpt lat="49.83624" lon="2.55831">
        <ele>99.8</ele>
        <time>2022-08-03T07:32:46Z</time>
      </trkpt>
      <trkpt lat="49.83623" lon="2.55832">
        <ele>99.8</ele>
        <time>2022-08-03T07:32:47Z</time>
      </trkpt>
      <trkpt lat="49.83622" lon="2.55832">
        <ele>99.8</ele>
        <time>2022-08-03T07:32:48Z</time>
      </trkpt>
      <trkpt lat="49.8362" lon="2.55834">
        <ele>99.8</ele>
        <time>2022-08-03T07:32:49Z</time>
      </trkpt>
      <trkpt lat="49.8362" lon="2.55835">
        <ele>99.8</ele>
        <time>2022-08-03T07:32:50Z</time>
      </trkpt>
      <trkpt lat="49.83619" lon="2.55837">
        <ele>99.8</ele>
        <time>2022-08-03T07:32:51Z</time>
      </trkpt>
      <trkpt lat="49.83618" lon="2.55838">
        <ele>99.7</ele>
        <time>2022-08-03T07:32:52Z</time>
      </trkpt>
      <trkpt lat="49.83617" lon="2.55839">
        <ele>99.7</ele>
        <time>2022-08-03T07:32:54Z</time>
      </trkpt>
      <trkpt lat="49.83615" lon="2.55841">
        <ele>99.7</ele>
        <time>2022-08-03T07:32:55Z</time>
      </trkpt>
      <trkpt lat="49.83614" lon="2.55842">
        <ele>99.7</ele>
        <time>2022-08-03T07:32:56Z</time>
      </trkpt>
      <trkpt lat="49.83613" lon="2.55843">
        <ele>99.7</ele>
        <time>2022-08-03T07:32:57Z</time>
      </trkpt>
      <trkpt lat="49.83612" lon="2.55844">
        <ele>99.8</ele>
        <time>2022-08-03T07:32:58Z</time>
      </trkpt>
      <trkpt lat="49.83611" lon="2.55846">
        <ele>99.8</ele>
        <time>2022-08-03T07:32:59Z</time>
      </trkpt>
      <trkpt lat="49.8361" lon="2.55847">
        <ele>99.8</ele>
        <time>2022-08-03T07:33:00Z</time>
      </trkpt>
      <trkpt lat="49.83609" lon="2.55848">
        <ele>99.8</ele>
        <time>2022-08-03T07:33:01Z</time>
      </trkpt>
      <trkpt lat="49.83608" lon="2.55849">
        <ele>99.8</ele>
        <time>2022-08-03T07:33:02Z</time>
      </trkpt>
      <trkpt lat="49.83607" lon="2.5585">
        <ele>99.8</ele>
        <time>2022-08-03T07:33:03Z</time>
      </trkpt>
      <trkpt lat="49.83605" lon="2.55852">
        <ele>99.8</ele>
        <time>2022-08-03T07:33:05Z</time>
      </trkpt>
      <trkpt lat="49.83604" lon="2.55853">
        <ele>99.8</ele>
        <time>2022-08-03T07:33:06Z</time>
      </trkpt>
      <trkpt lat="49.83603" lon="2.55855">
        <ele>99.8</ele>
        <time>2022-08-03T07:33:07Z</time>
      </trkpt>
      <trkpt lat="49.83602" lon="2.55856">
        <ele>99.8</ele>
        <time>2022-08-03T07:33:08Z</time>
      </trkpt>
      <trkpt lat="49.83601" lon="2.55856">
        <ele>99.8</ele>
        <time>2022-08-03T07:33:09Z</time>
      </trkpt>
      <trkpt lat="49.83599" lon="2.55858">
        <ele>99.8</ele>
        <time>2022-08-03T07:33:10Z</time>
      </trkpt>
      <trkpt lat="49.83599" lon="2.55859">
        <ele>99.8</ele>
        <time>2022-08-03T07:33:11Z</time>
      </trkpt>
      <trkpt lat="49.83598" lon="2.5586">
        <ele>99.8</ele>
        <time>2022-08-03T07:33:12Z</time>
      </trkpt>
      <trkpt lat="49.83596" lon="2.55861">
        <ele>99.8</ele>
        <time>2022-08-03T07:33:13Z</time>
      </trkpt>
      <trkpt lat="49.83595" lon="2.55862">
        <ele>99.8</ele>
        <time>2022-08-03T07:33:15Z</time>
      </trkpt>
      <trkpt lat="49.83594" lon="2.55863">
        <ele>99.8</ele>
        <time>2022-08-03T07:33:16Z</time>
      </trkpt>
      <trkpt lat="49.83593" lon="2.55864">
        <ele>99.8</ele>
        <time>2022-08-03T07:33:17Z</time>
      </trkpt>
      <trkpt lat="49.83592" lon="2.55865">
        <ele>99.8</ele>
        <time>2022-08-03T07:33:18Z</time>
      </trkpt>
      <trkpt lat="49.83591" lon="2.55867">
        <ele>99.8</ele>
        <time>2022-08-03T07:33:19Z</time>
      </trkpt>
      <trkpt lat="49.8359" lon="2.55867">
        <ele>99.8</ele>
        <time>2022-08-03T07:33:20Z</time>
      </trkpt>
      <trkpt lat="49.83588" lon="2.55868">
        <ele>99.8</ele>
        <time>2022-08-03T07:33:22Z</time>
      </trkpt>
      <trkpt lat="49.83587" lon="2.55869">
        <ele>99.7</ele>
        <time>2022-08-03T07:33:23Z</time>
      </trkpt>
      <trkpt lat="49.83584" lon="2.5587">
        <ele>99.7</ele>
        <time>2022-08-03T07:33:25Z</time>
      </trkpt>
      <trkpt lat="49.83584" lon="2.5587">
        <ele>99.7</ele>
        <time>2022-08-03T07:33:26Z</time>
      </trkpt>
      <trkpt lat="49.83583" lon="2.55871">
        <ele>99.7</ele>
        <time>2022-08-03T07:33:27Z</time>
      </trkpt>
      <trkpt lat="49.83581" lon="2.55872">
        <ele>99.7</ele>
        <time>2022-08-03T07:33:28Z</time>
      </trkpt>
      <trkpt lat="49.8358" lon="2.55873">
        <ele>99.7</ele>
        <time>2022-08-03T07:33:29Z</time>
      </trkpt>
      <trkpt lat="49.83579" lon="2.55873">
        <ele>99.7</ele>
        <time>2022-08-03T07:33:30Z</time>
      </trkpt>
      <trkpt lat="49.83577" lon="2.55874">
        <ele>99.7</ele>
        <time>2022-08-03T07:33:31Z</time>
      </trkpt>
      <trkpt lat="49.83576" lon="2.55874">
        <ele>99.7</ele>
        <time>2022-08-03T07:33:33Z</time>
      </trkpt>
      <trkpt lat="49.83575" lon="2.55875">
        <ele>99.7</ele>
        <time>2022-08-03T07:33:34Z</time>
      </trkpt>
      <trkpt lat="49.83574" lon="2.55875">
        <ele>99.7</ele>
        <time>2022-08-03T07:33:35Z</time>
      </trkpt>
      <trkpt lat="49.83573" lon="2.55875">
        <ele>99.7</ele>
        <time>2022-08-03T07:33:36Z</time>
      </trkpt>
      <trkpt lat="49.83571" lon="2.55876">
        <ele>99.6</ele>
        <time>2022-08-03T07:33:37Z</time>
      </trkpt>
      <trkpt lat="49.8357" lon="2.55876">
        <ele>99.6</ele>
        <time>2022-08-03T07:33:38Z</time>
      </trkpt>
      <trkpt lat="49.83569" lon="2.55877">
        <ele>99.6</ele>
        <time>2022-08-03T07:33:40Z</time>
      </trkpt>
      <trkpt lat="49.83568" lon="2.55877">
        <ele>99.6</ele>
        <time>2022-08-03T07:33:41Z</time>
      </trkpt>
      <trkpt lat="49.83567" lon="2.55878">
        <ele>99.6</ele>
        <time>2022-08-03T07:33:42Z</time>
      </trkpt>
      <trkpt lat="49.83566" lon="2.55879">
        <ele>99.6</ele>
        <time>2022-08-03T07:33:43Z</time>
      </trkpt>
      <trkpt lat="49.83565" lon="2.5588">
        <ele>99.5</ele>
        <time>2022-08-03T07:33:44Z</time>
      </trkpt>
      <trkpt lat="49.83562" lon="2.55882">
        <ele>99.5</ele>
        <time>2022-08-03T07:33:46Z</time>
      </trkpt>
      <trkpt lat="49.83561" lon="2.55883">
        <ele>99.4</ele>
        <time>2022-08-03T07:33:47Z</time>
      </trkpt>
      <trkpt lat="49.8356" lon="2.55883">
        <ele>99.4</ele>
        <time>2022-08-03T07:33:48Z</time>
      </trkpt>
      <trkpt lat="49.83559" lon="2.55884">
        <ele>99.4</ele>
        <time>2022-08-03T07:33:49Z</time>
      </trkpt>
      <trkpt lat="49.83557" lon="2.55885">
        <ele>99.3</ele>
        <time>2022-08-03T07:33:50Z</time>
      </trkpt>
      <trkpt lat="49.83556" lon="2.55886">
        <ele>99.3</ele>
        <time>2022-08-03T07:33:51Z</time>
      </trkpt>
      <trkpt lat="49.83554" lon="2.55888">
        <ele>99.2</ele>
        <time>2022-08-03T07:33:52Z</time>
      </trkpt>
      <trkpt lat="49.83554" lon="2.55889">
        <ele>99.2</ele>
        <time>2022-08-03T07:33:53Z</time>
      </trkpt>
      <trkpt lat="49.83553" lon="2.55889">
        <ele>99.1</ele>
        <time>2022-08-03T07:33:54Z</time>
      </trkpt>
      <trkpt lat="49.83552" lon="2.55891">
        <ele>99.1</ele>
        <time>2022-08-03T07:33:55Z</time>
      </trkpt>
      <trkpt lat="49.83551" lon="2.55892">
        <ele>99</ele>
        <time>2022-08-03T07:33:56Z</time>
      </trkpt>
      <trkpt lat="49.8355" lon="2.55893">
        <ele>99</ele>
        <time>2022-08-03T07:33:58Z</time>
      </trkpt>
      <trkpt lat="49.83549" lon="2.55894">
        <ele>98.9</ele>
        <time>2022-08-03T07:33:59Z</time>
      </trkpt>
      <trkpt lat="49.83547" lon="2.55895">
        <ele>98.9</ele>
        <time>2022-08-03T07:34:00Z</time>
      </trkpt>
      <trkpt lat="49.83547" lon="2.55896">
        <ele>98.8</ele>
        <time>2022-08-03T07:34:01Z</time>
      </trkpt>
      <trkpt lat="49.83546" lon="2.55897">
        <ele>98.8</ele>
        <time>2022-08-03T07:34:02Z</time>
      </trkpt>
      <trkpt lat="49.83544" lon="2.55897">
        <ele>98.7</ele>
        <time>2022-08-03T07:34:03Z</time>
      </trkpt>
      <trkpt lat="49.83543" lon="2.55898">
        <ele>98.7</ele>
        <time>2022-08-03T07:34:04Z</time>
      </trkpt>
      <trkpt lat="49.83542" lon="2.559">
        <ele>98.6</ele>
        <time>2022-08-03T07:34:05Z</time>
      </trkpt>
      <trkpt lat="49.83541" lon="2.559">
        <ele>98.5</ele>
        <time>2022-08-03T07:34:06Z</time>
      </trkpt>
      <trkpt lat="49.83539" lon="2.55901">
        <ele>98.5</ele>
        <time>2022-08-03T07:34:08Z</time>
      </trkpt>
      <trkpt lat="49.83538" lon="2.55902">
        <ele>98.4</ele>
        <time>2022-08-03T07:34:09Z</time>
      </trkpt>
      <trkpt lat="49.83537" lon="2.55903">
        <ele>98.4</ele>
        <time>2022-08-03T07:34:10Z</time>
      </trkpt>
      <trkpt lat="49.83536" lon="2.55903">
        <ele>98.3</ele>
        <time>2022-08-03T07:34:11Z</time>
      </trkpt>
      <trkpt lat="49.83535" lon="2.55903">
        <ele>98.3</ele>
        <time>2022-08-03T07:34:12Z</time>
      </trkpt>
      <trkpt lat="49.83534" lon="2.55903">
        <ele>98.3</ele>
        <time>2022-08-03T07:34:13Z</time>
      </trkpt>
      <trkpt lat="49.83533" lon="2.55904">
        <ele>98.2</ele>
        <time>2022-08-03T07:34:14Z</time>
      </trkpt>
      <trkpt lat="49.83531" lon="2.55905">
        <ele>98.1</ele>
        <time>2022-08-03T07:34:15Z</time>
      </trkpt>
      <trkpt lat="49.8353" lon="2.55906">
        <ele>98.1</ele>
        <time>2022-08-03T07:34:16Z</time>
      </trkpt>
      <trkpt lat="49.83528" lon="2.55907">
        <ele>98</ele>
        <time>2022-08-03T07:34:18Z</time>
      </trkpt>
      <trkpt lat="49.83527" lon="2.55908">
        <ele>98</ele>
        <time>2022-08-03T07:34:19Z</time>
      </trkpt>
      <trkpt lat="49.83526" lon="2.55909">
        <ele>97.9</ele>
        <time>2022-08-03T07:34:20Z</time>
      </trkpt>
      <trkpt lat="49.83525" lon="2.5591">
        <ele>97.8</ele>
        <time>2022-08-03T07:34:22Z</time>
      </trkpt>
      <trkpt lat="49.83524" lon="2.55911">
        <ele>97.8</ele>
        <time>2022-08-03T07:34:23Z</time>
      </trkpt>
      <trkpt lat="49.83523" lon="2.55912">
        <ele>97.7</ele>
        <time>2022-08-03T07:34:24Z</time>
      </trkpt>
      <trkpt lat="49.83522" lon="2.55912">
        <ele>97.7</ele>
        <time>2022-08-03T07:34:25Z</time>
      </trkpt>
      <trkpt lat="49.83521" lon="2.55912">
        <ele>97.6</ele>
        <time>2022-08-03T07:34:26Z</time>
      </trkpt>
      <trkpt lat="49.8352" lon="2.55913">
        <ele>97.6</ele>
        <time>2022-08-03T07:34:27Z</time>
      </trkpt>
      <trkpt lat="49.83519" lon="2.55913">
        <ele>97.5</ele>
        <time>2022-08-03T07:34:28Z</time>
      </trkpt>
      <trkpt lat="49.83518" lon="2.55914">
        <ele>97.5</ele>
        <time>2022-08-03T07:34:29Z</time>
      </trkpt>
      <trkpt lat="49.83517" lon="2.55915">
        <ele>97.4</ele>
        <time>2022-08-03T07:34:30Z</time>
      </trkpt>
      <trkpt lat="49.83516" lon="2.55916">
        <ele>97.4</ele>
        <time>2022-08-03T07:34:31Z</time>
      </trkpt>
      <trkpt lat="49.83513" lon="2.55918">
        <ele>97.2</ele>
        <time>2022-08-03T07:34:33Z</time>
      </trkpt>
      <trkpt lat="49.83512" lon="2.55918">
        <ele>97.2</ele>
        <time>2022-08-03T07:34:34Z</time>
      </trkpt>
      <trkpt lat="49.83511" lon="2.55918">
        <ele>97.1</ele>
        <time>2022-08-03T07:34:35Z</time>
      </trkpt>
      <trkpt lat="49.8351" lon="2.55919">
        <ele>97.1</ele>
        <time>2022-08-03T07:34:36Z</time>
      </trkpt>
      <trkpt lat="49.83508" lon="2.5592">
        <ele>97</ele>
        <time>2022-08-03T07:34:37Z</time>
      </trkpt>
      <trkpt lat="49.83507" lon="2.5592">
        <ele>96.9</ele>
        <time>2022-08-03T07:34:38Z</time>
      </trkpt>
      <trkpt lat="49.83507" lon="2.55921">
        <ele>96.9</ele>
        <time>2022-08-03T07:34:39Z</time>
      </trkpt>
      <trkpt lat="49.83506" lon="2.55921">
        <ele>96.8</ele>
        <time>2022-08-03T07:34:40Z</time>
      </trkpt>
      <trkpt lat="49.83505" lon="2.55921">
        <ele>96.8</ele>
        <time>2022-08-03T07:34:42Z</time>
      </trkpt>
      <trkpt lat="49.83503" lon="2.55922">
        <ele>96.7</ele>
        <time>2022-08-03T07:34:43Z</time>
      </trkpt>
      <trkpt lat="49.83503" lon="2.55922">
        <ele>96.7</ele>
        <time>2022-08-03T07:34:44Z</time>
      </trkpt>
      <trkpt lat="49.83502" lon="2.55922">
        <ele>96.6</ele>
        <time>2022-08-03T07:34:45Z</time>
      </trkpt>
      <trkpt lat="49.83501" lon="2.55923">
        <ele>96.6</ele>
        <time>2022-08-03T07:34:46Z</time>
      </trkpt>
      <trkpt lat="49.83499" lon="2.55923">
        <ele>96.5</ele>
        <time>2022-08-03T07:34:47Z</time>
      </trkpt>
      <trkpt lat="49.83498" lon="2.55924">
        <ele>96.4</ele>
        <time>2022-08-03T07:34:49Z</time>
      </trkpt>
      <trkpt lat="49.83497" lon="2.55925">
        <ele>96.4</ele>
        <time>2022-08-03T07:34:50Z</time>
      </trkpt>
      <trkpt lat="49.83496" lon="2.55925">
        <ele>96.3</ele>
        <time>2022-08-03T07:34:51Z</time>
      </trkpt>
      <trkpt lat="49.83495" lon="2.55926">
        <ele>96.3</ele>
        <time>2022-08-03T07:34:52Z</time>
      </trkpt>
      <trkpt lat="49.83494" lon="2.55928">
        <ele>96.2</ele>
        <time>2022-08-03T07:34:53Z</time>
      </trkpt>
      <trkpt lat="49.83493" lon="2.55929">
        <ele>96.1</ele>
        <time>2022-08-03T07:34:54Z</time>
      </trkpt>
      <trkpt lat="49.83492" lon="2.5593">
        <ele>96.1</ele>
        <time>2022-08-03T07:34:55Z</time>
      </trkpt>
      <trkpt lat="49.83491" lon="2.55931">
        <ele>96</ele>
        <time>2022-08-03T07:34:56Z</time>
      </trkpt>
      <trkpt lat="49.83489" lon="2.55934">
        <ele>95.9</ele>
        <time>2022-08-03T07:34:58Z</time>
      </trkpt>
      <trkpt lat="49.83488" lon="2.55936">
        <ele>95.8</ele>
        <time>2022-08-03T07:35:00Z</time>
      </trkpt>
      <trkpt lat="49.83487" lon="2.55937">
        <ele>95.8</ele>
        <time>2022-08-03T07:35:01Z</time>
      </trkpt>
      <trkpt lat="49.83486" lon="2.55938">
        <ele>95.7</ele>
        <time>2022-08-03T07:35:02Z</time>
      </trkpt>
      <trkpt lat="49.83486" lon="2.55939">
        <ele>95.7</ele>
        <time>2022-08-03T07:35:03Z</time>
      </trkpt>
      <trkpt lat="49.83485" lon="2.5594">
        <ele>95.6</ele>
        <time>2022-08-03T07:35:04Z</time>
      </trkpt>
      <trkpt lat="49.83484" lon="2.55942">
        <ele>95.5</ele>
        <time>2022-08-03T07:35:06Z</time>
      </trkpt>
      <trkpt lat="49.83483" lon="2.55942">
        <ele>95.5</ele>
        <time>2022-08-03T07:35:07Z</time>
      </trkpt>
      <trkpt lat="49.83482" lon="2.55944">
        <ele>95.4</ele>
        <time>2022-08-03T07:35:08Z</time>
      </trkpt>
      <trkpt lat="49.8348" lon="2.55945">
        <ele>95.4</ele>
        <time>2022-08-03T07:35:10Z</time>
      </trkpt>
      <trkpt lat="49.8348" lon="2.55946">
        <ele>95.3</ele>
        <time>2022-08-03T07:35:11Z</time>
      </trkpt>
      <trkpt lat="49.83479" lon="2.55947">
        <ele>95.3</ele>
        <time>2022-08-03T07:35:12Z</time>
      </trkpt>
      <trkpt lat="49.83478" lon="2.55948">
        <ele>95.2</ele>
        <time>2022-08-03T07:35:13Z</time>
      </trkpt>
      <trkpt lat="49.83478" lon="2.55949">
        <ele>95.2</ele>
        <time>2022-08-03T07:35:14Z</time>
      </trkpt>
      <trkpt lat="49.83477" lon="2.5595">
        <ele>95.1</ele>
        <time>2022-08-03T07:35:15Z</time>
      </trkpt>
      <trkpt lat="49.83476" lon="2.55951">
        <ele>95.1</ele>
        <time>2022-08-03T07:35:16Z</time>
      </trkpt>
      <trkpt lat="49.83473" lon="2.55953">
        <ele>95</ele>
        <time>2022-08-03T07:35:17Z</time>
      </trkpt>
      <trkpt lat="49.83473" lon="2.55953">
        <ele>94.9</ele>
        <time>2022-08-03T07:35:18Z</time>
      </trkpt>
      <trkpt lat="49.83472" lon="2.55954">
        <ele>94.9</ele>
        <time>2022-08-03T07:35:19Z</time>
      </trkpt>
      <trkpt lat="49.8347" lon="2.55955">
        <ele>94.8</ele>
        <time>2022-08-03T07:35:21Z</time>
      </trkpt>
      <trkpt lat="49.83469" lon="2.55955">
        <ele>94.8</ele>
        <time>2022-08-03T07:35:22Z</time>
      </trkpt>
      <trkpt lat="49.83468" lon="2.55955">
        <ele>94.8</ele>
        <time>2022-08-03T07:35:23Z</time>
      </trkpt>
      <trkpt lat="49.83467" lon="2.55955">
        <ele>94.7</ele>
        <time>2022-08-03T07:35:24Z</time>
      </trkpt>
      <trkpt lat="49.83466" lon="2.55956">
        <ele>94.7</ele>
        <time>2022-08-03T07:35:25Z</time>
      </trkpt>
      <trkpt lat="49.83465" lon="2.55957">
        <ele>94.6</ele>
        <time>2022-08-03T07:35:26Z</time>
      </trkpt>
      <trkpt lat="49.83464" lon="2.55957">
        <ele>94.6</ele>
        <time>2022-08-03T07:35:27Z</time>
      </trkpt>
      <trkpt lat="49.83462" lon="2.55957">
        <ele>94.5</ele>
        <time>2022-08-03T07:35:28Z</time>
      </trkpt>
      <trkpt lat="49.83461" lon="2.55957">
        <ele>94.5</ele>
        <time>2022-08-03T07:35:29Z</time>
      </trkpt>
      <trkpt lat="49.8346" lon="2.55957">
        <ele>94.5</ele>
        <time>2022-08-03T07:35:30Z</time>
      </trkpt>
      <trkpt lat="49.83459" lon="2.55958">
        <ele>94.4</ele>
        <time>2022-08-03T07:35:31Z</time>
      </trkpt>
      <trkpt lat="49.83456" lon="2.55959">
        <ele>94.3</ele>
        <time>2022-08-03T07:35:32Z</time>
      </trkpt>
      <trkpt lat="49.83456" lon="2.55959">
        <ele>94.3</ele>
        <time>2022-08-03T07:35:34Z</time>
      </trkpt>
      <trkpt lat="49.83455" lon="2.55959">
        <ele>94.3</ele>
        <time>2022-08-03T07:35:35Z</time>
      </trkpt>
      <trkpt lat="49.83453" lon="2.5596">
        <ele>94.2</ele>
        <time>2022-08-03T07:35:36Z</time>
      </trkpt>
      <trkpt lat="49.83452" lon="2.5596">
        <ele>94.2</ele>
        <time>2022-08-03T07:35:37Z</time>
      </trkpt>
      <trkpt lat="49.83452" lon="2.55961">
        <ele>94.1</ele>
        <time>2022-08-03T07:35:38Z</time>
      </trkpt>
      <trkpt lat="49.8345" lon="2.55961">
        <ele>94.1</ele>
        <time>2022-08-03T07:35:39Z</time>
      </trkpt>
      <trkpt lat="49.83449" lon="2.55961">
        <ele>94</ele>
        <time>2022-08-03T07:35:41Z</time>
      </trkpt>
      <trkpt lat="49.83448" lon="2.55962">
        <ele>94</ele>
        <time>2022-08-03T07:35:42Z</time>
      </trkpt>
      <trkpt lat="49.83446" lon="2.55964">
        <ele>93.9</ele>
        <time>2022-08-03T07:35:43Z</time>
      </trkpt>
      <trkpt lat="49.83446" lon="2.55964">
        <ele>93.9</ele>
        <time>2022-08-03T07:35:44Z</time>
      </trkpt>
      <trkpt lat="49.83445" lon="2.55965">
        <ele>93.8</ele>
        <time>2022-08-03T07:35:45Z</time>
      </trkpt>
      <trkpt lat="49.83444" lon="2.55965">
        <ele>93.8</ele>
        <time>2022-08-03T07:35:46Z</time>
      </trkpt>
      <trkpt lat="49.83442" lon="2.55966">
        <ele>93.7</ele>
        <time>2022-08-03T07:35:47Z</time>
      </trkpt>
      <trkpt lat="49.83441" lon="2.55967">
        <ele>93.7</ele>
        <time>2022-08-03T07:35:49Z</time>
      </trkpt>
      <trkpt lat="49.8344" lon="2.55968">
        <ele>93.6</ele>
        <time>2022-08-03T07:35:50Z</time>
      </trkpt>
      <trkpt lat="49.83438" lon="2.55968">
        <ele>93.6</ele>
        <time>2022-08-03T07:35:51Z</time>
      </trkpt>
      <trkpt lat="49.83437" lon="2.55969">
        <ele>93.5</ele>
        <time>2022-08-03T07:35:52Z</time>
      </trkpt>
      <trkpt lat="49.83435" lon="2.5597">
        <ele>93.4</ele>
        <time>2022-08-03T07:35:53Z</time>
      </trkpt>
      <trkpt lat="49.83434" lon="2.5597">
        <ele>93.4</ele>
        <time>2022-08-03T07:35:54Z</time>
      </trkpt>
      <trkpt lat="49.83434" lon="2.55971">
        <ele>93.3</ele>
        <time>2022-08-03T07:35:55Z</time>
      </trkpt>
      <trkpt lat="49.83432" lon="2.55972">
        <ele>93.3</ele>
        <time>2022-08-03T07:35:57Z</time>
      </trkpt>
      <trkpt lat="49.83431" lon="2.55973">
        <ele>93.2</ele>
        <time>2022-08-03T07:35:58Z</time>
      </trkpt>
      <trkpt lat="49.8343" lon="2.55973">
        <ele>93.2</ele>
        <time>2022-08-03T07:35:59Z</time>
      </trkpt>
      <trkpt lat="49.83429" lon="2.55975">
        <ele>93.1</ele>
        <time>2022-08-03T07:36:01Z</time>
      </trkpt>
      <trkpt lat="49.83428" lon="2.55976">
        <ele>93.1</ele>
        <time>2022-08-03T07:36:02Z</time>
      </trkpt>
      <trkpt lat="49.83426" lon="2.55978">
        <ele>93</ele>
        <time>2022-08-03T07:36:03Z</time>
      </trkpt>
      <trkpt lat="49.83426" lon="2.55979">
        <ele>92.9</ele>
        <time>2022-08-03T07:36:04Z</time>
      </trkpt>
      <trkpt lat="49.83425" lon="2.5598">
        <ele>92.9</ele>
        <time>2022-08-03T07:36:05Z</time>
      </trkpt>
      <trkpt lat="49.83424" lon="2.55981">
        <ele>92.8</ele>
        <time>2022-08-03T07:36:06Z</time>
      </trkpt>
      <trkpt lat="49.83422" lon="2.55982">
        <ele>92.8</ele>
        <time>2022-08-03T07:36:07Z</time>
      </trkpt>
      <trkpt lat="49.83421" lon="2.55983">
        <ele>92.7</ele>
        <time>2022-08-03T07:36:09Z</time>
      </trkpt>
      <trkpt lat="49.8342" lon="2.55983">
        <ele>92.7</ele>
        <time>2022-08-03T07:36:10Z</time>
      </trkpt>
      <trkpt lat="49.8342" lon="2.55983">
        <ele>92.7</ele>
        <time>2022-08-03T07:36:11Z</time>
      </trkpt>
      <trkpt lat="49.83419" lon="2.55983">
        <ele>92.6</ele>
        <time>2022-08-03T07:36:13Z</time>
      </trkpt>
      <trkpt lat="49.83418" lon="2.55984">
        <ele>92.6</ele>
        <time>2022-08-03T07:36:14Z</time>
      </trkpt>
      <trkpt lat="49.83418" lon="2.55985">
        <ele>92.6</ele>
        <time>2022-08-03T07:36:15Z</time>
      </trkpt>
      <trkpt lat="49.83417" lon="2.55985">
        <ele>92.5</ele>
        <time>2022-08-03T07:36:17Z</time>
      </trkpt>
      <trkpt lat="49.83416" lon="2.55986">
        <ele>92.5</ele>
        <time>2022-08-03T07:36:18Z</time>
      </trkpt>
      <trkpt lat="49.83416" lon="2.55987">
        <ele>92.5</ele>
        <time>2022-08-03T07:36:19Z</time>
      </trkpt>
      <trkpt lat="49.83416" lon="2.55987">
        <ele>92.5</ele>
        <time>2022-08-03T07:36:20Z</time>
      </trkpt>
      <trkpt lat="49.83416" lon="2.55987">
        <ele>92.5</ele>
        <time>2022-08-03T07:36:21Z</time>
      </trkpt>
      <trkpt lat="49.83416" lon="2.55987">
        <ele>92.5</ele>
        <time>2022-08-03T07:36:22Z</time>
      </trkpt>
      <trkpt lat="49.83416" lon="2.55986">
        <ele>92.4</ele>
        <time>2022-08-03T07:36:24Z</time>
      </trkpt>
      <trkpt lat="49.83417" lon="2.55986">
        <ele>92.4</ele>
        <time>2022-08-03T07:36:25Z</time>
      </trkpt>
      <trkpt lat="49.83416" lon="2.55986">
        <ele>92.4</ele>
        <time>2022-08-03T07:36:26Z</time>
      </trkpt>
      <trkpt lat="49.83416" lon="2.55986">
        <ele>92.4</ele>
        <time>2022-08-03T07:36:27Z</time>
      </trkpt>
      <trkpt lat="49.83416" lon="2.55986">
        <ele>92.4</ele>
        <time>2022-08-03T07:36:28Z</time>
      </trkpt>
      <trkpt lat="49.83416" lon="2.55986">
        <ele>92.4</ele>
        <time>2022-08-03T07:36:29Z</time>
      </trkpt>
      <trkpt lat="49.83415" lon="2.55986">
        <ele>92.4</ele>
        <time>2022-08-03T07:36:31Z</time>
      </trkpt>
      <trkpt lat="49.83415" lon="2.55986">
        <ele>92.4</ele>
        <time>2022-08-03T07:36:32Z</time>
      </trkpt>
      <trkpt lat="49.83415" lon="2.55986">
        <ele>92.4</ele>
        <time>2022-08-03T07:36:33Z</time>
      </trkpt>
      <trkpt lat="49.83414" lon="2.55986">
        <ele>92.3</ele>
        <time>2022-08-03T07:36:34Z</time>
      </trkpt>
      <trkpt lat="49.83413" lon="2.55986">
        <ele>92.3</ele>
        <time>2022-08-03T07:36:35Z</time>
      </trkpt>
      <trkpt lat="49.83412" lon="2.55987">
        <ele>92.3</ele>
        <time>2022-08-03T07:36:37Z</time>
      </trkpt>
      <trkpt lat="49.83411" lon="2.55987">
        <ele>92.2</ele>
        <time>2022-08-03T07:36:38Z</time>
      </trkpt>
      <trkpt lat="49.83411" lon="2.55988">
        <ele>92.2</ele>
        <time>2022-08-03T07:36:39Z</time>
      </trkpt>
      <trkpt lat="49.8341" lon="2.55988">
        <ele>92.2</ele>
        <time>2022-08-03T07:36:40Z</time>
      </trkpt>
      <trkpt lat="49.8341" lon="2.55988">
        <ele>92.2</ele>
        <time>2022-08-03T07:36:41Z</time>
      </trkpt>
      <trkpt lat="49.8341" lon="2.55988">
        <ele>92.2</ele>
        <time>2022-08-03T07:36:42Z</time>
      </trkpt>
      <trkpt lat="49.83411" lon="2.55988">
        <ele>92.2</ele>
        <time>2022-08-03T07:36:43Z</time>
      </trkpt>
      <trkpt lat="49.83411" lon="2.55988">
        <ele>92.2</ele>
        <time>2022-08-03T07:36:44Z</time>
      </trkpt>
      <trkpt lat="49.83411" lon="2.55988">
        <ele>92.1</ele>
        <time>2022-08-03T07:36:45Z</time>
      </trkpt>
      <trkpt lat="49.83411" lon="2.55988">
        <ele>92.1</ele>
        <time>2022-08-03T07:36:46Z</time>
      </trkpt>
      <trkpt lat="49.83411" lon="2.55988">
        <ele>92.1</ele>
        <time>2022-08-03T07:36:47Z</time>
      </trkpt>
      <trkpt lat="49.83411" lon="2.55988">
        <ele>92.1</ele>
        <time>2022-08-03T07:36:48Z</time>
      </trkpt>
      <trkpt lat="49.83411" lon="2.55988">
        <ele>92.1</ele>
        <time>2022-08-03T07:36:50Z</time>
      </trkpt>
      <trkpt lat="49.83411" lon="2.55988">
        <ele>92.1</ele>
        <time>2022-08-03T07:36:51Z</time>
      </trkpt>
      <trkpt lat="49.83411" lon="2.55987">
        <ele>92.1</ele>
        <time>2022-08-03T07:36:52Z</time>
      </trkpt>
      <trkpt lat="49.83411" lon="2.55987">
        <ele>92.1</ele>
        <time>2022-08-03T07:36:53Z</time>
      </trkpt>
      <trkpt lat="49.8341" lon="2.55986">
        <ele>92.1</ele>
        <time>2022-08-03T07:36:55Z</time>
      </trkpt>
      <trkpt lat="49.8341" lon="2.55986">
        <ele>92.1</ele>
        <time>2022-08-03T07:36:56Z</time>
      </trkpt>
      <trkpt lat="49.8341" lon="2.55986">
        <ele>92</ele>
        <time>2022-08-03T07:36:58Z</time>
      </trkpt>
      <trkpt lat="49.83409" lon="2.55986">
        <ele>92</ele>
        <time>2022-08-03T07:36:59Z</time>
      </trkpt>
      <trkpt lat="49.83409" lon="2.55986">
        <ele>92</ele>
        <time>2022-08-03T07:37:00Z</time>
      </trkpt>
      <trkpt lat="49.83409" lon="2.55986">
        <ele>92</ele>
        <time>2022-08-03T07:37:01Z</time>
      </trkpt>
      <trkpt lat="49.83409" lon="2.55986">
        <ele>92</ele>
        <time>2022-08-03T07:37:02Z</time>
      </trkpt>
      <trkpt lat="49.83409" lon="2.55986">
        <ele>92</ele>
        <time>2022-08-03T07:37:03Z</time>
      </trkpt>
      <trkpt lat="49.83408" lon="2.55986">
        <ele>92</ele>
        <time>2022-08-03T07:37:04Z</time>
      </trkpt>
      <trkpt lat="49.83408" lon="2.55986">
        <ele>92</ele>
        <time>2022-08-03T07:37:05Z</time>
      </trkpt>
      <trkpt lat="49.83408" lon="2.55986">
        <ele>92</ele>
        <time>2022-08-03T07:37:06Z</time>
      </trkpt>
      <trkpt lat="49.83408" lon="2.55986">
        <ele>92</ele>
        <time>2022-08-03T07:37:07Z</time>
      </trkpt>
      <trkpt lat="49.83408" lon="2.55986">
        <ele>92</ele>
        <time>2022-08-03T07:37:08Z</time>
      </trkpt>
      <trkpt lat="49.83408" lon="2.55986">
        <ele>92</ele>
        <time>2022-08-03T07:37:09Z</time>
      </trkpt>
      <trkpt lat="49.83408" lon="2.55987">
        <ele>92</ele>
        <time>2022-08-03T07:37:10Z</time>
      </trkpt>
      <trkpt lat="49.83408" lon="2.55986">
        <ele>92</ele>
        <time>2022-08-03T07:37:11Z</time>
      </trkpt>
      <trkpt lat="49.83408" lon="2.55986">
        <ele>92</ele>
        <time>2022-08-03T07:37:12Z</time>
      </trkpt>
      <trkpt lat="49.83408" lon="2.55986">
        <ele>92</ele>
        <time>2022-08-03T07:37:13Z</time>
      </trkpt>
      <trkpt lat="49.83409" lon="2.55986">
        <ele>91.9</ele>
        <time>2022-08-03T07:37:14Z</time>
      </trkpt>
      <trkpt lat="49.8341" lon="2.55986">
        <ele>91.9</ele>
        <time>2022-08-03T07:37:15Z</time>
      </trkpt>
      <trkpt lat="49.8341" lon="2.55986">
        <ele>91.9</ele>
        <time>2022-08-03T07:37:16Z</time>
      </trkpt>
      <trkpt lat="49.8341" lon="2.55986">
        <ele>91.9</ele>
        <time>2022-08-03T07:37:17Z</time>
      </trkpt>
      <trkpt lat="49.8341" lon="2.55986">
        <ele>91.9</ele>
        <time>2022-08-03T07:37:18Z</time>
      </trkpt>
      <trkpt lat="49.8341" lon="2.55986">
        <ele>91.9</ele>
        <time>2022-08-03T07:37:19Z</time>
      </trkpt>
      <trkpt lat="49.8341" lon="2.55986">
        <ele>91.9</ele>
        <time>2022-08-03T07:37:20Z</time>
      </trkpt>
      <trkpt lat="49.8341" lon="2.55986">
        <ele>91.9</ele>
        <time>2022-08-03T07:37:21Z</time>
      </trkpt>
      <trkpt lat="49.8341" lon="2.55986">
        <ele>91.9</ele>
        <time>2022-08-03T07:37:22Z</time>
      </trkpt>
      <trkpt lat="49.8341" lon="2.55986">
        <ele>91.9</ele>
        <time>2022-08-03T07:37:23Z</time>
      </trkpt>
      <trkpt lat="49.8341" lon="2.55986">
        <ele>91.9</ele>
        <time>2022-08-03T07:37:24Z</time>
      </trkpt>
      <trkpt lat="49.8341" lon="2.55986">
        <ele>91.9</ele>
        <time>2022-08-03T07:37:25Z</time>
      </trkpt>
      <trkpt lat="49.8341" lon="2.55986">
        <ele>91.9</ele>
        <time>2022-08-03T07:37:26Z</time>
      </trkpt>
      <trkpt lat="49.8341" lon="2.55986">
        <ele>91.9</ele>
        <time>2022-08-03T07:37:27Z</time>
      </trkpt>
      <trkpt lat="49.8341" lon="2.55986">
        <ele>91.9</ele>
        <time>2022-08-03T07:37:28Z</time>
      </trkpt>
      <trkpt lat="49.8341" lon="2.55986">
        <ele>91.9</ele>
        <time>2022-08-03T07:37:29Z</time>
      </trkpt>
      <trkpt lat="49.8341" lon="2.55986">
        <ele>91.9</ele>
        <time>2022-08-03T07:37:30Z</time>
      </trkpt>
      <trkpt lat="49.8341" lon="2.55986">
        <ele>91.9</ele>
        <time>2022-08-03T07:37:31Z</time>
      </trkpt>
      <trkpt lat="49.8341" lon="2.55986">
        <ele>91.9</ele>
        <time>2022-08-03T07:37:32Z</time>
      </trkpt>
      <trkpt lat="49.8341" lon="2.55986">
        <ele>91.9</ele>
        <time>2022-08-03T07:37:33Z</time>
      </trkpt>
      <trkpt lat="49.8341" lon="2.55986">
        <ele>91.9</ele>
        <time>2022-08-03T07:37:34Z</time>
      </trkpt>
      <trkpt lat="49.8341" lon="2.55986">
        <ele>91.9</ele>
        <time>2022-08-03T07:37:35Z</time>
      </trkpt>
      <trkpt lat="49.8341" lon="2.55986">
        <ele>91.9</ele>
        <time>2022-08-03T07:37:36Z</time>
      </trkpt>
      <trkpt lat="49.8341" lon="2.55986">
        <ele>91.9</ele>
        <time>2022-08-03T07:37:37Z</time>
      </trkpt>
      <trkpt lat="49.8341" lon="2.55986">
        <ele>91.9</ele>
        <time>2022-08-03T07:37:38Z</time>
      </trkpt>
      <trkpt lat="49.8341" lon="2.55986">
        <ele>91.9</ele>
        <time>2022-08-03T07:37:39Z</time>
      </trkpt>
      <trkpt lat="49.8341" lon="2.55986">
        <ele>91.9</ele>
        <time>2022-08-03T07:37:40Z</time>
      </trkpt>
      <trkpt lat="49.8341" lon="2.55986">
        <ele>91.9</ele>
        <time>2022-08-03T07:37:41Z</time>
      </trkpt>
      <trkpt lat="49.8341" lon="2.55986">
        <ele>91.9</ele>
        <time>2022-08-03T07:37:42Z</time>
      </trkpt>
      <trkpt lat="49.8341" lon="2.55986">
        <ele>91.9</ele>
        <time>2022-08-03T07:37:43Z</time>
      </trkpt>
      <trkpt lat="49.8341" lon="2.55986">
        <ele>91.9</ele>
        <time>2022-08-03T07:37:44Z</time>
      </trkpt>
      <trkpt lat="49.8341" lon="2.55986">
        <ele>91.9</ele>
        <time>2022-08-03T07:37:45Z</time>
      </trkpt>
      <trkpt lat="49.8341" lon="2.55986">
        <ele>91.9</ele>
        <time>2022-08-03T07:37:46Z</time>
      </trkpt>
      <trkpt lat="49.8341" lon="2.55986">
        <ele>91.9</ele>
        <time>2022-08-03T07:37:47Z</time>
      </trkpt>
      <trkpt lat="49.8341" lon="2.55986">
        <ele>91.9</ele>
        <time>2022-08-03T07:37:48Z</time>
      </trkpt>
      <trkpt lat="49.8341" lon="2.55986">
        <ele>91.9</ele>
        <time>2022-08-03T07:37:49Z</time>
      </trkpt>
      <trkpt lat="49.8341" lon="2.55986">
        <ele>91.9</ele>
        <time>2022-08-03T07:37:50Z</time>
      </trkpt>
      <trkpt lat="49.8341" lon="2.55986">
        <ele>91.9</ele>
        <time>2022-08-03T07:37:51Z</time>
      </trkpt>
      <trkpt lat="49.8341" lon="2.55986">
        <ele>91.9</ele>
        <time>2022-08-03T07:37:52Z</time>
      </trkpt>
      <trkpt lat="49.8341" lon="2.55986">
        <ele>91.9</ele>
        <time>2022-08-03T07:37:53Z</time>
      </trkpt>
      <trkpt lat="49.8341" lon="2.55986">
        <ele>91.9</ele>
        <time>2022-08-03T07:37:54Z</time>
      </trkpt>
      <trkpt lat="49.8341" lon="2.55986">
        <ele>91.9</ele>
        <time>2022-08-03T07:37:55Z</time>
      </trkpt>
      <trkpt lat="49.8341" lon="2.55986">
        <ele>91.9</ele>
        <time>2022-08-03T07:37:56Z</time>
      </trkpt>
      <trkpt lat="49.8341" lon="2.55986">
        <ele>91.9</ele>
        <time>2022-08-03T07:37:57Z</time>
      </trkpt>
      <trkpt lat="49.8341" lon="2.55986">
        <ele>91.9</ele>
        <time>2022-08-03T07:37:58Z</time>
      </trkpt>
      <trkpt lat="49.8341" lon="2.55986">
        <ele>91.9</ele>
        <time>2022-08-03T07:37:59Z</time>
      </trkpt>
      <trkpt lat="49.8341" lon="2.55986">
        <ele>91.9</ele>
        <time>2022-08-03T07:38:00Z</time>
      </trkpt>
      <trkpt lat="49.8341" lon="2.55986">
        <ele>91.9</ele>
        <time>2022-08-03T07:38:01Z</time>
      </trkpt>
      <trkpt lat="49.8341" lon="2.55986">
        <ele>91.9</ele>
        <time>2022-08-03T07:38:02Z</time>
      </trkpt>
      <trkpt lat="49.8341" lon="2.55986">
        <ele>91.9</ele>
        <time>2022-08-03T07:38:03Z</time>
      </trkpt>
      <trkpt lat="49.8341" lon="2.55986">
        <ele>91.9</ele>
        <time>2022-08-03T07:38:04Z</time>
      </trkpt>
      <trkpt lat="49.8341" lon="2.55986">
        <ele>91.9</ele>
        <time>2022-08-03T07:38:05Z</time>
      </trkpt>
      <trkpt lat="49.8341" lon="2.55986">
        <ele>91.9</ele>
        <time>2022-08-03T07:38:06Z</time>
      </trkpt>
      <trkpt lat="49.8341" lon="2.55986">
        <ele>91.9</ele>
        <time>2022-08-03T07:38:07Z</time>
      </trkpt>
      <trkpt lat="49.8341" lon="2.55986">
        <ele>91.9</ele>
        <time>2022-08-03T07:38:08Z</time>
      </trkpt>
      <trkpt lat="49.8341" lon="2.55986">
        <ele>91.9</ele>
        <time>2022-08-03T07:38:09Z</time>
      </trkpt>
      <trkpt lat="49.8341" lon="2.55986">
        <ele>91.9</ele>
        <time>2022-08-03T07:38:10Z</time>
      </trkpt>
      <trkpt lat="49.8341" lon="2.55986">
        <ele>91.9</ele>
        <time>2022-08-03T07:38:11Z</time>
      </trkpt>
      <trkpt lat="49.8341" lon="2.55986">
        <ele>91.9</ele>
        <time>2022-08-03T07:38:12Z</time>
      </trkpt>
      <trkpt lat="49.8341" lon="2.55986">
        <ele>91.9</ele>
        <time>2022-08-03T07:38:13Z</time>
      </trkpt>
      <trkpt lat="49.8341" lon="2.55986">
        <ele>91.9</ele>
        <time>2022-08-03T07:38:14Z</time>
      </trkpt>
      <trkpt lat="49.8341" lon="2.55986">
        <ele>91.9</ele>
        <time>2022-08-03T07:38:15Z</time>
      </trkpt>
      <trkpt lat="49.8341" lon="2.55986">
        <ele>91.9</ele>
        <time>2022-08-03T07:38:16Z</time>
      </trkpt>
      <trkpt lat="49.8341" lon="2.55986">
        <ele>91.9</ele>
        <time>2022-08-03T07:38:17Z</time>
      </trkpt>
      <trkpt lat="49.8341" lon="2.55986">
        <ele>91.9</ele>
        <time>2022-08-03T07:38:18Z</time>
      </trkpt>
      <trkpt lat="49.8341" lon="2.55986">
        <ele>91.9</ele>
        <time>2022-08-03T07:38:19Z</time>
      </trkpt>
      <trkpt lat="49.8341" lon="2.55986">
        <ele>91.9</ele>
        <time>2022-08-03T07:38:20Z</time>
      </trkpt>
      <trkpt lat="49.8341" lon="2.55986">
        <ele>91.9</ele>
        <time>2022-08-03T07:38:21Z</time>
      </trkpt>
      <trkpt lat="49.8341" lon="2.55986">
        <ele>91.9</ele>
        <time>2022-08-03T07:38:22Z</time>
      </trkpt>
      <trkpt lat="49.8341" lon="2.55986">
        <ele>91.9</ele>
        <time>2022-08-03T07:38:23Z</time>
      </trkpt>
      <trkpt lat="49.8341" lon="2.55986">
        <ele>91.9</ele>
        <time>2022-08-03T07:38:24Z</time>
      </trkpt>
      <trkpt lat="49.8341" lon="2.55986">
        <ele>91.9</ele>
        <time>2022-08-03T07:38:25Z</time>
      </trkpt>
      <trkpt lat="49.8341" lon="2.55986">
        <ele>91.9</ele>
        <time>2022-08-03T07:38:26Z</time>
      </trkpt>
      <trkpt lat="49.8341" lon="2.55986">
        <ele>91.9</ele>
        <time>2022-08-03T07:38:27Z</time>
      </trkpt>
      <trkpt lat="49.8341" lon="2.55986">
        <ele>91.9</ele>
        <time>2022-08-03T07:38:28Z</time>
      </trkpt>
      <trkpt lat="49.8341" lon="2.55986">
        <ele>91.9</ele>
        <time>2022-08-03T07:38:29Z</time>
      </trkpt>
      <trkpt lat="49.8341" lon="2.55986">
        <ele>91.9</ele>
        <time>2022-08-03T07:38:30Z</time>
      </trkpt>
      <trkpt lat="49.8341" lon="2.55986">
        <ele>91.9</ele>
        <time>2022-08-03T07:38:31Z</time>
      </trkpt>
      <trkpt lat="49.8341" lon="2.55986">
        <ele>91.9</ele>
        <time>2022-08-03T07:38:32Z</time>
      </trkpt>
      <trkpt lat="49.8341" lon="2.55986">
        <ele>91.9</ele>
        <time>2022-08-03T07:38:33Z</time>
      </trkpt>
      <trkpt lat="49.8341" lon="2.55986">
        <ele>91.9</ele>
        <time>2022-08-03T07:38:34Z</time>
      </trkpt>
      <trkpt lat="49.8341" lon="2.55986">
        <ele>91.9</ele>
        <time>2022-08-03T07:38:35Z</time>
      </trkpt>
      <trkpt lat="49.8341" lon="2.55986">
        <ele>91.9</ele>
        <time>2022-08-03T07:38:36Z</time>
      </trkpt>
      <trkpt lat="49.8341" lon="2.55986">
        <ele>91.9</ele>
        <time>2022-08-03T07:38:37Z</time>
      </trkpt>
      <trkpt lat="49.83411" lon="2.55985">
        <ele>91.8</ele>
        <time>2022-08-03T07:38:38Z</time>
      </trkpt>
      <trkpt lat="49.83413" lon="2.55985">
        <ele>91.8</ele>
        <time>2022-08-03T07:38:39Z</time>
      </trkpt>
      <trkpt lat="49.83413" lon="2.55985">
        <ele>91.8</ele>
        <time>2022-08-03T07:38:40Z</time>
      </trkpt>
      <trkpt lat="49.83412" lon="2.55984">
        <ele>91.8</ele>
        <time>2022-08-03T07:38:41Z</time>
      </trkpt>
      <trkpt lat="49.83412" lon="2.55984">
        <ele>91.7</ele>
        <time>2022-08-03T07:38:42Z</time>
      </trkpt>
      <trkpt lat="49.83411" lon="2.55984">
        <ele>91.7</ele>
        <time>2022-08-03T07:38:43Z</time>
      </trkpt>
      <trkpt lat="49.8341" lon="2.55983">
        <ele>91.7</ele>
        <time>2022-08-03T07:38:44Z</time>
      </trkpt>
      <trkpt lat="49.8341" lon="2.55983">
        <ele>91.6</ele>
        <time>2022-08-03T07:38:45Z</time>
      </trkpt>
      <trkpt lat="49.83409" lon="2.55982">
        <ele>91.6</ele>
        <time>2022-08-03T07:38:46Z</time>
      </trkpt>
      <trkpt lat="49.83409" lon="2.55982">
        <ele>91.6</ele>
        <time>2022-08-03T07:38:47Z</time>
      </trkpt>
      <trkpt lat="49.8341" lon="2.55982">
        <ele>91.6</ele>
        <time>2022-08-03T07:38:48Z</time>
      </trkpt>
      <trkpt lat="49.8341" lon="2.55982">
        <ele>91.6</ele>
        <time>2022-08-03T07:38:49Z</time>
      </trkpt>
      <trkpt lat="49.8341" lon="2.55982">
        <ele>91.6</ele>
        <time>2022-08-03T07:38:50Z</time>
      </trkpt>
      <trkpt lat="49.8341" lon="2.55982">
        <ele>91.6</ele>
        <time>2022-08-03T07:38:51Z</time>
      </trkpt>
      <trkpt lat="49.8341" lon="2.55982">
        <ele>91.6</ele>
        <time>2022-08-03T07:38:52Z</time>
      </trkpt>
      <trkpt lat="49.8341" lon="2.55982">
        <ele>91.6</ele>
        <time>2022-08-03T07:38:53Z</time>
      </trkpt>
      <trkpt lat="49.8341" lon="2.55982">
        <ele>91.6</ele>
        <time>2022-08-03T07:38:54Z</time>
      </trkpt>
      <trkpt lat="49.8341" lon="2.55982">
        <ele>91.6</ele>
        <time>2022-08-03T07:38:55Z</time>
      </trkpt>
      <trkpt lat="49.8341" lon="2.55982">
        <ele>91.6</ele>
        <time>2022-08-03T07:38:56Z</time>
      </trkpt>
      <trkpt lat="49.8341" lon="2.55982">
        <ele>91.6</ele>
        <time>2022-08-03T07:38:57Z</time>
      </trkpt>
      <trkpt lat="49.8341" lon="2.55982">
        <ele>91.6</ele>
        <time>2022-08-03T07:38:58Z</time>
      </trkpt>
      <trkpt lat="49.8341" lon="2.55982">
        <ele>91.6</ele>
        <time>2022-08-03T07:38:59Z</time>
      </trkpt>
      <trkpt lat="49.8341" lon="2.55982">
        <ele>91.6</ele>
        <time>2022-08-03T07:39:00Z</time>
      </trkpt>
      <trkpt lat="49.8341" lon="2.55982">
        <ele>91.6</ele>
        <time>2022-08-03T07:39:01Z</time>
      </trkpt>
      <trkpt lat="49.8341" lon="2.55982">
        <ele>91.6</ele>
        <time>2022-08-03T07:39:02Z</time>
      </trkpt>
      <trkpt lat="49.8341" lon="2.55982">
        <ele>91.6</ele>
        <time>2022-08-03T07:39:03Z</time>
      </trkpt>
      <trkpt lat="49.8341" lon="2.55982">
        <ele>91.6</ele>
        <time>2022-08-03T07:39:04Z</time>
      </trkpt>
      <trkpt lat="49.8341" lon="2.55982">
        <ele>91.6</ele>
        <time>2022-08-03T07:39:05Z</time>
      </trkpt>
      <trkpt lat="49.8341" lon="2.55982">
        <ele>91.6</ele>
        <time>2022-08-03T07:39:06Z</time>
      </trkpt>
      <trkpt lat="49.8341" lon="2.55982">
        <ele>91.6</ele>
        <time>2022-08-03T07:39:07Z</time>
      </trkpt>
      <trkpt lat="49.8341" lon="2.55982">
        <ele>91.6</ele>
        <time>2022-08-03T07:39:08Z</time>
      </trkpt>
      <trkpt lat="49.8341" lon="2.55982">
        <ele>91.6</ele>
        <time>2022-08-03T07:39:09Z</time>
      </trkpt>
      <trkpt lat="49.8341" lon="2.55982">
        <ele>91.6</ele>
        <time>2022-08-03T07:39:10Z</time>
      </trkpt>
      <trkpt lat="49.8341" lon="2.55982">
        <ele>91.6</ele>
        <time>2022-08-03T07:39:11Z</time>
      </trkpt>
      <trkpt lat="49.8341" lon="2.55982">
        <ele>91.6</ele>
        <time>2022-08-03T07:39:12Z</time>
      </trkpt>
      <trkpt lat="49.8341" lon="2.55982">
        <ele>91.6</ele>
        <time>2022-08-03T07:39:13Z</time>
      </trkpt>
      <trkpt lat="49.8341" lon="2.55982">
        <ele>91.6</ele>
        <time>2022-08-03T07:39:14Z</time>
      </trkpt>
      <trkpt lat="49.8341" lon="2.55982">
        <ele>91.6</ele>
        <time>2022-08-03T07:39:15Z</time>
      </trkpt>
      <trkpt lat="49.8341" lon="2.55982">
        <ele>91.6</ele>
        <time>2022-08-03T07:39:16Z</time>
      </trkpt>
      <trkpt lat="49.8341" lon="2.55982">
        <ele>91.6</ele>
        <time>2022-08-03T07:39:17Z</time>
      </trkpt>
      <trkpt lat="49.8341" lon="2.55982">
        <ele>91.6</ele>
        <time>2022-08-03T07:39:18Z</time>
      </trkpt>
      <trkpt lat="49.8341" lon="2.55982">
        <ele>91.6</ele>
        <time>2022-08-03T07:39:19Z</time>
      </trkpt>
      <trkpt lat="49.8341" lon="2.55982">
        <ele>91.6</ele>
        <time>2022-08-03T07:39:20Z</time>
      </trkpt>
      <trkpt lat="49.8341" lon="2.55982">
        <ele>91.6</ele>
        <time>2022-08-03T07:39:21Z</time>
      </trkpt>
      <trkpt lat="49.8341" lon="2.55982">
        <ele>91.6</ele>
        <time>2022-08-03T07:39:22Z</time>
      </trkpt>
      <trkpt lat="49.8341" lon="2.55982">
        <ele>91.6</ele>
        <time>2022-08-03T07:39:23Z</time>
      </trkpt>
      <trkpt lat="49.8341" lon="2.55982">
        <ele>91.6</ele>
        <time>2022-08-03T07:39:24Z</time>
      </trkpt>
      <trkpt lat="49.8341" lon="2.55982">
        <ele>91.6</ele>
        <time>2022-08-03T07:39:25Z</time>
      </trkpt>
      <trkpt lat="49.83411" lon="2.55983">
        <ele>91.5</ele>
        <time>2022-08-03T07:39:26Z</time>
      </trkpt>
      <trkpt lat="49.83411" lon="2.55982">
        <ele>91.5</ele>
        <time>2022-08-03T07:39:27Z</time>
      </trkpt>
      <trkpt lat="49.83412" lon="2.55983">
        <ele>91.5</ele>
        <time>2022-08-03T07:39:28Z</time>
      </trkpt>
      <trkpt lat="49.83413" lon="2.55985">
        <ele>91.5</ele>
        <time>2022-08-03T07:39:30Z</time>
      </trkpt>
      <trkpt lat="49.83414" lon="2.55986">
        <ele>91.4</ele>
        <time>2022-08-03T07:39:31Z</time>
      </trkpt>
      <trkpt lat="49.83414" lon="2.55986">
        <ele>91.4</ele>
        <time>2022-08-03T07:39:32Z</time>
      </trkpt>
      <trkpt lat="49.83414" lon="2.55987">
        <ele>91.4</ele>
        <time>2022-08-03T07:39:34Z</time>
      </trkpt>
      <trkpt lat="49.83415" lon="2.55987">
        <ele>91.4</ele>
        <time>2022-08-03T07:39:35Z</time>
      </trkpt>
      <trkpt lat="49.83415" lon="2.55988">
        <ele>91.4</ele>
        <time>2022-08-03T07:39:36Z</time>
      </trkpt>
      <trkpt lat="49.83415" lon="2.55988">
        <ele>91.4</ele>
        <time>2022-08-03T07:39:37Z</time>
      </trkpt>
      <trkpt lat="49.83415" lon="2.55988">
        <ele>91.4</ele>
        <time>2022-08-03T07:39:39Z</time>
      </trkpt>
      <trkpt lat="49.83415" lon="2.55989">
        <ele>91.4</ele>
        <time>2022-08-03T07:39:40Z</time>
      </trkpt>
      <trkpt lat="49.83415" lon="2.55989">
        <ele>91.4</ele>
        <time>2022-08-03T07:39:41Z</time>
      </trkpt>
      <trkpt lat="49.83414" lon="2.55988">
        <ele>91.4</ele>
        <time>2022-08-03T07:39:42Z</time>
      </trkpt>
      <trkpt lat="49.83414" lon="2.55988">
        <ele>91.3</ele>
        <time>2022-08-03T07:39:43Z</time>
      </trkpt>
      <trkpt lat="49.83414" lon="2.55988">
        <ele>91.3</ele>
        <time>2022-08-03T07:39:44Z</time>
      </trkpt>
      <trkpt lat="49.83414" lon="2.55987">
        <ele>91.3</ele>
        <time>2022-08-03T07:39:45Z</time>
      </trkpt>
      <trkpt lat="49.83414" lon="2.55987">
        <ele>91.3</ele>
        <time>2022-08-03T07:39:46Z</time>
      </trkpt>
      <trkpt lat="49.83414" lon="2.55986">
        <ele>91.3</ele>
        <time>2022-08-03T07:39:47Z</time>
      </trkpt>
      <trkpt lat="49.83414" lon="2.55986">
        <ele>91.3</ele>
        <time>2022-08-03T07:39:48Z</time>
      </trkpt>
      <trkpt lat="49.83413" lon="2.55986">
        <ele>91.3</ele>
        <time>2022-08-03T07:39:49Z</time>
      </trkpt>
      <trkpt lat="49.83413" lon="2.55985">
        <ele>91.3</ele>
        <time>2022-08-03T07:39:51Z</time>
      </trkpt>
      <trkpt lat="49.83412" lon="2.55985">
        <ele>91.3</ele>
        <time>2022-08-03T07:39:52Z</time>
      </trkpt>
      <trkpt lat="49.83411" lon="2.55984">
        <ele>91.2</ele>
        <time>2022-08-03T07:39:53Z</time>
      </trkpt>
      <trkpt lat="49.8341" lon="2.55983">
        <ele>91.2</ele>
        <time>2022-08-03T07:39:54Z</time>
      </trkpt>
      <trkpt lat="49.8341" lon="2.55983">
        <ele>91.2</ele>
        <time>2022-08-03T07:39:55Z</time>
      </trkpt>
      <trkpt lat="49.83408" lon="2.55982">
        <ele>91.2</ele>
        <time>2022-08-03T07:39:56Z</time>
      </trkpt>
      <trkpt lat="49.83407" lon="2.5598">
        <ele>91.1</ele>
        <time>2022-08-03T07:39:58Z</time>
      </trkpt>
      <trkpt lat="49.83406" lon="2.55978">
        <ele>91.1</ele>
        <time>2022-08-03T07:39:59Z</time>
      </trkpt>
      <trkpt lat="49.83405" lon="2.55976">
        <ele>91</ele>
        <time>2022-08-03T07:40:00Z</time>
      </trkpt>
      <trkpt lat="49.83403" lon="2.55974">
        <ele>91</ele>
        <time>2022-08-03T07:40:01Z</time>
      </trkpt>
      <trkpt lat="49.83403" lon="2.55973">
        <ele>91</ele>
        <time>2022-08-03T07:40:02Z</time>
      </trkpt>
      <trkpt lat="49.83402" lon="2.55972">
        <ele>90.9</ele>
        <time>2022-08-03T07:40:03Z</time>
      </trkpt>
      <trkpt lat="49.83401" lon="2.55971">
        <ele>90.9</ele>
        <time>2022-08-03T07:40:04Z</time>
      </trkpt>
      <trkpt lat="49.834" lon="2.5597">
        <ele>90.9</ele>
        <time>2022-08-03T07:40:05Z</time>
      </trkpt>
      <trkpt lat="49.83399" lon="2.55968">
        <ele>90.9</ele>
        <time>2022-08-03T07:40:07Z</time>
      </trkpt>
      <trkpt lat="49.83398" lon="2.55967">
        <ele>90.8</ele>
        <time>2022-08-03T07:40:08Z</time>
      </trkpt>
      <trkpt lat="49.83398" lon="2.55966">
        <ele>90.8</ele>
        <time>2022-08-03T07:40:09Z</time>
      </trkpt>
      <trkpt lat="49.83397" lon="2.55964">
        <ele>90.8</ele>
        <time>2022-08-03T07:40:10Z</time>
      </trkpt>
      <trkpt lat="49.83396" lon="2.55961">
        <ele>90.7</ele>
        <time>2022-08-03T07:40:11Z</time>
      </trkpt>
      <trkpt lat="49.83395" lon="2.5596">
        <ele>90.7</ele>
        <time>2022-08-03T07:40:12Z</time>
      </trkpt>
      <trkpt lat="49.83394" lon="2.55959">
        <ele>90.7</ele>
        <time>2022-08-03T07:40:13Z</time>
      </trkpt>
      <trkpt lat="49.83393" lon="2.55958">
        <ele>90.7</ele>
        <time>2022-08-03T07:40:14Z</time>
      </trkpt>
      <trkpt lat="49.83392" lon="2.55956">
        <ele>90.6</ele>
        <time>2022-08-03T07:40:15Z</time>
      </trkpt>
      <trkpt lat="49.8339" lon="2.55954">
        <ele>90.6</ele>
        <time>2022-08-03T07:40:16Z</time>
      </trkpt>
      <trkpt lat="49.83389" lon="2.55953">
        <ele>90.6</ele>
        <time>2022-08-03T07:40:17Z</time>
      </trkpt>
      <trkpt lat="49.83388" lon="2.55951">
        <ele>90.5</ele>
        <time>2022-08-03T07:40:19Z</time>
      </trkpt>
      <trkpt lat="49.83387" lon="2.55949">
        <ele>90.5</ele>
        <time>2022-08-03T07:40:20Z</time>
      </trkpt>
      <trkpt lat="49.83386" lon="2.55948">
        <ele>90.5</ele>
        <time>2022-08-03T07:40:21Z</time>
      </trkpt>
      <trkpt lat="49.83385" lon="2.55946">
        <ele>90.4</ele>
        <time>2022-08-03T07:40:22Z</time>
      </trkpt>
      <trkpt lat="49.83383" lon="2.55942">
        <ele>90.4</ele>
        <time>2022-08-03T07:40:23Z</time>
      </trkpt>
      <trkpt lat="49.83382" lon="2.55941">
        <ele>90.3</ele>
        <time>2022-08-03T07:40:24Z</time>
      </trkpt>
      <trkpt lat="49.83381" lon="2.55939">
        <ele>90.3</ele>
        <time>2022-08-03T07:40:25Z</time>
      </trkpt>
      <trkpt lat="49.8338" lon="2.55937">
        <ele>90.2</ele>
        <time>2022-08-03T07:40:27Z</time>
      </trkpt>
      <trkpt lat="49.83378" lon="2.55935">
        <ele>90.2</ele>
        <time>2022-08-03T07:40:28Z</time>
      </trkpt>
      <trkpt lat="49.83378" lon="2.55934">
        <ele>90.1</ele>
        <time>2022-08-03T07:40:29Z</time>
      </trkpt>
      <trkpt lat="49.83376" lon="2.55933">
        <ele>90.1</ele>
        <time>2022-08-03T07:40:30Z</time>
      </trkpt>
      <trkpt lat="49.83376" lon="2.55932">
        <ele>90</ele>
        <time>2022-08-03T07:40:31Z</time>
      </trkpt>
      <trkpt lat="49.83375" lon="2.5593">
        <ele>90</ele>
        <time>2022-08-03T07:40:33Z</time>
      </trkpt>
      <trkpt lat="49.83373" lon="2.55928">
        <ele>90</ele>
        <time>2022-08-03T07:40:34Z</time>
      </trkpt>
      <trkpt lat="49.83373" lon="2.55927">
        <ele>89.9</ele>
        <time>2022-08-03T07:40:35Z</time>
      </trkpt>
      <trkpt lat="49.83372" lon="2.55926">
        <ele>89.9</ele>
        <time>2022-08-03T07:40:36Z</time>
      </trkpt>
      <trkpt lat="49.83371" lon="2.55924">
        <ele>89.8</ele>
        <time>2022-08-03T07:40:37Z</time>
      </trkpt>
      <trkpt lat="49.83369" lon="2.55922">
        <ele>89.8</ele>
        <time>2022-08-03T07:40:39Z</time>
      </trkpt>
      <trkpt lat="49.83369" lon="2.55921">
        <ele>89.8</ele>
        <time>2022-08-03T07:40:40Z</time>
      </trkpt>
      <trkpt lat="49.83368" lon="2.55921">
        <ele>89.7</ele>
        <time>2022-08-03T07:40:41Z</time>
      </trkpt>
      <trkpt lat="49.83366" lon="2.55918">
        <ele>89.7</ele>
        <time>2022-08-03T07:40:42Z</time>
      </trkpt>
      <trkpt lat="49.83366" lon="2.55917">
        <ele>89.6</ele>
        <time>2022-08-03T07:40:43Z</time>
      </trkpt>
      <trkpt lat="49.83365" lon="2.55916">
        <ele>89.6</ele>
        <time>2022-08-03T07:40:44Z</time>
      </trkpt>
      <trkpt lat="49.83364" lon="2.55914">
        <ele>89.6</ele>
        <time>2022-08-03T07:40:45Z</time>
      </trkpt>
      <trkpt lat="49.83364" lon="2.55913">
        <ele>89.6</ele>
        <time>2022-08-03T07:40:47Z</time>
      </trkpt>
      <trkpt lat="49.83363" lon="2.55911">
        <ele>89.5</ele>
        <time>2022-08-03T07:40:48Z</time>
      </trkpt>
      <trkpt lat="49.83362" lon="2.55909">
        <ele>89.5</ele>
        <time>2022-08-03T07:40:49Z</time>
      </trkpt>
      <trkpt lat="49.8336" lon="2.55907">
        <ele>89.5</ele>
        <time>2022-08-03T07:40:50Z</time>
      </trkpt>
      <trkpt lat="49.8336" lon="2.55906">
        <ele>89.5</ele>
        <time>2022-08-03T07:40:51Z</time>
      </trkpt>
      <trkpt lat="49.83359" lon="2.55905">
        <ele>89.4</ele>
        <time>2022-08-03T07:40:52Z</time>
      </trkpt>
      <trkpt lat="49.83357" lon="2.55902">
        <ele>89.4</ele>
        <time>2022-08-03T07:40:54Z</time>
      </trkpt>
      <trkpt lat="49.83357" lon="2.55901">
        <ele>89.4</ele>
        <time>2022-08-03T07:40:55Z</time>
      </trkpt>
      <trkpt lat="49.83356" lon="2.55901">
        <ele>89.4</ele>
        <time>2022-08-03T07:40:56Z</time>
      </trkpt>
      <trkpt lat="49.83355" lon="2.55898">
        <ele>89.3</ele>
        <time>2022-08-03T07:40:57Z</time>
      </trkpt>
      <trkpt lat="49.83355" lon="2.55897">
        <ele>89.3</ele>
        <time>2022-08-03T07:40:58Z</time>
      </trkpt>
      <trkpt lat="49.83354" lon="2.55896">
        <ele>89.3</ele>
        <time>2022-08-03T07:40:59Z</time>
      </trkpt>
      <trkpt lat="49.83353" lon="2.55894">
        <ele>89.3</ele>
        <time>2022-08-03T07:41:00Z</time>
      </trkpt>
      <trkpt lat="49.83353" lon="2.55893">
        <ele>89.2</ele>
        <time>2022-08-03T07:41:01Z</time>
      </trkpt>
      <trkpt lat="49.83352" lon="2.55891">
        <ele>89.2</ele>
        <time>2022-08-03T07:41:03Z</time>
      </trkpt>
      <trkpt lat="49.8335" lon="2.55888">
        <ele>89.2</ele>
        <time>2022-08-03T07:41:04Z</time>
      </trkpt>
      <trkpt lat="49.83349" lon="2.55887">
        <ele>89.1</ele>
        <time>2022-08-03T07:41:05Z</time>
      </trkpt>
      <trkpt lat="49.83348" lon="2.55885">
        <ele>89.1</ele>
        <time>2022-08-03T07:41:06Z</time>
      </trkpt>
      <trkpt lat="49.83347" lon="2.55884">
        <ele>89.1</ele>
        <time>2022-08-03T07:41:08Z</time>
      </trkpt>
      <trkpt lat="49.83346" lon="2.55883">
        <ele>89</ele>
        <time>2022-08-03T07:41:09Z</time>
      </trkpt>
      <trkpt lat="49.83346" lon="2.55882">
        <ele>89</ele>
        <time>2022-08-03T07:41:10Z</time>
      </trkpt>
      <trkpt lat="49.83345" lon="2.55881">
        <ele>89</ele>
        <time>2022-08-03T07:41:11Z</time>
      </trkpt>
      <trkpt lat="49.83344" lon="2.5588">
        <ele>89</ele>
        <time>2022-08-03T07:41:12Z</time>
      </trkpt>
      <trkpt lat="49.83343" lon="2.55879">
        <ele>88.9</ele>
        <time>2022-08-03T07:41:13Z</time>
      </trkpt>
      <trkpt lat="49.83343" lon="2.55878">
        <ele>88.9</ele>
        <time>2022-08-03T07:41:14Z</time>
      </trkpt>
      <trkpt lat="49.83342" lon="2.55877">
        <ele>88.9</ele>
        <time>2022-08-03T07:41:15Z</time>
      </trkpt>
      <trkpt lat="49.83341" lon="2.55875">
        <ele>88.9</ele>
        <time>2022-08-03T07:41:16Z</time>
      </trkpt>
      <trkpt lat="49.83341" lon="2.55873">
        <ele>88.8</ele>
        <time>2022-08-03T07:41:17Z</time>
      </trkpt>
      <trkpt lat="49.83339" lon="2.55871">
        <ele>88.8</ele>
        <time>2022-08-03T07:41:19Z</time>
      </trkpt>
      <trkpt lat="49.83338" lon="2.55869">
        <ele>88.7</ele>
        <time>2022-08-03T07:41:20Z</time>
      </trkpt>
      <trkpt lat="49.83337" lon="2.55868">
        <ele>88.7</ele>
        <time>2022-08-03T07:41:21Z</time>
      </trkpt>
      <trkpt lat="49.83337" lon="2.55867">
        <ele>88.7</ele>
        <time>2022-08-03T07:41:22Z</time>
      </trkpt>
      <trkpt lat="49.83336" lon="2.55866">
        <ele>88.7</ele>
        <time>2022-08-03T07:41:23Z</time>
      </trkpt>
      <trkpt lat="49.83335" lon="2.55865">
        <ele>88.7</ele>
        <time>2022-08-03T07:41:24Z</time>
      </trkpt>
      <trkpt lat="49.83334" lon="2.55864">
        <ele>88.6</ele>
        <time>2022-08-03T07:41:25Z</time>
      </trkpt>
      <trkpt lat="49.83333" lon="2.55862">
        <ele>88.6</ele>
        <time>2022-08-03T07:41:26Z</time>
      </trkpt>
      <trkpt lat="49.83333" lon="2.55861">
        <ele>88.6</ele>
        <time>2022-08-03T07:41:27Z</time>
      </trkpt>
      <trkpt lat="49.83332" lon="2.5586">
        <ele>88.6</ele>
        <time>2022-08-03T07:41:28Z</time>
      </trkpt>
      <trkpt lat="49.83331" lon="2.55858">
        <ele>88.5</ele>
        <time>2022-08-03T07:41:30Z</time>
      </trkpt>
      <trkpt lat="49.8333" lon="2.55857">
        <ele>88.5</ele>
        <time>2022-08-03T07:41:31Z</time>
      </trkpt>
      <trkpt lat="49.8333" lon="2.55856">
        <ele>88.5</ele>
        <time>2022-08-03T07:41:32Z</time>
      </trkpt>
      <trkpt lat="49.83328" lon="2.55854">
        <ele>88.4</ele>
        <time>2022-08-03T07:41:33Z</time>
      </trkpt>
      <trkpt lat="49.83327" lon="2.55853">
        <ele>88.4</ele>
        <time>2022-08-03T07:41:34Z</time>
      </trkpt>
      <trkpt lat="49.83327" lon="2.55852">
        <ele>88.4</ele>
        <time>2022-08-03T07:41:35Z</time>
      </trkpt>
      <trkpt lat="49.83326" lon="2.5585">
        <ele>88.4</ele>
        <time>2022-08-03T07:41:36Z</time>
      </trkpt>
      <trkpt lat="49.83325" lon="2.55849">
        <ele>88.3</ele>
        <time>2022-08-03T07:41:37Z</time>
      </trkpt>
      <trkpt lat="49.83324" lon="2.55848">
        <ele>88.3</ele>
        <time>2022-08-03T07:41:38Z</time>
      </trkpt>
      <trkpt lat="49.83323" lon="2.55846">
        <ele>88.3</ele>
        <time>2022-08-03T07:41:40Z</time>
      </trkpt>
      <trkpt lat="49.83323" lon="2.55845">
        <ele>88.2</ele>
        <time>2022-08-03T07:41:41Z</time>
      </trkpt>
      <trkpt lat="49.83323" lon="2.55844">
        <ele>88.2</ele>
        <time>2022-08-03T07:41:42Z</time>
      </trkpt>
      <trkpt lat="49.83322" lon="2.55843">
        <ele>88.2</ele>
        <time>2022-08-03T07:41:43Z</time>
      </trkpt>
      <trkpt lat="49.83321" lon="2.55841">
        <ele>88.1</ele>
        <time>2022-08-03T07:41:44Z</time>
      </trkpt>
      <trkpt lat="49.8332" lon="2.5584">
        <ele>88.1</ele>
        <time>2022-08-03T07:41:45Z</time>
      </trkpt>
      <trkpt lat="49.83319" lon="2.55839">
        <ele>88.1</ele>
        <time>2022-08-03T07:41:47Z</time>
      </trkpt>
      <trkpt lat="49.83318" lon="2.55838">
        <ele>88</ele>
        <time>2022-08-03T07:41:48Z</time>
      </trkpt>
      <trkpt lat="49.83317" lon="2.55836">
        <ele>88</ele>
        <time>2022-08-03T07:41:49Z</time>
      </trkpt>
      <trkpt lat="49.83316" lon="2.55835">
        <ele>88</ele>
        <time>2022-08-03T07:41:50Z</time>
      </trkpt>
      <trkpt lat="49.83316" lon="2.55834">
        <ele>87.9</ele>
        <time>2022-08-03T07:41:51Z</time>
      </trkpt>
      <trkpt lat="49.83315" lon="2.55833">
        <ele>87.9</ele>
        <time>2022-08-03T07:41:52Z</time>
      </trkpt>
      <trkpt lat="49.83314" lon="2.55832">
        <ele>87.9</ele>
        <time>2022-08-03T07:41:53Z</time>
      </trkpt>
      <trkpt lat="49.83312" lon="2.55831">
        <ele>87.8</ele>
        <time>2022-08-03T07:41:55Z</time>
      </trkpt>
      <trkpt lat="49.83312" lon="2.5583">
        <ele>87.8</ele>
        <time>2022-08-03T07:41:56Z</time>
      </trkpt>
      <trkpt lat="49.83311" lon="2.55829">
        <ele>87.8</ele>
        <time>2022-08-03T07:41:57Z</time>
      </trkpt>
      <trkpt lat="49.8331" lon="2.55828">
        <ele>87.8</ele>
        <time>2022-08-03T07:41:58Z</time>
      </trkpt>
      <trkpt lat="49.83308" lon="2.55827">
        <ele>87.7</ele>
        <time>2022-08-03T07:41:59Z</time>
      </trkpt>
      <trkpt lat="49.83308" lon="2.55826">
        <ele>87.7</ele>
        <time>2022-08-03T07:42:00Z</time>
      </trkpt>
      <trkpt lat="49.83307" lon="2.55824">
        <ele>87.7</ele>
        <time>2022-08-03T07:42:02Z</time>
      </trkpt>
      <trkpt lat="49.83306" lon="2.55823">
        <ele>87.7</ele>
        <time>2022-08-03T07:42:03Z</time>
      </trkpt>
      <trkpt lat="49.83306" lon="2.55822">
        <ele>87.6</ele>
        <time>2022-08-03T07:42:04Z</time>
      </trkpt>
      <trkpt lat="49.83305" lon="2.5582">
        <ele>87.6</ele>
        <time>2022-08-03T07:42:05Z</time>
      </trkpt>
      <trkpt lat="49.83305" lon="2.55819">
        <ele>87.6</ele>
        <time>2022-08-03T07:42:06Z</time>
      </trkpt>
      <trkpt lat="49.83304" lon="2.55817">
        <ele>87.6</ele>
        <time>2022-08-03T07:42:07Z</time>
      </trkpt>
      <trkpt lat="49.83303" lon="2.55815">
        <ele>87.5</ele>
        <time>2022-08-03T07:42:09Z</time>
      </trkpt>
      <trkpt lat="49.83303" lon="2.55813">
        <ele>87.5</ele>
        <time>2022-08-03T07:42:10Z</time>
      </trkpt>
      <trkpt lat="49.83302" lon="2.55812">
        <ele>87.5</ele>
        <time>2022-08-03T07:42:11Z</time>
      </trkpt>
      <trkpt lat="49.83302" lon="2.55811">
        <ele>87.5</ele>
        <time>2022-08-03T07:42:12Z</time>
      </trkpt>
      <trkpt lat="49.83301" lon="2.55809">
        <ele>87.4</ele>
        <time>2022-08-03T07:42:13Z</time>
      </trkpt>
      <trkpt lat="49.83301" lon="2.55807">
        <ele>87.4</ele>
        <time>2022-08-03T07:42:14Z</time>
      </trkpt>
      <trkpt lat="49.833" lon="2.55805">
        <ele>87.4</ele>
        <time>2022-08-03T07:42:16Z</time>
      </trkpt>
      <trkpt lat="49.83299" lon="2.55802">
        <ele>87.3</ele>
        <time>2022-08-03T07:42:18Z</time>
      </trkpt>
      <trkpt lat="49.83298" lon="2.558">
        <ele>87.3</ele>
        <time>2022-08-03T07:42:19Z</time>
      </trkpt>
      <trkpt lat="49.83298" lon="2.55798">
        <ele>87.3</ele>
        <time>2022-08-03T07:42:20Z</time>
      </trkpt>
      <trkpt lat="49.83298" lon="2.55796">
        <ele>87.3</ele>
        <time>2022-08-03T07:42:21Z</time>
      </trkpt>
      <trkpt lat="49.83297" lon="2.55794">
        <ele>87.2</ele>
        <time>2022-08-03T07:42:22Z</time>
      </trkpt>
      <trkpt lat="49.83297" lon="2.55792">
        <ele>87.2</ele>
        <time>2022-08-03T07:42:23Z</time>
      </trkpt>
      <trkpt lat="49.83296" lon="2.55789">
        <ele>87.2</ele>
        <time>2022-08-03T07:42:25Z</time>
      </trkpt>
      <trkpt lat="49.83296" lon="2.55787">
        <ele>87.1</ele>
        <time>2022-08-03T07:42:26Z</time>
      </trkpt>
      <trkpt lat="49.83295" lon="2.55786">
        <ele>87.1</ele>
        <time>2022-08-03T07:42:27Z</time>
      </trkpt>
      <trkpt lat="49.83295" lon="2.55785">
        <ele>87.1</ele>
        <time>2022-08-03T07:42:28Z</time>
      </trkpt>
      <trkpt lat="49.83295" lon="2.55784">
        <ele>87.1</ele>
        <time>2022-08-03T07:42:29Z</time>
      </trkpt>
      <trkpt lat="49.83294" lon="2.5578">
        <ele>87.1</ele>
        <time>2022-08-03T07:42:30Z</time>
      </trkpt>
      <trkpt lat="49.83293" lon="2.55779">
        <ele>87</ele>
        <time>2022-08-03T07:42:31Z</time>
      </trkpt>
      <trkpt lat="49.83293" lon="2.55778">
        <ele>87</ele>
        <time>2022-08-03T07:42:32Z</time>
      </trkpt>
      <trkpt lat="49.83292" lon="2.55777">
        <ele>87</ele>
        <time>2022-08-03T07:42:34Z</time>
      </trkpt>
      <trkpt lat="49.83291" lon="2.55775">
        <ele>87</ele>
        <time>2022-08-03T07:42:35Z</time>
      </trkpt>
      <trkpt lat="49.83291" lon="2.55774">
        <ele>87</ele>
        <time>2022-08-03T07:42:36Z</time>
      </trkpt>
      <trkpt lat="49.8329" lon="2.55772">
        <ele>86.9</ele>
        <time>2022-08-03T07:42:37Z</time>
      </trkpt>
      <trkpt lat="49.83289" lon="2.5577">
        <ele>86.9</ele>
        <time>2022-08-03T07:42:39Z</time>
      </trkpt>
      <trkpt lat="49.83288" lon="2.55768">
        <ele>86.9</ele>
        <time>2022-08-03T07:42:40Z</time>
      </trkpt>
      <trkpt lat="49.83287" lon="2.55767">
        <ele>86.9</ele>
        <time>2022-08-03T07:42:41Z</time>
      </trkpt>
      <trkpt lat="49.83287" lon="2.55766">
        <ele>86.8</ele>
        <time>2022-08-03T07:42:42Z</time>
      </trkpt>
      <trkpt lat="49.83286" lon="2.55765">
        <ele>86.8</ele>
        <time>2022-08-03T07:42:43Z</time>
      </trkpt>
      <trkpt lat="49.83285" lon="2.55762">
        <ele>86.8</ele>
        <time>2022-08-03T07:42:45Z</time>
      </trkpt>
      <trkpt lat="49.83284" lon="2.5576">
        <ele>86.7</ele>
        <time>2022-08-03T07:42:46Z</time>
      </trkpt>
      <trkpt lat="49.83284" lon="2.55759">
        <ele>86.7</ele>
        <time>2022-08-03T07:42:48Z</time>
      </trkpt>
      <trkpt lat="49.83283" lon="2.55757">
        <ele>86.7</ele>
        <time>2022-08-03T07:42:49Z</time>
      </trkpt>
      <trkpt lat="49.83281" lon="2.55755">
        <ele>86.7</ele>
        <time>2022-08-03T07:42:50Z</time>
      </trkpt>
      <trkpt lat="49.83281" lon="2.55754">
        <ele>86.6</ele>
        <time>2022-08-03T07:42:51Z</time>
      </trkpt>
      <trkpt lat="49.8328" lon="2.55753">
        <ele>86.6</ele>
        <time>2022-08-03T07:42:52Z</time>
      </trkpt>
      <trkpt lat="49.8328" lon="2.55752">
        <ele>86.6</ele>
        <time>2022-08-03T07:42:53Z</time>
      </trkpt>
      <trkpt lat="49.83278" lon="2.55749">
        <ele>86.6</ele>
        <time>2022-08-03T07:42:55Z</time>
      </trkpt>
      <trkpt lat="49.83277" lon="2.55747">
        <ele>86.5</ele>
        <time>2022-08-03T07:42:57Z</time>
      </trkpt>
      <trkpt lat="49.83277" lon="2.55746">
        <ele>86.5</ele>
        <time>2022-08-03T07:42:58Z</time>
      </trkpt>
      <trkpt lat="49.83277" lon="2.55745">
        <ele>86.5</ele>
        <time>2022-08-03T07:42:59Z</time>
      </trkpt>
      <trkpt lat="49.83276" lon="2.55742">
        <ele>86.5</ele>
        <time>2022-08-03T07:43:00Z</time>
      </trkpt>
      <trkpt lat="49.83275" lon="2.55741">
        <ele>86.5</ele>
        <time>2022-08-03T07:43:01Z</time>
      </trkpt>
      <trkpt lat="49.83275" lon="2.5574">
        <ele>86.5</ele>
        <time>2022-08-03T07:43:02Z</time>
      </trkpt>
      <trkpt lat="49.83275" lon="2.55739">
        <ele>86.5</ele>
        <time>2022-08-03T07:43:03Z</time>
      </trkpt>
      <trkpt lat="49.83274" lon="2.55737">
        <ele>86.4</ele>
        <time>2022-08-03T07:43:04Z</time>
      </trkpt>
      <trkpt lat="49.83273" lon="2.55735">
        <ele>86.4</ele>
        <time>2022-08-03T07:43:06Z</time>
      </trkpt>
      <trkpt lat="49.83272" lon="2.55734">
        <ele>86.4</ele>
        <time>2022-08-03T07:43:07Z</time>
      </trkpt>
      <trkpt lat="49.83272" lon="2.55733">
        <ele>86.4</ele>
        <time>2022-08-03T07:43:08Z</time>
      </trkpt>
      <trkpt lat="49.83271" lon="2.55731">
        <ele>86.4</ele>
        <time>2022-08-03T07:43:09Z</time>
      </trkpt>
      <trkpt lat="49.8327" lon="2.55728">
        <ele>86.4</ele>
        <time>2022-08-03T07:43:10Z</time>
      </trkpt>
      <trkpt lat="49.83269" lon="2.55728">
        <ele>86.4</ele>
        <time>2022-08-03T07:43:11Z</time>
      </trkpt>
      <trkpt lat="49.83269" lon="2.55727">
        <ele>86.3</ele>
        <time>2022-08-03T07:43:12Z</time>
      </trkpt>
      <trkpt lat="49.83267" lon="2.55724">
        <ele>86.3</ele>
        <time>2022-08-03T07:43:13Z</time>
      </trkpt>
      <trkpt lat="49.83266" lon="2.55723">
        <ele>86.3</ele>
        <time>2022-08-03T07:43:15Z</time>
      </trkpt>
      <trkpt lat="49.83265" lon="2.55722">
        <ele>86.3</ele>
        <time>2022-08-03T07:43:16Z</time>
      </trkpt>
      <trkpt lat="49.83265" lon="2.55721">
        <ele>86.3</ele>
        <time>2022-08-03T07:43:17Z</time>
      </trkpt>
      <trkpt lat="49.83264" lon="2.5572">
        <ele>86.3</ele>
        <time>2022-08-03T07:43:18Z</time>
      </trkpt>
      <trkpt lat="49.83263" lon="2.55719">
        <ele>86.3</ele>
        <time>2022-08-03T07:43:19Z</time>
      </trkpt>
      <trkpt lat="49.83261" lon="2.55718">
        <ele>86.3</ele>
        <time>2022-08-03T07:43:21Z</time>
      </trkpt>
      <trkpt lat="49.8326" lon="2.55717">
        <ele>86.2</ele>
        <time>2022-08-03T07:43:22Z</time>
      </trkpt>
      <trkpt lat="49.83259" lon="2.55715">
        <ele>86.2</ele>
        <time>2022-08-03T07:43:23Z</time>
      </trkpt>
      <trkpt lat="49.83258" lon="2.55714">
        <ele>86.2</ele>
        <time>2022-08-03T07:43:24Z</time>
      </trkpt>
      <trkpt lat="49.83257" lon="2.55711">
        <ele>86.2</ele>
        <time>2022-08-03T07:43:26Z</time>
      </trkpt>
      <trkpt lat="49.83256" lon="2.5571">
        <ele>86.2</ele>
        <time>2022-08-03T07:43:27Z</time>
      </trkpt>
      <trkpt lat="49.83255" lon="2.55708">
        <ele>86.2</ele>
        <time>2022-08-03T07:43:28Z</time>
      </trkpt>
      <trkpt lat="49.83255" lon="2.55706">
        <ele>86.1</ele>
        <time>2022-08-03T07:43:29Z</time>
      </trkpt>
      <trkpt lat="49.83254" lon="2.55705">
        <ele>86.1</ele>
        <time>2022-08-03T07:43:30Z</time>
      </trkpt>
      <trkpt lat="49.83254" lon="2.55703">
        <ele>86.1</ele>
        <time>2022-08-03T07:43:31Z</time>
      </trkpt>
      <trkpt lat="49.83253" lon="2.55701">
        <ele>86.1</ele>
        <time>2022-08-03T07:43:32Z</time>
      </trkpt>
      <trkpt lat="49.83252" lon="2.55698">
        <ele>86</ele>
        <time>2022-08-03T07:43:33Z</time>
      </trkpt>
      <trkpt lat="49.83251" lon="2.55696">
        <ele>86</ele>
        <time>2022-08-03T07:43:34Z</time>
      </trkpt>
      <trkpt lat="49.8325" lon="2.55695">
        <ele>86</ele>
        <time>2022-08-03T07:43:35Z</time>
      </trkpt>
      <trkpt lat="49.8325" lon="2.55693">
        <ele>86</ele>
        <time>2022-08-03T07:43:37Z</time>
      </trkpt>
      <trkpt lat="49.83249" lon="2.55692">
        <ele>85.9</ele>
        <time>2022-08-03T07:43:38Z</time>
      </trkpt>
      <trkpt lat="49.83249" lon="2.5569">
        <ele>85.9</ele>
        <time>2022-08-03T07:43:39Z</time>
      </trkpt>
      <trkpt lat="49.83248" lon="2.55689">
        <ele>85.9</ele>
        <time>2022-08-03T07:43:40Z</time>
      </trkpt>
      <trkpt lat="49.83247" lon="2.55688">
        <ele>85.9</ele>
        <time>2022-08-03T07:43:41Z</time>
      </trkpt>
      <trkpt lat="49.83247" lon="2.55687">
        <ele>85.8</ele>
        <time>2022-08-03T07:43:42Z</time>
      </trkpt>
      <trkpt lat="49.83246" lon="2.55685">
        <ele>85.8</ele>
        <time>2022-08-03T07:43:43Z</time>
      </trkpt>
      <trkpt lat="49.83246" lon="2.55684">
        <ele>85.8</ele>
        <time>2022-08-03T07:43:44Z</time>
      </trkpt>
      <trkpt lat="49.83245" lon="2.55682">
        <ele>85.7</ele>
        <time>2022-08-03T07:43:45Z</time>
      </trkpt>
      <trkpt lat="49.83245" lon="2.55681">
        <ele>85.7</ele>
        <time>2022-08-03T07:43:46Z</time>
      </trkpt>
      <trkpt lat="49.83244" lon="2.5568">
        <ele>85.7</ele>
        <time>2022-08-03T07:43:47Z</time>
      </trkpt>
      <trkpt lat="49.83243" lon="2.55678">
        <ele>85.6</ele>
        <time>2022-08-03T07:43:49Z</time>
      </trkpt>
      <trkpt lat="49.83242" lon="2.55677">
        <ele>85.6</ele>
        <time>2022-08-03T07:43:50Z</time>
      </trkpt>
      <trkpt lat="49.83241" lon="2.55675">
        <ele>85.5</ele>
        <time>2022-08-03T07:43:51Z</time>
      </trkpt>
      <trkpt lat="49.8324" lon="2.55672">
        <ele>85.4</ele>
        <time>2022-08-03T07:43:52Z</time>
      </trkpt>
      <trkpt lat="49.83239" lon="2.55671">
        <ele>85.4</ele>
        <time>2022-08-03T07:43:53Z</time>
      </trkpt>
      <trkpt lat="49.83239" lon="2.55671">
        <ele>85.4</ele>
        <time>2022-08-03T07:43:54Z</time>
      </trkpt>
      <trkpt lat="49.83238" lon="2.55668">
        <ele>85.3</ele>
        <time>2022-08-03T07:43:55Z</time>
      </trkpt>
      <trkpt lat="49.83237" lon="2.55667">
        <ele>85.3</ele>
        <time>2022-08-03T07:43:57Z</time>
      </trkpt>
      <trkpt lat="49.83236" lon="2.55666">
        <ele>85.2</ele>
        <time>2022-08-03T07:43:58Z</time>
      </trkpt>
      <trkpt lat="49.83235" lon="2.55664">
        <ele>85.2</ele>
        <time>2022-08-03T07:43:59Z</time>
      </trkpt>
      <trkpt lat="49.83233" lon="2.55663">
        <ele>85.1</ele>
        <time>2022-08-03T07:44:00Z</time>
      </trkpt>
      <trkpt lat="49.83233" lon="2.55662">
        <ele>85.1</ele>
        <time>2022-08-03T07:44:01Z</time>
      </trkpt>
      <trkpt lat="49.83231" lon="2.5566">
        <ele>85</ele>
        <time>2022-08-03T07:44:02Z</time>
      </trkpt>
      <trkpt lat="49.8323" lon="2.55659">
        <ele>85</ele>
        <time>2022-08-03T07:44:04Z</time>
      </trkpt>
      <trkpt lat="49.8323" lon="2.55658">
        <ele>85</ele>
        <time>2022-08-03T07:44:05Z</time>
      </trkpt>
      <trkpt lat="49.83228" lon="2.55656">
        <ele>84.9</ele>
        <time>2022-08-03T07:44:06Z</time>
      </trkpt>
      <trkpt lat="49.83227" lon="2.55655">
        <ele>84.9</ele>
        <time>2022-08-03T07:44:07Z</time>
      </trkpt>
      <trkpt lat="49.83227" lon="2.55655">
        <ele>84.9</ele>
        <time>2022-08-03T07:44:08Z</time>
      </trkpt>
      <trkpt lat="49.83226" lon="2.55653">
        <ele>84.8</ele>
        <time>2022-08-03T07:44:09Z</time>
      </trkpt>
      <trkpt lat="49.83225" lon="2.55652">
        <ele>84.8</ele>
        <time>2022-08-03T07:44:10Z</time>
      </trkpt>
      <trkpt lat="49.83224" lon="2.55651">
        <ele>84.8</ele>
        <time>2022-08-03T07:44:11Z</time>
      </trkpt>
      <trkpt lat="49.83223" lon="2.5565">
        <ele>84.7</ele>
        <time>2022-08-03T07:44:12Z</time>
      </trkpt>
      <trkpt lat="49.83222" lon="2.55649">
        <ele>84.7</ele>
        <time>2022-08-03T07:44:13Z</time>
      </trkpt>
      <trkpt lat="49.83221" lon="2.55648">
        <ele>84.7</ele>
        <time>2022-08-03T07:44:15Z</time>
      </trkpt>
      <trkpt lat="49.8322" lon="2.55647">
        <ele>84.6</ele>
        <time>2022-08-03T07:44:16Z</time>
      </trkpt>
      <trkpt lat="49.83219" lon="2.55646">
        <ele>84.6</ele>
        <time>2022-08-03T07:44:17Z</time>
      </trkpt>
      <trkpt lat="49.83218" lon="2.55645">
        <ele>84.5</ele>
        <time>2022-08-03T07:44:18Z</time>
      </trkpt>
      <trkpt lat="49.83217" lon="2.55644">
        <ele>84.5</ele>
        <time>2022-08-03T07:44:19Z</time>
      </trkpt>
      <trkpt lat="49.83216" lon="2.55642">
        <ele>84.5</ele>
        <time>2022-08-03T07:44:20Z</time>
      </trkpt>
      <trkpt lat="49.83215" lon="2.55641">
        <ele>84.4</ele>
        <time>2022-08-03T07:44:21Z</time>
      </trkpt>
      <trkpt lat="49.83214" lon="2.55641">
        <ele>84.4</ele>
        <time>2022-08-03T07:44:22Z</time>
      </trkpt>
      <trkpt lat="49.83212" lon="2.55639">
        <ele>84.3</ele>
        <time>2022-08-03T07:44:24Z</time>
      </trkpt>
      <trkpt lat="49.83212" lon="2.55638">
        <ele>84.3</ele>
        <time>2022-08-03T07:44:25Z</time>
      </trkpt>
      <trkpt lat="49.83211" lon="2.55637">
        <ele>84.3</ele>
        <time>2022-08-03T07:44:26Z</time>
      </trkpt>
      <trkpt lat="49.8321" lon="2.55636">
        <ele>84.2</ele>
        <time>2022-08-03T07:44:27Z</time>
      </trkpt>
      <trkpt lat="49.83209" lon="2.55635">
        <ele>84.2</ele>
        <time>2022-08-03T07:44:28Z</time>
      </trkpt>
      <trkpt lat="49.83208" lon="2.55634">
        <ele>84.2</ele>
        <time>2022-08-03T07:44:29Z</time>
      </trkpt>
      <trkpt lat="49.83207" lon="2.55632">
        <ele>84.1</ele>
        <time>2022-08-03T07:44:30Z</time>
      </trkpt>
      <trkpt lat="49.83206" lon="2.55631">
        <ele>84.1</ele>
        <time>2022-08-03T07:44:31Z</time>
      </trkpt>
      <trkpt lat="49.83205" lon="2.55629">
        <ele>84</ele>
        <time>2022-08-03T07:44:32Z</time>
      </trkpt>
      <trkpt lat="49.83204" lon="2.55628">
        <ele>84</ele>
        <time>2022-08-03T07:44:33Z</time>
      </trkpt>
      <trkpt lat="49.83203" lon="2.55627">
        <ele>83.9</ele>
        <time>2022-08-03T07:44:34Z</time>
      </trkpt>
      <trkpt lat="49.83202" lon="2.55625">
        <ele>83.9</ele>
        <time>2022-08-03T07:44:36Z</time>
      </trkpt>
      <trkpt lat="49.83202" lon="2.55624">
        <ele>83.9</ele>
        <time>2022-08-03T07:44:37Z</time>
      </trkpt>
      <trkpt lat="49.83201" lon="2.55623">
        <ele>83.8</ele>
        <time>2022-08-03T07:44:38Z</time>
      </trkpt>
      <trkpt lat="49.83199" lon="2.55621">
        <ele>83.8</ele>
        <time>2022-08-03T07:44:39Z</time>
      </trkpt>
      <trkpt lat="49.83199" lon="2.5562">
        <ele>83.7</ele>
        <time>2022-08-03T07:44:40Z</time>
      </trkpt>
      <trkpt lat="49.83198" lon="2.55619">
        <ele>83.7</ele>
        <time>2022-08-03T07:44:41Z</time>
      </trkpt>
      <trkpt lat="49.83198" lon="2.55618">
        <ele>83.7</ele>
        <time>2022-08-03T07:44:42Z</time>
      </trkpt>
      <trkpt lat="49.83197" lon="2.55617">
        <ele>83.6</ele>
        <time>2022-08-03T07:44:43Z</time>
      </trkpt>
      <trkpt lat="49.83196" lon="2.55616">
        <ele>83.6</ele>
        <time>2022-08-03T07:44:44Z</time>
      </trkpt>
      <trkpt lat="49.83194" lon="2.55615">
        <ele>83.5</ele>
        <time>2022-08-03T07:44:46Z</time>
      </trkpt>
      <trkpt lat="49.83194" lon="2.55614">
        <ele>83.5</ele>
        <time>2022-08-03T07:44:47Z</time>
      </trkpt>
      <trkpt lat="49.83193" lon="2.55614">
        <ele>83.5</ele>
        <time>2022-08-03T07:44:48Z</time>
      </trkpt>
      <trkpt lat="49.83191" lon="2.55612">
        <ele>83.4</ele>
        <time>2022-08-03T07:44:49Z</time>
      </trkpt>
      <trkpt lat="49.83191" lon="2.55611">
        <ele>83.4</ele>
        <time>2022-08-03T07:44:50Z</time>
      </trkpt>
      <trkpt lat="49.8319" lon="2.5561">
        <ele>83.3</ele>
        <time>2022-08-03T07:44:51Z</time>
      </trkpt>
      <trkpt lat="49.83189" lon="2.55609">
        <ele>83.3</ele>
        <time>2022-08-03T07:44:52Z</time>
      </trkpt>
      <trkpt lat="49.83188" lon="2.55608">
        <ele>83.3</ele>
        <time>2022-08-03T07:44:53Z</time>
      </trkpt>
      <trkpt lat="49.83187" lon="2.55607">
        <ele>83.2</ele>
        <time>2022-08-03T07:44:55Z</time>
      </trkpt>
      <trkpt lat="49.83186" lon="2.55605">
        <ele>83.2</ele>
        <time>2022-08-03T07:44:56Z</time>
      </trkpt>
      <trkpt lat="49.83185" lon="2.55604">
        <ele>83.1</ele>
        <time>2022-08-03T07:44:57Z</time>
      </trkpt>
      <trkpt lat="49.83184" lon="2.55602">
        <ele>83.1</ele>
        <time>2022-08-03T07:44:59Z</time>
      </trkpt>
      <trkpt lat="49.83183" lon="2.55601">
        <ele>83</ele>
        <time>2022-08-03T07:45:00Z</time>
      </trkpt>
      <trkpt lat="49.83182" lon="2.556">
        <ele>83</ele>
        <time>2022-08-03T07:45:01Z</time>
      </trkpt>
      <trkpt lat="49.83182" lon="2.556">
        <ele>83</ele>
        <time>2022-08-03T07:45:02Z</time>
      </trkpt>
      <trkpt lat="49.83181" lon="2.55599">
        <ele>83</ele>
        <time>2022-08-03T07:45:03Z</time>
      </trkpt>
      <trkpt lat="49.8318" lon="2.55598">
        <ele>82.9</ele>
        <time>2022-08-03T07:45:04Z</time>
      </trkpt>
      <trkpt lat="49.83179" lon="2.55596">
        <ele>82.9</ele>
        <time>2022-08-03T07:45:05Z</time>
      </trkpt>
      <trkpt lat="49.83179" lon="2.55596">
        <ele>82.9</ele>
        <time>2022-08-03T07:45:06Z</time>
      </trkpt>
      <trkpt lat="49.83178" lon="2.55594">
        <ele>82.8</ele>
        <time>2022-08-03T07:45:07Z</time>
      </trkpt>
      <trkpt lat="49.83176" lon="2.55593">
        <ele>82.7</ele>
        <time>2022-08-03T07:45:09Z</time>
      </trkpt>
      <trkpt lat="49.83176" lon="2.55592">
        <ele>82.7</ele>
        <time>2022-08-03T07:45:10Z</time>
      </trkpt>
      <trkpt lat="49.83175" lon="2.55592">
        <ele>82.7</ele>
        <time>2022-08-03T07:45:11Z</time>
      </trkpt>
      <trkpt lat="49.83174" lon="2.55591">
        <ele>82.6</ele>
        <time>2022-08-03T07:45:12Z</time>
      </trkpt>
      <trkpt lat="49.83173" lon="2.55589">
        <ele>82.6</ele>
        <time>2022-08-03T07:45:13Z</time>
      </trkpt>
      <trkpt lat="49.83172" lon="2.55589">
        <ele>82.5</ele>
        <time>2022-08-03T07:45:14Z</time>
      </trkpt>
      <trkpt lat="49.83171" lon="2.55588">
        <ele>82.5</ele>
        <time>2022-08-03T07:45:16Z</time>
      </trkpt>
      <trkpt lat="49.8317" lon="2.55587">
        <ele>82.5</ele>
        <time>2022-08-03T07:45:17Z</time>
      </trkpt>
      <trkpt lat="49.83169" lon="2.55587">
        <ele>82.4</ele>
        <time>2022-08-03T07:45:18Z</time>
      </trkpt>
      <trkpt lat="49.83168" lon="2.55586">
        <ele>82.4</ele>
        <time>2022-08-03T07:45:19Z</time>
      </trkpt>
      <trkpt lat="49.83168" lon="2.55586">
        <ele>82.3</ele>
        <time>2022-08-03T07:45:20Z</time>
      </trkpt>
      <trkpt lat="49.83167" lon="2.55585">
        <ele>82.3</ele>
        <time>2022-08-03T07:45:21Z</time>
      </trkpt>
      <trkpt lat="49.83166" lon="2.55584">
        <ele>82.3</ele>
        <time>2022-08-03T07:45:22Z</time>
      </trkpt>
      <trkpt lat="49.83164" lon="2.55582">
        <ele>82.2</ele>
        <time>2022-08-03T07:45:24Z</time>
      </trkpt>
      <trkpt lat="49.83164" lon="2.55581">
        <ele>82.1</ele>
        <time>2022-08-03T07:45:25Z</time>
      </trkpt>
      <trkpt lat="49.83163" lon="2.5558">
        <ele>82.1</ele>
        <time>2022-08-03T07:45:26Z</time>
      </trkpt>
      <trkpt lat="49.83162" lon="2.55579">
        <ele>82</ele>
        <time>2022-08-03T07:45:27Z</time>
      </trkpt>
      <trkpt lat="49.83161" lon="2.55578">
        <ele>82</ele>
        <time>2022-08-03T07:45:28Z</time>
      </trkpt>
      <trkpt lat="49.83159" lon="2.55577">
        <ele>81.9</ele>
        <time>2022-08-03T07:45:29Z</time>
      </trkpt>
      <trkpt lat="49.83159" lon="2.55576">
        <ele>81.9</ele>
        <time>2022-08-03T07:45:30Z</time>
      </trkpt>
      <trkpt lat="49.83158" lon="2.55575">
        <ele>81.9</ele>
        <time>2022-08-03T07:45:31Z</time>
      </trkpt>
      <trkpt lat="49.83157" lon="2.55574">
        <ele>81.8</ele>
        <time>2022-08-03T07:45:33Z</time>
      </trkpt>
      <trkpt lat="49.83156" lon="2.55573">
        <ele>81.8</ele>
        <time>2022-08-03T07:45:34Z</time>
      </trkpt>
      <trkpt lat="49.83155" lon="2.55572">
        <ele>81.7</ele>
        <time>2022-08-03T07:45:35Z</time>
      </trkpt>
      <trkpt lat="49.83153" lon="2.5557">
        <ele>81.6</ele>
        <time>2022-08-03T07:45:36Z</time>
      </trkpt>
      <trkpt lat="49.83152" lon="2.55569">
        <ele>81.6</ele>
        <time>2022-08-03T07:45:38Z</time>
      </trkpt>
      <trkpt lat="49.83152" lon="2.55568">
        <ele>81.5</ele>
        <time>2022-08-03T07:45:39Z</time>
      </trkpt>
      <trkpt lat="49.8315" lon="2.55566">
        <ele>81.5</ele>
        <time>2022-08-03T07:45:40Z</time>
      </trkpt>
      <trkpt lat="49.83149" lon="2.55566">
        <ele>81.4</ele>
        <time>2022-08-03T07:45:41Z</time>
      </trkpt>
      <trkpt lat="49.83148" lon="2.55565">
        <ele>81.4</ele>
        <time>2022-08-03T07:45:42Z</time>
      </trkpt>
      <trkpt lat="49.83146" lon="2.55564">
        <ele>81.3</ele>
        <time>2022-08-03T07:45:43Z</time>
      </trkpt>
      <trkpt lat="49.83145" lon="2.55563">
        <ele>81.2</ele>
        <time>2022-08-03T07:45:45Z</time>
      </trkpt>
      <trkpt lat="49.83144" lon="2.55562">
        <ele>81.2</ele>
        <time>2022-08-03T07:45:46Z</time>
      </trkpt>
      <trkpt lat="49.83143" lon="2.55562">
        <ele>81.1</ele>
        <time>2022-08-03T07:45:47Z</time>
      </trkpt>
      <trkpt lat="49.83142" lon="2.55561">
        <ele>81.1</ele>
        <time>2022-08-03T07:45:48Z</time>
      </trkpt>
      <trkpt lat="49.83141" lon="2.55559">
        <ele>81</ele>
        <time>2022-08-03T07:45:49Z</time>
      </trkpt>
      <trkpt lat="49.8314" lon="2.55558">
        <ele>80.9</ele>
        <time>2022-08-03T07:45:51Z</time>
      </trkpt>
      <trkpt lat="49.83139" lon="2.55557">
        <ele>80.9</ele>
        <time>2022-08-03T07:45:52Z</time>
      </trkpt>
      <trkpt lat="49.83137" lon="2.55556">
        <ele>80.8</ele>
        <time>2022-08-03T07:45:53Z</time>
      </trkpt>
      <trkpt lat="49.83136" lon="2.55555">
        <ele>80.8</ele>
        <time>2022-08-03T07:45:54Z</time>
      </trkpt>
      <trkpt lat="49.83135" lon="2.55553">
        <ele>80.7</ele>
        <time>2022-08-03T07:45:56Z</time>
      </trkpt>
      <trkpt lat="49.83133" lon="2.55552">
        <ele>80.6</ele>
        <time>2022-08-03T07:45:57Z</time>
      </trkpt>
      <trkpt lat="49.83131" lon="2.55551">
        <ele>80.5</ele>
        <time>2022-08-03T07:45:59Z</time>
      </trkpt>
      <trkpt lat="49.8313" lon="2.5555">
        <ele>80.4</ele>
        <time>2022-08-03T07:46:00Z</time>
      </trkpt>
      <trkpt lat="49.83129" lon="2.55549">
        <ele>80.4</ele>
        <time>2022-08-03T07:46:01Z</time>
      </trkpt>
      <trkpt lat="49.83127" lon="2.55548">
        <ele>80.3</ele>
        <time>2022-08-03T07:46:03Z</time>
      </trkpt>
      <trkpt lat="49.83126" lon="2.55547">
        <ele>80.2</ele>
        <time>2022-08-03T07:46:04Z</time>
      </trkpt>
      <trkpt lat="49.83124" lon="2.55545">
        <ele>80.1</ele>
        <time>2022-08-03T07:46:05Z</time>
      </trkpt>
      <trkpt lat="49.83123" lon="2.55544">
        <ele>80</ele>
        <time>2022-08-03T07:46:06Z</time>
      </trkpt>
      <trkpt lat="49.83122" lon="2.55543">
        <ele>80</ele>
        <time>2022-08-03T07:46:07Z</time>
      </trkpt>
      <trkpt lat="49.83121" lon="2.55542">
        <ele>79.9</ele>
        <time>2022-08-03T07:46:08Z</time>
      </trkpt>
      <trkpt lat="49.83121" lon="2.55541">
        <ele>79.8</ele>
        <time>2022-08-03T07:46:09Z</time>
      </trkpt>
      <trkpt lat="49.8312" lon="2.5554">
        <ele>79.8</ele>
        <time>2022-08-03T07:46:11Z</time>
      </trkpt>
      <trkpt lat="49.83119" lon="2.55538">
        <ele>79.7</ele>
        <time>2022-08-03T07:46:13Z</time>
      </trkpt>
      <trkpt lat="49.83118" lon="2.55537">
        <ele>79.6</ele>
        <time>2022-08-03T07:46:14Z</time>
      </trkpt>
      <trkpt lat="49.83117" lon="2.55537">
        <ele>79.6</ele>
        <time>2022-08-03T07:46:15Z</time>
      </trkpt>
      <trkpt lat="49.83116" lon="2.55536">
        <ele>79.5</ele>
        <time>2022-08-03T07:46:16Z</time>
      </trkpt>
      <trkpt lat="49.83115" lon="2.55535">
        <ele>79.4</ele>
        <time>2022-08-03T07:46:17Z</time>
      </trkpt>
      <trkpt lat="49.83114" lon="2.55534">
        <ele>79.4</ele>
        <time>2022-08-03T07:46:18Z</time>
      </trkpt>
      <trkpt lat="49.83112" lon="2.55532">
        <ele>79.2</ele>
        <time>2022-08-03T07:46:19Z</time>
      </trkpt>
      <trkpt lat="49.83111" lon="2.55531">
        <ele>79.2</ele>
        <time>2022-08-03T07:46:20Z</time>
      </trkpt>
      <trkpt lat="49.8311" lon="2.55529">
        <ele>79.1</ele>
        <time>2022-08-03T07:46:22Z</time>
      </trkpt>
      <trkpt lat="49.83109" lon="2.55528">
        <ele>79</ele>
        <time>2022-08-03T07:46:23Z</time>
      </trkpt>
      <trkpt lat="49.83108" lon="2.55527">
        <ele>78.9</ele>
        <time>2022-08-03T07:46:24Z</time>
      </trkpt>
      <trkpt lat="49.83108" lon="2.55525">
        <ele>78.9</ele>
        <time>2022-08-03T07:46:25Z</time>
      </trkpt>
      <trkpt lat="49.83106" lon="2.55523">
        <ele>78.8</ele>
        <time>2022-08-03T07:46:27Z</time>
      </trkpt>
      <trkpt lat="49.83105" lon="2.55522">
        <ele>78.7</ele>
        <time>2022-08-03T07:46:28Z</time>
      </trkpt>
      <trkpt lat="49.83104" lon="2.55521">
        <ele>78.6</ele>
        <time>2022-08-03T07:46:29Z</time>
      </trkpt>
      <trkpt lat="49.83102" lon="2.55519">
        <ele>78.6</ele>
        <time>2022-08-03T07:46:30Z</time>
      </trkpt>
      <trkpt lat="49.83101" lon="2.55518">
        <ele>78.5</ele>
        <time>2022-08-03T07:46:31Z</time>
      </trkpt>
      <trkpt lat="49.831" lon="2.55517">
        <ele>78.4</ele>
        <time>2022-08-03T07:46:32Z</time>
      </trkpt>
      <trkpt lat="49.83099" lon="2.55517">
        <ele>78.4</ele>
        <time>2022-08-03T07:46:33Z</time>
      </trkpt>
      <trkpt lat="49.83097" lon="2.55516">
        <ele>78.3</ele>
        <time>2022-08-03T07:46:35Z</time>
      </trkpt>
      <trkpt lat="49.83095" lon="2.55514">
        <ele>78.2</ele>
        <time>2022-08-03T07:46:36Z</time>
      </trkpt>
      <trkpt lat="49.83094" lon="2.55514">
        <ele>78.1</ele>
        <time>2022-08-03T07:46:37Z</time>
      </trkpt>
      <trkpt lat="49.83094" lon="2.55513">
        <ele>78.1</ele>
        <time>2022-08-03T07:46:38Z</time>
      </trkpt>
      <trkpt lat="49.83091" lon="2.55511">
        <ele>77.9</ele>
        <time>2022-08-03T07:46:40Z</time>
      </trkpt>
      <trkpt lat="49.8309" lon="2.5551">
        <ele>77.9</ele>
        <time>2022-08-03T07:46:41Z</time>
      </trkpt>
      <trkpt lat="49.83088" lon="2.55509">
        <ele>77.8</ele>
        <time>2022-08-03T07:46:42Z</time>
      </trkpt>
      <trkpt lat="49.83087" lon="2.55508">
        <ele>77.7</ele>
        <time>2022-08-03T07:46:43Z</time>
      </trkpt>
      <trkpt lat="49.83087" lon="2.55508">
        <ele>77.7</ele>
        <time>2022-08-03T07:46:44Z</time>
      </trkpt>
      <trkpt lat="49.83086" lon="2.55507">
        <ele>77.6</ele>
        <time>2022-08-03T07:46:45Z</time>
      </trkpt>
      <trkpt lat="49.83085" lon="2.55506">
        <ele>77.5</ele>
        <time>2022-08-03T07:46:46Z</time>
      </trkpt>
      <trkpt lat="49.83083" lon="2.55505">
        <ele>77.5</ele>
        <time>2022-08-03T07:46:48Z</time>
      </trkpt>
      <trkpt lat="49.83082" lon="2.55504">
        <ele>77.4</ele>
        <time>2022-08-03T07:46:49Z</time>
      </trkpt>
      <trkpt lat="49.83081" lon="2.55503">
        <ele>77.3</ele>
        <time>2022-08-03T07:46:50Z</time>
      </trkpt>
      <trkpt lat="49.83079" lon="2.55501">
        <ele>77.2</ele>
        <time>2022-08-03T07:46:52Z</time>
      </trkpt>
      <trkpt lat="49.83078" lon="2.555">
        <ele>77.1</ele>
        <time>2022-08-03T07:46:53Z</time>
      </trkpt>
      <trkpt lat="49.83077" lon="2.55499">
        <ele>77.1</ele>
        <time>2022-08-03T07:46:54Z</time>
      </trkpt>
      <trkpt lat="49.83076" lon="2.55497">
        <ele>77</ele>
        <time>2022-08-03T07:46:55Z</time>
      </trkpt>
      <trkpt lat="49.83075" lon="2.55497">
        <ele>76.9</ele>
        <time>2022-08-03T07:46:56Z</time>
      </trkpt>
      <trkpt lat="49.83075" lon="2.55495">
        <ele>76.9</ele>
        <time>2022-08-03T07:46:57Z</time>
      </trkpt>
      <trkpt lat="49.83074" lon="2.55494">
        <ele>76.8</ele>
        <time>2022-08-03T07:46:58Z</time>
      </trkpt>
      <trkpt lat="49.83071" lon="2.5549">
        <ele>76.6</ele>
        <time>2022-08-03T07:46:59Z</time>
      </trkpt>
      <trkpt lat="49.83071" lon="2.55489">
        <ele>76.6</ele>
        <time>2022-08-03T07:47:01Z</time>
      </trkpt>
      <trkpt lat="49.8307" lon="2.55488">
        <ele>76.5</ele>
        <time>2022-08-03T07:47:02Z</time>
      </trkpt>
      <trkpt lat="49.8307" lon="2.55487">
        <ele>76.5</ele>
        <time>2022-08-03T07:47:03Z</time>
      </trkpt>
      <trkpt lat="49.83069" lon="2.55485">
        <ele>76.4</ele>
        <time>2022-08-03T07:47:04Z</time>
      </trkpt>
      <trkpt lat="49.83067" lon="2.55483">
        <ele>76.3</ele>
        <time>2022-08-03T07:47:05Z</time>
      </trkpt>
      <trkpt lat="49.83066" lon="2.55481">
        <ele>76.2</ele>
        <time>2022-08-03T07:47:07Z</time>
      </trkpt>
      <trkpt lat="49.83065" lon="2.55478">
        <ele>76.1</ele>
        <time>2022-08-03T07:47:08Z</time>
      </trkpt>
      <trkpt lat="49.83064" lon="2.55477">
        <ele>76.1</ele>
        <time>2022-08-03T07:47:09Z</time>
      </trkpt>
      <trkpt lat="49.83064" lon="2.55476">
        <ele>76</ele>
        <time>2022-08-03T07:47:10Z</time>
      </trkpt>
      <trkpt lat="49.83063" lon="2.55475">
        <ele>76</ele>
        <time>2022-08-03T07:47:11Z</time>
      </trkpt>
      <trkpt lat="49.83063" lon="2.55474">
        <ele>75.9</ele>
        <time>2022-08-03T07:47:12Z</time>
      </trkpt>
      <trkpt lat="49.83062" lon="2.55473">
        <ele>75.9</ele>
        <time>2022-08-03T07:47:13Z</time>
      </trkpt>
      <trkpt lat="49.83061" lon="2.5547">
        <ele>75.8</ele>
        <time>2022-08-03T07:47:14Z</time>
      </trkpt>
      <trkpt lat="49.8306" lon="2.55469">
        <ele>75.7</ele>
        <time>2022-08-03T07:47:15Z</time>
      </trkpt>
      <trkpt lat="49.8306" lon="2.55469">
        <ele>75.7</ele>
        <time>2022-08-03T07:47:16Z</time>
      </trkpt>
      <trkpt lat="49.83058" lon="2.55466">
        <ele>75.6</ele>
        <time>2022-08-03T07:47:17Z</time>
      </trkpt>
      <trkpt lat="49.83058" lon="2.55465">
        <ele>75.6</ele>
        <time>2022-08-03T07:47:18Z</time>
      </trkpt>
      <trkpt lat="49.83057" lon="2.55464">
        <ele>75.5</ele>
        <time>2022-08-03T07:47:19Z</time>
      </trkpt>
      <trkpt lat="49.83056" lon="2.55463">
        <ele>75.5</ele>
        <time>2022-08-03T07:47:20Z</time>
      </trkpt>
      <trkpt lat="49.83056" lon="2.55462">
        <ele>75.5</ele>
        <time>2022-08-03T07:47:22Z</time>
      </trkpt>
      <trkpt lat="49.83055" lon="2.5546">
        <ele>75.4</ele>
        <time>2022-08-03T07:47:23Z</time>
      </trkpt>
      <trkpt lat="49.83054" lon="2.55459">
        <ele>75.4</ele>
        <time>2022-08-03T07:47:24Z</time>
      </trkpt>
      <trkpt lat="49.83053" lon="2.55458">
        <ele>75.3</ele>
        <time>2022-08-03T07:47:25Z</time>
      </trkpt>
      <trkpt lat="49.83053" lon="2.55458">
        <ele>75.3</ele>
        <time>2022-08-03T07:47:26Z</time>
      </trkpt>
      <trkpt lat="49.83051" lon="2.55457">
        <ele>75.2</ele>
        <time>2022-08-03T07:47:27Z</time>
      </trkpt>
      <trkpt lat="49.8305" lon="2.55456">
        <ele>75.2</ele>
        <time>2022-08-03T07:47:28Z</time>
      </trkpt>
      <trkpt lat="49.83049" lon="2.55454">
        <ele>75.1</ele>
        <time>2022-08-03T07:47:29Z</time>
      </trkpt>
      <trkpt lat="49.83048" lon="2.55454">
        <ele>75.1</ele>
        <time>2022-08-03T07:47:30Z</time>
      </trkpt>
      <trkpt lat="49.83047" lon="2.55453">
        <ele>75</ele>
        <time>2022-08-03T07:47:32Z</time>
      </trkpt>
      <trkpt lat="49.83046" lon="2.55452">
        <ele>75</ele>
        <time>2022-08-03T07:47:33Z</time>
      </trkpt>
      <trkpt lat="49.83045" lon="2.55451">
        <ele>75</ele>
        <time>2022-08-03T07:47:34Z</time>
      </trkpt>
      <trkpt lat="49.83044" lon="2.5545">
        <ele>74.9</ele>
        <time>2022-08-03T07:47:35Z</time>
      </trkpt>
      <trkpt lat="49.83042" lon="2.55448">
        <ele>74.8</ele>
        <time>2022-08-03T07:47:37Z</time>
      </trkpt>
      <trkpt lat="49.83042" lon="2.55447">
        <ele>74.8</ele>
        <time>2022-08-03T07:47:38Z</time>
      </trkpt>
      <trkpt lat="49.83041" lon="2.55446">
        <ele>74.8</ele>
        <time>2022-08-03T07:47:39Z</time>
      </trkpt>
      <trkpt lat="49.83039" lon="2.55445">
        <ele>74.7</ele>
        <time>2022-08-03T07:47:40Z</time>
      </trkpt>
      <trkpt lat="49.83038" lon="2.55444">
        <ele>74.6</ele>
        <time>2022-08-03T07:47:41Z</time>
      </trkpt>
      <trkpt lat="49.83038" lon="2.55444">
        <ele>74.6</ele>
        <time>2022-08-03T07:47:42Z</time>
      </trkpt>
      <trkpt lat="49.83037" lon="2.55443">
        <ele>74.6</ele>
        <time>2022-08-03T07:47:43Z</time>
      </trkpt>
      <trkpt lat="49.83036" lon="2.55442">
        <ele>74.5</ele>
        <time>2022-08-03T07:47:44Z</time>
      </trkpt>
      <trkpt lat="49.83035" lon="2.55441">
        <ele>74.5</ele>
        <time>2022-08-03T07:47:45Z</time>
      </trkpt>
      <trkpt lat="49.83034" lon="2.5544">
        <ele>74.4</ele>
        <time>2022-08-03T07:47:46Z</time>
      </trkpt>
      <trkpt lat="49.83033" lon="2.55438">
        <ele>74.4</ele>
        <time>2022-08-03T07:47:48Z</time>
      </trkpt>
      <trkpt lat="49.83032" lon="2.55437">
        <ele>74.3</ele>
        <time>2022-08-03T07:47:49Z</time>
      </trkpt>
      <trkpt lat="49.83031" lon="2.55436">
        <ele>74.3</ele>
        <time>2022-08-03T07:47:50Z</time>
      </trkpt>
      <trkpt lat="49.8303" lon="2.55435">
        <ele>74.2</ele>
        <time>2022-08-03T07:47:51Z</time>
      </trkpt>
      <trkpt lat="49.83028" lon="2.55433">
        <ele>74.1</ele>
        <time>2022-08-03T07:47:52Z</time>
      </trkpt>
      <trkpt lat="49.83027" lon="2.55432">
        <ele>74.1</ele>
        <time>2022-08-03T07:47:53Z</time>
      </trkpt>
      <trkpt lat="49.83026" lon="2.55431">
        <ele>74</ele>
        <time>2022-08-03T07:47:54Z</time>
      </trkpt>
      <trkpt lat="49.83026" lon="2.5543">
        <ele>74</ele>
        <time>2022-08-03T07:47:56Z</time>
      </trkpt>
      <trkpt lat="49.83025" lon="2.55429">
        <ele>73.9</ele>
        <time>2022-08-03T07:47:57Z</time>
      </trkpt>
      <trkpt lat="49.83024" lon="2.55427">
        <ele>73.9</ele>
        <time>2022-08-03T07:47:58Z</time>
      </trkpt>
      <trkpt lat="49.83024" lon="2.55426">
        <ele>73.8</ele>
        <time>2022-08-03T07:47:59Z</time>
      </trkpt>
      <trkpt lat="49.83023" lon="2.55424">
        <ele>73.8</ele>
        <time>2022-08-03T07:48:00Z</time>
      </trkpt>
      <trkpt lat="49.83021" lon="2.55422">
        <ele>73.7</ele>
        <time>2022-08-03T07:48:01Z</time>
      </trkpt>
      <trkpt lat="49.8302" lon="2.55421">
        <ele>73.6</ele>
        <time>2022-08-03T07:48:03Z</time>
      </trkpt>
      <trkpt lat="49.8302" lon="2.5542">
        <ele>73.6</ele>
        <time>2022-08-03T07:48:04Z</time>
      </trkpt>
      <trkpt lat="49.83019" lon="2.55418">
        <ele>73.5</ele>
        <time>2022-08-03T07:48:05Z</time>
      </trkpt>
      <trkpt lat="49.83018" lon="2.55418">
        <ele>73.5</ele>
        <time>2022-08-03T07:48:06Z</time>
      </trkpt>
      <trkpt lat="49.83017" lon="2.55415">
        <ele>73.4</ele>
        <time>2022-08-03T07:48:08Z</time>
      </trkpt>
      <trkpt lat="49.83016" lon="2.55414">
        <ele>73.3</ele>
        <time>2022-08-03T07:48:09Z</time>
      </trkpt>
      <trkpt lat="49.83015" lon="2.55413">
        <ele>73.3</ele>
        <time>2022-08-03T07:48:10Z</time>
      </trkpt>
      <trkpt lat="49.83014" lon="2.55412">
        <ele>73.2</ele>
        <time>2022-08-03T07:48:11Z</time>
      </trkpt>
      <trkpt lat="49.83013" lon="2.55411">
        <ele>73.2</ele>
        <time>2022-08-03T07:48:12Z</time>
      </trkpt>
      <trkpt lat="49.83012" lon="2.55409">
        <ele>73.1</ele>
        <time>2022-08-03T07:48:13Z</time>
      </trkpt>
      <trkpt lat="49.8301" lon="2.55407">
        <ele>73</ele>
        <time>2022-08-03T07:48:15Z</time>
      </trkpt>
      <trkpt lat="49.83009" lon="2.55406">
        <ele>72.9</ele>
        <time>2022-08-03T07:48:16Z</time>
      </trkpt>
      <trkpt lat="49.83008" lon="2.55404">
        <ele>72.9</ele>
        <time>2022-08-03T07:48:18Z</time>
      </trkpt>
      <trkpt lat="49.83007" lon="2.55403">
        <ele>72.8</ele>
        <time>2022-08-03T07:48:19Z</time>
      </trkpt>
      <trkpt lat="49.83006" lon="2.55402">
        <ele>72.7</ele>
        <time>2022-08-03T07:48:20Z</time>
      </trkpt>
      <trkpt lat="49.83005" lon="2.55401">
        <ele>72.7</ele>
        <time>2022-08-03T07:48:21Z</time>
      </trkpt>
      <trkpt lat="49.83004" lon="2.55399">
        <ele>72.6</ele>
        <time>2022-08-03T07:48:23Z</time>
      </trkpt>
      <trkpt lat="49.83002" lon="2.55398">
        <ele>72.6</ele>
        <time>2022-08-03T07:48:24Z</time>
      </trkpt>
      <trkpt lat="49.83" lon="2.55396">
        <ele>72.5</ele>
        <time>2022-08-03T07:48:25Z</time>
      </trkpt>
      <trkpt lat="49.82999" lon="2.55395">
        <ele>72.4</ele>
        <time>2022-08-03T07:48:27Z</time>
      </trkpt>
      <trkpt lat="49.82998" lon="2.55394">
        <ele>72.4</ele>
        <time>2022-08-03T07:48:28Z</time>
      </trkpt>
      <trkpt lat="49.82997" lon="2.55394">
        <ele>72.4</ele>
        <time>2022-08-03T07:48:29Z</time>
      </trkpt>
      <trkpt lat="49.82996" lon="2.55393">
        <ele>72.3</ele>
        <time>2022-08-03T07:48:30Z</time>
      </trkpt>
      <trkpt lat="49.82995" lon="2.55392">
        <ele>72.3</ele>
        <time>2022-08-03T07:48:31Z</time>
      </trkpt>
      <trkpt lat="49.82994" lon="2.55391">
        <ele>72.3</ele>
        <time>2022-08-03T07:48:32Z</time>
      </trkpt>
      <trkpt lat="49.82993" lon="2.5539">
        <ele>72.2</ele>
        <time>2022-08-03T07:48:33Z</time>
      </trkpt>
      <trkpt lat="49.82992" lon="2.55389">
        <ele>72.2</ele>
        <time>2022-08-03T07:48:34Z</time>
      </trkpt>
      <trkpt lat="49.82991" lon="2.55387">
        <ele>72.1</ele>
        <time>2022-08-03T07:48:36Z</time>
      </trkpt>
      <trkpt lat="49.8299" lon="2.55386">
        <ele>72.1</ele>
        <time>2022-08-03T07:48:37Z</time>
      </trkpt>
      <trkpt lat="49.82989" lon="2.55384">
        <ele>72</ele>
        <time>2022-08-03T07:48:38Z</time>
      </trkpt>
      <trkpt lat="49.82988" lon="2.55383">
        <ele>72</ele>
        <time>2022-08-03T07:48:39Z</time>
      </trkpt>
      <trkpt lat="49.82986" lon="2.55381">
        <ele>71.9</ele>
        <time>2022-08-03T07:48:40Z</time>
      </trkpt>
      <trkpt lat="49.82986" lon="2.5538">
        <ele>71.9</ele>
        <time>2022-08-03T07:48:41Z</time>
      </trkpt>
      <trkpt lat="49.82985" lon="2.55379">
        <ele>71.9</ele>
        <time>2022-08-03T07:48:42Z</time>
      </trkpt>
      <trkpt lat="49.82985" lon="2.55378">
        <ele>71.8</ele>
        <time>2022-08-03T07:48:43Z</time>
      </trkpt>
      <trkpt lat="49.82984" lon="2.55377">
        <ele>71.8</ele>
        <time>2022-08-03T07:48:45Z</time>
      </trkpt>
      <trkpt lat="49.82983" lon="2.55376">
        <ele>71.8</ele>
        <time>2022-08-03T07:48:46Z</time>
      </trkpt>
      <trkpt lat="49.82983" lon="2.55375">
        <ele>71.7</ele>
        <time>2022-08-03T07:48:48Z</time>
      </trkpt>
      <trkpt lat="49.82982" lon="2.55374">
        <ele>71.7</ele>
        <time>2022-08-03T07:48:49Z</time>
      </trkpt>
      <trkpt lat="49.82981" lon="2.55372">
        <ele>71.6</ele>
        <time>2022-08-03T07:48:50Z</time>
      </trkpt>
      <trkpt lat="49.8298" lon="2.55371">
        <ele>71.3</ele>
        <time>2022-08-03T07:48:51Z</time>
      </trkpt>
      <trkpt lat="49.82979" lon="2.5537">
        <ele>71.3</ele>
        <time>2022-08-03T07:48:53Z</time>
      </trkpt>
      <trkpt lat="49.82979" lon="2.55369">
        <ele>71.3</ele>
        <time>2022-08-03T07:48:54Z</time>
      </trkpt>
      <trkpt lat="49.82978" lon="2.55367">
        <ele>71.2</ele>
        <time>2022-08-03T07:48:56Z</time>
      </trkpt>
      <trkpt lat="49.82978" lon="2.55367">
        <ele>71.2</ele>
        <time>2022-08-03T07:48:58Z</time>
      </trkpt>
      <trkpt lat="49.82978" lon="2.55367">
        <ele>71.2</ele>
        <time>2022-08-03T07:48:59Z</time>
      </trkpt>
      <trkpt lat="49.82978" lon="2.55367">
        <ele>71.2</ele>
        <time>2022-08-03T07:49:01Z</time>
      </trkpt>
      <trkpt lat="49.82978" lon="2.55367">
        <ele>71.2</ele>
        <time>2022-08-03T07:49:02Z</time>
      </trkpt>
      <trkpt lat="49.82978" lon="2.55367">
        <ele>71.2</ele>
        <time>2022-08-03T07:49:03Z</time>
      </trkpt>
      <trkpt lat="49.82978" lon="2.55368">
        <ele>71.2</ele>
        <time>2022-08-03T07:49:04Z</time>
      </trkpt>
      <trkpt lat="49.82978" lon="2.55368">
        <ele>71.2</ele>
        <time>2022-08-03T07:49:05Z</time>
      </trkpt>
      <trkpt lat="49.82978" lon="2.55368">
        <ele>71.2</ele>
        <time>2022-08-03T07:49:06Z</time>
      </trkpt>
      <trkpt lat="49.82978" lon="2.55368">
        <ele>71.2</ele>
        <time>2022-08-03T07:49:07Z</time>
      </trkpt>
      <trkpt lat="49.82978" lon="2.55368">
        <ele>71.2</ele>
        <time>2022-08-03T07:49:08Z</time>
      </trkpt>
      <trkpt lat="49.82978" lon="2.55368">
        <ele>71.2</ele>
        <time>2022-08-03T07:49:09Z</time>
      </trkpt>
      <trkpt lat="49.82978" lon="2.55368">
        <ele>71.2</ele>
        <time>2022-08-03T07:49:10Z</time>
      </trkpt>
      <trkpt lat="49.82978" lon="2.55368">
        <ele>71.2</ele>
        <time>2022-08-03T07:49:11Z</time>
      </trkpt>
      <trkpt lat="49.82978" lon="2.55368">
        <ele>71.2</ele>
        <time>2022-08-03T07:49:12Z</time>
      </trkpt>
      <trkpt lat="49.82979" lon="2.55368">
        <ele>71.2</ele>
        <time>2022-08-03T07:49:13Z</time>
      </trkpt>
      <trkpt lat="49.82979" lon="2.55368">
        <ele>71.2</ele>
        <time>2022-08-03T07:49:14Z</time>
      </trkpt>
      <trkpt lat="49.82979" lon="2.55368">
        <ele>71.2</ele>
        <time>2022-08-03T07:49:15Z</time>
      </trkpt>
      <trkpt lat="49.82979" lon="2.55368">
        <ele>71.2</ele>
        <time>2022-08-03T07:49:16Z</time>
      </trkpt>
      <trkpt lat="49.82979" lon="2.55368">
        <ele>71.2</ele>
        <time>2022-08-03T07:49:17Z</time>
      </trkpt>
      <trkpt lat="49.82979" lon="2.55368">
        <ele>71.2</ele>
        <time>2022-08-03T07:49:18Z</time>
      </trkpt>
      <trkpt lat="49.82979" lon="2.55368">
        <ele>71.2</ele>
        <time>2022-08-03T07:49:19Z</time>
      </trkpt>
      <trkpt lat="49.82979" lon="2.55368">
        <ele>71.2</ele>
        <time>2022-08-03T07:49:20Z</time>
      </trkpt>
      <trkpt lat="49.82979" lon="2.55368">
        <ele>71.2</ele>
        <time>2022-08-03T07:49:21Z</time>
      </trkpt>
      <trkpt lat="49.82979" lon="2.55368">
        <ele>71.2</ele>
        <time>2022-08-03T07:49:22Z</time>
      </trkpt>
      <trkpt lat="49.82979" lon="2.55368">
        <ele>71.2</ele>
        <time>2022-08-03T07:49:23Z</time>
      </trkpt>
      <trkpt lat="49.82979" lon="2.55368">
        <ele>71.2</ele>
        <time>2022-08-03T07:49:24Z</time>
      </trkpt>
      <trkpt lat="49.82979" lon="2.55368">
        <ele>71.2</ele>
        <time>2022-08-03T07:49:25Z</time>
      </trkpt>
      <trkpt lat="49.82979" lon="2.55368">
        <ele>71.2</ele>
        <time>2022-08-03T07:49:26Z</time>
      </trkpt>
      <trkpt lat="49.82979" lon="2.55368">
        <ele>71.2</ele>
        <time>2022-08-03T07:49:27Z</time>
      </trkpt>
      <trkpt lat="49.82979" lon="2.55368">
        <ele>71.2</ele>
        <time>2022-08-03T07:49:28Z</time>
      </trkpt>
      <trkpt lat="49.82979" lon="2.55368">
        <ele>71.2</ele>
        <time>2022-08-03T07:49:29Z</time>
      </trkpt>
      <trkpt lat="49.82979" lon="2.55369">
        <ele>71.2</ele>
        <time>2022-08-03T07:49:30Z</time>
      </trkpt>
      <trkpt lat="49.82979" lon="2.55369">
        <ele>71.2</ele>
        <time>2022-08-03T07:49:31Z</time>
      </trkpt>
      <trkpt lat="49.82979" lon="2.55369">
        <ele>71.2</ele>
        <time>2022-08-03T07:49:32Z</time>
      </trkpt>
      <trkpt lat="49.82979" lon="2.55369">
        <ele>71.2</ele>
        <time>2022-08-03T07:49:33Z</time>
      </trkpt>
      <trkpt lat="49.82979" lon="2.55369">
        <ele>71.2</ele>
        <time>2022-08-03T07:49:34Z</time>
      </trkpt>
      <trkpt lat="49.8298" lon="2.55369">
        <ele>71.2</ele>
        <time>2022-08-03T07:49:35Z</time>
      </trkpt>
      <trkpt lat="49.8298" lon="2.55369">
        <ele>71.2</ele>
        <time>2022-08-03T07:49:36Z</time>
      </trkpt>
      <trkpt lat="49.8298" lon="2.55369">
        <ele>71.2</ele>
        <time>2022-08-03T07:49:37Z</time>
      </trkpt>
      <trkpt lat="49.8298" lon="2.55369">
        <ele>71.2</ele>
        <time>2022-08-03T07:49:38Z</time>
      </trkpt>
      <trkpt lat="49.8298" lon="2.55369">
        <ele>71.2</ele>
        <time>2022-08-03T07:49:39Z</time>
      </trkpt>
      <trkpt lat="49.8298" lon="2.55369">
        <ele>71.2</ele>
        <time>2022-08-03T07:49:40Z</time>
      </trkpt>
      <trkpt lat="49.8298" lon="2.55369">
        <ele>71.2</ele>
        <time>2022-08-03T07:49:41Z</time>
      </trkpt>
      <trkpt lat="49.8298" lon="2.55369">
        <ele>71.2</ele>
        <time>2022-08-03T07:49:42Z</time>
      </trkpt>
      <trkpt lat="49.8298" lon="2.55369">
        <ele>71.2</ele>
        <time>2022-08-03T07:49:43Z</time>
      </trkpt>
      <trkpt lat="49.8298" lon="2.55369">
        <ele>71.2</ele>
        <time>2022-08-03T07:49:44Z</time>
      </trkpt>
      <trkpt lat="49.8298" lon="2.55369">
        <ele>71.2</ele>
        <time>2022-08-03T07:49:45Z</time>
      </trkpt>
      <trkpt lat="49.8298" lon="2.55369">
        <ele>71.2</ele>
        <time>2022-08-03T07:49:46Z</time>
      </trkpt>
      <trkpt lat="49.8298" lon="2.55369">
        <ele>71.2</ele>
        <time>2022-08-03T07:49:47Z</time>
      </trkpt>
      <trkpt lat="49.8298" lon="2.55369">
        <ele>71.2</ele>
        <time>2022-08-03T07:49:48Z</time>
      </trkpt>
      <trkpt lat="49.8298" lon="2.55369">
        <ele>71.2</ele>
        <time>2022-08-03T07:49:49Z</time>
      </trkpt>
      <trkpt lat="49.8298" lon="2.55369">
        <ele>71.2</ele>
        <time>2022-08-03T07:49:50Z</time>
      </trkpt>
      <trkpt lat="49.8298" lon="2.55369">
        <ele>71.2</ele>
        <time>2022-08-03T07:49:51Z</time>
      </trkpt>
      <trkpt lat="49.8298" lon="2.55369">
        <ele>71.2</ele>
        <time>2022-08-03T07:49:52Z</time>
      </trkpt>
      <trkpt lat="49.8298" lon="2.55369">
        <ele>71.2</ele>
        <time>2022-08-03T07:49:53Z</time>
      </trkpt>
      <trkpt lat="49.8298" lon="2.55369">
        <ele>71.2</ele>
        <time>2022-08-03T07:49:54Z</time>
      </trkpt>
      <trkpt lat="49.8298" lon="2.5537">
        <ele>71.2</ele>
        <time>2022-08-03T07:49:55Z</time>
      </trkpt>
      <trkpt lat="49.8298" lon="2.5537">
        <ele>71.2</ele>
        <time>2022-08-03T07:49:56Z</time>
      </trkpt>
      <trkpt lat="49.82981" lon="2.5537">
        <ele>71.2</ele>
        <time>2022-08-03T07:49:57Z</time>
      </trkpt>
      <trkpt lat="49.82981" lon="2.5537">
        <ele>71.2</ele>
        <time>2022-08-03T07:49:58Z</time>
      </trkpt>
      <trkpt lat="49.82981" lon="2.5537">
        <ele>71.2</ele>
        <time>2022-08-03T07:49:59Z</time>
      </trkpt>
      <trkpt lat="49.82981" lon="2.5537">
        <ele>71.2</ele>
        <time>2022-08-03T07:50:00Z</time>
      </trkpt>
      <trkpt lat="49.82981" lon="2.5537">
        <ele>71.2</ele>
        <time>2022-08-03T07:50:01Z</time>
      </trkpt>
      <trkpt lat="49.82981" lon="2.5537">
        <ele>71.2</ele>
        <time>2022-08-03T07:50:02Z</time>
      </trkpt>
      <trkpt lat="49.82981" lon="2.5537">
        <ele>71.2</ele>
        <time>2022-08-03T07:50:03Z</time>
      </trkpt>
      <trkpt lat="49.82981" lon="2.5537">
        <ele>71.2</ele>
        <time>2022-08-03T07:50:04Z</time>
      </trkpt>
      <trkpt lat="49.82981" lon="2.5537">
        <ele>71.2</ele>
        <time>2022-08-03T07:50:05Z</time>
      </trkpt>
      <trkpt lat="49.82981" lon="2.5537">
        <ele>71.2</ele>
        <time>2022-08-03T07:50:06Z</time>
      </trkpt>
      <trkpt lat="49.82981" lon="2.5537">
        <ele>71.2</ele>
        <time>2022-08-03T07:50:07Z</time>
      </trkpt>
      <trkpt lat="49.82981" lon="2.5537">
        <ele>71.2</ele>
        <time>2022-08-03T07:50:08Z</time>
      </trkpt>
      <trkpt lat="49.82981" lon="2.5537">
        <ele>71.2</ele>
        <time>2022-08-03T07:50:09Z</time>
      </trkpt>
      <trkpt lat="49.82981" lon="2.5537">
        <ele>71.2</ele>
        <time>2022-08-03T07:50:10Z</time>
      </trkpt>
      <trkpt lat="49.82981" lon="2.5537">
        <ele>71.2</ele>
        <time>2022-08-03T07:50:11Z</time>
      </trkpt>
      <trkpt lat="49.82981" lon="2.5537">
        <ele>71.2</ele>
        <time>2022-08-03T07:50:12Z</time>
      </trkpt>
      <trkpt lat="49.82981" lon="2.5537">
        <ele>71.2</ele>
        <time>2022-08-03T07:50:13Z</time>
      </trkpt>
      <trkpt lat="49.82981" lon="2.5537">
        <ele>71.2</ele>
        <time>2022-08-03T07:50:14Z</time>
      </trkpt>
      <trkpt lat="49.82981" lon="2.5537">
        <ele>71.2</ele>
        <time>2022-08-03T07:50:15Z</time>
      </trkpt>
      <trkpt lat="49.82981" lon="2.5537">
        <ele>71.2</ele>
        <time>2022-08-03T07:50:16Z</time>
      </trkpt>
      <trkpt lat="49.82981" lon="2.5537">
        <ele>71.2</ele>
        <time>2022-08-03T07:50:17Z</time>
      </trkpt>
      <trkpt lat="49.82981" lon="2.5537">
        <ele>71.2</ele>
        <time>2022-08-03T07:50:18Z</time>
      </trkpt>
      <trkpt lat="49.82981" lon="2.5537">
        <ele>71.2</ele>
        <time>2022-08-03T07:50:19Z</time>
      </trkpt>
      <trkpt lat="49.82982" lon="2.55371">
        <ele>71.2</ele>
        <time>2022-08-03T07:50:20Z</time>
      </trkpt>
      <trkpt lat="49.82982" lon="2.55371">
        <ele>71.2</ele>
        <time>2022-08-03T07:50:21Z</time>
      </trkpt>
      <trkpt lat="49.82982" lon="2.55371">
        <ele>71.2</ele>
        <time>2022-08-03T07:50:22Z</time>
      </trkpt>
      <trkpt lat="49.82982" lon="2.55371">
        <ele>71.2</ele>
        <time>2022-08-03T07:50:23Z</time>
      </trkpt>
      <trkpt lat="49.82982" lon="2.55371">
        <ele>71.2</ele>
        <time>2022-08-03T07:50:24Z</time>
      </trkpt>
      <trkpt lat="49.82982" lon="2.55371">
        <ele>71.2</ele>
        <time>2022-08-03T07:50:25Z</time>
      </trkpt>
      <trkpt lat="49.82982" lon="2.55371">
        <ele>71.2</ele>
        <time>2022-08-03T07:50:26Z</time>
      </trkpt>
      <trkpt lat="49.82985" lon="2.55375">
        <ele>71.1</ele>
        <time>2022-08-03T07:50:27Z</time>
      </trkpt>
      <trkpt lat="49.82984" lon="2.55373">
        <ele>71.1</ele>
        <time>2022-08-03T07:50:28Z</time>
      </trkpt>
      <trkpt lat="49.82984" lon="2.55372">
        <ele>71.1</ele>
        <time>2022-08-03T07:50:29Z</time>
      </trkpt>
      <trkpt lat="49.82984" lon="2.55372">
        <ele>71.1</ele>
        <time>2022-08-03T07:50:30Z</time>
      </trkpt>
      <trkpt lat="49.82983" lon="2.55371">
        <ele>71.1</ele>
        <time>2022-08-03T07:50:31Z</time>
      </trkpt>
      <trkpt lat="49.82983" lon="2.5537">
        <ele>71.1</ele>
        <time>2022-08-03T07:50:32Z</time>
      </trkpt>
      <trkpt lat="49.82982" lon="2.55368">
        <ele>71.1</ele>
        <time>2022-08-03T07:50:33Z</time>
      </trkpt>
      <trkpt lat="49.8298" lon="2.55368">
        <ele>71.1</ele>
        <time>2022-08-03T07:50:35Z</time>
      </trkpt>
      <trkpt lat="49.82979" lon="2.55368">
        <ele>71.1</ele>
        <time>2022-08-03T07:50:36Z</time>
      </trkpt>
      <trkpt lat="49.82978" lon="2.55368">
        <ele>71.1</ele>
        <time>2022-08-03T07:50:37Z</time>
      </trkpt>
      <trkpt lat="49.82977" lon="2.55369">
        <ele>71.1</ele>
        <time>2022-08-03T07:50:39Z</time>
      </trkpt>
      <trkpt lat="49.82976" lon="2.55371">
        <ele>71.1</ele>
        <time>2022-08-03T07:50:40Z</time>
      </trkpt>
      <trkpt lat="49.82975" lon="2.55374">
        <ele>71.1</ele>
        <time>2022-08-03T07:50:42Z</time>
      </trkpt>
      <trkpt lat="49.82975" lon="2.55376">
        <ele>71.1</ele>
        <time>2022-08-03T07:50:43Z</time>
      </trkpt>
      <trkpt lat="49.82975" lon="2.55377">
        <ele>71.1</ele>
        <time>2022-08-03T07:50:44Z</time>
      </trkpt>
      <trkpt lat="49.82975" lon="2.55379">
        <ele>71.1</ele>
        <time>2022-08-03T07:50:45Z</time>
      </trkpt>
      <trkpt lat="49.82975" lon="2.55381">
        <ele>71.1</ele>
        <time>2022-08-03T07:50:46Z</time>
      </trkpt>
      <trkpt lat="49.82975" lon="2.55383">
        <ele>71.1</ele>
        <time>2022-08-03T07:50:48Z</time>
      </trkpt>
      <trkpt lat="49.82975" lon="2.55385">
        <ele>71.1</ele>
        <time>2022-08-03T07:50:49Z</time>
      </trkpt>
      <trkpt lat="49.82976" lon="2.55387">
        <ele>71.1</ele>
        <time>2022-08-03T07:50:50Z</time>
      </trkpt>
      <trkpt lat="49.82976" lon="2.5539">
        <ele>71.1</ele>
        <time>2022-08-03T07:50:51Z</time>
      </trkpt>
      <trkpt lat="49.82976" lon="2.55391">
        <ele>71.1</ele>
        <time>2022-08-03T07:50:52Z</time>
      </trkpt>
      <trkpt lat="49.82977" lon="2.55393">
        <ele>71.1</ele>
        <time>2022-08-03T07:50:53Z</time>
      </trkpt>
      <trkpt lat="49.82977" lon="2.55395">
        <ele>71.1</ele>
        <time>2022-08-03T07:50:55Z</time>
      </trkpt>
      <trkpt lat="49.82978" lon="2.55398">
        <ele>71.1</ele>
        <time>2022-08-03T07:50:56Z</time>
      </trkpt>
      <trkpt lat="49.82978" lon="2.55399">
        <ele>71.1</ele>
        <time>2022-08-03T07:50:57Z</time>
      </trkpt>
      <trkpt lat="49.82979" lon="2.55402">
        <ele>71.1</ele>
        <time>2022-08-03T07:50:58Z</time>
      </trkpt>
      <trkpt lat="49.82979" lon="2.55403">
        <ele>71.2</ele>
        <time>2022-08-03T07:50:59Z</time>
      </trkpt>
      <trkpt lat="49.8298" lon="2.55404">
        <ele>71.2</ele>
        <time>2022-08-03T07:51:00Z</time>
      </trkpt>
      <trkpt lat="49.82981" lon="2.55407">
        <ele>71.2</ele>
        <time>2022-08-03T07:51:01Z</time>
      </trkpt>
      <trkpt lat="49.82981" lon="2.55408">
        <ele>71.2</ele>
        <time>2022-08-03T07:51:03Z</time>
      </trkpt>
      <trkpt lat="49.82981" lon="2.55409">
        <ele>71.2</ele>
        <time>2022-08-03T07:51:04Z</time>
      </trkpt>
      <trkpt lat="49.82982" lon="2.55411">
        <ele>71.2</ele>
        <time>2022-08-03T07:51:05Z</time>
      </trkpt>
      <trkpt lat="49.82983" lon="2.55414">
        <ele>71.2</ele>
        <time>2022-08-03T07:51:06Z</time>
      </trkpt>
      <trkpt lat="49.82983" lon="2.55415">
        <ele>71.2</ele>
        <time>2022-08-03T07:51:07Z</time>
      </trkpt>
      <trkpt lat="49.82983" lon="2.55417">
        <ele>71.2</ele>
        <time>2022-08-03T07:51:08Z</time>
      </trkpt>
      <trkpt lat="49.82984" lon="2.55418">
        <ele>71.2</ele>
        <time>2022-08-03T07:51:09Z</time>
      </trkpt>
      <trkpt lat="49.82984" lon="2.5542">
        <ele>71.2</ele>
        <time>2022-08-03T07:51:10Z</time>
      </trkpt>
      <trkpt lat="49.82985" lon="2.55422">
        <ele>71.2</ele>
        <time>2022-08-03T07:51:11Z</time>
      </trkpt>
      <trkpt lat="49.82985" lon="2.55424">
        <ele>71.2</ele>
        <time>2022-08-03T07:51:13Z</time>
      </trkpt>
      <trkpt lat="49.82985" lon="2.55426">
        <ele>71.2</ele>
        <time>2022-08-03T07:51:14Z</time>
      </trkpt>
      <trkpt lat="49.82985" lon="2.55428">
        <ele>71.2</ele>
        <time>2022-08-03T07:51:15Z</time>
      </trkpt>
      <trkpt lat="49.82986" lon="2.55429">
        <ele>71.2</ele>
        <time>2022-08-03T07:51:16Z</time>
      </trkpt>
      <trkpt lat="49.82986" lon="2.55431">
        <ele>71.2</ele>
        <time>2022-08-03T07:51:18Z</time>
      </trkpt>
      <trkpt lat="49.82986" lon="2.55433">
        <ele>71.2</ele>
        <time>2022-08-03T07:51:19Z</time>
      </trkpt>
      <trkpt lat="49.82986" lon="2.55434">
        <ele>71.2</ele>
        <time>2022-08-03T07:51:20Z</time>
      </trkpt>
      <trkpt lat="49.82987" lon="2.55438">
        <ele>71.2</ele>
        <time>2022-08-03T07:51:21Z</time>
      </trkpt>
      <trkpt lat="49.82987" lon="2.55439">
        <ele>71.2</ele>
        <time>2022-08-03T07:51:22Z</time>
      </trkpt>
      <trkpt lat="49.82987" lon="2.5544">
        <ele>71.2</ele>
        <time>2022-08-03T07:51:23Z</time>
      </trkpt>
      <trkpt lat="49.82987" lon="2.55443">
        <ele>71.2</ele>
        <time>2022-08-03T07:51:24Z</time>
      </trkpt>
      <trkpt lat="49.82987" lon="2.55445">
        <ele>71.2</ele>
        <time>2022-08-03T07:51:25Z</time>
      </trkpt>
      <trkpt lat="49.82987" lon="2.55446">
        <ele>71.2</ele>
        <time>2022-08-03T07:51:26Z</time>
      </trkpt>
      <trkpt lat="49.82988" lon="2.55448">
        <ele>71.2</ele>
        <time>2022-08-03T07:51:28Z</time>
      </trkpt>
      <trkpt lat="49.82988" lon="2.5545">
        <ele>71.2</ele>
        <time>2022-08-03T07:51:29Z</time>
      </trkpt>
      <trkpt lat="49.82988" lon="2.55451">
        <ele>71.2</ele>
        <time>2022-08-03T07:51:30Z</time>
      </trkpt>
      <trkpt lat="49.82988" lon="2.55455">
        <ele>71.2</ele>
        <time>2022-08-03T07:51:31Z</time>
      </trkpt>
      <trkpt lat="49.82989" lon="2.55456">
        <ele>71.2</ele>
        <time>2022-08-03T07:51:32Z</time>
      </trkpt>
      <trkpt lat="49.82989" lon="2.55457">
        <ele>71.2</ele>
        <time>2022-08-03T07:51:33Z</time>
      </trkpt>
      <trkpt lat="49.82989" lon="2.55459">
        <ele>71.2</ele>
        <time>2022-08-03T07:51:35Z</time>
      </trkpt>
      <trkpt lat="49.82989" lon="2.55462">
        <ele>71.3</ele>
        <time>2022-08-03T07:51:36Z</time>
      </trkpt>
      <trkpt lat="49.82989" lon="2.55464">
        <ele>71.3</ele>
        <time>2022-08-03T07:51:37Z</time>
      </trkpt>
      <trkpt lat="49.82989" lon="2.55466">
        <ele>71.3</ele>
        <time>2022-08-03T07:51:38Z</time>
      </trkpt>
      <trkpt lat="49.82989" lon="2.55469">
        <ele>71.3</ele>
        <time>2022-08-03T07:51:40Z</time>
      </trkpt>
      <trkpt lat="49.82989" lon="2.55471">
        <ele>71.3</ele>
        <time>2022-08-03T07:51:41Z</time>
      </trkpt>
      <trkpt lat="49.8299" lon="2.55473">
        <ele>71.3</ele>
        <time>2022-08-03T07:51:42Z</time>
      </trkpt>
      <trkpt lat="49.8299" lon="2.55474">
        <ele>71.3</ele>
        <time>2022-08-03T07:51:43Z</time>
      </trkpt>
      <trkpt lat="49.8299" lon="2.55476">
        <ele>71.3</ele>
        <time>2022-08-03T07:51:44Z</time>
      </trkpt>
      <trkpt lat="49.8299" lon="2.55477">
        <ele>71.3</ele>
        <time>2022-08-03T07:51:45Z</time>
      </trkpt>
      <trkpt lat="49.8299" lon="2.5548">
        <ele>71.3</ele>
        <time>2022-08-03T07:51:46Z</time>
      </trkpt>
      <trkpt lat="49.8299" lon="2.55482">
        <ele>71.3</ele>
        <time>2022-08-03T07:51:47Z</time>
      </trkpt>
      <trkpt lat="49.8299" lon="2.55484">
        <ele>71.3</ele>
        <time>2022-08-03T07:51:48Z</time>
      </trkpt>
      <trkpt lat="49.8299" lon="2.55486">
        <ele>71.4</ele>
        <time>2022-08-03T07:51:50Z</time>
      </trkpt>
      <trkpt lat="49.8299" lon="2.55488">
        <ele>71.4</ele>
        <time>2022-08-03T07:51:51Z</time>
      </trkpt>
      <trkpt lat="49.82991" lon="2.55492">
        <ele>71.4</ele>
        <time>2022-08-03T07:51:52Z</time>
      </trkpt>
      <trkpt lat="49.82991" lon="2.55493">
        <ele>71.4</ele>
        <time>2022-08-03T07:51:53Z</time>
      </trkpt>
      <trkpt lat="49.82991" lon="2.55496">
        <ele>71.4</ele>
        <time>2022-08-03T07:51:55Z</time>
      </trkpt>
      <trkpt lat="49.82991" lon="2.55498">
        <ele>71.4</ele>
        <time>2022-08-03T07:51:56Z</time>
      </trkpt>
      <trkpt lat="49.82991" lon="2.555">
        <ele>71.5</ele>
        <time>2022-08-03T07:51:57Z</time>
      </trkpt>
      <trkpt lat="49.82991" lon="2.55501">
        <ele>71.5</ele>
        <time>2022-08-03T07:51:58Z</time>
      </trkpt>
      <trkpt lat="49.82991" lon="2.55502">
        <ele>71.5</ele>
        <time>2022-08-03T07:51:59Z</time>
      </trkpt>
      <trkpt lat="49.82991" lon="2.55504">
        <ele>71.5</ele>
        <time>2022-08-03T07:52:00Z</time>
      </trkpt>
      <trkpt lat="49.82991" lon="2.55508">
        <ele>71.5</ele>
        <time>2022-08-03T07:52:02Z</time>
      </trkpt>
      <trkpt lat="49.82991" lon="2.55509">
        <ele>71.6</ele>
        <time>2022-08-03T07:52:03Z</time>
      </trkpt>
      <trkpt lat="49.82991" lon="2.55511">
        <ele>71.6</ele>
        <time>2022-08-03T07:52:04Z</time>
      </trkpt>
      <trkpt lat="49.82992" lon="2.55513">
        <ele>71.6</ele>
        <time>2022-08-03T07:52:05Z</time>
      </trkpt>
      <trkpt lat="49.82992" lon="2.55515">
        <ele>71.6</ele>
        <time>2022-08-03T07:52:06Z</time>
      </trkpt>
      <trkpt lat="49.82992" lon="2.55518">
        <ele>71.6</ele>
        <time>2022-08-03T07:52:07Z</time>
      </trkpt>
      <trkpt lat="49.82992" lon="2.55519">
        <ele>71.6</ele>
        <time>2022-08-03T07:52:08Z</time>
      </trkpt>
      <trkpt lat="49.82993" lon="2.55521">
        <ele>71.7</ele>
        <time>2022-08-03T07:52:10Z</time>
      </trkpt>
      <trkpt lat="49.82993" lon="2.55522">
        <ele>71.7</ele>
        <time>2022-08-03T07:52:11Z</time>
      </trkpt>
      <trkpt lat="49.82994" lon="2.55527">
        <ele>71.7</ele>
        <time>2022-08-03T07:52:12Z</time>
      </trkpt>
      <trkpt lat="49.82994" lon="2.55529">
        <ele>71.7</ele>
        <time>2022-08-03T07:52:14Z</time>
      </trkpt>
      <trkpt lat="49.82994" lon="2.5553">
        <ele>71.8</ele>
        <time>2022-08-03T07:52:15Z</time>
      </trkpt>
      <trkpt lat="49.82995" lon="2.55532">
        <ele>71.8</ele>
        <time>2022-08-03T07:52:16Z</time>
      </trkpt>
      <trkpt lat="49.82995" lon="2.55534">
        <ele>71.8</ele>
        <time>2022-08-03T07:52:17Z</time>
      </trkpt>
      <trkpt lat="49.82995" lon="2.55537">
        <ele>71.8</ele>
        <time>2022-08-03T07:52:18Z</time>
      </trkpt>
      <trkpt lat="49.82996" lon="2.55538">
        <ele>71.9</ele>
        <time>2022-08-03T07:52:19Z</time>
      </trkpt>
      <trkpt lat="49.82996" lon="2.55539">
        <ele>71.9</ele>
        <time>2022-08-03T07:52:20Z</time>
      </trkpt>
      <trkpt lat="49.82996" lon="2.55542">
        <ele>71.9</ele>
        <time>2022-08-03T07:52:21Z</time>
      </trkpt>
      <trkpt lat="49.82996" lon="2.55543">
        <ele>71.9</ele>
        <time>2022-08-03T07:52:22Z</time>
      </trkpt>
      <trkpt lat="49.82997" lon="2.55544">
        <ele>71.9</ele>
        <time>2022-08-03T07:52:23Z</time>
      </trkpt>
      <trkpt lat="49.82997" lon="2.55548">
        <ele>72</ele>
        <time>2022-08-03T07:52:24Z</time>
      </trkpt>
      <trkpt lat="49.82998" lon="2.55549">
        <ele>72</ele>
        <time>2022-08-03T07:52:26Z</time>
      </trkpt>
      <trkpt lat="49.82998" lon="2.55551">
        <ele>72</ele>
        <time>2022-08-03T07:52:27Z</time>
      </trkpt>
      <trkpt lat="49.82998" lon="2.55553">
        <ele>72</ele>
        <time>2022-08-03T07:52:28Z</time>
      </trkpt>
      <trkpt lat="49.82998" lon="2.55555">
        <ele>72</ele>
        <time>2022-08-03T07:52:29Z</time>
      </trkpt>
      <trkpt lat="49.82999" lon="2.55556">
        <ele>72</ele>
        <time>2022-08-03T07:52:30Z</time>
      </trkpt>
      <trkpt lat="49.82999" lon="2.55559">
        <ele>72.1</ele>
        <time>2022-08-03T07:52:32Z</time>
      </trkpt>
      <trkpt lat="49.82999" lon="2.5556">
        <ele>72.1</ele>
        <time>2022-08-03T07:52:33Z</time>
      </trkpt>
      <trkpt lat="49.83" lon="2.55561">
        <ele>72.1</ele>
        <time>2022-08-03T07:52:34Z</time>
      </trkpt>
      <trkpt lat="49.83" lon="2.55564">
        <ele>72.1</ele>
        <time>2022-08-03T07:52:35Z</time>
      </trkpt>
      <trkpt lat="49.83001" lon="2.55565">
        <ele>72.1</ele>
        <time>2022-08-03T07:52:36Z</time>
      </trkpt>
      <trkpt lat="49.83001" lon="2.55567">
        <ele>72.1</ele>
        <time>2022-08-03T07:52:37Z</time>
      </trkpt>
      <trkpt lat="49.83001" lon="2.55568">
        <ele>72.1</ele>
        <time>2022-08-03T07:52:38Z</time>
      </trkpt>
      <trkpt lat="49.83002" lon="2.5557">
        <ele>72.1</ele>
        <time>2022-08-03T07:52:39Z</time>
      </trkpt>
      <trkpt lat="49.83002" lon="2.55572">
        <ele>72.1</ele>
        <time>2022-08-03T07:52:40Z</time>
      </trkpt>
      <trkpt lat="49.83003" lon="2.55574">
        <ele>72.1</ele>
        <time>2022-08-03T07:52:42Z</time>
      </trkpt>
      <trkpt lat="49.83003" lon="2.55575">
        <ele>72.2</ele>
        <time>2022-08-03T07:52:43Z</time>
      </trkpt>
      <trkpt lat="49.83004" lon="2.55576">
        <ele>72.2</ele>
        <time>2022-08-03T07:52:44Z</time>
      </trkpt>
      <trkpt lat="49.83004" lon="2.55578">
        <ele>72.2</ele>
        <time>2022-08-03T07:52:45Z</time>
      </trkpt>
      <trkpt lat="49.83004" lon="2.55579">
        <ele>72.2</ele>
        <time>2022-08-03T07:52:46Z</time>
      </trkpt>
      <trkpt lat="49.83005" lon="2.55581">
        <ele>72.2</ele>
        <time>2022-08-03T07:52:47Z</time>
      </trkpt>
      <trkpt lat="49.83005" lon="2.55583">
        <ele>72.2</ele>
        <time>2022-08-03T07:52:49Z</time>
      </trkpt>
      <trkpt lat="49.83005" lon="2.55585">
        <ele>72.2</ele>
        <time>2022-08-03T07:52:50Z</time>
      </trkpt>
      <trkpt lat="49.83006" lon="2.55587">
        <ele>72.2</ele>
        <time>2022-08-03T07:52:51Z</time>
      </trkpt>
      <trkpt lat="49.83006" lon="2.55589">
        <ele>72.2</ele>
        <time>2022-08-03T07:52:52Z</time>
      </trkpt>
      <trkpt lat="49.83006" lon="2.5559">
        <ele>72.2</ele>
        <time>2022-08-03T07:52:53Z</time>
      </trkpt>
      <trkpt lat="49.83006" lon="2.55592">
        <ele>72.2</ele>
        <time>2022-08-03T07:52:54Z</time>
      </trkpt>
      <trkpt lat="49.83007" lon="2.55593">
        <ele>72.2</ele>
        <time>2022-08-03T07:52:55Z</time>
      </trkpt>
      <trkpt lat="49.83007" lon="2.55596">
        <ele>72.2</ele>
        <time>2022-08-03T07:52:56Z</time>
      </trkpt>
      <trkpt lat="49.83007" lon="2.55598">
        <ele>72.2</ele>
        <time>2022-08-03T07:52:58Z</time>
      </trkpt>
      <trkpt lat="49.83008" lon="2.556">
        <ele>72.2</ele>
        <time>2022-08-03T07:52:59Z</time>
      </trkpt>
      <trkpt lat="49.83008" lon="2.55601">
        <ele>72.2</ele>
        <time>2022-08-03T07:53:00Z</time>
      </trkpt>
      <trkpt lat="49.83008" lon="2.55603">
        <ele>72.2</ele>
        <time>2022-08-03T07:53:01Z</time>
      </trkpt>
      <trkpt lat="49.83008" lon="2.55605">
        <ele>72.2</ele>
        <time>2022-08-03T07:53:02Z</time>
      </trkpt>
      <trkpt lat="49.83009" lon="2.5561">
        <ele>72.2</ele>
        <time>2022-08-03T07:53:04Z</time>
      </trkpt>
      <trkpt lat="49.83009" lon="2.55611">
        <ele>72.2</ele>
        <time>2022-08-03T07:53:05Z</time>
      </trkpt>
      <trkpt lat="49.83009" lon="2.55613">
        <ele>72.2</ele>
        <time>2022-08-03T07:53:06Z</time>
      </trkpt>
      <trkpt lat="49.8301" lon="2.55615">
        <ele>72.2</ele>
        <time>2022-08-03T07:53:08Z</time>
      </trkpt>
      <trkpt lat="49.8301" lon="2.55616">
        <ele>72.2</ele>
        <time>2022-08-03T07:53:09Z</time>
      </trkpt>
      <trkpt lat="49.8301" lon="2.55618">
        <ele>72.2</ele>
        <time>2022-08-03T07:53:10Z</time>
      </trkpt>
      <trkpt lat="49.8301" lon="2.5562">
        <ele>72.2</ele>
        <time>2022-08-03T07:53:11Z</time>
      </trkpt>
      <trkpt lat="49.83011" lon="2.55623">
        <ele>72.2</ele>
        <time>2022-08-03T07:53:12Z</time>
      </trkpt>
      <trkpt lat="49.83011" lon="2.55625">
        <ele>72.2</ele>
        <time>2022-08-03T07:53:14Z</time>
      </trkpt>
      <trkpt lat="49.83012" lon="2.55627">
        <ele>72.2</ele>
        <time>2022-08-03T07:53:15Z</time>
      </trkpt>
      <trkpt lat="49.83012" lon="2.5563">
        <ele>72.1</ele>
        <time>2022-08-03T07:53:16Z</time>
      </trkpt>
      <trkpt lat="49.83012" lon="2.55631">
        <ele>72.1</ele>
        <time>2022-08-03T07:53:17Z</time>
      </trkpt>
      <trkpt lat="49.83013" lon="2.55633">
        <ele>72.1</ele>
        <time>2022-08-03T07:53:18Z</time>
      </trkpt>
      <trkpt lat="49.83013" lon="2.55635">
        <ele>72.1</ele>
        <time>2022-08-03T07:53:20Z</time>
      </trkpt>
      <trkpt lat="49.83014" lon="2.55637">
        <ele>72.1</ele>
        <time>2022-08-03T07:53:21Z</time>
      </trkpt>
      <trkpt lat="49.83014" lon="2.55639">
        <ele>72.1</ele>
        <time>2022-08-03T07:53:22Z</time>
      </trkpt>
      <trkpt lat="49.83014" lon="2.55641">
        <ele>72.1</ele>
        <time>2022-08-03T07:53:23Z</time>
      </trkpt>
      <trkpt lat="49.83015" lon="2.55642">
        <ele>72</ele>
        <time>2022-08-03T07:53:24Z</time>
      </trkpt>
      <trkpt lat="49.83015" lon="2.55644">
        <ele>72</ele>
        <time>2022-08-03T07:53:26Z</time>
      </trkpt>
      <trkpt lat="49.83015" lon="2.55646">
        <ele>72</ele>
        <time>2022-08-03T07:53:27Z</time>
      </trkpt>
      <trkpt lat="49.83016" lon="2.55649">
        <ele>72</ele>
        <time>2022-08-03T07:53:29Z</time>
      </trkpt>
      <trkpt lat="49.83016" lon="2.55651">
        <ele>72</ele>
        <time>2022-08-03T07:53:30Z</time>
      </trkpt>
      <trkpt lat="49.83017" lon="2.55652">
        <ele>71.9</ele>
        <time>2022-08-03T07:53:31Z</time>
      </trkpt>
      <trkpt lat="49.83017" lon="2.55655">
        <ele>71.9</ele>
        <time>2022-08-03T07:53:32Z</time>
      </trkpt>
      <trkpt lat="49.83018" lon="2.55657">
        <ele>71.9</ele>
        <time>2022-08-03T07:53:33Z</time>
      </trkpt>
      <trkpt lat="49.83018" lon="2.55658">
        <ele>71.8</ele>
        <time>2022-08-03T07:53:34Z</time>
      </trkpt>
      <trkpt lat="49.83018" lon="2.5566">
        <ele>71.8</ele>
        <time>2022-08-03T07:53:35Z</time>
      </trkpt>
      <trkpt lat="49.83019" lon="2.55661">
        <ele>71.8</ele>
        <time>2022-08-03T07:53:36Z</time>
      </trkpt>
      <trkpt lat="49.83019" lon="2.55663">
        <ele>71.8</ele>
        <time>2022-08-03T07:53:37Z</time>
      </trkpt>
      <trkpt lat="49.8302" lon="2.55665">
        <ele>71.7</ele>
        <time>2022-08-03T07:53:39Z</time>
      </trkpt>
      <trkpt lat="49.8302" lon="2.55669">
        <ele>71.7</ele>
        <time>2022-08-03T07:53:40Z</time>
      </trkpt>
      <trkpt lat="49.8302" lon="2.5567">
        <ele>71.7</ele>
        <time>2022-08-03T07:53:41Z</time>
      </trkpt>
      <trkpt lat="49.8302" lon="2.55672">
        <ele>71.6</ele>
        <time>2022-08-03T07:53:42Z</time>
      </trkpt>
      <trkpt lat="49.8302" lon="2.55673">
        <ele>71.6</ele>
        <time>2022-08-03T07:53:43Z</time>
      </trkpt>
      <trkpt lat="49.8302" lon="2.55675">
        <ele>71.6</ele>
        <time>2022-08-03T07:53:44Z</time>
      </trkpt>
      <trkpt lat="49.83021" lon="2.55677">
        <ele>71.6</ele>
        <time>2022-08-03T07:53:45Z</time>
      </trkpt>
      <trkpt lat="49.83021" lon="2.55679">
        <ele>71.5</ele>
        <time>2022-08-03T07:53:46Z</time>
      </trkpt>
      <trkpt lat="49.83021" lon="2.5568">
        <ele>71.5</ele>
        <time>2022-08-03T07:53:47Z</time>
      </trkpt>
      <trkpt lat="49.83021" lon="2.55682">
        <ele>71.5</ele>
        <time>2022-08-03T07:53:48Z</time>
      </trkpt>
      <trkpt lat="49.83022" lon="2.55685">
        <ele>71.5</ele>
        <time>2022-08-03T07:53:49Z</time>
      </trkpt>
      <trkpt lat="49.83022" lon="2.55686">
        <ele>71.5</ele>
        <time>2022-08-03T07:53:51Z</time>
      </trkpt>
      <trkpt lat="49.83023" lon="2.55687">
        <ele>71.5</ele>
        <time>2022-08-03T07:53:52Z</time>
      </trkpt>
      <trkpt lat="49.83023" lon="2.5569">
        <ele>71.4</ele>
        <time>2022-08-03T07:53:53Z</time>
      </trkpt>
      <trkpt lat="49.83023" lon="2.55691">
        <ele>71.4</ele>
        <time>2022-08-03T07:53:55Z</time>
      </trkpt>
      <trkpt lat="49.83024" lon="2.55693">
        <ele>71.4</ele>
        <time>2022-08-03T07:53:56Z</time>
      </trkpt>
      <trkpt lat="49.83024" lon="2.55696">
        <ele>71.4</ele>
        <time>2022-08-03T07:53:57Z</time>
      </trkpt>
      <trkpt lat="49.83025" lon="2.557">
        <ele>71.4</ele>
        <time>2022-08-03T07:53:58Z</time>
      </trkpt>
      <trkpt lat="49.83026" lon="2.55702">
        <ele>71.3</ele>
        <time>2022-08-03T07:54:01Z</time>
      </trkpt>
      <trkpt lat="49.83026" lon="2.55704">
        <ele>71.3</ele>
        <time>2022-08-03T07:54:03Z</time>
      </trkpt>
      <trkpt lat="49.83027" lon="2.55707">
        <ele>71.3</ele>
        <time>2022-08-03T07:54:04Z</time>
      </trkpt>
      <trkpt lat="49.83027" lon="2.5571">
        <ele>71.3</ele>
        <time>2022-08-03T07:54:05Z</time>
      </trkpt>
      <trkpt lat="49.83027" lon="2.55712">
        <ele>71.3</ele>
        <time>2022-08-03T07:54:06Z</time>
      </trkpt>
      <trkpt lat="49.83028" lon="2.55713">
        <ele>71.3</ele>
        <time>2022-08-03T07:54:07Z</time>
      </trkpt>
      <trkpt lat="49.83028" lon="2.55714">
        <ele>71.2</ele>
        <time>2022-08-03T07:54:08Z</time>
      </trkpt>
      <trkpt lat="49.83028" lon="2.55716">
        <ele>71.2</ele>
        <time>2022-08-03T07:54:09Z</time>
      </trkpt>
      <trkpt lat="49.83028" lon="2.55717">
        <ele>71.2</ele>
        <time>2022-08-03T07:54:11Z</time>
      </trkpt>
      <trkpt lat="49.83029" lon="2.55719">
        <ele>71.2</ele>
        <time>2022-08-03T07:54:12Z</time>
      </trkpt>
      <trkpt lat="49.83029" lon="2.55722">
        <ele>71.2</ele>
        <time>2022-08-03T07:54:13Z</time>
      </trkpt>
      <trkpt lat="49.8303" lon="2.55725">
        <ele>71.1</ele>
        <time>2022-08-03T07:54:15Z</time>
      </trkpt>
      <trkpt lat="49.83031" lon="2.55726">
        <ele>71.1</ele>
        <time>2022-08-03T07:54:16Z</time>
      </trkpt>
      <trkpt lat="49.83031" lon="2.55728">
        <ele>71.1</ele>
        <time>2022-08-03T07:54:17Z</time>
      </trkpt>
      <trkpt lat="49.83031" lon="2.55729">
        <ele>71.1</ele>
        <time>2022-08-03T07:54:18Z</time>
      </trkpt>
      <trkpt lat="49.83032" lon="2.5573">
        <ele>71.1</ele>
        <time>2022-08-03T07:54:19Z</time>
      </trkpt>
      <trkpt lat="49.83033" lon="2.55732">
        <ele>71</ele>
        <time>2022-08-03T07:54:20Z</time>
      </trkpt>
      <trkpt lat="49.83033" lon="2.55734">
        <ele>71</ele>
        <time>2022-08-03T07:54:21Z</time>
      </trkpt>
      <trkpt lat="49.83034" lon="2.55736">
        <ele>71</ele>
        <time>2022-08-03T07:54:22Z</time>
      </trkpt>
      <trkpt lat="49.83035" lon="2.55738">
        <ele>70.9</ele>
        <time>2022-08-03T07:54:23Z</time>
      </trkpt>
      <trkpt lat="49.83035" lon="2.55739">
        <ele>70.9</ele>
        <time>2022-08-03T07:54:24Z</time>
      </trkpt>
      <trkpt lat="49.83035" lon="2.55741">
        <ele>70.9</ele>
        <time>2022-08-03T07:54:25Z</time>
      </trkpt>
      <trkpt lat="49.83036" lon="2.55742">
        <ele>70.9</ele>
        <time>2022-08-03T07:54:26Z</time>
      </trkpt>
      <trkpt lat="49.83036" lon="2.55744">
        <ele>70.9</ele>
        <time>2022-08-03T07:54:28Z</time>
      </trkpt>
      <trkpt lat="49.83036" lon="2.55746">
        <ele>70.9</ele>
        <time>2022-08-03T07:54:29Z</time>
      </trkpt>
      <trkpt lat="49.83037" lon="2.55747">
        <ele>70.9</ele>
        <time>2022-08-03T07:54:30Z</time>
      </trkpt>
      <trkpt lat="49.83037" lon="2.55749">
        <ele>70.9</ele>
        <time>2022-08-03T07:54:31Z</time>
      </trkpt>
      <trkpt lat="49.83037" lon="2.55751">
        <ele>70.8</ele>
        <time>2022-08-03T07:54:32Z</time>
      </trkpt>
      <trkpt lat="49.83038" lon="2.55753">
        <ele>70.8</ele>
        <time>2022-08-03T07:54:33Z</time>
      </trkpt>
      <trkpt lat="49.83038" lon="2.55754">
        <ele>70.8</ele>
        <time>2022-08-03T07:54:34Z</time>
      </trkpt>
      <trkpt lat="49.83038" lon="2.55756">
        <ele>70.8</ele>
        <time>2022-08-03T07:54:35Z</time>
      </trkpt>
      <trkpt lat="49.83039" lon="2.55757">
        <ele>70.7</ele>
        <time>2022-08-03T07:54:36Z</time>
      </trkpt>
      <trkpt lat="49.83039" lon="2.55759">
        <ele>70.7</ele>
        <time>2022-08-03T07:54:38Z</time>
      </trkpt>
      <trkpt lat="49.8304" lon="2.5576">
        <ele>70.7</ele>
        <time>2022-08-03T07:54:39Z</time>
      </trkpt>
      <trkpt lat="49.8304" lon="2.55762">
        <ele>70.7</ele>
        <time>2022-08-03T07:54:40Z</time>
      </trkpt>
      <trkpt lat="49.8304" lon="2.55763">
        <ele>70.6</ele>
        <time>2022-08-03T07:54:41Z</time>
      </trkpt>
      <trkpt lat="49.83041" lon="2.55765">
        <ele>70.6</ele>
        <time>2022-08-03T07:54:42Z</time>
      </trkpt>
      <trkpt lat="49.83041" lon="2.55768">
        <ele>70.5</ele>
        <time>2022-08-03T07:54:43Z</time>
      </trkpt>
      <trkpt lat="49.83042" lon="2.55769">
        <ele>70.5</ele>
        <time>2022-08-03T07:54:44Z</time>
      </trkpt>
      <trkpt lat="49.83042" lon="2.5577">
        <ele>70.5</ele>
        <time>2022-08-03T07:54:45Z</time>
      </trkpt>
      <trkpt lat="49.83042" lon="2.55774">
        <ele>70.4</ele>
        <time>2022-08-03T07:54:46Z</time>
      </trkpt>
      <trkpt lat="49.83043" lon="2.55776">
        <ele>70.4</ele>
        <time>2022-08-03T07:54:48Z</time>
      </trkpt>
      <trkpt lat="49.83043" lon="2.55777">
        <ele>70.4</ele>
        <time>2022-08-03T07:54:49Z</time>
      </trkpt>
      <trkpt lat="49.83043" lon="2.55779">
        <ele>70.3</ele>
        <time>2022-08-03T07:54:50Z</time>
      </trkpt>
      <trkpt lat="49.83043" lon="2.55781">
        <ele>70.3</ele>
        <time>2022-08-03T07:54:51Z</time>
      </trkpt>
      <trkpt lat="49.83044" lon="2.55784">
        <ele>70.2</ele>
        <time>2022-08-03T07:54:53Z</time>
      </trkpt>
      <trkpt lat="49.83044" lon="2.55785">
        <ele>70.2</ele>
        <time>2022-08-03T07:54:54Z</time>
      </trkpt>
      <trkpt lat="49.83045" lon="2.55787">
        <ele>70.2</ele>
        <time>2022-08-03T07:54:55Z</time>
      </trkpt>
      <trkpt lat="49.83045" lon="2.55788">
        <ele>70.2</ele>
        <time>2022-08-03T07:54:56Z</time>
      </trkpt>
      <trkpt lat="49.83045" lon="2.5579">
        <ele>70.2</ele>
        <time>2022-08-03T07:54:57Z</time>
      </trkpt>
      <trkpt lat="49.83045" lon="2.55792">
        <ele>70.1</ele>
        <time>2022-08-03T07:54:58Z</time>
      </trkpt>
      <trkpt lat="49.83046" lon="2.55794">
        <ele>70.1</ele>
        <time>2022-08-03T07:54:59Z</time>
      </trkpt>
      <trkpt lat="49.83046" lon="2.55796">
        <ele>70.1</ele>
        <time>2022-08-03T07:55:00Z</time>
      </trkpt>
      <trkpt lat="49.83047" lon="2.55798">
        <ele>70</ele>
        <time>2022-08-03T07:55:01Z</time>
      </trkpt>
      <trkpt lat="49.83047" lon="2.558">
        <ele>70</ele>
        <time>2022-08-03T07:55:02Z</time>
      </trkpt>
      <trkpt lat="49.83047" lon="2.55802">
        <ele>70</ele>
        <time>2022-08-03T07:55:03Z</time>
      </trkpt>
      <trkpt lat="49.83048" lon="2.55806">
        <ele>69.9</ele>
        <time>2022-08-03T07:55:05Z</time>
      </trkpt>
      <trkpt lat="49.83048" lon="2.55808">
        <ele>69.9</ele>
        <time>2022-08-03T07:55:07Z</time>
      </trkpt>
      <trkpt lat="49.83048" lon="2.55809">
        <ele>69.8</ele>
        <time>2022-08-03T07:55:08Z</time>
      </trkpt>
      <trkpt lat="49.83049" lon="2.55812">
        <ele>69.8</ele>
        <time>2022-08-03T07:55:09Z</time>
      </trkpt>
      <trkpt lat="49.83049" lon="2.55813">
        <ele>69.8</ele>
        <time>2022-08-03T07:55:10Z</time>
      </trkpt>
      <trkpt lat="49.8305" lon="2.55815">
        <ele>69.7</ele>
        <time>2022-08-03T07:55:11Z</time>
      </trkpt>
      <trkpt lat="49.8305" lon="2.55816">
        <ele>69.7</ele>
        <time>2022-08-03T07:55:12Z</time>
      </trkpt>
      <trkpt lat="49.8305" lon="2.55817">
        <ele>69.7</ele>
        <time>2022-08-03T07:55:13Z</time>
      </trkpt>
      <trkpt lat="49.83051" lon="2.55818">
        <ele>69.7</ele>
        <time>2022-08-03T07:55:14Z</time>
      </trkpt>
      <trkpt lat="49.83051" lon="2.5582">
        <ele>69.6</ele>
        <time>2022-08-03T07:55:16Z</time>
      </trkpt>
      <trkpt lat="49.83052" lon="2.55823">
        <ele>69.6</ele>
        <time>2022-08-03T07:55:17Z</time>
      </trkpt>
      <trkpt lat="49.83052" lon="2.55824">
        <ele>69.5</ele>
        <time>2022-08-03T07:55:18Z</time>
      </trkpt>
      <trkpt lat="49.83053" lon="2.55825">
        <ele>69.5</ele>
        <time>2022-08-03T07:55:19Z</time>
      </trkpt>
      <trkpt lat="49.83054" lon="2.55829">
        <ele>69.4</ele>
        <time>2022-08-03T07:55:20Z</time>
      </trkpt>
      <trkpt lat="49.83054" lon="2.5583">
        <ele>69.4</ele>
        <time>2022-08-03T07:55:21Z</time>
      </trkpt>
      <trkpt lat="49.83055" lon="2.55832">
        <ele>69.4</ele>
        <time>2022-08-03T07:55:23Z</time>
      </trkpt>
      <trkpt lat="49.83055" lon="2.55833">
        <ele>69.4</ele>
        <time>2022-08-03T07:55:24Z</time>
      </trkpt>
      <trkpt lat="49.83056" lon="2.55834">
        <ele>69.3</ele>
        <time>2022-08-03T07:55:25Z</time>
      </trkpt>
      <trkpt lat="49.83056" lon="2.55836">
        <ele>69.3</ele>
        <time>2022-08-03T07:55:26Z</time>
      </trkpt>
      <trkpt lat="49.83057" lon="2.55838">
        <ele>69.3</ele>
        <time>2022-08-03T07:55:27Z</time>
      </trkpt>
      <trkpt lat="49.83057" lon="2.55839">
        <ele>69.2</ele>
        <time>2022-08-03T07:55:28Z</time>
      </trkpt>
      <trkpt lat="49.83058" lon="2.55841">
        <ele>69.2</ele>
        <time>2022-08-03T07:55:29Z</time>
      </trkpt>
      <trkpt lat="49.83059" lon="2.55842">
        <ele>69.2</ele>
        <time>2022-08-03T07:55:30Z</time>
      </trkpt>
      <trkpt lat="49.83059" lon="2.55845">
        <ele>69.1</ele>
        <time>2022-08-03T07:55:32Z</time>
      </trkpt>
      <trkpt lat="49.8306" lon="2.55847">
        <ele>69.1</ele>
        <time>2022-08-03T07:55:33Z</time>
      </trkpt>
      <trkpt lat="49.83061" lon="2.55849">
        <ele>69.1</ele>
        <time>2022-08-03T07:55:34Z</time>
      </trkpt>
      <trkpt lat="49.83061" lon="2.5585">
        <ele>69</ele>
        <time>2022-08-03T07:55:35Z</time>
      </trkpt>
      <trkpt lat="49.83063" lon="2.55853">
        <ele>69</ele>
        <time>2022-08-03T07:55:36Z</time>
      </trkpt>
      <trkpt lat="49.83063" lon="2.55854">
        <ele>69</ele>
        <time>2022-08-03T07:55:37Z</time>
      </trkpt>
      <trkpt lat="49.83063" lon="2.55854">
        <ele>68.9</ele>
        <time>2022-08-03T07:55:38Z</time>
      </trkpt>
      <trkpt lat="49.83064" lon="2.55857">
        <ele>68.9</ele>
        <time>2022-08-03T07:55:40Z</time>
      </trkpt>
      <trkpt lat="49.83065" lon="2.55859">
        <ele>68.9</ele>
        <time>2022-08-03T07:55:41Z</time>
      </trkpt>
      <trkpt lat="49.83065" lon="2.5586">
        <ele>68.8</ele>
        <time>2022-08-03T07:55:42Z</time>
      </trkpt>
      <trkpt lat="49.83066" lon="2.55862">
        <ele>68.8</ele>
        <time>2022-08-03T07:55:43Z</time>
      </trkpt>
      <trkpt lat="49.83066" lon="2.55864">
        <ele>68.8</ele>
        <time>2022-08-03T07:55:44Z</time>
      </trkpt>
      <trkpt lat="49.83067" lon="2.55865">
        <ele>68.8</ele>
        <time>2022-08-03T07:55:45Z</time>
      </trkpt>
      <trkpt lat="49.83067" lon="2.55867">
        <ele>68.7</ele>
        <time>2022-08-03T07:55:46Z</time>
      </trkpt>
      <trkpt lat="49.83068" lon="2.55869">
        <ele>68.7</ele>
        <time>2022-08-03T07:55:47Z</time>
      </trkpt>
      <trkpt lat="49.83068" lon="2.5587">
        <ele>68.7</ele>
        <time>2022-08-03T07:55:48Z</time>
      </trkpt>
      <trkpt lat="49.83069" lon="2.55872">
        <ele>68.6</ele>
        <time>2022-08-03T07:55:49Z</time>
      </trkpt>
      <trkpt lat="49.8307" lon="2.55873">
        <ele>68.6</ele>
        <time>2022-08-03T07:55:51Z</time>
      </trkpt>
      <trkpt lat="49.8307" lon="2.55876">
        <ele>68.6</ele>
        <time>2022-08-03T07:55:52Z</time>
      </trkpt>
      <trkpt lat="49.83071" lon="2.55877">
        <ele>68.6</ele>
        <time>2022-08-03T07:55:53Z</time>
      </trkpt>
      <trkpt lat="49.83071" lon="2.55878">
        <ele>68.6</ele>
        <time>2022-08-03T07:55:54Z</time>
      </trkpt>
      <trkpt lat="49.83072" lon="2.55881">
        <ele>68.5</ele>
        <time>2022-08-03T07:55:55Z</time>
      </trkpt>
      <trkpt lat="49.83072" lon="2.55882">
        <ele>68.5</ele>
        <time>2022-08-03T07:55:56Z</time>
      </trkpt>
      <trkpt lat="49.83073" lon="2.55884">
        <ele>68.5</ele>
        <time>2022-08-03T07:55:57Z</time>
      </trkpt>
      <trkpt lat="49.83073" lon="2.55886">
        <ele>68.4</ele>
        <time>2022-08-03T07:55:58Z</time>
      </trkpt>
      <trkpt lat="49.83073" lon="2.55887">
        <ele>68.4</ele>
        <time>2022-08-03T07:55:59Z</time>
      </trkpt>
      <trkpt lat="49.83074" lon="2.55889">
        <ele>68.4</ele>
        <time>2022-08-03T07:56:00Z</time>
      </trkpt>
      <trkpt lat="49.83075" lon="2.55892">
        <ele>68.4</ele>
        <time>2022-08-03T07:56:01Z</time>
      </trkpt>
      <trkpt lat="49.83076" lon="2.55893">
        <ele>68.4</ele>
        <time>2022-08-03T07:56:02Z</time>
      </trkpt>
      <trkpt lat="49.83076" lon="2.55895">
        <ele>68.3</ele>
        <time>2022-08-03T07:56:04Z</time>
      </trkpt>
      <trkpt lat="49.83076" lon="2.55896">
        <ele>68.3</ele>
        <time>2022-08-03T07:56:05Z</time>
      </trkpt>
      <trkpt lat="49.83077" lon="2.55898">
        <ele>68.3</ele>
        <time>2022-08-03T07:56:06Z</time>
      </trkpt>
      <trkpt lat="49.83077" lon="2.55899">
        <ele>68.3</ele>
        <time>2022-08-03T07:56:07Z</time>
      </trkpt>
      <trkpt lat="49.83077" lon="2.55902">
        <ele>68.3</ele>
        <time>2022-08-03T07:56:08Z</time>
      </trkpt>
      <trkpt lat="49.83077" lon="2.55903">
        <ele>68.3</ele>
        <time>2022-08-03T07:56:09Z</time>
      </trkpt>
      <trkpt lat="49.83077" lon="2.55905">
        <ele>68.3</ele>
        <time>2022-08-03T07:56:10Z</time>
      </trkpt>
      <trkpt lat="49.83078" lon="2.55908">
        <ele>68.3</ele>
        <time>2022-08-03T07:56:12Z</time>
      </trkpt>
      <trkpt lat="49.83078" lon="2.55909">
        <ele>68.3</ele>
        <time>2022-08-03T07:56:13Z</time>
      </trkpt>
      <trkpt lat="49.83078" lon="2.55911">
        <ele>68.3</ele>
        <time>2022-08-03T07:56:14Z</time>
      </trkpt>
      <trkpt lat="49.83078" lon="2.55913">
        <ele>68.3</ele>
        <time>2022-08-03T07:56:15Z</time>
      </trkpt>
      <trkpt lat="49.83078" lon="2.55916">
        <ele>68.3</ele>
        <time>2022-08-03T07:56:17Z</time>
      </trkpt>
      <trkpt lat="49.83078" lon="2.55918">
        <ele>68.3</ele>
        <time>2022-08-03T07:56:18Z</time>
      </trkpt>
      <trkpt lat="49.83078" lon="2.55919">
        <ele>68.3</ele>
        <time>2022-08-03T07:56:19Z</time>
      </trkpt>
      <trkpt lat="49.83078" lon="2.5592">
        <ele>68.3</ele>
        <time>2022-08-03T07:56:20Z</time>
      </trkpt>
      <trkpt lat="49.83079" lon="2.55924">
        <ele>68.3</ele>
        <time>2022-08-03T07:56:21Z</time>
      </trkpt>
      <trkpt lat="49.83079" lon="2.55925">
        <ele>68.3</ele>
        <time>2022-08-03T07:56:22Z</time>
      </trkpt>
      <trkpt lat="49.83079" lon="2.55926">
        <ele>68.3</ele>
        <time>2022-08-03T07:56:23Z</time>
      </trkpt>
      <trkpt lat="49.83079" lon="2.5593">
        <ele>68.3</ele>
        <time>2022-08-03T07:56:24Z</time>
      </trkpt>
      <trkpt lat="49.83079" lon="2.55931">
        <ele>68.3</ele>
        <time>2022-08-03T07:56:25Z</time>
      </trkpt>
      <trkpt lat="49.83079" lon="2.55933">
        <ele>68.3</ele>
        <time>2022-08-03T07:56:27Z</time>
      </trkpt>
      <trkpt lat="49.83079" lon="2.55934">
        <ele>68.3</ele>
        <time>2022-08-03T07:56:28Z</time>
      </trkpt>
      <trkpt lat="49.83079" lon="2.55936">
        <ele>68.3</ele>
        <time>2022-08-03T07:56:29Z</time>
      </trkpt>
      <trkpt lat="49.83079" lon="2.55938">
        <ele>68.3</ele>
        <time>2022-08-03T07:56:30Z</time>
      </trkpt>
      <trkpt lat="49.83078" lon="2.55939">
        <ele>68.3</ele>
        <time>2022-08-03T07:56:31Z</time>
      </trkpt>
      <trkpt lat="49.83078" lon="2.55941">
        <ele>68.3</ele>
        <time>2022-08-03T07:56:32Z</time>
      </trkpt>
      <trkpt lat="49.83078" lon="2.55943">
        <ele>68.3</ele>
        <time>2022-08-03T07:56:33Z</time>
      </trkpt>
      <trkpt lat="49.83078" lon="2.55944">
        <ele>68.3</ele>
        <time>2022-08-03T07:56:34Z</time>
      </trkpt>
      <trkpt lat="49.83078" lon="2.55945">
        <ele>68.3</ele>
        <time>2022-08-03T07:56:36Z</time>
      </trkpt>
      <trkpt lat="49.83077" lon="2.55948">
        <ele>68.3</ele>
        <time>2022-08-03T07:56:37Z</time>
      </trkpt>
      <trkpt lat="49.83077" lon="2.55949">
        <ele>68.3</ele>
        <time>2022-08-03T07:56:38Z</time>
      </trkpt>
      <trkpt lat="49.83076" lon="2.5595">
        <ele>68.3</ele>
        <time>2022-08-03T07:56:39Z</time>
      </trkpt>
      <trkpt lat="49.83075" lon="2.55952">
        <ele>68.3</ele>
        <time>2022-08-03T07:56:41Z</time>
      </trkpt>
      <trkpt lat="49.83075" lon="2.55953">
        <ele>68.3</ele>
        <time>2022-08-03T07:56:42Z</time>
      </trkpt>
      <trkpt lat="49.83074" lon="2.55955">
        <ele>68.3</ele>
        <time>2022-08-03T07:56:43Z</time>
      </trkpt>
      <trkpt lat="49.83074" lon="2.55956">
        <ele>68.3</ele>
        <time>2022-08-03T07:56:44Z</time>
      </trkpt>
      <trkpt lat="49.83073" lon="2.55959">
        <ele>68.4</ele>
        <time>2022-08-03T07:56:45Z</time>
      </trkpt>
      <trkpt lat="49.83072" lon="2.5596">
        <ele>68.4</ele>
        <time>2022-08-03T07:56:46Z</time>
      </trkpt>
      <trkpt lat="49.83072" lon="2.55961">
        <ele>68.4</ele>
        <time>2022-08-03T07:56:47Z</time>
      </trkpt>
      <trkpt lat="49.83071" lon="2.55962">
        <ele>68.4</ele>
        <time>2022-08-03T07:56:48Z</time>
      </trkpt>
      <trkpt lat="49.8307" lon="2.55963">
        <ele>68.4</ele>
        <time>2022-08-03T07:56:49Z</time>
      </trkpt>
      <trkpt lat="49.83069" lon="2.55965">
        <ele>68.5</ele>
        <time>2022-08-03T07:56:50Z</time>
      </trkpt>
      <trkpt lat="49.83068" lon="2.55966">
        <ele>68.5</ele>
        <time>2022-08-03T07:56:52Z</time>
      </trkpt>
      <trkpt lat="49.83067" lon="2.55967">
        <ele>68.5</ele>
        <time>2022-08-03T07:56:53Z</time>
      </trkpt>
      <trkpt lat="49.83066" lon="2.55968">
        <ele>68.5</ele>
        <time>2022-08-03T07:56:54Z</time>
      </trkpt>
      <trkpt lat="49.83066" lon="2.55969">
        <ele>68.6</ele>
        <time>2022-08-03T07:56:55Z</time>
      </trkpt>
      <trkpt lat="49.83064" lon="2.55971">
        <ele>68.6</ele>
        <time>2022-08-03T07:56:56Z</time>
      </trkpt>
      <trkpt lat="49.83063" lon="2.55972">
        <ele>68.6</ele>
        <time>2022-08-03T07:56:57Z</time>
      </trkpt>
      <trkpt lat="49.83063" lon="2.55973">
        <ele>68.7</ele>
        <time>2022-08-03T07:56:58Z</time>
      </trkpt>
      <trkpt lat="49.83061" lon="2.55975">
        <ele>68.8</ele>
        <time>2022-08-03T07:56:59Z</time>
      </trkpt>
      <trkpt lat="49.83061" lon="2.55976">
        <ele>68.8</ele>
        <time>2022-08-03T07:57:01Z</time>
      </trkpt>
      <trkpt lat="49.8306" lon="2.55977">
        <ele>68.8</ele>
        <time>2022-08-03T07:57:02Z</time>
      </trkpt>
      <trkpt lat="49.83059" lon="2.55978">
        <ele>68.9</ele>
        <time>2022-08-03T07:57:03Z</time>
      </trkpt>
      <trkpt lat="49.83058" lon="2.55978">
        <ele>68.9</ele>
        <time>2022-08-03T07:57:04Z</time>
      </trkpt>
      <trkpt lat="49.83057" lon="2.55979">
        <ele>69</ele>
        <time>2022-08-03T07:57:05Z</time>
      </trkpt>
      <trkpt lat="49.83056" lon="2.55981">
        <ele>69</ele>
        <time>2022-08-03T07:57:06Z</time>
      </trkpt>
      <trkpt lat="49.83056" lon="2.55982">
        <ele>69.1</ele>
        <time>2022-08-03T07:57:08Z</time>
      </trkpt>
      <trkpt lat="49.83055" lon="2.55983">
        <ele>69.1</ele>
        <time>2022-08-03T07:57:09Z</time>
      </trkpt>
      <trkpt lat="49.83053" lon="2.55985">
        <ele>69.2</ele>
        <time>2022-08-03T07:57:10Z</time>
      </trkpt>
      <trkpt lat="49.83052" lon="2.55985">
        <ele>69.3</ele>
        <time>2022-08-03T07:57:11Z</time>
      </trkpt>
      <trkpt lat="49.83052" lon="2.55986">
        <ele>69.3</ele>
        <time>2022-08-03T07:57:12Z</time>
      </trkpt>
      <trkpt lat="49.83051" lon="2.55987">
        <ele>69.4</ele>
        <time>2022-08-03T07:57:13Z</time>
      </trkpt>
      <trkpt lat="49.8305" lon="2.55988">
        <ele>69.5</ele>
        <time>2022-08-03T07:57:14Z</time>
      </trkpt>
      <trkpt lat="49.83049" lon="2.55989">
        <ele>69.5</ele>
        <time>2022-08-03T07:57:16Z</time>
      </trkpt>
      <trkpt lat="49.83049" lon="2.5599">
        <ele>69.5</ele>
        <time>2022-08-03T07:57:17Z</time>
      </trkpt>
      <trkpt lat="49.83048" lon="2.55991">
        <ele>69.6</ele>
        <time>2022-08-03T07:57:18Z</time>
      </trkpt>
      <trkpt lat="49.83047" lon="2.55992">
        <ele>69.7</ele>
        <time>2022-08-03T07:57:19Z</time>
      </trkpt>
      <trkpt lat="49.83046" lon="2.55994">
        <ele>69.8</ele>
        <time>2022-08-03T07:57:20Z</time>
      </trkpt>
      <trkpt lat="49.83045" lon="2.55996">
        <ele>69.8</ele>
        <time>2022-08-03T07:57:21Z</time>
      </trkpt>
      <trkpt lat="49.83045" lon="2.55997">
        <ele>69.9</ele>
        <time>2022-08-03T07:57:22Z</time>
      </trkpt>
      <trkpt lat="49.83045" lon="2.55998">
        <ele>70</ele>
        <time>2022-08-03T07:57:23Z</time>
      </trkpt>
      <trkpt lat="49.83044" lon="2.56">
        <ele>70</ele>
        <time>2022-08-03T07:57:25Z</time>
      </trkpt>
      <trkpt lat="49.83043" lon="2.56001">
        <ele>70.1</ele>
        <time>2022-08-03T07:57:26Z</time>
      </trkpt>
      <trkpt lat="49.83043" lon="2.56003">
        <ele>70.2</ele>
        <time>2022-08-03T07:57:27Z</time>
      </trkpt>
      <trkpt lat="49.83042" lon="2.56004">
        <ele>70.2</ele>
        <time>2022-08-03T07:57:28Z</time>
      </trkpt>
      <trkpt lat="49.83042" lon="2.56006">
        <ele>70.3</ele>
        <time>2022-08-03T07:57:29Z</time>
      </trkpt>
      <trkpt lat="49.83041" lon="2.56009">
        <ele>70.4</ele>
        <time>2022-08-03T07:57:30Z</time>
      </trkpt>
      <trkpt lat="49.83041" lon="2.5601">
        <ele>70.5</ele>
        <time>2022-08-03T07:57:31Z</time>
      </trkpt>
      <trkpt lat="49.83041" lon="2.56011">
        <ele>70.5</ele>
        <time>2022-08-03T07:57:32Z</time>
      </trkpt>
      <trkpt lat="49.83041" lon="2.56013">
        <ele>70.6</ele>
        <time>2022-08-03T07:57:33Z</time>
      </trkpt>
      <trkpt lat="49.83041" lon="2.56015">
        <ele>70.6</ele>
        <time>2022-08-03T07:57:35Z</time>
      </trkpt>
      <trkpt lat="49.8304" lon="2.56016">
        <ele>70.7</ele>
        <time>2022-08-03T07:57:36Z</time>
      </trkpt>
      <trkpt lat="49.8304" lon="2.56018">
        <ele>70.8</ele>
        <time>2022-08-03T07:57:37Z</time>
      </trkpt>
      <trkpt lat="49.8304" lon="2.5602">
        <ele>70.8</ele>
        <time>2022-08-03T07:57:38Z</time>
      </trkpt>
      <trkpt lat="49.8304" lon="2.56021">
        <ele>70.9</ele>
        <time>2022-08-03T07:57:39Z</time>
      </trkpt>
      <trkpt lat="49.83039" lon="2.56023">
        <ele>71</ele>
        <time>2022-08-03T07:57:40Z</time>
      </trkpt>
      <trkpt lat="49.83039" lon="2.56025">
        <ele>71</ele>
        <time>2022-08-03T07:57:41Z</time>
      </trkpt>
      <trkpt lat="49.83039" lon="2.56026">
        <ele>71.1</ele>
        <time>2022-08-03T07:57:42Z</time>
      </trkpt>
      <trkpt lat="49.83038" lon="2.56028">
        <ele>71.2</ele>
        <time>2022-08-03T07:57:44Z</time>
      </trkpt>
      <trkpt lat="49.83038" lon="2.5603">
        <ele>71.2</ele>
        <time>2022-08-03T07:57:45Z</time>
      </trkpt>
      <trkpt lat="49.83037" lon="2.56033">
        <ele>71.3</ele>
        <time>2022-08-03T07:57:46Z</time>
      </trkpt>
      <trkpt lat="49.83037" lon="2.56035">
        <ele>71.4</ele>
        <time>2022-08-03T07:57:47Z</time>
      </trkpt>
      <trkpt lat="49.83036" lon="2.56037">
        <ele>71.5</ele>
        <time>2022-08-03T07:57:48Z</time>
      </trkpt>
      <trkpt lat="49.83036" lon="2.56038">
        <ele>71.5</ele>
        <time>2022-08-03T07:57:50Z</time>
      </trkpt>
      <trkpt lat="49.83036" lon="2.5604">
        <ele>71.6</ele>
        <time>2022-08-03T07:57:51Z</time>
      </trkpt>
      <trkpt lat="49.83035" lon="2.56042">
        <ele>71.7</ele>
        <time>2022-08-03T07:57:52Z</time>
      </trkpt>
      <trkpt lat="49.83035" lon="2.56044">
        <ele>71.7</ele>
        <time>2022-08-03T07:57:53Z</time>
      </trkpt>
      <trkpt lat="49.83034" lon="2.56047">
        <ele>71.8</ele>
        <time>2022-08-03T07:57:54Z</time>
      </trkpt>
      <trkpt lat="49.83034" lon="2.56048">
        <ele>71.9</ele>
        <time>2022-08-03T07:57:55Z</time>
      </trkpt>
      <trkpt lat="49.83033" lon="2.56049">
        <ele>71.9</ele>
        <time>2022-08-03T07:57:56Z</time>
      </trkpt>
      <trkpt lat="49.83033" lon="2.56053">
        <ele>72</ele>
        <time>2022-08-03T07:57:58Z</time>
      </trkpt>
      <trkpt lat="49.83033" lon="2.56054">
        <ele>72.1</ele>
        <time>2022-08-03T07:57:59Z</time>
      </trkpt>
      <trkpt lat="49.83032" lon="2.56055">
        <ele>72.1</ele>
        <time>2022-08-03T07:58:00Z</time>
      </trkpt>
      <trkpt lat="49.83032" lon="2.56058">
        <ele>72.2</ele>
        <time>2022-08-03T07:58:01Z</time>
      </trkpt>
      <trkpt lat="49.83032" lon="2.56059">
        <ele>72.2</ele>
        <time>2022-08-03T07:58:02Z</time>
      </trkpt>
      <trkpt lat="49.83031" lon="2.56061">
        <ele>72.3</ele>
        <time>2022-08-03T07:58:03Z</time>
      </trkpt>
      <trkpt lat="49.83031" lon="2.56062">
        <ele>72.3</ele>
        <time>2022-08-03T07:58:05Z</time>
      </trkpt>
      <trkpt lat="49.83031" lon="2.56064">
        <ele>72.4</ele>
        <time>2022-08-03T07:58:06Z</time>
      </trkpt>
      <trkpt lat="49.83031" lon="2.56066">
        <ele>72.4</ele>
        <time>2022-08-03T07:58:07Z</time>
      </trkpt>
      <trkpt lat="49.8303" lon="2.56069">
        <ele>72.5</ele>
        <time>2022-08-03T07:58:08Z</time>
      </trkpt>
      <trkpt lat="49.8303" lon="2.5607">
        <ele>72.6</ele>
        <time>2022-08-03T07:58:09Z</time>
      </trkpt>
      <trkpt lat="49.8303" lon="2.56071">
        <ele>72.6</ele>
        <time>2022-08-03T07:58:10Z</time>
      </trkpt>
      <trkpt lat="49.83029" lon="2.56074">
        <ele>72.7</ele>
        <time>2022-08-03T07:58:11Z</time>
      </trkpt>
      <trkpt lat="49.83029" lon="2.56076">
        <ele>72.8</ele>
        <time>2022-08-03T07:58:13Z</time>
      </trkpt>
      <trkpt lat="49.83029" lon="2.56077">
        <ele>72.8</ele>
        <time>2022-08-03T07:58:14Z</time>
      </trkpt>
      <trkpt lat="49.83029" lon="2.56079">
        <ele>72.9</ele>
        <time>2022-08-03T07:58:15Z</time>
      </trkpt>
      <trkpt lat="49.83028" lon="2.56081">
        <ele>72.9</ele>
        <time>2022-08-03T07:58:16Z</time>
      </trkpt>
      <trkpt lat="49.83028" lon="2.56082">
        <ele>73</ele>
        <time>2022-08-03T07:58:17Z</time>
      </trkpt>
      <trkpt lat="49.83028" lon="2.56084">
        <ele>73</ele>
        <time>2022-08-03T07:58:18Z</time>
      </trkpt>
      <trkpt lat="49.83028" lon="2.56086">
        <ele>73.1</ele>
        <time>2022-08-03T07:58:19Z</time>
      </trkpt>
      <trkpt lat="49.83027" lon="2.56088">
        <ele>73.1</ele>
        <time>2022-08-03T07:58:20Z</time>
      </trkpt>
      <trkpt lat="49.83027" lon="2.56089">
        <ele>73.2</ele>
        <time>2022-08-03T07:58:22Z</time>
      </trkpt>
      <trkpt lat="49.83027" lon="2.56091">
        <ele>73.2</ele>
        <time>2022-08-03T07:58:23Z</time>
      </trkpt>
      <trkpt lat="49.83027" lon="2.56092">
        <ele>73.2</ele>
        <time>2022-08-03T07:58:24Z</time>
      </trkpt>
      <trkpt lat="49.83027" lon="2.56094">
        <ele>73.3</ele>
        <time>2022-08-03T07:58:25Z</time>
      </trkpt>
      <trkpt lat="49.83026" lon="2.56095">
        <ele>73.3</ele>
        <time>2022-08-03T07:58:26Z</time>
      </trkpt>
      <trkpt lat="49.83026" lon="2.56097">
        <ele>73.4</ele>
        <time>2022-08-03T07:58:27Z</time>
      </trkpt>
      <trkpt lat="49.83026" lon="2.56098">
        <ele>73.4</ele>
        <time>2022-08-03T07:58:28Z</time>
      </trkpt>
      <trkpt lat="49.83026" lon="2.561">
        <ele>73.5</ele>
        <time>2022-08-03T07:58:30Z</time>
      </trkpt>
      <trkpt lat="49.83026" lon="2.56102">
        <ele>73.5</ele>
        <time>2022-08-03T07:58:31Z</time>
      </trkpt>
      <trkpt lat="49.83026" lon="2.56103">
        <ele>73.5</ele>
        <time>2022-08-03T07:58:32Z</time>
      </trkpt>
      <trkpt lat="49.83026" lon="2.56105">
        <ele>73.6</ele>
        <time>2022-08-03T07:58:33Z</time>
      </trkpt>
      <trkpt lat="49.83026" lon="2.56107">
        <ele>73.6</ele>
        <time>2022-08-03T07:58:34Z</time>
      </trkpt>
      <trkpt lat="49.83025" lon="2.56108">
        <ele>73.7</ele>
        <time>2022-08-03T07:58:35Z</time>
      </trkpt>
      <trkpt lat="49.83025" lon="2.5611">
        <ele>73.7</ele>
        <time>2022-08-03T07:58:37Z</time>
      </trkpt>
      <trkpt lat="49.83025" lon="2.56111">
        <ele>73.8</ele>
        <time>2022-08-03T07:58:38Z</time>
      </trkpt>
      <trkpt lat="49.83025" lon="2.56113">
        <ele>73.8</ele>
        <time>2022-08-03T07:58:39Z</time>
      </trkpt>
      <trkpt lat="49.83024" lon="2.56115">
        <ele>73.8</ele>
        <time>2022-08-03T07:58:40Z</time>
      </trkpt>
      <trkpt lat="49.83024" lon="2.56116">
        <ele>73.9</ele>
        <time>2022-08-03T07:58:41Z</time>
      </trkpt>
      <trkpt lat="49.83024" lon="2.56118">
        <ele>73.9</ele>
        <time>2022-08-03T07:58:42Z</time>
      </trkpt>
      <trkpt lat="49.83023" lon="2.5612">
        <ele>74</ele>
        <time>2022-08-03T07:58:44Z</time>
      </trkpt>
      <trkpt lat="49.83023" lon="2.56122">
        <ele>74</ele>
        <time>2022-08-03T07:58:45Z</time>
      </trkpt>
      <trkpt lat="49.83023" lon="2.56125">
        <ele>74.1</ele>
        <time>2022-08-03T07:58:46Z</time>
      </trkpt>
      <trkpt lat="49.83022" lon="2.56126">
        <ele>74.1</ele>
        <time>2022-08-03T07:58:47Z</time>
      </trkpt>
      <trkpt lat="49.83022" lon="2.56128">
        <ele>74.2</ele>
        <time>2022-08-03T07:58:48Z</time>
      </trkpt>
      <trkpt lat="49.83022" lon="2.5613">
        <ele>74.2</ele>
        <time>2022-08-03T07:58:49Z</time>
      </trkpt>
      <trkpt lat="49.83022" lon="2.56131">
        <ele>74.3</ele>
        <time>2022-08-03T07:58:50Z</time>
      </trkpt>
      <trkpt lat="49.83022" lon="2.56133">
        <ele>74.3</ele>
        <time>2022-08-03T07:58:52Z</time>
      </trkpt>
      <trkpt lat="49.83022" lon="2.56135">
        <ele>74.4</ele>
        <time>2022-08-03T07:58:53Z</time>
      </trkpt>
      <trkpt lat="49.83022" lon="2.56136">
        <ele>74.4</ele>
        <time>2022-08-03T07:58:54Z</time>
      </trkpt>
      <trkpt lat="49.83022" lon="2.56138">
        <ele>74.4</ele>
        <time>2022-08-03T07:58:55Z</time>
      </trkpt>
      <trkpt lat="49.83022" lon="2.5614">
        <ele>74.5</ele>
        <time>2022-08-03T07:58:56Z</time>
      </trkpt>
      <trkpt lat="49.83022" lon="2.56141">
        <ele>74.5</ele>
        <time>2022-08-03T07:58:57Z</time>
      </trkpt>
      <trkpt lat="49.83021" lon="2.56143">
        <ele>74.6</ele>
        <time>2022-08-03T07:58:59Z</time>
      </trkpt>
      <trkpt lat="49.83021" lon="2.56145">
        <ele>74.6</ele>
        <time>2022-08-03T07:59:00Z</time>
      </trkpt>
      <trkpt lat="49.83021" lon="2.56146">
        <ele>74.7</ele>
        <time>2022-08-03T07:59:01Z</time>
      </trkpt>
      <trkpt lat="49.83021" lon="2.56148">
        <ele>74.7</ele>
        <time>2022-08-03T07:59:02Z</time>
      </trkpt>
      <trkpt lat="49.83021" lon="2.56149">
        <ele>74.7</ele>
        <time>2022-08-03T07:59:03Z</time>
      </trkpt>
      <trkpt lat="49.83021" lon="2.56152">
        <ele>74.8</ele>
        <time>2022-08-03T07:59:04Z</time>
      </trkpt>
      <trkpt lat="49.83021" lon="2.56153">
        <ele>74.8</ele>
        <time>2022-08-03T07:59:05Z</time>
      </trkpt>
      <trkpt lat="49.83021" lon="2.56155">
        <ele>74.9</ele>
        <time>2022-08-03T07:59:06Z</time>
      </trkpt>
      <trkpt lat="49.83021" lon="2.56157">
        <ele>74.9</ele>
        <time>2022-08-03T07:59:07Z</time>
      </trkpt>
      <trkpt lat="49.83021" lon="2.56159">
        <ele>75</ele>
        <time>2022-08-03T07:59:08Z</time>
      </trkpt>
      <trkpt lat="49.8302" lon="2.56161">
        <ele>75</ele>
        <time>2022-08-03T07:59:10Z</time>
      </trkpt>
      <trkpt lat="49.8302" lon="2.56162">
        <ele>75.1</ele>
        <time>2022-08-03T07:59:11Z</time>
      </trkpt>
      <trkpt lat="49.8302" lon="2.56163">
        <ele>75.1</ele>
        <time>2022-08-03T07:59:12Z</time>
      </trkpt>
      <trkpt lat="49.83019" lon="2.56164">
        <ele>75.1</ele>
        <time>2022-08-03T07:59:13Z</time>
      </trkpt>
      <trkpt lat="49.83019" lon="2.56166">
        <ele>75.2</ele>
        <time>2022-08-03T07:59:14Z</time>
      </trkpt>
      <trkpt lat="49.83019" lon="2.56168">
        <ele>75.2</ele>
        <time>2022-08-03T07:59:15Z</time>
      </trkpt>
      <trkpt lat="49.83019" lon="2.56171">
        <ele>75.3</ele>
        <time>2022-08-03T07:59:16Z</time>
      </trkpt>
      <trkpt lat="49.83019" lon="2.56172">
        <ele>75.3</ele>
        <time>2022-08-03T07:59:17Z</time>
      </trkpt>
      <trkpt lat="49.83019" lon="2.56174">
        <ele>75.3</ele>
        <time>2022-08-03T07:59:18Z</time>
      </trkpt>
      <trkpt lat="49.83018" lon="2.56176">
        <ele>75.4</ele>
        <time>2022-08-03T07:59:20Z</time>
      </trkpt>
      <trkpt lat="49.83018" lon="2.56177">
        <ele>75.4</ele>
        <time>2022-08-03T07:59:21Z</time>
      </trkpt>
      <trkpt lat="49.83018" lon="2.56179">
        <ele>75.4</ele>
        <time>2022-08-03T07:59:22Z</time>
      </trkpt>
      <trkpt lat="49.83018" lon="2.56181">
        <ele>75.5</ele>
        <time>2022-08-03T07:59:24Z</time>
      </trkpt>
      <trkpt lat="49.83018" lon="2.56184">
        <ele>75.5</ele>
        <time>2022-08-03T07:59:25Z</time>
      </trkpt>
      <trkpt lat="49.83018" lon="2.56185">
        <ele>75.6</ele>
        <time>2022-08-03T07:59:26Z</time>
      </trkpt>
      <trkpt lat="49.83018" lon="2.56187">
        <ele>75.6</ele>
        <time>2022-08-03T07:59:27Z</time>
      </trkpt>
      <trkpt lat="49.83018" lon="2.56189">
        <ele>75.6</ele>
        <time>2022-08-03T07:59:28Z</time>
      </trkpt>
      <trkpt lat="49.83017" lon="2.56192">
        <ele>75.7</ele>
        <time>2022-08-03T07:59:30Z</time>
      </trkpt>
      <trkpt lat="49.83017" lon="2.56193">
        <ele>75.7</ele>
        <time>2022-08-03T07:59:31Z</time>
      </trkpt>
      <trkpt lat="49.83017" lon="2.56195">
        <ele>75.7</ele>
        <time>2022-08-03T07:59:32Z</time>
      </trkpt>
      <trkpt lat="49.83017" lon="2.56197">
        <ele>75.8</ele>
        <time>2022-08-03T07:59:33Z</time>
      </trkpt>
      <trkpt lat="49.83017" lon="2.56199">
        <ele>75.8</ele>
        <time>2022-08-03T07:59:34Z</time>
      </trkpt>
      <trkpt lat="49.83017" lon="2.56201">
        <ele>75.8</ele>
        <time>2022-08-03T07:59:35Z</time>
      </trkpt>
      <trkpt lat="49.83017" lon="2.56203">
        <ele>75.9</ele>
        <time>2022-08-03T07:59:37Z</time>
      </trkpt>
      <trkpt lat="49.83017" lon="2.56205">
        <ele>75.9</ele>
        <time>2022-08-03T07:59:38Z</time>
      </trkpt>
      <trkpt lat="49.83017" lon="2.56206">
        <ele>75.9</ele>
        <time>2022-08-03T07:59:39Z</time>
      </trkpt>
      <trkpt lat="49.83018" lon="2.56208">
        <ele>75.9</ele>
        <time>2022-08-03T07:59:40Z</time>
      </trkpt>
      <trkpt lat="49.83018" lon="2.56211">
        <ele>76</ele>
        <time>2022-08-03T07:59:42Z</time>
      </trkpt>
      <trkpt lat="49.83017" lon="2.56212">
        <ele>76</ele>
        <time>2022-08-03T07:59:43Z</time>
      </trkpt>
      <trkpt lat="49.83015" lon="2.56212">
        <ele>76</ele>
        <time>2022-08-03T07:59:44Z</time>
      </trkpt>
      <trkpt lat="49.83015" lon="2.56212">
        <ele>76</ele>
        <time>2022-08-03T07:59:45Z</time>
      </trkpt>
      <trkpt lat="49.83014" lon="2.56212">
        <ele>76</ele>
        <time>2022-08-03T07:59:46Z</time>
      </trkpt>
      <trkpt lat="49.83012" lon="2.56212">
        <ele>76</ele>
        <time>2022-08-03T07:59:47Z</time>
      </trkpt>
      <trkpt lat="49.83011" lon="2.56211">
        <ele>76</ele>
        <time>2022-08-03T07:59:48Z</time>
      </trkpt>
      <trkpt lat="49.8301" lon="2.56211">
        <ele>76.1</ele>
        <time>2022-08-03T07:59:49Z</time>
      </trkpt>
      <trkpt lat="49.8301" lon="2.56211">
        <ele>76.1</ele>
        <time>2022-08-03T07:59:50Z</time>
      </trkpt>
      <trkpt lat="49.83009" lon="2.5621">
        <ele>76.1</ele>
        <time>2022-08-03T07:59:51Z</time>
      </trkpt>
      <trkpt lat="49.83009" lon="2.5621">
        <ele>76.1</ele>
        <time>2022-08-03T07:59:52Z</time>
      </trkpt>
      <trkpt lat="49.8301" lon="2.5621">
        <ele>76.1</ele>
        <time>2022-08-03T07:59:53Z</time>
      </trkpt>
      <trkpt lat="49.8301" lon="2.56211">
        <ele>76.1</ele>
        <time>2022-08-03T07:59:55Z</time>
      </trkpt>
      <trkpt lat="49.8301" lon="2.56211">
        <ele>76.1</ele>
        <time>2022-08-03T07:59:56Z</time>
      </trkpt>
      <trkpt lat="49.8301" lon="2.56211">
        <ele>76.1</ele>
        <time>2022-08-03T07:59:57Z</time>
      </trkpt>
      <trkpt lat="49.8301" lon="2.56211">
        <ele>76.1</ele>
        <time>2022-08-03T07:59:58Z</time>
      </trkpt>
      <trkpt lat="49.8301" lon="2.56211">
        <ele>76.1</ele>
        <time>2022-08-03T07:59:59Z</time>
      </trkpt>
      <trkpt lat="49.8301" lon="2.56211">
        <ele>76.1</ele>
        <time>2022-08-03T08:00:00Z</time>
      </trkpt>
      <trkpt lat="49.8301" lon="2.56211">
        <ele>76.1</ele>
        <time>2022-08-03T08:00:01Z</time>
      </trkpt>
      <trkpt lat="49.83011" lon="2.56211">
        <ele>76.1</ele>
        <time>2022-08-03T08:00:02Z</time>
      </trkpt>
      <trkpt lat="49.83011" lon="2.56212">
        <ele>76.1</ele>
        <time>2022-08-03T08:00:03Z</time>
      </trkpt>
      <trkpt lat="49.83011" lon="2.56212">
        <ele>76.1</ele>
        <time>2022-08-03T08:00:04Z</time>
      </trkpt>
      <trkpt lat="49.83011" lon="2.56212">
        <ele>76.1</ele>
        <time>2022-08-03T08:00:05Z</time>
      </trkpt>
      <trkpt lat="49.83011" lon="2.56212">
        <ele>76.1</ele>
        <time>2022-08-03T08:00:06Z</time>
      </trkpt>
      <trkpt lat="49.83011" lon="2.56212">
        <ele>76.1</ele>
        <time>2022-08-03T08:00:08Z</time>
      </trkpt>
      <trkpt lat="49.83011" lon="2.56212">
        <ele>76.1</ele>
        <time>2022-08-03T08:00:09Z</time>
      </trkpt>
      <trkpt lat="49.83011" lon="2.56212">
        <ele>76.1</ele>
        <time>2022-08-03T08:00:10Z</time>
      </trkpt>
      <trkpt lat="49.83012" lon="2.56212">
        <ele>76.1</ele>
        <time>2022-08-03T08:00:11Z</time>
      </trkpt>
      <trkpt lat="49.83012" lon="2.56212">
        <ele>76.1</ele>
        <time>2022-08-03T08:00:12Z</time>
      </trkpt>
      <trkpt lat="49.83012" lon="2.56213">
        <ele>76.1</ele>
        <time>2022-08-03T08:00:13Z</time>
      </trkpt>
      <trkpt lat="49.83012" lon="2.56213">
        <ele>76.1</ele>
        <time>2022-08-03T08:00:14Z</time>
      </trkpt>
      <trkpt lat="49.83012" lon="2.56213">
        <ele>76.1</ele>
        <time>2022-08-03T08:00:15Z</time>
      </trkpt>
      <trkpt lat="49.83012" lon="2.56213">
        <ele>76.1</ele>
        <time>2022-08-03T08:00:16Z</time>
      </trkpt>
      <trkpt lat="49.83012" lon="2.56213">
        <ele>76.1</ele>
        <time>2022-08-03T08:00:17Z</time>
      </trkpt>
      <trkpt lat="49.83012" lon="2.56213">
        <ele>76.1</ele>
        <time>2022-08-03T08:00:18Z</time>
      </trkpt>
      <trkpt lat="49.83013" lon="2.56213">
        <ele>76.1</ele>
        <time>2022-08-03T08:00:19Z</time>
      </trkpt>
      <trkpt lat="49.83013" lon="2.56213">
        <ele>76.1</ele>
        <time>2022-08-03T08:00:20Z</time>
      </trkpt>
      <trkpt lat="49.83013" lon="2.56213">
        <ele>76.1</ele>
        <time>2022-08-03T08:00:21Z</time>
      </trkpt>
      <trkpt lat="49.83013" lon="2.56214">
        <ele>76.1</ele>
        <time>2022-08-03T08:00:22Z</time>
      </trkpt>
      <trkpt lat="49.83014" lon="2.56216">
        <ele>76.1</ele>
        <time>2022-08-03T08:00:23Z</time>
      </trkpt>
      <trkpt lat="49.83015" lon="2.56217">
        <ele>76.2</ele>
        <time>2022-08-03T08:00:25Z</time>
      </trkpt>
      <trkpt lat="49.83015" lon="2.56218">
        <ele>76.2</ele>
        <time>2022-08-03T08:00:26Z</time>
      </trkpt>
      <trkpt lat="49.83016" lon="2.5622">
        <ele>76.2</ele>
        <time>2022-08-03T08:00:27Z</time>
      </trkpt>
      <trkpt lat="49.83016" lon="2.56222">
        <ele>76.2</ele>
        <time>2022-08-03T08:00:28Z</time>
      </trkpt>
      <trkpt lat="49.83016" lon="2.56224">
        <ele>76.2</ele>
        <time>2022-08-03T08:00:29Z</time>
      </trkpt>
      <trkpt lat="49.83016" lon="2.56226">
        <ele>76.2</ele>
        <time>2022-08-03T08:00:31Z</time>
      </trkpt>
      <trkpt lat="49.83016" lon="2.56227">
        <ele>76.2</ele>
        <time>2022-08-03T08:00:32Z</time>
      </trkpt>
      <trkpt lat="49.83016" lon="2.56229">
        <ele>76.2</ele>
        <time>2022-08-03T08:00:33Z</time>
      </trkpt>
      <trkpt lat="49.83015" lon="2.56231">
        <ele>76.2</ele>
        <time>2022-08-03T08:00:34Z</time>
      </trkpt>
      <trkpt lat="49.83014" lon="2.56232">
        <ele>76.3</ele>
        <time>2022-08-03T08:00:35Z</time>
      </trkpt>
      <trkpt lat="49.83014" lon="2.56234">
        <ele>76.3</ele>
        <time>2022-08-03T08:00:36Z</time>
      </trkpt>
      <trkpt lat="49.83014" lon="2.56235">
        <ele>76.3</ele>
        <time>2022-08-03T08:00:37Z</time>
      </trkpt>
      <trkpt lat="49.83013" lon="2.56239">
        <ele>76.3</ele>
        <time>2022-08-03T08:00:38Z</time>
      </trkpt>
      <trkpt lat="49.83013" lon="2.5624">
        <ele>76.3</ele>
        <time>2022-08-03T08:00:40Z</time>
      </trkpt>
      <trkpt lat="49.83013" lon="2.56242">
        <ele>76.3</ele>
        <time>2022-08-03T08:00:41Z</time>
      </trkpt>
      <trkpt lat="49.83013" lon="2.56244">
        <ele>76.3</ele>
        <time>2022-08-03T08:00:42Z</time>
      </trkpt>
      <trkpt lat="49.83013" lon="2.56248">
        <ele>76.3</ele>
        <time>2022-08-03T08:00:44Z</time>
      </trkpt>
      <trkpt lat="49.83013" lon="2.5625">
        <ele>76.3</ele>
        <time>2022-08-03T08:00:46Z</time>
      </trkpt>
      <trkpt lat="49.83013" lon="2.56252">
        <ele>76.3</ele>
        <time>2022-08-03T08:00:47Z</time>
      </trkpt>
      <trkpt lat="49.83013" lon="2.56253">
        <ele>76.3</ele>
        <time>2022-08-03T08:00:48Z</time>
      </trkpt>
      <trkpt lat="49.83013" lon="2.56255">
        <ele>76.3</ele>
        <time>2022-08-03T08:00:49Z</time>
      </trkpt>
      <trkpt lat="49.83013" lon="2.56257">
        <ele>76.3</ele>
        <time>2022-08-03T08:00:50Z</time>
      </trkpt>
      <trkpt lat="49.83013" lon="2.56259">
        <ele>76.3</ele>
        <time>2022-08-03T08:00:51Z</time>
      </trkpt>
      <trkpt lat="49.83013" lon="2.56261">
        <ele>76.2</ele>
        <time>2022-08-03T08:00:52Z</time>
      </trkpt>
      <trkpt lat="49.83013" lon="2.56263">
        <ele>76.2</ele>
        <time>2022-08-03T08:00:54Z</time>
      </trkpt>
      <trkpt lat="49.83013" lon="2.56265">
        <ele>76.2</ele>
        <time>2022-08-03T08:00:55Z</time>
      </trkpt>
      <trkpt lat="49.83013" lon="2.56266">
        <ele>76.2</ele>
        <time>2022-08-03T08:00:56Z</time>
      </trkpt>
      <trkpt lat="49.83013" lon="2.56268">
        <ele>76.2</ele>
        <time>2022-08-03T08:00:57Z</time>
      </trkpt>
      <trkpt lat="49.83013" lon="2.56271">
        <ele>76.1</ele>
        <time>2022-08-03T08:00:58Z</time>
      </trkpt>
      <trkpt lat="49.83013" lon="2.56272">
        <ele>76.1</ele>
        <time>2022-08-03T08:00:59Z</time>
      </trkpt>
      <trkpt lat="49.83013" lon="2.56274">
        <ele>76.1</ele>
        <time>2022-08-03T08:01:00Z</time>
      </trkpt>
      <trkpt lat="49.83013" lon="2.56276">
        <ele>76.1</ele>
        <time>2022-08-03T08:01:01Z</time>
      </trkpt>
      <trkpt lat="49.83014" lon="2.56278">
        <ele>76</ele>
        <time>2022-08-03T08:01:03Z</time>
      </trkpt>
      <trkpt lat="49.83014" lon="2.56279">
        <ele>76</ele>
        <time>2022-08-03T08:01:04Z</time>
      </trkpt>
      <trkpt lat="49.83014" lon="2.56281">
        <ele>76</ele>
        <time>2022-08-03T08:01:05Z</time>
      </trkpt>
      <trkpt lat="49.83014" lon="2.56283">
        <ele>76</ele>
        <time>2022-08-03T08:01:06Z</time>
      </trkpt>
      <trkpt lat="49.83014" lon="2.56284">
        <ele>76</ele>
        <time>2022-08-03T08:01:07Z</time>
      </trkpt>
      <trkpt lat="49.83014" lon="2.56286">
        <ele>76</ele>
        <time>2022-08-03T08:01:08Z</time>
      </trkpt>
      <trkpt lat="49.83013" lon="2.56288">
        <ele>76</ele>
        <time>2022-08-03T08:01:09Z</time>
      </trkpt>
      <trkpt lat="49.83013" lon="2.56291">
        <ele>75.9</ele>
        <time>2022-08-03T08:01:10Z</time>
      </trkpt>
      <trkpt lat="49.83013" lon="2.56293">
        <ele>75.9</ele>
        <time>2022-08-03T08:01:12Z</time>
      </trkpt>
      <trkpt lat="49.83012" lon="2.56294">
        <ele>75.9</ele>
        <time>2022-08-03T08:01:13Z</time>
      </trkpt>
      <trkpt lat="49.83012" lon="2.56296">
        <ele>75.9</ele>
        <time>2022-08-03T08:01:14Z</time>
      </trkpt>
      <trkpt lat="49.83012" lon="2.56297">
        <ele>75.9</ele>
        <time>2022-08-03T08:01:15Z</time>
      </trkpt>
      <trkpt lat="49.83012" lon="2.563">
        <ele>75.8</ele>
        <time>2022-08-03T08:01:17Z</time>
      </trkpt>
      <trkpt lat="49.83011" lon="2.56303">
        <ele>75.8</ele>
        <time>2022-08-03T08:01:18Z</time>
      </trkpt>
      <trkpt lat="49.83011" lon="2.56304">
        <ele>75.8</ele>
        <time>2022-08-03T08:01:19Z</time>
      </trkpt>
      <trkpt lat="49.83011" lon="2.56306">
        <ele>75.8</ele>
        <time>2022-08-03T08:01:20Z</time>
      </trkpt>
      <trkpt lat="49.83011" lon="2.56308">
        <ele>75.7</ele>
        <time>2022-08-03T08:01:21Z</time>
      </trkpt>
      <trkpt lat="49.83011" lon="2.5631">
        <ele>75.7</ele>
        <time>2022-08-03T08:01:23Z</time>
      </trkpt>
      <trkpt lat="49.83011" lon="2.56312">
        <ele>75.7</ele>
        <time>2022-08-03T08:01:24Z</time>
      </trkpt>
      <trkpt lat="49.83011" lon="2.56314">
        <ele>75.7</ele>
        <time>2022-08-03T08:01:25Z</time>
      </trkpt>
      <trkpt lat="49.83011" lon="2.56315">
        <ele>75.6</ele>
        <time>2022-08-03T08:01:26Z</time>
      </trkpt>
      <trkpt lat="49.83011" lon="2.56319">
        <ele>75.6</ele>
        <time>2022-08-03T08:01:27Z</time>
      </trkpt>
      <trkpt lat="49.83011" lon="2.5632">
        <ele>75.6</ele>
        <time>2022-08-03T08:01:28Z</time>
      </trkpt>
      <trkpt lat="49.83011" lon="2.56321">
        <ele>75.6</ele>
        <time>2022-08-03T08:01:29Z</time>
      </trkpt>
      <trkpt lat="49.83011" lon="2.56323">
        <ele>75.5</ele>
        <time>2022-08-03T08:01:30Z</time>
      </trkpt>
      <trkpt lat="49.83012" lon="2.56325">
        <ele>75.5</ele>
        <time>2022-08-03T08:01:31Z</time>
      </trkpt>
      <trkpt lat="49.83012" lon="2.56329">
        <ele>75.5</ele>
        <time>2022-08-03T08:01:33Z</time>
      </trkpt>
      <trkpt lat="49.83012" lon="2.56331">
        <ele>75.4</ele>
        <time>2022-08-03T08:01:35Z</time>
      </trkpt>
      <trkpt lat="49.83012" lon="2.56332">
        <ele>75.4</ele>
        <time>2022-08-03T08:01:36Z</time>
      </trkpt>
      <trkpt lat="49.83012" lon="2.56334">
        <ele>75.4</ele>
        <time>2022-08-03T08:01:37Z</time>
      </trkpt>
      <trkpt lat="49.83012" lon="2.56336">
        <ele>75.4</ele>
        <time>2022-08-03T08:01:38Z</time>
      </trkpt>
      <trkpt lat="49.83011" lon="2.56338">
        <ele>75.3</ele>
        <time>2022-08-03T08:01:39Z</time>
      </trkpt>
      <trkpt lat="49.83012" lon="2.56342">
        <ele>75.3</ele>
        <time>2022-08-03T08:01:40Z</time>
      </trkpt>
      <trkpt lat="49.83012" lon="2.56343">
        <ele>75.3</ele>
        <time>2022-08-03T08:01:42Z</time>
      </trkpt>
      <trkpt lat="49.83012" lon="2.56345">
        <ele>75.2</ele>
        <time>2022-08-03T08:01:43Z</time>
      </trkpt>
      <trkpt lat="49.83011" lon="2.56347">
        <ele>75.2</ele>
        <time>2022-08-03T08:01:44Z</time>
      </trkpt>
      <trkpt lat="49.83011" lon="2.56349">
        <ele>75.2</ele>
        <time>2022-08-03T08:01:45Z</time>
      </trkpt>
      <trkpt lat="49.83011" lon="2.5635">
        <ele>75.2</ele>
        <time>2022-08-03T08:01:46Z</time>
      </trkpt>
      <trkpt lat="49.83011" lon="2.56354">
        <ele>75.1</ele>
        <time>2022-08-03T08:01:47Z</time>
      </trkpt>
      <trkpt lat="49.83011" lon="2.56355">
        <ele>75.1</ele>
        <time>2022-08-03T08:01:48Z</time>
      </trkpt>
      <trkpt lat="49.83011" lon="2.56356">
        <ele>75.1</ele>
        <time>2022-08-03T08:01:49Z</time>
      </trkpt>
      <trkpt lat="49.83011" lon="2.5636">
        <ele>75</ele>
        <time>2022-08-03T08:01:51Z</time>
      </trkpt>
      <trkpt lat="49.83011" lon="2.56361">
        <ele>75</ele>
        <time>2022-08-03T08:01:52Z</time>
      </trkpt>
      <trkpt lat="49.83011" lon="2.56362">
        <ele>75</ele>
        <time>2022-08-03T08:01:53Z</time>
      </trkpt>
      <trkpt lat="49.83011" lon="2.56365">
        <ele>75</ele>
        <time>2022-08-03T08:01:54Z</time>
      </trkpt>
      <trkpt lat="49.83011" lon="2.56366">
        <ele>75</ele>
        <time>2022-08-03T08:01:55Z</time>
      </trkpt>
      <trkpt lat="49.83011" lon="2.56368">
        <ele>74.9</ele>
        <time>2022-08-03T08:01:56Z</time>
      </trkpt>
      <trkpt lat="49.83011" lon="2.5637">
        <ele>74.9</ele>
        <time>2022-08-03T08:01:57Z</time>
      </trkpt>
      <trkpt lat="49.83011" lon="2.56371">
        <ele>74.9</ele>
        <time>2022-08-03T08:01:58Z</time>
      </trkpt>
      <trkpt lat="49.83011" lon="2.56373">
        <ele>74.9</ele>
        <time>2022-08-03T08:02:00Z</time>
      </trkpt>
      <trkpt lat="49.83011" lon="2.56375">
        <ele>74.8</ele>
        <time>2022-08-03T08:02:01Z</time>
      </trkpt>
      <trkpt lat="49.8301" lon="2.56378">
        <ele>74.8</ele>
        <time>2022-08-03T08:02:02Z</time>
      </trkpt>
      <trkpt lat="49.8301" lon="2.56379">
        <ele>74.8</ele>
        <time>2022-08-03T08:02:03Z</time>
      </trkpt>
      <trkpt lat="49.8301" lon="2.56381">
        <ele>74.8</ele>
        <time>2022-08-03T08:02:05Z</time>
      </trkpt>
      <trkpt lat="49.8301" lon="2.56383">
        <ele>74.7</ele>
        <time>2022-08-03T08:02:06Z</time>
      </trkpt>
      <trkpt lat="49.8301" lon="2.56384">
        <ele>74.7</ele>
        <time>2022-08-03T08:02:07Z</time>
      </trkpt>
      <trkpt lat="49.8301" lon="2.56385">
        <ele>74.7</ele>
        <time>2022-08-03T08:02:08Z</time>
      </trkpt>
      <trkpt lat="49.8301" lon="2.56387">
        <ele>74.7</ele>
        <time>2022-08-03T08:02:09Z</time>
      </trkpt>
      <trkpt lat="49.83009" lon="2.5639">
        <ele>74.6</ele>
        <time>2022-08-03T08:02:10Z</time>
      </trkpt>
      <trkpt lat="49.83009" lon="2.56392">
        <ele>74.6</ele>
        <time>2022-08-03T08:02:11Z</time>
      </trkpt>
      <trkpt lat="49.83009" lon="2.56393">
        <ele>74.6</ele>
        <time>2022-08-03T08:02:12Z</time>
      </trkpt>
      <trkpt lat="49.83009" lon="2.56395">
        <ele>74.6</ele>
        <time>2022-08-03T08:02:13Z</time>
      </trkpt>
      <trkpt lat="49.83009" lon="2.56397">
        <ele>74.6</ele>
        <time>2022-08-03T08:02:15Z</time>
      </trkpt>
      <trkpt lat="49.83009" lon="2.56398">
        <ele>74.6</ele>
        <time>2022-08-03T08:02:16Z</time>
      </trkpt>
      <trkpt lat="49.83009" lon="2.564">
        <ele>74.5</ele>
        <time>2022-08-03T08:02:17Z</time>
      </trkpt>
      <trkpt lat="49.83009" lon="2.56402">
        <ele>74.5</ele>
        <time>2022-08-03T08:02:18Z</time>
      </trkpt>
      <trkpt lat="49.83009" lon="2.56404">
        <ele>74.5</ele>
        <time>2022-08-03T08:02:19Z</time>
      </trkpt>
      <trkpt lat="49.83008" lon="2.56405">
        <ele>74.5</ele>
        <time>2022-08-03T08:02:20Z</time>
      </trkpt>
      <trkpt lat="49.83008" lon="2.56407">
        <ele>74.5</ele>
        <time>2022-08-03T08:02:22Z</time>
      </trkpt>
      <trkpt lat="49.83008" lon="2.56409">
        <ele>74.5</ele>
        <time>2022-08-03T08:02:23Z</time>
      </trkpt>
      <trkpt lat="49.83008" lon="2.5641">
        <ele>74.4</ele>
        <time>2022-08-03T08:02:24Z</time>
      </trkpt>
      <trkpt lat="49.83008" lon="2.56412">
        <ele>74.4</ele>
        <time>2022-08-03T08:02:25Z</time>
      </trkpt>
      <trkpt lat="49.83008" lon="2.56414">
        <ele>74.4</ele>
        <time>2022-08-03T08:02:26Z</time>
      </trkpt>
      <trkpt lat="49.83008" lon="2.56416">
        <ele>74.4</ele>
        <time>2022-08-03T08:02:27Z</time>
      </trkpt>
      <trkpt lat="49.83008" lon="2.56418">
        <ele>74.4</ele>
        <time>2022-08-03T08:02:28Z</time>
      </trkpt>
      <trkpt lat="49.83008" lon="2.56419">
        <ele>74.4</ele>
        <time>2022-08-03T08:02:30Z</time>
      </trkpt>
      <trkpt lat="49.83008" lon="2.56421">
        <ele>74.4</ele>
        <time>2022-08-03T08:02:31Z</time>
      </trkpt>
      <trkpt lat="49.83008" lon="2.56423">
        <ele>74.4</ele>
        <time>2022-08-03T08:02:32Z</time>
      </trkpt>
      <trkpt lat="49.83008" lon="2.56425">
        <ele>74.4</ele>
        <time>2022-08-03T08:02:33Z</time>
      </trkpt>
      <trkpt lat="49.83008" lon="2.56427">
        <ele>74.4</ele>
        <time>2022-08-03T08:02:34Z</time>
      </trkpt>
      <trkpt lat="49.83008" lon="2.56429">
        <ele>74.3</ele>
        <time>2022-08-03T08:02:35Z</time>
      </trkpt>
      <trkpt lat="49.83008" lon="2.56431">
        <ele>74.3</ele>
        <time>2022-08-03T08:02:36Z</time>
      </trkpt>
      <trkpt lat="49.83008" lon="2.56432">
        <ele>74.3</ele>
        <time>2022-08-03T08:02:37Z</time>
      </trkpt>
      <trkpt lat="49.83008" lon="2.56434">
        <ele>74.3</ele>
        <time>2022-08-03T08:02:38Z</time>
      </trkpt>
      <trkpt lat="49.83008" lon="2.56436">
        <ele>74.3</ele>
        <time>2022-08-03T08:02:39Z</time>
      </trkpt>
      <trkpt lat="49.83008" lon="2.56438">
        <ele>74.3</ele>
        <time>2022-08-03T08:02:40Z</time>
      </trkpt>
      <trkpt lat="49.83008" lon="2.5644">
        <ele>74.3</ele>
        <time>2022-08-03T08:02:42Z</time>
      </trkpt>
      <trkpt lat="49.83008" lon="2.56442">
        <ele>74.3</ele>
        <time>2022-08-03T08:02:43Z</time>
      </trkpt>
      <trkpt lat="49.83008" lon="2.56444">
        <ele>74.3</ele>
        <time>2022-08-03T08:02:44Z</time>
      </trkpt>
      <trkpt lat="49.83007" lon="2.56445">
        <ele>74.3</ele>
        <time>2022-08-03T08:02:45Z</time>
      </trkpt>
      <trkpt lat="49.83007" lon="2.56447">
        <ele>74.3</ele>
        <time>2022-08-03T08:02:46Z</time>
      </trkpt>
      <trkpt lat="49.83007" lon="2.56449">
        <ele>74.2</ele>
        <time>2022-08-03T08:02:47Z</time>
      </trkpt>
      <trkpt lat="49.83007" lon="2.56452">
        <ele>74.2</ele>
        <time>2022-08-03T08:02:49Z</time>
      </trkpt>
      <trkpt lat="49.83006" lon="2.56453">
        <ele>74.2</ele>
        <time>2022-08-03T08:02:50Z</time>
      </trkpt>
      <trkpt lat="49.83006" lon="2.56455">
        <ele>74.2</ele>
        <time>2022-08-03T08:02:51Z</time>
      </trkpt>
      <trkpt lat="49.83006" lon="2.56456">
        <ele>74.2</ele>
        <time>2022-08-03T08:02:52Z</time>
      </trkpt>
      <trkpt lat="49.83005" lon="2.5646">
        <ele>74.2</ele>
        <time>2022-08-03T08:02:53Z</time>
      </trkpt>
      <trkpt lat="49.83005" lon="2.56461">
        <ele>74.2</ele>
        <time>2022-08-03T08:02:54Z</time>
      </trkpt>
      <trkpt lat="49.83005" lon="2.56462">
        <ele>74.2</ele>
        <time>2022-08-03T08:02:55Z</time>
      </trkpt>
      <trkpt lat="49.83005" lon="2.56464">
        <ele>74.2</ele>
        <time>2022-08-03T08:02:56Z</time>
      </trkpt>
      <trkpt lat="49.83005" lon="2.56466">
        <ele>74.2</ele>
        <time>2022-08-03T08:02:57Z</time>
      </trkpt>
      <trkpt lat="49.83005" lon="2.56468">
        <ele>74.2</ele>
        <time>2022-08-03T08:02:59Z</time>
      </trkpt>
      <trkpt lat="49.83005" lon="2.5647">
        <ele>74.2</ele>
        <time>2022-08-03T08:03:00Z</time>
      </trkpt>
      <trkpt lat="49.83005" lon="2.56471">
        <ele>74.2</ele>
        <time>2022-08-03T08:03:01Z</time>
      </trkpt>
      <trkpt lat="49.83005" lon="2.56473">
        <ele>74.2</ele>
        <time>2022-08-03T08:03:02Z</time>
      </trkpt>
      <trkpt lat="49.83005" lon="2.56474">
        <ele>74.2</ele>
        <time>2022-08-03T08:03:03Z</time>
      </trkpt>
      <trkpt lat="49.83005" lon="2.56476">
        <ele>74.2</ele>
        <time>2022-08-03T08:03:04Z</time>
      </trkpt>
      <trkpt lat="49.83005" lon="2.56479">
        <ele>74.2</ele>
        <time>2022-08-03T08:03:06Z</time>
      </trkpt>
      <trkpt lat="49.83005" lon="2.56482">
        <ele>74.2</ele>
        <time>2022-08-03T08:03:07Z</time>
      </trkpt>
      <trkpt lat="49.83005" lon="2.56483">
        <ele>74.2</ele>
        <time>2022-08-03T08:03:08Z</time>
      </trkpt>
      <trkpt lat="49.83005" lon="2.56484">
        <ele>74.2</ele>
        <time>2022-08-03T08:03:09Z</time>
      </trkpt>
      <trkpt lat="49.83005" lon="2.56488">
        <ele>74.2</ele>
        <time>2022-08-03T08:03:10Z</time>
      </trkpt>
      <trkpt lat="49.83005" lon="2.56489">
        <ele>74.2</ele>
        <time>2022-08-03T08:03:11Z</time>
      </trkpt>
      <trkpt lat="49.83005" lon="2.5649">
        <ele>74.2</ele>
        <time>2022-08-03T08:03:12Z</time>
      </trkpt>
      <trkpt lat="49.83005" lon="2.56492">
        <ele>74.2</ele>
        <time>2022-08-03T08:03:13Z</time>
      </trkpt>
      <trkpt lat="49.83005" lon="2.56494">
        <ele>74.2</ele>
        <time>2022-08-03T08:03:14Z</time>
      </trkpt>
      <trkpt lat="49.83005" lon="2.56496">
        <ele>74.2</ele>
        <time>2022-08-03T08:03:16Z</time>
      </trkpt>
      <trkpt lat="49.83005" lon="2.56498">
        <ele>74.2</ele>
        <time>2022-08-03T08:03:17Z</time>
      </trkpt>
      <trkpt lat="49.83005" lon="2.56499">
        <ele>74.2</ele>
        <time>2022-08-03T08:03:18Z</time>
      </trkpt>
      <trkpt lat="49.83005" lon="2.56501">
        <ele>74.2</ele>
        <time>2022-08-03T08:03:19Z</time>
      </trkpt>
      <trkpt lat="49.83004" lon="2.56504">
        <ele>74.2</ele>
        <time>2022-08-03T08:03:20Z</time>
      </trkpt>
      <trkpt lat="49.83004" lon="2.56505">
        <ele>74.2</ele>
        <time>2022-08-03T08:03:21Z</time>
      </trkpt>
      <trkpt lat="49.83004" lon="2.56507">
        <ele>74.2</ele>
        <time>2022-08-03T08:03:22Z</time>
      </trkpt>
      <trkpt lat="49.83004" lon="2.56509">
        <ele>74.2</ele>
        <time>2022-08-03T08:03:23Z</time>
      </trkpt>
      <trkpt lat="49.83004" lon="2.5651">
        <ele>74.2</ele>
        <time>2022-08-03T08:03:24Z</time>
      </trkpt>
      <trkpt lat="49.83004" lon="2.56511">
        <ele>74.2</ele>
        <time>2022-08-03T08:03:25Z</time>
      </trkpt>
      <trkpt lat="49.83004" lon="2.56513">
        <ele>74.2</ele>
        <time>2022-08-03T08:03:26Z</time>
      </trkpt>
      <trkpt lat="49.83004" lon="2.56515">
        <ele>74.2</ele>
        <time>2022-08-03T08:03:27Z</time>
      </trkpt>
      <trkpt lat="49.83004" lon="2.56517">
        <ele>74.2</ele>
        <time>2022-08-03T08:03:29Z</time>
      </trkpt>
      <trkpt lat="49.83004" lon="2.56521">
        <ele>74.2</ele>
        <time>2022-08-03T08:03:30Z</time>
      </trkpt>
      <trkpt lat="49.83004" lon="2.56522">
        <ele>74.2</ele>
        <time>2022-08-03T08:03:31Z</time>
      </trkpt>
      <trkpt lat="49.83004" lon="2.56524">
        <ele>74.2</ele>
        <time>2022-08-03T08:03:32Z</time>
      </trkpt>
      <trkpt lat="49.83004" lon="2.56526">
        <ele>74.2</ele>
        <time>2022-08-03T08:03:33Z</time>
      </trkpt>
      <trkpt lat="49.83004" lon="2.56527">
        <ele>74.2</ele>
        <time>2022-08-03T08:03:34Z</time>
      </trkpt>
      <trkpt lat="49.83004" lon="2.56529">
        <ele>74.2</ele>
        <time>2022-08-03T08:03:35Z</time>
      </trkpt>
      <trkpt lat="49.83004" lon="2.56531">
        <ele>74.2</ele>
        <time>2022-08-03T08:03:36Z</time>
      </trkpt>
      <trkpt lat="49.83004" lon="2.56533">
        <ele>74.2</ele>
        <time>2022-08-03T08:03:38Z</time>
      </trkpt>
      <trkpt lat="49.83004" lon="2.56535">
        <ele>74.2</ele>
        <time>2022-08-03T08:03:39Z</time>
      </trkpt>
      <trkpt lat="49.83004" lon="2.56536">
        <ele>74.2</ele>
        <time>2022-08-03T08:03:40Z</time>
      </trkpt>
      <trkpt lat="49.83005" lon="2.56538">
        <ele>74.2</ele>
        <time>2022-08-03T08:03:42Z</time>
      </trkpt>
      <trkpt lat="49.83005" lon="2.56539">
        <ele>74.2</ele>
        <time>2022-08-03T08:03:43Z</time>
      </trkpt>
      <trkpt lat="49.83005" lon="2.56541">
        <ele>74.2</ele>
        <time>2022-08-03T08:03:44Z</time>
      </trkpt>
      <trkpt lat="49.83005" lon="2.56543">
        <ele>74.2</ele>
        <time>2022-08-03T08:03:45Z</time>
      </trkpt>
      <trkpt lat="49.83004" lon="2.56545">
        <ele>74.2</ele>
        <time>2022-08-03T08:03:46Z</time>
      </trkpt>
      <trkpt lat="49.83004" lon="2.56547">
        <ele>74.3</ele>
        <time>2022-08-03T08:03:47Z</time>
      </trkpt>
      <trkpt lat="49.83004" lon="2.56549">
        <ele>74.3</ele>
        <time>2022-08-03T08:03:48Z</time>
      </trkpt>
      <trkpt lat="49.83004" lon="2.56551">
        <ele>74.3</ele>
        <time>2022-08-03T08:03:49Z</time>
      </trkpt>
      <trkpt lat="49.83004" lon="2.56553">
        <ele>74.3</ele>
        <time>2022-08-03T08:03:50Z</time>
      </trkpt>
      <trkpt lat="49.83004" lon="2.56555">
        <ele>74.3</ele>
        <time>2022-08-03T08:03:52Z</time>
      </trkpt>
      <trkpt lat="49.83004" lon="2.56558">
        <ele>74.3</ele>
        <time>2022-08-03T08:03:53Z</time>
      </trkpt>
      <trkpt lat="49.83003" lon="2.56559">
        <ele>74.3</ele>
        <time>2022-08-03T08:03:54Z</time>
      </trkpt>
      <trkpt lat="49.83003" lon="2.56561">
        <ele>74.3</ele>
        <time>2022-08-03T08:03:55Z</time>
      </trkpt>
      <trkpt lat="49.83003" lon="2.56563">
        <ele>74.3</ele>
        <time>2022-08-03T08:03:56Z</time>
      </trkpt>
      <trkpt lat="49.83003" lon="2.56565">
        <ele>74.4</ele>
        <time>2022-08-03T08:03:57Z</time>
      </trkpt>
      <trkpt lat="49.83003" lon="2.56567">
        <ele>74.4</ele>
        <time>2022-08-03T08:03:58Z</time>
      </trkpt>
      <trkpt lat="49.83003" lon="2.56568">
        <ele>74.4</ele>
        <time>2022-08-03T08:03:59Z</time>
      </trkpt>
      <trkpt lat="49.83003" lon="2.5657">
        <ele>74.4</ele>
        <time>2022-08-03T08:04:00Z</time>
      </trkpt>
      <trkpt lat="49.83003" lon="2.56572">
        <ele>74.4</ele>
        <time>2022-08-03T08:04:02Z</time>
      </trkpt>
      <trkpt lat="49.83003" lon="2.56574">
        <ele>74.4</ele>
        <time>2022-08-03T08:04:03Z</time>
      </trkpt>
      <trkpt lat="49.83003" lon="2.56575">
        <ele>74.4</ele>
        <time>2022-08-03T08:04:04Z</time>
      </trkpt>
      <trkpt lat="49.83003" lon="2.56577">
        <ele>74.4</ele>
        <time>2022-08-03T08:04:05Z</time>
      </trkpt>
      <trkpt lat="49.83003" lon="2.56579">
        <ele>74.5</ele>
        <time>2022-08-03T08:04:06Z</time>
      </trkpt>
      <trkpt lat="49.83003" lon="2.56581">
        <ele>74.5</ele>
        <time>2022-08-03T08:04:07Z</time>
      </trkpt>
      <trkpt lat="49.83003" lon="2.56582">
        <ele>74.5</ele>
        <time>2022-08-03T08:04:08Z</time>
      </trkpt>
      <trkpt lat="49.83003" lon="2.56584">
        <ele>74.5</ele>
        <time>2022-08-03T08:04:09Z</time>
      </trkpt>
      <trkpt lat="49.83003" lon="2.56586">
        <ele>74.5</ele>
        <time>2022-08-03T08:04:11Z</time>
      </trkpt>
      <trkpt lat="49.83003" lon="2.56588">
        <ele>74.5</ele>
        <time>2022-08-03T08:04:12Z</time>
      </trkpt>
      <trkpt lat="49.83003" lon="2.5659">
        <ele>74.5</ele>
        <time>2022-08-03T08:04:13Z</time>
      </trkpt>
      <trkpt lat="49.83003" lon="2.56593">
        <ele>74.6</ele>
        <time>2022-08-03T08:04:14Z</time>
      </trkpt>
      <trkpt lat="49.83003" lon="2.56594">
        <ele>74.6</ele>
        <time>2022-08-03T08:04:15Z</time>
      </trkpt>
      <trkpt lat="49.83003" lon="2.56596">
        <ele>74.6</ele>
        <time>2022-08-03T08:04:16Z</time>
      </trkpt>
      <trkpt lat="49.83003" lon="2.56598">
        <ele>74.6</ele>
        <time>2022-08-03T08:04:18Z</time>
      </trkpt>
      <trkpt lat="49.83003" lon="2.56599">
        <ele>74.6</ele>
        <time>2022-08-03T08:04:19Z</time>
      </trkpt>
      <trkpt lat="49.83003" lon="2.56601">
        <ele>74.6</ele>
        <time>2022-08-03T08:04:20Z</time>
      </trkpt>
      <trkpt lat="49.83003" lon="2.56603">
        <ele>74.7</ele>
        <time>2022-08-03T08:04:21Z</time>
      </trkpt>
      <trkpt lat="49.83003" lon="2.56605">
        <ele>74.7</ele>
        <time>2022-08-03T08:04:22Z</time>
      </trkpt>
      <trkpt lat="49.83003" lon="2.56607">
        <ele>74.7</ele>
        <time>2022-08-03T08:04:23Z</time>
      </trkpt>
      <trkpt lat="49.83003" lon="2.56609">
        <ele>74.7</ele>
        <time>2022-08-03T08:04:24Z</time>
      </trkpt>
      <trkpt lat="49.83003" lon="2.56611">
        <ele>74.7</ele>
        <time>2022-08-03T08:04:26Z</time>
      </trkpt>
      <trkpt lat="49.83004" lon="2.56612">
        <ele>74.7</ele>
        <time>2022-08-03T08:04:27Z</time>
      </trkpt>
      <trkpt lat="49.83004" lon="2.56614">
        <ele>74.7</ele>
        <time>2022-08-03T08:04:28Z</time>
      </trkpt>
      <trkpt lat="49.83004" lon="2.56615">
        <ele>74.7</ele>
        <time>2022-08-03T08:04:29Z</time>
      </trkpt>
      <trkpt lat="49.83004" lon="2.56617">
        <ele>74.8</ele>
        <time>2022-08-03T08:04:30Z</time>
      </trkpt>
      <trkpt lat="49.83004" lon="2.5662">
        <ele>74.8</ele>
        <time>2022-08-03T08:04:32Z</time>
      </trkpt>
      <trkpt lat="49.83004" lon="2.56622">
        <ele>74.8</ele>
        <time>2022-08-03T08:04:33Z</time>
      </trkpt>
      <trkpt lat="49.83005" lon="2.56625">
        <ele>74.8</ele>
        <time>2022-08-03T08:04:34Z</time>
      </trkpt>
      <trkpt lat="49.83005" lon="2.56626">
        <ele>74.8</ele>
        <time>2022-08-03T08:04:35Z</time>
      </trkpt>
      <trkpt lat="49.83005" lon="2.56627">
        <ele>74.8</ele>
        <time>2022-08-03T08:04:36Z</time>
      </trkpt>
      <trkpt lat="49.83005" lon="2.56629">
        <ele>74.8</ele>
        <time>2022-08-03T08:04:37Z</time>
      </trkpt>
      <trkpt lat="49.83005" lon="2.5663">
        <ele>74.8</ele>
        <time>2022-08-03T08:04:38Z</time>
      </trkpt>
      <trkpt lat="49.83005" lon="2.56632">
        <ele>74.8</ele>
        <time>2022-08-03T08:04:39Z</time>
      </trkpt>
      <trkpt lat="49.83006" lon="2.56633">
        <ele>74.8</ele>
        <time>2022-08-03T08:04:40Z</time>
      </trkpt>
      <trkpt lat="49.83006" lon="2.56635">
        <ele>74.8</ele>
        <time>2022-08-03T08:04:42Z</time>
      </trkpt>
      <trkpt lat="49.83006" lon="2.56637">
        <ele>74.8</ele>
        <time>2022-08-03T08:04:43Z</time>
      </trkpt>
      <trkpt lat="49.83006" lon="2.5664">
        <ele>74.8</ele>
        <time>2022-08-03T08:04:44Z</time>
      </trkpt>
      <trkpt lat="49.83007" lon="2.56642">
        <ele>74.8</ele>
        <time>2022-08-03T08:04:45Z</time>
      </trkpt>
      <trkpt lat="49.83007" lon="2.56644">
        <ele>74.8</ele>
        <time>2022-08-03T08:04:46Z</time>
      </trkpt>
      <trkpt lat="49.83007" lon="2.56647">
        <ele>74.8</ele>
        <time>2022-08-03T08:04:47Z</time>
      </trkpt>
      <trkpt lat="49.83007" lon="2.56648">
        <ele>74.8</ele>
        <time>2022-08-03T08:04:48Z</time>
      </trkpt>
      <trkpt lat="49.83007" lon="2.56649">
        <ele>74.8</ele>
        <time>2022-08-03T08:04:49Z</time>
      </trkpt>
      <trkpt lat="49.83008" lon="2.56652">
        <ele>74.8</ele>
        <time>2022-08-03T08:04:50Z</time>
      </trkpt>
      <trkpt lat="49.83008" lon="2.56654">
        <ele>74.8</ele>
        <time>2022-08-03T08:04:52Z</time>
      </trkpt>
      <trkpt lat="49.83008" lon="2.56655">
        <ele>74.8</ele>
        <time>2022-08-03T08:04:53Z</time>
      </trkpt>
      <trkpt lat="49.83008" lon="2.56656">
        <ele>74.8</ele>
        <time>2022-08-03T08:04:54Z</time>
      </trkpt>
      <trkpt lat="49.83008" lon="2.56658">
        <ele>74.8</ele>
        <time>2022-08-03T08:04:55Z</time>
      </trkpt>
      <trkpt lat="49.83008" lon="2.5666">
        <ele>74.8</ele>
        <time>2022-08-03T08:04:56Z</time>
      </trkpt>
      <trkpt lat="49.83008" lon="2.56662">
        <ele>74.8</ele>
        <time>2022-08-03T08:04:57Z</time>
      </trkpt>
      <trkpt lat="49.83008" lon="2.56663">
        <ele>74.8</ele>
        <time>2022-08-03T08:04:58Z</time>
      </trkpt>
      <trkpt lat="49.83008" lon="2.56665">
        <ele>74.8</ele>
        <time>2022-08-03T08:04:59Z</time>
      </trkpt>
      <trkpt lat="49.83009" lon="2.56667">
        <ele>74.7</ele>
        <time>2022-08-03T08:05:00Z</time>
      </trkpt>
      <trkpt lat="49.83009" lon="2.56669">
        <ele>74.7</ele>
        <time>2022-08-03T08:05:02Z</time>
      </trkpt>
      <trkpt lat="49.83009" lon="2.56671">
        <ele>74.7</ele>
        <time>2022-08-03T08:05:03Z</time>
      </trkpt>
      <trkpt lat="49.83008" lon="2.56673">
        <ele>74.7</ele>
        <time>2022-08-03T08:05:04Z</time>
      </trkpt>
      <trkpt lat="49.83008" lon="2.56675">
        <ele>74.7</ele>
        <time>2022-08-03T08:05:05Z</time>
      </trkpt>
      <trkpt lat="49.83008" lon="2.56676">
        <ele>74.7</ele>
        <time>2022-08-03T08:05:06Z</time>
      </trkpt>
      <trkpt lat="49.83007" lon="2.56679">
        <ele>74.7</ele>
        <time>2022-08-03T08:05:07Z</time>
      </trkpt>
      <trkpt lat="49.83007" lon="2.56681">
        <ele>74.7</ele>
        <time>2022-08-03T08:05:09Z</time>
      </trkpt>
      <trkpt lat="49.83007" lon="2.56682">
        <ele>74.7</ele>
        <time>2022-08-03T08:05:10Z</time>
      </trkpt>
      <trkpt lat="49.83006" lon="2.56684">
        <ele>74.6</ele>
        <time>2022-08-03T08:05:11Z</time>
      </trkpt>
      <trkpt lat="49.83006" lon="2.56686">
        <ele>74.6</ele>
        <time>2022-08-03T08:05:12Z</time>
      </trkpt>
      <trkpt lat="49.83006" lon="2.56687">
        <ele>74.6</ele>
        <time>2022-08-03T08:05:13Z</time>
      </trkpt>
      <trkpt lat="49.83006" lon="2.56689">
        <ele>74.6</ele>
        <time>2022-08-03T08:05:14Z</time>
      </trkpt>
      <trkpt lat="49.83006" lon="2.56691">
        <ele>74.6</ele>
        <time>2022-08-03T08:05:16Z</time>
      </trkpt>
      <trkpt lat="49.83006" lon="2.56692">
        <ele>74.6</ele>
        <time>2022-08-03T08:05:17Z</time>
      </trkpt>
      <trkpt lat="49.83006" lon="2.56694">
        <ele>74.6</ele>
        <time>2022-08-03T08:05:18Z</time>
      </trkpt>
      <trkpt lat="49.83006" lon="2.56696">
        <ele>74.6</ele>
        <time>2022-08-03T08:05:19Z</time>
      </trkpt>
      <trkpt lat="49.83005" lon="2.56699">
        <ele>74.5</ele>
        <time>2022-08-03T08:05:20Z</time>
      </trkpt>
      <trkpt lat="49.83005" lon="2.567">
        <ele>74.5</ele>
        <time>2022-08-03T08:05:21Z</time>
      </trkpt>
      <trkpt lat="49.83005" lon="2.56701">
        <ele>74.5</ele>
        <time>2022-08-03T08:05:22Z</time>
      </trkpt>
      <trkpt lat="49.83005" lon="2.56703">
        <ele>74.5</ele>
        <time>2022-08-03T08:05:23Z</time>
      </trkpt>
      <trkpt lat="49.83005" lon="2.56706">
        <ele>74.5</ele>
        <time>2022-08-03T08:05:24Z</time>
      </trkpt>
      <trkpt lat="49.83006" lon="2.56708">
        <ele>74.5</ele>
        <time>2022-08-03T08:05:25Z</time>
      </trkpt>
      <trkpt lat="49.83006" lon="2.5671">
        <ele>74.4</ele>
        <time>2022-08-03T08:05:26Z</time>
      </trkpt>
      <trkpt lat="49.83006" lon="2.56712">
        <ele>74.4</ele>
        <time>2022-08-03T08:05:28Z</time>
      </trkpt>
      <trkpt lat="49.83006" lon="2.56714">
        <ele>74.4</ele>
        <time>2022-08-03T08:05:29Z</time>
      </trkpt>
      <trkpt lat="49.83006" lon="2.56715">
        <ele>74.4</ele>
        <time>2022-08-03T08:05:30Z</time>
      </trkpt>
      <trkpt lat="49.83007" lon="2.56717">
        <ele>74.4</ele>
        <time>2022-08-03T08:05:31Z</time>
      </trkpt>
      <trkpt lat="49.83007" lon="2.56718">
        <ele>74.3</ele>
        <time>2022-08-03T08:05:32Z</time>
      </trkpt>
      <trkpt lat="49.83007" lon="2.5672">
        <ele>74.3</ele>
        <time>2022-08-03T08:05:33Z</time>
      </trkpt>
      <trkpt lat="49.83007" lon="2.56722">
        <ele>74.3</ele>
        <time>2022-08-03T08:05:34Z</time>
      </trkpt>
      <trkpt lat="49.83008" lon="2.56724">
        <ele>74.3</ele>
        <time>2022-08-03T08:05:36Z</time>
      </trkpt>
      <trkpt lat="49.83008" lon="2.56726">
        <ele>74.3</ele>
        <time>2022-08-03T08:05:37Z</time>
      </trkpt>
      <trkpt lat="49.83008" lon="2.56727">
        <ele>74.2</ele>
        <time>2022-08-03T08:05:38Z</time>
      </trkpt>
      <trkpt lat="49.83008" lon="2.56728">
        <ele>74.2</ele>
        <time>2022-08-03T08:05:39Z</time>
      </trkpt>
      <trkpt lat="49.83009" lon="2.5673">
        <ele>74.2</ele>
        <time>2022-08-03T08:05:40Z</time>
      </trkpt>
      <trkpt lat="49.83009" lon="2.56731">
        <ele>74.2</ele>
        <time>2022-08-03T08:05:41Z</time>
      </trkpt>
      <trkpt lat="49.83009" lon="2.56733">
        <ele>74.2</ele>
        <time>2022-08-03T08:05:42Z</time>
      </trkpt>
      <trkpt lat="49.8301" lon="2.56735">
        <ele>74.1</ele>
        <time>2022-08-03T08:05:43Z</time>
      </trkpt>
      <trkpt lat="49.8301" lon="2.56736">
        <ele>74.1</ele>
        <time>2022-08-03T08:05:45Z</time>
      </trkpt>
      <trkpt lat="49.8301" lon="2.56738">
        <ele>74.1</ele>
        <time>2022-08-03T08:05:46Z</time>
      </trkpt>
      <trkpt lat="49.8301" lon="2.56739">
        <ele>74.1</ele>
        <time>2022-08-03T08:05:47Z</time>
      </trkpt>
      <trkpt lat="49.83011" lon="2.5674">
        <ele>74.1</ele>
        <time>2022-08-03T08:05:48Z</time>
      </trkpt>
      <trkpt lat="49.8301" lon="2.56741">
        <ele>74.1</ele>
        <time>2022-08-03T08:05:49Z</time>
      </trkpt>
      <trkpt lat="49.8301" lon="2.56743">
        <ele>74</ele>
        <time>2022-08-03T08:05:50Z</time>
      </trkpt>
      <trkpt lat="49.83009" lon="2.56744">
        <ele>74</ele>
        <time>2022-08-03T08:05:51Z</time>
      </trkpt>
      <trkpt lat="49.83008" lon="2.56746">
        <ele>74</ele>
        <time>2022-08-03T08:05:53Z</time>
      </trkpt>
      <trkpt lat="49.83009" lon="2.56747">
        <ele>74</ele>
        <time>2022-08-03T08:05:54Z</time>
      </trkpt>
      <trkpt lat="49.83009" lon="2.56748">
        <ele>73.9</ele>
        <time>2022-08-03T08:05:55Z</time>
      </trkpt>
      <trkpt lat="49.8301" lon="2.56747">
        <ele>73.9</ele>
        <time>2022-08-03T08:05:56Z</time>
      </trkpt>
      <trkpt lat="49.83011" lon="2.56747">
        <ele>73.9</ele>
        <time>2022-08-03T08:05:57Z</time>
      </trkpt>
      <trkpt lat="49.83011" lon="2.56746">
        <ele>73.9</ele>
        <time>2022-08-03T08:05:58Z</time>
      </trkpt>
      <trkpt lat="49.83011" lon="2.56746">
        <ele>73.9</ele>
        <time>2022-08-03T08:05:59Z</time>
      </trkpt>
      <trkpt lat="49.83011" lon="2.56746">
        <ele>73.9</ele>
        <time>2022-08-03T08:06:00Z</time>
      </trkpt>
      <trkpt lat="49.83011" lon="2.56745">
        <ele>73.9</ele>
        <time>2022-08-03T08:06:01Z</time>
      </trkpt>
      <trkpt lat="49.83011" lon="2.56745">
        <ele>73.9</ele>
        <time>2022-08-03T08:06:02Z</time>
      </trkpt>
      <trkpt lat="49.83011" lon="2.56745">
        <ele>73.9</ele>
        <time>2022-08-03T08:06:03Z</time>
      </trkpt>
      <trkpt lat="49.83011" lon="2.56745">
        <ele>73.9</ele>
        <time>2022-08-03T08:06:04Z</time>
      </trkpt>
      <trkpt lat="49.83011" lon="2.56745">
        <ele>73.9</ele>
        <time>2022-08-03T08:06:05Z</time>
      </trkpt>
      <trkpt lat="49.83011" lon="2.56745">
        <ele>73.9</ele>
        <time>2022-08-03T08:06:06Z</time>
      </trkpt>
      <trkpt lat="49.83011" lon="2.56745">
        <ele>73.9</ele>
        <time>2022-08-03T08:06:07Z</time>
      </trkpt>
      <trkpt lat="49.83011" lon="2.56744">
        <ele>73.9</ele>
        <time>2022-08-03T08:06:08Z</time>
      </trkpt>
      <trkpt lat="49.83011" lon="2.56744">
        <ele>73.9</ele>
        <time>2022-08-03T08:06:09Z</time>
      </trkpt>
      <trkpt lat="49.83011" lon="2.56744">
        <ele>73.9</ele>
        <time>2022-08-03T08:06:10Z</time>
      </trkpt>
      <trkpt lat="49.83011" lon="2.56744">
        <ele>73.9</ele>
        <time>2022-08-03T08:06:12Z</time>
      </trkpt>
      <trkpt lat="49.83011" lon="2.56745">
        <ele>73.8</ele>
        <time>2022-08-03T08:06:13Z</time>
      </trkpt>
      <trkpt lat="49.8301" lon="2.56745">
        <ele>73.8</ele>
        <time>2022-08-03T08:06:14Z</time>
      </trkpt>
      <trkpt lat="49.8301" lon="2.56745">
        <ele>73.8</ele>
        <time>2022-08-03T08:06:15Z</time>
      </trkpt>
      <trkpt lat="49.8301" lon="2.56745">
        <ele>73.8</ele>
        <time>2022-08-03T08:06:16Z</time>
      </trkpt>
      <trkpt lat="49.8301" lon="2.56745">
        <ele>73.8</ele>
        <time>2022-08-03T08:06:17Z</time>
      </trkpt>
      <trkpt lat="49.8301" lon="2.56745">
        <ele>73.8</ele>
        <time>2022-08-03T08:06:18Z</time>
      </trkpt>
      <trkpt lat="49.8301" lon="2.56745">
        <ele>73.8</ele>
        <time>2022-08-03T08:06:19Z</time>
      </trkpt>
      <trkpt lat="49.8301" lon="2.56745">
        <ele>73.8</ele>
        <time>2022-08-03T08:06:20Z</time>
      </trkpt>
      <trkpt lat="49.8301" lon="2.56745">
        <ele>73.8</ele>
        <time>2022-08-03T08:06:21Z</time>
      </trkpt>
      <trkpt lat="49.8301" lon="2.56745">
        <ele>73.8</ele>
        <time>2022-08-03T08:06:22Z</time>
      </trkpt>
      <trkpt lat="49.8301" lon="2.56745">
        <ele>73.8</ele>
        <time>2022-08-03T08:06:23Z</time>
      </trkpt>
      <trkpt lat="49.8301" lon="2.56745">
        <ele>73.8</ele>
        <time>2022-08-03T08:06:24Z</time>
      </trkpt>
      <trkpt lat="49.8301" lon="2.56745">
        <ele>73.8</ele>
        <time>2022-08-03T08:06:25Z</time>
      </trkpt>
      <trkpt lat="49.8301" lon="2.56745">
        <ele>73.8</ele>
        <time>2022-08-03T08:06:26Z</time>
      </trkpt>
      <trkpt lat="49.8301" lon="2.56745">
        <ele>73.8</ele>
        <time>2022-08-03T08:06:27Z</time>
      </trkpt>
      <trkpt lat="49.8301" lon="2.56745">
        <ele>73.8</ele>
        <time>2022-08-03T08:06:28Z</time>
      </trkpt>
      <trkpt lat="49.8301" lon="2.56745">
        <ele>73.8</ele>
        <time>2022-08-03T08:06:29Z</time>
      </trkpt>
      <trkpt lat="49.8301" lon="2.56745">
        <ele>73.8</ele>
        <time>2022-08-03T08:06:30Z</time>
      </trkpt>
      <trkpt lat="49.8301" lon="2.56745">
        <ele>73.8</ele>
        <time>2022-08-03T08:06:31Z</time>
      </trkpt>
      <trkpt lat="49.8301" lon="2.56745">
        <ele>73.8</ele>
        <time>2022-08-03T08:06:32Z</time>
      </trkpt>
      <trkpt lat="49.8301" lon="2.56745">
        <ele>73.8</ele>
        <time>2022-08-03T08:06:33Z</time>
      </trkpt>
      <trkpt lat="49.8301" lon="2.56745">
        <ele>73.8</ele>
        <time>2022-08-03T08:06:34Z</time>
      </trkpt>
      <trkpt lat="49.8301" lon="2.56745">
        <ele>73.8</ele>
        <time>2022-08-03T08:06:35Z</time>
      </trkpt>
      <trkpt lat="49.8301" lon="2.56745">
        <ele>73.8</ele>
        <time>2022-08-03T08:06:36Z</time>
      </trkpt>
      <trkpt lat="49.8301" lon="2.56745">
        <ele>73.8</ele>
        <time>2022-08-03T08:06:37Z</time>
      </trkpt>
      <trkpt lat="49.8301" lon="2.56745">
        <ele>73.8</ele>
        <time>2022-08-03T08:06:38Z</time>
      </trkpt>
      <trkpt lat="49.8301" lon="2.56745">
        <ele>73.8</ele>
        <time>2022-08-03T08:06:39Z</time>
      </trkpt>
      <trkpt lat="49.8301" lon="2.56745">
        <ele>73.8</ele>
        <time>2022-08-03T08:06:40Z</time>
      </trkpt>
      <trkpt lat="49.8301" lon="2.56745">
        <ele>73.8</ele>
        <time>2022-08-03T08:06:41Z</time>
      </trkpt>
      <trkpt lat="49.8301" lon="2.56745">
        <ele>73.8</ele>
        <time>2022-08-03T08:06:42Z</time>
      </trkpt>
      <trkpt lat="49.8301" lon="2.56745">
        <ele>73.8</ele>
        <time>2022-08-03T08:06:43Z</time>
      </trkpt>
      <trkpt lat="49.8301" lon="2.56745">
        <ele>73.8</ele>
        <time>2022-08-03T08:06:44Z</time>
      </trkpt>
      <trkpt lat="49.8301" lon="2.56745">
        <ele>73.8</ele>
        <time>2022-08-03T08:06:45Z</time>
      </trkpt>
      <trkpt lat="49.8301" lon="2.56745">
        <ele>73.8</ele>
        <time>2022-08-03T08:06:46Z</time>
      </trkpt>
      <trkpt lat="49.8301" lon="2.56745">
        <ele>73.8</ele>
        <time>2022-08-03T08:06:47Z</time>
      </trkpt>
      <trkpt lat="49.8301" lon="2.56745">
        <ele>73.8</ele>
        <time>2022-08-03T08:06:48Z</time>
      </trkpt>
      <trkpt lat="49.8301" lon="2.56745">
        <ele>73.8</ele>
        <time>2022-08-03T08:06:49Z</time>
      </trkpt>
      <trkpt lat="49.8301" lon="2.56745">
        <ele>73.8</ele>
        <time>2022-08-03T08:06:50Z</time>
      </trkpt>
      <trkpt lat="49.8301" lon="2.56745">
        <ele>73.8</ele>
        <time>2022-08-03T08:06:51Z</time>
      </trkpt>
      <trkpt lat="49.8301" lon="2.56745">
        <ele>73.8</ele>
        <time>2022-08-03T08:06:52Z</time>
      </trkpt>
      <trkpt lat="49.8301" lon="2.56745">
        <ele>73.8</ele>
        <time>2022-08-03T08:06:53Z</time>
      </trkpt>
      <trkpt lat="49.8301" lon="2.56745">
        <ele>73.8</ele>
        <time>2022-08-03T08:06:54Z</time>
      </trkpt>
      <trkpt lat="49.8301" lon="2.56745">
        <ele>73.8</ele>
        <time>2022-08-03T08:06:55Z</time>
      </trkpt>
      <trkpt lat="49.8301" lon="2.56745">
        <ele>73.8</ele>
        <time>2022-08-03T08:06:56Z</time>
      </trkpt>
      <trkpt lat="49.8301" lon="2.56745">
        <ele>73.8</ele>
        <time>2022-08-03T08:06:57Z</time>
      </trkpt>
      <trkpt lat="49.8301" lon="2.56745">
        <ele>73.8</ele>
        <time>2022-08-03T08:06:58Z</time>
      </trkpt>
      <trkpt lat="49.8301" lon="2.56745">
        <ele>73.8</ele>
        <time>2022-08-03T08:06:59Z</time>
      </trkpt>
      <trkpt lat="49.8301" lon="2.56745">
        <ele>73.8</ele>
        <time>2022-08-03T08:07:00Z</time>
      </trkpt>
      <trkpt lat="49.8301" lon="2.56745">
        <ele>73.8</ele>
        <time>2022-08-03T08:07:01Z</time>
      </trkpt>
      <trkpt lat="49.8301" lon="2.56745">
        <ele>73.8</ele>
        <time>2022-08-03T08:07:02Z</time>
      </trkpt>
      <trkpt lat="49.8301" lon="2.56745">
        <ele>73.8</ele>
        <time>2022-08-03T08:07:03Z</time>
      </trkpt>
      <trkpt lat="49.8301" lon="2.56745">
        <ele>73.8</ele>
        <time>2022-08-03T08:07:04Z</time>
      </trkpt>
      <trkpt lat="49.8301" lon="2.56745">
        <ele>73.8</ele>
        <time>2022-08-03T08:07:05Z</time>
      </trkpt>
      <trkpt lat="49.8301" lon="2.56745">
        <ele>73.8</ele>
        <time>2022-08-03T08:07:06Z</time>
      </trkpt>
      <trkpt lat="49.8301" lon="2.56745">
        <ele>73.8</ele>
        <time>2022-08-03T08:07:07Z</time>
      </trkpt>
      <trkpt lat="49.8301" lon="2.56745">
        <ele>73.8</ele>
        <time>2022-08-03T08:07:08Z</time>
      </trkpt>
      <trkpt lat="49.8301" lon="2.56745">
        <ele>73.8</ele>
        <time>2022-08-03T08:07:09Z</time>
      </trkpt>
      <trkpt lat="49.8301" lon="2.56745">
        <ele>73.8</ele>
        <time>2022-08-03T08:07:10Z</time>
      </trkpt>
      <trkpt lat="49.8301" lon="2.56745">
        <ele>73.8</ele>
        <time>2022-08-03T08:07:11Z</time>
      </trkpt>
      <trkpt lat="49.8301" lon="2.56745">
        <ele>73.8</ele>
        <time>2022-08-03T08:07:12Z</time>
      </trkpt>
      <trkpt lat="49.8301" lon="2.56745">
        <ele>73.8</ele>
        <time>2022-08-03T08:07:13Z</time>
      </trkpt>
      <trkpt lat="49.8301" lon="2.56745">
        <ele>73.8</ele>
        <time>2022-08-03T08:07:14Z</time>
      </trkpt>
      <trkpt lat="49.8301" lon="2.56745">
        <ele>73.8</ele>
        <time>2022-08-03T08:07:15Z</time>
      </trkpt>
      <trkpt lat="49.8301" lon="2.56745">
        <ele>73.8</ele>
        <time>2022-08-03T08:07:16Z</time>
      </trkpt>
      <trkpt lat="49.8301" lon="2.56745">
        <ele>73.8</ele>
        <time>2022-08-03T08:07:17Z</time>
      </trkpt>
      <trkpt lat="49.8301" lon="2.56745">
        <ele>73.8</ele>
        <time>2022-08-03T08:07:18Z</time>
      </trkpt>
      <trkpt lat="49.8301" lon="2.56745">
        <ele>73.8</ele>
        <time>2022-08-03T08:07:19Z</time>
      </trkpt>
      <trkpt lat="49.8301" lon="2.56745">
        <ele>73.8</ele>
        <time>2022-08-03T08:07:20Z</time>
      </trkpt>
      <trkpt lat="49.8301" lon="2.56745">
        <ele>73.8</ele>
        <time>2022-08-03T08:07:21Z</time>
      </trkpt>
      <trkpt lat="49.8301" lon="2.56745">
        <ele>73.8</ele>
        <time>2022-08-03T08:07:22Z</time>
      </trkpt>
      <trkpt lat="49.8301" lon="2.56745">
        <ele>73.8</ele>
        <time>2022-08-03T08:07:23Z</time>
      </trkpt>
      <trkpt lat="49.8301" lon="2.56745">
        <ele>73.8</ele>
        <time>2022-08-03T08:07:24Z</time>
      </trkpt>
      <trkpt lat="49.8301" lon="2.56745">
        <ele>73.8</ele>
        <time>2022-08-03T08:07:25Z</time>
      </trkpt>
      <trkpt lat="49.8301" lon="2.56745">
        <ele>73.8</ele>
        <time>2022-08-03T08:07:26Z</time>
      </trkpt>
      <trkpt lat="49.8301" lon="2.56745">
        <ele>73.8</ele>
        <time>2022-08-03T08:07:27Z</time>
      </trkpt>
      <trkpt lat="49.8301" lon="2.56745">
        <ele>73.8</ele>
        <time>2022-08-03T08:07:28Z</time>
      </trkpt>
      <trkpt lat="49.8301" lon="2.56745">
        <ele>73.8</ele>
        <time>2022-08-03T08:07:29Z</time>
      </trkpt>
      <trkpt lat="49.8301" lon="2.56745">
        <ele>73.8</ele>
        <time>2022-08-03T08:07:30Z</time>
      </trkpt>
      <trkpt lat="49.8301" lon="2.56745">
        <ele>73.8</ele>
        <time>2022-08-03T08:07:31Z</time>
      </trkpt>
      <trkpt lat="49.8301" lon="2.56745">
        <ele>73.8</ele>
        <time>2022-08-03T08:07:32Z</time>
      </trkpt>
      <trkpt lat="49.8301" lon="2.56745">
        <ele>73.8</ele>
        <time>2022-08-03T08:07:33Z</time>
      </trkpt>
      <trkpt lat="49.8301" lon="2.56745">
        <ele>73.8</ele>
        <time>2022-08-03T08:07:34Z</time>
      </trkpt>
      <trkpt lat="49.8301" lon="2.56745">
        <ele>73.8</ele>
        <time>2022-08-03T08:07:35Z</time>
      </trkpt>
      <trkpt lat="49.8301" lon="2.56745">
        <ele>73.8</ele>
        <time>2022-08-03T08:07:36Z</time>
      </trkpt>
      <trkpt lat="49.8301" lon="2.56745">
        <ele>73.8</ele>
        <time>2022-08-03T08:07:37Z</time>
      </trkpt>
      <trkpt lat="49.8301" lon="2.56745">
        <ele>73.8</ele>
        <time>2022-08-03T08:07:38Z</time>
      </trkpt>
      <trkpt lat="49.8301" lon="2.56745">
        <ele>73.8</ele>
        <time>2022-08-03T08:07:39Z</time>
      </trkpt>
      <trkpt lat="49.8301" lon="2.56745">
        <ele>73.8</ele>
        <time>2022-08-03T08:07:40Z</time>
      </trkpt>
      <trkpt lat="49.8301" lon="2.56745">
        <ele>73.8</ele>
        <time>2022-08-03T08:07:41Z</time>
      </trkpt>
      <trkpt lat="49.8301" lon="2.56745">
        <ele>73.8</ele>
        <time>2022-08-03T08:07:42Z</time>
      </trkpt>
      <trkpt lat="49.8301" lon="2.56745">
        <ele>73.8</ele>
        <time>2022-08-03T08:07:43Z</time>
      </trkpt>
      <trkpt lat="49.8301" lon="2.56745">
        <ele>73.8</ele>
        <time>2022-08-03T08:07:44Z</time>
      </trkpt>
      <trkpt lat="49.8301" lon="2.56745">
        <ele>73.8</ele>
        <time>2022-08-03T08:07:45Z</time>
      </trkpt>
      <trkpt lat="49.8301" lon="2.56745">
        <ele>73.8</ele>
        <time>2022-08-03T08:07:46Z</time>
      </trkpt>
      <trkpt lat="49.8301" lon="2.56745">
        <ele>73.8</ele>
        <time>2022-08-03T08:07:47Z</time>
      </trkpt>
      <trkpt lat="49.8301" lon="2.56745">
        <ele>73.8</ele>
        <time>2022-08-03T08:07:48Z</time>
      </trkpt>
      <trkpt lat="49.8301" lon="2.56745">
        <ele>73.8</ele>
        <time>2022-08-03T08:07:49Z</time>
      </trkpt>
      <trkpt lat="49.8301" lon="2.56745">
        <ele>73.8</ele>
        <time>2022-08-03T08:07:50Z</time>
      </trkpt>
      <trkpt lat="49.8301" lon="2.56745">
        <ele>73.8</ele>
        <time>2022-08-03T08:07:51Z</time>
      </trkpt>
      <trkpt lat="49.8301" lon="2.56745">
        <ele>73.8</ele>
        <time>2022-08-03T08:07:52Z</time>
      </trkpt>
      <trkpt lat="49.8301" lon="2.56745">
        <ele>73.8</ele>
        <time>2022-08-03T08:07:53Z</time>
      </trkpt>
      <trkpt lat="49.8301" lon="2.56745">
        <ele>73.8</ele>
        <time>2022-08-03T08:07:54Z</time>
      </trkpt>
      <trkpt lat="49.8301" lon="2.56745">
        <ele>73.8</ele>
        <time>2022-08-03T08:07:55Z</time>
      </trkpt>
      <trkpt lat="49.8301" lon="2.56745">
        <ele>73.8</ele>
        <time>2022-08-03T08:07:56Z</time>
      </trkpt>
      <trkpt lat="49.8301" lon="2.56745">
        <ele>73.8</ele>
        <time>2022-08-03T08:07:57Z</time>
      </trkpt>
      <trkpt lat="49.8301" lon="2.56745">
        <ele>73.8</ele>
        <time>2022-08-03T08:07:58Z</time>
      </trkpt>
      <trkpt lat="49.8301" lon="2.56745">
        <ele>73.8</ele>
        <time>2022-08-03T08:07:59Z</time>
      </trkpt>
      <trkpt lat="49.8301" lon="2.56745">
        <ele>73.8</ele>
        <time>2022-08-03T08:08:00Z</time>
      </trkpt>
      <trkpt lat="49.8301" lon="2.56745">
        <ele>73.8</ele>
        <time>2022-08-03T08:08:01Z</time>
      </trkpt>
      <trkpt lat="49.8301" lon="2.56745">
        <ele>73.8</ele>
        <time>2022-08-03T08:08:02Z</time>
      </trkpt>
      <trkpt lat="49.8301" lon="2.56745">
        <ele>73.8</ele>
        <time>2022-08-03T08:08:03Z</time>
      </trkpt>
      <trkpt lat="49.8301" lon="2.56745">
        <ele>73.8</ele>
        <time>2022-08-03T08:08:04Z</time>
      </trkpt>
      <trkpt lat="49.8301" lon="2.56745">
        <ele>73.8</ele>
        <time>2022-08-03T08:08:05Z</time>
      </trkpt>
      <trkpt lat="49.8301" lon="2.56745">
        <ele>73.8</ele>
        <time>2022-08-03T08:08:06Z</time>
      </trkpt>
      <trkpt lat="49.8301" lon="2.56745">
        <ele>73.8</ele>
        <time>2022-08-03T08:08:07Z</time>
      </trkpt>
      <trkpt lat="49.83009" lon="2.56741">
        <ele>73.8</ele>
        <time>2022-08-03T08:08:08Z</time>
      </trkpt>
      <trkpt lat="49.83009" lon="2.5674">
        <ele>73.8</ele>
        <time>2022-08-03T08:08:09Z</time>
      </trkpt>
      <trkpt lat="49.83008" lon="2.56739">
        <ele>73.7</ele>
        <time>2022-08-03T08:08:10Z</time>
      </trkpt>
      <trkpt lat="49.83008" lon="2.56739">
        <ele>73.7</ele>
        <time>2022-08-03T08:08:11Z</time>
      </trkpt>
      <trkpt lat="49.83008" lon="2.56739">
        <ele>73.7</ele>
        <time>2022-08-03T08:08:12Z</time>
      </trkpt>
      <trkpt lat="49.83008" lon="2.56739">
        <ele>73.7</ele>
        <time>2022-08-03T08:08:13Z</time>
      </trkpt>
      <trkpt lat="49.83008" lon="2.56739">
        <ele>73.7</ele>
        <time>2022-08-03T08:08:14Z</time>
      </trkpt>
      <trkpt lat="49.83008" lon="2.56739">
        <ele>73.7</ele>
        <time>2022-08-03T08:08:15Z</time>
      </trkpt>
      <trkpt lat="49.83009" lon="2.5674">
        <ele>73.7</ele>
        <time>2022-08-03T08:08:16Z</time>
      </trkpt>
      <trkpt lat="49.83009" lon="2.5674">
        <ele>73.7</ele>
        <time>2022-08-03T08:08:17Z</time>
      </trkpt>
      <trkpt lat="49.83009" lon="2.5674">
        <ele>73.7</ele>
        <time>2022-08-03T08:08:18Z</time>
      </trkpt>
      <trkpt lat="49.83009" lon="2.5674">
        <ele>73.7</ele>
        <time>2022-08-03T08:08:19Z</time>
      </trkpt>
      <trkpt lat="49.83009" lon="2.5674">
        <ele>73.7</ele>
        <time>2022-08-03T08:08:20Z</time>
      </trkpt>
      <trkpt lat="49.83009" lon="2.5674">
        <ele>73.7</ele>
        <time>2022-08-03T08:08:21Z</time>
      </trkpt>
      <trkpt lat="49.83009" lon="2.5674">
        <ele>73.7</ele>
        <time>2022-08-03T08:08:22Z</time>
      </trkpt>
      <trkpt lat="49.83009" lon="2.5674">
        <ele>73.7</ele>
        <time>2022-08-03T08:08:23Z</time>
      </trkpt>
      <trkpt lat="49.83009" lon="2.56739">
        <ele>73.7</ele>
        <time>2022-08-03T08:08:24Z</time>
      </trkpt>
      <trkpt lat="49.83009" lon="2.56739">
        <ele>73.7</ele>
        <time>2022-08-03T08:08:25Z</time>
      </trkpt>
      <trkpt lat="49.83009" lon="2.56738">
        <ele>73.7</ele>
        <time>2022-08-03T08:08:26Z</time>
      </trkpt>
      <trkpt lat="49.83009" lon="2.56738">
        <ele>73.7</ele>
        <time>2022-08-03T08:08:27Z</time>
      </trkpt>
      <trkpt lat="49.83009" lon="2.56738">
        <ele>73.7</ele>
        <time>2022-08-03T08:08:28Z</time>
      </trkpt>
      <trkpt lat="49.83009" lon="2.56738">
        <ele>73.7</ele>
        <time>2022-08-03T08:08:29Z</time>
      </trkpt>
      <trkpt lat="49.83009" lon="2.56738">
        <ele>73.7</ele>
        <time>2022-08-03T08:08:30Z</time>
      </trkpt>
      <trkpt lat="49.83009" lon="2.56738">
        <ele>73.7</ele>
        <time>2022-08-03T08:08:31Z</time>
      </trkpt>
      <trkpt lat="49.83009" lon="2.56738">
        <ele>73.7</ele>
        <time>2022-08-03T08:08:32Z</time>
      </trkpt>
      <trkpt lat="49.83009" lon="2.56739">
        <ele>73.7</ele>
        <time>2022-08-03T08:08:33Z</time>
      </trkpt>
      <trkpt lat="49.83009" lon="2.56739">
        <ele>73.6</ele>
        <time>2022-08-03T08:08:34Z</time>
      </trkpt>
      <trkpt lat="49.83009" lon="2.56739">
        <ele>73.6</ele>
        <time>2022-08-03T08:08:35Z</time>
      </trkpt>
      <trkpt lat="49.83009" lon="2.56739">
        <ele>73.6</ele>
        <time>2022-08-03T08:08:36Z</time>
      </trkpt>
      <trkpt lat="49.83009" lon="2.56739">
        <ele>73.6</ele>
        <time>2022-08-03T08:08:37Z</time>
      </trkpt>
      <trkpt lat="49.83009" lon="2.56739">
        <ele>73.6</ele>
        <time>2022-08-03T08:08:38Z</time>
      </trkpt>
      <trkpt lat="49.83009" lon="2.56739">
        <ele>73.6</ele>
        <time>2022-08-03T08:08:39Z</time>
      </trkpt>
      <trkpt lat="49.83009" lon="2.56739">
        <ele>73.6</ele>
        <time>2022-08-03T08:08:40Z</time>
      </trkpt>
      <trkpt lat="49.83009" lon="2.56739">
        <ele>73.6</ele>
        <time>2022-08-03T08:08:41Z</time>
      </trkpt>
      <trkpt lat="49.83009" lon="2.56739">
        <ele>73.6</ele>
        <time>2022-08-03T08:08:42Z</time>
      </trkpt>
      <trkpt lat="49.83009" lon="2.56739">
        <ele>73.6</ele>
        <time>2022-08-03T08:08:43Z</time>
      </trkpt>
      <trkpt lat="49.83009" lon="2.56739">
        <ele>73.6</ele>
        <time>2022-08-03T08:08:44Z</time>
      </trkpt>
      <trkpt lat="49.83009" lon="2.56739">
        <ele>73.6</ele>
        <time>2022-08-03T08:08:45Z</time>
      </trkpt>
      <trkpt lat="49.83009" lon="2.56739">
        <ele>73.6</ele>
        <time>2022-08-03T08:08:46Z</time>
      </trkpt>
      <trkpt lat="49.83009" lon="2.56739">
        <ele>73.6</ele>
        <time>2022-08-03T08:08:47Z</time>
      </trkpt>
      <trkpt lat="49.83009" lon="2.56738">
        <ele>73.6</ele>
        <time>2022-08-03T08:08:48Z</time>
      </trkpt>
      <trkpt lat="49.83009" lon="2.56738">
        <ele>73.6</ele>
        <time>2022-08-03T08:08:49Z</time>
      </trkpt>
      <trkpt lat="49.83009" lon="2.56738">
        <ele>73.6</ele>
        <time>2022-08-03T08:08:50Z</time>
      </trkpt>
      <trkpt lat="49.83009" lon="2.56738">
        <ele>73.6</ele>
        <time>2022-08-03T08:08:51Z</time>
      </trkpt>
      <trkpt lat="49.83009" lon="2.56738">
        <ele>73.6</ele>
        <time>2022-08-03T08:08:52Z</time>
      </trkpt>
      <trkpt lat="49.83009" lon="2.56738">
        <ele>73.6</ele>
        <time>2022-08-03T08:08:53Z</time>
      </trkpt>
      <trkpt lat="49.83009" lon="2.56738">
        <ele>73.6</ele>
        <time>2022-08-03T08:08:54Z</time>
      </trkpt>
      <trkpt lat="49.83009" lon="2.56738">
        <ele>73.6</ele>
        <time>2022-08-03T08:08:55Z</time>
      </trkpt>
      <trkpt lat="49.83009" lon="2.56738">
        <ele>73.6</ele>
        <time>2022-08-03T08:08:56Z</time>
      </trkpt>
      <trkpt lat="49.83009" lon="2.56738">
        <ele>73.6</ele>
        <time>2022-08-03T08:08:57Z</time>
      </trkpt>
      <trkpt lat="49.83009" lon="2.56738">
        <ele>73.6</ele>
        <time>2022-08-03T08:08:58Z</time>
      </trkpt>
      <trkpt lat="49.83009" lon="2.56738">
        <ele>73.6</ele>
        <time>2022-08-03T08:08:59Z</time>
      </trkpt>
      <trkpt lat="49.83009" lon="2.56738">
        <ele>73.6</ele>
        <time>2022-08-03T08:09:00Z</time>
      </trkpt>
      <trkpt lat="49.83009" lon="2.56738">
        <ele>73.6</ele>
        <time>2022-08-03T08:09:01Z</time>
      </trkpt>
      <trkpt lat="49.83009" lon="2.56738">
        <ele>73.6</ele>
        <time>2022-08-03T08:09:02Z</time>
      </trkpt>
      <trkpt lat="49.83009" lon="2.56738">
        <ele>73.6</ele>
        <time>2022-08-03T08:09:03Z</time>
      </trkpt>
      <trkpt lat="49.83009" lon="2.56738">
        <ele>73.6</ele>
        <time>2022-08-03T08:09:04Z</time>
      </trkpt>
      <trkpt lat="49.83009" lon="2.56738">
        <ele>73.6</ele>
        <time>2022-08-03T08:09:05Z</time>
      </trkpt>
      <trkpt lat="49.83009" lon="2.56738">
        <ele>73.6</ele>
        <time>2022-08-03T08:09:06Z</time>
      </trkpt>
      <trkpt lat="49.83009" lon="2.56738">
        <ele>73.6</ele>
        <time>2022-08-03T08:09:07Z</time>
      </trkpt>
      <trkpt lat="49.83009" lon="2.56738">
        <ele>73.6</ele>
        <time>2022-08-03T08:09:08Z</time>
      </trkpt>
      <trkpt lat="49.83009" lon="2.56738">
        <ele>73.6</ele>
        <time>2022-08-03T08:09:09Z</time>
      </trkpt>
      <trkpt lat="49.83009" lon="2.56738">
        <ele>73.6</ele>
        <time>2022-08-03T08:09:10Z</time>
      </trkpt>
      <trkpt lat="49.83009" lon="2.56739">
        <ele>73.6</ele>
        <time>2022-08-03T08:09:11Z</time>
      </trkpt>
      <trkpt lat="49.83009" lon="2.5674">
        <ele>73.5</ele>
        <time>2022-08-03T08:09:12Z</time>
      </trkpt>
      <trkpt lat="49.8301" lon="2.56742">
        <ele>73.5</ele>
        <time>2022-08-03T08:09:13Z</time>
      </trkpt>
      <trkpt lat="49.8301" lon="2.56744">
        <ele>73.5</ele>
        <time>2022-08-03T08:09:14Z</time>
      </trkpt>
      <trkpt lat="49.8301" lon="2.56744">
        <ele>73.5</ele>
        <time>2022-08-03T08:09:15Z</time>
      </trkpt>
      <trkpt lat="49.8301" lon="2.56746">
        <ele>73.4</ele>
        <time>2022-08-03T08:09:16Z</time>
      </trkpt>
      <trkpt lat="49.83009" lon="2.56748">
        <ele>73.4</ele>
        <time>2022-08-03T08:09:17Z</time>
      </trkpt>
      <trkpt lat="49.83009" lon="2.5675">
        <ele>73.3</ele>
        <time>2022-08-03T08:09:18Z</time>
      </trkpt>
      <trkpt lat="49.83009" lon="2.56753">
        <ele>73.3</ele>
        <time>2022-08-03T08:09:20Z</time>
      </trkpt>
      <trkpt lat="49.83009" lon="2.56755">
        <ele>73.2</ele>
        <time>2022-08-03T08:09:21Z</time>
      </trkpt>
      <trkpt lat="49.83009" lon="2.56756">
        <ele>73.2</ele>
        <time>2022-08-03T08:09:22Z</time>
      </trkpt>
      <trkpt lat="49.83009" lon="2.56758">
        <ele>73.1</ele>
        <time>2022-08-03T08:09:23Z</time>
      </trkpt>
      <trkpt lat="49.83009" lon="2.56759">
        <ele>73.1</ele>
        <time>2022-08-03T08:09:24Z</time>
      </trkpt>
      <trkpt lat="49.83009" lon="2.56761">
        <ele>73</ele>
        <time>2022-08-03T08:09:25Z</time>
      </trkpt>
      <trkpt lat="49.8301" lon="2.56762">
        <ele>73</ele>
        <time>2022-08-03T08:09:26Z</time>
      </trkpt>
      <trkpt lat="49.8301" lon="2.56763">
        <ele>73</ele>
        <time>2022-08-03T08:09:27Z</time>
      </trkpt>
      <trkpt lat="49.8301" lon="2.56765">
        <ele>72.9</ele>
        <time>2022-08-03T08:09:29Z</time>
      </trkpt>
      <trkpt lat="49.8301" lon="2.56766">
        <ele>72.9</ele>
        <time>2022-08-03T08:09:30Z</time>
      </trkpt>
      <trkpt lat="49.8301" lon="2.56768">
        <ele>72.8</ele>
        <time>2022-08-03T08:09:31Z</time>
      </trkpt>
      <trkpt lat="49.83011" lon="2.56771">
        <ele>72.8</ele>
        <time>2022-08-03T08:09:32Z</time>
      </trkpt>
      <trkpt lat="49.83012" lon="2.56774">
        <ele>72.6</ele>
        <time>2022-08-03T08:09:34Z</time>
      </trkpt>
      <trkpt lat="49.83012" lon="2.56776">
        <ele>72.6</ele>
        <time>2022-08-03T08:09:35Z</time>
      </trkpt>
      <trkpt lat="49.83012" lon="2.56777">
        <ele>72.5</ele>
        <time>2022-08-03T08:09:36Z</time>
      </trkpt>
      <trkpt lat="49.83013" lon="2.56779">
        <ele>72.5</ele>
        <time>2022-08-03T08:09:37Z</time>
      </trkpt>
      <trkpt lat="49.83013" lon="2.56781">
        <ele>72.4</ele>
        <time>2022-08-03T08:09:38Z</time>
      </trkpt>
      <trkpt lat="49.83014" lon="2.56784">
        <ele>72.3</ele>
        <time>2022-08-03T08:09:39Z</time>
      </trkpt>
      <trkpt lat="49.83014" lon="2.56786">
        <ele>72.2</ele>
        <time>2022-08-03T08:09:40Z</time>
      </trkpt>
      <trkpt lat="49.83014" lon="2.56788">
        <ele>72.2</ele>
        <time>2022-08-03T08:09:41Z</time>
      </trkpt>
      <trkpt lat="49.83015" lon="2.56791">
        <ele>72.1</ele>
        <time>2022-08-03T08:09:42Z</time>
      </trkpt>
      <trkpt lat="49.83015" lon="2.56792">
        <ele>72</ele>
        <time>2022-08-03T08:09:43Z</time>
      </trkpt>
      <trkpt lat="49.83015" lon="2.56793">
        <ele>72</ele>
        <time>2022-08-03T08:09:44Z</time>
      </trkpt>
      <trkpt lat="49.83016" lon="2.56796">
        <ele>71.9</ele>
        <time>2022-08-03T08:09:45Z</time>
      </trkpt>
      <trkpt lat="49.83016" lon="2.56798">
        <ele>71.8</ele>
        <time>2022-08-03T08:09:46Z</time>
      </trkpt>
      <trkpt lat="49.83016" lon="2.568">
        <ele>71.7</ele>
        <time>2022-08-03T08:09:47Z</time>
      </trkpt>
      <trkpt lat="49.83016" lon="2.56802">
        <ele>71.7</ele>
        <time>2022-08-03T08:09:48Z</time>
      </trkpt>
      <trkpt lat="49.83016" lon="2.56804">
        <ele>71.6</ele>
        <time>2022-08-03T08:09:50Z</time>
      </trkpt>
      <trkpt lat="49.83017" lon="2.56805">
        <ele>71.6</ele>
        <time>2022-08-03T08:09:51Z</time>
      </trkpt>
      <trkpt lat="49.83017" lon="2.56807">
        <ele>71.5</ele>
        <time>2022-08-03T08:09:52Z</time>
      </trkpt>
      <trkpt lat="49.83016" lon="2.5681">
        <ele>71.4</ele>
        <time>2022-08-03T08:09:53Z</time>
      </trkpt>
      <trkpt lat="49.83016" lon="2.56811">
        <ele>71.3</ele>
        <time>2022-08-03T08:09:54Z</time>
      </trkpt>
      <trkpt lat="49.83016" lon="2.56813">
        <ele>71.3</ele>
        <time>2022-08-03T08:09:55Z</time>
      </trkpt>
      <trkpt lat="49.83017" lon="2.56816">
        <ele>71.2</ele>
        <time>2022-08-03T08:09:56Z</time>
      </trkpt>
      <trkpt lat="49.83017" lon="2.56818">
        <ele>71.1</ele>
        <time>2022-08-03T08:09:58Z</time>
      </trkpt>
      <trkpt lat="49.83017" lon="2.56819">
        <ele>71</ele>
        <time>2022-08-03T08:09:59Z</time>
      </trkpt>
      <trkpt lat="49.83017" lon="2.56821">
        <ele>70.9</ele>
        <time>2022-08-03T08:10:00Z</time>
      </trkpt>
      <trkpt lat="49.83017" lon="2.56823">
        <ele>70.9</ele>
        <time>2022-08-03T08:10:01Z</time>
      </trkpt>
      <trkpt lat="49.83018" lon="2.56825">
        <ele>70.8</ele>
        <time>2022-08-03T08:10:02Z</time>
      </trkpt>
      <trkpt lat="49.83018" lon="2.56827">
        <ele>70.7</ele>
        <time>2022-08-03T08:10:03Z</time>
      </trkpt>
      <trkpt lat="49.83018" lon="2.5683">
        <ele>70.6</ele>
        <time>2022-08-03T08:10:04Z</time>
      </trkpt>
      <trkpt lat="49.83018" lon="2.56832">
        <ele>70.6</ele>
        <time>2022-08-03T08:10:05Z</time>
      </trkpt>
      <trkpt lat="49.83018" lon="2.56834">
        <ele>70.5</ele>
        <time>2022-08-03T08:10:07Z</time>
      </trkpt>
      <trkpt lat="49.83018" lon="2.56837">
        <ele>70.4</ele>
        <time>2022-08-03T08:10:08Z</time>
      </trkpt>
      <trkpt lat="49.83018" lon="2.56839">
        <ele>70.3</ele>
        <time>2022-08-03T08:10:09Z</time>
      </trkpt>
      <trkpt lat="49.83018" lon="2.56841">
        <ele>70.2</ele>
        <time>2022-08-03T08:10:11Z</time>
      </trkpt>
      <trkpt lat="49.83018" lon="2.56844">
        <ele>70.2</ele>
        <time>2022-08-03T08:10:12Z</time>
      </trkpt>
      <trkpt lat="49.83018" lon="2.56847">
        <ele>70.1</ele>
        <time>2022-08-03T08:10:14Z</time>
      </trkpt>
      <trkpt lat="49.83018" lon="2.56849">
        <ele>70</ele>
        <time>2022-08-03T08:10:15Z</time>
      </trkpt>
      <trkpt lat="49.83018" lon="2.56852">
        <ele>69.9</ele>
        <time>2022-08-03T08:10:16Z</time>
      </trkpt>
      <trkpt lat="49.83019" lon="2.56854">
        <ele>69.9</ele>
        <time>2022-08-03T08:10:17Z</time>
      </trkpt>
      <trkpt lat="49.83019" lon="2.56856">
        <ele>69.8</ele>
        <time>2022-08-03T08:10:18Z</time>
      </trkpt>
      <trkpt lat="49.83019" lon="2.56858">
        <ele>69.7</ele>
        <time>2022-08-03T08:10:19Z</time>
      </trkpt>
      <trkpt lat="49.83019" lon="2.56861">
        <ele>69.7</ele>
        <time>2022-08-03T08:10:20Z</time>
      </trkpt>
      <trkpt lat="49.8302" lon="2.56865">
        <ele>69.6</ele>
        <time>2022-08-03T08:10:21Z</time>
      </trkpt>
      <trkpt lat="49.8302" lon="2.56866">
        <ele>69.6</ele>
        <time>2022-08-03T08:10:23Z</time>
      </trkpt>
      <trkpt lat="49.83021" lon="2.56868">
        <ele>69.5</ele>
        <time>2022-08-03T08:10:24Z</time>
      </trkpt>
      <trkpt lat="49.83021" lon="2.5687">
        <ele>69.5</ele>
        <time>2022-08-03T08:10:25Z</time>
      </trkpt>
      <trkpt lat="49.83021" lon="2.56872">
        <ele>69.4</ele>
        <time>2022-08-03T08:10:27Z</time>
      </trkpt>
      <trkpt lat="49.83021" lon="2.56874">
        <ele>69.4</ele>
        <time>2022-08-03T08:10:28Z</time>
      </trkpt>
      <trkpt lat="49.83022" lon="2.56877">
        <ele>69.3</ele>
        <time>2022-08-03T08:10:30Z</time>
      </trkpt>
      <trkpt lat="49.83022" lon="2.56878">
        <ele>69.3</ele>
        <time>2022-08-03T08:10:31Z</time>
      </trkpt>
      <trkpt lat="49.83023" lon="2.56879">
        <ele>69.3</ele>
        <time>2022-08-03T08:10:32Z</time>
      </trkpt>
      <trkpt lat="49.83023" lon="2.56881">
        <ele>69.2</ele>
        <time>2022-08-03T08:10:33Z</time>
      </trkpt>
      <trkpt lat="49.83024" lon="2.56883">
        <ele>69.2</ele>
        <time>2022-08-03T08:10:34Z</time>
      </trkpt>
      <trkpt lat="49.83024" lon="2.56885">
        <ele>69.2</ele>
        <time>2022-08-03T08:10:35Z</time>
      </trkpt>
      <trkpt lat="49.83024" lon="2.56886">
        <ele>69.1</ele>
        <time>2022-08-03T08:10:36Z</time>
      </trkpt>
      <trkpt lat="49.83025" lon="2.56888">
        <ele>69.1</ele>
        <time>2022-08-03T08:10:37Z</time>
      </trkpt>
      <trkpt lat="49.83025" lon="2.56889">
        <ele>69.1</ele>
        <time>2022-08-03T08:10:38Z</time>
      </trkpt>
      <trkpt lat="49.83025" lon="2.56891">
        <ele>69</ele>
        <time>2022-08-03T08:10:39Z</time>
      </trkpt>
      <trkpt lat="49.83025" lon="2.56895">
        <ele>69</ele>
        <time>2022-08-03T08:10:40Z</time>
      </trkpt>
      <trkpt lat="49.83026" lon="2.56896">
        <ele>69</ele>
        <time>2022-08-03T08:10:41Z</time>
      </trkpt>
      <trkpt lat="49.83026" lon="2.56898">
        <ele>69</ele>
        <time>2022-08-03T08:10:42Z</time>
      </trkpt>
      <trkpt lat="49.83026" lon="2.56902">
        <ele>68.9</ele>
        <time>2022-08-03T08:10:44Z</time>
      </trkpt>
      <trkpt lat="49.83026" lon="2.56903">
        <ele>68.9</ele>
        <time>2022-08-03T08:10:45Z</time>
      </trkpt>
      <trkpt lat="49.83026" lon="2.56905">
        <ele>68.9</ele>
        <time>2022-08-03T08:10:46Z</time>
      </trkpt>
      <trkpt lat="49.83027" lon="2.56908">
        <ele>68.9</ele>
        <time>2022-08-03T08:10:48Z</time>
      </trkpt>
      <trkpt lat="49.83027" lon="2.56909">
        <ele>68.9</ele>
        <time>2022-08-03T08:10:49Z</time>
      </trkpt>
      <trkpt lat="49.83027" lon="2.56912">
        <ele>68.9</ele>
        <time>2022-08-03T08:10:50Z</time>
      </trkpt>
      <trkpt lat="49.83027" lon="2.56916">
        <ele>68.8</ele>
        <time>2022-08-03T08:10:51Z</time>
      </trkpt>
      <trkpt lat="49.83028" lon="2.56918">
        <ele>68.8</ele>
        <time>2022-08-03T08:10:52Z</time>
      </trkpt>
      <trkpt lat="49.83027" lon="2.56922">
        <ele>68.8</ele>
        <time>2022-08-03T08:10:54Z</time>
      </trkpt>
      <trkpt lat="49.83027" lon="2.56923">
        <ele>68.8</ele>
        <time>2022-08-03T08:10:55Z</time>
      </trkpt>
      <trkpt lat="49.83027" lon="2.56924">
        <ele>68.8</ele>
        <time>2022-08-03T08:10:56Z</time>
      </trkpt>
      <trkpt lat="49.83027" lon="2.56926">
        <ele>68.8</ele>
        <time>2022-08-03T08:10:57Z</time>
      </trkpt>
      <trkpt lat="49.83026" lon="2.56928">
        <ele>68.9</ele>
        <time>2022-08-03T08:10:58Z</time>
      </trkpt>
      <trkpt lat="49.83026" lon="2.56931">
        <ele>68.9</ele>
        <time>2022-08-03T08:10:59Z</time>
      </trkpt>
      <trkpt lat="49.83026" lon="2.56933">
        <ele>68.9</ele>
        <time>2022-08-03T08:11:00Z</time>
      </trkpt>
      <trkpt lat="49.83025" lon="2.56936">
        <ele>68.9</ele>
        <time>2022-08-03T08:11:01Z</time>
      </trkpt>
      <trkpt lat="49.83024" lon="2.56937">
        <ele>68.9</ele>
        <time>2022-08-03T08:11:02Z</time>
      </trkpt>
      <trkpt lat="49.83024" lon="2.56939">
        <ele>68.9</ele>
        <time>2022-08-03T08:11:03Z</time>
      </trkpt>
      <trkpt lat="49.83024" lon="2.5694">
        <ele>68.9</ele>
        <time>2022-08-03T08:11:04Z</time>
      </trkpt>
      <trkpt lat="49.83023" lon="2.56942">
        <ele>68.9</ele>
        <time>2022-08-03T08:11:05Z</time>
      </trkpt>
      <trkpt lat="49.83023" lon="2.56944">
        <ele>68.9</ele>
        <time>2022-08-03T08:11:06Z</time>
      </trkpt>
      <trkpt lat="49.83022" lon="2.56945">
        <ele>68.9</ele>
        <time>2022-08-03T08:11:07Z</time>
      </trkpt>
      <trkpt lat="49.83022" lon="2.56947">
        <ele>68.8</ele>
        <time>2022-08-03T08:11:08Z</time>
      </trkpt>
      <trkpt lat="49.83022" lon="2.56949">
        <ele>68.8</ele>
        <time>2022-08-03T08:11:09Z</time>
      </trkpt>
      <trkpt lat="49.83022" lon="2.56952">
        <ele>68.8</ele>
        <time>2022-08-03T08:11:11Z</time>
      </trkpt>
      <trkpt lat="49.83022" lon="2.56953">
        <ele>68.8</ele>
        <time>2022-08-03T08:11:12Z</time>
      </trkpt>
      <trkpt lat="49.83022" lon="2.56954">
        <ele>68.8</ele>
        <time>2022-08-03T08:11:13Z</time>
      </trkpt>
      <trkpt lat="49.83022" lon="2.56956">
        <ele>68.8</ele>
        <time>2022-08-03T08:11:14Z</time>
      </trkpt>
      <trkpt lat="49.83022" lon="2.56957">
        <ele>68.7</ele>
        <time>2022-08-03T08:11:15Z</time>
      </trkpt>
      <trkpt lat="49.83022" lon="2.56959">
        <ele>68.7</ele>
        <time>2022-08-03T08:11:16Z</time>
      </trkpt>
      <trkpt lat="49.83023" lon="2.56961">
        <ele>68.7</ele>
        <time>2022-08-03T08:11:17Z</time>
      </trkpt>
      <trkpt lat="49.83023" lon="2.56963">
        <ele>68.7</ele>
        <time>2022-08-03T08:11:18Z</time>
      </trkpt>
      <trkpt lat="49.83023" lon="2.56965">
        <ele>68.6</ele>
        <time>2022-08-03T08:11:19Z</time>
      </trkpt>
      <trkpt lat="49.83024" lon="2.56967">
        <ele>68.6</ele>
        <time>2022-08-03T08:11:20Z</time>
      </trkpt>
      <trkpt lat="49.83025" lon="2.5697">
        <ele>68.5</ele>
        <time>2022-08-03T08:11:22Z</time>
      </trkpt>
      <trkpt lat="49.83025" lon="2.56972">
        <ele>68.5</ele>
        <time>2022-08-03T08:11:23Z</time>
      </trkpt>
      <trkpt lat="49.83025" lon="2.56973">
        <ele>68.5</ele>
        <time>2022-08-03T08:11:24Z</time>
      </trkpt>
      <trkpt lat="49.83026" lon="2.56976">
        <ele>68.4</ele>
        <time>2022-08-03T08:11:25Z</time>
      </trkpt>
      <trkpt lat="49.83026" lon="2.56977">
        <ele>68.4</ele>
        <time>2022-08-03T08:11:26Z</time>
      </trkpt>
      <trkpt lat="49.83027" lon="2.56978">
        <ele>68.3</ele>
        <time>2022-08-03T08:11:27Z</time>
      </trkpt>
      <trkpt lat="49.83027" lon="2.5698">
        <ele>68.3</ele>
        <time>2022-08-03T08:11:28Z</time>
      </trkpt>
      <trkpt lat="49.83028" lon="2.56982">
        <ele>68.2</ele>
        <time>2022-08-03T08:11:29Z</time>
      </trkpt>
      <trkpt lat="49.83029" lon="2.56987">
        <ele>68.1</ele>
        <time>2022-08-03T08:11:30Z</time>
      </trkpt>
      <trkpt lat="49.8303" lon="2.56989">
        <ele>68</ele>
        <time>2022-08-03T08:11:32Z</time>
      </trkpt>
      <trkpt lat="49.83031" lon="2.56991">
        <ele>68</ele>
        <time>2022-08-03T08:11:33Z</time>
      </trkpt>
      <trkpt lat="49.83031" lon="2.56993">
        <ele>67.9</ele>
        <time>2022-08-03T08:11:35Z</time>
      </trkpt>
      <trkpt lat="49.83032" lon="2.56995">
        <ele>67.9</ele>
        <time>2022-08-03T08:11:37Z</time>
      </trkpt>
      <trkpt lat="49.83033" lon="2.56997">
        <ele>67.8</ele>
        <time>2022-08-03T08:11:38Z</time>
      </trkpt>
      <trkpt lat="49.83034" lon="2.56999">
        <ele>67.7</ele>
        <time>2022-08-03T08:11:39Z</time>
      </trkpt>
      <trkpt lat="49.83035" lon="2.57">
        <ele>67.7</ele>
        <time>2022-08-03T08:11:40Z</time>
      </trkpt>
      <trkpt lat="49.83036" lon="2.57001">
        <ele>67.6</ele>
        <time>2022-08-03T08:11:41Z</time>
      </trkpt>
      <trkpt lat="49.83037" lon="2.57002">
        <ele>67.6</ele>
        <time>2022-08-03T08:11:42Z</time>
      </trkpt>
      <trkpt lat="49.83038" lon="2.57004">
        <ele>67.5</ele>
        <time>2022-08-03T08:11:43Z</time>
      </trkpt>
      <trkpt lat="49.83039" lon="2.57006">
        <ele>67.4</ele>
        <time>2022-08-03T08:11:44Z</time>
      </trkpt>
      <trkpt lat="49.8304" lon="2.57008">
        <ele>67.4</ele>
        <time>2022-08-03T08:11:45Z</time>
      </trkpt>
      <trkpt lat="49.8304" lon="2.57009">
        <ele>67.3</ele>
        <time>2022-08-03T08:11:46Z</time>
      </trkpt>
      <trkpt lat="49.83041" lon="2.57011">
        <ele>67.3</ele>
        <time>2022-08-03T08:11:47Z</time>
      </trkpt>
      <trkpt lat="49.83042" lon="2.57013">
        <ele>67.2</ele>
        <time>2022-08-03T08:11:49Z</time>
      </trkpt>
      <trkpt lat="49.83043" lon="2.57016">
        <ele>67.1</ele>
        <time>2022-08-03T08:11:50Z</time>
      </trkpt>
      <trkpt lat="49.83043" lon="2.57018">
        <ele>67</ele>
        <time>2022-08-03T08:11:51Z</time>
      </trkpt>
      <trkpt lat="49.83043" lon="2.57019">
        <ele>67</ele>
        <time>2022-08-03T08:11:52Z</time>
      </trkpt>
      <trkpt lat="49.83044" lon="2.57022">
        <ele>66.9</ele>
        <time>2022-08-03T08:11:54Z</time>
      </trkpt>
      <trkpt lat="49.83044" lon="2.57024">
        <ele>66.8</ele>
        <time>2022-08-03T08:11:55Z</time>
      </trkpt>
      <trkpt lat="49.83045" lon="2.57026">
        <ele>66.8</ele>
        <time>2022-08-03T08:11:56Z</time>
      </trkpt>
      <trkpt lat="49.83045" lon="2.57028">
        <ele>66.7</ele>
        <time>2022-08-03T08:11:57Z</time>
      </trkpt>
      <trkpt lat="49.83045" lon="2.57032">
        <ele>66.6</ele>
        <time>2022-08-03T08:11:58Z</time>
      </trkpt>
      <trkpt lat="49.83046" lon="2.57034">
        <ele>66.5</ele>
        <time>2022-08-03T08:12:00Z</time>
      </trkpt>
      <trkpt lat="49.83046" lon="2.57035">
        <ele>66.4</ele>
        <time>2022-08-03T08:12:01Z</time>
      </trkpt>
      <trkpt lat="49.83046" lon="2.57037">
        <ele>66.4</ele>
        <time>2022-08-03T08:12:02Z</time>
      </trkpt>
      <trkpt lat="49.83046" lon="2.57038">
        <ele>66.3</ele>
        <time>2022-08-03T08:12:03Z</time>
      </trkpt>
      <trkpt lat="49.83047" lon="2.57041">
        <ele>66.2</ele>
        <time>2022-08-03T08:12:04Z</time>
      </trkpt>
      <trkpt lat="49.83047" lon="2.57043">
        <ele>66.2</ele>
        <time>2022-08-03T08:12:05Z</time>
      </trkpt>
      <trkpt lat="49.83047" lon="2.57044">
        <ele>66.2</ele>
        <time>2022-08-03T08:12:06Z</time>
      </trkpt>
      <trkpt lat="49.83047" lon="2.57046">
        <ele>66.1</ele>
        <time>2022-08-03T08:12:07Z</time>
      </trkpt>
      <trkpt lat="49.83047" lon="2.57049">
        <ele>66</ele>
        <time>2022-08-03T08:12:08Z</time>
      </trkpt>
      <trkpt lat="49.83048" lon="2.57052">
        <ele>65.9</ele>
        <time>2022-08-03T08:12:09Z</time>
      </trkpt>
      <trkpt lat="49.83048" lon="2.57053">
        <ele>65.9</ele>
        <time>2022-08-03T08:12:10Z</time>
      </trkpt>
      <trkpt lat="49.83048" lon="2.57056">
        <ele>65.8</ele>
        <time>2022-08-03T08:12:11Z</time>
      </trkpt>
      <trkpt lat="49.83049" lon="2.57058">
        <ele>65.7</ele>
        <time>2022-08-03T08:12:12Z</time>
      </trkpt>
      <trkpt lat="49.83049" lon="2.5706">
        <ele>65.7</ele>
        <time>2022-08-03T08:12:13Z</time>
      </trkpt>
      <trkpt lat="49.83049" lon="2.57062">
        <ele>65.6</ele>
        <time>2022-08-03T08:12:14Z</time>
      </trkpt>
      <trkpt lat="49.8305" lon="2.57064">
        <ele>65.5</ele>
        <time>2022-08-03T08:12:16Z</time>
      </trkpt>
      <trkpt lat="49.83051" lon="2.57066">
        <ele>65.5</ele>
        <time>2022-08-03T08:12:17Z</time>
      </trkpt>
      <trkpt lat="49.83051" lon="2.57069">
        <ele>65.3</ele>
        <time>2022-08-03T08:12:19Z</time>
      </trkpt>
      <trkpt lat="49.83052" lon="2.57071">
        <ele>65.3</ele>
        <time>2022-08-03T08:12:20Z</time>
      </trkpt>
      <trkpt lat="49.83053" lon="2.57073">
        <ele>65.2</ele>
        <time>2022-08-03T08:12:21Z</time>
      </trkpt>
      <trkpt lat="49.83053" lon="2.57075">
        <ele>65.1</ele>
        <time>2022-08-03T08:12:22Z</time>
      </trkpt>
      <trkpt lat="49.83054" lon="2.57078">
        <ele>65</ele>
        <time>2022-08-03T08:12:24Z</time>
      </trkpt>
      <trkpt lat="49.83055" lon="2.57079">
        <ele>65</ele>
        <time>2022-08-03T08:12:25Z</time>
      </trkpt>
      <trkpt lat="49.83055" lon="2.57082">
        <ele>64.9</ele>
        <time>2022-08-03T08:12:26Z</time>
      </trkpt>
      <trkpt lat="49.83056" lon="2.57084">
        <ele>64.8</ele>
        <time>2022-08-03T08:12:28Z</time>
      </trkpt>
      <trkpt lat="49.83056" lon="2.57086">
        <ele>64.7</ele>
        <time>2022-08-03T08:12:29Z</time>
      </trkpt>
      <trkpt lat="49.83056" lon="2.57087">
        <ele>64.7</ele>
        <time>2022-08-03T08:12:30Z</time>
      </trkpt>
      <trkpt lat="49.83057" lon="2.5709">
        <ele>64.5</ele>
        <time>2022-08-03T08:12:31Z</time>
      </trkpt>
      <trkpt lat="49.83057" lon="2.57091">
        <ele>64.5</ele>
        <time>2022-08-03T08:12:32Z</time>
      </trkpt>
      <trkpt lat="49.83058" lon="2.57093">
        <ele>64.4</ele>
        <time>2022-08-03T08:12:33Z</time>
      </trkpt>
      <trkpt lat="49.83059" lon="2.57096">
        <ele>64.3</ele>
        <time>2022-08-03T08:12:34Z</time>
      </trkpt>
      <trkpt lat="49.83059" lon="2.57098">
        <ele>64.2</ele>
        <time>2022-08-03T08:12:36Z</time>
      </trkpt>
      <trkpt lat="49.8306" lon="2.57099">
        <ele>64.2</ele>
        <time>2022-08-03T08:12:37Z</time>
      </trkpt>
      <trkpt lat="49.8306" lon="2.57101">
        <ele>64.1</ele>
        <time>2022-08-03T08:12:38Z</time>
      </trkpt>
      <trkpt lat="49.83061" lon="2.57103">
        <ele>64</ele>
        <time>2022-08-03T08:12:39Z</time>
      </trkpt>
      <trkpt lat="49.83061" lon="2.57105">
        <ele>63.9</ele>
        <time>2022-08-03T08:12:40Z</time>
      </trkpt>
      <trkpt lat="49.83062" lon="2.57106">
        <ele>63.8</ele>
        <time>2022-08-03T08:12:41Z</time>
      </trkpt>
      <trkpt lat="49.83063" lon="2.57109">
        <ele>63.7</ele>
        <time>2022-08-03T08:12:42Z</time>
      </trkpt>
      <trkpt lat="49.83064" lon="2.5711">
        <ele>63.7</ele>
        <time>2022-08-03T08:12:44Z</time>
      </trkpt>
      <trkpt lat="49.83064" lon="2.57112">
        <ele>63.6</ele>
        <time>2022-08-03T08:12:45Z</time>
      </trkpt>
      <trkpt lat="49.83065" lon="2.57113">
        <ele>63.5</ele>
        <time>2022-08-03T08:12:46Z</time>
      </trkpt>
      <trkpt lat="49.83066" lon="2.57115">
        <ele>63.4</ele>
        <time>2022-08-03T08:12:48Z</time>
      </trkpt>
      <trkpt lat="49.83066" lon="2.57117">
        <ele>63.3</ele>
        <time>2022-08-03T08:12:49Z</time>
      </trkpt>
      <trkpt lat="49.83066" lon="2.57118">
        <ele>63.3</ele>
        <time>2022-08-03T08:12:50Z</time>
      </trkpt>
      <trkpt lat="49.83067" lon="2.5712">
        <ele>63.2</ele>
        <time>2022-08-03T08:12:51Z</time>
      </trkpt>
      <trkpt lat="49.83068" lon="2.57122">
        <ele>63.1</ele>
        <time>2022-08-03T08:12:52Z</time>
      </trkpt>
      <trkpt lat="49.83069" lon="2.57123">
        <ele>63</ele>
        <time>2022-08-03T08:12:53Z</time>
      </trkpt>
      <trkpt lat="49.83069" lon="2.57125">
        <ele>62.9</ele>
        <time>2022-08-03T08:12:54Z</time>
      </trkpt>
      <trkpt lat="49.8307" lon="2.57128">
        <ele>62.8</ele>
        <time>2022-08-03T08:12:55Z</time>
      </trkpt>
      <trkpt lat="49.83071" lon="2.57129">
        <ele>62.8</ele>
        <time>2022-08-03T08:12:57Z</time>
      </trkpt>
      <trkpt lat="49.83072" lon="2.5713">
        <ele>62.7</ele>
        <time>2022-08-03T08:12:58Z</time>
      </trkpt>
      <trkpt lat="49.83072" lon="2.57131">
        <ele>62.6</ele>
        <time>2022-08-03T08:12:59Z</time>
      </trkpt>
      <trkpt lat="49.83073" lon="2.57132">
        <ele>62.6</ele>
        <time>2022-08-03T08:13:00Z</time>
      </trkpt>
      <trkpt lat="49.83075" lon="2.57134">
        <ele>62.5</ele>
        <time>2022-08-03T08:13:01Z</time>
      </trkpt>
      <trkpt lat="49.83076" lon="2.57136">
        <ele>62.3</ele>
        <time>2022-08-03T08:13:02Z</time>
      </trkpt>
      <trkpt lat="49.83077" lon="2.57137">
        <ele>62.3</ele>
        <time>2022-08-03T08:13:03Z</time>
      </trkpt>
      <trkpt lat="49.83078" lon="2.57137">
        <ele>62.2</ele>
        <time>2022-08-03T08:13:04Z</time>
      </trkpt>
      <trkpt lat="49.83078" lon="2.57139">
        <ele>62.2</ele>
        <time>2022-08-03T08:13:05Z</time>
      </trkpt>
      <trkpt lat="49.83079" lon="2.5714">
        <ele>62.1</ele>
        <time>2022-08-03T08:13:06Z</time>
      </trkpt>
      <trkpt lat="49.8308" lon="2.57141">
        <ele>62</ele>
        <time>2022-08-03T08:13:07Z</time>
      </trkpt>
      <trkpt lat="49.83081" lon="2.57142">
        <ele>62</ele>
        <time>2022-08-03T08:13:08Z</time>
      </trkpt>
      <trkpt lat="49.83082" lon="2.57143">
        <ele>61.9</ele>
        <time>2022-08-03T08:13:09Z</time>
      </trkpt>
      <trkpt lat="49.83083" lon="2.57145">
        <ele>61.8</ele>
        <time>2022-08-03T08:13:11Z</time>
      </trkpt>
      <trkpt lat="49.83084" lon="2.57147">
        <ele>61.7</ele>
        <time>2022-08-03T08:13:12Z</time>
      </trkpt>
      <trkpt lat="49.83085" lon="2.57148">
        <ele>61.7</ele>
        <time>2022-08-03T08:13:13Z</time>
      </trkpt>
      <trkpt lat="49.83085" lon="2.57149">
        <ele>61.6</ele>
        <time>2022-08-03T08:13:14Z</time>
      </trkpt>
      <trkpt lat="49.83087" lon="2.57151">
        <ele>61.5</ele>
        <time>2022-08-03T08:13:15Z</time>
      </trkpt>
      <trkpt lat="49.83087" lon="2.57153">
        <ele>61.4</ele>
        <time>2022-08-03T08:13:16Z</time>
      </trkpt>
      <trkpt lat="49.83088" lon="2.57154">
        <ele>61.4</ele>
        <time>2022-08-03T08:13:17Z</time>
      </trkpt>
      <trkpt lat="49.83089" lon="2.57157">
        <ele>61.3</ele>
        <time>2022-08-03T08:13:18Z</time>
      </trkpt>
      <trkpt lat="49.83089" lon="2.57158">
        <ele>61.2</ele>
        <time>2022-08-03T08:13:19Z</time>
      </trkpt>
      <trkpt lat="49.8309" lon="2.57159">
        <ele>61.2</ele>
        <time>2022-08-03T08:13:20Z</time>
      </trkpt>
      <trkpt lat="49.8309" lon="2.57161">
        <ele>61.1</ele>
        <time>2022-08-03T08:13:22Z</time>
      </trkpt>
      <trkpt lat="49.83091" lon="2.57164">
        <ele>61</ele>
        <time>2022-08-03T08:13:23Z</time>
      </trkpt>
      <trkpt lat="49.83092" lon="2.57165">
        <ele>61</ele>
        <time>2022-08-03T08:13:24Z</time>
      </trkpt>
      <trkpt lat="49.83093" lon="2.57168">
        <ele>60.9</ele>
        <time>2022-08-03T08:13:25Z</time>
      </trkpt>
      <trkpt lat="49.83093" lon="2.57169">
        <ele>60.8</ele>
        <time>2022-08-03T08:13:27Z</time>
      </trkpt>
      <trkpt lat="49.83095" lon="2.57172">
        <ele>60.7</ele>
        <time>2022-08-03T08:13:28Z</time>
      </trkpt>
      <trkpt lat="49.83095" lon="2.57174">
        <ele>60.6</ele>
        <time>2022-08-03T08:13:29Z</time>
      </trkpt>
      <trkpt lat="49.83096" lon="2.57175">
        <ele>60.6</ele>
        <time>2022-08-03T08:13:30Z</time>
      </trkpt>
      <trkpt lat="49.83096" lon="2.57176">
        <ele>60.6</ele>
        <time>2022-08-03T08:13:31Z</time>
      </trkpt>
      <trkpt lat="49.83096" lon="2.57178">
        <ele>60.5</ele>
        <time>2022-08-03T08:13:32Z</time>
      </trkpt>
      <trkpt lat="49.83097" lon="2.57181">
        <ele>60.4</ele>
        <time>2022-08-03T08:13:33Z</time>
      </trkpt>
      <trkpt lat="49.83098" lon="2.57182">
        <ele>60.4</ele>
        <time>2022-08-03T08:13:34Z</time>
      </trkpt>
      <trkpt lat="49.83098" lon="2.57183">
        <ele>60.4</ele>
        <time>2022-08-03T08:13:35Z</time>
      </trkpt>
      <trkpt lat="49.83099" lon="2.57184">
        <ele>60.3</ele>
        <time>2022-08-03T08:13:37Z</time>
      </trkpt>
      <trkpt lat="49.83099" lon="2.57186">
        <ele>60.3</ele>
        <time>2022-08-03T08:13:38Z</time>
      </trkpt>
      <trkpt lat="49.831" lon="2.57188">
        <ele>60.2</ele>
        <time>2022-08-03T08:13:39Z</time>
      </trkpt>
      <trkpt lat="49.831" lon="2.57189">
        <ele>60.2</ele>
        <time>2022-08-03T08:13:40Z</time>
      </trkpt>
      <trkpt lat="49.831" lon="2.57191">
        <ele>60.2</ele>
        <time>2022-08-03T08:13:41Z</time>
      </trkpt>
      <trkpt lat="49.83101" lon="2.57192">
        <ele>60.2</ele>
        <time>2022-08-03T08:13:42Z</time>
      </trkpt>
      <trkpt lat="49.83102" lon="2.57196">
        <ele>60.1</ele>
        <time>2022-08-03T08:13:43Z</time>
      </trkpt>
      <trkpt lat="49.83102" lon="2.57197">
        <ele>60.1</ele>
        <time>2022-08-03T08:13:44Z</time>
      </trkpt>
      <trkpt lat="49.83102" lon="2.57198">
        <ele>60.1</ele>
        <time>2022-08-03T08:13:45Z</time>
      </trkpt>
      <trkpt lat="49.83103" lon="2.57199">
        <ele>60.1</ele>
        <time>2022-08-03T08:13:46Z</time>
      </trkpt>
      <trkpt lat="49.83104" lon="2.57201">
        <ele>60</ele>
        <time>2022-08-03T08:13:47Z</time>
      </trkpt>
      <trkpt lat="49.83104" lon="2.57203">
        <ele>60</ele>
        <time>2022-08-03T08:13:48Z</time>
      </trkpt>
      <trkpt lat="49.83104" lon="2.57204">
        <ele>60</ele>
        <time>2022-08-03T08:13:49Z</time>
      </trkpt>
      <trkpt lat="49.83104" lon="2.57206">
        <ele>60</ele>
        <time>2022-08-03T08:13:51Z</time>
      </trkpt>
      <trkpt lat="49.83105" lon="2.5721">
        <ele>59.9</ele>
        <time>2022-08-03T08:13:53Z</time>
      </trkpt>
      <trkpt lat="49.83105" lon="2.57211">
        <ele>59.8</ele>
        <time>2022-08-03T08:13:54Z</time>
      </trkpt>
      <trkpt lat="49.83105" lon="2.57213">
        <ele>59.9</ele>
        <time>2022-08-03T08:13:55Z</time>
      </trkpt>
      <trkpt lat="49.83105" lon="2.57215">
        <ele>59.8</ele>
        <time>2022-08-03T08:13:56Z</time>
      </trkpt>
      <trkpt lat="49.83105" lon="2.57218">
        <ele>59.8</ele>
        <time>2022-08-03T08:13:57Z</time>
      </trkpt>
      <trkpt lat="49.83105" lon="2.57221">
        <ele>59.8</ele>
        <time>2022-08-03T08:13:58Z</time>
      </trkpt>
      <trkpt lat="49.83105" lon="2.57222">
        <ele>59.8</ele>
        <time>2022-08-03T08:13:59Z</time>
      </trkpt>
      <trkpt lat="49.83105" lon="2.57224">
        <ele>59.7</ele>
        <time>2022-08-03T08:14:00Z</time>
      </trkpt>
      <trkpt lat="49.83105" lon="2.57226">
        <ele>59.7</ele>
        <time>2022-08-03T08:14:02Z</time>
      </trkpt>
      <trkpt lat="49.83105" lon="2.57228">
        <ele>59.7</ele>
        <time>2022-08-03T08:14:03Z</time>
      </trkpt>
      <trkpt lat="49.83104" lon="2.57231">
        <ele>59.7</ele>
        <time>2022-08-03T08:14:04Z</time>
      </trkpt>
      <trkpt lat="49.83104" lon="2.57232">
        <ele>59.6</ele>
        <time>2022-08-03T08:14:05Z</time>
      </trkpt>
      <trkpt lat="49.83104" lon="2.57234">
        <ele>59.6</ele>
        <time>2022-08-03T08:14:06Z</time>
      </trkpt>
      <trkpt lat="49.83104" lon="2.57237">
        <ele>59.6</ele>
        <time>2022-08-03T08:14:08Z</time>
      </trkpt>
      <trkpt lat="49.83104" lon="2.57238">
        <ele>59.6</ele>
        <time>2022-08-03T08:14:09Z</time>
      </trkpt>
      <trkpt lat="49.83104" lon="2.57239">
        <ele>59.6</ele>
        <time>2022-08-03T08:14:10Z</time>
      </trkpt>
      <trkpt lat="49.83103" lon="2.57241">
        <ele>59.5</ele>
        <time>2022-08-03T08:14:11Z</time>
      </trkpt>
      <trkpt lat="49.83103" lon="2.57243">
        <ele>59.5</ele>
        <time>2022-08-03T08:14:12Z</time>
      </trkpt>
      <trkpt lat="49.83102" lon="2.57245">
        <ele>59.5</ele>
        <time>2022-08-03T08:14:13Z</time>
      </trkpt>
      <trkpt lat="49.83102" lon="2.57247">
        <ele>59.5</ele>
        <time>2022-08-03T08:14:14Z</time>
      </trkpt>
      <trkpt lat="49.83102" lon="2.57248">
        <ele>59.5</ele>
        <time>2022-08-03T08:14:15Z</time>
      </trkpt>
      <trkpt lat="49.83101" lon="2.5725">
        <ele>59.5</ele>
        <time>2022-08-03T08:14:16Z</time>
      </trkpt>
      <trkpt lat="49.83101" lon="2.57253">
        <ele>59.5</ele>
        <time>2022-08-03T08:14:18Z</time>
      </trkpt>
      <trkpt lat="49.83101" lon="2.57254">
        <ele>59.5</ele>
        <time>2022-08-03T08:14:19Z</time>
      </trkpt>
      <trkpt lat="49.83101" lon="2.57255">
        <ele>59.5</ele>
        <time>2022-08-03T08:14:20Z</time>
      </trkpt>
      <trkpt lat="49.83101" lon="2.57257">
        <ele>59.5</ele>
        <time>2022-08-03T08:14:21Z</time>
      </trkpt>
      <trkpt lat="49.83101" lon="2.57258">
        <ele>59.5</ele>
        <time>2022-08-03T08:14:22Z</time>
      </trkpt>
      <trkpt lat="49.83101" lon="2.5726">
        <ele>59.5</ele>
        <time>2022-08-03T08:14:23Z</time>
      </trkpt>
      <trkpt lat="49.831" lon="2.57262">
        <ele>59.5</ele>
        <time>2022-08-03T08:14:25Z</time>
      </trkpt>
      <trkpt lat="49.831" lon="2.57263">
        <ele>59.5</ele>
        <time>2022-08-03T08:14:26Z</time>
      </trkpt>
      <trkpt lat="49.831" lon="2.57264">
        <ele>59.5</ele>
        <time>2022-08-03T08:14:27Z</time>
      </trkpt>
      <trkpt lat="49.83101" lon="2.57265">
        <ele>59.5</ele>
        <time>2022-08-03T08:14:29Z</time>
      </trkpt>
      <trkpt lat="49.83102" lon="2.57264">
        <ele>59.5</ele>
        <time>2022-08-03T08:14:30Z</time>
      </trkpt>
      <trkpt lat="49.83102" lon="2.57262">
        <ele>59.5</ele>
        <time>2022-08-03T08:14:31Z</time>
      </trkpt>
      <trkpt lat="49.83102" lon="2.5726">
        <ele>59.5</ele>
        <time>2022-08-03T08:14:32Z</time>
      </trkpt>
      <trkpt lat="49.83102" lon="2.57259">
        <ele>59.5</ele>
        <time>2022-08-03T08:14:33Z</time>
      </trkpt>
      <trkpt lat="49.83102" lon="2.57257">
        <ele>59.5</ele>
        <time>2022-08-03T08:14:34Z</time>
      </trkpt>
      <trkpt lat="49.83102" lon="2.57257">
        <ele>59.5</ele>
        <time>2022-08-03T08:14:35Z</time>
      </trkpt>
      <trkpt lat="49.83103" lon="2.57256">
        <ele>59.5</ele>
        <time>2022-08-03T08:14:36Z</time>
      </trkpt>
      <trkpt lat="49.83103" lon="2.57256">
        <ele>59.5</ele>
        <time>2022-08-03T08:14:37Z</time>
      </trkpt>
      <trkpt lat="49.83103" lon="2.57256">
        <ele>59.5</ele>
        <time>2022-08-03T08:14:38Z</time>
      </trkpt>
      <trkpt lat="49.83103" lon="2.57256">
        <ele>59.5</ele>
        <time>2022-08-03T08:14:39Z</time>
      </trkpt>
      <trkpt lat="49.83103" lon="2.57256">
        <ele>59.5</ele>
        <time>2022-08-03T08:14:40Z</time>
      </trkpt>
      <trkpt lat="49.83104" lon="2.57257">
        <ele>59.5</ele>
        <time>2022-08-03T08:14:41Z</time>
      </trkpt>
      <trkpt lat="49.83104" lon="2.57257">
        <ele>59.5</ele>
        <time>2022-08-03T08:14:42Z</time>
      </trkpt>
      <trkpt lat="49.83104" lon="2.57257">
        <ele>59.5</ele>
        <time>2022-08-03T08:14:43Z</time>
      </trkpt>
      <trkpt lat="49.83104" lon="2.57257">
        <ele>59.5</ele>
        <time>2022-08-03T08:14:44Z</time>
      </trkpt>
      <trkpt lat="49.83105" lon="2.57257">
        <ele>59.5</ele>
        <time>2022-08-03T08:14:45Z</time>
      </trkpt>
      <trkpt lat="49.83105" lon="2.57257">
        <ele>59.5</ele>
        <time>2022-08-03T08:14:46Z</time>
      </trkpt>
      <trkpt lat="49.83105" lon="2.57258">
        <ele>59.5</ele>
        <time>2022-08-03T08:14:47Z</time>
      </trkpt>
      <trkpt lat="49.83105" lon="2.57258">
        <ele>59.5</ele>
        <time>2022-08-03T08:14:48Z</time>
      </trkpt>
      <trkpt lat="49.83106" lon="2.57258">
        <ele>59.5</ele>
        <time>2022-08-03T08:14:49Z</time>
      </trkpt>
      <trkpt lat="49.83106" lon="2.57258">
        <ele>59.5</ele>
        <time>2022-08-03T08:14:50Z</time>
      </trkpt>
      <trkpt lat="49.83106" lon="2.57258">
        <ele>59.5</ele>
        <time>2022-08-03T08:14:51Z</time>
      </trkpt>
      <trkpt lat="49.83106" lon="2.57258">
        <ele>59.5</ele>
        <time>2022-08-03T08:14:53Z</time>
      </trkpt>
      <trkpt lat="49.83107" lon="2.57259">
        <ele>59.5</ele>
        <time>2022-08-03T08:14:54Z</time>
      </trkpt>
      <trkpt lat="49.83107" lon="2.5726">
        <ele>59.5</ele>
        <time>2022-08-03T08:14:55Z</time>
      </trkpt>
      <trkpt lat="49.83108" lon="2.5726">
        <ele>59.5</ele>
        <time>2022-08-03T08:14:56Z</time>
      </trkpt>
      <trkpt lat="49.83109" lon="2.57261">
        <ele>59.5</ele>
        <time>2022-08-03T08:14:57Z</time>
      </trkpt>
      <trkpt lat="49.83109" lon="2.57261">
        <ele>59.5</ele>
        <time>2022-08-03T08:14:58Z</time>
      </trkpt>
      <trkpt lat="49.8311" lon="2.57261">
        <ele>59.5</ele>
        <time>2022-08-03T08:14:59Z</time>
      </trkpt>
      <trkpt lat="49.83109" lon="2.57261">
        <ele>59.5</ele>
        <time>2022-08-03T08:15:00Z</time>
      </trkpt>
      <trkpt lat="49.83109" lon="2.57261">
        <ele>59.5</ele>
        <time>2022-08-03T08:15:01Z</time>
      </trkpt>
      <trkpt lat="49.83109" lon="2.57261">
        <ele>59.5</ele>
        <time>2022-08-03T08:15:02Z</time>
      </trkpt>
      <trkpt lat="49.83109" lon="2.57261">
        <ele>59.5</ele>
        <time>2022-08-03T08:15:03Z</time>
      </trkpt>
      <trkpt lat="49.83109" lon="2.57261">
        <ele>59.5</ele>
        <time>2022-08-03T08:15:04Z</time>
      </trkpt>
      <trkpt lat="49.83109" lon="2.57261">
        <ele>59.5</ele>
        <time>2022-08-03T08:15:05Z</time>
      </trkpt>
      <trkpt lat="49.83109" lon="2.57261">
        <ele>59.5</ele>
        <time>2022-08-03T08:15:06Z</time>
      </trkpt>
      <trkpt lat="49.8311" lon="2.57262">
        <ele>59.5</ele>
        <time>2022-08-03T08:15:07Z</time>
      </trkpt>
      <trkpt lat="49.8311" lon="2.57262">
        <ele>59.5</ele>
        <time>2022-08-03T08:15:08Z</time>
      </trkpt>
      <trkpt lat="49.8311" lon="2.57262">
        <ele>59.5</ele>
        <time>2022-08-03T08:15:09Z</time>
      </trkpt>
      <trkpt lat="49.8311" lon="2.57262">
        <ele>59.5</ele>
        <time>2022-08-03T08:15:10Z</time>
      </trkpt>
      <trkpt lat="49.8311" lon="2.57262">
        <ele>59.5</ele>
        <time>2022-08-03T08:15:11Z</time>
      </trkpt>
      <trkpt lat="49.8311" lon="2.57262">
        <ele>59.5</ele>
        <time>2022-08-03T08:15:12Z</time>
      </trkpt>
      <trkpt lat="49.8311" lon="2.57262">
        <ele>59.5</ele>
        <time>2022-08-03T08:15:13Z</time>
      </trkpt>
      <trkpt lat="49.8311" lon="2.57262">
        <ele>59.5</ele>
        <time>2022-08-03T08:15:14Z</time>
      </trkpt>
      <trkpt lat="49.8311" lon="2.57262">
        <ele>59.5</ele>
        <time>2022-08-03T08:15:15Z</time>
      </trkpt>
      <trkpt lat="49.8311" lon="2.57262">
        <ele>59.5</ele>
        <time>2022-08-03T08:15:16Z</time>
      </trkpt>
      <trkpt lat="49.8311" lon="2.57262">
        <ele>59.5</ele>
        <time>2022-08-03T08:15:17Z</time>
      </trkpt>
      <trkpt lat="49.8311" lon="2.57262">
        <ele>59.5</ele>
        <time>2022-08-03T08:15:18Z</time>
      </trkpt>
      <trkpt lat="49.8311" lon="2.57262">
        <ele>59.5</ele>
        <time>2022-08-03T08:15:19Z</time>
      </trkpt>
      <trkpt lat="49.8311" lon="2.57262">
        <ele>59.5</ele>
        <time>2022-08-03T08:15:20Z</time>
      </trkpt>
      <trkpt lat="49.8311" lon="2.57262">
        <ele>59.5</ele>
        <time>2022-08-03T08:15:21Z</time>
      </trkpt>
      <trkpt lat="49.8311" lon="2.57262">
        <ele>59.5</ele>
        <time>2022-08-03T08:15:22Z</time>
      </trkpt>
      <trkpt lat="49.8311" lon="2.57262">
        <ele>59.5</ele>
        <time>2022-08-03T08:15:23Z</time>
      </trkpt>
      <trkpt lat="49.8311" lon="2.57262">
        <ele>59.5</ele>
        <time>2022-08-03T08:15:24Z</time>
      </trkpt>
      <trkpt lat="49.8311" lon="2.57262">
        <ele>59.5</ele>
        <time>2022-08-03T08:15:25Z</time>
      </trkpt>
      <trkpt lat="49.8311" lon="2.57262">
        <ele>59.5</ele>
        <time>2022-08-03T08:15:26Z</time>
      </trkpt>
      <trkpt lat="49.8311" lon="2.57262">
        <ele>59.5</ele>
        <time>2022-08-03T08:15:27Z</time>
      </trkpt>
      <trkpt lat="49.8311" lon="2.57262">
        <ele>59.5</ele>
        <time>2022-08-03T08:15:28Z</time>
      </trkpt>
      <trkpt lat="49.8311" lon="2.57262">
        <ele>59.5</ele>
        <time>2022-08-03T08:15:29Z</time>
      </trkpt>
      <trkpt lat="49.8311" lon="2.57262">
        <ele>59.5</ele>
        <time>2022-08-03T08:15:30Z</time>
      </trkpt>
      <trkpt lat="49.8311" lon="2.57262">
        <ele>59.5</ele>
        <time>2022-08-03T08:15:31Z</time>
      </trkpt>
      <trkpt lat="49.8311" lon="2.57262">
        <ele>59.5</ele>
        <time>2022-08-03T08:15:32Z</time>
      </trkpt>
      <trkpt lat="49.8311" lon="2.57262">
        <ele>59.5</ele>
        <time>2022-08-03T08:15:33Z</time>
      </trkpt>
      <trkpt lat="49.8311" lon="2.57262">
        <ele>59.5</ele>
        <time>2022-08-03T08:15:34Z</time>
      </trkpt>
      <trkpt lat="49.8311" lon="2.57262">
        <ele>59.5</ele>
        <time>2022-08-03T08:15:35Z</time>
      </trkpt>
      <trkpt lat="49.8311" lon="2.57262">
        <ele>59.5</ele>
        <time>2022-08-03T08:15:36Z</time>
      </trkpt>
      <trkpt lat="49.8311" lon="2.57262">
        <ele>59.5</ele>
        <time>2022-08-03T08:15:37Z</time>
      </trkpt>
      <trkpt lat="49.8311" lon="2.57262">
        <ele>59.5</ele>
        <time>2022-08-03T08:15:38Z</time>
      </trkpt>
      <trkpt lat="49.8311" lon="2.57262">
        <ele>59.5</ele>
        <time>2022-08-03T08:15:39Z</time>
      </trkpt>
      <trkpt lat="49.8311" lon="2.57262">
        <ele>59.5</ele>
        <time>2022-08-03T08:15:40Z</time>
      </trkpt>
      <trkpt lat="49.8311" lon="2.57262">
        <ele>59.5</ele>
        <time>2022-08-03T08:15:41Z</time>
      </trkpt>
      <trkpt lat="49.8311" lon="2.57262">
        <ele>59.5</ele>
        <time>2022-08-03T08:15:42Z</time>
      </trkpt>
      <trkpt lat="49.8311" lon="2.57262">
        <ele>59.5</ele>
        <time>2022-08-03T08:15:43Z</time>
      </trkpt>
      <trkpt lat="49.8311" lon="2.57262">
        <ele>59.5</ele>
        <time>2022-08-03T08:15:44Z</time>
      </trkpt>
      <trkpt lat="49.8311" lon="2.57262">
        <ele>59.5</ele>
        <time>2022-08-03T08:15:45Z</time>
      </trkpt>
      <trkpt lat="49.8311" lon="2.57262">
        <ele>59.5</ele>
        <time>2022-08-03T08:15:46Z</time>
      </trkpt>
      <trkpt lat="49.8311" lon="2.57262">
        <ele>59.5</ele>
        <time>2022-08-03T08:15:47Z</time>
      </trkpt>
      <trkpt lat="49.83108" lon="2.5726">
        <ele>59.5</ele>
        <time>2022-08-03T08:15:48Z</time>
      </trkpt>
      <trkpt lat="49.83107" lon="2.57261">
        <ele>59.5</ele>
        <time>2022-08-03T08:15:49Z</time>
      </trkpt>
      <trkpt lat="49.83106" lon="2.5726">
        <ele>59.5</ele>
        <time>2022-08-03T08:15:50Z</time>
      </trkpt>
      <trkpt lat="49.83106" lon="2.5726">
        <ele>59.5</ele>
        <time>2022-08-03T08:15:51Z</time>
      </trkpt>
      <trkpt lat="49.83106" lon="2.5726">
        <ele>59.5</ele>
        <time>2022-08-03T08:15:52Z</time>
      </trkpt>
      <trkpt lat="49.83106" lon="2.5726">
        <ele>59.5</ele>
        <time>2022-08-03T08:15:53Z</time>
      </trkpt>
      <trkpt lat="49.83106" lon="2.5726">
        <ele>59.5</ele>
        <time>2022-08-03T08:15:54Z</time>
      </trkpt>
      <trkpt lat="49.83106" lon="2.5726">
        <ele>59.5</ele>
        <time>2022-08-03T08:15:55Z</time>
      </trkpt>
      <trkpt lat="49.83106" lon="2.5726">
        <ele>59.5</ele>
        <time>2022-08-03T08:15:56Z</time>
      </trkpt>
      <trkpt lat="49.83106" lon="2.57261">
        <ele>59.5</ele>
        <time>2022-08-03T08:15:57Z</time>
      </trkpt>
      <trkpt lat="49.83106" lon="2.57261">
        <ele>59.5</ele>
        <time>2022-08-03T08:15:58Z</time>
      </trkpt>
      <trkpt lat="49.83106" lon="2.57261">
        <ele>59.5</ele>
        <time>2022-08-03T08:15:59Z</time>
      </trkpt>
      <trkpt lat="49.83106" lon="2.57261">
        <ele>59.5</ele>
        <time>2022-08-03T08:16:00Z</time>
      </trkpt>
      <trkpt lat="49.83106" lon="2.57261">
        <ele>59.5</ele>
        <time>2022-08-03T08:16:01Z</time>
      </trkpt>
      <trkpt lat="49.83106" lon="2.57261">
        <ele>59.5</ele>
        <time>2022-08-03T08:16:02Z</time>
      </trkpt>
      <trkpt lat="49.83106" lon="2.57261">
        <ele>59.5</ele>
        <time>2022-08-03T08:16:03Z</time>
      </trkpt>
      <trkpt lat="49.83106" lon="2.57262">
        <ele>59.5</ele>
        <time>2022-08-03T08:16:04Z</time>
      </trkpt>
      <trkpt lat="49.83106" lon="2.57262">
        <ele>59.5</ele>
        <time>2022-08-03T08:16:05Z</time>
      </trkpt>
      <trkpt lat="49.83106" lon="2.57262">
        <ele>59.5</ele>
        <time>2022-08-03T08:16:06Z</time>
      </trkpt>
      <trkpt lat="49.83106" lon="2.57262">
        <ele>59.5</ele>
        <time>2022-08-03T08:16:07Z</time>
      </trkpt>
      <trkpt lat="49.83106" lon="2.57262">
        <ele>59.5</ele>
        <time>2022-08-03T08:16:08Z</time>
      </trkpt>
      <trkpt lat="49.83106" lon="2.57262">
        <ele>59.5</ele>
        <time>2022-08-03T08:16:09Z</time>
      </trkpt>
      <trkpt lat="49.83106" lon="2.57262">
        <ele>59.5</ele>
        <time>2022-08-03T08:16:10Z</time>
      </trkpt>
      <trkpt lat="49.83106" lon="2.57263">
        <ele>59.5</ele>
        <time>2022-08-03T08:16:11Z</time>
      </trkpt>
      <trkpt lat="49.83106" lon="2.57263">
        <ele>59.5</ele>
        <time>2022-08-03T08:16:12Z</time>
      </trkpt>
      <trkpt lat="49.83105" lon="2.57263">
        <ele>59.5</ele>
        <time>2022-08-03T08:16:13Z</time>
      </trkpt>
      <trkpt lat="49.83105" lon="2.57263">
        <ele>59.5</ele>
        <time>2022-08-03T08:16:14Z</time>
      </trkpt>
      <trkpt lat="49.83105" lon="2.57263">
        <ele>59.5</ele>
        <time>2022-08-03T08:16:15Z</time>
      </trkpt>
      <trkpt lat="49.83105" lon="2.57263">
        <ele>59.5</ele>
        <time>2022-08-03T08:16:16Z</time>
      </trkpt>
      <trkpt lat="49.83105" lon="2.57263">
        <ele>59.5</ele>
        <time>2022-08-03T08:16:17Z</time>
      </trkpt>
      <trkpt lat="49.83105" lon="2.57264">
        <ele>59.5</ele>
        <time>2022-08-03T08:16:18Z</time>
      </trkpt>
      <trkpt lat="49.83105" lon="2.57264">
        <ele>59.5</ele>
        <time>2022-08-03T08:16:19Z</time>
      </trkpt>
      <trkpt lat="49.83105" lon="2.57264">
        <ele>59.5</ele>
        <time>2022-08-03T08:16:20Z</time>
      </trkpt>
      <trkpt lat="49.83105" lon="2.57264">
        <ele>59.5</ele>
        <time>2022-08-03T08:16:21Z</time>
      </trkpt>
      <trkpt lat="49.83105" lon="2.57264">
        <ele>59.5</ele>
        <time>2022-08-03T08:16:22Z</time>
      </trkpt>
      <trkpt lat="49.83105" lon="2.57264">
        <ele>59.5</ele>
        <time>2022-08-03T08:16:23Z</time>
      </trkpt>
      <trkpt lat="49.83105" lon="2.57264">
        <ele>59.5</ele>
        <time>2022-08-03T08:16:24Z</time>
      </trkpt>
      <trkpt lat="49.83105" lon="2.57265">
        <ele>59.5</ele>
        <time>2022-08-03T08:16:25Z</time>
      </trkpt>
      <trkpt lat="49.83105" lon="2.57265">
        <ele>59.5</ele>
        <time>2022-08-03T08:16:26Z</time>
      </trkpt>
      <trkpt lat="49.83105" lon="2.57265">
        <ele>59.5</ele>
        <time>2022-08-03T08:16:28Z</time>
      </trkpt>
      <trkpt lat="49.83105" lon="2.57265">
        <ele>59.5</ele>
        <time>2022-08-03T08:16:29Z</time>
      </trkpt>
      <trkpt lat="49.83105" lon="2.57265">
        <ele>59.5</ele>
        <time>2022-08-03T08:16:30Z</time>
      </trkpt>
      <trkpt lat="49.83105" lon="2.57265">
        <ele>59.5</ele>
        <time>2022-08-03T08:16:31Z</time>
      </trkpt>
      <trkpt lat="49.83105" lon="2.57265">
        <ele>59.5</ele>
        <time>2022-08-03T08:16:32Z</time>
      </trkpt>
      <trkpt lat="49.83105" lon="2.57265">
        <ele>59.5</ele>
        <time>2022-08-03T08:16:33Z</time>
      </trkpt>
      <trkpt lat="49.83105" lon="2.57266">
        <ele>59.5</ele>
        <time>2022-08-03T08:16:34Z</time>
      </trkpt>
      <trkpt lat="49.83105" lon="2.57266">
        <ele>59.5</ele>
        <time>2022-08-03T08:16:36Z</time>
      </trkpt>
      <trkpt lat="49.83105" lon="2.57266">
        <ele>59.5</ele>
        <time>2022-08-03T08:16:37Z</time>
      </trkpt>
      <trkpt lat="49.83105" lon="2.57266">
        <ele>59.5</ele>
        <time>2022-08-03T08:16:38Z</time>
      </trkpt>
      <trkpt lat="49.83105" lon="2.57266">
        <ele>59.5</ele>
        <time>2022-08-03T08:16:40Z</time>
      </trkpt>
      <trkpt lat="49.83105" lon="2.57266">
        <ele>59.5</ele>
        <time>2022-08-03T08:16:41Z</time>
      </trkpt>
      <trkpt lat="49.83105" lon="2.57266">
        <ele>59.5</ele>
        <time>2022-08-03T08:16:42Z</time>
      </trkpt>
      <trkpt lat="49.83105" lon="2.57267">
        <ele>59.5</ele>
        <time>2022-08-03T08:16:43Z</time>
      </trkpt>
      <trkpt lat="49.83105" lon="2.57267">
        <ele>59.5</ele>
        <time>2022-08-03T08:16:44Z</time>
      </trkpt>
      <trkpt lat="49.83105" lon="2.57267">
        <ele>59.5</ele>
        <time>2022-08-03T08:16:45Z</time>
      </trkpt>
      <trkpt lat="49.83105" lon="2.57267">
        <ele>59.5</ele>
        <time>2022-08-03T08:16:46Z</time>
      </trkpt>
      <trkpt lat="49.83105" lon="2.57267">
        <ele>59.5</ele>
        <time>2022-08-03T08:16:47Z</time>
      </trkpt>
      <trkpt lat="49.83104" lon="2.57273">
        <ele>59.5</ele>
        <time>2022-08-03T08:16:49Z</time>
      </trkpt>
      <trkpt lat="49.83103" lon="2.57275">
        <ele>59.5</ele>
        <time>2022-08-03T08:16:50Z</time>
      </trkpt>
      <trkpt lat="49.83102" lon="2.57279">
        <ele>59.5</ele>
        <time>2022-08-03T08:16:51Z</time>
      </trkpt>
      <trkpt lat="49.83101" lon="2.5728">
        <ele>59.5</ele>
        <time>2022-08-03T08:16:52Z</time>
      </trkpt>
      <trkpt lat="49.831" lon="2.57285">
        <ele>59.5</ele>
        <time>2022-08-03T08:16:53Z</time>
      </trkpt>
      <trkpt lat="49.83099" lon="2.57286">
        <ele>59.5</ele>
        <time>2022-08-03T08:16:54Z</time>
      </trkpt>
      <trkpt lat="49.83098" lon="2.57288">
        <ele>59.5</ele>
        <time>2022-08-03T08:16:55Z</time>
      </trkpt>
      <trkpt lat="49.83098" lon="2.5729">
        <ele>59.5</ele>
        <time>2022-08-03T08:16:56Z</time>
      </trkpt>
      <trkpt lat="49.83097" lon="2.57293">
        <ele>59.5</ele>
        <time>2022-08-03T08:16:58Z</time>
      </trkpt>
      <trkpt lat="49.83096" lon="2.57294">
        <ele>59.5</ele>
        <time>2022-08-03T08:16:59Z</time>
      </trkpt>
      <trkpt lat="49.83095" lon="2.57296">
        <ele>59.5</ele>
        <time>2022-08-03T08:17:00Z</time>
      </trkpt>
      <trkpt lat="49.83094" lon="2.57297">
        <ele>59.5</ele>
        <time>2022-08-03T08:17:01Z</time>
      </trkpt>
      <trkpt lat="49.83093" lon="2.57298">
        <ele>59.5</ele>
        <time>2022-08-03T08:17:02Z</time>
      </trkpt>
      <trkpt lat="49.83092" lon="2.57299">
        <ele>59.5</ele>
        <time>2022-08-03T08:17:03Z</time>
      </trkpt>
      <trkpt lat="49.83091" lon="2.57301">
        <ele>59.6</ele>
        <time>2022-08-03T08:17:04Z</time>
      </trkpt>
      <trkpt lat="49.8309" lon="2.57303">
        <ele>59.6</ele>
        <time>2022-08-03T08:17:06Z</time>
      </trkpt>
      <trkpt lat="49.8309" lon="2.57305">
        <ele>59.6</ele>
        <time>2022-08-03T08:17:07Z</time>
      </trkpt>
      <trkpt lat="49.83089" lon="2.57307">
        <ele>59.6</ele>
        <time>2022-08-03T08:17:08Z</time>
      </trkpt>
      <trkpt lat="49.83088" lon="2.5731">
        <ele>59.6</ele>
        <time>2022-08-03T08:17:09Z</time>
      </trkpt>
      <trkpt lat="49.83088" lon="2.57311">
        <ele>59.6</ele>
        <time>2022-08-03T08:17:10Z</time>
      </trkpt>
      <trkpt lat="49.83087" lon="2.57313">
        <ele>59.6</ele>
        <time>2022-08-03T08:17:11Z</time>
      </trkpt>
      <trkpt lat="49.83086" lon="2.57316">
        <ele>59.7</ele>
        <time>2022-08-03T08:17:13Z</time>
      </trkpt>
      <trkpt lat="49.83085" lon="2.57317">
        <ele>59.7</ele>
        <time>2022-08-03T08:17:14Z</time>
      </trkpt>
      <trkpt lat="49.83084" lon="2.5732">
        <ele>59.7</ele>
        <time>2022-08-03T08:17:15Z</time>
      </trkpt>
      <trkpt lat="49.83084" lon="2.5732">
        <ele>59.7</ele>
        <time>2022-08-03T08:17:16Z</time>
      </trkpt>
      <trkpt lat="49.83083" lon="2.57321">
        <ele>59.7</ele>
        <time>2022-08-03T08:17:17Z</time>
      </trkpt>
      <trkpt lat="49.83083" lon="2.57322">
        <ele>59.7</ele>
        <time>2022-08-03T08:17:18Z</time>
      </trkpt>
      <trkpt lat="49.83082" lon="2.57326">
        <ele>59.7</ele>
        <time>2022-08-03T08:17:20Z</time>
      </trkpt>
      <trkpt lat="49.83081" lon="2.57327">
        <ele>59.7</ele>
        <time>2022-08-03T08:17:21Z</time>
      </trkpt>
      <trkpt lat="49.83081" lon="2.57329">
        <ele>59.7</ele>
        <time>2022-08-03T08:17:22Z</time>
      </trkpt>
      <trkpt lat="49.8308" lon="2.57331">
        <ele>59.8</ele>
        <time>2022-08-03T08:17:23Z</time>
      </trkpt>
      <trkpt lat="49.8308" lon="2.57333">
        <ele>59.8</ele>
        <time>2022-08-03T08:17:24Z</time>
      </trkpt>
      <trkpt lat="49.83079" lon="2.57336">
        <ele>59.8</ele>
        <time>2022-08-03T08:17:26Z</time>
      </trkpt>
      <trkpt lat="49.83078" lon="2.57338">
        <ele>59.8</ele>
        <time>2022-08-03T08:17:27Z</time>
      </trkpt>
      <trkpt lat="49.83078" lon="2.57343">
        <ele>59.8</ele>
        <time>2022-08-03T08:17:28Z</time>
      </trkpt>
      <trkpt lat="49.83078" lon="2.57344">
        <ele>59.8</ele>
        <time>2022-08-03T08:17:29Z</time>
      </trkpt>
      <trkpt lat="49.83078" lon="2.57346">
        <ele>59.9</ele>
        <time>2022-08-03T08:17:30Z</time>
      </trkpt>
      <trkpt lat="49.83078" lon="2.57348">
        <ele>59.9</ele>
        <time>2022-08-03T08:17:31Z</time>
      </trkpt>
      <trkpt lat="49.83077" lon="2.57351">
        <ele>59.9</ele>
        <time>2022-08-03T08:17:32Z</time>
      </trkpt>
      <trkpt lat="49.83077" lon="2.57353">
        <ele>59.9</ele>
        <time>2022-08-03T08:17:33Z</time>
      </trkpt>
      <trkpt lat="49.83077" lon="2.57357">
        <ele>59.9</ele>
        <time>2022-08-03T08:17:34Z</time>
      </trkpt>
      <trkpt lat="49.83076" lon="2.57358">
        <ele>59.9</ele>
        <time>2022-08-03T08:17:35Z</time>
      </trkpt>
      <trkpt lat="49.83076" lon="2.5736">
        <ele>59.9</ele>
        <time>2022-08-03T08:17:36Z</time>
      </trkpt>
      <trkpt lat="49.83076" lon="2.57363">
        <ele>60</ele>
        <time>2022-08-03T08:17:38Z</time>
      </trkpt>
      <trkpt lat="49.83075" lon="2.57368">
        <ele>60</ele>
        <time>2022-08-03T08:17:40Z</time>
      </trkpt>
      <trkpt lat="49.83075" lon="2.5737">
        <ele>60</ele>
        <time>2022-08-03T08:17:41Z</time>
      </trkpt>
      <trkpt lat="49.83075" lon="2.57371">
        <ele>60</ele>
        <time>2022-08-03T08:17:42Z</time>
      </trkpt>
      <trkpt lat="49.83075" lon="2.57373">
        <ele>60</ele>
        <time>2022-08-03T08:17:43Z</time>
      </trkpt>
      <trkpt lat="49.83074" lon="2.57375">
        <ele>60.1</ele>
        <time>2022-08-03T08:17:44Z</time>
      </trkpt>
      <trkpt lat="49.83074" lon="2.57378">
        <ele>60.1</ele>
        <time>2022-08-03T08:17:45Z</time>
      </trkpt>
      <trkpt lat="49.83073" lon="2.57379">
        <ele>60.1</ele>
        <time>2022-08-03T08:17:46Z</time>
      </trkpt>
      <trkpt lat="49.83073" lon="2.57381">
        <ele>60.1</ele>
        <time>2022-08-03T08:17:47Z</time>
      </trkpt>
      <trkpt lat="49.83072" lon="2.57382">
        <ele>60.1</ele>
        <time>2022-08-03T08:17:49Z</time>
      </trkpt>
      <trkpt lat="49.83072" lon="2.57385">
        <ele>60.2</ele>
        <time>2022-08-03T08:17:50Z</time>
      </trkpt>
      <trkpt lat="49.83071" lon="2.57387">
        <ele>60.2</ele>
        <time>2022-08-03T08:17:51Z</time>
      </trkpt>
      <trkpt lat="49.8307" lon="2.57391">
        <ele>60.2</ele>
        <time>2022-08-03T08:17:52Z</time>
      </trkpt>
      <trkpt lat="49.8307" lon="2.57393">
        <ele>60.2</ele>
        <time>2022-08-03T08:17:53Z</time>
      </trkpt>
      <trkpt lat="49.8307" lon="2.57394">
        <ele>60.2</ele>
        <time>2022-08-03T08:17:54Z</time>
      </trkpt>
      <trkpt lat="49.83069" lon="2.57395">
        <ele>60.3</ele>
        <time>2022-08-03T08:17:56Z</time>
      </trkpt>
      <trkpt lat="49.83069" lon="2.57397">
        <ele>60.3</ele>
        <time>2022-08-03T08:17:57Z</time>
      </trkpt>
      <trkpt lat="49.83069" lon="2.57398">
        <ele>60.3</ele>
        <time>2022-08-03T08:17:58Z</time>
      </trkpt>
      <trkpt lat="49.83068" lon="2.574">
        <ele>60.3</ele>
        <time>2022-08-03T08:17:59Z</time>
      </trkpt>
      <trkpt lat="49.83068" lon="2.57403">
        <ele>60.3</ele>
        <time>2022-08-03T08:18:00Z</time>
      </trkpt>
      <trkpt lat="49.83067" lon="2.57405">
        <ele>60.4</ele>
        <time>2022-08-03T08:18:01Z</time>
      </trkpt>
      <trkpt lat="49.83066" lon="2.57407">
        <ele>60.4</ele>
        <time>2022-08-03T08:18:02Z</time>
      </trkpt>
      <trkpt lat="49.83066" lon="2.57408">
        <ele>60.4</ele>
        <time>2022-08-03T08:18:03Z</time>
      </trkpt>
      <trkpt lat="49.83065" lon="2.57411">
        <ele>60.4</ele>
        <time>2022-08-03T08:18:05Z</time>
      </trkpt>
      <trkpt lat="49.83065" lon="2.57413">
        <ele>60.4</ele>
        <time>2022-08-03T08:18:06Z</time>
      </trkpt>
      <trkpt lat="49.83065" lon="2.57414">
        <ele>60.5</ele>
        <time>2022-08-03T08:18:07Z</time>
      </trkpt>
      <trkpt lat="49.83064" lon="2.57416">
        <ele>60.5</ele>
        <time>2022-08-03T08:18:08Z</time>
      </trkpt>
      <trkpt lat="49.83064" lon="2.57417">
        <ele>60.5</ele>
        <time>2022-08-03T08:18:09Z</time>
      </trkpt>
      <trkpt lat="49.83063" lon="2.5742">
        <ele>60.5</ele>
        <time>2022-08-03T08:18:10Z</time>
      </trkpt>
      <trkpt lat="49.83062" lon="2.57421">
        <ele>60.5</ele>
        <time>2022-08-03T08:18:11Z</time>
      </trkpt>
      <trkpt lat="49.83062" lon="2.57422">
        <ele>60.5</ele>
        <time>2022-08-03T08:18:12Z</time>
      </trkpt>
      <trkpt lat="49.83062" lon="2.57424">
        <ele>60.6</ele>
        <time>2022-08-03T08:18:13Z</time>
      </trkpt>
      <trkpt lat="49.83061" lon="2.57426">
        <ele>60.6</ele>
        <time>2022-08-03T08:18:14Z</time>
      </trkpt>
      <trkpt lat="49.83061" lon="2.57428">
        <ele>60.6</ele>
        <time>2022-08-03T08:18:15Z</time>
      </trkpt>
      <trkpt lat="49.83061" lon="2.5743">
        <ele>60.6</ele>
        <time>2022-08-03T08:18:16Z</time>
      </trkpt>
      <trkpt lat="49.83061" lon="2.57431">
        <ele>60.6</ele>
        <time>2022-08-03T08:18:17Z</time>
      </trkpt>
      <trkpt lat="49.83061" lon="2.57432">
        <ele>60.6</ele>
        <time>2022-08-03T08:18:18Z</time>
      </trkpt>
      <trkpt lat="49.8306" lon="2.57435">
        <ele>60.7</ele>
        <time>2022-08-03T08:18:20Z</time>
      </trkpt>
      <trkpt lat="49.8306" lon="2.57437">
        <ele>60.7</ele>
        <time>2022-08-03T08:18:21Z</time>
      </trkpt>
      <trkpt lat="49.8306" lon="2.5744">
        <ele>60.7</ele>
        <time>2022-08-03T08:18:22Z</time>
      </trkpt>
      <trkpt lat="49.8306" lon="2.57441">
        <ele>60.7</ele>
        <time>2022-08-03T08:18:23Z</time>
      </trkpt>
      <trkpt lat="49.8306" lon="2.57442">
        <ele>60.7</ele>
        <time>2022-08-03T08:18:24Z</time>
      </trkpt>
      <trkpt lat="49.8306" lon="2.57445">
        <ele>60.7</ele>
        <time>2022-08-03T08:18:25Z</time>
      </trkpt>
      <trkpt lat="49.8306" lon="2.57447">
        <ele>60.8</ele>
        <time>2022-08-03T08:18:26Z</time>
      </trkpt>
      <trkpt lat="49.8306" lon="2.57449">
        <ele>60.8</ele>
        <time>2022-08-03T08:18:27Z</time>
      </trkpt>
      <trkpt lat="49.83059" lon="2.57451">
        <ele>60.8</ele>
        <time>2022-08-03T08:18:28Z</time>
      </trkpt>
      <trkpt lat="49.83059" lon="2.57455">
        <ele>60.8</ele>
        <time>2022-08-03T08:18:30Z</time>
      </trkpt>
      <trkpt lat="49.83059" lon="2.57456">
        <ele>60.8</ele>
        <time>2022-08-03T08:18:31Z</time>
      </trkpt>
      <trkpt lat="49.83058" lon="2.57457">
        <ele>60.8</ele>
        <time>2022-08-03T08:18:32Z</time>
      </trkpt>
      <trkpt lat="49.83058" lon="2.57459">
        <ele>60.9</ele>
        <time>2022-08-03T08:18:33Z</time>
      </trkpt>
      <trkpt lat="49.83058" lon="2.57463">
        <ele>60.9</ele>
        <time>2022-08-03T08:18:34Z</time>
      </trkpt>
      <trkpt lat="49.83058" lon="2.57464">
        <ele>60.9</ele>
        <time>2022-08-03T08:18:35Z</time>
      </trkpt>
      <trkpt lat="49.83058" lon="2.57465">
        <ele>60.9</ele>
        <time>2022-08-03T08:18:36Z</time>
      </trkpt>
      <trkpt lat="49.83057" lon="2.57467">
        <ele>60.9</ele>
        <time>2022-08-03T08:18:37Z</time>
      </trkpt>
      <trkpt lat="49.83057" lon="2.57469">
        <ele>60.9</ele>
        <time>2022-08-03T08:18:38Z</time>
      </trkpt>
      <trkpt lat="49.83057" lon="2.57472">
        <ele>60.9</ele>
        <time>2022-08-03T08:18:40Z</time>
      </trkpt>
      <trkpt lat="49.83056" lon="2.57474">
        <ele>60.9</ele>
        <time>2022-08-03T08:18:41Z</time>
      </trkpt>
      <trkpt lat="49.83056" lon="2.57476">
        <ele>60.9</ele>
        <time>2022-08-03T08:18:42Z</time>
      </trkpt>
      <trkpt lat="49.83055" lon="2.57477">
        <ele>60.9</ele>
        <time>2022-08-03T08:18:43Z</time>
      </trkpt>
      <trkpt lat="49.83055" lon="2.5748">
        <ele>60.9</ele>
        <time>2022-08-03T08:18:45Z</time>
      </trkpt>
      <trkpt lat="49.83055" lon="2.57482">
        <ele>60.9</ele>
        <time>2022-08-03T08:18:46Z</time>
      </trkpt>
      <trkpt lat="49.83054" lon="2.57484">
        <ele>60.9</ele>
        <time>2022-08-03T08:18:47Z</time>
      </trkpt>
      <trkpt lat="49.83054" lon="2.57487">
        <ele>60.9</ele>
        <time>2022-08-03T08:18:49Z</time>
      </trkpt>
      <trkpt lat="49.83053" lon="2.5749">
        <ele>60.9</ele>
        <time>2022-08-03T08:18:50Z</time>
      </trkpt>
      <trkpt lat="49.83053" lon="2.57492">
        <ele>60.9</ele>
        <time>2022-08-03T08:18:51Z</time>
      </trkpt>
      <trkpt lat="49.83052" lon="2.57495">
        <ele>60.9</ele>
        <time>2022-08-03T08:18:52Z</time>
      </trkpt>
      <trkpt lat="49.83052" lon="2.57497">
        <ele>60.9</ele>
        <time>2022-08-03T08:18:54Z</time>
      </trkpt>
      <trkpt lat="49.83052" lon="2.57498">
        <ele>60.9</ele>
        <time>2022-08-03T08:18:55Z</time>
      </trkpt>
      <trkpt lat="49.83051" lon="2.575">
        <ele>60.9</ele>
        <time>2022-08-03T08:18:56Z</time>
      </trkpt>
      <trkpt lat="49.83051" lon="2.57502">
        <ele>60.9</ele>
        <time>2022-08-03T08:18:57Z</time>
      </trkpt>
      <trkpt lat="49.83051" lon="2.57504">
        <ele>60.9</ele>
        <time>2022-08-03T08:18:58Z</time>
      </trkpt>
      <trkpt lat="49.83051" lon="2.57506">
        <ele>60.9</ele>
        <time>2022-08-03T08:18:59Z</time>
      </trkpt>
      <trkpt lat="49.8305" lon="2.57509">
        <ele>60.8</ele>
        <time>2022-08-03T08:19:00Z</time>
      </trkpt>
      <trkpt lat="49.8305" lon="2.57511">
        <ele>60.8</ele>
        <time>2022-08-03T08:19:02Z</time>
      </trkpt>
      <trkpt lat="49.8305" lon="2.57513">
        <ele>60.8</ele>
        <time>2022-08-03T08:19:03Z</time>
      </trkpt>
      <trkpt lat="49.83049" lon="2.57516">
        <ele>60.8</ele>
        <time>2022-08-03T08:19:04Z</time>
      </trkpt>
      <trkpt lat="49.83049" lon="2.57518">
        <ele>60.8</ele>
        <time>2022-08-03T08:19:05Z</time>
      </trkpt>
      <trkpt lat="49.83049" lon="2.5752">
        <ele>60.8</ele>
        <time>2022-08-03T08:19:06Z</time>
      </trkpt>
      <trkpt lat="49.83048" lon="2.57521">
        <ele>60.7</ele>
        <time>2022-08-03T08:19:08Z</time>
      </trkpt>
      <trkpt lat="49.83048" lon="2.57523">
        <ele>60.7</ele>
        <time>2022-08-03T08:19:09Z</time>
      </trkpt>
      <trkpt lat="49.83048" lon="2.57526">
        <ele>60.7</ele>
        <time>2022-08-03T08:19:10Z</time>
      </trkpt>
      <trkpt lat="49.83047" lon="2.57527">
        <ele>60.7</ele>
        <time>2022-08-03T08:19:11Z</time>
      </trkpt>
      <trkpt lat="49.83047" lon="2.57529">
        <ele>60.7</ele>
        <time>2022-08-03T08:19:12Z</time>
      </trkpt>
      <trkpt lat="49.83047" lon="2.57531">
        <ele>60.6</ele>
        <time>2022-08-03T08:19:13Z</time>
      </trkpt>
      <trkpt lat="49.83046" lon="2.57532">
        <ele>60.6</ele>
        <time>2022-08-03T08:19:14Z</time>
      </trkpt>
      <trkpt lat="49.83046" lon="2.57535">
        <ele>60.6</ele>
        <time>2022-08-03T08:19:15Z</time>
      </trkpt>
      <trkpt lat="49.83045" lon="2.57538">
        <ele>60.6</ele>
        <time>2022-08-03T08:19:16Z</time>
      </trkpt>
      <trkpt lat="49.83044" lon="2.5754">
        <ele>60.5</ele>
        <time>2022-08-03T08:19:18Z</time>
      </trkpt>
      <trkpt lat="49.83044" lon="2.57541">
        <ele>60.5</ele>
        <time>2022-08-03T08:19:19Z</time>
      </trkpt>
      <trkpt lat="49.83043" lon="2.57544">
        <ele>60.5</ele>
        <time>2022-08-03T08:19:20Z</time>
      </trkpt>
      <trkpt lat="49.83043" lon="2.57546">
        <ele>60.5</ele>
        <time>2022-08-03T08:19:21Z</time>
      </trkpt>
      <trkpt lat="49.83042" lon="2.57548">
        <ele>60.4</ele>
        <time>2022-08-03T08:19:23Z</time>
      </trkpt>
      <trkpt lat="49.83041" lon="2.57551">
        <ele>60.4</ele>
        <time>2022-08-03T08:19:24Z</time>
      </trkpt>
      <trkpt lat="49.83041" lon="2.57552">
        <ele>60.4</ele>
        <time>2022-08-03T08:19:25Z</time>
      </trkpt>
      <trkpt lat="49.83041" lon="2.57555">
        <ele>60.3</ele>
        <time>2022-08-03T08:19:27Z</time>
      </trkpt>
      <trkpt lat="49.8304" lon="2.57557">
        <ele>60.3</ele>
        <time>2022-08-03T08:19:28Z</time>
      </trkpt>
      <trkpt lat="49.83039" lon="2.57559">
        <ele>60.3</ele>
        <time>2022-08-03T08:19:29Z</time>
      </trkpt>
      <trkpt lat="49.83038" lon="2.57564">
        <ele>60.2</ele>
        <time>2022-08-03T08:19:31Z</time>
      </trkpt>
      <trkpt lat="49.83038" lon="2.57565">
        <ele>60.2</ele>
        <time>2022-08-03T08:19:32Z</time>
      </trkpt>
      <trkpt lat="49.83037" lon="2.57568">
        <ele>60.1</ele>
        <time>2022-08-03T08:19:33Z</time>
      </trkpt>
      <trkpt lat="49.83037" lon="2.57569">
        <ele>60.1</ele>
        <time>2022-08-03T08:19:34Z</time>
      </trkpt>
      <trkpt lat="49.83037" lon="2.5757">
        <ele>60.1</ele>
        <time>2022-08-03T08:19:35Z</time>
      </trkpt>
      <trkpt lat="49.83036" lon="2.57573">
        <ele>60</ele>
        <time>2022-08-03T08:19:36Z</time>
      </trkpt>
      <trkpt lat="49.83036" lon="2.57575">
        <ele>60</ele>
        <time>2022-08-03T08:19:37Z</time>
      </trkpt>
      <trkpt lat="49.83036" lon="2.57576">
        <ele>60</ele>
        <time>2022-08-03T08:19:38Z</time>
      </trkpt>
      <trkpt lat="49.83035" lon="2.57581">
        <ele>59.9</ele>
        <time>2022-08-03T08:19:39Z</time>
      </trkpt>
      <trkpt lat="49.83035" lon="2.57583">
        <ele>59.9</ele>
        <time>2022-08-03T08:19:41Z</time>
      </trkpt>
      <trkpt lat="49.83035" lon="2.57585">
        <ele>59.8</ele>
        <time>2022-08-03T08:19:43Z</time>
      </trkpt>
      <trkpt lat="49.83035" lon="2.57586">
        <ele>59.8</ele>
        <time>2022-08-03T08:19:44Z</time>
      </trkpt>
      <trkpt lat="49.83035" lon="2.5759">
        <ele>59.7</ele>
        <time>2022-08-03T08:19:46Z</time>
      </trkpt>
      <trkpt lat="49.83035" lon="2.57591">
        <ele>59.7</ele>
        <time>2022-08-03T08:19:47Z</time>
      </trkpt>
      <trkpt lat="49.83035" lon="2.57594">
        <ele>59.6</ele>
        <time>2022-08-03T08:19:48Z</time>
      </trkpt>
      <trkpt lat="49.83036" lon="2.57596">
        <ele>59.6</ele>
        <time>2022-08-03T08:19:49Z</time>
      </trkpt>
      <trkpt lat="49.83036" lon="2.57598">
        <ele>59.5</ele>
        <time>2022-08-03T08:19:50Z</time>
      </trkpt>
      <trkpt lat="49.83037" lon="2.576">
        <ele>59.5</ele>
        <time>2022-08-03T08:19:52Z</time>
      </trkpt>
      <trkpt lat="49.83037" lon="2.57601">
        <ele>59.5</ele>
        <time>2022-08-03T08:19:53Z</time>
      </trkpt>
      <trkpt lat="49.83037" lon="2.57602">
        <ele>59.5</ele>
        <time>2022-08-03T08:19:54Z</time>
      </trkpt>
      <trkpt lat="49.83037" lon="2.57604">
        <ele>59.4</ele>
        <time>2022-08-03T08:19:56Z</time>
      </trkpt>
      <trkpt lat="49.83037" lon="2.57606">
        <ele>59.4</ele>
        <time>2022-08-03T08:19:58Z</time>
      </trkpt>
      <trkpt lat="49.83037" lon="2.57607">
        <ele>59.4</ele>
        <time>2022-08-03T08:19:59Z</time>
      </trkpt>
      <trkpt lat="49.83037" lon="2.57607">
        <ele>59.4</ele>
        <time>2022-08-03T08:20:01Z</time>
      </trkpt>
      <trkpt lat="49.83037" lon="2.57608">
        <ele>59.4</ele>
        <time>2022-08-03T08:20:02Z</time>
      </trkpt>
      <trkpt lat="49.83037" lon="2.57609">
        <ele>59.3</ele>
        <time>2022-08-03T08:20:03Z</time>
      </trkpt>
      <trkpt lat="49.83037" lon="2.57609">
        <ele>59.3</ele>
        <time>2022-08-03T08:20:05Z</time>
      </trkpt>
      <trkpt lat="49.83036" lon="2.5761">
        <ele>59.3</ele>
        <time>2022-08-03T08:20:06Z</time>
      </trkpt>
      <trkpt lat="49.83036" lon="2.5761">
        <ele>59.3</ele>
        <time>2022-08-03T08:20:07Z</time>
      </trkpt>
      <trkpt lat="49.83036" lon="2.5761">
        <ele>59.3</ele>
        <time>2022-08-03T08:20:08Z</time>
      </trkpt>
      <trkpt lat="49.83036" lon="2.5761">
        <ele>59.3</ele>
        <time>2022-08-03T08:20:09Z</time>
      </trkpt>
      <trkpt lat="49.83036" lon="2.57609">
        <ele>59.3</ele>
        <time>2022-08-03T08:20:10Z</time>
      </trkpt>
      <trkpt lat="49.83036" lon="2.57609">
        <ele>59.3</ele>
        <time>2022-08-03T08:20:11Z</time>
      </trkpt>
      <trkpt lat="49.83036" lon="2.57609">
        <ele>59.3</ele>
        <time>2022-08-03T08:20:12Z</time>
      </trkpt>
      <trkpt lat="49.83036" lon="2.57609">
        <ele>59.3</ele>
        <time>2022-08-03T08:20:13Z</time>
      </trkpt>
      <trkpt lat="49.83036" lon="2.5761">
        <ele>59.3</ele>
        <time>2022-08-03T08:20:15Z</time>
      </trkpt>
      <trkpt lat="49.83035" lon="2.57609">
        <ele>59.3</ele>
        <time>2022-08-03T08:20:16Z</time>
      </trkpt>
      <trkpt lat="49.83035" lon="2.57609">
        <ele>59.3</ele>
        <time>2022-08-03T08:20:17Z</time>
      </trkpt>
      <trkpt lat="49.83035" lon="2.57608">
        <ele>59.2</ele>
        <time>2022-08-03T08:20:18Z</time>
      </trkpt>
      <trkpt lat="49.83034" lon="2.57607">
        <ele>59.2</ele>
        <time>2022-08-03T08:20:19Z</time>
      </trkpt>
      <trkpt lat="49.83034" lon="2.57607">
        <ele>59.2</ele>
        <time>2022-08-03T08:20:20Z</time>
      </trkpt>
      <trkpt lat="49.83034" lon="2.57606">
        <ele>59.2</ele>
        <time>2022-08-03T08:20:21Z</time>
      </trkpt>
      <trkpt lat="49.83034" lon="2.57606">
        <ele>59.2</ele>
        <time>2022-08-03T08:20:22Z</time>
      </trkpt>
      <trkpt lat="49.83033" lon="2.57605">
        <ele>59.2</ele>
        <time>2022-08-03T08:20:23Z</time>
      </trkpt>
      <trkpt lat="49.83033" lon="2.57605">
        <ele>59.1</ele>
        <time>2022-08-03T08:20:24Z</time>
      </trkpt>
      <trkpt lat="49.83033" lon="2.57604">
        <ele>59.1</ele>
        <time>2022-08-03T08:20:25Z</time>
      </trkpt>
      <trkpt lat="49.83033" lon="2.57604">
        <ele>59.1</ele>
        <time>2022-08-03T08:20:26Z</time>
      </trkpt>
      <trkpt lat="49.83033" lon="2.57603">
        <ele>59.1</ele>
        <time>2022-08-03T08:20:27Z</time>
      </trkpt>
      <trkpt lat="49.83033" lon="2.57603">
        <ele>59.1</ele>
        <time>2022-08-03T08:20:28Z</time>
      </trkpt>
      <trkpt lat="49.83033" lon="2.57603">
        <ele>59.1</ele>
        <time>2022-08-03T08:20:29Z</time>
      </trkpt>
      <trkpt lat="49.83032" lon="2.57603">
        <ele>59.1</ele>
        <time>2022-08-03T08:20:30Z</time>
      </trkpt>
      <trkpt lat="49.83032" lon="2.57602">
        <ele>59.1</ele>
        <time>2022-08-03T08:20:31Z</time>
      </trkpt>
      <trkpt lat="49.83032" lon="2.57602">
        <ele>59.1</ele>
        <time>2022-08-03T08:20:32Z</time>
      </trkpt>
      <trkpt lat="49.83032" lon="2.57602">
        <ele>59.1</ele>
        <time>2022-08-03T08:20:33Z</time>
      </trkpt>
      <trkpt lat="49.83033" lon="2.57602">
        <ele>59.1</ele>
        <time>2022-08-03T08:20:34Z</time>
      </trkpt>
      <trkpt lat="49.83033" lon="2.57602">
        <ele>59.1</ele>
        <time>2022-08-03T08:20:35Z</time>
      </trkpt>
      <trkpt lat="49.83033" lon="2.57602">
        <ele>59.1</ele>
        <time>2022-08-03T08:20:36Z</time>
      </trkpt>
      <trkpt lat="49.83033" lon="2.57602">
        <ele>59.1</ele>
        <time>2022-08-03T08:20:37Z</time>
      </trkpt>
      <trkpt lat="49.83033" lon="2.57602">
        <ele>59.1</ele>
        <time>2022-08-03T08:20:38Z</time>
      </trkpt>
      <trkpt lat="49.83033" lon="2.57602">
        <ele>59.1</ele>
        <time>2022-08-03T08:20:39Z</time>
      </trkpt>
      <trkpt lat="49.83033" lon="2.57602">
        <ele>59.1</ele>
        <time>2022-08-03T08:20:40Z</time>
      </trkpt>
      <trkpt lat="49.83033" lon="2.57602">
        <ele>59.1</ele>
        <time>2022-08-03T08:20:41Z</time>
      </trkpt>
      <trkpt lat="49.83033" lon="2.57602">
        <ele>59.1</ele>
        <time>2022-08-03T08:20:42Z</time>
      </trkpt>
      <trkpt lat="49.83033" lon="2.57602">
        <ele>59.1</ele>
        <time>2022-08-03T08:20:43Z</time>
      </trkpt>
      <trkpt lat="49.83033" lon="2.57602">
        <ele>59.1</ele>
        <time>2022-08-03T08:20:44Z</time>
      </trkpt>
      <trkpt lat="49.83033" lon="2.57602">
        <ele>59.1</ele>
        <time>2022-08-03T08:20:45Z</time>
      </trkpt>
      <trkpt lat="49.83033" lon="2.57602">
        <ele>59.1</ele>
        <time>2022-08-03T08:20:46Z</time>
      </trkpt>
      <trkpt lat="49.83033" lon="2.57602">
        <ele>59.1</ele>
        <time>2022-08-03T08:20:47Z</time>
      </trkpt>
      <trkpt lat="49.83033" lon="2.57602">
        <ele>59.1</ele>
        <time>2022-08-03T08:20:48Z</time>
      </trkpt>
      <trkpt lat="49.83033" lon="2.57602">
        <ele>59.1</ele>
        <time>2022-08-03T08:20:49Z</time>
      </trkpt>
      <trkpt lat="49.83033" lon="2.57602">
        <ele>59.1</ele>
        <time>2022-08-03T08:20:50Z</time>
      </trkpt>
      <trkpt lat="49.83033" lon="2.57602">
        <ele>59.1</ele>
        <time>2022-08-03T08:20:51Z</time>
      </trkpt>
      <trkpt lat="49.83033" lon="2.57602">
        <ele>59.1</ele>
        <time>2022-08-03T08:20:52Z</time>
      </trkpt>
      <trkpt lat="49.83033" lon="2.57602">
        <ele>59.1</ele>
        <time>2022-08-03T08:20:53Z</time>
      </trkpt>
      <trkpt lat="49.83033" lon="2.57602">
        <ele>59.1</ele>
        <time>2022-08-03T08:20:54Z</time>
      </trkpt>
      <trkpt lat="49.83033" lon="2.57602">
        <ele>59.1</ele>
        <time>2022-08-03T08:20:55Z</time>
      </trkpt>
      <trkpt lat="49.83032" lon="2.57602">
        <ele>59.1</ele>
        <time>2022-08-03T08:20:56Z</time>
      </trkpt>
      <trkpt lat="49.83032" lon="2.57601">
        <ele>59.1</ele>
        <time>2022-08-03T08:20:57Z</time>
      </trkpt>
      <trkpt lat="49.83032" lon="2.57601">
        <ele>59</ele>
        <time>2022-08-03T08:20:59Z</time>
      </trkpt>
      <trkpt lat="49.83031" lon="2.57601">
        <ele>59</ele>
        <time>2022-08-03T08:21:00Z</time>
      </trkpt>
      <trkpt lat="49.83031" lon="2.57601">
        <ele>59</ele>
        <time>2022-08-03T08:21:01Z</time>
      </trkpt>
      <trkpt lat="49.83031" lon="2.57601">
        <ele>59</ele>
        <time>2022-08-03T08:21:02Z</time>
      </trkpt>
      <trkpt lat="49.83031" lon="2.57601">
        <ele>59</ele>
        <time>2022-08-03T08:21:03Z</time>
      </trkpt>
      <trkpt lat="49.83031" lon="2.57601">
        <ele>59</ele>
        <time>2022-08-03T08:21:05Z</time>
      </trkpt>
      <trkpt lat="49.83031" lon="2.57601">
        <ele>59</ele>
        <time>2022-08-03T08:21:06Z</time>
      </trkpt>
      <trkpt lat="49.83031" lon="2.57601">
        <ele>59</ele>
        <time>2022-08-03T08:21:07Z</time>
      </trkpt>
      <trkpt lat="49.83031" lon="2.57602">
        <ele>59</ele>
        <time>2022-08-03T08:21:08Z</time>
      </trkpt>
      <trkpt lat="49.83031" lon="2.57602">
        <ele>59</ele>
        <time>2022-08-03T08:21:09Z</time>
      </trkpt>
      <trkpt lat="49.83031" lon="2.57602">
        <ele>59</ele>
        <time>2022-08-03T08:21:10Z</time>
      </trkpt>
      <trkpt lat="49.83031" lon="2.57602">
        <ele>59</ele>
        <time>2022-08-03T08:21:11Z</time>
      </trkpt>
      <trkpt lat="49.8303" lon="2.57604">
        <ele>59</ele>
        <time>2022-08-03T08:21:13Z</time>
      </trkpt>
      <trkpt lat="49.8303" lon="2.57604">
        <ele>59</ele>
        <time>2022-08-03T08:21:14Z</time>
      </trkpt>
      <trkpt lat="49.8303" lon="2.57604">
        <ele>59</ele>
        <time>2022-08-03T08:21:15Z</time>
      </trkpt>
      <trkpt lat="49.8303" lon="2.57605">
        <ele>58.9</ele>
        <time>2022-08-03T08:21:16Z</time>
      </trkpt>
      <trkpt lat="49.8303" lon="2.57605">
        <ele>58.9</ele>
        <time>2022-08-03T08:21:17Z</time>
      </trkpt>
      <trkpt lat="49.8303" lon="2.57605">
        <ele>58.9</ele>
        <time>2022-08-03T08:21:19Z</time>
      </trkpt>
      <trkpt lat="49.83031" lon="2.57605">
        <ele>58.9</ele>
        <time>2022-08-03T08:21:20Z</time>
      </trkpt>
      <trkpt lat="49.8303" lon="2.57605">
        <ele>58.9</ele>
        <time>2022-08-03T08:21:21Z</time>
      </trkpt>
      <trkpt lat="49.8303" lon="2.57604">
        <ele>58.9</ele>
        <time>2022-08-03T08:21:22Z</time>
      </trkpt>
      <trkpt lat="49.8303" lon="2.57604">
        <ele>58.9</ele>
        <time>2022-08-03T08:21:23Z</time>
      </trkpt>
      <trkpt lat="49.8303" lon="2.57604">
        <ele>58.9</ele>
        <time>2022-08-03T08:21:24Z</time>
      </trkpt>
      <trkpt lat="49.8303" lon="2.57604">
        <ele>58.9</ele>
        <time>2022-08-03T08:21:25Z</time>
      </trkpt>
      <trkpt lat="49.83031" lon="2.57604">
        <ele>58.9</ele>
        <time>2022-08-03T08:21:26Z</time>
      </trkpt>
      <trkpt lat="49.83031" lon="2.57603">
        <ele>58.9</ele>
        <time>2022-08-03T08:21:27Z</time>
      </trkpt>
      <trkpt lat="49.83031" lon="2.57603">
        <ele>58.9</ele>
        <time>2022-08-03T08:21:29Z</time>
      </trkpt>
      <trkpt lat="49.83032" lon="2.57603">
        <ele>58.9</ele>
        <time>2022-08-03T08:21:30Z</time>
      </trkpt>
      <trkpt lat="49.83032" lon="2.57603">
        <ele>58.9</ele>
        <time>2022-08-03T08:21:31Z</time>
      </trkpt>
      <trkpt lat="49.83032" lon="2.57603">
        <ele>58.9</ele>
        <time>2022-08-03T08:21:32Z</time>
      </trkpt>
      <trkpt lat="49.83033" lon="2.57603">
        <ele>58.8</ele>
        <time>2022-08-03T08:21:33Z</time>
      </trkpt>
      <trkpt lat="49.83033" lon="2.57603">
        <ele>58.8</ele>
        <time>2022-08-03T08:21:34Z</time>
      </trkpt>
      <trkpt lat="49.83033" lon="2.57602">
        <ele>58.8</ele>
        <time>2022-08-03T08:21:35Z</time>
      </trkpt>
      <trkpt lat="49.83034" lon="2.57602">
        <ele>58.8</ele>
        <time>2022-08-03T08:21:36Z</time>
      </trkpt>
      <trkpt lat="49.83034" lon="2.57602">
        <ele>58.8</ele>
        <time>2022-08-03T08:21:37Z</time>
      </trkpt>
      <trkpt lat="49.83034" lon="2.57602">
        <ele>58.8</ele>
        <time>2022-08-03T08:21:38Z</time>
      </trkpt>
      <trkpt lat="49.83034" lon="2.57602">
        <ele>58.8</ele>
        <time>2022-08-03T08:21:39Z</time>
      </trkpt>
      <trkpt lat="49.83034" lon="2.57602">
        <ele>58.8</ele>
        <time>2022-08-03T08:21:40Z</time>
      </trkpt>
      <trkpt lat="49.83034" lon="2.57602">
        <ele>58.8</ele>
        <time>2022-08-03T08:21:41Z</time>
      </trkpt>
      <trkpt lat="49.83034" lon="2.57602">
        <ele>58.8</ele>
        <time>2022-08-03T08:21:42Z</time>
      </trkpt>
      <trkpt lat="49.83034" lon="2.57602">
        <ele>58.8</ele>
        <time>2022-08-03T08:21:43Z</time>
      </trkpt>
      <trkpt lat="49.83034" lon="2.57602">
        <ele>58.8</ele>
        <time>2022-08-03T08:21:44Z</time>
      </trkpt>
      <trkpt lat="49.83034" lon="2.57602">
        <ele>58.8</ele>
        <time>2022-08-03T08:21:45Z</time>
      </trkpt>
      <trkpt lat="49.83034" lon="2.57602">
        <ele>58.8</ele>
        <time>2022-08-03T08:21:46Z</time>
      </trkpt>
      <trkpt lat="49.83034" lon="2.57602">
        <ele>58.8</ele>
        <time>2022-08-03T08:21:47Z</time>
      </trkpt>
      <trkpt lat="49.83034" lon="2.57602">
        <ele>58.8</ele>
        <time>2022-08-03T08:21:48Z</time>
      </trkpt>
      <trkpt lat="49.83034" lon="2.57602">
        <ele>58.8</ele>
        <time>2022-08-03T08:21:49Z</time>
      </trkpt>
      <trkpt lat="49.83034" lon="2.57602">
        <ele>58.8</ele>
        <time>2022-08-03T08:21:50Z</time>
      </trkpt>
      <trkpt lat="49.83034" lon="2.57602">
        <ele>58.8</ele>
        <time>2022-08-03T08:21:51Z</time>
      </trkpt>
      <trkpt lat="49.83034" lon="2.57602">
        <ele>58.8</ele>
        <time>2022-08-03T08:21:52Z</time>
      </trkpt>
      <trkpt lat="49.83034" lon="2.57602">
        <ele>58.8</ele>
        <time>2022-08-03T08:21:53Z</time>
      </trkpt>
      <trkpt lat="49.83034" lon="2.57602">
        <ele>58.8</ele>
        <time>2022-08-03T08:21:54Z</time>
      </trkpt>
      <trkpt lat="49.83034" lon="2.57602">
        <ele>58.8</ele>
        <time>2022-08-03T08:21:55Z</time>
      </trkpt>
      <trkpt lat="49.83034" lon="2.57602">
        <ele>58.8</ele>
        <time>2022-08-03T08:21:56Z</time>
      </trkpt>
      <trkpt lat="49.83034" lon="2.57602">
        <ele>58.8</ele>
        <time>2022-08-03T08:21:57Z</time>
      </trkpt>
      <trkpt lat="49.83034" lon="2.57602">
        <ele>58.8</ele>
        <time>2022-08-03T08:21:58Z</time>
      </trkpt>
      <trkpt lat="49.83034" lon="2.57602">
        <ele>58.8</ele>
        <time>2022-08-03T08:21:59Z</time>
      </trkpt>
      <trkpt lat="49.83034" lon="2.57602">
        <ele>58.8</ele>
        <time>2022-08-03T08:22:00Z</time>
      </trkpt>
      <trkpt lat="49.83034" lon="2.57602">
        <ele>58.8</ele>
        <time>2022-08-03T08:22:01Z</time>
      </trkpt>
      <trkpt lat="49.83034" lon="2.57602">
        <ele>58.8</ele>
        <time>2022-08-03T08:22:02Z</time>
      </trkpt>
      <trkpt lat="49.83034" lon="2.57602">
        <ele>58.8</ele>
        <time>2022-08-03T08:22:03Z</time>
      </trkpt>
      <trkpt lat="49.83034" lon="2.57602">
        <ele>58.8</ele>
        <time>2022-08-03T08:22:04Z</time>
      </trkpt>
      <trkpt lat="49.83034" lon="2.57602">
        <ele>58.8</ele>
        <time>2022-08-03T08:22:05Z</time>
      </trkpt>
      <trkpt lat="49.83034" lon="2.57602">
        <ele>58.8</ele>
        <time>2022-08-03T08:22:06Z</time>
      </trkpt>
      <trkpt lat="49.83034" lon="2.57602">
        <ele>58.8</ele>
        <time>2022-08-03T08:22:07Z</time>
      </trkpt>
      <trkpt lat="49.83034" lon="2.57602">
        <ele>58.8</ele>
        <time>2022-08-03T08:22:08Z</time>
      </trkpt>
      <trkpt lat="49.83034" lon="2.57602">
        <ele>58.8</ele>
        <time>2022-08-03T08:22:09Z</time>
      </trkpt>
      <trkpt lat="49.83034" lon="2.57602">
        <ele>58.8</ele>
        <time>2022-08-03T08:22:10Z</time>
      </trkpt>
      <trkpt lat="49.83034" lon="2.57602">
        <ele>58.8</ele>
        <time>2022-08-03T08:22:11Z</time>
      </trkpt>
      <trkpt lat="49.83034" lon="2.57602">
        <ele>58.8</ele>
        <time>2022-08-03T08:22:12Z</time>
      </trkpt>
      <trkpt lat="49.83034" lon="2.57602">
        <ele>58.8</ele>
        <time>2022-08-03T08:22:13Z</time>
      </trkpt>
      <trkpt lat="49.83034" lon="2.57602">
        <ele>58.8</ele>
        <time>2022-08-03T08:22:14Z</time>
      </trkpt>
      <trkpt lat="49.83034" lon="2.57602">
        <ele>58.8</ele>
        <time>2022-08-03T08:22:15Z</time>
      </trkpt>
      <trkpt lat="49.83034" lon="2.57602">
        <ele>58.8</ele>
        <time>2022-08-03T08:22:16Z</time>
      </trkpt>
      <trkpt lat="49.83034" lon="2.57602">
        <ele>58.8</ele>
        <time>2022-08-03T08:22:17Z</time>
      </trkpt>
      <trkpt lat="49.83034" lon="2.57602">
        <ele>58.8</ele>
        <time>2022-08-03T08:22:18Z</time>
      </trkpt>
      <trkpt lat="49.83034" lon="2.57602">
        <ele>58.8</ele>
        <time>2022-08-03T08:22:19Z</time>
      </trkpt>
      <trkpt lat="49.83034" lon="2.57602">
        <ele>58.8</ele>
        <time>2022-08-03T08:22:20Z</time>
      </trkpt>
      <trkpt lat="49.83034" lon="2.57602">
        <ele>58.8</ele>
        <time>2022-08-03T08:22:21Z</time>
      </trkpt>
      <trkpt lat="49.83034" lon="2.57602">
        <ele>58.8</ele>
        <time>2022-08-03T08:22:22Z</time>
      </trkpt>
      <trkpt lat="49.83034" lon="2.57602">
        <ele>58.8</ele>
        <time>2022-08-03T08:22:23Z</time>
      </trkpt>
      <trkpt lat="49.83034" lon="2.57602">
        <ele>58.8</ele>
        <time>2022-08-03T08:22:24Z</time>
      </trkpt>
      <trkpt lat="49.83035" lon="2.57602">
        <ele>58.8</ele>
        <time>2022-08-03T08:22:25Z</time>
      </trkpt>
      <trkpt lat="49.83039" lon="2.57601">
        <ele>58.7</ele>
        <time>2022-08-03T08:22:26Z</time>
      </trkpt>
      <trkpt lat="49.83039" lon="2.57601">
        <ele>58.7</ele>
        <time>2022-08-03T08:22:27Z</time>
      </trkpt>
      <trkpt lat="49.83039" lon="2.57601">
        <ele>58.6</ele>
        <time>2022-08-03T08:22:28Z</time>
      </trkpt>
      <trkpt lat="49.8304" lon="2.57601">
        <ele>58.6</ele>
        <time>2022-08-03T08:22:29Z</time>
      </trkpt>
      <trkpt lat="49.8304" lon="2.57601">
        <ele>58.6</ele>
        <time>2022-08-03T08:22:30Z</time>
      </trkpt>
      <trkpt lat="49.8304" lon="2.57601">
        <ele>58.6</ele>
        <time>2022-08-03T08:22:31Z</time>
      </trkpt>
      <trkpt lat="49.8304" lon="2.57601">
        <ele>58.6</ele>
        <time>2022-08-03T08:22:32Z</time>
      </trkpt>
      <trkpt lat="49.8304" lon="2.57601">
        <ele>58.6</ele>
        <time>2022-08-03T08:22:33Z</time>
      </trkpt>
      <trkpt lat="49.8304" lon="2.57601">
        <ele>58.6</ele>
        <time>2022-08-03T08:22:34Z</time>
      </trkpt>
      <trkpt lat="49.8304" lon="2.57601">
        <ele>58.6</ele>
        <time>2022-08-03T08:22:35Z</time>
      </trkpt>
      <trkpt lat="49.8304" lon="2.57601">
        <ele>58.6</ele>
        <time>2022-08-03T08:22:36Z</time>
      </trkpt>
      <trkpt lat="49.8304" lon="2.57601">
        <ele>58.6</ele>
        <time>2022-08-03T08:22:37Z</time>
      </trkpt>
      <trkpt lat="49.8304" lon="2.57601">
        <ele>58.6</ele>
        <time>2022-08-03T08:22:38Z</time>
      </trkpt>
      <trkpt lat="49.8304" lon="2.57601">
        <ele>58.6</ele>
        <time>2022-08-03T08:22:39Z</time>
      </trkpt>
      <trkpt lat="49.8304" lon="2.57601">
        <ele>58.6</ele>
        <time>2022-08-03T08:22:40Z</time>
      </trkpt>
      <trkpt lat="49.8304" lon="2.57601">
        <ele>58.6</ele>
        <time>2022-08-03T08:22:41Z</time>
      </trkpt>
      <trkpt lat="49.8304" lon="2.57601">
        <ele>58.6</ele>
        <time>2022-08-03T08:22:42Z</time>
      </trkpt>
      <trkpt lat="49.8304" lon="2.57601">
        <ele>58.6</ele>
        <time>2022-08-03T08:22:43Z</time>
      </trkpt>
      <trkpt lat="49.8304" lon="2.57601">
        <ele>58.6</ele>
        <time>2022-08-03T08:22:44Z</time>
      </trkpt>
      <trkpt lat="49.8304" lon="2.57601">
        <ele>58.6</ele>
        <time>2022-08-03T08:22:45Z</time>
      </trkpt>
      <trkpt lat="49.8304" lon="2.57601">
        <ele>58.6</ele>
        <time>2022-08-03T08:22:46Z</time>
      </trkpt>
      <trkpt lat="49.8304" lon="2.57601">
        <ele>58.6</ele>
        <time>2022-08-03T08:22:47Z</time>
      </trkpt>
      <trkpt lat="49.8304" lon="2.57601">
        <ele>58.6</ele>
        <time>2022-08-03T08:22:48Z</time>
      </trkpt>
      <trkpt lat="49.8304" lon="2.57601">
        <ele>58.6</ele>
        <time>2022-08-03T08:22:49Z</time>
      </trkpt>
      <trkpt lat="49.8304" lon="2.57601">
        <ele>58.6</ele>
        <time>2022-08-03T08:22:50Z</time>
      </trkpt>
      <trkpt lat="49.8304" lon="2.57601">
        <ele>58.6</ele>
        <time>2022-08-03T08:22:51Z</time>
      </trkpt>
      <trkpt lat="49.8304" lon="2.57601">
        <ele>58.6</ele>
        <time>2022-08-03T08:22:52Z</time>
      </trkpt>
      <trkpt lat="49.8304" lon="2.57601">
        <ele>58.6</ele>
        <time>2022-08-03T08:22:53Z</time>
      </trkpt>
      <trkpt lat="49.8304" lon="2.57601">
        <ele>58.6</ele>
        <time>2022-08-03T08:22:54Z</time>
      </trkpt>
      <trkpt lat="49.8304" lon="2.57601">
        <ele>58.6</ele>
        <time>2022-08-03T08:22:55Z</time>
      </trkpt>
      <trkpt lat="49.8304" lon="2.57601">
        <ele>58.6</ele>
        <time>2022-08-03T08:22:56Z</time>
      </trkpt>
      <trkpt lat="49.8304" lon="2.57601">
        <ele>58.6</ele>
        <time>2022-08-03T08:22:57Z</time>
      </trkpt>
      <trkpt lat="49.8304" lon="2.57601">
        <ele>58.6</ele>
        <time>2022-08-03T08:22:58Z</time>
      </trkpt>
      <trkpt lat="49.8304" lon="2.57601">
        <ele>58.6</ele>
        <time>2022-08-03T08:22:59Z</time>
      </trkpt>
      <trkpt lat="49.8304" lon="2.57601">
        <ele>58.6</ele>
        <time>2022-08-03T08:23:00Z</time>
      </trkpt>
      <trkpt lat="49.8304" lon="2.57601">
        <ele>58.6</ele>
        <time>2022-08-03T08:23:01Z</time>
      </trkpt>
      <trkpt lat="49.8304" lon="2.57601">
        <ele>58.6</ele>
        <time>2022-08-03T08:23:02Z</time>
      </trkpt>
      <trkpt lat="49.8304" lon="2.57601">
        <ele>58.6</ele>
        <time>2022-08-03T08:23:03Z</time>
      </trkpt>
      <trkpt lat="49.8304" lon="2.57601">
        <ele>58.6</ele>
        <time>2022-08-03T08:23:04Z</time>
      </trkpt>
      <trkpt lat="49.8304" lon="2.57601">
        <ele>58.6</ele>
        <time>2022-08-03T08:23:05Z</time>
      </trkpt>
      <trkpt lat="49.8304" lon="2.57601">
        <ele>58.6</ele>
        <time>2022-08-03T08:23:06Z</time>
      </trkpt>
      <trkpt lat="49.8304" lon="2.57601">
        <ele>58.6</ele>
        <time>2022-08-03T08:23:07Z</time>
      </trkpt>
      <trkpt lat="49.8304" lon="2.57601">
        <ele>58.6</ele>
        <time>2022-08-03T08:23:08Z</time>
      </trkpt>
      <trkpt lat="49.8304" lon="2.57601">
        <ele>58.6</ele>
        <time>2022-08-03T08:23:09Z</time>
      </trkpt>
      <trkpt lat="49.8304" lon="2.57601">
        <ele>58.6</ele>
        <time>2022-08-03T08:23:10Z</time>
      </trkpt>
      <trkpt lat="49.8304" lon="2.57601">
        <ele>58.6</ele>
        <time>2022-08-03T08:23:11Z</time>
      </trkpt>
      <trkpt lat="49.8304" lon="2.57601">
        <ele>58.6</ele>
        <time>2022-08-03T08:23:12Z</time>
      </trkpt>
      <trkpt lat="49.8304" lon="2.57601">
        <ele>58.6</ele>
        <time>2022-08-03T08:23:13Z</time>
      </trkpt>
      <trkpt lat="49.8304" lon="2.57601">
        <ele>58.6</ele>
        <time>2022-08-03T08:23:14Z</time>
      </trkpt>
      <trkpt lat="49.8304" lon="2.57601">
        <ele>58.6</ele>
        <time>2022-08-03T08:23:15Z</time>
      </trkpt>
      <trkpt lat="49.8304" lon="2.57601">
        <ele>58.6</ele>
        <time>2022-08-03T08:23:16Z</time>
      </trkpt>
      <trkpt lat="49.8304" lon="2.57601">
        <ele>58.6</ele>
        <time>2022-08-03T08:23:17Z</time>
      </trkpt>
      <trkpt lat="49.8304" lon="2.57601">
        <ele>58.6</ele>
        <time>2022-08-03T08:23:18Z</time>
      </trkpt>
      <trkpt lat="49.8304" lon="2.57601">
        <ele>58.6</ele>
        <time>2022-08-03T08:23:19Z</time>
      </trkpt>
      <trkpt lat="49.8304" lon="2.57601">
        <ele>58.6</ele>
        <time>2022-08-03T08:23:20Z</time>
      </trkpt>
      <trkpt lat="49.8304" lon="2.57601">
        <ele>58.6</ele>
        <time>2022-08-03T08:23:21Z</time>
      </trkpt>
      <trkpt lat="49.8304" lon="2.57601">
        <ele>58.6</ele>
        <time>2022-08-03T08:23:22Z</time>
      </trkpt>
      <trkpt lat="49.8304" lon="2.57601">
        <ele>58.6</ele>
        <time>2022-08-03T08:23:23Z</time>
      </trkpt>
      <trkpt lat="49.8304" lon="2.57601">
        <ele>58.6</ele>
        <time>2022-08-03T08:23:24Z</time>
      </trkpt>
      <trkpt lat="49.8304" lon="2.57601">
        <ele>58.6</ele>
        <time>2022-08-03T08:23:25Z</time>
      </trkpt>
      <trkpt lat="49.8304" lon="2.57601">
        <ele>58.6</ele>
        <time>2022-08-03T08:23:26Z</time>
      </trkpt>
      <trkpt lat="49.8304" lon="2.57601">
        <ele>58.6</ele>
        <time>2022-08-03T08:23:27Z</time>
      </trkpt>
      <trkpt lat="49.8304" lon="2.57601">
        <ele>58.6</ele>
        <time>2022-08-03T08:23:28Z</time>
      </trkpt>
      <trkpt lat="49.8304" lon="2.57601">
        <ele>58.6</ele>
        <time>2022-08-03T08:23:29Z</time>
      </trkpt>
      <trkpt lat="49.8304" lon="2.57601">
        <ele>58.6</ele>
        <time>2022-08-03T08:23:30Z</time>
      </trkpt>
      <trkpt lat="49.8304" lon="2.57601">
        <ele>58.6</ele>
        <time>2022-08-03T08:23:31Z</time>
      </trkpt>
      <trkpt lat="49.8304" lon="2.57601">
        <ele>58.6</ele>
        <time>2022-08-03T08:23:32Z</time>
      </trkpt>
      <trkpt lat="49.8304" lon="2.57601">
        <ele>58.6</ele>
        <time>2022-08-03T08:23:33Z</time>
      </trkpt>
      <trkpt lat="49.8304" lon="2.57601">
        <ele>58.6</ele>
        <time>2022-08-03T08:23:34Z</time>
      </trkpt>
      <trkpt lat="49.8304" lon="2.57601">
        <ele>58.6</ele>
        <time>2022-08-03T08:23:35Z</time>
      </trkpt>
      <trkpt lat="49.8304" lon="2.57601">
        <ele>58.6</ele>
        <time>2022-08-03T08:23:36Z</time>
      </trkpt>
      <trkpt lat="49.8304" lon="2.57601">
        <ele>58.6</ele>
        <time>2022-08-03T08:23:37Z</time>
      </trkpt>
      <trkpt lat="49.8304" lon="2.57601">
        <ele>58.6</ele>
        <time>2022-08-03T08:23:38Z</time>
      </trkpt>
      <trkpt lat="49.8304" lon="2.57601">
        <ele>58.6</ele>
        <time>2022-08-03T08:23:39Z</time>
      </trkpt>
      <trkpt lat="49.8304" lon="2.57601">
        <ele>58.6</ele>
        <time>2022-08-03T08:23:40Z</time>
      </trkpt>
      <trkpt lat="49.8304" lon="2.576">
        <ele>58.6</ele>
        <time>2022-08-03T08:23:41Z</time>
      </trkpt>
      <trkpt lat="49.8304" lon="2.576">
        <ele>58.6</ele>
        <time>2022-08-03T08:23:42Z</time>
      </trkpt>
      <trkpt lat="49.8304" lon="2.57601">
        <ele>58.6</ele>
        <time>2022-08-03T08:23:43Z</time>
      </trkpt>
      <trkpt lat="49.8304" lon="2.57601">
        <ele>58.6</ele>
        <time>2022-08-03T08:23:44Z</time>
      </trkpt>
      <trkpt lat="49.8304" lon="2.57601">
        <ele>58.6</ele>
        <time>2022-08-03T08:23:45Z</time>
      </trkpt>
      <trkpt lat="49.8304" lon="2.57601">
        <ele>58.6</ele>
        <time>2022-08-03T08:23:46Z</time>
      </trkpt>
      <trkpt lat="49.8304" lon="2.57601">
        <ele>58.6</ele>
        <time>2022-08-03T08:23:47Z</time>
      </trkpt>
      <trkpt lat="49.8304" lon="2.57601">
        <ele>58.6</ele>
        <time>2022-08-03T08:23:48Z</time>
      </trkpt>
      <trkpt lat="49.8304" lon="2.57601">
        <ele>58.6</ele>
        <time>2022-08-03T08:23:49Z</time>
      </trkpt>
      <trkpt lat="49.8304" lon="2.57601">
        <ele>58.6</ele>
        <time>2022-08-03T08:23:50Z</time>
      </trkpt>
      <trkpt lat="49.8304" lon="2.57601">
        <ele>58.6</ele>
        <time>2022-08-03T08:23:51Z</time>
      </trkpt>
      <trkpt lat="49.8304" lon="2.57601">
        <ele>58.6</ele>
        <time>2022-08-03T08:23:52Z</time>
      </trkpt>
      <trkpt lat="49.8304" lon="2.57601">
        <ele>58.6</ele>
        <time>2022-08-03T08:23:53Z</time>
      </trkpt>
      <trkpt lat="49.8304" lon="2.57601">
        <ele>58.6</ele>
        <time>2022-08-03T08:23:54Z</time>
      </trkpt>
      <trkpt lat="49.8304" lon="2.57601">
        <ele>58.6</ele>
        <time>2022-08-03T08:23:55Z</time>
      </trkpt>
      <trkpt lat="49.8304" lon="2.57601">
        <ele>58.6</ele>
        <time>2022-08-03T08:23:56Z</time>
      </trkpt>
      <trkpt lat="49.8304" lon="2.57601">
        <ele>58.6</ele>
        <time>2022-08-03T08:23:57Z</time>
      </trkpt>
      <trkpt lat="49.8304" lon="2.57601">
        <ele>58.6</ele>
        <time>2022-08-03T08:23:58Z</time>
      </trkpt>
      <trkpt lat="49.8304" lon="2.57601">
        <ele>58.6</ele>
        <time>2022-08-03T08:23:59Z</time>
      </trkpt>
      <trkpt lat="49.8304" lon="2.57601">
        <ele>58.6</ele>
        <time>2022-08-03T08:24:00Z</time>
      </trkpt>
      <trkpt lat="49.8304" lon="2.57601">
        <ele>58.6</ele>
        <time>2022-08-03T08:24:01Z</time>
      </trkpt>
      <trkpt lat="49.8304" lon="2.57601">
        <ele>58.6</ele>
        <time>2022-08-03T08:24:02Z</time>
      </trkpt>
      <trkpt lat="49.8304" lon="2.57601">
        <ele>58.6</ele>
        <time>2022-08-03T08:24:03Z</time>
      </trkpt>
      <trkpt lat="49.8304" lon="2.57601">
        <ele>58.6</ele>
        <time>2022-08-03T08:24:04Z</time>
      </trkpt>
      <trkpt lat="49.8304" lon="2.57601">
        <ele>58.6</ele>
        <time>2022-08-03T08:24:05Z</time>
      </trkpt>
      <trkpt lat="49.8304" lon="2.57601">
        <ele>58.6</ele>
        <time>2022-08-03T08:24:06Z</time>
      </trkpt>
      <trkpt lat="49.8304" lon="2.57601">
        <ele>58.6</ele>
        <time>2022-08-03T08:24:07Z</time>
      </trkpt>
      <trkpt lat="49.8304" lon="2.57601">
        <ele>58.6</ele>
        <time>2022-08-03T08:24:08Z</time>
      </trkpt>
      <trkpt lat="49.8304" lon="2.57601">
        <ele>58.6</ele>
        <time>2022-08-03T08:24:09Z</time>
      </trkpt>
      <trkpt lat="49.8304" lon="2.57601">
        <ele>58.6</ele>
        <time>2022-08-03T08:24:10Z</time>
      </trkpt>
      <trkpt lat="49.8304" lon="2.57601">
        <ele>58.6</ele>
        <time>2022-08-03T08:24:11Z</time>
      </trkpt>
      <trkpt lat="49.8304" lon="2.57601">
        <ele>58.6</ele>
        <time>2022-08-03T08:24:12Z</time>
      </trkpt>
      <trkpt lat="49.83039" lon="2.57602">
        <ele>58.6</ele>
        <time>2022-08-03T08:24:13Z</time>
      </trkpt>
      <trkpt lat="49.83039" lon="2.57602">
        <ele>58.6</ele>
        <time>2022-08-03T08:24:14Z</time>
      </trkpt>
      <trkpt lat="49.83039" lon="2.57603">
        <ele>58.5</ele>
        <time>2022-08-03T08:24:15Z</time>
      </trkpt>
      <trkpt lat="49.83038" lon="2.57603">
        <ele>58.5</ele>
        <time>2022-08-03T08:24:16Z</time>
      </trkpt>
      <trkpt lat="49.83038" lon="2.57602">
        <ele>58.5</ele>
        <time>2022-08-03T08:24:17Z</time>
      </trkpt>
      <trkpt lat="49.83038" lon="2.57603">
        <ele>58.5</ele>
        <time>2022-08-03T08:24:18Z</time>
      </trkpt>
      <trkpt lat="49.83038" lon="2.57603">
        <ele>58.5</ele>
        <time>2022-08-03T08:24:19Z</time>
      </trkpt>
      <trkpt lat="49.83038" lon="2.57602">
        <ele>58.5</ele>
        <time>2022-08-03T08:24:20Z</time>
      </trkpt>
      <trkpt lat="49.83038" lon="2.57602">
        <ele>58.5</ele>
        <time>2022-08-03T08:24:21Z</time>
      </trkpt>
      <trkpt lat="49.83038" lon="2.57603">
        <ele>58.5</ele>
        <time>2022-08-03T08:24:23Z</time>
      </trkpt>
      <trkpt lat="49.83038" lon="2.57603">
        <ele>58.5</ele>
        <time>2022-08-03T08:24:24Z</time>
      </trkpt>
      <trkpt lat="49.83038" lon="2.57603">
        <ele>58.5</ele>
        <time>2022-08-03T08:24:25Z</time>
      </trkpt>
      <trkpt lat="49.83038" lon="2.57604">
        <ele>58.5</ele>
        <time>2022-08-03T08:24:26Z</time>
      </trkpt>
      <trkpt lat="49.83038" lon="2.57604">
        <ele>58.5</ele>
        <time>2022-08-03T08:24:27Z</time>
      </trkpt>
      <trkpt lat="49.83037" lon="2.57604">
        <ele>58.5</ele>
        <time>2022-08-03T08:24:28Z</time>
      </trkpt>
      <trkpt lat="49.83037" lon="2.57604">
        <ele>58.4</ele>
        <time>2022-08-03T08:24:29Z</time>
      </trkpt>
      <trkpt lat="49.83037" lon="2.57604">
        <ele>58.4</ele>
        <time>2022-08-03T08:24:30Z</time>
      </trkpt>
      <trkpt lat="49.83037" lon="2.57604">
        <ele>58.4</ele>
        <time>2022-08-03T08:24:31Z</time>
      </trkpt>
      <trkpt lat="49.83037" lon="2.57603">
        <ele>58.4</ele>
        <time>2022-08-03T08:24:33Z</time>
      </trkpt>
      <trkpt lat="49.83037" lon="2.57603">
        <ele>58.4</ele>
        <time>2022-08-03T08:24:34Z</time>
      </trkpt>
      <trkpt lat="49.83037" lon="2.57603">
        <ele>58.4</ele>
        <time>2022-08-03T08:24:36Z</time>
      </trkpt>
      <trkpt lat="49.83037" lon="2.57603">
        <ele>58.4</ele>
        <time>2022-08-03T08:24:37Z</time>
      </trkpt>
      <trkpt lat="49.83037" lon="2.57603">
        <ele>58.4</ele>
        <time>2022-08-03T08:24:38Z</time>
      </trkpt>
      <trkpt lat="49.83036" lon="2.57603">
        <ele>58.4</ele>
        <time>2022-08-03T08:24:39Z</time>
      </trkpt>
      <trkpt lat="49.83036" lon="2.57603">
        <ele>58.4</ele>
        <time>2022-08-03T08:24:40Z</time>
      </trkpt>
      <trkpt lat="49.83036" lon="2.57602">
        <ele>58.4</ele>
        <time>2022-08-03T08:24:41Z</time>
      </trkpt>
      <trkpt lat="49.83036" lon="2.57602">
        <ele>58.4</ele>
        <time>2022-08-03T08:24:42Z</time>
      </trkpt>
      <trkpt lat="49.83036" lon="2.57601">
        <ele>58.4</ele>
        <time>2022-08-03T08:24:43Z</time>
      </trkpt>
      <trkpt lat="49.83036" lon="2.57601">
        <ele>58.3</ele>
        <time>2022-08-03T08:24:44Z</time>
      </trkpt>
      <trkpt lat="49.83036" lon="2.576">
        <ele>58.3</ele>
        <time>2022-08-03T08:24:45Z</time>
      </trkpt>
      <trkpt lat="49.83036" lon="2.576">
        <ele>58.3</ele>
        <time>2022-08-03T08:24:46Z</time>
      </trkpt>
      <trkpt lat="49.83036" lon="2.57599">
        <ele>58.3</ele>
        <time>2022-08-03T08:24:48Z</time>
      </trkpt>
      <trkpt lat="49.83036" lon="2.57599">
        <ele>58.3</ele>
        <time>2022-08-03T08:24:49Z</time>
      </trkpt>
      <trkpt lat="49.83037" lon="2.57599">
        <ele>58.3</ele>
        <time>2022-08-03T08:24:50Z</time>
      </trkpt>
      <trkpt lat="49.83037" lon="2.57598">
        <ele>58.3</ele>
        <time>2022-08-03T08:24:51Z</time>
      </trkpt>
      <trkpt lat="49.83037" lon="2.57596">
        <ele>58.3</ele>
        <time>2022-08-03T08:24:53Z</time>
      </trkpt>
      <trkpt lat="49.83036" lon="2.57595">
        <ele>58.2</ele>
        <time>2022-08-03T08:24:54Z</time>
      </trkpt>
      <trkpt lat="49.83036" lon="2.57594">
        <ele>58.2</ele>
        <time>2022-08-03T08:24:55Z</time>
      </trkpt>
      <trkpt lat="49.83036" lon="2.57593">
        <ele>58.2</ele>
        <time>2022-08-03T08:24:56Z</time>
      </trkpt>
      <trkpt lat="49.83035" lon="2.57593">
        <ele>58.2</ele>
        <time>2022-08-03T08:24:57Z</time>
      </trkpt>
      <trkpt lat="49.83033" lon="2.57592">
        <ele>58.1</ele>
        <time>2022-08-03T08:24:59Z</time>
      </trkpt>
      <trkpt lat="49.83033" lon="2.57592">
        <ele>58.1</ele>
        <time>2022-08-03T08:25:00Z</time>
      </trkpt>
      <trkpt lat="49.83033" lon="2.57592">
        <ele>58.1</ele>
        <time>2022-08-03T08:25:01Z</time>
      </trkpt>
      <trkpt lat="49.83033" lon="2.57592">
        <ele>58.1</ele>
        <time>2022-08-03T08:25:02Z</time>
      </trkpt>
      <trkpt lat="49.83032" lon="2.57592">
        <ele>58.1</ele>
        <time>2022-08-03T08:25:03Z</time>
      </trkpt>
      <trkpt lat="49.83032" lon="2.57592">
        <ele>58.1</ele>
        <time>2022-08-03T08:25:04Z</time>
      </trkpt>
      <trkpt lat="49.83032" lon="2.57593">
        <ele>58</ele>
        <time>2022-08-03T08:25:05Z</time>
      </trkpt>
      <trkpt lat="49.83031" lon="2.57594">
        <ele>58</ele>
        <time>2022-08-03T08:25:07Z</time>
      </trkpt>
      <trkpt lat="49.83031" lon="2.57595">
        <ele>58</ele>
        <time>2022-08-03T08:25:08Z</time>
      </trkpt>
      <trkpt lat="49.8303" lon="2.57596">
        <ele>58</ele>
        <time>2022-08-03T08:25:09Z</time>
      </trkpt>
      <trkpt lat="49.8303" lon="2.57598">
        <ele>57.9</ele>
        <time>2022-08-03T08:25:10Z</time>
      </trkpt>
      <trkpt lat="49.8303" lon="2.576">
        <ele>57.9</ele>
        <time>2022-08-03T08:25:11Z</time>
      </trkpt>
      <trkpt lat="49.8303" lon="2.57603">
        <ele>57.8</ele>
        <time>2022-08-03T08:25:12Z</time>
      </trkpt>
      <trkpt lat="49.8303" lon="2.57605">
        <ele>57.8</ele>
        <time>2022-08-03T08:25:14Z</time>
      </trkpt>
      <trkpt lat="49.8303" lon="2.57607">
        <ele>57.7</ele>
        <time>2022-08-03T08:25:15Z</time>
      </trkpt>
      <trkpt lat="49.8303" lon="2.57608">
        <ele>57.7</ele>
        <time>2022-08-03T08:25:16Z</time>
      </trkpt>
      <trkpt lat="49.8303" lon="2.5761">
        <ele>57.6</ele>
        <time>2022-08-03T08:25:17Z</time>
      </trkpt>
      <trkpt lat="49.8303" lon="2.57613">
        <ele>57.6</ele>
        <time>2022-08-03T08:25:18Z</time>
      </trkpt>
      <trkpt lat="49.83031" lon="2.57614">
        <ele>57.6</ele>
        <time>2022-08-03T08:25:19Z</time>
      </trkpt>
      <trkpt lat="49.83031" lon="2.57615">
        <ele>57.5</ele>
        <time>2022-08-03T08:25:21Z</time>
      </trkpt>
      <trkpt lat="49.8303" lon="2.57616">
        <ele>57.5</ele>
        <time>2022-08-03T08:25:22Z</time>
      </trkpt>
      <trkpt lat="49.8303" lon="2.57618">
        <ele>57.4</ele>
        <time>2022-08-03T08:25:23Z</time>
      </trkpt>
      <trkpt lat="49.8303" lon="2.57619">
        <ele>57.4</ele>
        <time>2022-08-03T08:25:24Z</time>
      </trkpt>
      <trkpt lat="49.83029" lon="2.57622">
        <ele>57.3</ele>
        <time>2022-08-03T08:25:26Z</time>
      </trkpt>
      <trkpt lat="49.83029" lon="2.57624">
        <ele>57.3</ele>
        <time>2022-08-03T08:25:27Z</time>
      </trkpt>
      <trkpt lat="49.83028" lon="2.57625">
        <ele>57.2</ele>
        <time>2022-08-03T08:25:28Z</time>
      </trkpt>
      <trkpt lat="49.83028" lon="2.57627">
        <ele>57.2</ele>
        <time>2022-08-03T08:25:29Z</time>
      </trkpt>
      <trkpt lat="49.83027" lon="2.57629">
        <ele>57.1</ele>
        <time>2022-08-03T08:25:30Z</time>
      </trkpt>
      <trkpt lat="49.83027" lon="2.57631">
        <ele>57.1</ele>
        <time>2022-08-03T08:25:31Z</time>
      </trkpt>
      <trkpt lat="49.83026" lon="2.57632">
        <ele>57</ele>
        <time>2022-08-03T08:25:32Z</time>
      </trkpt>
      <trkpt lat="49.83025" lon="2.57634">
        <ele>56.9</ele>
        <time>2022-08-03T08:25:34Z</time>
      </trkpt>
      <trkpt lat="49.83025" lon="2.57636">
        <ele>56.9</ele>
        <time>2022-08-03T08:25:35Z</time>
      </trkpt>
      <trkpt lat="49.83024" lon="2.57638">
        <ele>56.8</ele>
        <time>2022-08-03T08:25:36Z</time>
      </trkpt>
      <trkpt lat="49.83023" lon="2.57641">
        <ele>56.7</ele>
        <time>2022-08-03T08:25:37Z</time>
      </trkpt>
      <trkpt lat="49.83022" lon="2.57643">
        <ele>56.6</ele>
        <time>2022-08-03T08:25:39Z</time>
      </trkpt>
      <trkpt lat="49.83022" lon="2.57644">
        <ele>56.6</ele>
        <time>2022-08-03T08:25:40Z</time>
      </trkpt>
      <trkpt lat="49.83021" lon="2.57646">
        <ele>56.5</ele>
        <time>2022-08-03T08:25:41Z</time>
      </trkpt>
      <trkpt lat="49.83021" lon="2.57647">
        <ele>56.4</ele>
        <time>2022-08-03T08:25:42Z</time>
      </trkpt>
      <trkpt lat="49.8302" lon="2.5765">
        <ele>56.4</ele>
        <time>2022-08-03T08:25:43Z</time>
      </trkpt>
      <trkpt lat="49.8302" lon="2.57652">
        <ele>56.3</ele>
        <time>2022-08-03T08:25:44Z</time>
      </trkpt>
      <trkpt lat="49.83019" lon="2.57654">
        <ele>56.2</ele>
        <time>2022-08-03T08:25:45Z</time>
      </trkpt>
      <trkpt lat="49.83019" lon="2.57657">
        <ele>56.1</ele>
        <time>2022-08-03T08:25:46Z</time>
      </trkpt>
      <trkpt lat="49.83018" lon="2.57659">
        <ele>56</ele>
        <time>2022-08-03T08:25:47Z</time>
      </trkpt>
      <trkpt lat="49.83018" lon="2.57661">
        <ele>56</ele>
        <time>2022-08-03T08:25:48Z</time>
      </trkpt>
      <trkpt lat="49.83019" lon="2.57661">
        <ele>55.9</ele>
        <time>2022-08-03T08:25:49Z</time>
      </trkpt>
      <trkpt lat="49.83019" lon="2.57662">
        <ele>55.9</ele>
        <time>2022-08-03T08:25:50Z</time>
      </trkpt>
      <trkpt lat="49.83019" lon="2.57663">
        <ele>55.9</ele>
        <time>2022-08-03T08:25:51Z</time>
      </trkpt>
      <trkpt lat="49.83019" lon="2.57665">
        <ele>55.8</ele>
        <time>2022-08-03T08:25:52Z</time>
      </trkpt>
      <trkpt lat="49.83019" lon="2.57667">
        <ele>55.7</ele>
        <time>2022-08-03T08:25:53Z</time>
      </trkpt>
      <trkpt lat="49.83019" lon="2.57669">
        <ele>55.7</ele>
        <time>2022-08-03T08:25:54Z</time>
      </trkpt>
      <trkpt lat="49.83019" lon="2.57672">
        <ele>55.6</ele>
        <time>2022-08-03T08:25:55Z</time>
      </trkpt>
      <trkpt lat="49.83019" lon="2.57675">
        <ele>55.5</ele>
        <time>2022-08-03T08:25:56Z</time>
      </trkpt>
      <trkpt lat="49.83019" lon="2.57679">
        <ele>55.3</ele>
        <time>2022-08-03T08:25:58Z</time>
      </trkpt>
      <trkpt lat="49.83019" lon="2.57682">
        <ele>55.2</ele>
        <time>2022-08-03T08:25:59Z</time>
      </trkpt>
      <trkpt lat="49.83019" lon="2.57683">
        <ele>55.2</ele>
        <time>2022-08-03T08:26:00Z</time>
      </trkpt>
      <trkpt lat="49.83019" lon="2.57684">
        <ele>55.2</ele>
        <time>2022-08-03T08:26:01Z</time>
      </trkpt>
      <trkpt lat="49.83019" lon="2.57686">
        <ele>55.1</ele>
        <time>2022-08-03T08:26:02Z</time>
      </trkpt>
      <trkpt lat="49.83019" lon="2.57688">
        <ele>55.1</ele>
        <time>2022-08-03T08:26:03Z</time>
      </trkpt>
      <trkpt lat="49.83019" lon="2.57688">
        <ele>55</ele>
        <time>2022-08-03T08:26:04Z</time>
      </trkpt>
      <trkpt lat="49.83019" lon="2.57689">
        <ele>55</ele>
        <time>2022-08-03T08:26:05Z</time>
      </trkpt>
      <trkpt lat="49.83019" lon="2.5769">
        <ele>55</ele>
        <time>2022-08-03T08:26:06Z</time>
      </trkpt>
      <trkpt lat="49.83019" lon="2.57692">
        <ele>54.9</ele>
        <time>2022-08-03T08:26:07Z</time>
      </trkpt>
      <trkpt lat="49.83019" lon="2.57694">
        <ele>54.8</ele>
        <time>2022-08-03T08:26:08Z</time>
      </trkpt>
      <trkpt lat="49.83019" lon="2.57697">
        <ele>54.7</ele>
        <time>2022-08-03T08:26:09Z</time>
      </trkpt>
      <trkpt lat="49.83019" lon="2.577">
        <ele>54.7</ele>
        <time>2022-08-03T08:26:11Z</time>
      </trkpt>
      <trkpt lat="49.83019" lon="2.57703">
        <ele>54.6</ele>
        <time>2022-08-03T08:26:12Z</time>
      </trkpt>
      <trkpt lat="49.83019" lon="2.57704">
        <ele>54.6</ele>
        <time>2022-08-03T08:26:13Z</time>
      </trkpt>
      <trkpt lat="49.83019" lon="2.57705">
        <ele>54.5</ele>
        <time>2022-08-03T08:26:14Z</time>
      </trkpt>
      <trkpt lat="49.83019" lon="2.57706">
        <ele>54.5</ele>
        <time>2022-08-03T08:26:15Z</time>
      </trkpt>
      <trkpt lat="49.83019" lon="2.57708">
        <ele>54.4</ele>
        <time>2022-08-03T08:26:16Z</time>
      </trkpt>
      <trkpt lat="49.83019" lon="2.5771">
        <ele>54.4</ele>
        <time>2022-08-03T08:26:17Z</time>
      </trkpt>
      <trkpt lat="49.83019" lon="2.57711">
        <ele>54.3</ele>
        <time>2022-08-03T08:26:18Z</time>
      </trkpt>
      <trkpt lat="49.83019" lon="2.57714">
        <ele>54.3</ele>
        <time>2022-08-03T08:26:19Z</time>
      </trkpt>
      <trkpt lat="49.83019" lon="2.57716">
        <ele>54.2</ele>
        <time>2022-08-03T08:26:20Z</time>
      </trkpt>
      <trkpt lat="49.83019" lon="2.57717">
        <ele>54.2</ele>
        <time>2022-08-03T08:26:21Z</time>
      </trkpt>
      <trkpt lat="49.83019" lon="2.57718">
        <ele>54.1</ele>
        <time>2022-08-03T08:26:22Z</time>
      </trkpt>
      <trkpt lat="49.83019" lon="2.5772">
        <ele>54.1</ele>
        <time>2022-08-03T08:26:23Z</time>
      </trkpt>
      <trkpt lat="49.83019" lon="2.57723">
        <ele>54</ele>
        <time>2022-08-03T08:26:25Z</time>
      </trkpt>
      <trkpt lat="49.83019" lon="2.57725">
        <ele>54</ele>
        <time>2022-08-03T08:26:26Z</time>
      </trkpt>
      <trkpt lat="49.8302" lon="2.57726">
        <ele>53.9</ele>
        <time>2022-08-03T08:26:27Z</time>
      </trkpt>
      <trkpt lat="49.8302" lon="2.57728">
        <ele>53.9</ele>
        <time>2022-08-03T08:26:28Z</time>
      </trkpt>
      <trkpt lat="49.8302" lon="2.5773">
        <ele>53.8</ele>
        <time>2022-08-03T08:26:29Z</time>
      </trkpt>
      <trkpt lat="49.83021" lon="2.57732">
        <ele>53.8</ele>
        <time>2022-08-03T08:26:30Z</time>
      </trkpt>
      <trkpt lat="49.83021" lon="2.57735">
        <ele>53.7</ele>
        <time>2022-08-03T08:26:32Z</time>
      </trkpt>
      <trkpt lat="49.83022" lon="2.57736">
        <ele>53.7</ele>
        <time>2022-08-03T08:26:33Z</time>
      </trkpt>
      <trkpt lat="49.83022" lon="2.57738">
        <ele>53.6</ele>
        <time>2022-08-03T08:26:34Z</time>
      </trkpt>
      <trkpt lat="49.83023" lon="2.57741">
        <ele>53.6</ele>
        <time>2022-08-03T08:26:35Z</time>
      </trkpt>
      <trkpt lat="49.83023" lon="2.57742">
        <ele>53.6</ele>
        <time>2022-08-03T08:26:37Z</time>
      </trkpt>
      <trkpt lat="49.83023" lon="2.57744">
        <ele>53.5</ele>
        <time>2022-08-03T08:26:38Z</time>
      </trkpt>
      <trkpt lat="49.83024" lon="2.57745">
        <ele>53.5</ele>
        <time>2022-08-03T08:26:39Z</time>
      </trkpt>
      <trkpt lat="49.83024" lon="2.57747">
        <ele>53.5</ele>
        <time>2022-08-03T08:26:40Z</time>
      </trkpt>
      <trkpt lat="49.83025" lon="2.57748">
        <ele>53.4</ele>
        <time>2022-08-03T08:26:41Z</time>
      </trkpt>
      <trkpt lat="49.83026" lon="2.57751">
        <ele>53.4</ele>
        <time>2022-08-03T08:26:43Z</time>
      </trkpt>
      <trkpt lat="49.83027" lon="2.57752">
        <ele>53.3</ele>
        <time>2022-08-03T08:26:44Z</time>
      </trkpt>
      <trkpt lat="49.83027" lon="2.57753">
        <ele>53.3</ele>
        <time>2022-08-03T08:26:45Z</time>
      </trkpt>
      <trkpt lat="49.83028" lon="2.57755">
        <ele>53.3</ele>
        <time>2022-08-03T08:26:46Z</time>
      </trkpt>
      <trkpt lat="49.83029" lon="2.57758">
        <ele>53.2</ele>
        <time>2022-08-03T08:26:47Z</time>
      </trkpt>
      <trkpt lat="49.83029" lon="2.57759">
        <ele>53.2</ele>
        <time>2022-08-03T08:26:48Z</time>
      </trkpt>
      <trkpt lat="49.83029" lon="2.57761">
        <ele>53.2</ele>
        <time>2022-08-03T08:26:49Z</time>
      </trkpt>
      <trkpt lat="49.8303" lon="2.57762">
        <ele>53.2</ele>
        <time>2022-08-03T08:26:51Z</time>
      </trkpt>
      <trkpt lat="49.83031" lon="2.57764">
        <ele>53.1</ele>
        <time>2022-08-03T08:26:52Z</time>
      </trkpt>
      <trkpt lat="49.83031" lon="2.57765">
        <ele>53.1</ele>
        <time>2022-08-03T08:26:53Z</time>
      </trkpt>
      <trkpt lat="49.83032" lon="2.57768">
        <ele>53.1</ele>
        <time>2022-08-03T08:26:54Z</time>
      </trkpt>
      <trkpt lat="49.83032" lon="2.5777">
        <ele>53.1</ele>
        <time>2022-08-03T08:26:55Z</time>
      </trkpt>
      <trkpt lat="49.83033" lon="2.57771">
        <ele>53</ele>
        <time>2022-08-03T08:26:56Z</time>
      </trkpt>
      <trkpt lat="49.83034" lon="2.57773">
        <ele>53</ele>
        <time>2022-08-03T08:26:58Z</time>
      </trkpt>
      <trkpt lat="49.83034" lon="2.57775">
        <ele>53</ele>
        <time>2022-08-03T08:26:59Z</time>
      </trkpt>
      <trkpt lat="49.83035" lon="2.57777">
        <ele>53</ele>
        <time>2022-08-03T08:27:00Z</time>
      </trkpt>
      <trkpt lat="49.83035" lon="2.57779">
        <ele>53</ele>
        <time>2022-08-03T08:27:01Z</time>
      </trkpt>
      <trkpt lat="49.83035" lon="2.57781">
        <ele>53</ele>
        <time>2022-08-03T08:27:02Z</time>
      </trkpt>
      <trkpt lat="49.83036" lon="2.57782">
        <ele>52.9</ele>
        <time>2022-08-03T08:27:03Z</time>
      </trkpt>
      <trkpt lat="49.83036" lon="2.57784">
        <ele>52.9</ele>
        <time>2022-08-03T08:27:04Z</time>
      </trkpt>
      <trkpt lat="49.83037" lon="2.57788">
        <ele>52.9</ele>
        <time>2022-08-03T08:27:05Z</time>
      </trkpt>
      <trkpt lat="49.83037" lon="2.57789">
        <ele>52.9</ele>
        <time>2022-08-03T08:27:06Z</time>
      </trkpt>
      <trkpt lat="49.83037" lon="2.5779">
        <ele>52.9</ele>
        <time>2022-08-03T08:27:08Z</time>
      </trkpt>
      <trkpt lat="49.83038" lon="2.57792">
        <ele>52.9</ele>
        <time>2022-08-03T08:27:09Z</time>
      </trkpt>
      <trkpt lat="49.83038" lon="2.57793">
        <ele>52.9</ele>
        <time>2022-08-03T08:27:10Z</time>
      </trkpt>
      <trkpt lat="49.83038" lon="2.57795">
        <ele>52.9</ele>
        <time>2022-08-03T08:27:11Z</time>
      </trkpt>
      <trkpt lat="49.83038" lon="2.57798">
        <ele>52.9</ele>
        <time>2022-08-03T08:27:12Z</time>
      </trkpt>
      <trkpt lat="49.83038" lon="2.57799">
        <ele>52.9</ele>
        <time>2022-08-03T08:27:13Z</time>
      </trkpt>
      <trkpt lat="49.83038" lon="2.57801">
        <ele>52.9</ele>
        <time>2022-08-03T08:27:14Z</time>
      </trkpt>
      <trkpt lat="49.83038" lon="2.57803">
        <ele>52.8</ele>
        <time>2022-08-03T08:27:15Z</time>
      </trkpt>
      <trkpt lat="49.83038" lon="2.57804">
        <ele>52.8</ele>
        <time>2022-08-03T08:27:16Z</time>
      </trkpt>
      <trkpt lat="49.83038" lon="2.57805">
        <ele>52.8</ele>
        <time>2022-08-03T08:27:17Z</time>
      </trkpt>
      <trkpt lat="49.83038" lon="2.57809">
        <ele>52.8</ele>
        <time>2022-08-03T08:27:18Z</time>
      </trkpt>
      <trkpt lat="49.83038" lon="2.5781">
        <ele>52.8</ele>
        <time>2022-08-03T08:27:20Z</time>
      </trkpt>
      <trkpt lat="49.83038" lon="2.57812">
        <ele>52.8</ele>
        <time>2022-08-03T08:27:21Z</time>
      </trkpt>
      <trkpt lat="49.83038" lon="2.57812">
        <ele>52.8</ele>
        <time>2022-08-03T08:27:22Z</time>
      </trkpt>
      <trkpt lat="49.83038" lon="2.57814">
        <ele>52.8</ele>
        <time>2022-08-03T08:27:23Z</time>
      </trkpt>
      <trkpt lat="49.83038" lon="2.57815">
        <ele>52.8</ele>
        <time>2022-08-03T08:27:24Z</time>
      </trkpt>
      <trkpt lat="49.83038" lon="2.57817">
        <ele>52.9</ele>
        <time>2022-08-03T08:27:25Z</time>
      </trkpt>
      <trkpt lat="49.83037" lon="2.57819">
        <ele>52.9</ele>
        <time>2022-08-03T08:27:27Z</time>
      </trkpt>
      <trkpt lat="49.83037" lon="2.5782">
        <ele>52.9</ele>
        <time>2022-08-03T08:27:28Z</time>
      </trkpt>
      <trkpt lat="49.83037" lon="2.57821">
        <ele>52.9</ele>
        <time>2022-08-03T08:27:29Z</time>
      </trkpt>
      <trkpt lat="49.83037" lon="2.57822">
        <ele>52.9</ele>
        <time>2022-08-03T08:27:30Z</time>
      </trkpt>
      <trkpt lat="49.83037" lon="2.57824">
        <ele>52.9</ele>
        <time>2022-08-03T08:27:31Z</time>
      </trkpt>
      <trkpt lat="49.83037" lon="2.57825">
        <ele>52.9</ele>
        <time>2022-08-03T08:27:33Z</time>
      </trkpt>
      <trkpt lat="49.83037" lon="2.57826">
        <ele>52.9</ele>
        <time>2022-08-03T08:27:34Z</time>
      </trkpt>
      <trkpt lat="49.83037" lon="2.57827">
        <ele>52.9</ele>
        <time>2022-08-03T08:27:35Z</time>
      </trkpt>
      <trkpt lat="49.83038" lon="2.57828">
        <ele>52.9</ele>
        <time>2022-08-03T08:27:37Z</time>
      </trkpt>
      <trkpt lat="49.83038" lon="2.57828">
        <ele>52.9</ele>
        <time>2022-08-03T08:27:38Z</time>
      </trkpt>
      <trkpt lat="49.83038" lon="2.57828">
        <ele>52.9</ele>
        <time>2022-08-03T08:27:39Z</time>
      </trkpt>
      <trkpt lat="49.83038" lon="2.57828">
        <ele>52.9</ele>
        <time>2022-08-03T08:27:40Z</time>
      </trkpt>
      <trkpt lat="49.83039" lon="2.57827">
        <ele>52.9</ele>
        <time>2022-08-03T08:27:41Z</time>
      </trkpt>
      <trkpt lat="49.83039" lon="2.57827">
        <ele>52.9</ele>
        <time>2022-08-03T08:27:42Z</time>
      </trkpt>
      <trkpt lat="49.83038" lon="2.57826">
        <ele>52.9</ele>
        <time>2022-08-03T08:27:43Z</time>
      </trkpt>
      <trkpt lat="49.83038" lon="2.57826">
        <ele>52.9</ele>
        <time>2022-08-03T08:27:44Z</time>
      </trkpt>
      <trkpt lat="49.83038" lon="2.57826">
        <ele>52.9</ele>
        <time>2022-08-03T08:27:45Z</time>
      </trkpt>
      <trkpt lat="49.83038" lon="2.57825">
        <ele>52.9</ele>
        <time>2022-08-03T08:27:46Z</time>
      </trkpt>
      <trkpt lat="49.83038" lon="2.57825">
        <ele>52.9</ele>
        <time>2022-08-03T08:27:47Z</time>
      </trkpt>
      <trkpt lat="49.83038" lon="2.57825">
        <ele>52.9</ele>
        <time>2022-08-03T08:27:48Z</time>
      </trkpt>
      <trkpt lat="49.83038" lon="2.57825">
        <ele>52.9</ele>
        <time>2022-08-03T08:27:49Z</time>
      </trkpt>
      <trkpt lat="49.83038" lon="2.57825">
        <ele>52.9</ele>
        <time>2022-08-03T08:27:50Z</time>
      </trkpt>
      <trkpt lat="49.83038" lon="2.57825">
        <ele>52.9</ele>
        <time>2022-08-03T08:27:51Z</time>
      </trkpt>
      <trkpt lat="49.83038" lon="2.57825">
        <ele>52.9</ele>
        <time>2022-08-03T08:27:52Z</time>
      </trkpt>
      <trkpt lat="49.83038" lon="2.57824">
        <ele>52.9</ele>
        <time>2022-08-03T08:27:53Z</time>
      </trkpt>
      <trkpt lat="49.83038" lon="2.57824">
        <ele>52.9</ele>
        <time>2022-08-03T08:27:54Z</time>
      </trkpt>
      <trkpt lat="49.83038" lon="2.57824">
        <ele>52.9</ele>
        <time>2022-08-03T08:27:55Z</time>
      </trkpt>
      <trkpt lat="49.83038" lon="2.57824">
        <ele>52.9</ele>
        <time>2022-08-03T08:27:56Z</time>
      </trkpt>
      <trkpt lat="49.83038" lon="2.57824">
        <ele>52.9</ele>
        <time>2022-08-03T08:27:57Z</time>
      </trkpt>
      <trkpt lat="49.83038" lon="2.57824">
        <ele>52.9</ele>
        <time>2022-08-03T08:27:58Z</time>
      </trkpt>
      <trkpt lat="49.83038" lon="2.57824">
        <ele>52.9</ele>
        <time>2022-08-03T08:27:59Z</time>
      </trkpt>
      <trkpt lat="49.83038" lon="2.57824">
        <ele>52.9</ele>
        <time>2022-08-03T08:28:00Z</time>
      </trkpt>
      <trkpt lat="49.83038" lon="2.57824">
        <ele>52.9</ele>
        <time>2022-08-03T08:28:01Z</time>
      </trkpt>
      <trkpt lat="49.83038" lon="2.57824">
        <ele>52.9</ele>
        <time>2022-08-03T08:28:02Z</time>
      </trkpt>
      <trkpt lat="49.83038" lon="2.57824">
        <ele>52.9</ele>
        <time>2022-08-03T08:28:03Z</time>
      </trkpt>
      <trkpt lat="49.83038" lon="2.57824">
        <ele>52.9</ele>
        <time>2022-08-03T08:28:04Z</time>
      </trkpt>
      <trkpt lat="49.83038" lon="2.57824">
        <ele>52.9</ele>
        <time>2022-08-03T08:28:05Z</time>
      </trkpt>
      <trkpt lat="49.83038" lon="2.57824">
        <ele>52.9</ele>
        <time>2022-08-03T08:28:06Z</time>
      </trkpt>
      <trkpt lat="49.83038" lon="2.57824">
        <ele>52.9</ele>
        <time>2022-08-03T08:28:07Z</time>
      </trkpt>
      <trkpt lat="49.83038" lon="2.57824">
        <ele>52.9</ele>
        <time>2022-08-03T08:28:08Z</time>
      </trkpt>
      <trkpt lat="49.83038" lon="2.57824">
        <ele>52.9</ele>
        <time>2022-08-03T08:28:09Z</time>
      </trkpt>
      <trkpt lat="49.83038" lon="2.57824">
        <ele>52.9</ele>
        <time>2022-08-03T08:28:10Z</time>
      </trkpt>
      <trkpt lat="49.83038" lon="2.57824">
        <ele>52.9</ele>
        <time>2022-08-03T08:28:11Z</time>
      </trkpt>
      <trkpt lat="49.83038" lon="2.57824">
        <ele>52.9</ele>
        <time>2022-08-03T08:28:12Z</time>
      </trkpt>
      <trkpt lat="49.83038" lon="2.57824">
        <ele>52.9</ele>
        <time>2022-08-03T08:28:13Z</time>
      </trkpt>
      <trkpt lat="49.83038" lon="2.57824">
        <ele>52.9</ele>
        <time>2022-08-03T08:28:14Z</time>
      </trkpt>
      <trkpt lat="49.83039" lon="2.57821">
        <ele>53</ele>
        <time>2022-08-03T08:28:15Z</time>
      </trkpt>
      <trkpt lat="49.83039" lon="2.57821">
        <ele>53</ele>
        <time>2022-08-03T08:28:16Z</time>
      </trkpt>
      <trkpt lat="49.8304" lon="2.57821">
        <ele>53</ele>
        <time>2022-08-03T08:28:17Z</time>
      </trkpt>
      <trkpt lat="49.8304" lon="2.57821">
        <ele>53</ele>
        <time>2022-08-03T08:28:18Z</time>
      </trkpt>
      <trkpt lat="49.8304" lon="2.57821">
        <ele>53</ele>
        <time>2022-08-03T08:28:19Z</time>
      </trkpt>
      <trkpt lat="49.8304" lon="2.57821">
        <ele>53</ele>
        <time>2022-08-03T08:28:20Z</time>
      </trkpt>
      <trkpt lat="49.8304" lon="2.57821">
        <ele>53</ele>
        <time>2022-08-03T08:28:21Z</time>
      </trkpt>
      <trkpt lat="49.8304" lon="2.57821">
        <ele>53</ele>
        <time>2022-08-03T08:28:22Z</time>
      </trkpt>
      <trkpt lat="49.8304" lon="2.57821">
        <ele>53</ele>
        <time>2022-08-03T08:28:23Z</time>
      </trkpt>
      <trkpt lat="49.8304" lon="2.57821">
        <ele>53</ele>
        <time>2022-08-03T08:28:24Z</time>
      </trkpt>
      <trkpt lat="49.8304" lon="2.57821">
        <ele>53</ele>
        <time>2022-08-03T08:28:25Z</time>
      </trkpt>
      <trkpt lat="49.8304" lon="2.57821">
        <ele>53</ele>
        <time>2022-08-03T08:28:26Z</time>
      </trkpt>
      <trkpt lat="49.8304" lon="2.57821">
        <ele>53</ele>
        <time>2022-08-03T08:28:27Z</time>
      </trkpt>
      <trkpt lat="49.8304" lon="2.57822">
        <ele>53</ele>
        <time>2022-08-03T08:28:28Z</time>
      </trkpt>
      <trkpt lat="49.83041" lon="2.57822">
        <ele>53</ele>
        <time>2022-08-03T08:28:29Z</time>
      </trkpt>
      <trkpt lat="49.83041" lon="2.57823">
        <ele>53</ele>
        <time>2022-08-03T08:28:30Z</time>
      </trkpt>
      <trkpt lat="49.83041" lon="2.57824">
        <ele>53</ele>
        <time>2022-08-03T08:28:31Z</time>
      </trkpt>
      <trkpt lat="49.83041" lon="2.57824">
        <ele>53</ele>
        <time>2022-08-03T08:28:32Z</time>
      </trkpt>
      <trkpt lat="49.83041" lon="2.57824">
        <ele>53</ele>
        <time>2022-08-03T08:28:33Z</time>
      </trkpt>
      <trkpt lat="49.83041" lon="2.57824">
        <ele>53</ele>
        <time>2022-08-03T08:28:34Z</time>
      </trkpt>
      <trkpt lat="49.83041" lon="2.57824">
        <ele>53</ele>
        <time>2022-08-03T08:28:35Z</time>
      </trkpt>
      <trkpt lat="49.83041" lon="2.57824">
        <ele>53</ele>
        <time>2022-08-03T08:28:36Z</time>
      </trkpt>
      <trkpt lat="49.83041" lon="2.57824">
        <ele>53</ele>
        <time>2022-08-03T08:28:37Z</time>
      </trkpt>
      <trkpt lat="49.83041" lon="2.57824">
        <ele>53</ele>
        <time>2022-08-03T08:28:38Z</time>
      </trkpt>
      <trkpt lat="49.83041" lon="2.57824">
        <ele>53</ele>
        <time>2022-08-03T08:28:39Z</time>
      </trkpt>
      <trkpt lat="49.83041" lon="2.57824">
        <ele>53</ele>
        <time>2022-08-03T08:28:40Z</time>
      </trkpt>
      <trkpt lat="49.83041" lon="2.57824">
        <ele>53</ele>
        <time>2022-08-03T08:28:41Z</time>
      </trkpt>
      <trkpt lat="49.83041" lon="2.57824">
        <ele>53</ele>
        <time>2022-08-03T08:28:42Z</time>
      </trkpt>
      <trkpt lat="49.83041" lon="2.57824">
        <ele>53</ele>
        <time>2022-08-03T08:28:43Z</time>
      </trkpt>
      <trkpt lat="49.83041" lon="2.57824">
        <ele>53</ele>
        <time>2022-08-03T08:28:44Z</time>
      </trkpt>
      <trkpt lat="49.83041" lon="2.57824">
        <ele>53</ele>
        <time>2022-08-03T08:28:45Z</time>
      </trkpt>
      <trkpt lat="49.83041" lon="2.57824">
        <ele>53</ele>
        <time>2022-08-03T08:28:46Z</time>
      </trkpt>
      <trkpt lat="49.83041" lon="2.57824">
        <ele>53</ele>
        <time>2022-08-03T08:28:47Z</time>
      </trkpt>
      <trkpt lat="49.83041" lon="2.57824">
        <ele>53</ele>
        <time>2022-08-03T08:28:48Z</time>
      </trkpt>
      <trkpt lat="49.83041" lon="2.57824">
        <ele>53</ele>
        <time>2022-08-03T08:28:49Z</time>
      </trkpt>
      <trkpt lat="49.83041" lon="2.57824">
        <ele>53</ele>
        <time>2022-08-03T08:28:50Z</time>
      </trkpt>
      <trkpt lat="49.83041" lon="2.57824">
        <ele>53</ele>
        <time>2022-08-03T08:28:51Z</time>
      </trkpt>
      <trkpt lat="49.83041" lon="2.57824">
        <ele>53</ele>
        <time>2022-08-03T08:28:52Z</time>
      </trkpt>
      <trkpt lat="49.83041" lon="2.57824">
        <ele>53</ele>
        <time>2022-08-03T08:28:53Z</time>
      </trkpt>
      <trkpt lat="49.83041" lon="2.57824">
        <ele>53</ele>
        <time>2022-08-03T08:28:54Z</time>
      </trkpt>
      <trkpt lat="49.83041" lon="2.57824">
        <ele>53</ele>
        <time>2022-08-03T08:28:55Z</time>
      </trkpt>
      <trkpt lat="49.83041" lon="2.57824">
        <ele>53</ele>
        <time>2022-08-03T08:28:56Z</time>
      </trkpt>
      <trkpt lat="49.83041" lon="2.57824">
        <ele>53</ele>
        <time>2022-08-03T08:28:57Z</time>
      </trkpt>
      <trkpt lat="49.83041" lon="2.57824">
        <ele>53</ele>
        <time>2022-08-03T08:28:58Z</time>
      </trkpt>
      <trkpt lat="49.83041" lon="2.57824">
        <ele>53</ele>
        <time>2022-08-03T08:28:59Z</time>
      </trkpt>
      <trkpt lat="49.83041" lon="2.57824">
        <ele>53</ele>
        <time>2022-08-03T08:29:00Z</time>
      </trkpt>
      <trkpt lat="49.83041" lon="2.57824">
        <ele>53</ele>
        <time>2022-08-03T08:29:01Z</time>
      </trkpt>
      <trkpt lat="49.83041" lon="2.57824">
        <ele>53</ele>
        <time>2022-08-03T08:29:02Z</time>
      </trkpt>
      <trkpt lat="49.83041" lon="2.57824">
        <ele>53</ele>
        <time>2022-08-03T08:29:03Z</time>
      </trkpt>
      <trkpt lat="49.83041" lon="2.57824">
        <ele>53</ele>
        <time>2022-08-03T08:29:04Z</time>
      </trkpt>
      <trkpt lat="49.83041" lon="2.57824">
        <ele>53</ele>
        <time>2022-08-03T08:29:05Z</time>
      </trkpt>
      <trkpt lat="49.83041" lon="2.57824">
        <ele>53</ele>
        <time>2022-08-03T08:29:06Z</time>
      </trkpt>
      <trkpt lat="49.83041" lon="2.57824">
        <ele>53</ele>
        <time>2022-08-03T08:29:07Z</time>
      </trkpt>
      <trkpt lat="49.83041" lon="2.57824">
        <ele>53</ele>
        <time>2022-08-03T08:29:08Z</time>
      </trkpt>
      <trkpt lat="49.83041" lon="2.57824">
        <ele>53</ele>
        <time>2022-08-03T08:29:09Z</time>
      </trkpt>
      <trkpt lat="49.83041" lon="2.57824">
        <ele>53</ele>
        <time>2022-08-03T08:29:10Z</time>
      </trkpt>
      <trkpt lat="49.83041" lon="2.57824">
        <ele>53</ele>
        <time>2022-08-03T08:29:11Z</time>
      </trkpt>
      <trkpt lat="49.83041" lon="2.57824">
        <ele>53</ele>
        <time>2022-08-03T08:29:12Z</time>
      </trkpt>
      <trkpt lat="49.83041" lon="2.57824">
        <ele>53</ele>
        <time>2022-08-03T08:29:13Z</time>
      </trkpt>
      <trkpt lat="49.83041" lon="2.57824">
        <ele>53</ele>
        <time>2022-08-03T08:29:14Z</time>
      </trkpt>
      <trkpt lat="49.83041" lon="2.57824">
        <ele>53</ele>
        <time>2022-08-03T08:29:15Z</time>
      </trkpt>
      <trkpt lat="49.83041" lon="2.57824">
        <ele>53</ele>
        <time>2022-08-03T08:29:16Z</time>
      </trkpt>
      <trkpt lat="49.83041" lon="2.57824">
        <ele>53</ele>
        <time>2022-08-03T08:29:17Z</time>
      </trkpt>
      <trkpt lat="49.83041" lon="2.57824">
        <ele>53</ele>
        <time>2022-08-03T08:29:18Z</time>
      </trkpt>
      <trkpt lat="49.83041" lon="2.57824">
        <ele>53</ele>
        <time>2022-08-03T08:29:19Z</time>
      </trkpt>
      <trkpt lat="49.83041" lon="2.57824">
        <ele>53</ele>
        <time>2022-08-03T08:29:20Z</time>
      </trkpt>
      <trkpt lat="49.83041" lon="2.57824">
        <ele>53</ele>
        <time>2022-08-03T08:29:21Z</time>
      </trkpt>
      <trkpt lat="49.83041" lon="2.57824">
        <ele>53</ele>
        <time>2022-08-03T08:29:22Z</time>
      </trkpt>
      <trkpt lat="49.83041" lon="2.57824">
        <ele>53</ele>
        <time>2022-08-03T08:29:23Z</time>
      </trkpt>
      <trkpt lat="49.83041" lon="2.57824">
        <ele>53</ele>
        <time>2022-08-03T08:29:24Z</time>
      </trkpt>
      <trkpt lat="49.83041" lon="2.57824">
        <ele>53</ele>
        <time>2022-08-03T08:29:25Z</time>
      </trkpt>
      <trkpt lat="49.83041" lon="2.57824">
        <ele>53</ele>
        <time>2022-08-03T08:29:26Z</time>
      </trkpt>
      <trkpt lat="49.83041" lon="2.57824">
        <ele>53</ele>
        <time>2022-08-03T08:29:27Z</time>
      </trkpt>
      <trkpt lat="49.83041" lon="2.57824">
        <ele>53</ele>
        <time>2022-08-03T08:29:28Z</time>
      </trkpt>
      <trkpt lat="49.83041" lon="2.57824">
        <ele>53</ele>
        <time>2022-08-03T08:29:29Z</time>
      </trkpt>
      <trkpt lat="49.8304" lon="2.57824">
        <ele>53</ele>
        <time>2022-08-03T08:29:30Z</time>
      </trkpt>
      <trkpt lat="49.8304" lon="2.57825">
        <ele>53</ele>
        <time>2022-08-03T08:29:31Z</time>
      </trkpt>
      <trkpt lat="49.8304" lon="2.57826">
        <ele>53.1</ele>
        <time>2022-08-03T08:29:32Z</time>
      </trkpt>
      <trkpt lat="49.83039" lon="2.57827">
        <ele>53.1</ele>
        <time>2022-08-03T08:29:33Z</time>
      </trkpt>
      <trkpt lat="49.83039" lon="2.57828">
        <ele>53.1</ele>
        <time>2022-08-03T08:29:34Z</time>
      </trkpt>
      <trkpt lat="49.83039" lon="2.57829">
        <ele>53.1</ele>
        <time>2022-08-03T08:29:35Z</time>
      </trkpt>
      <trkpt lat="49.83039" lon="2.5783">
        <ele>53.1</ele>
        <time>2022-08-03T08:29:36Z</time>
      </trkpt>
      <trkpt lat="49.83039" lon="2.57831">
        <ele>53.1</ele>
        <time>2022-08-03T08:29:37Z</time>
      </trkpt>
      <trkpt lat="49.83039" lon="2.57831">
        <ele>53.1</ele>
        <time>2022-08-03T08:29:38Z</time>
      </trkpt>
      <trkpt lat="49.8304" lon="2.57831">
        <ele>53.1</ele>
        <time>2022-08-03T08:29:39Z</time>
      </trkpt>
      <trkpt lat="49.8304" lon="2.57832">
        <ele>53.1</ele>
        <time>2022-08-03T08:29:40Z</time>
      </trkpt>
      <trkpt lat="49.8304" lon="2.57833">
        <ele>53.1</ele>
        <time>2022-08-03T08:29:41Z</time>
      </trkpt>
      <trkpt lat="49.83041" lon="2.57836">
        <ele>53.2</ele>
        <time>2022-08-03T08:29:43Z</time>
      </trkpt>
      <trkpt lat="49.83041" lon="2.57836">
        <ele>53.2</ele>
        <time>2022-08-03T08:29:44Z</time>
      </trkpt>
      <trkpt lat="49.83042" lon="2.57838">
        <ele>53.2</ele>
        <time>2022-08-03T08:29:45Z</time>
      </trkpt>
      <trkpt lat="49.83043" lon="2.5784">
        <ele>53.2</ele>
        <time>2022-08-03T08:29:46Z</time>
      </trkpt>
      <trkpt lat="49.83044" lon="2.57842">
        <ele>53.2</ele>
        <time>2022-08-03T08:29:47Z</time>
      </trkpt>
      <trkpt lat="49.83045" lon="2.57842">
        <ele>53.2</ele>
        <time>2022-08-03T08:29:49Z</time>
      </trkpt>
      <trkpt lat="49.83046" lon="2.57843">
        <ele>53.2</ele>
        <time>2022-08-03T08:29:50Z</time>
      </trkpt>
      <trkpt lat="49.83047" lon="2.57843">
        <ele>53.2</ele>
        <time>2022-08-03T08:29:51Z</time>
      </trkpt>
      <trkpt lat="49.83048" lon="2.57844">
        <ele>53.2</ele>
        <time>2022-08-03T08:29:52Z</time>
      </trkpt>
      <trkpt lat="49.8305" lon="2.57844">
        <ele>53.1</ele>
        <time>2022-08-03T08:29:53Z</time>
      </trkpt>
      <trkpt lat="49.8305" lon="2.57844">
        <ele>53.1</ele>
        <time>2022-08-03T08:29:54Z</time>
      </trkpt>
      <trkpt lat="49.83052" lon="2.57844">
        <ele>53.1</ele>
        <time>2022-08-03T08:29:55Z</time>
      </trkpt>
      <trkpt lat="49.83053" lon="2.57845">
        <ele>53.1</ele>
        <time>2022-08-03T08:29:56Z</time>
      </trkpt>
      <trkpt lat="49.83054" lon="2.57845">
        <ele>53.1</ele>
        <time>2022-08-03T08:29:57Z</time>
      </trkpt>
      <trkpt lat="49.83055" lon="2.57844">
        <ele>53.1</ele>
        <time>2022-08-03T08:29:58Z</time>
      </trkpt>
      <trkpt lat="49.83056" lon="2.57844">
        <ele>53.1</ele>
        <time>2022-08-03T08:30:00Z</time>
      </trkpt>
      <trkpt lat="49.83057" lon="2.57844">
        <ele>53.1</ele>
        <time>2022-08-03T08:30:01Z</time>
      </trkpt>
      <trkpt lat="49.83058" lon="2.57844">
        <ele>53.1</ele>
        <time>2022-08-03T08:30:02Z</time>
      </trkpt>
      <trkpt lat="49.83059" lon="2.57843">
        <ele>53.1</ele>
        <time>2022-08-03T08:30:03Z</time>
      </trkpt>
      <trkpt lat="49.83061" lon="2.57842">
        <ele>53.1</ele>
        <time>2022-08-03T08:30:04Z</time>
      </trkpt>
      <trkpt lat="49.83062" lon="2.57842">
        <ele>53.1</ele>
        <time>2022-08-03T08:30:05Z</time>
      </trkpt>
      <trkpt lat="49.83063" lon="2.57841">
        <ele>53.1</ele>
        <time>2022-08-03T08:30:06Z</time>
      </trkpt>
      <trkpt lat="49.83064" lon="2.57841">
        <ele>53.1</ele>
        <time>2022-08-03T08:30:07Z</time>
      </trkpt>
      <trkpt lat="49.83065" lon="2.57841">
        <ele>53.1</ele>
        <time>2022-08-03T08:30:08Z</time>
      </trkpt>
      <trkpt lat="49.83066" lon="2.57841">
        <ele>53.2</ele>
        <time>2022-08-03T08:30:10Z</time>
      </trkpt>
      <trkpt lat="49.83067" lon="2.57841">
        <ele>53.2</ele>
        <time>2022-08-03T08:30:11Z</time>
      </trkpt>
      <trkpt lat="49.83069" lon="2.57841">
        <ele>53.2</ele>
        <time>2022-08-03T08:30:12Z</time>
      </trkpt>
      <trkpt lat="49.8307" lon="2.57841">
        <ele>53.2</ele>
        <time>2022-08-03T08:30:13Z</time>
      </trkpt>
      <trkpt lat="49.83071" lon="2.57841">
        <ele>53.2</ele>
        <time>2022-08-03T08:30:14Z</time>
      </trkpt>
      <trkpt lat="49.83072" lon="2.57841">
        <ele>53.2</ele>
        <time>2022-08-03T08:30:15Z</time>
      </trkpt>
      <trkpt lat="49.83073" lon="2.57841">
        <ele>53.2</ele>
        <time>2022-08-03T08:30:17Z</time>
      </trkpt>
      <trkpt lat="49.83075" lon="2.57842">
        <ele>53.2</ele>
        <time>2022-08-03T08:30:18Z</time>
      </trkpt>
      <trkpt lat="49.83075" lon="2.57842">
        <ele>53.2</ele>
        <time>2022-08-03T08:30:19Z</time>
      </trkpt>
      <trkpt lat="49.83077" lon="2.57843">
        <ele>53.2</ele>
        <time>2022-08-03T08:30:20Z</time>
      </trkpt>
      <trkpt lat="49.83078" lon="2.57843">
        <ele>53.2</ele>
        <time>2022-08-03T08:30:21Z</time>
      </trkpt>
      <trkpt lat="49.83079" lon="2.57844">
        <ele>53.2</ele>
        <time>2022-08-03T08:30:22Z</time>
      </trkpt>
      <trkpt lat="49.8308" lon="2.57844">
        <ele>53.2</ele>
        <time>2022-08-03T08:30:24Z</time>
      </trkpt>
      <trkpt lat="49.83081" lon="2.57844">
        <ele>53.2</ele>
        <time>2022-08-03T08:30:25Z</time>
      </trkpt>
      <trkpt lat="49.83082" lon="2.57844">
        <ele>53.3</ele>
        <time>2022-08-03T08:30:26Z</time>
      </trkpt>
      <trkpt lat="49.83083" lon="2.57844">
        <ele>53.3</ele>
        <time>2022-08-03T08:30:27Z</time>
      </trkpt>
      <trkpt lat="49.83084" lon="2.57844">
        <ele>53.3</ele>
        <time>2022-08-03T08:30:28Z</time>
      </trkpt>
      <trkpt lat="49.83085" lon="2.57844">
        <ele>53.3</ele>
        <time>2022-08-03T08:30:30Z</time>
      </trkpt>
      <trkpt lat="49.83085" lon="2.57844">
        <ele>53.3</ele>
        <time>2022-08-03T08:30:31Z</time>
      </trkpt>
      <trkpt lat="49.83086" lon="2.57843">
        <ele>53.3</ele>
        <time>2022-08-03T08:30:32Z</time>
      </trkpt>
      <trkpt lat="49.83087" lon="2.57841">
        <ele>53.3</ele>
        <time>2022-08-03T08:30:33Z</time>
      </trkpt>
      <trkpt lat="49.83088" lon="2.57841">
        <ele>53.3</ele>
        <time>2022-08-03T08:30:34Z</time>
      </trkpt>
      <trkpt lat="49.83089" lon="2.5784">
        <ele>53.3</ele>
        <time>2022-08-03T08:30:35Z</time>
      </trkpt>
      <trkpt lat="49.8309" lon="2.5784">
        <ele>53.3</ele>
        <time>2022-08-03T08:30:36Z</time>
      </trkpt>
      <trkpt lat="49.83092" lon="2.57839">
        <ele>53.3</ele>
        <time>2022-08-03T08:30:38Z</time>
      </trkpt>
      <trkpt lat="49.83093" lon="2.57839">
        <ele>53.3</ele>
        <time>2022-08-03T08:30:39Z</time>
      </trkpt>
      <trkpt lat="49.83094" lon="2.57839">
        <ele>53.3</ele>
        <time>2022-08-03T08:30:40Z</time>
      </trkpt>
      <trkpt lat="49.83095" lon="2.57838">
        <ele>53.3</ele>
        <time>2022-08-03T08:30:42Z</time>
      </trkpt>
      <trkpt lat="49.83097" lon="2.57837">
        <ele>53.4</ele>
        <time>2022-08-03T08:30:43Z</time>
      </trkpt>
      <trkpt lat="49.83097" lon="2.57836">
        <ele>53.4</ele>
        <time>2022-08-03T08:30:44Z</time>
      </trkpt>
      <trkpt lat="49.83099" lon="2.57835">
        <ele>53.4</ele>
        <time>2022-08-03T08:30:46Z</time>
      </trkpt>
      <trkpt lat="49.83099" lon="2.57835">
        <ele>53.4</ele>
        <time>2022-08-03T08:30:47Z</time>
      </trkpt>
      <trkpt lat="49.831" lon="2.57834">
        <ele>53.4</ele>
        <time>2022-08-03T08:30:48Z</time>
      </trkpt>
      <trkpt lat="49.83101" lon="2.57834">
        <ele>53.4</ele>
        <time>2022-08-03T08:30:49Z</time>
      </trkpt>
      <trkpt lat="49.83102" lon="2.57833">
        <ele>53.4</ele>
        <time>2022-08-03T08:30:50Z</time>
      </trkpt>
      <trkpt lat="49.83103" lon="2.57833">
        <ele>53.4</ele>
        <time>2022-08-03T08:30:51Z</time>
      </trkpt>
      <trkpt lat="49.83104" lon="2.57832">
        <ele>53.4</ele>
        <time>2022-08-03T08:30:52Z</time>
      </trkpt>
      <trkpt lat="49.83105" lon="2.57831">
        <ele>53.4</ele>
        <time>2022-08-03T08:30:53Z</time>
      </trkpt>
      <trkpt lat="49.83106" lon="2.57831">
        <ele>53.5</ele>
        <time>2022-08-03T08:30:55Z</time>
      </trkpt>
      <trkpt lat="49.83107" lon="2.57831">
        <ele>53.5</ele>
        <time>2022-08-03T08:30:56Z</time>
      </trkpt>
      <trkpt lat="49.83106" lon="2.57833">
        <ele>53.5</ele>
        <time>2022-08-03T08:30:57Z</time>
      </trkpt>
      <trkpt lat="49.83107" lon="2.57833">
        <ele>53.5</ele>
        <time>2022-08-03T08:30:58Z</time>
      </trkpt>
      <trkpt lat="49.83107" lon="2.57833">
        <ele>53.5</ele>
        <time>2022-08-03T08:30:59Z</time>
      </trkpt>
      <trkpt lat="49.83108" lon="2.57833">
        <ele>53.5</ele>
        <time>2022-08-03T08:31:00Z</time>
      </trkpt>
      <trkpt lat="49.83109" lon="2.57833">
        <ele>53.5</ele>
        <time>2022-08-03T08:31:01Z</time>
      </trkpt>
      <trkpt lat="49.83111" lon="2.57833">
        <ele>53.5</ele>
        <time>2022-08-03T08:31:02Z</time>
      </trkpt>
      <trkpt lat="49.83112" lon="2.57833">
        <ele>53.5</ele>
        <time>2022-08-03T08:31:03Z</time>
      </trkpt>
      <trkpt lat="49.83113" lon="2.57833">
        <ele>53.5</ele>
        <time>2022-08-03T08:31:05Z</time>
      </trkpt>
      <trkpt lat="49.83114" lon="2.57833">
        <ele>53.6</ele>
        <time>2022-08-03T08:31:06Z</time>
      </trkpt>
      <trkpt lat="49.83114" lon="2.57833">
        <ele>53.6</ele>
        <time>2022-08-03T08:31:07Z</time>
      </trkpt>
      <trkpt lat="49.83115" lon="2.57834">
        <ele>53.6</ele>
        <time>2022-08-03T08:31:08Z</time>
      </trkpt>
      <trkpt lat="49.83116" lon="2.57834">
        <ele>53.6</ele>
        <time>2022-08-03T08:31:09Z</time>
      </trkpt>
      <trkpt lat="49.83117" lon="2.57834">
        <ele>53.6</ele>
        <time>2022-08-03T08:31:10Z</time>
      </trkpt>
      <trkpt lat="49.83118" lon="2.57834">
        <ele>53.6</ele>
        <time>2022-08-03T08:31:11Z</time>
      </trkpt>
      <trkpt lat="49.8312" lon="2.57834">
        <ele>53.6</ele>
        <time>2022-08-03T08:31:12Z</time>
      </trkpt>
      <trkpt lat="49.83121" lon="2.57834">
        <ele>53.7</ele>
        <time>2022-08-03T08:31:13Z</time>
      </trkpt>
      <trkpt lat="49.83123" lon="2.57835">
        <ele>53.7</ele>
        <time>2022-08-03T08:31:14Z</time>
      </trkpt>
      <trkpt lat="49.83124" lon="2.57835">
        <ele>53.7</ele>
        <time>2022-08-03T08:31:16Z</time>
      </trkpt>
      <trkpt lat="49.83126" lon="2.57836">
        <ele>53.7</ele>
        <time>2022-08-03T08:31:17Z</time>
      </trkpt>
      <trkpt lat="49.83127" lon="2.57837">
        <ele>53.8</ele>
        <time>2022-08-03T08:31:18Z</time>
      </trkpt>
      <trkpt lat="49.83129" lon="2.57837">
        <ele>53.8</ele>
        <time>2022-08-03T08:31:19Z</time>
      </trkpt>
      <trkpt lat="49.8313" lon="2.57838">
        <ele>53.9</ele>
        <time>2022-08-03T08:31:20Z</time>
      </trkpt>
      <trkpt lat="49.83132" lon="2.57838">
        <ele>53.9</ele>
        <time>2022-08-03T08:31:21Z</time>
      </trkpt>
      <trkpt lat="49.83135" lon="2.57839">
        <ele>54</ele>
        <time>2022-08-03T08:31:23Z</time>
      </trkpt>
      <trkpt lat="49.83136" lon="2.57839">
        <ele>54</ele>
        <time>2022-08-03T08:31:24Z</time>
      </trkpt>
      <trkpt lat="49.83138" lon="2.5784">
        <ele>54</ele>
        <time>2022-08-03T08:31:25Z</time>
      </trkpt>
      <trkpt lat="49.83139" lon="2.57841">
        <ele>54</ele>
        <time>2022-08-03T08:31:26Z</time>
      </trkpt>
      <trkpt lat="49.8314" lon="2.57841">
        <ele>54.1</ele>
        <time>2022-08-03T08:31:27Z</time>
      </trkpt>
      <trkpt lat="49.83143" lon="2.57842">
        <ele>54.1</ele>
        <time>2022-08-03T08:31:28Z</time>
      </trkpt>
      <trkpt lat="49.83143" lon="2.57842">
        <ele>54.1</ele>
        <time>2022-08-03T08:31:29Z</time>
      </trkpt>
      <trkpt lat="49.83145" lon="2.57842">
        <ele>54.2</ele>
        <time>2022-08-03T08:31:30Z</time>
      </trkpt>
      <trkpt lat="49.83146" lon="2.57842">
        <ele>54.2</ele>
        <time>2022-08-03T08:31:31Z</time>
      </trkpt>
      <trkpt lat="49.83147" lon="2.57842">
        <ele>54.2</ele>
        <time>2022-08-03T08:31:32Z</time>
      </trkpt>
      <trkpt lat="49.83149" lon="2.57842">
        <ele>54.3</ele>
        <time>2022-08-03T08:31:34Z</time>
      </trkpt>
      <trkpt lat="49.8315" lon="2.57842">
        <ele>54.3</ele>
        <time>2022-08-03T08:31:35Z</time>
      </trkpt>
      <trkpt lat="49.83151" lon="2.57842">
        <ele>54.3</ele>
        <time>2022-08-03T08:31:36Z</time>
      </trkpt>
      <trkpt lat="49.83152" lon="2.57842">
        <ele>54.4</ele>
        <time>2022-08-03T08:31:37Z</time>
      </trkpt>
      <trkpt lat="49.83153" lon="2.57842">
        <ele>54.4</ele>
        <time>2022-08-03T08:31:38Z</time>
      </trkpt>
      <trkpt lat="49.83155" lon="2.57842">
        <ele>54.4</ele>
        <time>2022-08-03T08:31:39Z</time>
      </trkpt>
      <trkpt lat="49.83156" lon="2.57842">
        <ele>54.5</ele>
        <time>2022-08-03T08:31:40Z</time>
      </trkpt>
      <trkpt lat="49.83158" lon="2.57842">
        <ele>54.5</ele>
        <time>2022-08-03T08:31:41Z</time>
      </trkpt>
      <trkpt lat="49.83159" lon="2.57842">
        <ele>54.6</ele>
        <time>2022-08-03T08:31:42Z</time>
      </trkpt>
      <trkpt lat="49.8316" lon="2.57843">
        <ele>54.6</ele>
        <time>2022-08-03T08:31:43Z</time>
      </trkpt>
      <trkpt lat="49.83162" lon="2.57843">
        <ele>54.6</ele>
        <time>2022-08-03T08:31:45Z</time>
      </trkpt>
      <trkpt lat="49.83163" lon="2.57843">
        <ele>54.6</ele>
        <time>2022-08-03T08:31:46Z</time>
      </trkpt>
      <trkpt lat="49.83164" lon="2.57844">
        <ele>54.7</ele>
        <time>2022-08-03T08:31:47Z</time>
      </trkpt>
      <trkpt lat="49.83166" lon="2.57844">
        <ele>54.7</ele>
        <time>2022-08-03T08:31:48Z</time>
      </trkpt>
      <trkpt lat="49.83167" lon="2.57844">
        <ele>54.7</ele>
        <time>2022-08-03T08:31:49Z</time>
      </trkpt>
      <trkpt lat="49.83168" lon="2.57844">
        <ele>54.8</ele>
        <time>2022-08-03T08:31:50Z</time>
      </trkpt>
      <trkpt lat="49.83169" lon="2.57844">
        <ele>54.8</ele>
        <time>2022-08-03T08:31:51Z</time>
      </trkpt>
      <trkpt lat="49.8317" lon="2.57844">
        <ele>54.8</ele>
        <time>2022-08-03T08:31:52Z</time>
      </trkpt>
      <trkpt lat="49.83172" lon="2.57843">
        <ele>54.8</ele>
        <time>2022-08-03T08:31:53Z</time>
      </trkpt>
      <trkpt lat="49.83173" lon="2.57843">
        <ele>54.9</ele>
        <time>2022-08-03T08:31:54Z</time>
      </trkpt>
      <trkpt lat="49.83174" lon="2.57843">
        <ele>54.9</ele>
        <time>2022-08-03T08:31:55Z</time>
      </trkpt>
      <trkpt lat="49.83175" lon="2.57843">
        <ele>54.9</ele>
        <time>2022-08-03T08:31:56Z</time>
      </trkpt>
      <trkpt lat="49.83176" lon="2.57843">
        <ele>54.9</ele>
        <time>2022-08-03T08:31:58Z</time>
      </trkpt>
      <trkpt lat="49.83178" lon="2.57843">
        <ele>55</ele>
        <time>2022-08-03T08:31:59Z</time>
      </trkpt>
      <trkpt lat="49.83179" lon="2.57843">
        <ele>55</ele>
        <time>2022-08-03T08:32:00Z</time>
      </trkpt>
      <trkpt lat="49.8318" lon="2.57843">
        <ele>55</ele>
        <time>2022-08-03T08:32:01Z</time>
      </trkpt>
      <trkpt lat="49.83182" lon="2.57843">
        <ele>55.1</ele>
        <time>2022-08-03T08:32:02Z</time>
      </trkpt>
      <trkpt lat="49.83182" lon="2.57843">
        <ele>55.1</ele>
        <time>2022-08-03T08:32:03Z</time>
      </trkpt>
      <trkpt lat="49.83183" lon="2.57843">
        <ele>55.1</ele>
        <time>2022-08-03T08:32:04Z</time>
      </trkpt>
      <trkpt lat="49.83184" lon="2.57843">
        <ele>55.1</ele>
        <time>2022-08-03T08:32:05Z</time>
      </trkpt>
      <trkpt lat="49.83186" lon="2.57843">
        <ele>55.1</ele>
        <time>2022-08-03T08:32:06Z</time>
      </trkpt>
      <trkpt lat="49.83187" lon="2.57843">
        <ele>55.2</ele>
        <time>2022-08-03T08:32:08Z</time>
      </trkpt>
      <trkpt lat="49.83189" lon="2.57843">
        <ele>55.2</ele>
        <time>2022-08-03T08:32:09Z</time>
      </trkpt>
      <trkpt lat="49.8319" lon="2.57843">
        <ele>55.2</ele>
        <time>2022-08-03T08:32:10Z</time>
      </trkpt>
      <trkpt lat="49.83192" lon="2.57842">
        <ele>55.3</ele>
        <time>2022-08-03T08:32:11Z</time>
      </trkpt>
      <trkpt lat="49.83193" lon="2.57842">
        <ele>55.3</ele>
        <time>2022-08-03T08:32:12Z</time>
      </trkpt>
      <trkpt lat="49.83193" lon="2.57842">
        <ele>55.3</ele>
        <time>2022-08-03T08:32:13Z</time>
      </trkpt>
      <trkpt lat="49.83194" lon="2.57842">
        <ele>55.3</ele>
        <time>2022-08-03T08:32:14Z</time>
      </trkpt>
      <trkpt lat="49.83195" lon="2.57842">
        <ele>55.4</ele>
        <time>2022-08-03T08:32:15Z</time>
      </trkpt>
      <trkpt lat="49.83197" lon="2.57842">
        <ele>55.4</ele>
        <time>2022-08-03T08:32:17Z</time>
      </trkpt>
      <trkpt lat="49.83198" lon="2.57842">
        <ele>55.4</ele>
        <time>2022-08-03T08:32:18Z</time>
      </trkpt>
      <trkpt lat="49.83199" lon="2.57842">
        <ele>55.5</ele>
        <time>2022-08-03T08:32:19Z</time>
      </trkpt>
      <trkpt lat="49.832" lon="2.57842">
        <ele>55.5</ele>
        <time>2022-08-03T08:32:20Z</time>
      </trkpt>
      <trkpt lat="49.83202" lon="2.57842">
        <ele>55.5</ele>
        <time>2022-08-03T08:32:21Z</time>
      </trkpt>
      <trkpt lat="49.83203" lon="2.57842">
        <ele>55.6</ele>
        <time>2022-08-03T08:32:22Z</time>
      </trkpt>
      <trkpt lat="49.83205" lon="2.57843">
        <ele>55.6</ele>
        <time>2022-08-03T08:32:23Z</time>
      </trkpt>
      <trkpt lat="49.83206" lon="2.57843">
        <ele>55.6</ele>
        <time>2022-08-03T08:32:24Z</time>
      </trkpt>
      <trkpt lat="49.83207" lon="2.57844">
        <ele>55.6</ele>
        <time>2022-08-03T08:32:26Z</time>
      </trkpt>
      <trkpt lat="49.83208" lon="2.57844">
        <ele>55.7</ele>
        <time>2022-08-03T08:32:27Z</time>
      </trkpt>
      <trkpt lat="49.83209" lon="2.57845">
        <ele>55.7</ele>
        <time>2022-08-03T08:32:28Z</time>
      </trkpt>
      <trkpt lat="49.83211" lon="2.57845">
        <ele>55.8</ele>
        <time>2022-08-03T08:32:29Z</time>
      </trkpt>
      <trkpt lat="49.83212" lon="2.57845">
        <ele>55.8</ele>
        <time>2022-08-03T08:32:30Z</time>
      </trkpt>
      <trkpt lat="49.83213" lon="2.57846">
        <ele>55.8</ele>
        <time>2022-08-03T08:32:31Z</time>
      </trkpt>
      <trkpt lat="49.83214" lon="2.57846">
        <ele>55.8</ele>
        <time>2022-08-03T08:32:32Z</time>
      </trkpt>
      <trkpt lat="49.83216" lon="2.57846">
        <ele>55.9</ele>
        <time>2022-08-03T08:32:33Z</time>
      </trkpt>
      <trkpt lat="49.83217" lon="2.57847">
        <ele>55.9</ele>
        <time>2022-08-03T08:32:35Z</time>
      </trkpt>
      <trkpt lat="49.83218" lon="2.57847">
        <ele>56</ele>
        <time>2022-08-03T08:32:36Z</time>
      </trkpt>
      <trkpt lat="49.83219" lon="2.57847">
        <ele>56</ele>
        <time>2022-08-03T08:32:37Z</time>
      </trkpt>
      <trkpt lat="49.8322" lon="2.57847">
        <ele>56</ele>
        <time>2022-08-03T08:32:38Z</time>
      </trkpt>
      <trkpt lat="49.83222" lon="2.57847">
        <ele>56.1</ele>
        <time>2022-08-03T08:32:39Z</time>
      </trkpt>
      <trkpt lat="49.83224" lon="2.57847">
        <ele>56.1</ele>
        <time>2022-08-03T08:32:41Z</time>
      </trkpt>
      <trkpt lat="49.83225" lon="2.57847">
        <ele>56.2</ele>
        <time>2022-08-03T08:32:42Z</time>
      </trkpt>
      <trkpt lat="49.83228" lon="2.57847">
        <ele>56.2</ele>
        <time>2022-08-03T08:32:43Z</time>
      </trkpt>
      <trkpt lat="49.83229" lon="2.57846">
        <ele>56.2</ele>
        <time>2022-08-03T08:32:44Z</time>
      </trkpt>
      <trkpt lat="49.8323" lon="2.57846">
        <ele>56.3</ele>
        <time>2022-08-03T08:32:45Z</time>
      </trkpt>
      <trkpt lat="49.83231" lon="2.57846">
        <ele>56.3</ele>
        <time>2022-08-03T08:32:46Z</time>
      </trkpt>
      <trkpt lat="49.83232" lon="2.57845">
        <ele>56.3</ele>
        <time>2022-08-03T08:32:47Z</time>
      </trkpt>
      <trkpt lat="49.83234" lon="2.57845">
        <ele>56.4</ele>
        <time>2022-08-03T08:32:49Z</time>
      </trkpt>
      <trkpt lat="49.83235" lon="2.57845">
        <ele>56.4</ele>
        <time>2022-08-03T08:32:50Z</time>
      </trkpt>
      <trkpt lat="49.83235" lon="2.57846">
        <ele>56.4</ele>
        <time>2022-08-03T08:32:51Z</time>
      </trkpt>
      <trkpt lat="49.83237" lon="2.57846">
        <ele>56.4</ele>
        <time>2022-08-03T08:32:52Z</time>
      </trkpt>
      <trkpt lat="49.83238" lon="2.57846">
        <ele>56.5</ele>
        <time>2022-08-03T08:32:53Z</time>
      </trkpt>
      <trkpt lat="49.83239" lon="2.57847">
        <ele>56.5</ele>
        <time>2022-08-03T08:32:54Z</time>
      </trkpt>
      <trkpt lat="49.8324" lon="2.57847">
        <ele>56.5</ele>
        <time>2022-08-03T08:32:55Z</time>
      </trkpt>
      <trkpt lat="49.83241" lon="2.57846">
        <ele>56.6</ele>
        <time>2022-08-03T08:32:56Z</time>
      </trkpt>
      <trkpt lat="49.83242" lon="2.57846">
        <ele>56.6</ele>
        <time>2022-08-03T08:32:57Z</time>
      </trkpt>
      <trkpt lat="49.83244" lon="2.57846">
        <ele>56.6</ele>
        <time>2022-08-03T08:32:58Z</time>
      </trkpt>
      <trkpt lat="49.83245" lon="2.57846">
        <ele>56.7</ele>
        <time>2022-08-03T08:32:59Z</time>
      </trkpt>
      <trkpt lat="49.83246" lon="2.57846">
        <ele>56.7</ele>
        <time>2022-08-03T08:33:01Z</time>
      </trkpt>
      <trkpt lat="49.83247" lon="2.57846">
        <ele>56.7</ele>
        <time>2022-08-03T08:33:02Z</time>
      </trkpt>
      <trkpt lat="49.83249" lon="2.57846">
        <ele>56.8</ele>
        <time>2022-08-03T08:33:03Z</time>
      </trkpt>
      <trkpt lat="49.8325" lon="2.57846">
        <ele>56.8</ele>
        <time>2022-08-03T08:33:04Z</time>
      </trkpt>
      <trkpt lat="49.83251" lon="2.57846">
        <ele>56.8</ele>
        <time>2022-08-03T08:33:05Z</time>
      </trkpt>
      <trkpt lat="49.83252" lon="2.57846">
        <ele>56.9</ele>
        <time>2022-08-03T08:33:06Z</time>
      </trkpt>
      <trkpt lat="49.83253" lon="2.57847">
        <ele>56.9</ele>
        <time>2022-08-03T08:33:07Z</time>
      </trkpt>
      <trkpt lat="49.83254" lon="2.57847">
        <ele>56.9</ele>
        <time>2022-08-03T08:33:08Z</time>
      </trkpt>
      <trkpt lat="49.83256" lon="2.57847">
        <ele>57</ele>
        <time>2022-08-03T08:33:09Z</time>
      </trkpt>
      <trkpt lat="49.83257" lon="2.57848">
        <ele>57</ele>
        <time>2022-08-03T08:33:11Z</time>
      </trkpt>
      <trkpt lat="49.83258" lon="2.57848">
        <ele>57.1</ele>
        <time>2022-08-03T08:33:12Z</time>
      </trkpt>
      <trkpt lat="49.83259" lon="2.57848">
        <ele>57.1</ele>
        <time>2022-08-03T08:33:13Z</time>
      </trkpt>
      <trkpt lat="49.83261" lon="2.57848">
        <ele>57.2</ele>
        <time>2022-08-03T08:33:14Z</time>
      </trkpt>
      <trkpt lat="49.83262" lon="2.57849">
        <ele>57.2</ele>
        <time>2022-08-03T08:33:15Z</time>
      </trkpt>
      <trkpt lat="49.83263" lon="2.57849">
        <ele>57.3</ele>
        <time>2022-08-03T08:33:16Z</time>
      </trkpt>
      <trkpt lat="49.83264" lon="2.57849">
        <ele>57.3</ele>
        <time>2022-08-03T08:33:17Z</time>
      </trkpt>
      <trkpt lat="49.83265" lon="2.5785">
        <ele>57.4</ele>
        <time>2022-08-03T08:33:18Z</time>
      </trkpt>
      <trkpt lat="49.83268" lon="2.57851">
        <ele>57.5</ele>
        <time>2022-08-03T08:33:20Z</time>
      </trkpt>
      <trkpt lat="49.83268" lon="2.57851">
        <ele>57.5</ele>
        <time>2022-08-03T08:33:21Z</time>
      </trkpt>
      <trkpt lat="49.83269" lon="2.57851">
        <ele>57.5</ele>
        <time>2022-08-03T08:33:22Z</time>
      </trkpt>
      <trkpt lat="49.8327" lon="2.57852">
        <ele>57.6</ele>
        <time>2022-08-03T08:33:23Z</time>
      </trkpt>
      <trkpt lat="49.83272" lon="2.57853">
        <ele>57.7</ele>
        <time>2022-08-03T08:33:24Z</time>
      </trkpt>
      <trkpt lat="49.83273" lon="2.57853">
        <ele>57.7</ele>
        <time>2022-08-03T08:33:25Z</time>
      </trkpt>
      <trkpt lat="49.83274" lon="2.57854">
        <ele>57.7</ele>
        <time>2022-08-03T08:33:26Z</time>
      </trkpt>
      <trkpt lat="49.83275" lon="2.57855">
        <ele>57.8</ele>
        <time>2022-08-03T08:33:27Z</time>
      </trkpt>
      <trkpt lat="49.83276" lon="2.57855">
        <ele>57.8</ele>
        <time>2022-08-03T08:33:29Z</time>
      </trkpt>
      <trkpt lat="49.83277" lon="2.57856">
        <ele>57.9</ele>
        <time>2022-08-03T08:33:30Z</time>
      </trkpt>
      <trkpt lat="49.83278" lon="2.57856">
        <ele>57.9</ele>
        <time>2022-08-03T08:33:31Z</time>
      </trkpt>
      <trkpt lat="49.8328" lon="2.57857">
        <ele>58</ele>
        <time>2022-08-03T08:33:32Z</time>
      </trkpt>
      <trkpt lat="49.83281" lon="2.57857">
        <ele>58.1</ele>
        <time>2022-08-03T08:33:33Z</time>
      </trkpt>
      <trkpt lat="49.83282" lon="2.57858">
        <ele>58.1</ele>
        <time>2022-08-03T08:33:34Z</time>
      </trkpt>
      <trkpt lat="49.83283" lon="2.57859">
        <ele>58.2</ele>
        <time>2022-08-03T08:33:36Z</time>
      </trkpt>
      <trkpt lat="49.83284" lon="2.57859">
        <ele>58.2</ele>
        <time>2022-08-03T08:33:37Z</time>
      </trkpt>
      <trkpt lat="49.83285" lon="2.57859">
        <ele>58.3</ele>
        <time>2022-08-03T08:33:38Z</time>
      </trkpt>
      <trkpt lat="49.83287" lon="2.5786">
        <ele>58.3</ele>
        <time>2022-08-03T08:33:39Z</time>
      </trkpt>
      <trkpt lat="49.83288" lon="2.5786">
        <ele>58.4</ele>
        <time>2022-08-03T08:33:40Z</time>
      </trkpt>
      <trkpt lat="49.83288" lon="2.5786">
        <ele>58.4</ele>
        <time>2022-08-03T08:33:41Z</time>
      </trkpt>
      <trkpt lat="49.8329" lon="2.57862">
        <ele>58.5</ele>
        <time>2022-08-03T08:33:42Z</time>
      </trkpt>
      <trkpt lat="49.83291" lon="2.57862">
        <ele>58.5</ele>
        <time>2022-08-03T08:33:44Z</time>
      </trkpt>
      <trkpt lat="49.83292" lon="2.57863">
        <ele>58.6</ele>
        <time>2022-08-03T08:33:45Z</time>
      </trkpt>
      <trkpt lat="49.83293" lon="2.57864">
        <ele>58.6</ele>
        <time>2022-08-03T08:33:46Z</time>
      </trkpt>
      <trkpt lat="49.83294" lon="2.57864">
        <ele>58.7</ele>
        <time>2022-08-03T08:33:47Z</time>
      </trkpt>
      <trkpt lat="49.83295" lon="2.57865">
        <ele>58.7</ele>
        <time>2022-08-03T08:33:48Z</time>
      </trkpt>
      <trkpt lat="49.83296" lon="2.57866">
        <ele>58.8</ele>
        <time>2022-08-03T08:33:49Z</time>
      </trkpt>
      <trkpt lat="49.83296" lon="2.57866">
        <ele>58.8</ele>
        <time>2022-08-03T08:33:50Z</time>
      </trkpt>
      <trkpt lat="49.83297" lon="2.57867">
        <ele>58.9</ele>
        <time>2022-08-03T08:33:51Z</time>
      </trkpt>
      <trkpt lat="49.83298" lon="2.57867">
        <ele>58.9</ele>
        <time>2022-08-03T08:33:52Z</time>
      </trkpt>
      <trkpt lat="49.83299" lon="2.57868">
        <ele>59</ele>
        <time>2022-08-03T08:33:54Z</time>
      </trkpt>
      <trkpt lat="49.833" lon="2.57869">
        <ele>59</ele>
        <time>2022-08-03T08:33:55Z</time>
      </trkpt>
      <trkpt lat="49.83301" lon="2.57869">
        <ele>59</ele>
        <time>2022-08-03T08:33:56Z</time>
      </trkpt>
      <trkpt lat="49.83301" lon="2.57869">
        <ele>59.1</ele>
        <time>2022-08-03T08:33:57Z</time>
      </trkpt>
      <trkpt lat="49.83302" lon="2.5787">
        <ele>59.1</ele>
        <time>2022-08-03T08:33:58Z</time>
      </trkpt>
      <trkpt lat="49.83303" lon="2.57871">
        <ele>59.2</ele>
        <time>2022-08-03T08:33:59Z</time>
      </trkpt>
      <trkpt lat="49.83303" lon="2.57871">
        <ele>59.2</ele>
        <time>2022-08-03T08:34:00Z</time>
      </trkpt>
      <trkpt lat="49.83304" lon="2.57872">
        <ele>59.2</ele>
        <time>2022-08-03T08:34:02Z</time>
      </trkpt>
      <trkpt lat="49.83304" lon="2.57873">
        <ele>59.2</ele>
        <time>2022-08-03T08:34:03Z</time>
      </trkpt>
      <trkpt lat="49.83305" lon="2.57874">
        <ele>59.3</ele>
        <time>2022-08-03T08:34:04Z</time>
      </trkpt>
      <trkpt lat="49.83306" lon="2.57876">
        <ele>59.3</ele>
        <time>2022-08-03T08:34:05Z</time>
      </trkpt>
      <trkpt lat="49.83306" lon="2.57877">
        <ele>59.4</ele>
        <time>2022-08-03T08:34:06Z</time>
      </trkpt>
      <trkpt lat="49.83307" lon="2.57878">
        <ele>59.4</ele>
        <time>2022-08-03T08:34:07Z</time>
      </trkpt>
      <trkpt lat="49.83307" lon="2.57879">
        <ele>59.5</ele>
        <time>2022-08-03T08:34:08Z</time>
      </trkpt>
      <trkpt lat="49.83308" lon="2.57881">
        <ele>59.5</ele>
        <time>2022-08-03T08:34:09Z</time>
      </trkpt>
      <trkpt lat="49.83309" lon="2.57882">
        <ele>59.6</ele>
        <time>2022-08-03T08:34:11Z</time>
      </trkpt>
      <trkpt lat="49.8331" lon="2.57883">
        <ele>59.6</ele>
        <time>2022-08-03T08:34:12Z</time>
      </trkpt>
      <trkpt lat="49.83311" lon="2.57884">
        <ele>59.7</ele>
        <time>2022-08-03T08:34:13Z</time>
      </trkpt>
      <trkpt lat="49.83313" lon="2.57887">
        <ele>59.7</ele>
        <time>2022-08-03T08:34:15Z</time>
      </trkpt>
      <trkpt lat="49.83314" lon="2.57888">
        <ele>59.8</ele>
        <time>2022-08-03T08:34:16Z</time>
      </trkpt>
      <trkpt lat="49.83316" lon="2.57889">
        <ele>59.9</ele>
        <time>2022-08-03T08:34:17Z</time>
      </trkpt>
      <trkpt lat="49.83317" lon="2.5789">
        <ele>59.9</ele>
        <time>2022-08-03T08:34:18Z</time>
      </trkpt>
      <trkpt lat="49.83318" lon="2.57891">
        <ele>59.9</ele>
        <time>2022-08-03T08:34:19Z</time>
      </trkpt>
      <trkpt lat="49.83318" lon="2.57891">
        <ele>60</ele>
        <time>2022-08-03T08:34:20Z</time>
      </trkpt>
      <trkpt lat="49.83319" lon="2.57892">
        <ele>60</ele>
        <time>2022-08-03T08:34:21Z</time>
      </trkpt>
      <trkpt lat="49.8332" lon="2.57892">
        <ele>60</ele>
        <time>2022-08-03T08:34:23Z</time>
      </trkpt>
      <trkpt lat="49.83321" lon="2.57893">
        <ele>60.1</ele>
        <time>2022-08-03T08:34:24Z</time>
      </trkpt>
      <trkpt lat="49.83322" lon="2.57895">
        <ele>60.1</ele>
        <time>2022-08-03T08:34:25Z</time>
      </trkpt>
      <trkpt lat="49.83323" lon="2.57896">
        <ele>60.2</ele>
        <time>2022-08-03T08:34:26Z</time>
      </trkpt>
      <trkpt lat="49.83324" lon="2.57897">
        <ele>60.2</ele>
        <time>2022-08-03T08:34:27Z</time>
      </trkpt>
      <trkpt lat="49.83324" lon="2.57899">
        <ele>60.2</ele>
        <time>2022-08-03T08:34:28Z</time>
      </trkpt>
      <trkpt lat="49.83326" lon="2.57901">
        <ele>60.3</ele>
        <time>2022-08-03T08:34:30Z</time>
      </trkpt>
      <trkpt lat="49.83327" lon="2.57902">
        <ele>60.4</ele>
        <time>2022-08-03T08:34:31Z</time>
      </trkpt>
      <trkpt lat="49.83328" lon="2.57903">
        <ele>60.4</ele>
        <time>2022-08-03T08:34:32Z</time>
      </trkpt>
      <trkpt lat="49.83329" lon="2.57904">
        <ele>60.4</ele>
        <time>2022-08-03T08:34:33Z</time>
      </trkpt>
      <trkpt lat="49.8333" lon="2.57906">
        <ele>60.5</ele>
        <time>2022-08-03T08:34:34Z</time>
      </trkpt>
      <trkpt lat="49.83331" lon="2.57906">
        <ele>60.5</ele>
        <time>2022-08-03T08:34:35Z</time>
      </trkpt>
      <trkpt lat="49.83332" lon="2.57907">
        <ele>60.6</ele>
        <time>2022-08-03T08:34:36Z</time>
      </trkpt>
      <trkpt lat="49.83333" lon="2.57908">
        <ele>60.6</ele>
        <time>2022-08-03T08:34:38Z</time>
      </trkpt>
      <trkpt lat="49.83334" lon="2.57909">
        <ele>60.7</ele>
        <time>2022-08-03T08:34:39Z</time>
      </trkpt>
      <trkpt lat="49.83335" lon="2.5791">
        <ele>60.7</ele>
        <time>2022-08-03T08:34:40Z</time>
      </trkpt>
      <trkpt lat="49.83336" lon="2.57911">
        <ele>60.8</ele>
        <time>2022-08-03T08:34:41Z</time>
      </trkpt>
      <trkpt lat="49.83338" lon="2.57913">
        <ele>60.8</ele>
        <time>2022-08-03T08:34:42Z</time>
      </trkpt>
      <trkpt lat="49.83339" lon="2.57914">
        <ele>60.9</ele>
        <time>2022-08-03T08:34:43Z</time>
      </trkpt>
      <trkpt lat="49.83339" lon="2.57915">
        <ele>60.9</ele>
        <time>2022-08-03T08:34:44Z</time>
      </trkpt>
      <trkpt lat="49.8334" lon="2.57915">
        <ele>60.9</ele>
        <time>2022-08-03T08:34:45Z</time>
      </trkpt>
      <trkpt lat="49.8334" lon="2.57916">
        <ele>60.9</ele>
        <time>2022-08-03T08:34:47Z</time>
      </trkpt>
      <trkpt lat="49.83341" lon="2.57916">
        <ele>61</ele>
        <time>2022-08-03T08:34:48Z</time>
      </trkpt>
      <trkpt lat="49.83341" lon="2.57916">
        <ele>61</ele>
        <time>2022-08-03T08:34:49Z</time>
      </trkpt>
      <trkpt lat="49.83342" lon="2.57917">
        <ele>61</ele>
        <time>2022-08-03T08:34:50Z</time>
      </trkpt>
      <trkpt lat="49.83343" lon="2.57918">
        <ele>61.1</ele>
        <time>2022-08-03T08:34:51Z</time>
      </trkpt>
      <trkpt lat="49.83344" lon="2.57918">
        <ele>61.1</ele>
        <time>2022-08-03T08:34:52Z</time>
      </trkpt>
      <trkpt lat="49.83345" lon="2.57919">
        <ele>61.1</ele>
        <time>2022-08-03T08:34:53Z</time>
      </trkpt>
      <trkpt lat="49.83346" lon="2.5792">
        <ele>61.2</ele>
        <time>2022-08-03T08:34:55Z</time>
      </trkpt>
      <trkpt lat="49.83347" lon="2.57921">
        <ele>61.2</ele>
        <time>2022-08-03T08:34:56Z</time>
      </trkpt>
      <trkpt lat="49.83348" lon="2.57922">
        <ele>61.2</ele>
        <time>2022-08-03T08:34:57Z</time>
      </trkpt>
      <trkpt lat="49.83349" lon="2.57924">
        <ele>61.3</ele>
        <time>2022-08-03T08:34:58Z</time>
      </trkpt>
      <trkpt lat="49.8335" lon="2.57924">
        <ele>61.3</ele>
        <time>2022-08-03T08:34:59Z</time>
      </trkpt>
      <trkpt lat="49.83351" lon="2.57925">
        <ele>61.4</ele>
        <time>2022-08-03T08:35:00Z</time>
      </trkpt>
      <trkpt lat="49.83352" lon="2.57926">
        <ele>61.4</ele>
        <time>2022-08-03T08:35:01Z</time>
      </trkpt>
      <trkpt lat="49.83353" lon="2.57927">
        <ele>61.4</ele>
        <time>2022-08-03T08:35:02Z</time>
      </trkpt>
      <trkpt lat="49.83353" lon="2.57928">
        <ele>61.4</ele>
        <time>2022-08-03T08:35:03Z</time>
      </trkpt>
      <trkpt lat="49.83355" lon="2.57929">
        <ele>61.5</ele>
        <time>2022-08-03T08:35:04Z</time>
      </trkpt>
      <trkpt lat="49.83356" lon="2.5793">
        <ele>61.5</ele>
        <time>2022-08-03T08:35:06Z</time>
      </trkpt>
      <trkpt lat="49.83357" lon="2.57931">
        <ele>61.6</ele>
        <time>2022-08-03T08:35:07Z</time>
      </trkpt>
      <trkpt lat="49.83358" lon="2.57932">
        <ele>61.6</ele>
        <time>2022-08-03T08:35:08Z</time>
      </trkpt>
      <trkpt lat="49.83359" lon="2.57934">
        <ele>61.7</ele>
        <time>2022-08-03T08:35:10Z</time>
      </trkpt>
      <trkpt lat="49.83359" lon="2.57936">
        <ele>61.7</ele>
        <time>2022-08-03T08:35:11Z</time>
      </trkpt>
      <trkpt lat="49.8336" lon="2.57937">
        <ele>61.7</ele>
        <time>2022-08-03T08:35:12Z</time>
      </trkpt>
      <trkpt lat="49.83361" lon="2.57938">
        <ele>61.8</ele>
        <time>2022-08-03T08:35:13Z</time>
      </trkpt>
      <trkpt lat="49.83363" lon="2.57942">
        <ele>61.8</ele>
        <time>2022-08-03T08:35:15Z</time>
      </trkpt>
      <trkpt lat="49.83363" lon="2.57943">
        <ele>61.9</ele>
        <time>2022-08-03T08:35:16Z</time>
      </trkpt>
      <trkpt lat="49.83365" lon="2.57945">
        <ele>61.9</ele>
        <time>2022-08-03T08:35:18Z</time>
      </trkpt>
      <trkpt lat="49.83365" lon="2.57946">
        <ele>62</ele>
        <time>2022-08-03T08:35:19Z</time>
      </trkpt>
      <trkpt lat="49.83366" lon="2.57947">
        <ele>62</ele>
        <time>2022-08-03T08:35:20Z</time>
      </trkpt>
      <trkpt lat="49.83367" lon="2.57948">
        <ele>62</ele>
        <time>2022-08-03T08:35:21Z</time>
      </trkpt>
      <trkpt lat="49.83368" lon="2.57949">
        <ele>62</ele>
        <time>2022-08-03T08:35:22Z</time>
      </trkpt>
      <trkpt lat="49.83369" lon="2.5795">
        <ele>62.1</ele>
        <time>2022-08-03T08:35:23Z</time>
      </trkpt>
      <trkpt lat="49.8337" lon="2.57952">
        <ele>62.2</ele>
        <time>2022-08-03T08:35:25Z</time>
      </trkpt>
      <trkpt lat="49.83371" lon="2.57953">
        <ele>62.2</ele>
        <time>2022-08-03T08:35:26Z</time>
      </trkpt>
      <trkpt lat="49.83373" lon="2.57955">
        <ele>62.2</ele>
        <time>2022-08-03T08:35:27Z</time>
      </trkpt>
      <trkpt lat="49.83374" lon="2.57955">
        <ele>62.3</ele>
        <time>2022-08-03T08:35:28Z</time>
      </trkpt>
      <trkpt lat="49.83374" lon="2.57956">
        <ele>62.3</ele>
        <time>2022-08-03T08:35:29Z</time>
      </trkpt>
      <trkpt lat="49.83376" lon="2.57957">
        <ele>62.3</ele>
        <time>2022-08-03T08:35:30Z</time>
      </trkpt>
      <trkpt lat="49.83377" lon="2.57958">
        <ele>62.4</ele>
        <time>2022-08-03T08:35:31Z</time>
      </trkpt>
      <trkpt lat="49.83379" lon="2.5796">
        <ele>62.4</ele>
        <time>2022-08-03T08:35:32Z</time>
      </trkpt>
      <trkpt lat="49.83379" lon="2.5796">
        <ele>62.5</ele>
        <time>2022-08-03T08:35:33Z</time>
      </trkpt>
      <trkpt lat="49.8338" lon="2.57961">
        <ele>62.5</ele>
        <time>2022-08-03T08:35:34Z</time>
      </trkpt>
      <trkpt lat="49.83381" lon="2.57962">
        <ele>62.5</ele>
        <time>2022-08-03T08:35:35Z</time>
      </trkpt>
      <trkpt lat="49.83382" lon="2.57963">
        <ele>62.6</ele>
        <time>2022-08-03T08:35:36Z</time>
      </trkpt>
      <trkpt lat="49.83383" lon="2.57964">
        <ele>62.6</ele>
        <time>2022-08-03T08:35:38Z</time>
      </trkpt>
      <trkpt lat="49.83384" lon="2.57966">
        <ele>62.7</ele>
        <time>2022-08-03T08:35:39Z</time>
      </trkpt>
      <trkpt lat="49.83385" lon="2.57967">
        <ele>62.7</ele>
        <time>2022-08-03T08:35:40Z</time>
      </trkpt>
      <trkpt lat="49.83386" lon="2.57968">
        <ele>62.7</ele>
        <time>2022-08-03T08:35:41Z</time>
      </trkpt>
      <trkpt lat="49.83387" lon="2.57969">
        <ele>62.8</ele>
        <time>2022-08-03T08:35:42Z</time>
      </trkpt>
      <trkpt lat="49.83388" lon="2.5797">
        <ele>62.8</ele>
        <time>2022-08-03T08:35:43Z</time>
      </trkpt>
      <trkpt lat="49.83389" lon="2.57971">
        <ele>62.9</ele>
        <time>2022-08-03T08:35:44Z</time>
      </trkpt>
      <trkpt lat="49.8339" lon="2.57973">
        <ele>62.9</ele>
        <time>2022-08-03T08:35:45Z</time>
      </trkpt>
      <trkpt lat="49.8339" lon="2.57974">
        <ele>63</ele>
        <time>2022-08-03T08:35:46Z</time>
      </trkpt>
      <trkpt lat="49.83391" lon="2.57975">
        <ele>63</ele>
        <time>2022-08-03T08:35:47Z</time>
      </trkpt>
      <trkpt lat="49.83392" lon="2.57976">
        <ele>63.1</ele>
        <time>2022-08-03T08:35:49Z</time>
      </trkpt>
      <trkpt lat="49.83392" lon="2.57977">
        <ele>63.1</ele>
        <time>2022-08-03T08:35:50Z</time>
      </trkpt>
      <trkpt lat="49.83392" lon="2.57978">
        <ele>63.1</ele>
        <time>2022-08-03T08:35:51Z</time>
      </trkpt>
      <trkpt lat="49.83394" lon="2.5798">
        <ele>63.2</ele>
        <time>2022-08-03T08:35:52Z</time>
      </trkpt>
      <trkpt lat="49.83394" lon="2.5798">
        <ele>63.3</ele>
        <time>2022-08-03T08:35:53Z</time>
      </trkpt>
      <trkpt lat="49.83395" lon="2.57981">
        <ele>63.3</ele>
        <time>2022-08-03T08:35:54Z</time>
      </trkpt>
      <trkpt lat="49.83396" lon="2.57983">
        <ele>63.4</ele>
        <time>2022-08-03T08:35:56Z</time>
      </trkpt>
      <trkpt lat="49.83397" lon="2.57984">
        <ele>63.4</ele>
        <time>2022-08-03T08:35:57Z</time>
      </trkpt>
      <trkpt lat="49.83399" lon="2.57986">
        <ele>63.5</ele>
        <time>2022-08-03T08:35:58Z</time>
      </trkpt>
      <trkpt lat="49.834" lon="2.57987">
        <ele>63.6</ele>
        <time>2022-08-03T08:35:59Z</time>
      </trkpt>
      <trkpt lat="49.83401" lon="2.57988">
        <ele>63.6</ele>
        <time>2022-08-03T08:36:00Z</time>
      </trkpt>
      <trkpt lat="49.83402" lon="2.57988">
        <ele>63.7</ele>
        <time>2022-08-03T08:36:01Z</time>
      </trkpt>
      <trkpt lat="49.83403" lon="2.57989">
        <ele>63.7</ele>
        <time>2022-08-03T08:36:02Z</time>
      </trkpt>
      <trkpt lat="49.83404" lon="2.5799">
        <ele>63.8</ele>
        <time>2022-08-03T08:36:03Z</time>
      </trkpt>
      <trkpt lat="49.83405" lon="2.57991">
        <ele>63.8</ele>
        <time>2022-08-03T08:36:04Z</time>
      </trkpt>
      <trkpt lat="49.83407" lon="2.57992">
        <ele>63.9</ele>
        <time>2022-08-03T08:36:05Z</time>
      </trkpt>
      <trkpt lat="49.83408" lon="2.57992">
        <ele>63.9</ele>
        <time>2022-08-03T08:36:06Z</time>
      </trkpt>
      <trkpt lat="49.83409" lon="2.57993">
        <ele>64</ele>
        <time>2022-08-03T08:36:07Z</time>
      </trkpt>
      <trkpt lat="49.8341" lon="2.57994">
        <ele>64</ele>
        <time>2022-08-03T08:36:09Z</time>
      </trkpt>
      <trkpt lat="49.83411" lon="2.57995">
        <ele>64.1</ele>
        <time>2022-08-03T08:36:10Z</time>
      </trkpt>
      <trkpt lat="49.83411" lon="2.57994">
        <ele>64.1</ele>
        <time>2022-08-03T08:36:11Z</time>
      </trkpt>
      <trkpt lat="49.83412" lon="2.57995">
        <ele>64.1</ele>
        <time>2022-08-03T08:36:12Z</time>
      </trkpt>
      <trkpt lat="49.83413" lon="2.57995">
        <ele>64.2</ele>
        <time>2022-08-03T08:36:13Z</time>
      </trkpt>
      <trkpt lat="49.83414" lon="2.57996">
        <ele>64.2</ele>
        <time>2022-08-03T08:36:14Z</time>
      </trkpt>
      <trkpt lat="49.83416" lon="2.57997">
        <ele>64.3</ele>
        <time>2022-08-03T08:36:15Z</time>
      </trkpt>
      <trkpt lat="49.83416" lon="2.57997">
        <ele>64.3</ele>
        <time>2022-08-03T08:36:16Z</time>
      </trkpt>
      <trkpt lat="49.83417" lon="2.57997">
        <ele>64.3</ele>
        <time>2022-08-03T08:36:17Z</time>
      </trkpt>
      <trkpt lat="49.83418" lon="2.57998">
        <ele>64.3</ele>
        <time>2022-08-03T08:36:18Z</time>
      </trkpt>
      <trkpt lat="49.83419" lon="2.57998">
        <ele>64.4</ele>
        <time>2022-08-03T08:36:20Z</time>
      </trkpt>
      <trkpt lat="49.8342" lon="2.57999">
        <ele>64.5</ele>
        <time>2022-08-03T08:36:21Z</time>
      </trkpt>
      <trkpt lat="49.83422" lon="2.57999">
        <ele>64.5</ele>
        <time>2022-08-03T08:36:22Z</time>
      </trkpt>
      <trkpt lat="49.83423" lon="2.57999">
        <ele>64.5</ele>
        <time>2022-08-03T08:36:23Z</time>
      </trkpt>
      <trkpt lat="49.83423" lon="2.57999">
        <ele>64.6</ele>
        <time>2022-08-03T08:36:24Z</time>
      </trkpt>
      <trkpt lat="49.83425" lon="2.57999">
        <ele>64.6</ele>
        <time>2022-08-03T08:36:26Z</time>
      </trkpt>
      <trkpt lat="49.83426" lon="2.57999">
        <ele>64.7</ele>
        <time>2022-08-03T08:36:27Z</time>
      </trkpt>
      <trkpt lat="49.83427" lon="2.58">
        <ele>64.7</ele>
        <time>2022-08-03T08:36:28Z</time>
      </trkpt>
      <trkpt lat="49.83428" lon="2.58">
        <ele>64.8</ele>
        <time>2022-08-03T08:36:29Z</time>
      </trkpt>
      <trkpt lat="49.8343" lon="2.58001">
        <ele>64.8</ele>
        <time>2022-08-03T08:36:30Z</time>
      </trkpt>
      <trkpt lat="49.83431" lon="2.58001">
        <ele>64.9</ele>
        <time>2022-08-03T08:36:31Z</time>
      </trkpt>
      <trkpt lat="49.83433" lon="2.58002">
        <ele>65</ele>
        <time>2022-08-03T08:36:32Z</time>
      </trkpt>
      <trkpt lat="49.83434" lon="2.58002">
        <ele>65</ele>
        <time>2022-08-03T08:36:33Z</time>
      </trkpt>
      <trkpt lat="49.83435" lon="2.58002">
        <ele>65.1</ele>
        <time>2022-08-03T08:36:34Z</time>
      </trkpt>
      <trkpt lat="49.83437" lon="2.58003">
        <ele>65.2</ele>
        <time>2022-08-03T08:36:36Z</time>
      </trkpt>
      <trkpt lat="49.83439" lon="2.58004">
        <ele>65.2</ele>
        <time>2022-08-03T08:36:37Z</time>
      </trkpt>
      <trkpt lat="49.8344" lon="2.58005">
        <ele>65.3</ele>
        <time>2022-08-03T08:36:38Z</time>
      </trkpt>
      <trkpt lat="49.83441" lon="2.58005">
        <ele>65.3</ele>
        <time>2022-08-03T08:36:39Z</time>
      </trkpt>
      <trkpt lat="49.83443" lon="2.58006">
        <ele>65.4</ele>
        <time>2022-08-03T08:36:40Z</time>
      </trkpt>
      <trkpt lat="49.83445" lon="2.58006">
        <ele>65.5</ele>
        <time>2022-08-03T08:36:41Z</time>
      </trkpt>
      <trkpt lat="49.83447" lon="2.58007">
        <ele>65.6</ele>
        <time>2022-08-03T08:36:42Z</time>
      </trkpt>
      <trkpt lat="49.83448" lon="2.58008">
        <ele>65.6</ele>
        <time>2022-08-03T08:36:43Z</time>
      </trkpt>
      <trkpt lat="49.83449" lon="2.58008">
        <ele>65.6</ele>
        <time>2022-08-03T08:36:44Z</time>
      </trkpt>
      <trkpt lat="49.83451" lon="2.58009">
        <ele>65.7</ele>
        <time>2022-08-03T08:36:45Z</time>
      </trkpt>
      <trkpt lat="49.83452" lon="2.58009">
        <ele>65.7</ele>
        <time>2022-08-03T08:36:46Z</time>
      </trkpt>
      <trkpt lat="49.83453" lon="2.58009">
        <ele>65.8</ele>
        <time>2022-08-03T08:36:47Z</time>
      </trkpt>
      <trkpt lat="49.83454" lon="2.58009">
        <ele>65.8</ele>
        <time>2022-08-03T08:36:49Z</time>
      </trkpt>
      <trkpt lat="49.83455" lon="2.58009">
        <ele>65.9</ele>
        <time>2022-08-03T08:36:50Z</time>
      </trkpt>
      <trkpt lat="49.83457" lon="2.58009">
        <ele>65.9</ele>
        <time>2022-08-03T08:36:51Z</time>
      </trkpt>
      <trkpt lat="49.83458" lon="2.58008">
        <ele>66</ele>
        <time>2022-08-03T08:36:52Z</time>
      </trkpt>
      <trkpt lat="49.83459" lon="2.58008">
        <ele>66</ele>
        <time>2022-08-03T08:36:53Z</time>
      </trkpt>
      <trkpt lat="49.8346" lon="2.58008">
        <ele>66</ele>
        <time>2022-08-03T08:36:54Z</time>
      </trkpt>
      <trkpt lat="49.83462" lon="2.58008">
        <ele>66.1</ele>
        <time>2022-08-03T08:36:55Z</time>
      </trkpt>
      <trkpt lat="49.83462" lon="2.58008">
        <ele>66.1</ele>
        <time>2022-08-03T08:36:56Z</time>
      </trkpt>
      <trkpt lat="49.83464" lon="2.58008">
        <ele>66.2</ele>
        <time>2022-08-03T08:36:57Z</time>
      </trkpt>
      <trkpt lat="49.83465" lon="2.58008">
        <ele>66.2</ele>
        <time>2022-08-03T08:36:58Z</time>
      </trkpt>
      <trkpt lat="49.83466" lon="2.58008">
        <ele>66.3</ele>
        <time>2022-08-03T08:37:00Z</time>
      </trkpt>
      <trkpt lat="49.83468" lon="2.58008">
        <ele>66.3</ele>
        <time>2022-08-03T08:37:01Z</time>
      </trkpt>
      <trkpt lat="49.83468" lon="2.58007">
        <ele>66.3</ele>
        <time>2022-08-03T08:37:02Z</time>
      </trkpt>
      <trkpt lat="49.83469" lon="2.58007">
        <ele>66.4</ele>
        <time>2022-08-03T08:37:03Z</time>
      </trkpt>
      <trkpt lat="49.83471" lon="2.58007">
        <ele>66.4</ele>
        <time>2022-08-03T08:37:04Z</time>
      </trkpt>
      <trkpt lat="49.83472" lon="2.58007">
        <ele>66.5</ele>
        <time>2022-08-03T08:37:05Z</time>
      </trkpt>
      <trkpt lat="49.83473" lon="2.58006">
        <ele>66.5</ele>
        <time>2022-08-03T08:37:06Z</time>
      </trkpt>
      <trkpt lat="49.83474" lon="2.58005">
        <ele>66.6</ele>
        <time>2022-08-03T08:37:07Z</time>
      </trkpt>
      <trkpt lat="49.83475" lon="2.58004">
        <ele>66.6</ele>
        <time>2022-08-03T08:37:08Z</time>
      </trkpt>
      <trkpt lat="49.83476" lon="2.58003">
        <ele>66.6</ele>
        <time>2022-08-03T08:37:09Z</time>
      </trkpt>
      <trkpt lat="49.83478" lon="2.58002">
        <ele>66.7</ele>
        <time>2022-08-03T08:37:10Z</time>
      </trkpt>
      <trkpt lat="49.83479" lon="2.58001">
        <ele>66.7</ele>
        <time>2022-08-03T08:37:12Z</time>
      </trkpt>
      <trkpt lat="49.8348" lon="2.58">
        <ele>66.8</ele>
        <time>2022-08-03T08:37:13Z</time>
      </trkpt>
      <trkpt lat="49.83481" lon="2.58">
        <ele>66.8</ele>
        <time>2022-08-03T08:37:14Z</time>
      </trkpt>
      <trkpt lat="49.83482" lon="2.57999">
        <ele>66.9</ele>
        <time>2022-08-03T08:37:15Z</time>
      </trkpt>
      <trkpt lat="49.83483" lon="2.57999">
        <ele>66.9</ele>
        <time>2022-08-03T08:37:16Z</time>
      </trkpt>
      <trkpt lat="49.83484" lon="2.57999">
        <ele>66.9</ele>
        <time>2022-08-03T08:37:17Z</time>
      </trkpt>
      <trkpt lat="49.83485" lon="2.57998">
        <ele>67</ele>
        <time>2022-08-03T08:37:18Z</time>
      </trkpt>
      <trkpt lat="49.83487" lon="2.57998">
        <ele>67</ele>
        <time>2022-08-03T08:37:19Z</time>
      </trkpt>
      <trkpt lat="49.83488" lon="2.57998">
        <ele>67.1</ele>
        <time>2022-08-03T08:37:20Z</time>
      </trkpt>
      <trkpt lat="49.83488" lon="2.57998">
        <ele>67.1</ele>
        <time>2022-08-03T08:37:22Z</time>
      </trkpt>
      <trkpt lat="49.83489" lon="2.57998">
        <ele>67.1</ele>
        <time>2022-08-03T08:37:23Z</time>
      </trkpt>
      <trkpt lat="49.8349" lon="2.57998">
        <ele>67.2</ele>
        <time>2022-08-03T08:37:24Z</time>
      </trkpt>
      <trkpt lat="49.83491" lon="2.57998">
        <ele>67.2</ele>
        <time>2022-08-03T08:37:25Z</time>
      </trkpt>
      <trkpt lat="49.83492" lon="2.57998">
        <ele>67.2</ele>
        <time>2022-08-03T08:37:26Z</time>
      </trkpt>
      <trkpt lat="49.83493" lon="2.57998">
        <ele>67.3</ele>
        <time>2022-08-03T08:37:27Z</time>
      </trkpt>
      <trkpt lat="49.83494" lon="2.57998">
        <ele>67.3</ele>
        <time>2022-08-03T08:37:28Z</time>
      </trkpt>
      <trkpt lat="49.83495" lon="2.57998">
        <ele>67.3</ele>
        <time>2022-08-03T08:37:29Z</time>
      </trkpt>
      <trkpt lat="49.83496" lon="2.57998">
        <ele>67.4</ele>
        <time>2022-08-03T08:37:30Z</time>
      </trkpt>
      <trkpt lat="49.83497" lon="2.57998">
        <ele>67.4</ele>
        <time>2022-08-03T08:37:32Z</time>
      </trkpt>
      <trkpt lat="49.83498" lon="2.57998">
        <ele>67.5</ele>
        <time>2022-08-03T08:37:33Z</time>
      </trkpt>
      <trkpt lat="49.835" lon="2.57998">
        <ele>67.5</ele>
        <time>2022-08-03T08:37:34Z</time>
      </trkpt>
      <trkpt lat="49.83501" lon="2.57998">
        <ele>67.6</ele>
        <time>2022-08-03T08:37:35Z</time>
      </trkpt>
      <trkpt lat="49.83502" lon="2.57998">
        <ele>67.6</ele>
        <time>2022-08-03T08:37:36Z</time>
      </trkpt>
      <trkpt lat="49.83503" lon="2.57998">
        <ele>67.7</ele>
        <time>2022-08-03T08:37:37Z</time>
      </trkpt>
      <trkpt lat="49.83504" lon="2.57998">
        <ele>67.7</ele>
        <time>2022-08-03T08:37:38Z</time>
      </trkpt>
      <trkpt lat="49.83506" lon="2.57998">
        <ele>67.8</ele>
        <time>2022-08-03T08:37:39Z</time>
      </trkpt>
      <trkpt lat="49.83508" lon="2.57998">
        <ele>67.9</ele>
        <time>2022-08-03T08:37:41Z</time>
      </trkpt>
      <trkpt lat="49.83509" lon="2.57998">
        <ele>67.9</ele>
        <time>2022-08-03T08:37:42Z</time>
      </trkpt>
      <trkpt lat="49.83509" lon="2.57998">
        <ele>67.9</ele>
        <time>2022-08-03T08:37:43Z</time>
      </trkpt>
      <trkpt lat="49.8351" lon="2.57998">
        <ele>68</ele>
        <time>2022-08-03T08:37:44Z</time>
      </trkpt>
      <trkpt lat="49.83511" lon="2.57998">
        <ele>68</ele>
        <time>2022-08-03T08:37:45Z</time>
      </trkpt>
      <trkpt lat="49.83513" lon="2.57997">
        <ele>68.1</ele>
        <time>2022-08-03T08:37:46Z</time>
      </trkpt>
      <trkpt lat="49.83514" lon="2.57997">
        <ele>68.1</ele>
        <time>2022-08-03T08:37:47Z</time>
      </trkpt>
      <trkpt lat="49.83515" lon="2.57997">
        <ele>68.2</ele>
        <time>2022-08-03T08:37:48Z</time>
      </trkpt>
      <trkpt lat="49.83516" lon="2.57997">
        <ele>68.3</ele>
        <time>2022-08-03T08:37:49Z</time>
      </trkpt>
      <trkpt lat="49.83517" lon="2.57997">
        <ele>68.3</ele>
        <time>2022-08-03T08:37:50Z</time>
      </trkpt>
      <trkpt lat="49.83519" lon="2.57998">
        <ele>68.4</ele>
        <time>2022-08-03T08:37:51Z</time>
      </trkpt>
      <trkpt lat="49.8352" lon="2.57998">
        <ele>68.4</ele>
        <time>2022-08-03T08:37:52Z</time>
      </trkpt>
      <trkpt lat="49.83521" lon="2.57998">
        <ele>68.5</ele>
        <time>2022-08-03T08:37:53Z</time>
      </trkpt>
      <trkpt lat="49.83522" lon="2.57998">
        <ele>68.5</ele>
        <time>2022-08-03T08:37:55Z</time>
      </trkpt>
      <trkpt lat="49.83524" lon="2.57998">
        <ele>68.6</ele>
        <time>2022-08-03T08:37:56Z</time>
      </trkpt>
      <trkpt lat="49.83524" lon="2.57998">
        <ele>68.6</ele>
        <time>2022-08-03T08:37:57Z</time>
      </trkpt>
      <trkpt lat="49.83525" lon="2.57999">
        <ele>68.7</ele>
        <time>2022-08-03T08:37:58Z</time>
      </trkpt>
      <trkpt lat="49.83527" lon="2.57999">
        <ele>68.7</ele>
        <time>2022-08-03T08:37:59Z</time>
      </trkpt>
      <trkpt lat="49.83528" lon="2.57999">
        <ele>68.8</ele>
        <time>2022-08-03T08:38:00Z</time>
      </trkpt>
      <trkpt lat="49.83529" lon="2.58">
        <ele>68.9</ele>
        <time>2022-08-03T08:38:01Z</time>
      </trkpt>
      <trkpt lat="49.8353" lon="2.58">
        <ele>68.9</ele>
        <time>2022-08-03T08:38:02Z</time>
      </trkpt>
      <trkpt lat="49.83531" lon="2.58">
        <ele>69</ele>
        <time>2022-08-03T08:38:03Z</time>
      </trkpt>
      <trkpt lat="49.83532" lon="2.58001">
        <ele>69</ele>
        <time>2022-08-03T08:38:04Z</time>
      </trkpt>
      <trkpt lat="49.83533" lon="2.58001">
        <ele>69.1</ele>
        <time>2022-08-03T08:38:06Z</time>
      </trkpt>
      <trkpt lat="49.83535" lon="2.58002">
        <ele>69.1</ele>
        <time>2022-08-03T08:38:07Z</time>
      </trkpt>
      <trkpt lat="49.83535" lon="2.58003">
        <ele>69.2</ele>
        <time>2022-08-03T08:38:08Z</time>
      </trkpt>
      <trkpt lat="49.83536" lon="2.58003">
        <ele>69.2</ele>
        <time>2022-08-03T08:38:09Z</time>
      </trkpt>
      <trkpt lat="49.83537" lon="2.58004">
        <ele>69.3</ele>
        <time>2022-08-03T08:38:10Z</time>
      </trkpt>
      <trkpt lat="49.83539" lon="2.58005">
        <ele>69.3</ele>
        <time>2022-08-03T08:38:12Z</time>
      </trkpt>
      <trkpt lat="49.8354" lon="2.58005">
        <ele>69.4</ele>
        <time>2022-08-03T08:38:13Z</time>
      </trkpt>
      <trkpt lat="49.83543" lon="2.58005">
        <ele>69.5</ele>
        <time>2022-08-03T08:38:14Z</time>
      </trkpt>
      <trkpt lat="49.83544" lon="2.58006">
        <ele>69.5</ele>
        <time>2022-08-03T08:38:15Z</time>
      </trkpt>
      <trkpt lat="49.83545" lon="2.58006">
        <ele>69.6</ele>
        <time>2022-08-03T08:38:16Z</time>
      </trkpt>
      <trkpt lat="49.83546" lon="2.58006">
        <ele>69.6</ele>
        <time>2022-08-03T08:38:17Z</time>
      </trkpt>
      <trkpt lat="49.83547" lon="2.58006">
        <ele>69.7</ele>
        <time>2022-08-03T08:38:18Z</time>
      </trkpt>
      <trkpt lat="49.83548" lon="2.58006">
        <ele>69.7</ele>
        <time>2022-08-03T08:38:19Z</time>
      </trkpt>
      <trkpt lat="49.8355" lon="2.58006">
        <ele>69.8</ele>
        <time>2022-08-03T08:38:20Z</time>
      </trkpt>
      <trkpt lat="49.83551" lon="2.58006">
        <ele>69.8</ele>
        <time>2022-08-03T08:38:21Z</time>
      </trkpt>
      <trkpt lat="49.83552" lon="2.58006">
        <ele>69.8</ele>
        <time>2022-08-03T08:38:22Z</time>
      </trkpt>
      <trkpt lat="49.83553" lon="2.58006">
        <ele>69.9</ele>
        <time>2022-08-03T08:38:23Z</time>
      </trkpt>
      <trkpt lat="49.83555" lon="2.58006">
        <ele>69.9</ele>
        <time>2022-08-03T08:38:25Z</time>
      </trkpt>
      <trkpt lat="49.83556" lon="2.58006">
        <ele>70</ele>
        <time>2022-08-03T08:38:26Z</time>
      </trkpt>
      <trkpt lat="49.83558" lon="2.58005">
        <ele>70</ele>
        <time>2022-08-03T08:38:27Z</time>
      </trkpt>
      <trkpt lat="49.83559" lon="2.58004">
        <ele>70.1</ele>
        <time>2022-08-03T08:38:28Z</time>
      </trkpt>
      <trkpt lat="49.83561" lon="2.58003">
        <ele>70.1</ele>
        <time>2022-08-03T08:38:29Z</time>
      </trkpt>
      <trkpt lat="49.83563" lon="2.58">
        <ele>70.2</ele>
        <time>2022-08-03T08:38:30Z</time>
      </trkpt>
      <trkpt lat="49.83564" lon="2.58">
        <ele>70.3</ele>
        <time>2022-08-03T08:38:31Z</time>
      </trkpt>
      <trkpt lat="49.83564" lon="2.57999">
        <ele>70.3</ele>
        <time>2022-08-03T08:38:32Z</time>
      </trkpt>
      <trkpt lat="49.83566" lon="2.57998">
        <ele>70.4</ele>
        <time>2022-08-03T08:38:33Z</time>
      </trkpt>
      <trkpt lat="49.83567" lon="2.57997">
        <ele>70.4</ele>
        <time>2022-08-03T08:38:35Z</time>
      </trkpt>
      <trkpt lat="49.83568" lon="2.57997">
        <ele>70.5</ele>
        <time>2022-08-03T08:38:36Z</time>
      </trkpt>
      <trkpt lat="49.8357" lon="2.57997">
        <ele>70.5</ele>
        <time>2022-08-03T08:38:37Z</time>
      </trkpt>
      <trkpt lat="49.83572" lon="2.57997">
        <ele>70.6</ele>
        <time>2022-08-03T08:38:38Z</time>
      </trkpt>
      <trkpt lat="49.83573" lon="2.57997">
        <ele>70.6</ele>
        <time>2022-08-03T08:38:39Z</time>
      </trkpt>
      <trkpt lat="49.83574" lon="2.57997">
        <ele>70.6</ele>
        <time>2022-08-03T08:38:40Z</time>
      </trkpt>
      <trkpt lat="49.83576" lon="2.57997">
        <ele>70.7</ele>
        <time>2022-08-03T08:38:41Z</time>
      </trkpt>
      <trkpt lat="49.83576" lon="2.57997">
        <ele>70.7</ele>
        <time>2022-08-03T08:38:42Z</time>
      </trkpt>
      <trkpt lat="49.83577" lon="2.57998">
        <ele>70.8</ele>
        <time>2022-08-03T08:38:43Z</time>
      </trkpt>
      <trkpt lat="49.83578" lon="2.57998">
        <ele>70.8</ele>
        <time>2022-08-03T08:38:44Z</time>
      </trkpt>
      <trkpt lat="49.8358" lon="2.57998">
        <ele>70.9</ele>
        <time>2022-08-03T08:38:45Z</time>
      </trkpt>
      <trkpt lat="49.83581" lon="2.57998">
        <ele>70.9</ele>
        <time>2022-08-03T08:38:47Z</time>
      </trkpt>
      <trkpt lat="49.83582" lon="2.57999">
        <ele>71</ele>
        <time>2022-08-03T08:38:48Z</time>
      </trkpt>
      <trkpt lat="49.83583" lon="2.57999">
        <ele>71</ele>
        <time>2022-08-03T08:38:49Z</time>
      </trkpt>
      <trkpt lat="49.83585" lon="2.57999">
        <ele>71.1</ele>
        <time>2022-08-03T08:38:50Z</time>
      </trkpt>
      <trkpt lat="49.83587" lon="2.57999">
        <ele>71.1</ele>
        <time>2022-08-03T08:38:51Z</time>
      </trkpt>
      <trkpt lat="49.83587" lon="2.57999">
        <ele>71.2</ele>
        <time>2022-08-03T08:38:52Z</time>
      </trkpt>
      <trkpt lat="49.83588" lon="2.57999">
        <ele>71.2</ele>
        <time>2022-08-03T08:38:53Z</time>
      </trkpt>
      <trkpt lat="49.83589" lon="2.58">
        <ele>71.2</ele>
        <time>2022-08-03T08:38:54Z</time>
      </trkpt>
      <trkpt lat="49.8359" lon="2.58">
        <ele>71.3</ele>
        <time>2022-08-03T08:38:55Z</time>
      </trkpt>
      <trkpt lat="49.83592" lon="2.58">
        <ele>71.4</ele>
        <time>2022-08-03T08:38:56Z</time>
      </trkpt>
      <trkpt lat="49.83593" lon="2.58">
        <ele>71.4</ele>
        <time>2022-08-03T08:38:57Z</time>
      </trkpt>
      <trkpt lat="49.83594" lon="2.58001">
        <ele>71.4</ele>
        <time>2022-08-03T08:38:59Z</time>
      </trkpt>
      <trkpt lat="49.83596" lon="2.58">
        <ele>71.5</ele>
        <time>2022-08-03T08:39:00Z</time>
      </trkpt>
      <trkpt lat="49.83597" lon="2.58">
        <ele>71.6</ele>
        <time>2022-08-03T08:39:01Z</time>
      </trkpt>
      <trkpt lat="49.83598" lon="2.58">
        <ele>71.6</ele>
        <time>2022-08-03T08:39:02Z</time>
      </trkpt>
      <trkpt lat="49.836" lon="2.58">
        <ele>71.7</ele>
        <time>2022-08-03T08:39:04Z</time>
      </trkpt>
      <trkpt lat="49.83601" lon="2.58">
        <ele>71.7</ele>
        <time>2022-08-03T08:39:05Z</time>
      </trkpt>
      <trkpt lat="49.83603" lon="2.57999">
        <ele>71.8</ele>
        <time>2022-08-03T08:39:07Z</time>
      </trkpt>
      <trkpt lat="49.83604" lon="2.57999">
        <ele>71.9</ele>
        <time>2022-08-03T08:39:08Z</time>
      </trkpt>
      <trkpt lat="49.83605" lon="2.57999">
        <ele>71.9</ele>
        <time>2022-08-03T08:39:09Z</time>
      </trkpt>
      <trkpt lat="49.83606" lon="2.57998">
        <ele>71.9</ele>
        <time>2022-08-03T08:39:10Z</time>
      </trkpt>
      <trkpt lat="49.83608" lon="2.57998">
        <ele>72</ele>
        <time>2022-08-03T08:39:11Z</time>
      </trkpt>
      <trkpt lat="49.83609" lon="2.57998">
        <ele>72</ele>
        <time>2022-08-03T08:39:12Z</time>
      </trkpt>
      <trkpt lat="49.8361" lon="2.57997">
        <ele>72.1</ele>
        <time>2022-08-03T08:39:13Z</time>
      </trkpt>
      <trkpt lat="49.83611" lon="2.57997">
        <ele>72.1</ele>
        <time>2022-08-03T08:39:14Z</time>
      </trkpt>
      <trkpt lat="49.83613" lon="2.57996">
        <ele>72.2</ele>
        <time>2022-08-03T08:39:15Z</time>
      </trkpt>
      <trkpt lat="49.83614" lon="2.57996">
        <ele>72.3</ele>
        <time>2022-08-03T08:39:16Z</time>
      </trkpt>
      <trkpt lat="49.83615" lon="2.57996">
        <ele>72.3</ele>
        <time>2022-08-03T08:39:17Z</time>
      </trkpt>
      <trkpt lat="49.83617" lon="2.57995">
        <ele>72.3</ele>
        <time>2022-08-03T08:39:18Z</time>
      </trkpt>
      <trkpt lat="49.83618" lon="2.57995">
        <ele>72.3</ele>
        <time>2022-08-03T08:39:20Z</time>
      </trkpt>
      <trkpt lat="49.83619" lon="2.57995">
        <ele>72.3</ele>
        <time>2022-08-03T08:39:21Z</time>
      </trkpt>
      <trkpt lat="49.83621" lon="2.57994">
        <ele>72.3</ele>
        <time>2022-08-03T08:39:22Z</time>
      </trkpt>
      <trkpt lat="49.83622" lon="2.57993">
        <ele>72.4</ele>
        <time>2022-08-03T08:39:23Z</time>
      </trkpt>
      <trkpt lat="49.83623" lon="2.57993">
        <ele>72.4</ele>
        <time>2022-08-03T08:39:24Z</time>
      </trkpt>
      <trkpt lat="49.83624" lon="2.57992">
        <ele>72.4</ele>
        <time>2022-08-03T08:39:25Z</time>
      </trkpt>
      <trkpt lat="49.83626" lon="2.57991">
        <ele>72.4</ele>
        <time>2022-08-03T08:39:27Z</time>
      </trkpt>
      <trkpt lat="49.83627" lon="2.57991">
        <ele>72.4</ele>
        <time>2022-08-03T08:39:28Z</time>
      </trkpt>
      <trkpt lat="49.8363" lon="2.57989">
        <ele>72.5</ele>
        <time>2022-08-03T08:39:29Z</time>
      </trkpt>
      <trkpt lat="49.83631" lon="2.57989">
        <ele>72.5</ele>
        <time>2022-08-03T08:39:30Z</time>
      </trkpt>
      <trkpt lat="49.83633" lon="2.57989">
        <ele>72.5</ele>
        <time>2022-08-03T08:39:31Z</time>
      </trkpt>
      <trkpt lat="49.83634" lon="2.57988">
        <ele>72.5</ele>
        <time>2022-08-03T08:39:33Z</time>
      </trkpt>
      <trkpt lat="49.83635" lon="2.57988">
        <ele>72.6</ele>
        <time>2022-08-03T08:39:34Z</time>
      </trkpt>
      <trkpt lat="49.83635" lon="2.57988">
        <ele>72.6</ele>
        <time>2022-08-03T08:39:35Z</time>
      </trkpt>
      <trkpt lat="49.83637" lon="2.57987">
        <ele>72.6</ele>
        <time>2022-08-03T08:39:36Z</time>
      </trkpt>
      <trkpt lat="49.83639" lon="2.57986">
        <ele>72.6</ele>
        <time>2022-08-03T08:39:37Z</time>
      </trkpt>
      <trkpt lat="49.83639" lon="2.57986">
        <ele>72.7</ele>
        <time>2022-08-03T08:39:38Z</time>
      </trkpt>
      <trkpt lat="49.8364" lon="2.57986">
        <ele>72.7</ele>
        <time>2022-08-03T08:39:39Z</time>
      </trkpt>
      <trkpt lat="49.83641" lon="2.57985">
        <ele>72.7</ele>
        <time>2022-08-03T08:39:40Z</time>
      </trkpt>
      <trkpt lat="49.83643" lon="2.57984">
        <ele>72.7</ele>
        <time>2022-08-03T08:39:41Z</time>
      </trkpt>
      <trkpt lat="49.83644" lon="2.57984">
        <ele>72.7</ele>
        <time>2022-08-03T08:39:42Z</time>
      </trkpt>
      <trkpt lat="49.83645" lon="2.57983">
        <ele>72.8</ele>
        <time>2022-08-03T08:39:44Z</time>
      </trkpt>
      <trkpt lat="49.83645" lon="2.57983">
        <ele>72.8</ele>
        <time>2022-08-03T08:39:45Z</time>
      </trkpt>
      <trkpt lat="49.83646" lon="2.57982">
        <ele>72.8</ele>
        <time>2022-08-03T08:39:46Z</time>
      </trkpt>
      <trkpt lat="49.83647" lon="2.57981">
        <ele>72.8</ele>
        <time>2022-08-03T08:39:47Z</time>
      </trkpt>
      <trkpt lat="49.83648" lon="2.5798">
        <ele>72.8</ele>
        <time>2022-08-03T08:39:48Z</time>
      </trkpt>
      <trkpt lat="49.83649" lon="2.57979">
        <ele>72.9</ele>
        <time>2022-08-03T08:39:49Z</time>
      </trkpt>
      <trkpt lat="49.8365" lon="2.57977">
        <ele>72.9</ele>
        <time>2022-08-03T08:39:51Z</time>
      </trkpt>
      <trkpt lat="49.83651" lon="2.57977">
        <ele>72.9</ele>
        <time>2022-08-03T08:39:52Z</time>
      </trkpt>
      <trkpt lat="49.83652" lon="2.57976">
        <ele>72.9</ele>
        <time>2022-08-03T08:39:54Z</time>
      </trkpt>
      <trkpt lat="49.83652" lon="2.57976">
        <ele>73</ele>
        <time>2022-08-03T08:39:55Z</time>
      </trkpt>
      <trkpt lat="49.83653" lon="2.57976">
        <ele>73</ele>
        <time>2022-08-03T08:39:56Z</time>
      </trkpt>
      <trkpt lat="49.83654" lon="2.57976">
        <ele>73</ele>
        <time>2022-08-03T08:39:57Z</time>
      </trkpt>
      <trkpt lat="49.83654" lon="2.57976">
        <ele>73</ele>
        <time>2022-08-03T08:39:58Z</time>
      </trkpt>
      <trkpt lat="49.83654" lon="2.57976">
        <ele>73</ele>
        <time>2022-08-03T08:39:59Z</time>
      </trkpt>
      <trkpt lat="49.83654" lon="2.57976">
        <ele>73</ele>
        <time>2022-08-03T08:40:00Z</time>
      </trkpt>
      <trkpt lat="49.83654" lon="2.57977">
        <ele>73</ele>
        <time>2022-08-03T08:40:01Z</time>
      </trkpt>
      <trkpt lat="49.83653" lon="2.57978">
        <ele>73</ele>
        <time>2022-08-03T08:40:03Z</time>
      </trkpt>
      <trkpt lat="49.83653" lon="2.57978">
        <ele>73</ele>
        <time>2022-08-03T08:40:04Z</time>
      </trkpt>
      <trkpt lat="49.83653" lon="2.57979">
        <ele>73</ele>
        <time>2022-08-03T08:40:05Z</time>
      </trkpt>
      <trkpt lat="49.83653" lon="2.57979">
        <ele>73</ele>
        <time>2022-08-03T08:40:06Z</time>
      </trkpt>
      <trkpt lat="49.83653" lon="2.57979">
        <ele>73</ele>
        <time>2022-08-03T08:40:07Z</time>
      </trkpt>
      <trkpt lat="49.83652" lon="2.5798">
        <ele>73.1</ele>
        <time>2022-08-03T08:40:08Z</time>
      </trkpt>
      <trkpt lat="49.83652" lon="2.5798">
        <ele>73.1</ele>
        <time>2022-08-03T08:40:09Z</time>
      </trkpt>
      <trkpt lat="49.83652" lon="2.5798">
        <ele>73.1</ele>
        <time>2022-08-03T08:40:10Z</time>
      </trkpt>
      <trkpt lat="49.83652" lon="2.5798">
        <ele>73.1</ele>
        <time>2022-08-03T08:40:11Z</time>
      </trkpt>
      <trkpt lat="49.83652" lon="2.5798">
        <ele>73.1</ele>
        <time>2022-08-03T08:40:13Z</time>
      </trkpt>
      <trkpt lat="49.83652" lon="2.5798">
        <ele>73.1</ele>
        <time>2022-08-03T08:40:14Z</time>
      </trkpt>
      <trkpt lat="49.83652" lon="2.5798">
        <ele>73.1</ele>
        <time>2022-08-03T08:40:15Z</time>
      </trkpt>
      <trkpt lat="49.83652" lon="2.5798">
        <ele>73.1</ele>
        <time>2022-08-03T08:40:16Z</time>
      </trkpt>
      <trkpt lat="49.83652" lon="2.5798">
        <ele>73.1</ele>
        <time>2022-08-03T08:40:17Z</time>
      </trkpt>
      <trkpt lat="49.83652" lon="2.5798">
        <ele>73.1</ele>
        <time>2022-08-03T08:40:18Z</time>
      </trkpt>
      <trkpt lat="49.83651" lon="2.5798">
        <ele>73.1</ele>
        <time>2022-08-03T08:40:19Z</time>
      </trkpt>
      <trkpt lat="49.83651" lon="2.5798">
        <ele>73.1</ele>
        <time>2022-08-03T08:40:20Z</time>
      </trkpt>
      <trkpt lat="49.83651" lon="2.5798">
        <ele>73.1</ele>
        <time>2022-08-03T08:40:21Z</time>
      </trkpt>
      <trkpt lat="49.83651" lon="2.5798">
        <ele>73.1</ele>
        <time>2022-08-03T08:40:22Z</time>
      </trkpt>
      <trkpt lat="49.83651" lon="2.5798">
        <ele>73.1</ele>
        <time>2022-08-03T08:40:23Z</time>
      </trkpt>
      <trkpt lat="49.83651" lon="2.5798">
        <ele>73.1</ele>
        <time>2022-08-03T08:40:24Z</time>
      </trkpt>
      <trkpt lat="49.83651" lon="2.5798">
        <ele>73.1</ele>
        <time>2022-08-03T08:40:25Z</time>
      </trkpt>
      <trkpt lat="49.83651" lon="2.5798">
        <ele>73.1</ele>
        <time>2022-08-03T08:40:26Z</time>
      </trkpt>
      <trkpt lat="49.83651" lon="2.5798">
        <ele>73.1</ele>
        <time>2022-08-03T08:40:27Z</time>
      </trkpt>
      <trkpt lat="49.83651" lon="2.5798">
        <ele>73.1</ele>
        <time>2022-08-03T08:40:28Z</time>
      </trkpt>
      <trkpt lat="49.83651" lon="2.5798">
        <ele>73.1</ele>
        <time>2022-08-03T08:40:29Z</time>
      </trkpt>
      <trkpt lat="49.8365" lon="2.5798">
        <ele>73.1</ele>
        <time>2022-08-03T08:40:30Z</time>
      </trkpt>
      <trkpt lat="49.8365" lon="2.5798">
        <ele>73.1</ele>
        <time>2022-08-03T08:40:31Z</time>
      </trkpt>
      <trkpt lat="49.8365" lon="2.57979">
        <ele>73.1</ele>
        <time>2022-08-03T08:40:32Z</time>
      </trkpt>
      <trkpt lat="49.8365" lon="2.57979">
        <ele>73.1</ele>
        <time>2022-08-03T08:40:33Z</time>
      </trkpt>
      <trkpt lat="49.8365" lon="2.57979">
        <ele>73.1</ele>
        <time>2022-08-03T08:40:34Z</time>
      </trkpt>
      <trkpt lat="49.8365" lon="2.57979">
        <ele>73.1</ele>
        <time>2022-08-03T08:40:35Z</time>
      </trkpt>
      <trkpt lat="49.8365" lon="2.57979">
        <ele>73.1</ele>
        <time>2022-08-03T08:40:36Z</time>
      </trkpt>
      <trkpt lat="49.8365" lon="2.57979">
        <ele>73.1</ele>
        <time>2022-08-03T08:40:37Z</time>
      </trkpt>
      <trkpt lat="49.8365" lon="2.57979">
        <ele>73.1</ele>
        <time>2022-08-03T08:40:38Z</time>
      </trkpt>
      <trkpt lat="49.8365" lon="2.57979">
        <ele>73.1</ele>
        <time>2022-08-03T08:40:39Z</time>
      </trkpt>
      <trkpt lat="49.8365" lon="2.57979">
        <ele>73.1</ele>
        <time>2022-08-03T08:40:40Z</time>
      </trkpt>
      <trkpt lat="49.83649" lon="2.57979">
        <ele>73.1</ele>
        <time>2022-08-03T08:40:41Z</time>
      </trkpt>
      <trkpt lat="49.83649" lon="2.57979">
        <ele>73.1</ele>
        <time>2022-08-03T08:40:42Z</time>
      </trkpt>
      <trkpt lat="49.83649" lon="2.57979">
        <ele>73.1</ele>
        <time>2022-08-03T08:40:43Z</time>
      </trkpt>
      <trkpt lat="49.83649" lon="2.57979">
        <ele>73.1</ele>
        <time>2022-08-03T08:40:44Z</time>
      </trkpt>
      <trkpt lat="49.83649" lon="2.57979">
        <ele>73.1</ele>
        <time>2022-08-03T08:40:45Z</time>
      </trkpt>
      <trkpt lat="49.83649" lon="2.57979">
        <ele>73.1</ele>
        <time>2022-08-03T08:40:46Z</time>
      </trkpt>
      <trkpt lat="49.83649" lon="2.57979">
        <ele>73.1</ele>
        <time>2022-08-03T08:40:47Z</time>
      </trkpt>
      <trkpt lat="49.83649" lon="2.57979">
        <ele>73.1</ele>
        <time>2022-08-03T08:40:48Z</time>
      </trkpt>
      <trkpt lat="49.83649" lon="2.57979">
        <ele>73.1</ele>
        <time>2022-08-03T08:40:49Z</time>
      </trkpt>
      <trkpt lat="49.83648" lon="2.5798">
        <ele>73.2</ele>
        <time>2022-08-03T08:40:50Z</time>
      </trkpt>
      <trkpt lat="49.83648" lon="2.5798">
        <ele>73.2</ele>
        <time>2022-08-03T08:40:51Z</time>
      </trkpt>
      <trkpt lat="49.83647" lon="2.5798">
        <ele>73.2</ele>
        <time>2022-08-03T08:40:52Z</time>
      </trkpt>
      <trkpt lat="49.83647" lon="2.5798">
        <ele>73.2</ele>
        <time>2022-08-03T08:40:53Z</time>
      </trkpt>
      <trkpt lat="49.83647" lon="2.5798">
        <ele>73.2</ele>
        <time>2022-08-03T08:40:54Z</time>
      </trkpt>
      <trkpt lat="49.83647" lon="2.5798">
        <ele>73.2</ele>
        <time>2022-08-03T08:40:55Z</time>
      </trkpt>
      <trkpt lat="49.83647" lon="2.5798">
        <ele>73.2</ele>
        <time>2022-08-03T08:40:56Z</time>
      </trkpt>
      <trkpt lat="49.83647" lon="2.5798">
        <ele>73.2</ele>
        <time>2022-08-03T08:40:57Z</time>
      </trkpt>
      <trkpt lat="49.83647" lon="2.5798">
        <ele>73.2</ele>
        <time>2022-08-03T08:40:58Z</time>
      </trkpt>
      <trkpt lat="49.83647" lon="2.5798">
        <ele>73.2</ele>
        <time>2022-08-03T08:40:59Z</time>
      </trkpt>
      <trkpt lat="49.83647" lon="2.5798">
        <ele>73.2</ele>
        <time>2022-08-03T08:41:00Z</time>
      </trkpt>
      <trkpt lat="49.83647" lon="2.5798">
        <ele>73.2</ele>
        <time>2022-08-03T08:41:01Z</time>
      </trkpt>
      <trkpt lat="49.83647" lon="2.5798">
        <ele>73.2</ele>
        <time>2022-08-03T08:41:02Z</time>
      </trkpt>
      <trkpt lat="49.83647" lon="2.5798">
        <ele>73.2</ele>
        <time>2022-08-03T08:41:03Z</time>
      </trkpt>
      <trkpt lat="49.83647" lon="2.5798">
        <ele>73.2</ele>
        <time>2022-08-03T08:41:04Z</time>
      </trkpt>
      <trkpt lat="49.83647" lon="2.5798">
        <ele>73.2</ele>
        <time>2022-08-03T08:41:05Z</time>
      </trkpt>
      <trkpt lat="49.83647" lon="2.5798">
        <ele>73.2</ele>
        <time>2022-08-03T08:41:06Z</time>
      </trkpt>
      <trkpt lat="49.83647" lon="2.5798">
        <ele>73.2</ele>
        <time>2022-08-03T08:41:07Z</time>
      </trkpt>
      <trkpt lat="49.83647" lon="2.5798">
        <ele>73.2</ele>
        <time>2022-08-03T08:41:08Z</time>
      </trkpt>
      <trkpt lat="49.83647" lon="2.5798">
        <ele>73.2</ele>
        <time>2022-08-03T08:41:09Z</time>
      </trkpt>
      <trkpt lat="49.83647" lon="2.5798">
        <ele>73.2</ele>
        <time>2022-08-03T08:41:10Z</time>
      </trkpt>
      <trkpt lat="49.83647" lon="2.5798">
        <ele>73.2</ele>
        <time>2022-08-03T08:41:11Z</time>
      </trkpt>
      <trkpt lat="49.83647" lon="2.5798">
        <ele>73.2</ele>
        <time>2022-08-03T08:41:12Z</time>
      </trkpt>
      <trkpt lat="49.83647" lon="2.5798">
        <ele>73.2</ele>
        <time>2022-08-03T08:41:13Z</time>
      </trkpt>
      <trkpt lat="49.83647" lon="2.5798">
        <ele>73.2</ele>
        <time>2022-08-03T08:41:14Z</time>
      </trkpt>
      <trkpt lat="49.83647" lon="2.5798">
        <ele>73.2</ele>
        <time>2022-08-03T08:41:15Z</time>
      </trkpt>
      <trkpt lat="49.83647" lon="2.5798">
        <ele>73.2</ele>
        <time>2022-08-03T08:41:16Z</time>
      </trkpt>
      <trkpt lat="49.83647" lon="2.5798">
        <ele>73.2</ele>
        <time>2022-08-03T08:41:17Z</time>
      </trkpt>
      <trkpt lat="49.83647" lon="2.5798">
        <ele>73.2</ele>
        <time>2022-08-03T08:41:18Z</time>
      </trkpt>
      <trkpt lat="49.83647" lon="2.5798">
        <ele>73.2</ele>
        <time>2022-08-03T08:41:19Z</time>
      </trkpt>
      <trkpt lat="49.83647" lon="2.5798">
        <ele>73.2</ele>
        <time>2022-08-03T08:41:20Z</time>
      </trkpt>
      <trkpt lat="49.83647" lon="2.5798">
        <ele>73.2</ele>
        <time>2022-08-03T08:41:21Z</time>
      </trkpt>
      <trkpt lat="49.83647" lon="2.5798">
        <ele>73.2</ele>
        <time>2022-08-03T08:41:22Z</time>
      </trkpt>
      <trkpt lat="49.83647" lon="2.5798">
        <ele>73.2</ele>
        <time>2022-08-03T08:41:23Z</time>
      </trkpt>
      <trkpt lat="49.83647" lon="2.5798">
        <ele>73.2</ele>
        <time>2022-08-03T08:41:24Z</time>
      </trkpt>
      <trkpt lat="49.83647" lon="2.5798">
        <ele>73.2</ele>
        <time>2022-08-03T08:41:25Z</time>
      </trkpt>
      <trkpt lat="49.83647" lon="2.5798">
        <ele>73.2</ele>
        <time>2022-08-03T08:41:26Z</time>
      </trkpt>
      <trkpt lat="49.83647" lon="2.5798">
        <ele>73.2</ele>
        <time>2022-08-03T08:41:27Z</time>
      </trkpt>
      <trkpt lat="49.83647" lon="2.5798">
        <ele>73.2</ele>
        <time>2022-08-03T08:41:28Z</time>
      </trkpt>
      <trkpt lat="49.83647" lon="2.5798">
        <ele>73.2</ele>
        <time>2022-08-03T08:41:29Z</time>
      </trkpt>
      <trkpt lat="49.83647" lon="2.5798">
        <ele>73.2</ele>
        <time>2022-08-03T08:41:30Z</time>
      </trkpt>
      <trkpt lat="49.83647" lon="2.5798">
        <ele>73.2</ele>
        <time>2022-08-03T08:41:31Z</time>
      </trkpt>
      <trkpt lat="49.83647" lon="2.5798">
        <ele>73.2</ele>
        <time>2022-08-03T08:41:32Z</time>
      </trkpt>
      <trkpt lat="49.83647" lon="2.5798">
        <ele>73.2</ele>
        <time>2022-08-03T08:41:33Z</time>
      </trkpt>
      <trkpt lat="49.83647" lon="2.5798">
        <ele>73.2</ele>
        <time>2022-08-03T08:41:34Z</time>
      </trkpt>
      <trkpt lat="49.83647" lon="2.5798">
        <ele>73.2</ele>
        <time>2022-08-03T08:41:35Z</time>
      </trkpt>
      <trkpt lat="49.83647" lon="2.5798">
        <ele>73.2</ele>
        <time>2022-08-03T08:41:36Z</time>
      </trkpt>
      <trkpt lat="49.83647" lon="2.5798">
        <ele>73.2</ele>
        <time>2022-08-03T08:41:37Z</time>
      </trkpt>
      <trkpt lat="49.83647" lon="2.5798">
        <ele>73.2</ele>
        <time>2022-08-03T08:41:38Z</time>
      </trkpt>
      <trkpt lat="49.83647" lon="2.5798">
        <ele>73.2</ele>
        <time>2022-08-03T08:41:39Z</time>
      </trkpt>
      <trkpt lat="49.83647" lon="2.5798">
        <ele>73.2</ele>
        <time>2022-08-03T08:41:40Z</time>
      </trkpt>
      <trkpt lat="49.83647" lon="2.5798">
        <ele>73.2</ele>
        <time>2022-08-03T08:41:41Z</time>
      </trkpt>
      <trkpt lat="49.83647" lon="2.5798">
        <ele>73.2</ele>
        <time>2022-08-03T08:41:42Z</time>
      </trkpt>
      <trkpt lat="49.83647" lon="2.5798">
        <ele>73.2</ele>
        <time>2022-08-03T08:41:43Z</time>
      </trkpt>
      <trkpt lat="49.83647" lon="2.5798">
        <ele>73.2</ele>
        <time>2022-08-03T08:41:44Z</time>
      </trkpt>
      <trkpt lat="49.83647" lon="2.5798">
        <ele>73.2</ele>
        <time>2022-08-03T08:41:45Z</time>
      </trkpt>
      <trkpt lat="49.83647" lon="2.5798">
        <ele>73.2</ele>
        <time>2022-08-03T08:41:46Z</time>
      </trkpt>
      <trkpt lat="49.83647" lon="2.5798">
        <ele>73.2</ele>
        <time>2022-08-03T08:41:47Z</time>
      </trkpt>
      <trkpt lat="49.83647" lon="2.5798">
        <ele>73.2</ele>
        <time>2022-08-03T08:41:48Z</time>
      </trkpt>
      <trkpt lat="49.83647" lon="2.5798">
        <ele>73.2</ele>
        <time>2022-08-03T08:41:49Z</time>
      </trkpt>
      <trkpt lat="49.83647" lon="2.5798">
        <ele>73.2</ele>
        <time>2022-08-03T08:41:50Z</time>
      </trkpt>
      <trkpt lat="49.83647" lon="2.5798">
        <ele>73.2</ele>
        <time>2022-08-03T08:41:51Z</time>
      </trkpt>
      <trkpt lat="49.83647" lon="2.5798">
        <ele>73.2</ele>
        <time>2022-08-03T08:41:52Z</time>
      </trkpt>
      <trkpt lat="49.83647" lon="2.5798">
        <ele>73.2</ele>
        <time>2022-08-03T08:41:53Z</time>
      </trkpt>
      <trkpt lat="49.83647" lon="2.57979">
        <ele>73.2</ele>
        <time>2022-08-03T08:41:54Z</time>
      </trkpt>
      <trkpt lat="49.83648" lon="2.57978">
        <ele>73.2</ele>
        <time>2022-08-03T08:41:55Z</time>
      </trkpt>
      <trkpt lat="49.83648" lon="2.57977">
        <ele>73.2</ele>
        <time>2022-08-03T08:41:56Z</time>
      </trkpt>
      <trkpt lat="49.83648" lon="2.57976">
        <ele>73.2</ele>
        <time>2022-08-03T08:41:57Z</time>
      </trkpt>
      <trkpt lat="49.83649" lon="2.57975">
        <ele>73.3</ele>
        <time>2022-08-03T08:41:58Z</time>
      </trkpt>
      <trkpt lat="49.8365" lon="2.57975">
        <ele>73.3</ele>
        <time>2022-08-03T08:41:59Z</time>
      </trkpt>
      <trkpt lat="49.8365" lon="2.57975">
        <ele>73.3</ele>
        <time>2022-08-03T08:42:00Z</time>
      </trkpt>
      <trkpt lat="49.83651" lon="2.57975">
        <ele>73.3</ele>
        <time>2022-08-03T08:42:01Z</time>
      </trkpt>
      <trkpt lat="49.83652" lon="2.57975">
        <ele>73.3</ele>
        <time>2022-08-03T08:42:03Z</time>
      </trkpt>
      <trkpt lat="49.83652" lon="2.57975">
        <ele>73.4</ele>
        <time>2022-08-03T08:42:04Z</time>
      </trkpt>
      <trkpt lat="49.83653" lon="2.57975">
        <ele>73.4</ele>
        <time>2022-08-03T08:42:05Z</time>
      </trkpt>
      <trkpt lat="49.83654" lon="2.57974">
        <ele>73.4</ele>
        <time>2022-08-03T08:42:06Z</time>
      </trkpt>
      <trkpt lat="49.83656" lon="2.57974">
        <ele>73.5</ele>
        <time>2022-08-03T08:42:07Z</time>
      </trkpt>
      <trkpt lat="49.83657" lon="2.57974">
        <ele>73.5</ele>
        <time>2022-08-03T08:42:08Z</time>
      </trkpt>
      <trkpt lat="49.83658" lon="2.57974">
        <ele>73.5</ele>
        <time>2022-08-03T08:42:10Z</time>
      </trkpt>
      <trkpt lat="49.83659" lon="2.57974">
        <ele>73.6</ele>
        <time>2022-08-03T08:42:11Z</time>
      </trkpt>
      <trkpt lat="49.8366" lon="2.57973">
        <ele>73.6</ele>
        <time>2022-08-03T08:42:12Z</time>
      </trkpt>
      <trkpt lat="49.83661" lon="2.57973">
        <ele>73.6</ele>
        <time>2022-08-03T08:42:13Z</time>
      </trkpt>
      <trkpt lat="49.83662" lon="2.57973">
        <ele>73.7</ele>
        <time>2022-08-03T08:42:15Z</time>
      </trkpt>
      <trkpt lat="49.83663" lon="2.57972">
        <ele>73.7</ele>
        <time>2022-08-03T08:42:16Z</time>
      </trkpt>
      <trkpt lat="49.83664" lon="2.57971">
        <ele>73.7</ele>
        <time>2022-08-03T08:42:17Z</time>
      </trkpt>
      <trkpt lat="49.83665" lon="2.57971">
        <ele>73.8</ele>
        <time>2022-08-03T08:42:18Z</time>
      </trkpt>
      <trkpt lat="49.83665" lon="2.5797">
        <ele>73.8</ele>
        <time>2022-08-03T08:42:19Z</time>
      </trkpt>
      <trkpt lat="49.83666" lon="2.57969">
        <ele>73.8</ele>
        <time>2022-08-03T08:42:21Z</time>
      </trkpt>
      <trkpt lat="49.83667" lon="2.57969">
        <ele>73.8</ele>
        <time>2022-08-03T08:42:22Z</time>
      </trkpt>
      <trkpt lat="49.83669" lon="2.57968">
        <ele>73.9</ele>
        <time>2022-08-03T08:42:23Z</time>
      </trkpt>
      <trkpt lat="49.83669" lon="2.57967">
        <ele>73.9</ele>
        <time>2022-08-03T08:42:24Z</time>
      </trkpt>
      <trkpt lat="49.8367" lon="2.57967">
        <ele>73.9</ele>
        <time>2022-08-03T08:42:25Z</time>
      </trkpt>
      <trkpt lat="49.83672" lon="2.57965">
        <ele>74</ele>
        <time>2022-08-03T08:42:26Z</time>
      </trkpt>
      <trkpt lat="49.83672" lon="2.57964">
        <ele>74</ele>
        <time>2022-08-03T08:42:27Z</time>
      </trkpt>
      <trkpt lat="49.83673" lon="2.57963">
        <ele>74.1</ele>
        <time>2022-08-03T08:42:28Z</time>
      </trkpt>
      <trkpt lat="49.83674" lon="2.57962">
        <ele>74.1</ele>
        <time>2022-08-03T08:42:29Z</time>
      </trkpt>
      <trkpt lat="49.83675" lon="2.57961">
        <ele>74.1</ele>
        <time>2022-08-03T08:42:30Z</time>
      </trkpt>
      <trkpt lat="49.83676" lon="2.5796">
        <ele>74.2</ele>
        <time>2022-08-03T08:42:32Z</time>
      </trkpt>
      <trkpt lat="49.83678" lon="2.57958">
        <ele>74.2</ele>
        <time>2022-08-03T08:42:33Z</time>
      </trkpt>
      <trkpt lat="49.83678" lon="2.57957">
        <ele>74.2</ele>
        <time>2022-08-03T08:42:34Z</time>
      </trkpt>
      <trkpt lat="49.83679" lon="2.57956">
        <ele>74.3</ele>
        <time>2022-08-03T08:42:35Z</time>
      </trkpt>
      <trkpt lat="49.8368" lon="2.57955">
        <ele>74.3</ele>
        <time>2022-08-03T08:42:36Z</time>
      </trkpt>
      <trkpt lat="49.83681" lon="2.57954">
        <ele>74.4</ele>
        <time>2022-08-03T08:42:38Z</time>
      </trkpt>
      <trkpt lat="49.83682" lon="2.57954">
        <ele>74.4</ele>
        <time>2022-08-03T08:42:39Z</time>
      </trkpt>
      <trkpt lat="49.83683" lon="2.57953">
        <ele>74.4</ele>
        <time>2022-08-03T08:42:40Z</time>
      </trkpt>
      <trkpt lat="49.83684" lon="2.57952">
        <ele>74.4</ele>
        <time>2022-08-03T08:42:41Z</time>
      </trkpt>
      <trkpt lat="49.83685" lon="2.57951">
        <ele>74.5</ele>
        <time>2022-08-03T08:42:42Z</time>
      </trkpt>
      <trkpt lat="49.83686" lon="2.5795">
        <ele>74.5</ele>
        <time>2022-08-03T08:42:43Z</time>
      </trkpt>
      <trkpt lat="49.83686" lon="2.57949">
        <ele>74.5</ele>
        <time>2022-08-03T08:42:45Z</time>
      </trkpt>
      <trkpt lat="49.83687" lon="2.57948">
        <ele>74.6</ele>
        <time>2022-08-03T08:42:46Z</time>
      </trkpt>
      <trkpt lat="49.83688" lon="2.57947">
        <ele>74.6</ele>
        <time>2022-08-03T08:42:47Z</time>
      </trkpt>
      <trkpt lat="49.83689" lon="2.57946">
        <ele>74.6</ele>
        <time>2022-08-03T08:42:48Z</time>
      </trkpt>
      <trkpt lat="49.8369" lon="2.57945">
        <ele>74.7</ele>
        <time>2022-08-03T08:42:49Z</time>
      </trkpt>
      <trkpt lat="49.83691" lon="2.57944">
        <ele>74.7</ele>
        <time>2022-08-03T08:42:50Z</time>
      </trkpt>
      <trkpt lat="49.83692" lon="2.57943">
        <ele>74.7</ele>
        <time>2022-08-03T08:42:51Z</time>
      </trkpt>
      <trkpt lat="49.83693" lon="2.57942">
        <ele>74.8</ele>
        <time>2022-08-03T08:42:53Z</time>
      </trkpt>
      <trkpt lat="49.83694" lon="2.57941">
        <ele>74.8</ele>
        <time>2022-08-03T08:42:54Z</time>
      </trkpt>
      <trkpt lat="49.83695" lon="2.5794">
        <ele>74.9</ele>
        <time>2022-08-03T08:42:56Z</time>
      </trkpt>
      <trkpt lat="49.83695" lon="2.57939">
        <ele>74.9</ele>
        <time>2022-08-03T08:42:57Z</time>
      </trkpt>
      <trkpt lat="49.83696" lon="2.57938">
        <ele>74.9</ele>
        <time>2022-08-03T08:42:58Z</time>
      </trkpt>
      <trkpt lat="49.83697" lon="2.57937">
        <ele>75</ele>
        <time>2022-08-03T08:42:59Z</time>
      </trkpt>
      <trkpt lat="49.83698" lon="2.57936">
        <ele>75</ele>
        <time>2022-08-03T08:43:00Z</time>
      </trkpt>
      <trkpt lat="49.837" lon="2.57934">
        <ele>75.1</ele>
        <time>2022-08-03T08:43:01Z</time>
      </trkpt>
      <trkpt lat="49.837" lon="2.57933">
        <ele>75.1</ele>
        <time>2022-08-03T08:43:03Z</time>
      </trkpt>
      <trkpt lat="49.83701" lon="2.57932">
        <ele>75.1</ele>
        <time>2022-08-03T08:43:04Z</time>
      </trkpt>
      <trkpt lat="49.83702" lon="2.57931">
        <ele>75.1</ele>
        <time>2022-08-03T08:43:05Z</time>
      </trkpt>
      <trkpt lat="49.83703" lon="2.5793">
        <ele>75.2</ele>
        <time>2022-08-03T08:43:06Z</time>
      </trkpt>
      <trkpt lat="49.83704" lon="2.57929">
        <ele>75.2</ele>
        <time>2022-08-03T08:43:07Z</time>
      </trkpt>
      <trkpt lat="49.83705" lon="2.57928">
        <ele>75.3</ele>
        <time>2022-08-03T08:43:08Z</time>
      </trkpt>
      <trkpt lat="49.83706" lon="2.57927">
        <ele>75.3</ele>
        <time>2022-08-03T08:43:09Z</time>
      </trkpt>
      <trkpt lat="49.83707" lon="2.57926">
        <ele>75.3</ele>
        <time>2022-08-03T08:43:11Z</time>
      </trkpt>
      <trkpt lat="49.83708" lon="2.57924">
        <ele>75.4</ele>
        <time>2022-08-03T08:43:12Z</time>
      </trkpt>
      <trkpt lat="49.83709" lon="2.57923">
        <ele>75.4</ele>
        <time>2022-08-03T08:43:13Z</time>
      </trkpt>
      <trkpt lat="49.83709" lon="2.57922">
        <ele>75.4</ele>
        <time>2022-08-03T08:43:14Z</time>
      </trkpt>
      <trkpt lat="49.8371" lon="2.57921">
        <ele>75.5</ele>
        <time>2022-08-03T08:43:15Z</time>
      </trkpt>
      <trkpt lat="49.83711" lon="2.5792">
        <ele>75.5</ele>
        <time>2022-08-03T08:43:16Z</time>
      </trkpt>
      <trkpt lat="49.83712" lon="2.57919">
        <ele>75.5</ele>
        <time>2022-08-03T08:43:18Z</time>
      </trkpt>
      <trkpt lat="49.83714" lon="2.57918">
        <ele>75.6</ele>
        <time>2022-08-03T08:43:19Z</time>
      </trkpt>
      <trkpt lat="49.83715" lon="2.57918">
        <ele>75.6</ele>
        <time>2022-08-03T08:43:20Z</time>
      </trkpt>
      <trkpt lat="49.83716" lon="2.57917">
        <ele>75.6</ele>
        <time>2022-08-03T08:43:21Z</time>
      </trkpt>
      <trkpt lat="49.83717" lon="2.57916">
        <ele>75.6</ele>
        <time>2022-08-03T08:43:22Z</time>
      </trkpt>
      <trkpt lat="49.83718" lon="2.57915">
        <ele>75.7</ele>
        <time>2022-08-03T08:43:23Z</time>
      </trkpt>
      <trkpt lat="49.83719" lon="2.57915">
        <ele>75.7</ele>
        <time>2022-08-03T08:43:24Z</time>
      </trkpt>
      <trkpt lat="49.8372" lon="2.57915">
        <ele>75.7</ele>
        <time>2022-08-03T08:43:26Z</time>
      </trkpt>
      <trkpt lat="49.83721" lon="2.57914">
        <ele>75.7</ele>
        <time>2022-08-03T08:43:27Z</time>
      </trkpt>
      <trkpt lat="49.83722" lon="2.57913">
        <ele>75.8</ele>
        <time>2022-08-03T08:43:28Z</time>
      </trkpt>
      <trkpt lat="49.83723" lon="2.57913">
        <ele>75.8</ele>
        <time>2022-08-03T08:43:29Z</time>
      </trkpt>
      <trkpt lat="49.83724" lon="2.57912">
        <ele>75.8</ele>
        <time>2022-08-03T08:43:30Z</time>
      </trkpt>
      <trkpt lat="49.83726" lon="2.5791">
        <ele>75.9</ele>
        <time>2022-08-03T08:43:31Z</time>
      </trkpt>
      <trkpt lat="49.83727" lon="2.5791">
        <ele>75.9</ele>
        <time>2022-08-03T08:43:33Z</time>
      </trkpt>
      <trkpt lat="49.83727" lon="2.57909">
        <ele>75.9</ele>
        <time>2022-08-03T08:43:34Z</time>
      </trkpt>
      <trkpt lat="49.83728" lon="2.57908">
        <ele>75.9</ele>
        <time>2022-08-03T08:43:35Z</time>
      </trkpt>
      <trkpt lat="49.83729" lon="2.57908">
        <ele>76</ele>
        <time>2022-08-03T08:43:36Z</time>
      </trkpt>
      <trkpt lat="49.8373" lon="2.57907">
        <ele>76</ele>
        <time>2022-08-03T08:43:37Z</time>
      </trkpt>
      <trkpt lat="49.83732" lon="2.57906">
        <ele>76</ele>
        <time>2022-08-03T08:43:38Z</time>
      </trkpt>
      <trkpt lat="49.83732" lon="2.57905">
        <ele>76</ele>
        <time>2022-08-03T08:43:39Z</time>
      </trkpt>
      <trkpt lat="49.83733" lon="2.57904">
        <ele>76.1</ele>
        <time>2022-08-03T08:43:41Z</time>
      </trkpt>
      <trkpt lat="49.83734" lon="2.57904">
        <ele>76.1</ele>
        <time>2022-08-03T08:43:42Z</time>
      </trkpt>
      <trkpt lat="49.83736" lon="2.57902">
        <ele>76.1</ele>
        <time>2022-08-03T08:43:43Z</time>
      </trkpt>
      <trkpt lat="49.83737" lon="2.57902">
        <ele>76.2</ele>
        <time>2022-08-03T08:43:45Z</time>
      </trkpt>
      <trkpt lat="49.83738" lon="2.57901">
        <ele>76.2</ele>
        <time>2022-08-03T08:43:46Z</time>
      </trkpt>
      <trkpt lat="49.83739" lon="2.579">
        <ele>76.2</ele>
        <time>2022-08-03T08:43:47Z</time>
      </trkpt>
      <trkpt lat="49.8374" lon="2.579">
        <ele>76.3</ele>
        <time>2022-08-03T08:43:48Z</time>
      </trkpt>
      <trkpt lat="49.83742" lon="2.57899">
        <ele>76.3</ele>
        <time>2022-08-03T08:43:49Z</time>
      </trkpt>
      <trkpt lat="49.83743" lon="2.57898">
        <ele>76.3</ele>
        <time>2022-08-03T08:43:50Z</time>
      </trkpt>
      <trkpt lat="49.83744" lon="2.57898">
        <ele>76.4</ele>
        <time>2022-08-03T08:43:51Z</time>
      </trkpt>
      <trkpt lat="49.83745" lon="2.57897">
        <ele>76.4</ele>
        <time>2022-08-03T08:43:52Z</time>
      </trkpt>
      <trkpt lat="49.83746" lon="2.57896">
        <ele>76.4</ele>
        <time>2022-08-03T08:43:54Z</time>
      </trkpt>
      <trkpt lat="49.83747" lon="2.57896">
        <ele>76.5</ele>
        <time>2022-08-03T08:43:55Z</time>
      </trkpt>
      <trkpt lat="49.83748" lon="2.57895">
        <ele>76.5</ele>
        <time>2022-08-03T08:43:56Z</time>
      </trkpt>
      <trkpt lat="49.83749" lon="2.57894">
        <ele>76.5</ele>
        <time>2022-08-03T08:43:57Z</time>
      </trkpt>
      <trkpt lat="49.8375" lon="2.57894">
        <ele>76.6</ele>
        <time>2022-08-03T08:43:58Z</time>
      </trkpt>
      <trkpt lat="49.83751" lon="2.57893">
        <ele>76.6</ele>
        <time>2022-08-03T08:43:59Z</time>
      </trkpt>
      <trkpt lat="49.83752" lon="2.57893">
        <ele>76.6</ele>
        <time>2022-08-03T08:44:01Z</time>
      </trkpt>
      <trkpt lat="49.83753" lon="2.57893">
        <ele>76.6</ele>
        <time>2022-08-03T08:44:02Z</time>
      </trkpt>
      <trkpt lat="49.83754" lon="2.57892">
        <ele>76.7</ele>
        <time>2022-08-03T08:44:03Z</time>
      </trkpt>
      <trkpt lat="49.83756" lon="2.57891">
        <ele>76.7</ele>
        <time>2022-08-03T08:44:04Z</time>
      </trkpt>
      <trkpt lat="49.83757" lon="2.57891">
        <ele>76.7</ele>
        <time>2022-08-03T08:44:05Z</time>
      </trkpt>
      <trkpt lat="49.83758" lon="2.57891">
        <ele>76.8</ele>
        <time>2022-08-03T08:44:06Z</time>
      </trkpt>
      <trkpt lat="49.83759" lon="2.57891">
        <ele>76.8</ele>
        <time>2022-08-03T08:44:08Z</time>
      </trkpt>
      <trkpt lat="49.8376" lon="2.5789">
        <ele>76.8</ele>
        <time>2022-08-03T08:44:09Z</time>
      </trkpt>
      <trkpt lat="49.83761" lon="2.5789">
        <ele>76.9</ele>
        <time>2022-08-03T08:44:10Z</time>
      </trkpt>
      <trkpt lat="49.83763" lon="2.5789">
        <ele>76.9</ele>
        <time>2022-08-03T08:44:11Z</time>
      </trkpt>
      <trkpt lat="49.83764" lon="2.57889">
        <ele>77</ele>
        <time>2022-08-03T08:44:12Z</time>
      </trkpt>
      <trkpt lat="49.83765" lon="2.57889">
        <ele>77</ele>
        <time>2022-08-03T08:44:13Z</time>
      </trkpt>
      <trkpt lat="49.83766" lon="2.57889">
        <ele>77</ele>
        <time>2022-08-03T08:44:15Z</time>
      </trkpt>
      <trkpt lat="49.83767" lon="2.57889">
        <ele>77</ele>
        <time>2022-08-03T08:44:16Z</time>
      </trkpt>
      <trkpt lat="49.83768" lon="2.57888">
        <ele>77.1</ele>
        <time>2022-08-03T08:44:17Z</time>
      </trkpt>
      <trkpt lat="49.8377" lon="2.57887">
        <ele>77.2</ele>
        <time>2022-08-03T08:44:19Z</time>
      </trkpt>
      <trkpt lat="49.8377" lon="2.57886">
        <ele>77.2</ele>
        <time>2022-08-03T08:44:20Z</time>
      </trkpt>
      <trkpt lat="49.83771" lon="2.57885">
        <ele>77.2</ele>
        <time>2022-08-03T08:44:21Z</time>
      </trkpt>
      <trkpt lat="49.83772" lon="2.57884">
        <ele>77.3</ele>
        <time>2022-08-03T08:44:22Z</time>
      </trkpt>
      <trkpt lat="49.83773" lon="2.57882">
        <ele>77.3</ele>
        <time>2022-08-03T08:44:24Z</time>
      </trkpt>
      <trkpt lat="49.83774" lon="2.57881">
        <ele>77.3</ele>
        <time>2022-08-03T08:44:25Z</time>
      </trkpt>
      <trkpt lat="49.83774" lon="2.57881">
        <ele>77.4</ele>
        <time>2022-08-03T08:44:26Z</time>
      </trkpt>
      <trkpt lat="49.83775" lon="2.5788">
        <ele>77.4</ele>
        <time>2022-08-03T08:44:27Z</time>
      </trkpt>
      <trkpt lat="49.83776" lon="2.5788">
        <ele>77.4</ele>
        <time>2022-08-03T08:44:28Z</time>
      </trkpt>
      <trkpt lat="49.83778" lon="2.57879">
        <ele>77.5</ele>
        <time>2022-08-03T08:44:29Z</time>
      </trkpt>
      <trkpt lat="49.83779" lon="2.57879">
        <ele>77.5</ele>
        <time>2022-08-03T08:44:30Z</time>
      </trkpt>
      <trkpt lat="49.83779" lon="2.57878">
        <ele>77.6</ele>
        <time>2022-08-03T08:44:31Z</time>
      </trkpt>
      <trkpt lat="49.8378" lon="2.57878">
        <ele>77.6</ele>
        <time>2022-08-03T08:44:32Z</time>
      </trkpt>
      <trkpt lat="49.83781" lon="2.57877">
        <ele>77.6</ele>
        <time>2022-08-03T08:44:33Z</time>
      </trkpt>
      <trkpt lat="49.83783" lon="2.57877">
        <ele>77.7</ele>
        <time>2022-08-03T08:44:34Z</time>
      </trkpt>
      <trkpt lat="49.83784" lon="2.57876">
        <ele>77.7</ele>
        <time>2022-08-03T08:44:35Z</time>
      </trkpt>
      <trkpt lat="49.83785" lon="2.57876">
        <ele>77.8</ele>
        <time>2022-08-03T08:44:36Z</time>
      </trkpt>
      <trkpt lat="49.83786" lon="2.57876">
        <ele>77.8</ele>
        <time>2022-08-03T08:44:38Z</time>
      </trkpt>
      <trkpt lat="49.83787" lon="2.57875">
        <ele>77.9</ele>
        <time>2022-08-03T08:44:39Z</time>
      </trkpt>
      <trkpt lat="49.83788" lon="2.57876">
        <ele>77.9</ele>
        <time>2022-08-03T08:44:40Z</time>
      </trkpt>
      <trkpt lat="49.83789" lon="2.57875">
        <ele>77.9</ele>
        <time>2022-08-03T08:44:41Z</time>
      </trkpt>
      <trkpt lat="49.83791" lon="2.57875">
        <ele>78</ele>
        <time>2022-08-03T08:44:42Z</time>
      </trkpt>
      <trkpt lat="49.83792" lon="2.57875">
        <ele>78</ele>
        <time>2022-08-03T08:44:43Z</time>
      </trkpt>
      <trkpt lat="49.83793" lon="2.57875">
        <ele>78</ele>
        <time>2022-08-03T08:44:44Z</time>
      </trkpt>
      <trkpt lat="49.83793" lon="2.57874">
        <ele>78.1</ele>
        <time>2022-08-03T08:44:45Z</time>
      </trkpt>
      <trkpt lat="49.83795" lon="2.57874">
        <ele>78.1</ele>
        <time>2022-08-03T08:44:47Z</time>
      </trkpt>
      <trkpt lat="49.83796" lon="2.57874">
        <ele>78.1</ele>
        <time>2022-08-03T08:44:48Z</time>
      </trkpt>
      <trkpt lat="49.83797" lon="2.57874">
        <ele>78.2</ele>
        <time>2022-08-03T08:44:49Z</time>
      </trkpt>
      <trkpt lat="49.83798" lon="2.57874">
        <ele>78.2</ele>
        <time>2022-08-03T08:44:50Z</time>
      </trkpt>
      <trkpt lat="49.83799" lon="2.57874">
        <ele>78.2</ele>
        <time>2022-08-03T08:44:51Z</time>
      </trkpt>
      <trkpt lat="49.838" lon="2.57874">
        <ele>78.3</ele>
        <time>2022-08-03T08:44:52Z</time>
      </trkpt>
      <trkpt lat="49.83802" lon="2.57874">
        <ele>78.3</ele>
        <time>2022-08-03T08:44:53Z</time>
      </trkpt>
      <trkpt lat="49.83802" lon="2.57874">
        <ele>78.3</ele>
        <time>2022-08-03T08:44:55Z</time>
      </trkpt>
      <trkpt lat="49.83803" lon="2.57874">
        <ele>78.4</ele>
        <time>2022-08-03T08:44:56Z</time>
      </trkpt>
      <trkpt lat="49.83803" lon="2.57873">
        <ele>78.4</ele>
        <time>2022-08-03T08:44:57Z</time>
      </trkpt>
      <trkpt lat="49.83804" lon="2.57872">
        <ele>78.4</ele>
        <time>2022-08-03T08:44:58Z</time>
      </trkpt>
      <trkpt lat="49.83805" lon="2.57871">
        <ele>78.4</ele>
        <time>2022-08-03T08:44:59Z</time>
      </trkpt>
      <trkpt lat="49.83806" lon="2.5787">
        <ele>78.5</ele>
        <time>2022-08-03T08:45:00Z</time>
      </trkpt>
      <trkpt lat="49.83806" lon="2.57869">
        <ele>78.5</ele>
        <time>2022-08-03T08:45:01Z</time>
      </trkpt>
      <trkpt lat="49.83807" lon="2.57868">
        <ele>78.5</ele>
        <time>2022-08-03T08:45:03Z</time>
      </trkpt>
      <trkpt lat="49.83808" lon="2.57867">
        <ele>78.6</ele>
        <time>2022-08-03T08:45:04Z</time>
      </trkpt>
      <trkpt lat="49.83809" lon="2.57866">
        <ele>78.6</ele>
        <time>2022-08-03T08:45:05Z</time>
      </trkpt>
      <trkpt lat="49.8381" lon="2.57865">
        <ele>78.6</ele>
        <time>2022-08-03T08:45:06Z</time>
      </trkpt>
      <trkpt lat="49.83811" lon="2.57864">
        <ele>78.6</ele>
        <time>2022-08-03T08:45:07Z</time>
      </trkpt>
      <trkpt lat="49.83812" lon="2.57863">
        <ele>78.7</ele>
        <time>2022-08-03T08:45:08Z</time>
      </trkpt>
      <trkpt lat="49.83813" lon="2.57863">
        <ele>78.7</ele>
        <time>2022-08-03T08:45:10Z</time>
      </trkpt>
      <trkpt lat="49.83814" lon="2.57862">
        <ele>78.7</ele>
        <time>2022-08-03T08:45:11Z</time>
      </trkpt>
      <trkpt lat="49.83815" lon="2.57862">
        <ele>78.8</ele>
        <time>2022-08-03T08:45:12Z</time>
      </trkpt>
      <trkpt lat="49.83816" lon="2.57862">
        <ele>78.8</ele>
        <time>2022-08-03T08:45:13Z</time>
      </trkpt>
      <trkpt lat="49.83819" lon="2.57861">
        <ele>78.9</ele>
        <time>2022-08-03T08:45:14Z</time>
      </trkpt>
      <trkpt lat="49.83819" lon="2.57861">
        <ele>78.9</ele>
        <time>2022-08-03T08:45:15Z</time>
      </trkpt>
      <trkpt lat="49.8382" lon="2.57861">
        <ele>78.9</ele>
        <time>2022-08-03T08:45:16Z</time>
      </trkpt>
      <trkpt lat="49.83822" lon="2.57861">
        <ele>79</ele>
        <time>2022-08-03T08:45:18Z</time>
      </trkpt>
      <trkpt lat="49.83823" lon="2.57861">
        <ele>79</ele>
        <time>2022-08-03T08:45:19Z</time>
      </trkpt>
      <trkpt lat="49.83824" lon="2.57861">
        <ele>79</ele>
        <time>2022-08-03T08:45:20Z</time>
      </trkpt>
      <trkpt lat="49.83825" lon="2.57861">
        <ele>79.1</ele>
        <time>2022-08-03T08:45:21Z</time>
      </trkpt>
      <trkpt lat="49.83827" lon="2.57861">
        <ele>79.1</ele>
        <time>2022-08-03T08:45:22Z</time>
      </trkpt>
      <trkpt lat="49.83828" lon="2.57861">
        <ele>79.1</ele>
        <time>2022-08-03T08:45:23Z</time>
      </trkpt>
      <trkpt lat="49.8383" lon="2.57861">
        <ele>79.2</ele>
        <time>2022-08-03T08:45:25Z</time>
      </trkpt>
      <trkpt lat="49.8383" lon="2.5786">
        <ele>79.2</ele>
        <time>2022-08-03T08:45:26Z</time>
      </trkpt>
      <trkpt lat="49.83832" lon="2.5786">
        <ele>79.2</ele>
        <time>2022-08-03T08:45:27Z</time>
      </trkpt>
      <trkpt lat="49.83833" lon="2.5786">
        <ele>79.3</ele>
        <time>2022-08-03T08:45:29Z</time>
      </trkpt>
      <trkpt lat="49.83835" lon="2.5786">
        <ele>79.3</ele>
        <time>2022-08-03T08:45:30Z</time>
      </trkpt>
      <trkpt lat="49.83836" lon="2.5786">
        <ele>79.3</ele>
        <time>2022-08-03T08:45:31Z</time>
      </trkpt>
      <trkpt lat="49.83837" lon="2.5786">
        <ele>79.4</ele>
        <time>2022-08-03T08:45:32Z</time>
      </trkpt>
      <trkpt lat="49.83838" lon="2.57861">
        <ele>79.4</ele>
        <time>2022-08-03T08:45:33Z</time>
      </trkpt>
      <trkpt lat="49.8384" lon="2.5786">
        <ele>79.4</ele>
        <time>2022-08-03T08:45:34Z</time>
      </trkpt>
      <trkpt lat="49.83841" lon="2.5786">
        <ele>79.5</ele>
        <time>2022-08-03T08:45:36Z</time>
      </trkpt>
      <trkpt lat="49.83842" lon="2.5786">
        <ele>79.5</ele>
        <time>2022-08-03T08:45:37Z</time>
      </trkpt>
      <trkpt lat="49.83843" lon="2.5786">
        <ele>79.5</ele>
        <time>2022-08-03T08:45:38Z</time>
      </trkpt>
      <trkpt lat="49.83845" lon="2.5786">
        <ele>79.6</ele>
        <time>2022-08-03T08:45:39Z</time>
      </trkpt>
      <trkpt lat="49.83845" lon="2.5786">
        <ele>79.6</ele>
        <time>2022-08-03T08:45:40Z</time>
      </trkpt>
      <trkpt lat="49.83846" lon="2.5786">
        <ele>79.6</ele>
        <time>2022-08-03T08:45:42Z</time>
      </trkpt>
      <trkpt lat="49.83847" lon="2.5786">
        <ele>79.7</ele>
        <time>2022-08-03T08:45:43Z</time>
      </trkpt>
      <trkpt lat="49.83849" lon="2.5786">
        <ele>79.7</ele>
        <time>2022-08-03T08:45:44Z</time>
      </trkpt>
      <trkpt lat="49.8385" lon="2.5786">
        <ele>79.7</ele>
        <time>2022-08-03T08:45:45Z</time>
      </trkpt>
      <trkpt lat="49.83851" lon="2.5786">
        <ele>79.8</ele>
        <time>2022-08-03T08:45:46Z</time>
      </trkpt>
      <trkpt lat="49.83851" lon="2.5786">
        <ele>79.8</ele>
        <time>2022-08-03T08:45:47Z</time>
      </trkpt>
      <trkpt lat="49.83852" lon="2.5786">
        <ele>79.8</ele>
        <time>2022-08-03T08:45:49Z</time>
      </trkpt>
      <trkpt lat="49.83853" lon="2.57859">
        <ele>79.9</ele>
        <time>2022-08-03T08:45:50Z</time>
      </trkpt>
      <trkpt lat="49.83854" lon="2.57859">
        <ele>79.9</ele>
        <time>2022-08-03T08:45:51Z</time>
      </trkpt>
      <trkpt lat="49.83855" lon="2.57859">
        <ele>79.9</ele>
        <time>2022-08-03T08:45:53Z</time>
      </trkpt>
      <trkpt lat="49.83856" lon="2.57859">
        <ele>79.9</ele>
        <time>2022-08-03T08:45:54Z</time>
      </trkpt>
      <trkpt lat="49.83856" lon="2.5786">
        <ele>80</ele>
        <time>2022-08-03T08:45:55Z</time>
      </trkpt>
      <trkpt lat="49.83857" lon="2.5786">
        <ele>80</ele>
        <time>2022-08-03T08:45:56Z</time>
      </trkpt>
      <trkpt lat="49.83858" lon="2.5786">
        <ele>80</ele>
        <time>2022-08-03T08:45:57Z</time>
      </trkpt>
      <trkpt lat="49.83859" lon="2.5786">
        <ele>80.1</ele>
        <time>2022-08-03T08:45:59Z</time>
      </trkpt>
      <trkpt lat="49.83859" lon="2.5786">
        <ele>80.1</ele>
        <time>2022-08-03T08:46:00Z</time>
      </trkpt>
      <trkpt lat="49.8386" lon="2.5786">
        <ele>80.1</ele>
        <time>2022-08-03T08:46:01Z</time>
      </trkpt>
      <trkpt lat="49.8386" lon="2.5786">
        <ele>80.1</ele>
        <time>2022-08-03T08:46:02Z</time>
      </trkpt>
      <trkpt lat="49.83861" lon="2.5786">
        <ele>80.2</ele>
        <time>2022-08-03T08:46:03Z</time>
      </trkpt>
      <trkpt lat="49.83862" lon="2.5786">
        <ele>80.2</ele>
        <time>2022-08-03T08:46:04Z</time>
      </trkpt>
      <trkpt lat="49.83863" lon="2.57859">
        <ele>80.2</ele>
        <time>2022-08-03T08:46:05Z</time>
      </trkpt>
      <trkpt lat="49.83864" lon="2.57859">
        <ele>80.3</ele>
        <time>2022-08-03T08:46:06Z</time>
      </trkpt>
      <trkpt lat="49.83865" lon="2.57859">
        <ele>80.3</ele>
        <time>2022-08-03T08:46:07Z</time>
      </trkpt>
      <trkpt lat="49.83866" lon="2.57858">
        <ele>80.4</ele>
        <time>2022-08-03T08:46:09Z</time>
      </trkpt>
      <trkpt lat="49.83867" lon="2.57858">
        <ele>80.4</ele>
        <time>2022-08-03T08:46:10Z</time>
      </trkpt>
      <trkpt lat="49.83868" lon="2.57857">
        <ele>80.5</ele>
        <time>2022-08-03T08:46:11Z</time>
      </trkpt>
      <trkpt lat="49.83869" lon="2.57857">
        <ele>80.5</ele>
        <time>2022-08-03T08:46:12Z</time>
      </trkpt>
      <trkpt lat="49.8387" lon="2.57857">
        <ele>80.6</ele>
        <time>2022-08-03T08:46:13Z</time>
      </trkpt>
      <trkpt lat="49.83872" lon="2.57857">
        <ele>80.6</ele>
        <time>2022-08-03T08:46:15Z</time>
      </trkpt>
      <trkpt lat="49.83873" lon="2.57857">
        <ele>80.7</ele>
        <time>2022-08-03T08:46:16Z</time>
      </trkpt>
      <trkpt lat="49.83874" lon="2.57857">
        <ele>80.7</ele>
        <time>2022-08-03T08:46:17Z</time>
      </trkpt>
      <trkpt lat="49.83875" lon="2.57857">
        <ele>80.8</ele>
        <time>2022-08-03T08:46:19Z</time>
      </trkpt>
      <trkpt lat="49.83876" lon="2.57857">
        <ele>80.8</ele>
        <time>2022-08-03T08:46:20Z</time>
      </trkpt>
      <trkpt lat="49.83878" lon="2.57857">
        <ele>80.9</ele>
        <time>2022-08-03T08:46:21Z</time>
      </trkpt>
      <trkpt lat="49.83879" lon="2.57856">
        <ele>80.9</ele>
        <time>2022-08-03T08:46:22Z</time>
      </trkpt>
      <trkpt lat="49.83881" lon="2.57856">
        <ele>81</ele>
        <time>2022-08-03T08:46:23Z</time>
      </trkpt>
      <trkpt lat="49.83882" lon="2.57856">
        <ele>81.1</ele>
        <time>2022-08-03T08:46:25Z</time>
      </trkpt>
      <trkpt lat="49.83882" lon="2.57855">
        <ele>81.1</ele>
        <time>2022-08-03T08:46:26Z</time>
      </trkpt>
      <trkpt lat="49.83883" lon="2.57855">
        <ele>81.1</ele>
        <time>2022-08-03T08:46:27Z</time>
      </trkpt>
      <trkpt lat="49.83884" lon="2.57855">
        <ele>81.2</ele>
        <time>2022-08-03T08:46:28Z</time>
      </trkpt>
      <trkpt lat="49.83885" lon="2.57855">
        <ele>81.2</ele>
        <time>2022-08-03T08:46:29Z</time>
      </trkpt>
      <trkpt lat="49.83886" lon="2.57854">
        <ele>81.3</ele>
        <time>2022-08-03T08:46:31Z</time>
      </trkpt>
      <trkpt lat="49.83886" lon="2.57854">
        <ele>81.3</ele>
        <time>2022-08-03T08:46:32Z</time>
      </trkpt>
      <trkpt lat="49.83887" lon="2.57853">
        <ele>81.3</ele>
        <time>2022-08-03T08:46:33Z</time>
      </trkpt>
      <trkpt lat="49.83889" lon="2.57853">
        <ele>81.4</ele>
        <time>2022-08-03T08:46:35Z</time>
      </trkpt>
      <trkpt lat="49.83891" lon="2.57852">
        <ele>81.5</ele>
        <time>2022-08-03T08:46:36Z</time>
      </trkpt>
      <trkpt lat="49.83892" lon="2.57852">
        <ele>81.6</ele>
        <time>2022-08-03T08:46:37Z</time>
      </trkpt>
      <trkpt lat="49.83892" lon="2.57852">
        <ele>81.6</ele>
        <time>2022-08-03T08:46:38Z</time>
      </trkpt>
      <trkpt lat="49.83894" lon="2.57852">
        <ele>81.7</ele>
        <time>2022-08-03T08:46:39Z</time>
      </trkpt>
      <trkpt lat="49.83895" lon="2.57851">
        <ele>81.7</ele>
        <time>2022-08-03T08:46:40Z</time>
      </trkpt>
      <trkpt lat="49.83895" lon="2.57851">
        <ele>81.7</ele>
        <time>2022-08-03T08:46:42Z</time>
      </trkpt>
      <trkpt lat="49.83896" lon="2.57851">
        <ele>81.8</ele>
        <time>2022-08-03T08:46:43Z</time>
      </trkpt>
      <trkpt lat="49.83898" lon="2.57851">
        <ele>81.9</ele>
        <time>2022-08-03T08:46:44Z</time>
      </trkpt>
      <trkpt lat="49.83899" lon="2.5785">
        <ele>81.9</ele>
        <time>2022-08-03T08:46:45Z</time>
      </trkpt>
      <trkpt lat="49.839" lon="2.5785">
        <ele>82</ele>
        <time>2022-08-03T08:46:46Z</time>
      </trkpt>
      <trkpt lat="49.83902" lon="2.5785">
        <ele>82.1</ele>
        <time>2022-08-03T08:46:47Z</time>
      </trkpt>
      <trkpt lat="49.83903" lon="2.5785">
        <ele>82.1</ele>
        <time>2022-08-03T08:46:48Z</time>
      </trkpt>
      <trkpt lat="49.83905" lon="2.5785">
        <ele>82.2</ele>
        <time>2022-08-03T08:46:49Z</time>
      </trkpt>
      <trkpt lat="49.83905" lon="2.5785">
        <ele>82.2</ele>
        <time>2022-08-03T08:46:51Z</time>
      </trkpt>
      <trkpt lat="49.83905" lon="2.57849">
        <ele>82.3</ele>
        <time>2022-08-03T08:46:52Z</time>
      </trkpt>
      <trkpt lat="49.83907" lon="2.57849">
        <ele>82.3</ele>
        <time>2022-08-03T08:46:53Z</time>
      </trkpt>
      <trkpt lat="49.83908" lon="2.57849">
        <ele>82.4</ele>
        <time>2022-08-03T08:46:54Z</time>
      </trkpt>
      <trkpt lat="49.83909" lon="2.57849">
        <ele>82.4</ele>
        <time>2022-08-03T08:46:56Z</time>
      </trkpt>
      <trkpt lat="49.8391" lon="2.57849">
        <ele>82.5</ele>
        <time>2022-08-03T08:46:57Z</time>
      </trkpt>
      <trkpt lat="49.8391" lon="2.57849">
        <ele>82.5</ele>
        <time>2022-08-03T08:46:58Z</time>
      </trkpt>
      <trkpt lat="49.83911" lon="2.57848">
        <ele>82.5</ele>
        <time>2022-08-03T08:46:59Z</time>
      </trkpt>
      <trkpt lat="49.83912" lon="2.57848">
        <ele>82.6</ele>
        <time>2022-08-03T08:47:00Z</time>
      </trkpt>
      <trkpt lat="49.83913" lon="2.57848">
        <ele>82.6</ele>
        <time>2022-08-03T08:47:01Z</time>
      </trkpt>
      <trkpt lat="49.83914" lon="2.57848">
        <ele>82.7</ele>
        <time>2022-08-03T08:47:03Z</time>
      </trkpt>
      <trkpt lat="49.83915" lon="2.57848">
        <ele>82.7</ele>
        <time>2022-08-03T08:47:04Z</time>
      </trkpt>
      <trkpt lat="49.83915" lon="2.57848">
        <ele>82.7</ele>
        <time>2022-08-03T08:47:05Z</time>
      </trkpt>
      <trkpt lat="49.83916" lon="2.57848">
        <ele>82.8</ele>
        <time>2022-08-03T08:47:06Z</time>
      </trkpt>
      <trkpt lat="49.83917" lon="2.57847">
        <ele>82.8</ele>
        <time>2022-08-03T08:47:07Z</time>
      </trkpt>
      <trkpt lat="49.83918" lon="2.57847">
        <ele>82.9</ele>
        <time>2022-08-03T08:47:08Z</time>
      </trkpt>
      <trkpt lat="49.83919" lon="2.57847">
        <ele>82.9</ele>
        <time>2022-08-03T08:47:09Z</time>
      </trkpt>
      <trkpt lat="49.83919" lon="2.57847">
        <ele>82.9</ele>
        <time>2022-08-03T08:47:10Z</time>
      </trkpt>
      <trkpt lat="49.83921" lon="2.57847">
        <ele>83</ele>
        <time>2022-08-03T08:47:12Z</time>
      </trkpt>
      <trkpt lat="49.83922" lon="2.57847">
        <ele>83</ele>
        <time>2022-08-03T08:47:13Z</time>
      </trkpt>
      <trkpt lat="49.83922" lon="2.57846">
        <ele>83.1</ele>
        <time>2022-08-03T08:47:14Z</time>
      </trkpt>
      <trkpt lat="49.83923" lon="2.57846">
        <ele>83.1</ele>
        <time>2022-08-03T08:47:15Z</time>
      </trkpt>
      <trkpt lat="49.83924" lon="2.57846">
        <ele>83.1</ele>
        <time>2022-08-03T08:47:16Z</time>
      </trkpt>
      <trkpt lat="49.83925" lon="2.57846">
        <ele>83.2</ele>
        <time>2022-08-03T08:47:17Z</time>
      </trkpt>
      <trkpt lat="49.83926" lon="2.57846">
        <ele>83.2</ele>
        <time>2022-08-03T08:47:18Z</time>
      </trkpt>
      <trkpt lat="49.83927" lon="2.57846">
        <ele>83.3</ele>
        <time>2022-08-03T08:47:19Z</time>
      </trkpt>
      <trkpt lat="49.83928" lon="2.57846">
        <ele>83.3</ele>
        <time>2022-08-03T08:47:20Z</time>
      </trkpt>
      <trkpt lat="49.83929" lon="2.57846">
        <ele>83.4</ele>
        <time>2022-08-03T08:47:22Z</time>
      </trkpt>
      <trkpt lat="49.8393" lon="2.57846">
        <ele>83.4</ele>
        <time>2022-08-03T08:47:23Z</time>
      </trkpt>
      <trkpt lat="49.83931" lon="2.57845">
        <ele>83.5</ele>
        <time>2022-08-03T08:47:24Z</time>
      </trkpt>
      <trkpt lat="49.83931" lon="2.57845">
        <ele>83.5</ele>
        <time>2022-08-03T08:47:25Z</time>
      </trkpt>
      <trkpt lat="49.83933" lon="2.57845">
        <ele>83.6</ele>
        <time>2022-08-03T08:47:27Z</time>
      </trkpt>
      <trkpt lat="49.83933" lon="2.57845">
        <ele>83.6</ele>
        <time>2022-08-03T08:47:28Z</time>
      </trkpt>
      <trkpt lat="49.83934" lon="2.57845">
        <ele>83.6</ele>
        <time>2022-08-03T08:47:29Z</time>
      </trkpt>
      <trkpt lat="49.83935" lon="2.57845">
        <ele>83.7</ele>
        <time>2022-08-03T08:47:30Z</time>
      </trkpt>
      <trkpt lat="49.83936" lon="2.57844">
        <ele>83.7</ele>
        <time>2022-08-03T08:47:31Z</time>
      </trkpt>
      <trkpt lat="49.83937" lon="2.57844">
        <ele>83.8</ele>
        <time>2022-08-03T08:47:32Z</time>
      </trkpt>
      <trkpt lat="49.83937" lon="2.57843">
        <ele>83.8</ele>
        <time>2022-08-03T08:47:33Z</time>
      </trkpt>
      <trkpt lat="49.83938" lon="2.57843">
        <ele>83.8</ele>
        <time>2022-08-03T08:47:34Z</time>
      </trkpt>
      <trkpt lat="49.83939" lon="2.57843">
        <ele>83.8</ele>
        <time>2022-08-03T08:47:35Z</time>
      </trkpt>
      <trkpt lat="49.8394" lon="2.57843">
        <ele>83.9</ele>
        <time>2022-08-03T08:47:36Z</time>
      </trkpt>
      <trkpt lat="49.83941" lon="2.57844">
        <ele>83.9</ele>
        <time>2022-08-03T08:47:37Z</time>
      </trkpt>
      <trkpt lat="49.83942" lon="2.57844">
        <ele>84</ele>
        <time>2022-08-03T08:47:38Z</time>
      </trkpt>
      <trkpt lat="49.83943" lon="2.57844">
        <ele>84</ele>
        <time>2022-08-03T08:47:39Z</time>
      </trkpt>
      <trkpt lat="49.83944" lon="2.57845">
        <ele>84.1</ele>
        <time>2022-08-03T08:47:41Z</time>
      </trkpt>
      <trkpt lat="49.83945" lon="2.57845">
        <ele>84.1</ele>
        <time>2022-08-03T08:47:42Z</time>
      </trkpt>
      <trkpt lat="49.83945" lon="2.57845">
        <ele>84.2</ele>
        <time>2022-08-03T08:47:43Z</time>
      </trkpt>
      <trkpt lat="49.83946" lon="2.57846">
        <ele>84.2</ele>
        <time>2022-08-03T08:47:44Z</time>
      </trkpt>
      <trkpt lat="49.83946" lon="2.57846">
        <ele>84.2</ele>
        <time>2022-08-03T08:47:45Z</time>
      </trkpt>
      <trkpt lat="49.83946" lon="2.57847">
        <ele>84.2</ele>
        <time>2022-08-03T08:47:46Z</time>
      </trkpt>
      <trkpt lat="49.83945" lon="2.57848">
        <ele>84.3</ele>
        <time>2022-08-03T08:47:47Z</time>
      </trkpt>
      <trkpt lat="49.83944" lon="2.57849">
        <ele>84.3</ele>
        <time>2022-08-03T08:47:48Z</time>
      </trkpt>
      <trkpt lat="49.83944" lon="2.57849">
        <ele>84.4</ele>
        <time>2022-08-03T08:47:49Z</time>
      </trkpt>
      <trkpt lat="49.83944" lon="2.57849">
        <ele>84.4</ele>
        <time>2022-08-03T08:47:50Z</time>
      </trkpt>
      <trkpt lat="49.83943" lon="2.5785">
        <ele>84.4</ele>
        <time>2022-08-03T08:47:51Z</time>
      </trkpt>
      <trkpt lat="49.83944" lon="2.57851">
        <ele>84.4</ele>
        <time>2022-08-03T08:47:52Z</time>
      </trkpt>
      <trkpt lat="49.83944" lon="2.57852">
        <ele>84.5</ele>
        <time>2022-08-03T08:47:54Z</time>
      </trkpt>
      <trkpt lat="49.83945" lon="2.57853">
        <ele>84.5</ele>
        <time>2022-08-03T08:47:55Z</time>
      </trkpt>
      <trkpt lat="49.83946" lon="2.57856">
        <ele>84.6</ele>
        <time>2022-08-03T08:47:56Z</time>
      </trkpt>
      <trkpt lat="49.83946" lon="2.57858">
        <ele>84.7</ele>
        <time>2022-08-03T08:47:57Z</time>
      </trkpt>
      <trkpt lat="49.83946" lon="2.57859">
        <ele>84.7</ele>
        <time>2022-08-03T08:47:59Z</time>
      </trkpt>
      <trkpt lat="49.83945" lon="2.5786">
        <ele>84.8</ele>
        <time>2022-08-03T08:48:00Z</time>
      </trkpt>
      <trkpt lat="49.83945" lon="2.57861">
        <ele>84.8</ele>
        <time>2022-08-03T08:48:01Z</time>
      </trkpt>
      <trkpt lat="49.83944" lon="2.57861">
        <ele>84.8</ele>
        <time>2022-08-03T08:48:02Z</time>
      </trkpt>
      <trkpt lat="49.83943" lon="2.57861">
        <ele>84.9</ele>
        <time>2022-08-03T08:48:03Z</time>
      </trkpt>
      <trkpt lat="49.83943" lon="2.5786">
        <ele>84.9</ele>
        <time>2022-08-03T08:48:04Z</time>
      </trkpt>
      <trkpt lat="49.83943" lon="2.5786">
        <ele>84.9</ele>
        <time>2022-08-03T08:48:05Z</time>
      </trkpt>
      <trkpt lat="49.83943" lon="2.57859">
        <ele>84.9</ele>
        <time>2022-08-03T08:48:06Z</time>
      </trkpt>
      <trkpt lat="49.83943" lon="2.57859">
        <ele>84.9</ele>
        <time>2022-08-03T08:48:07Z</time>
      </trkpt>
      <trkpt lat="49.83943" lon="2.57859">
        <ele>84.9</ele>
        <time>2022-08-03T08:48:08Z</time>
      </trkpt>
      <trkpt lat="49.83943" lon="2.57858">
        <ele>84.9</ele>
        <time>2022-08-03T08:48:09Z</time>
      </trkpt>
      <trkpt lat="49.83943" lon="2.57858">
        <ele>84.9</ele>
        <time>2022-08-03T08:48:10Z</time>
      </trkpt>
      <trkpt lat="49.83943" lon="2.57858">
        <ele>85</ele>
        <time>2022-08-03T08:48:11Z</time>
      </trkpt>
      <trkpt lat="49.83943" lon="2.57857">
        <ele>85</ele>
        <time>2022-08-03T08:48:12Z</time>
      </trkpt>
      <trkpt lat="49.83943" lon="2.57857">
        <ele>85</ele>
        <time>2022-08-03T08:48:13Z</time>
      </trkpt>
      <trkpt lat="49.83943" lon="2.57856">
        <ele>85</ele>
        <time>2022-08-03T08:48:14Z</time>
      </trkpt>
      <trkpt lat="49.83943" lon="2.57856">
        <ele>85</ele>
        <time>2022-08-03T08:48:15Z</time>
      </trkpt>
      <trkpt lat="49.83943" lon="2.57856">
        <ele>85</ele>
        <time>2022-08-03T08:48:16Z</time>
      </trkpt>
      <trkpt lat="49.83943" lon="2.57855">
        <ele>85</ele>
        <time>2022-08-03T08:48:17Z</time>
      </trkpt>
      <trkpt lat="49.83943" lon="2.57855">
        <ele>85</ele>
        <time>2022-08-03T08:48:18Z</time>
      </trkpt>
      <trkpt lat="49.83942" lon="2.57855">
        <ele>85</ele>
        <time>2022-08-03T08:48:19Z</time>
      </trkpt>
      <trkpt lat="49.83942" lon="2.57855">
        <ele>85.1</ele>
        <time>2022-08-03T08:48:20Z</time>
      </trkpt>
      <trkpt lat="49.83942" lon="2.57854">
        <ele>85.1</ele>
        <time>2022-08-03T08:48:21Z</time>
      </trkpt>
      <trkpt lat="49.83942" lon="2.57854">
        <ele>85.1</ele>
        <time>2022-08-03T08:48:22Z</time>
      </trkpt>
      <trkpt lat="49.83942" lon="2.57854">
        <ele>85.1</ele>
        <time>2022-08-03T08:48:23Z</time>
      </trkpt>
      <trkpt lat="49.83942" lon="2.57854">
        <ele>85.1</ele>
        <time>2022-08-03T08:48:24Z</time>
      </trkpt>
      <trkpt lat="49.83942" lon="2.57854">
        <ele>85.1</ele>
        <time>2022-08-03T08:48:25Z</time>
      </trkpt>
      <trkpt lat="49.83942" lon="2.57854">
        <ele>85.1</ele>
        <time>2022-08-03T08:48:26Z</time>
      </trkpt>
      <trkpt lat="49.83942" lon="2.57854">
        <ele>85.1</ele>
        <time>2022-08-03T08:48:27Z</time>
      </trkpt>
      <trkpt lat="49.83942" lon="2.57854">
        <ele>85.1</ele>
        <time>2022-08-03T08:48:28Z</time>
      </trkpt>
      <trkpt lat="49.83942" lon="2.57854">
        <ele>85.1</ele>
        <time>2022-08-03T08:48:29Z</time>
      </trkpt>
      <trkpt lat="49.83942" lon="2.57854">
        <ele>85.1</ele>
        <time>2022-08-03T08:48:30Z</time>
      </trkpt>
      <trkpt lat="49.83942" lon="2.57854">
        <ele>85.1</ele>
        <time>2022-08-03T08:48:31Z</time>
      </trkpt>
      <trkpt lat="49.83942" lon="2.57854">
        <ele>85.1</ele>
        <time>2022-08-03T08:48:32Z</time>
      </trkpt>
      <trkpt lat="49.83942" lon="2.57854">
        <ele>85.1</ele>
        <time>2022-08-03T08:48:33Z</time>
      </trkpt>
      <trkpt lat="49.83942" lon="2.57854">
        <ele>85.1</ele>
        <time>2022-08-03T08:48:34Z</time>
      </trkpt>
      <trkpt lat="49.83942" lon="2.57854">
        <ele>85.1</ele>
        <time>2022-08-03T08:48:35Z</time>
      </trkpt>
      <trkpt lat="49.83942" lon="2.57854">
        <ele>85.1</ele>
        <time>2022-08-03T08:48:36Z</time>
      </trkpt>
      <trkpt lat="49.83942" lon="2.57854">
        <ele>85.1</ele>
        <time>2022-08-03T08:48:37Z</time>
      </trkpt>
      <trkpt lat="49.83942" lon="2.57854">
        <ele>85.1</ele>
        <time>2022-08-03T08:48:38Z</time>
      </trkpt>
      <trkpt lat="49.83942" lon="2.57854">
        <ele>85.1</ele>
        <time>2022-08-03T08:48:39Z</time>
      </trkpt>
      <trkpt lat="49.83942" lon="2.57854">
        <ele>85.1</ele>
        <time>2022-08-03T08:48:40Z</time>
      </trkpt>
      <trkpt lat="49.83942" lon="2.57854">
        <ele>85.1</ele>
        <time>2022-08-03T08:48:41Z</time>
      </trkpt>
      <trkpt lat="49.83942" lon="2.57854">
        <ele>85.1</ele>
        <time>2022-08-03T08:48:42Z</time>
      </trkpt>
      <trkpt lat="49.83942" lon="2.57854">
        <ele>85.1</ele>
        <time>2022-08-03T08:48:43Z</time>
      </trkpt>
      <trkpt lat="49.83942" lon="2.57854">
        <ele>85.1</ele>
        <time>2022-08-03T08:48:44Z</time>
      </trkpt>
      <trkpt lat="49.83942" lon="2.57854">
        <ele>85.1</ele>
        <time>2022-08-03T08:48:45Z</time>
      </trkpt>
      <trkpt lat="49.83942" lon="2.57854">
        <ele>85.1</ele>
        <time>2022-08-03T08:48:46Z</time>
      </trkpt>
      <trkpt lat="49.83945" lon="2.57851">
        <ele>85.2</ele>
        <time>2022-08-03T08:48:47Z</time>
      </trkpt>
      <trkpt lat="49.83946" lon="2.57851">
        <ele>85.2</ele>
        <time>2022-08-03T08:48:48Z</time>
      </trkpt>
      <trkpt lat="49.83946" lon="2.57851">
        <ele>85.3</ele>
        <time>2022-08-03T08:48:49Z</time>
      </trkpt>
      <trkpt lat="49.83946" lon="2.57852">
        <ele>85.3</ele>
        <time>2022-08-03T08:48:50Z</time>
      </trkpt>
      <trkpt lat="49.83946" lon="2.57852">
        <ele>85.3</ele>
        <time>2022-08-03T08:48:51Z</time>
      </trkpt>
      <trkpt lat="49.83946" lon="2.57853">
        <ele>85.3</ele>
        <time>2022-08-03T08:48:52Z</time>
      </trkpt>
      <trkpt lat="49.83945" lon="2.57852">
        <ele>85.3</ele>
        <time>2022-08-03T08:48:53Z</time>
      </trkpt>
      <trkpt lat="49.83945" lon="2.57852">
        <ele>85.3</ele>
        <time>2022-08-03T08:48:54Z</time>
      </trkpt>
      <trkpt lat="49.83945" lon="2.57852">
        <ele>85.3</ele>
        <time>2022-08-03T08:48:55Z</time>
      </trkpt>
      <trkpt lat="49.83946" lon="2.57853">
        <ele>85.4</ele>
        <time>2022-08-03T08:48:56Z</time>
      </trkpt>
      <trkpt lat="49.83947" lon="2.57855">
        <ele>85.4</ele>
        <time>2022-08-03T08:48:57Z</time>
      </trkpt>
      <trkpt lat="49.83947" lon="2.57854">
        <ele>85.4</ele>
        <time>2022-08-03T08:48:58Z</time>
      </trkpt>
      <trkpt lat="49.83947" lon="2.57855">
        <ele>85.5</ele>
        <time>2022-08-03T08:48:59Z</time>
      </trkpt>
      <trkpt lat="49.83948" lon="2.57855">
        <ele>85.5</ele>
        <time>2022-08-03T08:49:00Z</time>
      </trkpt>
      <trkpt lat="49.83948" lon="2.57856">
        <ele>85.5</ele>
        <time>2022-08-03T08:49:01Z</time>
      </trkpt>
      <trkpt lat="49.83949" lon="2.57856">
        <ele>85.5</ele>
        <time>2022-08-03T08:49:03Z</time>
      </trkpt>
      <trkpt lat="49.83949" lon="2.57856">
        <ele>85.5</ele>
        <time>2022-08-03T08:49:04Z</time>
      </trkpt>
      <trkpt lat="49.83949" lon="2.57856">
        <ele>85.5</ele>
        <time>2022-08-03T08:49:05Z</time>
      </trkpt>
      <trkpt lat="49.83949" lon="2.57856">
        <ele>85.5</ele>
        <time>2022-08-03T08:49:06Z</time>
      </trkpt>
      <trkpt lat="49.83949" lon="2.57856">
        <ele>85.5</ele>
        <time>2022-08-03T08:49:07Z</time>
      </trkpt>
      <trkpt lat="49.8395" lon="2.57856">
        <ele>85.6</ele>
        <time>2022-08-03T08:49:08Z</time>
      </trkpt>
      <trkpt lat="49.8395" lon="2.57856">
        <ele>85.6</ele>
        <time>2022-08-03T08:49:09Z</time>
      </trkpt>
      <trkpt lat="49.8395" lon="2.57856">
        <ele>85.6</ele>
        <time>2022-08-03T08:49:10Z</time>
      </trkpt>
      <trkpt lat="49.8395" lon="2.57856">
        <ele>85.6</ele>
        <time>2022-08-03T08:49:11Z</time>
      </trkpt>
      <trkpt lat="49.8395" lon="2.57856">
        <ele>85.6</ele>
        <time>2022-08-03T08:49:12Z</time>
      </trkpt>
      <trkpt lat="49.8395" lon="2.57856">
        <ele>85.6</ele>
        <time>2022-08-03T08:49:14Z</time>
      </trkpt>
      <trkpt lat="49.83951" lon="2.57856">
        <ele>85.6</ele>
        <time>2022-08-03T08:49:15Z</time>
      </trkpt>
      <trkpt lat="49.83951" lon="2.57855">
        <ele>85.6</ele>
        <time>2022-08-03T08:49:16Z</time>
      </trkpt>
      <trkpt lat="49.83952" lon="2.57855">
        <ele>85.6</ele>
        <time>2022-08-03T08:49:17Z</time>
      </trkpt>
      <trkpt lat="49.83952" lon="2.57854">
        <ele>85.7</ele>
        <time>2022-08-03T08:49:18Z</time>
      </trkpt>
      <trkpt lat="49.83952" lon="2.57854">
        <ele>85.7</ele>
        <time>2022-08-03T08:49:19Z</time>
      </trkpt>
      <trkpt lat="49.83952" lon="2.57855">
        <ele>85.7</ele>
        <time>2022-08-03T08:49:20Z</time>
      </trkpt>
      <trkpt lat="49.83952" lon="2.57855">
        <ele>85.7</ele>
        <time>2022-08-03T08:49:21Z</time>
      </trkpt>
      <trkpt lat="49.83952" lon="2.57855">
        <ele>85.7</ele>
        <time>2022-08-03T08:49:22Z</time>
      </trkpt>
      <trkpt lat="49.83952" lon="2.57855">
        <ele>85.7</ele>
        <time>2022-08-03T08:49:23Z</time>
      </trkpt>
      <trkpt lat="49.83952" lon="2.57855">
        <ele>85.7</ele>
        <time>2022-08-03T08:49:24Z</time>
      </trkpt>
      <trkpt lat="49.83952" lon="2.57855">
        <ele>85.7</ele>
        <time>2022-08-03T08:49:25Z</time>
      </trkpt>
      <trkpt lat="49.83952" lon="2.57855">
        <ele>85.7</ele>
        <time>2022-08-03T08:49:26Z</time>
      </trkpt>
      <trkpt lat="49.83952" lon="2.57855">
        <ele>85.7</ele>
        <time>2022-08-03T08:49:27Z</time>
      </trkpt>
      <trkpt lat="49.83952" lon="2.57854">
        <ele>85.7</ele>
        <time>2022-08-03T08:49:28Z</time>
      </trkpt>
      <trkpt lat="49.83952" lon="2.57854">
        <ele>85.7</ele>
        <time>2022-08-03T08:49:29Z</time>
      </trkpt>
      <trkpt lat="49.83952" lon="2.57854">
        <ele>85.7</ele>
        <time>2022-08-03T08:49:30Z</time>
      </trkpt>
      <trkpt lat="49.83952" lon="2.57854">
        <ele>85.7</ele>
        <time>2022-08-03T08:49:31Z</time>
      </trkpt>
      <trkpt lat="49.83952" lon="2.57854">
        <ele>85.7</ele>
        <time>2022-08-03T08:49:32Z</time>
      </trkpt>
      <trkpt lat="49.83952" lon="2.57854">
        <ele>85.7</ele>
        <time>2022-08-03T08:49:33Z</time>
      </trkpt>
      <trkpt lat="49.83952" lon="2.57854">
        <ele>85.7</ele>
        <time>2022-08-03T08:49:34Z</time>
      </trkpt>
      <trkpt lat="49.83952" lon="2.57854">
        <ele>85.7</ele>
        <time>2022-08-03T08:49:35Z</time>
      </trkpt>
      <trkpt lat="49.83952" lon="2.57854">
        <ele>85.7</ele>
        <time>2022-08-03T08:49:36Z</time>
      </trkpt>
      <trkpt lat="49.83952" lon="2.57854">
        <ele>85.7</ele>
        <time>2022-08-03T08:49:37Z</time>
      </trkpt>
      <trkpt lat="49.83952" lon="2.57854">
        <ele>85.7</ele>
        <time>2022-08-03T08:49:38Z</time>
      </trkpt>
      <trkpt lat="49.83951" lon="2.57854">
        <ele>85.7</ele>
        <time>2022-08-03T08:49:39Z</time>
      </trkpt>
      <trkpt lat="49.83951" lon="2.57853">
        <ele>85.7</ele>
        <time>2022-08-03T08:49:40Z</time>
      </trkpt>
      <trkpt lat="49.83951" lon="2.57853">
        <ele>85.7</ele>
        <time>2022-08-03T08:49:41Z</time>
      </trkpt>
      <trkpt lat="49.83951" lon="2.57853">
        <ele>85.7</ele>
        <time>2022-08-03T08:49:42Z</time>
      </trkpt>
      <trkpt lat="49.83951" lon="2.57853">
        <ele>85.8</ele>
        <time>2022-08-03T08:49:43Z</time>
      </trkpt>
      <trkpt lat="49.83951" lon="2.57853">
        <ele>85.8</ele>
        <time>2022-08-03T08:49:44Z</time>
      </trkpt>
      <trkpt lat="49.83951" lon="2.57853">
        <ele>85.8</ele>
        <time>2022-08-03T08:49:45Z</time>
      </trkpt>
      <trkpt lat="49.83951" lon="2.57853">
        <ele>85.8</ele>
        <time>2022-08-03T08:49:46Z</time>
      </trkpt>
      <trkpt lat="49.83951" lon="2.57853">
        <ele>85.8</ele>
        <time>2022-08-03T08:49:47Z</time>
      </trkpt>
      <trkpt lat="49.83951" lon="2.57853">
        <ele>85.8</ele>
        <time>2022-08-03T08:49:48Z</time>
      </trkpt>
      <trkpt lat="49.83951" lon="2.57853">
        <ele>85.8</ele>
        <time>2022-08-03T08:49:49Z</time>
      </trkpt>
      <trkpt lat="49.83951" lon="2.57853">
        <ele>85.8</ele>
        <time>2022-08-03T08:49:50Z</time>
      </trkpt>
      <trkpt lat="49.83951" lon="2.57853">
        <ele>85.8</ele>
        <time>2022-08-03T08:49:51Z</time>
      </trkpt>
      <trkpt lat="49.83951" lon="2.57852">
        <ele>85.8</ele>
        <time>2022-08-03T08:49:52Z</time>
      </trkpt>
      <trkpt lat="49.83951" lon="2.57852">
        <ele>85.8</ele>
        <time>2022-08-03T08:49:53Z</time>
      </trkpt>
      <trkpt lat="49.83951" lon="2.57852">
        <ele>85.8</ele>
        <time>2022-08-03T08:49:54Z</time>
      </trkpt>
      <trkpt lat="49.83951" lon="2.57852">
        <ele>85.8</ele>
        <time>2022-08-03T08:49:55Z</time>
      </trkpt>
      <trkpt lat="49.83951" lon="2.57852">
        <ele>85.8</ele>
        <time>2022-08-03T08:49:56Z</time>
      </trkpt>
      <trkpt lat="49.83951" lon="2.57852">
        <ele>85.8</ele>
        <time>2022-08-03T08:49:57Z</time>
      </trkpt>
      <trkpt lat="49.8395" lon="2.57852">
        <ele>85.8</ele>
        <time>2022-08-03T08:49:58Z</time>
      </trkpt>
      <trkpt lat="49.8395" lon="2.57852">
        <ele>85.8</ele>
        <time>2022-08-03T08:49:59Z</time>
      </trkpt>
      <trkpt lat="49.8395" lon="2.57852">
        <ele>85.8</ele>
        <time>2022-08-03T08:50:00Z</time>
      </trkpt>
      <trkpt lat="49.8395" lon="2.57852">
        <ele>85.8</ele>
        <time>2022-08-03T08:50:01Z</time>
      </trkpt>
      <trkpt lat="49.8395" lon="2.57852">
        <ele>85.8</ele>
        <time>2022-08-03T08:50:02Z</time>
      </trkpt>
      <trkpt lat="49.8395" lon="2.57851">
        <ele>85.8</ele>
        <time>2022-08-03T08:50:03Z</time>
      </trkpt>
      <trkpt lat="49.8395" lon="2.57851">
        <ele>85.8</ele>
        <time>2022-08-03T08:50:04Z</time>
      </trkpt>
      <trkpt lat="49.8395" lon="2.57851">
        <ele>85.8</ele>
        <time>2022-08-03T08:50:05Z</time>
      </trkpt>
      <trkpt lat="49.8395" lon="2.57851">
        <ele>85.8</ele>
        <time>2022-08-03T08:50:06Z</time>
      </trkpt>
      <trkpt lat="49.8395" lon="2.57851">
        <ele>85.8</ele>
        <time>2022-08-03T08:50:07Z</time>
      </trkpt>
      <trkpt lat="49.8395" lon="2.57851">
        <ele>85.8</ele>
        <time>2022-08-03T08:50:08Z</time>
      </trkpt>
      <trkpt lat="49.8395" lon="2.57851">
        <ele>85.8</ele>
        <time>2022-08-03T08:50:09Z</time>
      </trkpt>
      <trkpt lat="49.8395" lon="2.57851">
        <ele>85.8</ele>
        <time>2022-08-03T08:50:10Z</time>
      </trkpt>
      <trkpt lat="49.8395" lon="2.57851">
        <ele>85.8</ele>
        <time>2022-08-03T08:50:11Z</time>
      </trkpt>
      <trkpt lat="49.8395" lon="2.57851">
        <ele>85.8</ele>
        <time>2022-08-03T08:50:12Z</time>
      </trkpt>
      <trkpt lat="49.8395" lon="2.57851">
        <ele>85.8</ele>
        <time>2022-08-03T08:50:13Z</time>
      </trkpt>
      <trkpt lat="49.8395" lon="2.57851">
        <ele>85.8</ele>
        <time>2022-08-03T08:50:14Z</time>
      </trkpt>
      <trkpt lat="49.8395" lon="2.5785">
        <ele>85.9</ele>
        <time>2022-08-03T08:50:15Z</time>
      </trkpt>
      <trkpt lat="49.8395" lon="2.5785">
        <ele>85.9</ele>
        <time>2022-08-03T08:50:16Z</time>
      </trkpt>
      <trkpt lat="49.83949" lon="2.5785">
        <ele>85.9</ele>
        <time>2022-08-03T08:50:17Z</time>
      </trkpt>
      <trkpt lat="49.83949" lon="2.5785">
        <ele>85.9</ele>
        <time>2022-08-03T08:50:18Z</time>
      </trkpt>
      <trkpt lat="49.83949" lon="2.5785">
        <ele>85.9</ele>
        <time>2022-08-03T08:50:19Z</time>
      </trkpt>
      <trkpt lat="49.83949" lon="2.5785">
        <ele>85.9</ele>
        <time>2022-08-03T08:50:20Z</time>
      </trkpt>
      <trkpt lat="49.83949" lon="2.5785">
        <ele>85.9</ele>
        <time>2022-08-03T08:50:21Z</time>
      </trkpt>
      <trkpt lat="49.83949" lon="2.5785">
        <ele>85.9</ele>
        <time>2022-08-03T08:50:22Z</time>
      </trkpt>
      <trkpt lat="49.83949" lon="2.5785">
        <ele>85.9</ele>
        <time>2022-08-03T08:50:23Z</time>
      </trkpt>
      <trkpt lat="49.83948" lon="2.57848">
        <ele>85.9</ele>
        <time>2022-08-03T08:50:24Z</time>
      </trkpt>
      <trkpt lat="49.83948" lon="2.57848">
        <ele>85.9</ele>
        <time>2022-08-03T08:50:25Z</time>
      </trkpt>
      <trkpt lat="49.83949" lon="2.57847">
        <ele>85.9</ele>
        <time>2022-08-03T08:50:26Z</time>
      </trkpt>
      <trkpt lat="49.83949" lon="2.57848">
        <ele>86</ele>
        <time>2022-08-03T08:50:27Z</time>
      </trkpt>
      <trkpt lat="49.83951" lon="2.57848">
        <ele>86</ele>
        <time>2022-08-03T08:50:28Z</time>
      </trkpt>
      <trkpt lat="49.83952" lon="2.57848">
        <ele>86</ele>
        <time>2022-08-03T08:50:29Z</time>
      </trkpt>
      <trkpt lat="49.83953" lon="2.57848">
        <ele>86.1</ele>
        <time>2022-08-03T08:50:30Z</time>
      </trkpt>
      <trkpt lat="49.83953" lon="2.57849">
        <ele>86.1</ele>
        <time>2022-08-03T08:50:31Z</time>
      </trkpt>
      <trkpt lat="49.83953" lon="2.5785">
        <ele>86.1</ele>
        <time>2022-08-03T08:50:32Z</time>
      </trkpt>
      <trkpt lat="49.83953" lon="2.57849">
        <ele>86.1</ele>
        <time>2022-08-03T08:50:33Z</time>
      </trkpt>
      <trkpt lat="49.83954" lon="2.57849">
        <ele>86.1</ele>
        <time>2022-08-03T08:50:34Z</time>
      </trkpt>
      <trkpt lat="49.83956" lon="2.5785">
        <ele>86.2</ele>
        <time>2022-08-03T08:50:35Z</time>
      </trkpt>
      <trkpt lat="49.83958" lon="2.57851">
        <ele>86.3</ele>
        <time>2022-08-03T08:50:36Z</time>
      </trkpt>
      <trkpt lat="49.83959" lon="2.57851">
        <ele>86.3</ele>
        <time>2022-08-03T08:50:37Z</time>
      </trkpt>
      <trkpt lat="49.83961" lon="2.57852">
        <ele>86.4</ele>
        <time>2022-08-03T08:50:38Z</time>
      </trkpt>
      <trkpt lat="49.83963" lon="2.57853">
        <ele>86.4</ele>
        <time>2022-08-03T08:50:40Z</time>
      </trkpt>
      <trkpt lat="49.83964" lon="2.57854">
        <ele>86.4</ele>
        <time>2022-08-03T08:50:41Z</time>
      </trkpt>
      <trkpt lat="49.83966" lon="2.57854">
        <ele>86.5</ele>
        <time>2022-08-03T08:50:42Z</time>
      </trkpt>
      <trkpt lat="49.83968" lon="2.57853">
        <ele>86.5</ele>
        <time>2022-08-03T08:50:43Z</time>
      </trkpt>
      <trkpt lat="49.83969" lon="2.57853">
        <ele>86.6</ele>
        <time>2022-08-03T08:50:44Z</time>
      </trkpt>
      <trkpt lat="49.8397" lon="2.57853">
        <ele>86.6</ele>
        <time>2022-08-03T08:50:45Z</time>
      </trkpt>
      <trkpt lat="49.83972" lon="2.57852">
        <ele>86.6</ele>
        <time>2022-08-03T08:50:46Z</time>
      </trkpt>
      <trkpt lat="49.83973" lon="2.57852">
        <ele>86.7</ele>
        <time>2022-08-03T08:50:47Z</time>
      </trkpt>
      <trkpt lat="49.83973" lon="2.57852">
        <ele>86.7</ele>
        <time>2022-08-03T08:50:48Z</time>
      </trkpt>
      <trkpt lat="49.83974" lon="2.57853">
        <ele>86.7</ele>
        <time>2022-08-03T08:50:49Z</time>
      </trkpt>
      <trkpt lat="49.83975" lon="2.57853">
        <ele>86.7</ele>
        <time>2022-08-03T08:50:50Z</time>
      </trkpt>
      <trkpt lat="49.83977" lon="2.57853">
        <ele>86.8</ele>
        <time>2022-08-03T08:50:51Z</time>
      </trkpt>
      <trkpt lat="49.83978" lon="2.57854">
        <ele>86.8</ele>
        <time>2022-08-03T08:50:53Z</time>
      </trkpt>
      <trkpt lat="49.83979" lon="2.57854">
        <ele>86.8</ele>
        <time>2022-08-03T08:50:54Z</time>
      </trkpt>
      <trkpt lat="49.8398" lon="2.57854">
        <ele>86.8</ele>
        <time>2022-08-03T08:50:55Z</time>
      </trkpt>
      <trkpt lat="49.83982" lon="2.57855">
        <ele>86.9</ele>
        <time>2022-08-03T08:50:56Z</time>
      </trkpt>
      <trkpt lat="49.83983" lon="2.57855">
        <ele>86.9</ele>
        <time>2022-08-03T08:50:57Z</time>
      </trkpt>
      <trkpt lat="49.83983" lon="2.57855">
        <ele>86.9</ele>
        <time>2022-08-03T08:50:58Z</time>
      </trkpt>
      <trkpt lat="49.83985" lon="2.57856">
        <ele>87</ele>
        <time>2022-08-03T08:50:59Z</time>
      </trkpt>
      <trkpt lat="49.83986" lon="2.57857">
        <ele>87</ele>
        <time>2022-08-03T08:51:00Z</time>
      </trkpt>
      <trkpt lat="49.83987" lon="2.57857">
        <ele>87</ele>
        <time>2022-08-03T08:51:01Z</time>
      </trkpt>
      <trkpt lat="49.83988" lon="2.57858">
        <ele>87.1</ele>
        <time>2022-08-03T08:51:02Z</time>
      </trkpt>
      <trkpt lat="49.8399" lon="2.57859">
        <ele>87.1</ele>
        <time>2022-08-03T08:51:03Z</time>
      </trkpt>
      <trkpt lat="49.83991" lon="2.57861">
        <ele>87.2</ele>
        <time>2022-08-03T08:51:04Z</time>
      </trkpt>
      <trkpt lat="49.83992" lon="2.57861">
        <ele>87.2</ele>
        <time>2022-08-03T08:51:06Z</time>
      </trkpt>
      <trkpt lat="49.83993" lon="2.57861">
        <ele>87.2</ele>
        <time>2022-08-03T08:51:07Z</time>
      </trkpt>
      <trkpt lat="49.83995" lon="2.57863">
        <ele>87.3</ele>
        <time>2022-08-03T08:51:08Z</time>
      </trkpt>
      <trkpt lat="49.83996" lon="2.57863">
        <ele>87.3</ele>
        <time>2022-08-03T08:51:09Z</time>
      </trkpt>
      <trkpt lat="49.83997" lon="2.57863">
        <ele>87.3</ele>
        <time>2022-08-03T08:51:10Z</time>
      </trkpt>
      <trkpt lat="49.83998" lon="2.57864">
        <ele>87.3</ele>
        <time>2022-08-03T08:51:11Z</time>
      </trkpt>
      <trkpt lat="49.83999" lon="2.57864">
        <ele>87.4</ele>
        <time>2022-08-03T08:51:12Z</time>
      </trkpt>
      <trkpt lat="49.84001" lon="2.57865">
        <ele>87.4</ele>
        <time>2022-08-03T08:51:14Z</time>
      </trkpt>
      <trkpt lat="49.84002" lon="2.57866">
        <ele>87.4</ele>
        <time>2022-08-03T08:51:15Z</time>
      </trkpt>
      <trkpt lat="49.84003" lon="2.57866">
        <ele>87.5</ele>
        <time>2022-08-03T08:51:16Z</time>
      </trkpt>
      <trkpt lat="49.84005" lon="2.57867">
        <ele>87.5</ele>
        <time>2022-08-03T08:51:17Z</time>
      </trkpt>
      <trkpt lat="49.84006" lon="2.57867">
        <ele>87.5</ele>
        <time>2022-08-03T08:51:18Z</time>
      </trkpt>
      <trkpt lat="49.84006" lon="2.57867">
        <ele>87.6</ele>
        <time>2022-08-03T08:51:19Z</time>
      </trkpt>
      <trkpt lat="49.84008" lon="2.57868">
        <ele>87.6</ele>
        <time>2022-08-03T08:51:20Z</time>
      </trkpt>
      <trkpt lat="49.84009" lon="2.57868">
        <ele>87.6</ele>
        <time>2022-08-03T08:51:21Z</time>
      </trkpt>
      <trkpt lat="49.8401" lon="2.57868">
        <ele>87.6</ele>
        <time>2022-08-03T08:51:22Z</time>
      </trkpt>
      <trkpt lat="49.84012" lon="2.57868">
        <ele>87.7</ele>
        <time>2022-08-03T08:51:23Z</time>
      </trkpt>
      <trkpt lat="49.84013" lon="2.57868">
        <ele>87.7</ele>
        <time>2022-08-03T08:51:25Z</time>
      </trkpt>
      <trkpt lat="49.84014" lon="2.57868">
        <ele>87.7</ele>
        <time>2022-08-03T08:51:26Z</time>
      </trkpt>
      <trkpt lat="49.84015" lon="2.57867">
        <ele>87.8</ele>
        <time>2022-08-03T08:51:27Z</time>
      </trkpt>
      <trkpt lat="49.84016" lon="2.57867">
        <ele>87.8</ele>
        <time>2022-08-03T08:51:28Z</time>
      </trkpt>
      <trkpt lat="49.84017" lon="2.57867">
        <ele>87.8</ele>
        <time>2022-08-03T08:51:29Z</time>
      </trkpt>
      <trkpt lat="49.84019" lon="2.57868">
        <ele>87.9</ele>
        <time>2022-08-03T08:51:31Z</time>
      </trkpt>
      <trkpt lat="49.8402" lon="2.57868">
        <ele>87.9</ele>
        <time>2022-08-03T08:51:32Z</time>
      </trkpt>
      <trkpt lat="49.84021" lon="2.57868">
        <ele>87.9</ele>
        <time>2022-08-03T08:51:33Z</time>
      </trkpt>
      <trkpt lat="49.84022" lon="2.57868">
        <ele>88</ele>
        <time>2022-08-03T08:51:34Z</time>
      </trkpt>
      <trkpt lat="49.84023" lon="2.57868">
        <ele>88</ele>
        <time>2022-08-03T08:51:35Z</time>
      </trkpt>
      <trkpt lat="49.84025" lon="2.57869">
        <ele>88</ele>
        <time>2022-08-03T08:51:36Z</time>
      </trkpt>
      <trkpt lat="49.84026" lon="2.57869">
        <ele>88.1</ele>
        <time>2022-08-03T08:51:38Z</time>
      </trkpt>
      <trkpt lat="49.84027" lon="2.57869">
        <ele>88.1</ele>
        <time>2022-08-03T08:51:39Z</time>
      </trkpt>
      <trkpt lat="49.84029" lon="2.57869">
        <ele>88.1</ele>
        <time>2022-08-03T08:51:40Z</time>
      </trkpt>
      <trkpt lat="49.8403" lon="2.57869">
        <ele>88.1</ele>
        <time>2022-08-03T08:51:42Z</time>
      </trkpt>
      <trkpt lat="49.84031" lon="2.57869">
        <ele>88.2</ele>
        <time>2022-08-03T08:51:43Z</time>
      </trkpt>
      <trkpt lat="49.84032" lon="2.5787">
        <ele>88.2</ele>
        <time>2022-08-03T08:51:44Z</time>
      </trkpt>
      <trkpt lat="49.84033" lon="2.5787">
        <ele>88.2</ele>
        <time>2022-08-03T08:51:45Z</time>
      </trkpt>
      <trkpt lat="49.84033" lon="2.57871">
        <ele>88.2</ele>
        <time>2022-08-03T08:51:47Z</time>
      </trkpt>
      <trkpt lat="49.84034" lon="2.57871">
        <ele>88.3</ele>
        <time>2022-08-03T08:51:48Z</time>
      </trkpt>
      <trkpt lat="49.84036" lon="2.57872">
        <ele>88.3</ele>
        <time>2022-08-03T08:51:49Z</time>
      </trkpt>
      <trkpt lat="49.84037" lon="2.57873">
        <ele>88.3</ele>
        <time>2022-08-03T08:51:50Z</time>
      </trkpt>
      <trkpt lat="49.84038" lon="2.57873">
        <ele>88.3</ele>
        <time>2022-08-03T08:51:51Z</time>
      </trkpt>
      <trkpt lat="49.84039" lon="2.57873">
        <ele>88.4</ele>
        <time>2022-08-03T08:51:52Z</time>
      </trkpt>
      <trkpt lat="49.8404" lon="2.57874">
        <ele>88.4</ele>
        <time>2022-08-03T08:51:53Z</time>
      </trkpt>
      <trkpt lat="49.84041" lon="2.57874">
        <ele>88.4</ele>
        <time>2022-08-03T08:51:55Z</time>
      </trkpt>
      <trkpt lat="49.84042" lon="2.57875">
        <ele>88.4</ele>
        <time>2022-08-03T08:51:56Z</time>
      </trkpt>
      <trkpt lat="49.84043" lon="2.57875">
        <ele>88.4</ele>
        <time>2022-08-03T08:51:57Z</time>
      </trkpt>
      <trkpt lat="49.84044" lon="2.57875">
        <ele>88.4</ele>
        <time>2022-08-03T08:51:58Z</time>
      </trkpt>
      <trkpt lat="49.84046" lon="2.57876">
        <ele>88.4</ele>
        <time>2022-08-03T08:51:59Z</time>
      </trkpt>
      <trkpt lat="49.84047" lon="2.57876">
        <ele>88.4</ele>
        <time>2022-08-03T08:52:00Z</time>
      </trkpt>
      <trkpt lat="49.84048" lon="2.57876">
        <ele>88.4</ele>
        <time>2022-08-03T08:52:01Z</time>
      </trkpt>
      <trkpt lat="49.8405" lon="2.57876">
        <ele>88.4</ele>
        <time>2022-08-03T08:52:02Z</time>
      </trkpt>
      <trkpt lat="49.84051" lon="2.57877">
        <ele>88.5</ele>
        <time>2022-08-03T08:52:03Z</time>
      </trkpt>
      <trkpt lat="49.84052" lon="2.57877">
        <ele>88.5</ele>
        <time>2022-08-03T08:52:04Z</time>
      </trkpt>
      <trkpt lat="49.84053" lon="2.57878">
        <ele>88.5</ele>
        <time>2022-08-03T08:52:05Z</time>
      </trkpt>
      <trkpt lat="49.84055" lon="2.57878">
        <ele>88.5</ele>
        <time>2022-08-03T08:52:07Z</time>
      </trkpt>
      <trkpt lat="49.84056" lon="2.57878">
        <ele>88.5</ele>
        <time>2022-08-03T08:52:08Z</time>
      </trkpt>
      <trkpt lat="49.84058" lon="2.57879">
        <ele>88.6</ele>
        <time>2022-08-03T08:52:09Z</time>
      </trkpt>
      <trkpt lat="49.8406" lon="2.57879">
        <ele>88.6</ele>
        <time>2022-08-03T08:52:11Z</time>
      </trkpt>
      <trkpt lat="49.84061" lon="2.57879">
        <ele>88.6</ele>
        <time>2022-08-03T08:52:12Z</time>
      </trkpt>
      <trkpt lat="49.84063" lon="2.57879">
        <ele>88.6</ele>
        <time>2022-08-03T08:52:13Z</time>
      </trkpt>
      <trkpt lat="49.84064" lon="2.57879">
        <ele>88.7</ele>
        <time>2022-08-03T08:52:14Z</time>
      </trkpt>
      <trkpt lat="49.84066" lon="2.57879">
        <ele>88.7</ele>
        <time>2022-08-03T08:52:15Z</time>
      </trkpt>
      <trkpt lat="49.84068" lon="2.57879">
        <ele>88.7</ele>
        <time>2022-08-03T08:52:16Z</time>
      </trkpt>
      <trkpt lat="49.84069" lon="2.57879">
        <ele>88.8</ele>
        <time>2022-08-03T08:52:18Z</time>
      </trkpt>
      <trkpt lat="49.84071" lon="2.5788">
        <ele>88.8</ele>
        <time>2022-08-03T08:52:19Z</time>
      </trkpt>
      <trkpt lat="49.84072" lon="2.5788">
        <ele>88.8</ele>
        <time>2022-08-03T08:52:20Z</time>
      </trkpt>
      <trkpt lat="49.84073" lon="2.5788">
        <ele>88.8</ele>
        <time>2022-08-03T08:52:21Z</time>
      </trkpt>
      <trkpt lat="49.84074" lon="2.5788">
        <ele>88.9</ele>
        <time>2022-08-03T08:52:22Z</time>
      </trkpt>
      <trkpt lat="49.84075" lon="2.5788">
        <ele>88.9</ele>
        <time>2022-08-03T08:52:24Z</time>
      </trkpt>
      <trkpt lat="49.84077" lon="2.57881">
        <ele>88.9</ele>
        <time>2022-08-03T08:52:25Z</time>
      </trkpt>
      <trkpt lat="49.84078" lon="2.57881">
        <ele>89</ele>
        <time>2022-08-03T08:52:26Z</time>
      </trkpt>
      <trkpt lat="49.8408" lon="2.57882">
        <ele>89</ele>
        <time>2022-08-03T08:52:27Z</time>
      </trkpt>
      <trkpt lat="49.84081" lon="2.57882">
        <ele>89</ele>
        <time>2022-08-03T08:52:28Z</time>
      </trkpt>
      <trkpt lat="49.84082" lon="2.57882">
        <ele>89.1</ele>
        <time>2022-08-03T08:52:29Z</time>
      </trkpt>
      <trkpt lat="49.84083" lon="2.57882">
        <ele>89.1</ele>
        <time>2022-08-03T08:52:30Z</time>
      </trkpt>
      <trkpt lat="49.84085" lon="2.57883">
        <ele>89.1</ele>
        <time>2022-08-03T08:52:31Z</time>
      </trkpt>
      <trkpt lat="49.84086" lon="2.57883">
        <ele>89.2</ele>
        <time>2022-08-03T08:52:33Z</time>
      </trkpt>
      <trkpt lat="49.84087" lon="2.57883">
        <ele>89.2</ele>
        <time>2022-08-03T08:52:34Z</time>
      </trkpt>
      <trkpt lat="49.84088" lon="2.57883">
        <ele>89.2</ele>
        <time>2022-08-03T08:52:35Z</time>
      </trkpt>
      <trkpt lat="49.84089" lon="2.57883">
        <ele>89.2</ele>
        <time>2022-08-03T08:52:36Z</time>
      </trkpt>
      <trkpt lat="49.8409" lon="2.57884">
        <ele>89.3</ele>
        <time>2022-08-03T08:52:37Z</time>
      </trkpt>
      <trkpt lat="49.84091" lon="2.57884">
        <ele>89.3</ele>
        <time>2022-08-03T08:52:38Z</time>
      </trkpt>
      <trkpt lat="49.84093" lon="2.57884">
        <ele>89.4</ele>
        <time>2022-08-03T08:52:39Z</time>
      </trkpt>
      <trkpt lat="49.84093" lon="2.57884">
        <ele>89.4</ele>
        <time>2022-08-03T08:52:40Z</time>
      </trkpt>
      <trkpt lat="49.84094" lon="2.57884">
        <ele>89.4</ele>
        <time>2022-08-03T08:52:41Z</time>
      </trkpt>
      <trkpt lat="49.84096" lon="2.57885">
        <ele>89.5</ele>
        <time>2022-08-03T08:52:42Z</time>
      </trkpt>
      <trkpt lat="49.84097" lon="2.57885">
        <ele>89.5</ele>
        <time>2022-08-03T08:52:44Z</time>
      </trkpt>
      <trkpt lat="49.84098" lon="2.57886">
        <ele>89.6</ele>
        <time>2022-08-03T08:52:45Z</time>
      </trkpt>
      <trkpt lat="49.84099" lon="2.57886">
        <ele>89.6</ele>
        <time>2022-08-03T08:52:46Z</time>
      </trkpt>
      <trkpt lat="49.841" lon="2.57886">
        <ele>89.6</ele>
        <time>2022-08-03T08:52:47Z</time>
      </trkpt>
      <trkpt lat="49.84101" lon="2.57887">
        <ele>89.7</ele>
        <time>2022-08-03T08:52:48Z</time>
      </trkpt>
      <trkpt lat="49.84103" lon="2.57887">
        <ele>89.7</ele>
        <time>2022-08-03T08:52:49Z</time>
      </trkpt>
      <trkpt lat="49.84104" lon="2.57887">
        <ele>89.8</ele>
        <time>2022-08-03T08:52:50Z</time>
      </trkpt>
      <trkpt lat="49.84105" lon="2.57887">
        <ele>89.8</ele>
        <time>2022-08-03T08:52:51Z</time>
      </trkpt>
      <trkpt lat="49.84105" lon="2.57887">
        <ele>89.8</ele>
        <time>2022-08-03T08:52:52Z</time>
      </trkpt>
      <trkpt lat="49.84107" lon="2.57888">
        <ele>89.9</ele>
        <time>2022-08-03T08:52:53Z</time>
      </trkpt>
      <trkpt lat="49.84108" lon="2.57888">
        <ele>89.9</ele>
        <time>2022-08-03T08:52:54Z</time>
      </trkpt>
      <trkpt lat="49.84109" lon="2.57889">
        <ele>90</ele>
        <time>2022-08-03T08:52:56Z</time>
      </trkpt>
      <trkpt lat="49.8411" lon="2.57889">
        <ele>90</ele>
        <time>2022-08-03T08:52:57Z</time>
      </trkpt>
      <trkpt lat="49.84111" lon="2.5789">
        <ele>90.1</ele>
        <time>2022-08-03T08:52:58Z</time>
      </trkpt>
      <trkpt lat="49.84113" lon="2.57891">
        <ele>90.2</ele>
        <time>2022-08-03T08:52:59Z</time>
      </trkpt>
      <trkpt lat="49.84115" lon="2.57892">
        <ele>90.2</ele>
        <time>2022-08-03T08:53:00Z</time>
      </trkpt>
      <trkpt lat="49.84116" lon="2.57892">
        <ele>90.3</ele>
        <time>2022-08-03T08:53:01Z</time>
      </trkpt>
      <trkpt lat="49.84116" lon="2.57892">
        <ele>90.3</ele>
        <time>2022-08-03T08:53:02Z</time>
      </trkpt>
      <trkpt lat="49.84118" lon="2.57893">
        <ele>90.3</ele>
        <time>2022-08-03T08:53:03Z</time>
      </trkpt>
      <trkpt lat="49.84118" lon="2.57893">
        <ele>90.4</ele>
        <time>2022-08-03T08:53:04Z</time>
      </trkpt>
      <trkpt lat="49.8412" lon="2.57893">
        <ele>90.4</ele>
        <time>2022-08-03T08:53:05Z</time>
      </trkpt>
      <trkpt lat="49.84122" lon="2.57894">
        <ele>90.5</ele>
        <time>2022-08-03T08:53:06Z</time>
      </trkpt>
      <trkpt lat="49.84123" lon="2.57894">
        <ele>90.6</ele>
        <time>2022-08-03T08:53:08Z</time>
      </trkpt>
      <trkpt lat="49.84124" lon="2.57894">
        <ele>90.6</ele>
        <time>2022-08-03T08:53:09Z</time>
      </trkpt>
      <trkpt lat="49.84125" lon="2.57893">
        <ele>90.6</ele>
        <time>2022-08-03T08:53:10Z</time>
      </trkpt>
      <trkpt lat="49.84126" lon="2.57894">
        <ele>90.7</ele>
        <time>2022-08-03T08:53:11Z</time>
      </trkpt>
      <trkpt lat="49.84127" lon="2.57894">
        <ele>90.7</ele>
        <time>2022-08-03T08:53:12Z</time>
      </trkpt>
      <trkpt lat="49.84129" lon="2.57895">
        <ele>90.8</ele>
        <time>2022-08-03T08:53:13Z</time>
      </trkpt>
      <trkpt lat="49.8413" lon="2.57895">
        <ele>90.9</ele>
        <time>2022-08-03T08:53:14Z</time>
      </trkpt>
      <trkpt lat="49.84131" lon="2.57895">
        <ele>90.9</ele>
        <time>2022-08-03T08:53:15Z</time>
      </trkpt>
      <trkpt lat="49.84132" lon="2.57895">
        <ele>90.9</ele>
        <time>2022-08-03T08:53:16Z</time>
      </trkpt>
      <trkpt lat="49.84133" lon="2.57896">
        <ele>91</ele>
        <time>2022-08-03T08:53:17Z</time>
      </trkpt>
      <trkpt lat="49.84134" lon="2.57896">
        <ele>91</ele>
        <time>2022-08-03T08:53:18Z</time>
      </trkpt>
      <trkpt lat="49.84137" lon="2.57896">
        <ele>91.1</ele>
        <time>2022-08-03T08:53:19Z</time>
      </trkpt>
      <trkpt lat="49.84137" lon="2.57896">
        <ele>91.2</ele>
        <time>2022-08-03T08:53:21Z</time>
      </trkpt>
      <trkpt lat="49.84138" lon="2.57896">
        <ele>91.2</ele>
        <time>2022-08-03T08:53:22Z</time>
      </trkpt>
      <trkpt lat="49.84139" lon="2.57896">
        <ele>91.2</ele>
        <time>2022-08-03T08:53:23Z</time>
      </trkpt>
      <trkpt lat="49.84141" lon="2.57896">
        <ele>91.3</ele>
        <time>2022-08-03T08:53:24Z</time>
      </trkpt>
      <trkpt lat="49.84142" lon="2.57897">
        <ele>91.3</ele>
        <time>2022-08-03T08:53:25Z</time>
      </trkpt>
      <trkpt lat="49.84143" lon="2.57897">
        <ele>91.4</ele>
        <time>2022-08-03T08:53:26Z</time>
      </trkpt>
      <trkpt lat="49.84144" lon="2.57897">
        <ele>91.4</ele>
        <time>2022-08-03T08:53:27Z</time>
      </trkpt>
      <trkpt lat="49.84145" lon="2.57898">
        <ele>91.5</ele>
        <time>2022-08-03T08:53:28Z</time>
      </trkpt>
      <trkpt lat="49.84146" lon="2.57898">
        <ele>91.5</ele>
        <time>2022-08-03T08:53:29Z</time>
      </trkpt>
      <trkpt lat="49.84147" lon="2.57898">
        <ele>91.5</ele>
        <time>2022-08-03T08:53:30Z</time>
      </trkpt>
      <trkpt lat="49.84148" lon="2.57898">
        <ele>91.6</ele>
        <time>2022-08-03T08:53:31Z</time>
      </trkpt>
      <trkpt lat="49.84151" lon="2.57898">
        <ele>91.6</ele>
        <time>2022-08-03T08:53:33Z</time>
      </trkpt>
      <trkpt lat="49.84152" lon="2.57898">
        <ele>91.7</ele>
        <time>2022-08-03T08:53:34Z</time>
      </trkpt>
      <trkpt lat="49.84153" lon="2.57898">
        <ele>91.7</ele>
        <time>2022-08-03T08:53:35Z</time>
      </trkpt>
      <trkpt lat="49.84154" lon="2.57898">
        <ele>91.7</ele>
        <time>2022-08-03T08:53:36Z</time>
      </trkpt>
      <trkpt lat="49.84155" lon="2.57897">
        <ele>91.8</ele>
        <time>2022-08-03T08:53:37Z</time>
      </trkpt>
      <trkpt lat="49.84157" lon="2.57897">
        <ele>91.8</ele>
        <time>2022-08-03T08:53:38Z</time>
      </trkpt>
      <trkpt lat="49.84159" lon="2.57897">
        <ele>91.8</ele>
        <time>2022-08-03T08:53:40Z</time>
      </trkpt>
      <trkpt lat="49.8416" lon="2.57897">
        <ele>91.9</ele>
        <time>2022-08-03T08:53:41Z</time>
      </trkpt>
      <trkpt lat="49.84161" lon="2.57897">
        <ele>91.9</ele>
        <time>2022-08-03T08:53:42Z</time>
      </trkpt>
      <trkpt lat="49.84163" lon="2.57897">
        <ele>91.9</ele>
        <time>2022-08-03T08:53:43Z</time>
      </trkpt>
      <trkpt lat="49.84165" lon="2.57896">
        <ele>91.9</ele>
        <time>2022-08-03T08:53:44Z</time>
      </trkpt>
      <trkpt lat="49.84166" lon="2.57896">
        <ele>92</ele>
        <time>2022-08-03T08:53:45Z</time>
      </trkpt>
      <trkpt lat="49.84167" lon="2.57895">
        <ele>92</ele>
        <time>2022-08-03T08:53:46Z</time>
      </trkpt>
      <trkpt lat="49.8417" lon="2.57894">
        <ele>92</ele>
        <time>2022-08-03T08:53:48Z</time>
      </trkpt>
      <trkpt lat="49.84171" lon="2.57894">
        <ele>92</ele>
        <time>2022-08-03T08:53:49Z</time>
      </trkpt>
      <trkpt lat="49.84172" lon="2.57894">
        <ele>92</ele>
        <time>2022-08-03T08:53:51Z</time>
      </trkpt>
      <trkpt lat="49.84173" lon="2.57894">
        <ele>92</ele>
        <time>2022-08-03T08:53:52Z</time>
      </trkpt>
      <trkpt lat="49.84174" lon="2.57894">
        <ele>92.1</ele>
        <time>2022-08-03T08:53:53Z</time>
      </trkpt>
      <trkpt lat="49.84175" lon="2.57893">
        <ele>92.1</ele>
        <time>2022-08-03T08:53:54Z</time>
      </trkpt>
      <trkpt lat="49.84178" lon="2.57893">
        <ele>92.1</ele>
        <time>2022-08-03T08:53:55Z</time>
      </trkpt>
      <trkpt lat="49.84179" lon="2.57893">
        <ele>92.1</ele>
        <time>2022-08-03T08:53:56Z</time>
      </trkpt>
      <trkpt lat="49.8418" lon="2.57893">
        <ele>92.1</ele>
        <time>2022-08-03T08:53:57Z</time>
      </trkpt>
      <trkpt lat="49.84181" lon="2.57892">
        <ele>92.2</ele>
        <time>2022-08-03T08:53:58Z</time>
      </trkpt>
      <trkpt lat="49.84183" lon="2.57891">
        <ele>92.2</ele>
        <time>2022-08-03T08:53:59Z</time>
      </trkpt>
      <trkpt lat="49.84185" lon="2.57891">
        <ele>92.2</ele>
        <time>2022-08-03T08:54:00Z</time>
      </trkpt>
      <trkpt lat="49.84186" lon="2.57891">
        <ele>92.2</ele>
        <time>2022-08-03T08:54:02Z</time>
      </trkpt>
      <trkpt lat="49.84187" lon="2.57891">
        <ele>92.2</ele>
        <time>2022-08-03T08:54:03Z</time>
      </trkpt>
      <trkpt lat="49.84188" lon="2.5789">
        <ele>92.2</ele>
        <time>2022-08-03T08:54:04Z</time>
      </trkpt>
      <trkpt lat="49.8419" lon="2.5789">
        <ele>92.3</ele>
        <time>2022-08-03T08:54:05Z</time>
      </trkpt>
      <trkpt lat="49.84191" lon="2.5789">
        <ele>92.3</ele>
        <time>2022-08-03T08:54:06Z</time>
      </trkpt>
      <trkpt lat="49.84193" lon="2.57889">
        <ele>92.3</ele>
        <time>2022-08-03T08:54:08Z</time>
      </trkpt>
      <trkpt lat="49.84195" lon="2.57889">
        <ele>92.3</ele>
        <time>2022-08-03T08:54:09Z</time>
      </trkpt>
      <trkpt lat="49.84196" lon="2.57889">
        <ele>92.4</ele>
        <time>2022-08-03T08:54:10Z</time>
      </trkpt>
      <trkpt lat="49.84197" lon="2.57889">
        <ele>92.4</ele>
        <time>2022-08-03T08:54:11Z</time>
      </trkpt>
      <trkpt lat="49.84199" lon="2.57888">
        <ele>92.4</ele>
        <time>2022-08-03T08:54:13Z</time>
      </trkpt>
      <trkpt lat="49.842" lon="2.57888">
        <ele>92.4</ele>
        <time>2022-08-03T08:54:14Z</time>
      </trkpt>
      <trkpt lat="49.84201" lon="2.57887">
        <ele>92.4</ele>
        <time>2022-08-03T08:54:15Z</time>
      </trkpt>
      <trkpt lat="49.84202" lon="2.57887">
        <ele>92.4</ele>
        <time>2022-08-03T08:54:16Z</time>
      </trkpt>
      <trkpt lat="49.84203" lon="2.57886">
        <ele>92.4</ele>
        <time>2022-08-03T08:54:17Z</time>
      </trkpt>
      <trkpt lat="49.84205" lon="2.57885">
        <ele>92.4</ele>
        <time>2022-08-03T08:54:18Z</time>
      </trkpt>
      <trkpt lat="49.84206" lon="2.57884">
        <ele>92.4</ele>
        <time>2022-08-03T08:54:19Z</time>
      </trkpt>
      <trkpt lat="49.84207" lon="2.57884">
        <ele>92.4</ele>
        <time>2022-08-03T08:54:20Z</time>
      </trkpt>
      <trkpt lat="49.84209" lon="2.57883">
        <ele>92.5</ele>
        <time>2022-08-03T08:54:21Z</time>
      </trkpt>
      <trkpt lat="49.8421" lon="2.57883">
        <ele>92.5</ele>
        <time>2022-08-03T08:54:22Z</time>
      </trkpt>
      <trkpt lat="49.84211" lon="2.57882">
        <ele>92.5</ele>
        <time>2022-08-03T08:54:24Z</time>
      </trkpt>
      <trkpt lat="49.84213" lon="2.57881">
        <ele>92.5</ele>
        <time>2022-08-03T08:54:25Z</time>
      </trkpt>
      <trkpt lat="49.84214" lon="2.5788">
        <ele>92.5</ele>
        <time>2022-08-03T08:54:26Z</time>
      </trkpt>
      <trkpt lat="49.84215" lon="2.5788">
        <ele>92.5</ele>
        <time>2022-08-03T08:54:27Z</time>
      </trkpt>
      <trkpt lat="49.84217" lon="2.57879">
        <ele>92.5</ele>
        <time>2022-08-03T08:54:28Z</time>
      </trkpt>
      <trkpt lat="49.84218" lon="2.57878">
        <ele>92.6</ele>
        <time>2022-08-03T08:54:30Z</time>
      </trkpt>
      <trkpt lat="49.8422" lon="2.57878">
        <ele>92.6</ele>
        <time>2022-08-03T08:54:31Z</time>
      </trkpt>
      <trkpt lat="49.84222" lon="2.57877">
        <ele>92.6</ele>
        <time>2022-08-03T08:54:32Z</time>
      </trkpt>
      <trkpt lat="49.84223" lon="2.57877">
        <ele>92.6</ele>
        <time>2022-08-03T08:54:33Z</time>
      </trkpt>
      <trkpt lat="49.84223" lon="2.57876">
        <ele>92.6</ele>
        <time>2022-08-03T08:54:34Z</time>
      </trkpt>
      <trkpt lat="49.84225" lon="2.57876">
        <ele>92.7</ele>
        <time>2022-08-03T08:54:35Z</time>
      </trkpt>
      <trkpt lat="49.84226" lon="2.57876">
        <ele>92.7</ele>
        <time>2022-08-03T08:54:36Z</time>
      </trkpt>
      <trkpt lat="49.84226" lon="2.57875">
        <ele>92.7</ele>
        <time>2022-08-03T08:54:37Z</time>
      </trkpt>
      <trkpt lat="49.84227" lon="2.57875">
        <ele>92.7</ele>
        <time>2022-08-03T08:54:38Z</time>
      </trkpt>
      <trkpt lat="49.84229" lon="2.57875">
        <ele>92.8</ele>
        <time>2022-08-03T08:54:39Z</time>
      </trkpt>
      <trkpt lat="49.84229" lon="2.57875">
        <ele>92.8</ele>
        <time>2022-08-03T08:54:40Z</time>
      </trkpt>
      <trkpt lat="49.84231" lon="2.57875">
        <ele>92.8</ele>
        <time>2022-08-03T08:54:41Z</time>
      </trkpt>
      <trkpt lat="49.84233" lon="2.57875">
        <ele>92.9</ele>
        <time>2022-08-03T08:54:42Z</time>
      </trkpt>
      <trkpt lat="49.84234" lon="2.57875">
        <ele>92.9</ele>
        <time>2022-08-03T08:54:44Z</time>
      </trkpt>
      <trkpt lat="49.84235" lon="2.57875">
        <ele>92.9</ele>
        <time>2022-08-03T08:54:45Z</time>
      </trkpt>
      <trkpt lat="49.84237" lon="2.57876">
        <ele>93</ele>
        <time>2022-08-03T08:54:46Z</time>
      </trkpt>
      <trkpt lat="49.84238" lon="2.57876">
        <ele>93</ele>
        <time>2022-08-03T08:54:47Z</time>
      </trkpt>
      <trkpt lat="49.84239" lon="2.57876">
        <ele>93</ele>
        <time>2022-08-03T08:54:48Z</time>
      </trkpt>
      <trkpt lat="49.84242" lon="2.57876">
        <ele>93.1</ele>
        <time>2022-08-03T08:54:50Z</time>
      </trkpt>
      <trkpt lat="49.84243" lon="2.57876">
        <ele>93.1</ele>
        <time>2022-08-03T08:54:51Z</time>
      </trkpt>
      <trkpt lat="49.84245" lon="2.57877">
        <ele>93.1</ele>
        <time>2022-08-03T08:54:52Z</time>
      </trkpt>
      <trkpt lat="49.84245" lon="2.57877">
        <ele>93.2</ele>
        <time>2022-08-03T08:54:53Z</time>
      </trkpt>
      <trkpt lat="49.84246" lon="2.57878">
        <ele>93.2</ele>
        <time>2022-08-03T08:54:54Z</time>
      </trkpt>
      <trkpt lat="49.84248" lon="2.57879">
        <ele>93.2</ele>
        <time>2022-08-03T08:54:55Z</time>
      </trkpt>
      <trkpt lat="49.84249" lon="2.57879">
        <ele>93.2</ele>
        <time>2022-08-03T08:54:57Z</time>
      </trkpt>
      <trkpt lat="49.8425" lon="2.57879">
        <ele>93.3</ele>
        <time>2022-08-03T08:54:58Z</time>
      </trkpt>
      <trkpt lat="49.84252" lon="2.5788">
        <ele>93.3</ele>
        <time>2022-08-03T08:54:59Z</time>
      </trkpt>
      <trkpt lat="49.84253" lon="2.5788">
        <ele>93.3</ele>
        <time>2022-08-03T08:55:00Z</time>
      </trkpt>
      <trkpt lat="49.84254" lon="2.5788">
        <ele>93.3</ele>
        <time>2022-08-03T08:55:01Z</time>
      </trkpt>
      <trkpt lat="49.84256" lon="2.5788">
        <ele>93.4</ele>
        <time>2022-08-03T08:55:02Z</time>
      </trkpt>
      <trkpt lat="49.84257" lon="2.57881">
        <ele>93.4</ele>
        <time>2022-08-03T08:55:03Z</time>
      </trkpt>
      <trkpt lat="49.84257" lon="2.57881">
        <ele>93.4</ele>
        <time>2022-08-03T08:55:04Z</time>
      </trkpt>
      <trkpt lat="49.84259" lon="2.57881">
        <ele>93.4</ele>
        <time>2022-08-03T08:55:06Z</time>
      </trkpt>
      <trkpt lat="49.8426" lon="2.57881">
        <ele>93.4</ele>
        <time>2022-08-03T08:55:07Z</time>
      </trkpt>
      <trkpt lat="49.84261" lon="2.57882">
        <ele>93.4</ele>
        <time>2022-08-03T08:55:08Z</time>
      </trkpt>
      <trkpt lat="49.84263" lon="2.57882">
        <ele>93.5</ele>
        <time>2022-08-03T08:55:09Z</time>
      </trkpt>
      <trkpt lat="49.84265" lon="2.57883">
        <ele>93.5</ele>
        <time>2022-08-03T08:55:10Z</time>
      </trkpt>
      <trkpt lat="49.84266" lon="2.57883">
        <ele>93.5</ele>
        <time>2022-08-03T08:55:11Z</time>
      </trkpt>
      <trkpt lat="49.84267" lon="2.57883">
        <ele>93.5</ele>
        <time>2022-08-03T08:55:12Z</time>
      </trkpt>
      <trkpt lat="49.84268" lon="2.57883">
        <ele>93.5</ele>
        <time>2022-08-03T08:55:13Z</time>
      </trkpt>
      <trkpt lat="49.84269" lon="2.57883">
        <ele>93.6</ele>
        <time>2022-08-03T08:55:14Z</time>
      </trkpt>
      <trkpt lat="49.8427" lon="2.57883">
        <ele>93.6</ele>
        <time>2022-08-03T08:55:15Z</time>
      </trkpt>
      <trkpt lat="49.84271" lon="2.57883">
        <ele>93.6</ele>
        <time>2022-08-03T08:55:16Z</time>
      </trkpt>
      <trkpt lat="49.84272" lon="2.57884">
        <ele>93.6</ele>
        <time>2022-08-03T08:55:17Z</time>
      </trkpt>
      <trkpt lat="49.84274" lon="2.57884">
        <ele>93.6</ele>
        <time>2022-08-03T08:55:18Z</time>
      </trkpt>
      <trkpt lat="49.84276" lon="2.57884">
        <ele>93.7</ele>
        <time>2022-08-03T08:55:19Z</time>
      </trkpt>
      <trkpt lat="49.84278" lon="2.57884">
        <ele>93.7</ele>
        <time>2022-08-03T08:55:21Z</time>
      </trkpt>
      <trkpt lat="49.84279" lon="2.57884">
        <ele>93.7</ele>
        <time>2022-08-03T08:55:22Z</time>
      </trkpt>
      <trkpt lat="49.8428" lon="2.57884">
        <ele>93.7</ele>
        <time>2022-08-03T08:55:23Z</time>
      </trkpt>
      <trkpt lat="49.84281" lon="2.57884">
        <ele>93.7</ele>
        <time>2022-08-03T08:55:24Z</time>
      </trkpt>
      <trkpt lat="49.84282" lon="2.57884">
        <ele>93.7</ele>
        <time>2022-08-03T08:55:25Z</time>
      </trkpt>
      <trkpt lat="49.84284" lon="2.57884">
        <ele>93.8</ele>
        <time>2022-08-03T08:55:26Z</time>
      </trkpt>
      <trkpt lat="49.84285" lon="2.57884">
        <ele>93.8</ele>
        <time>2022-08-03T08:55:27Z</time>
      </trkpt>
      <trkpt lat="49.84286" lon="2.57883">
        <ele>93.8</ele>
        <time>2022-08-03T08:55:28Z</time>
      </trkpt>
      <trkpt lat="49.84288" lon="2.57882">
        <ele>93.8</ele>
        <time>2022-08-03T08:55:30Z</time>
      </trkpt>
      <trkpt lat="49.84288" lon="2.57882">
        <ele>93.8</ele>
        <time>2022-08-03T08:55:31Z</time>
      </trkpt>
      <trkpt lat="49.84289" lon="2.57881">
        <ele>93.8</ele>
        <time>2022-08-03T08:55:32Z</time>
      </trkpt>
      <trkpt lat="49.8429" lon="2.57881">
        <ele>93.9</ele>
        <time>2022-08-03T08:55:33Z</time>
      </trkpt>
      <trkpt lat="49.84292" lon="2.5788">
        <ele>93.9</ele>
        <time>2022-08-03T08:55:34Z</time>
      </trkpt>
      <trkpt lat="49.84293" lon="2.57878">
        <ele>93.9</ele>
        <time>2022-08-03T08:55:35Z</time>
      </trkpt>
      <trkpt lat="49.84294" lon="2.57878">
        <ele>93.9</ele>
        <time>2022-08-03T08:55:36Z</time>
      </trkpt>
      <trkpt lat="49.84296" lon="2.57877">
        <ele>93.9</ele>
        <time>2022-08-03T08:55:37Z</time>
      </trkpt>
      <trkpt lat="49.84297" lon="2.57876">
        <ele>93.9</ele>
        <time>2022-08-03T08:55:38Z</time>
      </trkpt>
      <trkpt lat="49.84298" lon="2.57876">
        <ele>93.9</ele>
        <time>2022-08-03T08:55:39Z</time>
      </trkpt>
      <trkpt lat="49.843" lon="2.57875">
        <ele>93.9</ele>
        <time>2022-08-03T08:55:41Z</time>
      </trkpt>
      <trkpt lat="49.84301" lon="2.57874">
        <ele>93.9</ele>
        <time>2022-08-03T08:55:42Z</time>
      </trkpt>
      <trkpt lat="49.84302" lon="2.57874">
        <ele>93.9</ele>
        <time>2022-08-03T08:55:43Z</time>
      </trkpt>
      <trkpt lat="49.84303" lon="2.57873">
        <ele>93.9</ele>
        <time>2022-08-03T08:55:44Z</time>
      </trkpt>
      <trkpt lat="49.84305" lon="2.57872">
        <ele>93.9</ele>
        <time>2022-08-03T08:55:45Z</time>
      </trkpt>
      <trkpt lat="49.84306" lon="2.57871">
        <ele>93.9</ele>
        <time>2022-08-03T08:55:46Z</time>
      </trkpt>
      <trkpt lat="49.84307" lon="2.57871">
        <ele>93.9</ele>
        <time>2022-08-03T08:55:47Z</time>
      </trkpt>
      <trkpt lat="49.84309" lon="2.5787">
        <ele>93.9</ele>
        <time>2022-08-03T08:55:48Z</time>
      </trkpt>
      <trkpt lat="49.84309" lon="2.5787">
        <ele>93.9</ele>
        <time>2022-08-03T08:55:49Z</time>
      </trkpt>
      <trkpt lat="49.8431" lon="2.57869">
        <ele>93.9</ele>
        <time>2022-08-03T08:55:50Z</time>
      </trkpt>
      <trkpt lat="49.84312" lon="2.57868">
        <ele>94</ele>
        <time>2022-08-03T08:55:51Z</time>
      </trkpt>
      <trkpt lat="49.84313" lon="2.57868">
        <ele>94</ele>
        <time>2022-08-03T08:55:52Z</time>
      </trkpt>
      <trkpt lat="49.84315" lon="2.57866">
        <ele>94</ele>
        <time>2022-08-03T08:55:53Z</time>
      </trkpt>
      <trkpt lat="49.84316" lon="2.57866">
        <ele>94</ele>
        <time>2022-08-03T08:55:55Z</time>
      </trkpt>
      <trkpt lat="49.84317" lon="2.57865">
        <ele>94</ele>
        <time>2022-08-03T08:55:56Z</time>
      </trkpt>
      <trkpt lat="49.84317" lon="2.57865">
        <ele>94</ele>
        <time>2022-08-03T08:55:57Z</time>
      </trkpt>
      <trkpt lat="49.84319" lon="2.57865">
        <ele>94</ele>
        <time>2022-08-03T08:55:58Z</time>
      </trkpt>
      <trkpt lat="49.8432" lon="2.57864">
        <ele>94</ele>
        <time>2022-08-03T08:55:59Z</time>
      </trkpt>
      <trkpt lat="49.84322" lon="2.57862">
        <ele>94</ele>
        <time>2022-08-03T08:56:00Z</time>
      </trkpt>
      <trkpt lat="49.84322" lon="2.57862">
        <ele>94</ele>
        <time>2022-08-03T08:56:01Z</time>
      </trkpt>
      <trkpt lat="49.84323" lon="2.57861">
        <ele>94</ele>
        <time>2022-08-03T08:56:02Z</time>
      </trkpt>
      <trkpt lat="49.84325" lon="2.5786">
        <ele>94</ele>
        <time>2022-08-03T08:56:03Z</time>
      </trkpt>
      <trkpt lat="49.84326" lon="2.5786">
        <ele>94.1</ele>
        <time>2022-08-03T08:56:04Z</time>
      </trkpt>
      <trkpt lat="49.84327" lon="2.57859">
        <ele>94.1</ele>
        <time>2022-08-03T08:56:05Z</time>
      </trkpt>
      <trkpt lat="49.84328" lon="2.57858">
        <ele>94.1</ele>
        <time>2022-08-03T08:56:06Z</time>
      </trkpt>
      <trkpt lat="49.84329" lon="2.57857">
        <ele>94.1</ele>
        <time>2022-08-03T08:56:07Z</time>
      </trkpt>
      <trkpt lat="49.84329" lon="2.57857">
        <ele>94.1</ele>
        <time>2022-08-03T08:56:08Z</time>
      </trkpt>
      <trkpt lat="49.8433" lon="2.57856">
        <ele>94.1</ele>
        <time>2022-08-03T08:56:09Z</time>
      </trkpt>
      <trkpt lat="49.84332" lon="2.57855">
        <ele>94.1</ele>
        <time>2022-08-03T08:56:10Z</time>
      </trkpt>
      <trkpt lat="49.84333" lon="2.57855">
        <ele>94.1</ele>
        <time>2022-08-03T08:56:11Z</time>
      </trkpt>
      <trkpt lat="49.84335" lon="2.57854">
        <ele>94.1</ele>
        <time>2022-08-03T08:56:12Z</time>
      </trkpt>
      <trkpt lat="49.84336" lon="2.57854">
        <ele>94.1</ele>
        <time>2022-08-03T08:56:14Z</time>
      </trkpt>
      <trkpt lat="49.84337" lon="2.57853">
        <ele>94.1</ele>
        <time>2022-08-03T08:56:15Z</time>
      </trkpt>
      <trkpt lat="49.84339" lon="2.57852">
        <ele>94.2</ele>
        <time>2022-08-03T08:56:16Z</time>
      </trkpt>
      <trkpt lat="49.8434" lon="2.57852">
        <ele>94.2</ele>
        <time>2022-08-03T08:56:17Z</time>
      </trkpt>
      <trkpt lat="49.8434" lon="2.57851">
        <ele>94.2</ele>
        <time>2022-08-03T08:56:18Z</time>
      </trkpt>
      <trkpt lat="49.84343" lon="2.5785">
        <ele>94.2</ele>
        <time>2022-08-03T08:56:19Z</time>
      </trkpt>
      <trkpt lat="49.84344" lon="2.5785">
        <ele>94.2</ele>
        <time>2022-08-03T08:56:20Z</time>
      </trkpt>
      <trkpt lat="49.84345" lon="2.57849">
        <ele>94.2</ele>
        <time>2022-08-03T08:56:21Z</time>
      </trkpt>
      <trkpt lat="49.84346" lon="2.57849">
        <ele>94.2</ele>
        <time>2022-08-03T08:56:22Z</time>
      </trkpt>
      <trkpt lat="49.84347" lon="2.57848">
        <ele>94.2</ele>
        <time>2022-08-03T08:56:23Z</time>
      </trkpt>
      <trkpt lat="49.84348" lon="2.57848">
        <ele>94.3</ele>
        <time>2022-08-03T08:56:25Z</time>
      </trkpt>
      <trkpt lat="49.8435" lon="2.57847">
        <ele>94.3</ele>
        <time>2022-08-03T08:56:26Z</time>
      </trkpt>
      <trkpt lat="49.84351" lon="2.57846">
        <ele>94.3</ele>
        <time>2022-08-03T08:56:27Z</time>
      </trkpt>
      <trkpt lat="49.84352" lon="2.57846">
        <ele>94.3</ele>
        <time>2022-08-03T08:56:28Z</time>
      </trkpt>
      <trkpt lat="49.84354" lon="2.57845">
        <ele>94.3</ele>
        <time>2022-08-03T08:56:29Z</time>
      </trkpt>
      <trkpt lat="49.84356" lon="2.57843">
        <ele>94.3</ele>
        <time>2022-08-03T08:56:30Z</time>
      </trkpt>
      <trkpt lat="49.84357" lon="2.57843">
        <ele>94.4</ele>
        <time>2022-08-03T08:56:31Z</time>
      </trkpt>
      <trkpt lat="49.84358" lon="2.57842">
        <ele>94.4</ele>
        <time>2022-08-03T08:56:32Z</time>
      </trkpt>
      <trkpt lat="49.84359" lon="2.57842">
        <ele>94.4</ele>
        <time>2022-08-03T08:56:33Z</time>
      </trkpt>
      <trkpt lat="49.8436" lon="2.57841">
        <ele>94.4</ele>
        <time>2022-08-03T08:56:35Z</time>
      </trkpt>
      <trkpt lat="49.84362" lon="2.5784">
        <ele>94.4</ele>
        <time>2022-08-03T08:56:36Z</time>
      </trkpt>
      <trkpt lat="49.84363" lon="2.5784">
        <ele>94.4</ele>
        <time>2022-08-03T08:56:37Z</time>
      </trkpt>
      <trkpt lat="49.84364" lon="2.57839">
        <ele>94.4</ele>
        <time>2022-08-03T08:56:38Z</time>
      </trkpt>
      <trkpt lat="49.84365" lon="2.57838">
        <ele>94.5</ele>
        <time>2022-08-03T08:56:39Z</time>
      </trkpt>
      <trkpt lat="49.84366" lon="2.57838">
        <ele>94.5</ele>
        <time>2022-08-03T08:56:40Z</time>
      </trkpt>
      <trkpt lat="49.84367" lon="2.57837">
        <ele>94.5</ele>
        <time>2022-08-03T08:56:41Z</time>
      </trkpt>
      <trkpt lat="49.84369" lon="2.57837">
        <ele>94.5</ele>
        <time>2022-08-03T08:56:42Z</time>
      </trkpt>
      <trkpt lat="49.8437" lon="2.57836">
        <ele>94.5</ele>
        <time>2022-08-03T08:56:43Z</time>
      </trkpt>
      <trkpt lat="49.84371" lon="2.57836">
        <ele>94.6</ele>
        <time>2022-08-03T08:56:44Z</time>
      </trkpt>
      <trkpt lat="49.84372" lon="2.57835">
        <ele>94.6</ele>
        <time>2022-08-03T08:56:45Z</time>
      </trkpt>
      <trkpt lat="49.84373" lon="2.57835">
        <ele>94.6</ele>
        <time>2022-08-03T08:56:46Z</time>
      </trkpt>
      <trkpt lat="49.84374" lon="2.57834">
        <ele>94.6</ele>
        <time>2022-08-03T08:56:47Z</time>
      </trkpt>
      <trkpt lat="49.84376" lon="2.57833">
        <ele>94.6</ele>
        <time>2022-08-03T08:56:49Z</time>
      </trkpt>
      <trkpt lat="49.84377" lon="2.57832">
        <ele>94.6</ele>
        <time>2022-08-03T08:56:50Z</time>
      </trkpt>
      <trkpt lat="49.84378" lon="2.57831">
        <ele>94.7</ele>
        <time>2022-08-03T08:56:51Z</time>
      </trkpt>
      <trkpt lat="49.84379" lon="2.5783">
        <ele>94.7</ele>
        <time>2022-08-03T08:56:52Z</time>
      </trkpt>
      <trkpt lat="49.8438" lon="2.57829">
        <ele>94.7</ele>
        <time>2022-08-03T08:56:53Z</time>
      </trkpt>
      <trkpt lat="49.84381" lon="2.57828">
        <ele>94.7</ele>
        <time>2022-08-03T08:56:55Z</time>
      </trkpt>
      <trkpt lat="49.84383" lon="2.57827">
        <ele>94.7</ele>
        <time>2022-08-03T08:56:56Z</time>
      </trkpt>
      <trkpt lat="49.84384" lon="2.57826">
        <ele>94.8</ele>
        <time>2022-08-03T08:56:57Z</time>
      </trkpt>
      <trkpt lat="49.84386" lon="2.57825">
        <ele>94.8</ele>
        <time>2022-08-03T08:56:58Z</time>
      </trkpt>
      <trkpt lat="49.84387" lon="2.57825">
        <ele>94.8</ele>
        <time>2022-08-03T08:57:00Z</time>
      </trkpt>
      <trkpt lat="49.84387" lon="2.57824">
        <ele>94.8</ele>
        <time>2022-08-03T08:57:01Z</time>
      </trkpt>
      <trkpt lat="49.84389" lon="2.57823">
        <ele>94.8</ele>
        <time>2022-08-03T08:57:02Z</time>
      </trkpt>
      <trkpt lat="49.8439" lon="2.57822">
        <ele>94.9</ele>
        <time>2022-08-03T08:57:03Z</time>
      </trkpt>
      <trkpt lat="49.84391" lon="2.57822">
        <ele>94.9</ele>
        <time>2022-08-03T08:57:04Z</time>
      </trkpt>
      <trkpt lat="49.84392" lon="2.57821">
        <ele>94.9</ele>
        <time>2022-08-03T08:57:05Z</time>
      </trkpt>
      <trkpt lat="49.84394" lon="2.5782">
        <ele>94.9</ele>
        <time>2022-08-03T08:57:06Z</time>
      </trkpt>
      <trkpt lat="49.84396" lon="2.57819">
        <ele>94.9</ele>
        <time>2022-08-03T08:57:07Z</time>
      </trkpt>
      <trkpt lat="49.84397" lon="2.57819">
        <ele>95</ele>
        <time>2022-08-03T08:57:09Z</time>
      </trkpt>
      <trkpt lat="49.84398" lon="2.57818">
        <ele>95</ele>
        <time>2022-08-03T08:57:10Z</time>
      </trkpt>
      <trkpt lat="49.84399" lon="2.57818">
        <ele>95</ele>
        <time>2022-08-03T08:57:11Z</time>
      </trkpt>
      <trkpt lat="49.844" lon="2.57817">
        <ele>95</ele>
        <time>2022-08-03T08:57:12Z</time>
      </trkpt>
      <trkpt lat="49.84402" lon="2.57817">
        <ele>95</ele>
        <time>2022-08-03T08:57:13Z</time>
      </trkpt>
      <trkpt lat="49.84403" lon="2.57816">
        <ele>95.1</ele>
        <time>2022-08-03T08:57:14Z</time>
      </trkpt>
      <trkpt lat="49.84405" lon="2.57814">
        <ele>95.1</ele>
        <time>2022-08-03T08:57:16Z</time>
      </trkpt>
      <trkpt lat="49.84406" lon="2.57813">
        <ele>95.1</ele>
        <time>2022-08-03T08:57:17Z</time>
      </trkpt>
      <trkpt lat="49.84407" lon="2.57812">
        <ele>95.1</ele>
        <time>2022-08-03T08:57:18Z</time>
      </trkpt>
      <trkpt lat="49.84409" lon="2.57812">
        <ele>95.1</ele>
        <time>2022-08-03T08:57:19Z</time>
      </trkpt>
      <trkpt lat="49.84411" lon="2.57811">
        <ele>95.2</ele>
        <time>2022-08-03T08:57:21Z</time>
      </trkpt>
      <trkpt lat="49.84411" lon="2.5781">
        <ele>95.2</ele>
        <time>2022-08-03T08:57:22Z</time>
      </trkpt>
      <trkpt lat="49.84413" lon="2.57809">
        <ele>95.2</ele>
        <time>2022-08-03T08:57:23Z</time>
      </trkpt>
      <trkpt lat="49.84414" lon="2.57808">
        <ele>95.2</ele>
        <time>2022-08-03T08:57:24Z</time>
      </trkpt>
      <trkpt lat="49.84415" lon="2.57808">
        <ele>95.2</ele>
        <time>2022-08-03T08:57:25Z</time>
      </trkpt>
      <trkpt lat="49.84416" lon="2.57807">
        <ele>95.2</ele>
        <time>2022-08-03T08:57:26Z</time>
      </trkpt>
      <trkpt lat="49.84418" lon="2.57806">
        <ele>95.3</ele>
        <time>2022-08-03T08:57:27Z</time>
      </trkpt>
      <trkpt lat="49.8442" lon="2.57805">
        <ele>95.3</ele>
        <time>2022-08-03T08:57:29Z</time>
      </trkpt>
      <trkpt lat="49.84421" lon="2.57804">
        <ele>95.3</ele>
        <time>2022-08-03T08:57:30Z</time>
      </trkpt>
      <trkpt lat="49.84422" lon="2.57803">
        <ele>95.3</ele>
        <time>2022-08-03T08:57:31Z</time>
      </trkpt>
      <trkpt lat="49.84423" lon="2.57803">
        <ele>95.3</ele>
        <time>2022-08-03T08:57:32Z</time>
      </trkpt>
      <trkpt lat="49.84424" lon="2.57802">
        <ele>95.3</ele>
        <time>2022-08-03T08:57:33Z</time>
      </trkpt>
      <trkpt lat="49.84425" lon="2.57801">
        <ele>95.3</ele>
        <time>2022-08-03T08:57:34Z</time>
      </trkpt>
      <trkpt lat="49.84426" lon="2.57799">
        <ele>95.3</ele>
        <time>2022-08-03T08:57:35Z</time>
      </trkpt>
      <trkpt lat="49.84428" lon="2.57798">
        <ele>95.4</ele>
        <time>2022-08-03T08:57:36Z</time>
      </trkpt>
      <trkpt lat="49.84429" lon="2.57797">
        <ele>95.4</ele>
        <time>2022-08-03T08:57:37Z</time>
      </trkpt>
      <trkpt lat="49.84431" lon="2.57796">
        <ele>95.4</ele>
        <time>2022-08-03T08:57:38Z</time>
      </trkpt>
      <trkpt lat="49.84432" lon="2.57795">
        <ele>95.4</ele>
        <time>2022-08-03T08:57:39Z</time>
      </trkpt>
      <trkpt lat="49.84433" lon="2.57794">
        <ele>95.4</ele>
        <time>2022-08-03T08:57:41Z</time>
      </trkpt>
      <trkpt lat="49.84433" lon="2.57793">
        <ele>95.4</ele>
        <time>2022-08-03T08:57:42Z</time>
      </trkpt>
      <trkpt lat="49.84434" lon="2.57792">
        <ele>95.4</ele>
        <time>2022-08-03T08:57:43Z</time>
      </trkpt>
      <trkpt lat="49.84435" lon="2.57792">
        <ele>95.4</ele>
        <time>2022-08-03T08:57:44Z</time>
      </trkpt>
      <trkpt lat="49.84436" lon="2.57791">
        <ele>95.4</ele>
        <time>2022-08-03T08:57:45Z</time>
      </trkpt>
      <trkpt lat="49.84438" lon="2.5779">
        <ele>95.5</ele>
        <time>2022-08-03T08:57:46Z</time>
      </trkpt>
      <trkpt lat="49.84439" lon="2.57789">
        <ele>95.5</ele>
        <time>2022-08-03T08:57:47Z</time>
      </trkpt>
      <trkpt lat="49.8444" lon="2.57787">
        <ele>95.5</ele>
        <time>2022-08-03T08:57:48Z</time>
      </trkpt>
      <trkpt lat="49.84441" lon="2.57786">
        <ele>95.5</ele>
        <time>2022-08-03T08:57:49Z</time>
      </trkpt>
      <trkpt lat="49.84442" lon="2.57786">
        <ele>95.5</ele>
        <time>2022-08-03T08:57:50Z</time>
      </trkpt>
      <trkpt lat="49.84444" lon="2.57784">
        <ele>95.5</ele>
        <time>2022-08-03T08:57:51Z</time>
      </trkpt>
      <trkpt lat="49.84444" lon="2.57784">
        <ele>95.5</ele>
        <time>2022-08-03T08:57:52Z</time>
      </trkpt>
      <trkpt lat="49.84445" lon="2.57783">
        <ele>95.5</ele>
        <time>2022-08-03T08:57:53Z</time>
      </trkpt>
      <trkpt lat="49.84446" lon="2.57782">
        <ele>95.5</ele>
        <time>2022-08-03T08:57:54Z</time>
      </trkpt>
      <trkpt lat="49.84447" lon="2.57781">
        <ele>95.5</ele>
        <time>2022-08-03T08:57:56Z</time>
      </trkpt>
      <trkpt lat="49.84449" lon="2.57779">
        <ele>95.5</ele>
        <time>2022-08-03T08:57:57Z</time>
      </trkpt>
      <trkpt lat="49.8445" lon="2.57778">
        <ele>95.5</ele>
        <time>2022-08-03T08:57:58Z</time>
      </trkpt>
      <trkpt lat="49.84452" lon="2.57776">
        <ele>95.5</ele>
        <time>2022-08-03T08:57:59Z</time>
      </trkpt>
      <trkpt lat="49.84453" lon="2.57775">
        <ele>95.5</ele>
        <time>2022-08-03T08:58:00Z</time>
      </trkpt>
      <trkpt lat="49.84453" lon="2.57774">
        <ele>95.5</ele>
        <time>2022-08-03T08:58:01Z</time>
      </trkpt>
      <trkpt lat="49.84454" lon="2.57774">
        <ele>95.5</ele>
        <time>2022-08-03T08:58:02Z</time>
      </trkpt>
      <trkpt lat="49.84455" lon="2.57772">
        <ele>95.5</ele>
        <time>2022-08-03T08:58:04Z</time>
      </trkpt>
      <trkpt lat="49.84456" lon="2.57771">
        <ele>95.5</ele>
        <time>2022-08-03T08:58:05Z</time>
      </trkpt>
      <trkpt lat="49.84457" lon="2.5777">
        <ele>95.6</ele>
        <time>2022-08-03T08:58:06Z</time>
      </trkpt>
      <trkpt lat="49.84459" lon="2.57769">
        <ele>95.6</ele>
        <time>2022-08-03T08:58:07Z</time>
      </trkpt>
      <trkpt lat="49.8446" lon="2.57768">
        <ele>95.6</ele>
        <time>2022-08-03T08:58:08Z</time>
      </trkpt>
      <trkpt lat="49.84461" lon="2.57767">
        <ele>95.6</ele>
        <time>2022-08-03T08:58:09Z</time>
      </trkpt>
      <trkpt lat="49.84462" lon="2.57766">
        <ele>95.6</ele>
        <time>2022-08-03T08:58:10Z</time>
      </trkpt>
      <trkpt lat="49.84464" lon="2.57765">
        <ele>95.6</ele>
        <time>2022-08-03T08:58:12Z</time>
      </trkpt>
      <trkpt lat="49.84465" lon="2.57764">
        <ele>95.6</ele>
        <time>2022-08-03T08:58:13Z</time>
      </trkpt>
      <trkpt lat="49.84466" lon="2.57762">
        <ele>95.6</ele>
        <time>2022-08-03T08:58:14Z</time>
      </trkpt>
      <trkpt lat="49.84467" lon="2.57761">
        <ele>95.6</ele>
        <time>2022-08-03T08:58:15Z</time>
      </trkpt>
      <trkpt lat="49.84468" lon="2.57761">
        <ele>95.6</ele>
        <time>2022-08-03T08:58:16Z</time>
      </trkpt>
      <trkpt lat="49.84469" lon="2.57759">
        <ele>95.6</ele>
        <time>2022-08-03T08:58:17Z</time>
      </trkpt>
      <trkpt lat="49.8447" lon="2.57758">
        <ele>95.6</ele>
        <time>2022-08-03T08:58:18Z</time>
      </trkpt>
      <trkpt lat="49.84472" lon="2.57755">
        <ele>95.6</ele>
        <time>2022-08-03T08:58:19Z</time>
      </trkpt>
      <trkpt lat="49.84473" lon="2.57754">
        <ele>95.6</ele>
        <time>2022-08-03T08:58:21Z</time>
      </trkpt>
      <trkpt lat="49.84474" lon="2.57753">
        <ele>95.6</ele>
        <time>2022-08-03T08:58:22Z</time>
      </trkpt>
      <trkpt lat="49.84474" lon="2.57753">
        <ele>95.6</ele>
        <time>2022-08-03T08:58:23Z</time>
      </trkpt>
      <trkpt lat="49.84475" lon="2.57752">
        <ele>95.6</ele>
        <time>2022-08-03T08:58:24Z</time>
      </trkpt>
      <trkpt lat="49.84476" lon="2.5775">
        <ele>95.6</ele>
        <time>2022-08-03T08:58:25Z</time>
      </trkpt>
      <trkpt lat="49.84477" lon="2.5775">
        <ele>95.6</ele>
        <time>2022-08-03T08:58:26Z</time>
      </trkpt>
      <trkpt lat="49.84478" lon="2.57749">
        <ele>95.6</ele>
        <time>2022-08-03T08:58:27Z</time>
      </trkpt>
      <trkpt lat="49.8448" lon="2.57747">
        <ele>95.6</ele>
        <time>2022-08-03T08:58:29Z</time>
      </trkpt>
      <trkpt lat="49.84481" lon="2.57746">
        <ele>95.6</ele>
        <time>2022-08-03T08:58:30Z</time>
      </trkpt>
      <trkpt lat="49.84482" lon="2.57744">
        <ele>95.5</ele>
        <time>2022-08-03T08:58:31Z</time>
      </trkpt>
      <trkpt lat="49.84483" lon="2.57742">
        <ele>95.5</ele>
        <time>2022-08-03T08:58:32Z</time>
      </trkpt>
      <trkpt lat="49.84484" lon="2.5774">
        <ele>95.5</ele>
        <time>2022-08-03T08:58:33Z</time>
      </trkpt>
      <trkpt lat="49.84485" lon="2.57738">
        <ele>95.5</ele>
        <time>2022-08-03T08:58:35Z</time>
      </trkpt>
      <trkpt lat="49.84485" lon="2.57736">
        <ele>95.5</ele>
        <time>2022-08-03T08:58:36Z</time>
      </trkpt>
      <trkpt lat="49.84487" lon="2.57734">
        <ele>95.5</ele>
        <time>2022-08-03T08:58:37Z</time>
      </trkpt>
      <trkpt lat="49.84488" lon="2.57733">
        <ele>95.5</ele>
        <time>2022-08-03T08:58:38Z</time>
      </trkpt>
      <trkpt lat="49.84489" lon="2.57732">
        <ele>95.5</ele>
        <time>2022-08-03T08:58:39Z</time>
      </trkpt>
      <trkpt lat="49.8449" lon="2.57731">
        <ele>95.5</ele>
        <time>2022-08-03T08:58:40Z</time>
      </trkpt>
      <trkpt lat="49.84491" lon="2.5773">
        <ele>95.5</ele>
        <time>2022-08-03T08:58:41Z</time>
      </trkpt>
      <trkpt lat="49.84492" lon="2.57729">
        <ele>95.5</ele>
        <time>2022-08-03T08:58:43Z</time>
      </trkpt>
      <trkpt lat="49.84493" lon="2.57728">
        <ele>95.5</ele>
        <time>2022-08-03T08:58:44Z</time>
      </trkpt>
      <trkpt lat="49.84494" lon="2.57727">
        <ele>95.5</ele>
        <time>2022-08-03T08:58:45Z</time>
      </trkpt>
      <trkpt lat="49.84495" lon="2.57727">
        <ele>95.5</ele>
        <time>2022-08-03T08:58:46Z</time>
      </trkpt>
      <trkpt lat="49.84497" lon="2.57725">
        <ele>95.5</ele>
        <time>2022-08-03T08:58:47Z</time>
      </trkpt>
      <trkpt lat="49.84499" lon="2.57724">
        <ele>95.5</ele>
        <time>2022-08-03T08:58:48Z</time>
      </trkpt>
      <trkpt lat="49.845" lon="2.57723">
        <ele>95.5</ele>
        <time>2022-08-03T08:58:50Z</time>
      </trkpt>
      <trkpt lat="49.84501" lon="2.57722">
        <ele>95.5</ele>
        <time>2022-08-03T08:58:51Z</time>
      </trkpt>
      <trkpt lat="49.84503" lon="2.5772">
        <ele>95.5</ele>
        <time>2022-08-03T08:58:52Z</time>
      </trkpt>
      <trkpt lat="49.84504" lon="2.57719">
        <ele>95.5</ele>
        <time>2022-08-03T08:58:53Z</time>
      </trkpt>
      <trkpt lat="49.84506" lon="2.57717">
        <ele>95.5</ele>
        <time>2022-08-03T08:58:54Z</time>
      </trkpt>
      <trkpt lat="49.84507" lon="2.57716">
        <ele>95.5</ele>
        <time>2022-08-03T08:58:55Z</time>
      </trkpt>
      <trkpt lat="49.84508" lon="2.57715">
        <ele>95.5</ele>
        <time>2022-08-03T08:58:56Z</time>
      </trkpt>
      <trkpt lat="49.84509" lon="2.57713">
        <ele>95.5</ele>
        <time>2022-08-03T08:58:57Z</time>
      </trkpt>
      <trkpt lat="49.8451" lon="2.57712">
        <ele>95.5</ele>
        <time>2022-08-03T08:58:58Z</time>
      </trkpt>
      <trkpt lat="49.84511" lon="2.57711">
        <ele>95.4</ele>
        <time>2022-08-03T08:58:59Z</time>
      </trkpt>
      <trkpt lat="49.84512" lon="2.5771">
        <ele>95.4</ele>
        <time>2022-08-03T08:59:01Z</time>
      </trkpt>
      <trkpt lat="49.84513" lon="2.57708">
        <ele>95.4</ele>
        <time>2022-08-03T08:59:02Z</time>
      </trkpt>
      <trkpt lat="49.84514" lon="2.57707">
        <ele>95.4</ele>
        <time>2022-08-03T08:59:04Z</time>
      </trkpt>
      <trkpt lat="49.84515" lon="2.57706">
        <ele>95.4</ele>
        <time>2022-08-03T08:59:05Z</time>
      </trkpt>
      <trkpt lat="49.84516" lon="2.57705">
        <ele>95.4</ele>
        <time>2022-08-03T08:59:06Z</time>
      </trkpt>
      <trkpt lat="49.84517" lon="2.57702">
        <ele>95.4</ele>
        <time>2022-08-03T08:59:07Z</time>
      </trkpt>
      <trkpt lat="49.84518" lon="2.57701">
        <ele>95.4</ele>
        <time>2022-08-03T08:59:08Z</time>
      </trkpt>
      <trkpt lat="49.84519" lon="2.577">
        <ele>95.4</ele>
        <time>2022-08-03T08:59:09Z</time>
      </trkpt>
      <trkpt lat="49.8452" lon="2.57698">
        <ele>95.4</ele>
        <time>2022-08-03T08:59:10Z</time>
      </trkpt>
      <trkpt lat="49.84522" lon="2.57695">
        <ele>95.4</ele>
        <time>2022-08-03T08:59:11Z</time>
      </trkpt>
      <trkpt lat="49.84523" lon="2.57694">
        <ele>95.4</ele>
        <time>2022-08-03T08:59:13Z</time>
      </trkpt>
      <trkpt lat="49.84523" lon="2.57693">
        <ele>95.4</ele>
        <time>2022-08-03T08:59:14Z</time>
      </trkpt>
      <trkpt lat="49.84524" lon="2.57691">
        <ele>95.4</ele>
        <time>2022-08-03T08:59:15Z</time>
      </trkpt>
      <trkpt lat="49.84525" lon="2.5769">
        <ele>95.4</ele>
        <time>2022-08-03T08:59:16Z</time>
      </trkpt>
      <trkpt lat="49.84526" lon="2.57688">
        <ele>95.4</ele>
        <time>2022-08-03T08:59:17Z</time>
      </trkpt>
      <trkpt lat="49.84526" lon="2.57687">
        <ele>95.4</ele>
        <time>2022-08-03T08:59:18Z</time>
      </trkpt>
      <trkpt lat="49.84528" lon="2.57685">
        <ele>95.4</ele>
        <time>2022-08-03T08:59:20Z</time>
      </trkpt>
      <trkpt lat="49.84528" lon="2.57683">
        <ele>95.4</ele>
        <time>2022-08-03T08:59:21Z</time>
      </trkpt>
      <trkpt lat="49.84529" lon="2.57682">
        <ele>95.4</ele>
        <time>2022-08-03T08:59:22Z</time>
      </trkpt>
      <trkpt lat="49.8453" lon="2.57681">
        <ele>95.4</ele>
        <time>2022-08-03T08:59:23Z</time>
      </trkpt>
      <trkpt lat="49.8453" lon="2.57679">
        <ele>95.4</ele>
        <time>2022-08-03T08:59:24Z</time>
      </trkpt>
      <trkpt lat="49.84531" lon="2.57678">
        <ele>95.4</ele>
        <time>2022-08-03T08:59:25Z</time>
      </trkpt>
      <trkpt lat="49.84532" lon="2.57676">
        <ele>95.4</ele>
        <time>2022-08-03T08:59:26Z</time>
      </trkpt>
      <trkpt lat="49.84532" lon="2.57675">
        <ele>95.4</ele>
        <time>2022-08-03T08:59:27Z</time>
      </trkpt>
      <trkpt lat="49.84533" lon="2.57673">
        <ele>95.4</ele>
        <time>2022-08-03T08:59:28Z</time>
      </trkpt>
      <trkpt lat="49.84534" lon="2.57671">
        <ele>95.4</ele>
        <time>2022-08-03T08:59:29Z</time>
      </trkpt>
      <trkpt lat="49.84534" lon="2.57669">
        <ele>95.4</ele>
        <time>2022-08-03T08:59:30Z</time>
      </trkpt>
      <trkpt lat="49.84535" lon="2.57667">
        <ele>95.4</ele>
        <time>2022-08-03T08:59:32Z</time>
      </trkpt>
      <trkpt lat="49.84536" lon="2.57665">
        <ele>95.4</ele>
        <time>2022-08-03T08:59:33Z</time>
      </trkpt>
      <trkpt lat="49.84536" lon="2.57663">
        <ele>95.4</ele>
        <time>2022-08-03T08:59:34Z</time>
      </trkpt>
      <trkpt lat="49.84536" lon="2.57661">
        <ele>95.4</ele>
        <time>2022-08-03T08:59:35Z</time>
      </trkpt>
      <trkpt lat="49.84537" lon="2.57659">
        <ele>95.4</ele>
        <time>2022-08-03T08:59:36Z</time>
      </trkpt>
      <trkpt lat="49.84538" lon="2.57657">
        <ele>95.4</ele>
        <time>2022-08-03T08:59:37Z</time>
      </trkpt>
      <trkpt lat="49.84539" lon="2.57656">
        <ele>95.4</ele>
        <time>2022-08-03T08:59:38Z</time>
      </trkpt>
      <trkpt lat="49.84539" lon="2.57654">
        <ele>95.3</ele>
        <time>2022-08-03T08:59:39Z</time>
      </trkpt>
      <trkpt lat="49.84541" lon="2.57651">
        <ele>95.3</ele>
        <time>2022-08-03T08:59:41Z</time>
      </trkpt>
      <trkpt lat="49.84541" lon="2.5765">
        <ele>95.3</ele>
        <time>2022-08-03T08:59:42Z</time>
      </trkpt>
      <trkpt lat="49.84542" lon="2.57648">
        <ele>95.3</ele>
        <time>2022-08-03T08:59:43Z</time>
      </trkpt>
      <trkpt lat="49.84543" lon="2.57645">
        <ele>95.3</ele>
        <time>2022-08-03T08:59:44Z</time>
      </trkpt>
      <trkpt lat="49.84543" lon="2.57644">
        <ele>95.3</ele>
        <time>2022-08-03T08:59:45Z</time>
      </trkpt>
      <trkpt lat="49.84544" lon="2.57642">
        <ele>95.3</ele>
        <time>2022-08-03T08:59:46Z</time>
      </trkpt>
      <trkpt lat="49.84545" lon="2.57638">
        <ele>95.3</ele>
        <time>2022-08-03T08:59:47Z</time>
      </trkpt>
      <trkpt lat="49.84545" lon="2.57636">
        <ele>95.2</ele>
        <time>2022-08-03T08:59:48Z</time>
      </trkpt>
      <trkpt lat="49.84545" lon="2.57634">
        <ele>95.2</ele>
        <time>2022-08-03T08:59:50Z</time>
      </trkpt>
      <trkpt lat="49.84546" lon="2.57631">
        <ele>95.2</ele>
        <time>2022-08-03T08:59:51Z</time>
      </trkpt>
      <trkpt lat="49.84546" lon="2.57629">
        <ele>95.2</ele>
        <time>2022-08-03T08:59:52Z</time>
      </trkpt>
      <trkpt lat="49.84547" lon="2.57627">
        <ele>95.2</ele>
        <time>2022-08-03T08:59:53Z</time>
      </trkpt>
      <trkpt lat="49.84548" lon="2.57625">
        <ele>95.2</ele>
        <time>2022-08-03T08:59:54Z</time>
      </trkpt>
      <trkpt lat="49.84549" lon="2.57623">
        <ele>95.2</ele>
        <time>2022-08-03T08:59:56Z</time>
      </trkpt>
      <trkpt lat="49.8455" lon="2.57622">
        <ele>95.2</ele>
        <time>2022-08-03T08:59:57Z</time>
      </trkpt>
      <trkpt lat="49.84551" lon="2.57621">
        <ele>95.2</ele>
        <time>2022-08-03T08:59:58Z</time>
      </trkpt>
      <trkpt lat="49.84551" lon="2.57621">
        <ele>95.2</ele>
        <time>2022-08-03T08:59:59Z</time>
      </trkpt>
      <trkpt lat="49.84551" lon="2.57621">
        <ele>95.2</ele>
        <time>2022-08-03T09:00:00Z</time>
      </trkpt>
      <trkpt lat="49.84551" lon="2.57621">
        <ele>95.2</ele>
        <time>2022-08-03T09:00:01Z</time>
      </trkpt>
      <trkpt lat="49.84552" lon="2.5762">
        <ele>95.2</ele>
        <time>2022-08-03T09:00:02Z</time>
      </trkpt>
      <trkpt lat="49.84553" lon="2.5762">
        <ele>95.2</ele>
        <time>2022-08-03T09:00:03Z</time>
      </trkpt>
      <trkpt lat="49.84554" lon="2.57619">
        <ele>95.2</ele>
        <time>2022-08-03T09:00:04Z</time>
      </trkpt>
      <trkpt lat="49.84555" lon="2.57618">
        <ele>95.2</ele>
        <time>2022-08-03T09:00:05Z</time>
      </trkpt>
      <trkpt lat="49.84556" lon="2.57616">
        <ele>95.2</ele>
        <time>2022-08-03T09:00:07Z</time>
      </trkpt>
      <trkpt lat="49.84557" lon="2.57614">
        <ele>95.2</ele>
        <time>2022-08-03T09:00:08Z</time>
      </trkpt>
      <trkpt lat="49.84557" lon="2.57613">
        <ele>95.2</ele>
        <time>2022-08-03T09:00:09Z</time>
      </trkpt>
      <trkpt lat="49.84558" lon="2.57612">
        <ele>95.2</ele>
        <time>2022-08-03T09:00:10Z</time>
      </trkpt>
      <trkpt lat="49.84558" lon="2.57612">
        <ele>95.2</ele>
        <time>2022-08-03T09:00:11Z</time>
      </trkpt>
      <trkpt lat="49.84559" lon="2.57612">
        <ele>95.2</ele>
        <time>2022-08-03T09:00:12Z</time>
      </trkpt>
      <trkpt lat="49.84561" lon="2.57614">
        <ele>95.2</ele>
        <time>2022-08-03T09:00:13Z</time>
      </trkpt>
      <trkpt lat="49.84561" lon="2.57615">
        <ele>95.2</ele>
        <time>2022-08-03T09:00:14Z</time>
      </trkpt>
      <trkpt lat="49.8456" lon="2.57616">
        <ele>95.2</ele>
        <time>2022-08-03T09:00:15Z</time>
      </trkpt>
      <trkpt lat="49.8456" lon="2.57617">
        <ele>95.2</ele>
        <time>2022-08-03T09:00:16Z</time>
      </trkpt>
      <trkpt lat="49.84559" lon="2.57618">
        <ele>95.2</ele>
        <time>2022-08-03T09:00:17Z</time>
      </trkpt>
      <trkpt lat="49.84558" lon="2.57618">
        <ele>95.3</ele>
        <time>2022-08-03T09:00:18Z</time>
      </trkpt>
      <trkpt lat="49.84558" lon="2.57618">
        <ele>95.3</ele>
        <time>2022-08-03T09:00:19Z</time>
      </trkpt>
      <trkpt lat="49.84557" lon="2.57618">
        <ele>95.3</ele>
        <time>2022-08-03T09:00:20Z</time>
      </trkpt>
      <trkpt lat="49.84557" lon="2.57618">
        <ele>95.3</ele>
        <time>2022-08-03T09:00:21Z</time>
      </trkpt>
      <trkpt lat="49.84557" lon="2.57619">
        <ele>95.3</ele>
        <time>2022-08-03T09:00:22Z</time>
      </trkpt>
      <trkpt lat="49.84557" lon="2.57619">
        <ele>95.3</ele>
        <time>2022-08-03T09:00:23Z</time>
      </trkpt>
      <trkpt lat="49.84557" lon="2.5762">
        <ele>95.3</ele>
        <time>2022-08-03T09:00:24Z</time>
      </trkpt>
      <trkpt lat="49.84556" lon="2.5762">
        <ele>95.3</ele>
        <time>2022-08-03T09:00:25Z</time>
      </trkpt>
      <trkpt lat="49.84556" lon="2.57621">
        <ele>95.3</ele>
        <time>2022-08-03T09:00:26Z</time>
      </trkpt>
      <trkpt lat="49.84555" lon="2.57621">
        <ele>95.3</ele>
        <time>2022-08-03T09:00:27Z</time>
      </trkpt>
      <trkpt lat="49.84555" lon="2.57621">
        <ele>95.3</ele>
        <time>2022-08-03T09:00:28Z</time>
      </trkpt>
      <trkpt lat="49.84555" lon="2.57622">
        <ele>95.3</ele>
        <time>2022-08-03T09:00:29Z</time>
      </trkpt>
      <trkpt lat="49.84555" lon="2.57622">
        <ele>95.3</ele>
        <time>2022-08-03T09:00:30Z</time>
      </trkpt>
      <trkpt lat="49.84554" lon="2.57622">
        <ele>95.3</ele>
        <time>2022-08-03T09:00:31Z</time>
      </trkpt>
      <trkpt lat="49.84554" lon="2.57622">
        <ele>95.3</ele>
        <time>2022-08-03T09:00:32Z</time>
      </trkpt>
      <trkpt lat="49.84554" lon="2.57622">
        <ele>95.3</ele>
        <time>2022-08-03T09:00:33Z</time>
      </trkpt>
      <trkpt lat="49.84554" lon="2.57622">
        <ele>95.3</ele>
        <time>2022-08-03T09:00:34Z</time>
      </trkpt>
      <trkpt lat="49.84554" lon="2.57622">
        <ele>95.3</ele>
        <time>2022-08-03T09:00:35Z</time>
      </trkpt>
      <trkpt lat="49.84554" lon="2.57622">
        <ele>95.3</ele>
        <time>2022-08-03T09:00:36Z</time>
      </trkpt>
      <trkpt lat="49.84554" lon="2.57622">
        <ele>95.3</ele>
        <time>2022-08-03T09:00:37Z</time>
      </trkpt>
      <trkpt lat="49.84554" lon="2.57622">
        <ele>95.3</ele>
        <time>2022-08-03T09:00:38Z</time>
      </trkpt>
      <trkpt lat="49.84554" lon="2.57622">
        <ele>95.3</ele>
        <time>2022-08-03T09:00:39Z</time>
      </trkpt>
      <trkpt lat="49.84554" lon="2.57622">
        <ele>95.3</ele>
        <time>2022-08-03T09:00:40Z</time>
      </trkpt>
      <trkpt lat="49.84554" lon="2.57622">
        <ele>95.3</ele>
        <time>2022-08-03T09:00:41Z</time>
      </trkpt>
      <trkpt lat="49.84554" lon="2.57622">
        <ele>95.3</ele>
        <time>2022-08-03T09:00:42Z</time>
      </trkpt>
      <trkpt lat="49.84554" lon="2.57622">
        <ele>95.3</ele>
        <time>2022-08-03T09:00:43Z</time>
      </trkpt>
      <trkpt lat="49.84554" lon="2.57622">
        <ele>95.3</ele>
        <time>2022-08-03T09:00:44Z</time>
      </trkpt>
      <trkpt lat="49.84554" lon="2.57622">
        <ele>95.3</ele>
        <time>2022-08-03T09:00:45Z</time>
      </trkpt>
      <trkpt lat="49.84553" lon="2.57622">
        <ele>95.3</ele>
        <time>2022-08-03T09:00:46Z</time>
      </trkpt>
      <trkpt lat="49.84553" lon="2.57621">
        <ele>95.3</ele>
        <time>2022-08-03T09:00:47Z</time>
      </trkpt>
      <trkpt lat="49.84554" lon="2.57621">
        <ele>95.3</ele>
        <time>2022-08-03T09:00:48Z</time>
      </trkpt>
      <trkpt lat="49.84554" lon="2.5762">
        <ele>95.3</ele>
        <time>2022-08-03T09:00:49Z</time>
      </trkpt>
      <trkpt lat="49.84555" lon="2.57619">
        <ele>95.3</ele>
        <time>2022-08-03T09:00:50Z</time>
      </trkpt>
      <trkpt lat="49.84556" lon="2.57618">
        <ele>95.3</ele>
        <time>2022-08-03T09:00:51Z</time>
      </trkpt>
      <trkpt lat="49.84556" lon="2.57618">
        <ele>95.3</ele>
        <time>2022-08-03T09:00:52Z</time>
      </trkpt>
      <trkpt lat="49.84557" lon="2.57617">
        <ele>95.3</ele>
        <time>2022-08-03T09:00:53Z</time>
      </trkpt>
      <trkpt lat="49.84557" lon="2.57618">
        <ele>95.3</ele>
        <time>2022-08-03T09:00:54Z</time>
      </trkpt>
      <trkpt lat="49.84557" lon="2.57618">
        <ele>95.3</ele>
        <time>2022-08-03T09:00:55Z</time>
      </trkpt>
      <trkpt lat="49.84557" lon="2.57619">
        <ele>95.3</ele>
        <time>2022-08-03T09:00:56Z</time>
      </trkpt>
      <trkpt lat="49.84556" lon="2.57619">
        <ele>95.3</ele>
        <time>2022-08-03T09:00:57Z</time>
      </trkpt>
      <trkpt lat="49.84556" lon="2.5762">
        <ele>95.3</ele>
        <time>2022-08-03T09:00:58Z</time>
      </trkpt>
      <trkpt lat="49.84555" lon="2.5762">
        <ele>95.3</ele>
        <time>2022-08-03T09:00:59Z</time>
      </trkpt>
      <trkpt lat="49.84555" lon="2.5762">
        <ele>95.3</ele>
        <time>2022-08-03T09:01:00Z</time>
      </trkpt>
      <trkpt lat="49.84555" lon="2.5762">
        <ele>95.3</ele>
        <time>2022-08-03T09:01:01Z</time>
      </trkpt>
      <trkpt lat="49.84555" lon="2.5762">
        <ele>95.3</ele>
        <time>2022-08-03T09:01:02Z</time>
      </trkpt>
      <trkpt lat="49.84555" lon="2.5762">
        <ele>95.3</ele>
        <time>2022-08-03T09:01:03Z</time>
      </trkpt>
      <trkpt lat="49.84555" lon="2.5762">
        <ele>95.3</ele>
        <time>2022-08-03T09:01:04Z</time>
      </trkpt>
      <trkpt lat="49.84555" lon="2.5762">
        <ele>95.3</ele>
        <time>2022-08-03T09:01:05Z</time>
      </trkpt>
      <trkpt lat="49.84555" lon="2.5762">
        <ele>95.3</ele>
        <time>2022-08-03T09:01:06Z</time>
      </trkpt>
      <trkpt lat="49.84555" lon="2.5762">
        <ele>95.3</ele>
        <time>2022-08-03T09:01:07Z</time>
      </trkpt>
      <trkpt lat="49.84555" lon="2.5762">
        <ele>95.3</ele>
        <time>2022-08-03T09:01:08Z</time>
      </trkpt>
      <trkpt lat="49.84555" lon="2.5762">
        <ele>95.3</ele>
        <time>2022-08-03T09:01:09Z</time>
      </trkpt>
      <trkpt lat="49.84555" lon="2.5762">
        <ele>95.3</ele>
        <time>2022-08-03T09:01:10Z</time>
      </trkpt>
      <trkpt lat="49.84555" lon="2.5762">
        <ele>95.3</ele>
        <time>2022-08-03T09:01:11Z</time>
      </trkpt>
      <trkpt lat="49.84555" lon="2.5762">
        <ele>95.3</ele>
        <time>2022-08-03T09:01:12Z</time>
      </trkpt>
      <trkpt lat="49.84555" lon="2.5762">
        <ele>95.3</ele>
        <time>2022-08-03T09:01:13Z</time>
      </trkpt>
      <trkpt lat="49.84555" lon="2.5762">
        <ele>95.3</ele>
        <time>2022-08-03T09:01:14Z</time>
      </trkpt>
      <trkpt lat="49.84555" lon="2.5762">
        <ele>95.3</ele>
        <time>2022-08-03T09:01:15Z</time>
      </trkpt>
      <trkpt lat="49.84554" lon="2.57618">
        <ele>95.3</ele>
        <time>2022-08-03T09:01:16Z</time>
      </trkpt>
      <trkpt lat="49.84554" lon="2.57617">
        <ele>95.3</ele>
        <time>2022-08-03T09:01:17Z</time>
      </trkpt>
      <trkpt lat="49.84554" lon="2.57617">
        <ele>95.3</ele>
        <time>2022-08-03T09:01:18Z</time>
      </trkpt>
      <trkpt lat="49.84554" lon="2.57616">
        <ele>95.3</ele>
        <time>2022-08-03T09:01:19Z</time>
      </trkpt>
      <trkpt lat="49.84554" lon="2.57616">
        <ele>95.3</ele>
        <time>2022-08-03T09:01:20Z</time>
      </trkpt>
      <trkpt lat="49.84554" lon="2.57616">
        <ele>95.3</ele>
        <time>2022-08-03T09:01:21Z</time>
      </trkpt>
      <trkpt lat="49.84554" lon="2.57616">
        <ele>95.3</ele>
        <time>2022-08-03T09:01:22Z</time>
      </trkpt>
      <trkpt lat="49.84554" lon="2.57616">
        <ele>95.3</ele>
        <time>2022-08-03T09:01:23Z</time>
      </trkpt>
      <trkpt lat="49.84554" lon="2.57616">
        <ele>95.3</ele>
        <time>2022-08-03T09:01:24Z</time>
      </trkpt>
      <trkpt lat="49.84554" lon="2.57616">
        <ele>95.3</ele>
        <time>2022-08-03T09:01:25Z</time>
      </trkpt>
      <trkpt lat="49.84554" lon="2.57616">
        <ele>95.3</ele>
        <time>2022-08-03T09:01:26Z</time>
      </trkpt>
      <trkpt lat="49.84554" lon="2.57616">
        <ele>95.3</ele>
        <time>2022-08-03T09:01:27Z</time>
      </trkpt>
      <trkpt lat="49.84554" lon="2.57616">
        <ele>95.3</ele>
        <time>2022-08-03T09:01:28Z</time>
      </trkpt>
      <trkpt lat="49.84554" lon="2.57616">
        <ele>95.3</ele>
        <time>2022-08-03T09:01:29Z</time>
      </trkpt>
      <trkpt lat="49.84554" lon="2.57616">
        <ele>95.3</ele>
        <time>2022-08-03T09:01:30Z</time>
      </trkpt>
      <trkpt lat="49.84554" lon="2.57616">
        <ele>95.3</ele>
        <time>2022-08-03T09:01:31Z</time>
      </trkpt>
      <trkpt lat="49.84554" lon="2.57616">
        <ele>95.3</ele>
        <time>2022-08-03T09:01:32Z</time>
      </trkpt>
      <trkpt lat="49.84554" lon="2.57616">
        <ele>95.3</ele>
        <time>2022-08-03T09:01:33Z</time>
      </trkpt>
      <trkpt lat="49.84554" lon="2.57616">
        <ele>95.3</ele>
        <time>2022-08-03T09:01:34Z</time>
      </trkpt>
      <trkpt lat="49.84554" lon="2.57616">
        <ele>95.3</ele>
        <time>2022-08-03T09:01:35Z</time>
      </trkpt>
      <trkpt lat="49.84554" lon="2.57616">
        <ele>95.3</ele>
        <time>2022-08-03T09:01:36Z</time>
      </trkpt>
      <trkpt lat="49.84554" lon="2.57616">
        <ele>95.3</ele>
        <time>2022-08-03T09:01:37Z</time>
      </trkpt>
      <trkpt lat="49.84554" lon="2.57616">
        <ele>95.3</ele>
        <time>2022-08-03T09:01:38Z</time>
      </trkpt>
      <trkpt lat="49.84554" lon="2.57616">
        <ele>95.3</ele>
        <time>2022-08-03T09:01:39Z</time>
      </trkpt>
      <trkpt lat="49.84554" lon="2.57616">
        <ele>95.3</ele>
        <time>2022-08-03T09:01:40Z</time>
      </trkpt>
      <trkpt lat="49.84554" lon="2.57616">
        <ele>95.3</ele>
        <time>2022-08-03T09:01:41Z</time>
      </trkpt>
      <trkpt lat="49.84554" lon="2.57616">
        <ele>95.3</ele>
        <time>2022-08-03T09:01:42Z</time>
      </trkpt>
      <trkpt lat="49.84554" lon="2.57616">
        <ele>95.3</ele>
        <time>2022-08-03T09:01:43Z</time>
      </trkpt>
      <trkpt lat="49.84554" lon="2.57616">
        <ele>95.3</ele>
        <time>2022-08-03T09:01:44Z</time>
      </trkpt>
      <trkpt lat="49.84554" lon="2.57616">
        <ele>95.3</ele>
        <time>2022-08-03T09:01:45Z</time>
      </trkpt>
      <trkpt lat="49.84554" lon="2.57616">
        <ele>95.3</ele>
        <time>2022-08-03T09:01:46Z</time>
      </trkpt>
      <trkpt lat="49.84554" lon="2.57616">
        <ele>95.3</ele>
        <time>2022-08-03T09:01:47Z</time>
      </trkpt>
      <trkpt lat="49.84554" lon="2.57616">
        <ele>95.3</ele>
        <time>2022-08-03T09:01:48Z</time>
      </trkpt>
      <trkpt lat="49.84554" lon="2.57616">
        <ele>95.3</ele>
        <time>2022-08-03T09:01:49Z</time>
      </trkpt>
      <trkpt lat="49.84554" lon="2.57616">
        <ele>95.3</ele>
        <time>2022-08-03T09:01:50Z</time>
      </trkpt>
      <trkpt lat="49.84554" lon="2.57616">
        <ele>95.3</ele>
        <time>2022-08-03T09:01:51Z</time>
      </trkpt>
      <trkpt lat="49.84554" lon="2.57616">
        <ele>95.3</ele>
        <time>2022-08-03T09:01:52Z</time>
      </trkpt>
      <trkpt lat="49.84554" lon="2.57616">
        <ele>95.3</ele>
        <time>2022-08-03T09:01:53Z</time>
      </trkpt>
      <trkpt lat="49.84554" lon="2.57616">
        <ele>95.3</ele>
        <time>2022-08-03T09:01:54Z</time>
      </trkpt>
      <trkpt lat="49.84554" lon="2.57616">
        <ele>95.3</ele>
        <time>2022-08-03T09:01:55Z</time>
      </trkpt>
      <trkpt lat="49.84554" lon="2.57616">
        <ele>95.3</ele>
        <time>2022-08-03T09:01:56Z</time>
      </trkpt>
      <trkpt lat="49.84554" lon="2.57616">
        <ele>95.3</ele>
        <time>2022-08-03T09:01:57Z</time>
      </trkpt>
      <trkpt lat="49.84554" lon="2.57616">
        <ele>95.3</ele>
        <time>2022-08-03T09:01:58Z</time>
      </trkpt>
      <trkpt lat="49.84554" lon="2.57616">
        <ele>95.3</ele>
        <time>2022-08-03T09:01:59Z</time>
      </trkpt>
      <trkpt lat="49.84554" lon="2.57616">
        <ele>95.3</ele>
        <time>2022-08-03T09:02:00Z</time>
      </trkpt>
      <trkpt lat="49.84554" lon="2.57616">
        <ele>95.3</ele>
        <time>2022-08-03T09:02:01Z</time>
      </trkpt>
      <trkpt lat="49.84554" lon="2.57616">
        <ele>95.3</ele>
        <time>2022-08-03T09:02:02Z</time>
      </trkpt>
      <trkpt lat="49.84554" lon="2.57616">
        <ele>95.3</ele>
        <time>2022-08-03T09:02:03Z</time>
      </trkpt>
      <trkpt lat="49.84554" lon="2.57616">
        <ele>95.3</ele>
        <time>2022-08-03T09:02:04Z</time>
      </trkpt>
      <trkpt lat="49.84554" lon="2.57616">
        <ele>95.3</ele>
        <time>2022-08-03T09:02:05Z</time>
      </trkpt>
      <trkpt lat="49.84554" lon="2.57616">
        <ele>95.3</ele>
        <time>2022-08-03T09:02:06Z</time>
      </trkpt>
      <trkpt lat="49.84554" lon="2.57616">
        <ele>95.3</ele>
        <time>2022-08-03T09:02:07Z</time>
      </trkpt>
      <trkpt lat="49.84554" lon="2.57616">
        <ele>95.3</ele>
        <time>2022-08-03T09:02:08Z</time>
      </trkpt>
      <trkpt lat="49.84554" lon="2.57616">
        <ele>95.3</ele>
        <time>2022-08-03T09:02:09Z</time>
      </trkpt>
      <trkpt lat="49.84554" lon="2.57616">
        <ele>95.3</ele>
        <time>2022-08-03T09:02:10Z</time>
      </trkpt>
      <trkpt lat="49.84554" lon="2.57616">
        <ele>95.3</ele>
        <time>2022-08-03T09:02:11Z</time>
      </trkpt>
      <trkpt lat="49.84554" lon="2.57616">
        <ele>95.3</ele>
        <time>2022-08-03T09:02:12Z</time>
      </trkpt>
      <trkpt lat="49.84554" lon="2.57616">
        <ele>95.3</ele>
        <time>2022-08-03T09:02:13Z</time>
      </trkpt>
      <trkpt lat="49.84554" lon="2.57616">
        <ele>95.3</ele>
        <time>2022-08-03T09:02:14Z</time>
      </trkpt>
      <trkpt lat="49.84554" lon="2.57616">
        <ele>95.3</ele>
        <time>2022-08-03T09:02:15Z</time>
      </trkpt>
      <trkpt lat="49.84554" lon="2.57616">
        <ele>95.3</ele>
        <time>2022-08-03T09:02:16Z</time>
      </trkpt>
      <trkpt lat="49.84554" lon="2.57616">
        <ele>95.3</ele>
        <time>2022-08-03T09:02:17Z</time>
      </trkpt>
      <trkpt lat="49.84554" lon="2.57616">
        <ele>95.3</ele>
        <time>2022-08-03T09:02:18Z</time>
      </trkpt>
      <trkpt lat="49.84554" lon="2.57616">
        <ele>95.3</ele>
        <time>2022-08-03T09:02:19Z</time>
      </trkpt>
      <trkpt lat="49.84554" lon="2.57616">
        <ele>95.3</ele>
        <time>2022-08-03T09:02:20Z</time>
      </trkpt>
      <trkpt lat="49.84554" lon="2.57616">
        <ele>95.3</ele>
        <time>2022-08-03T09:02:21Z</time>
      </trkpt>
      <trkpt lat="49.84554" lon="2.57616">
        <ele>95.3</ele>
        <time>2022-08-03T09:02:22Z</time>
      </trkpt>
      <trkpt lat="49.84554" lon="2.57616">
        <ele>95.3</ele>
        <time>2022-08-03T09:02:23Z</time>
      </trkpt>
      <trkpt lat="49.84554" lon="2.57616">
        <ele>95.3</ele>
        <time>2022-08-03T09:02:24Z</time>
      </trkpt>
      <trkpt lat="49.84554" lon="2.57616">
        <ele>95.3</ele>
        <time>2022-08-03T09:02:25Z</time>
      </trkpt>
      <trkpt lat="49.84554" lon="2.57616">
        <ele>95.3</ele>
        <time>2022-08-03T09:02:26Z</time>
      </trkpt>
      <trkpt lat="49.84554" lon="2.57616">
        <ele>95.3</ele>
        <time>2022-08-03T09:02:27Z</time>
      </trkpt>
      <trkpt lat="49.84554" lon="2.57616">
        <ele>95.3</ele>
        <time>2022-08-03T09:02:28Z</time>
      </trkpt>
      <trkpt lat="49.84554" lon="2.57616">
        <ele>95.3</ele>
        <time>2022-08-03T09:02:29Z</time>
      </trkpt>
      <trkpt lat="49.84554" lon="2.57616">
        <ele>95.3</ele>
        <time>2022-08-03T09:02:30Z</time>
      </trkpt>
      <trkpt lat="49.84554" lon="2.57616">
        <ele>95.3</ele>
        <time>2022-08-03T09:02:31Z</time>
      </trkpt>
      <trkpt lat="49.84554" lon="2.57616">
        <ele>95.3</ele>
        <time>2022-08-03T09:02:32Z</time>
      </trkpt>
      <trkpt lat="49.84554" lon="2.57616">
        <ele>95.3</ele>
        <time>2022-08-03T09:02:33Z</time>
      </trkpt>
      <trkpt lat="49.84554" lon="2.57616">
        <ele>95.3</ele>
        <time>2022-08-03T09:02:34Z</time>
      </trkpt>
      <trkpt lat="49.84554" lon="2.57616">
        <ele>95.3</ele>
        <time>2022-08-03T09:02:35Z</time>
      </trkpt>
      <trkpt lat="49.84554" lon="2.57616">
        <ele>95.3</ele>
        <time>2022-08-03T09:02:36Z</time>
      </trkpt>
      <trkpt lat="49.84554" lon="2.57616">
        <ele>95.3</ele>
        <time>2022-08-03T09:02:37Z</time>
      </trkpt>
      <trkpt lat="49.84554" lon="2.57616">
        <ele>95.3</ele>
        <time>2022-08-03T09:02:38Z</time>
      </trkpt>
      <trkpt lat="49.84554" lon="2.57616">
        <ele>95.3</ele>
        <time>2022-08-03T09:02:39Z</time>
      </trkpt>
      <trkpt lat="49.84554" lon="2.57616">
        <ele>95.3</ele>
        <time>2022-08-03T09:02:40Z</time>
      </trkpt>
      <trkpt lat="49.84554" lon="2.57616">
        <ele>95.3</ele>
        <time>2022-08-03T09:02:41Z</time>
      </trkpt>
      <trkpt lat="49.84554" lon="2.57616">
        <ele>95.3</ele>
        <time>2022-08-03T09:02:42Z</time>
      </trkpt>
      <trkpt lat="49.84554" lon="2.57616">
        <ele>95.3</ele>
        <time>2022-08-03T09:02:43Z</time>
      </trkpt>
      <trkpt lat="49.84554" lon="2.57616">
        <ele>95.3</ele>
        <time>2022-08-03T09:02:44Z</time>
      </trkpt>
      <trkpt lat="49.84554" lon="2.57616">
        <ele>95.3</ele>
        <time>2022-08-03T09:02:45Z</time>
      </trkpt>
      <trkpt lat="49.84554" lon="2.57616">
        <ele>95.3</ele>
        <time>2022-08-03T09:02:46Z</time>
      </trkpt>
      <trkpt lat="49.84554" lon="2.57616">
        <ele>95.3</ele>
        <time>2022-08-03T09:02:47Z</time>
      </trkpt>
      <trkpt lat="49.84554" lon="2.57616">
        <ele>95.3</ele>
        <time>2022-08-03T09:02:48Z</time>
      </trkpt>
      <trkpt lat="49.84554" lon="2.57616">
        <ele>95.3</ele>
        <time>2022-08-03T09:02:49Z</time>
      </trkpt>
      <trkpt lat="49.84554" lon="2.57616">
        <ele>95.3</ele>
        <time>2022-08-03T09:02:50Z</time>
      </trkpt>
      <trkpt lat="49.84554" lon="2.57616">
        <ele>95.3</ele>
        <time>2022-08-03T09:02:51Z</time>
      </trkpt>
      <trkpt lat="49.84554" lon="2.57616">
        <ele>95.3</ele>
        <time>2022-08-03T09:02:52Z</time>
      </trkpt>
      <trkpt lat="49.84554" lon="2.57616">
        <ele>95.3</ele>
        <time>2022-08-03T09:02:53Z</time>
      </trkpt>
      <trkpt lat="49.84554" lon="2.57616">
        <ele>95.3</ele>
        <time>2022-08-03T09:02:54Z</time>
      </trkpt>
      <trkpt lat="49.84554" lon="2.57616">
        <ele>95.3</ele>
        <time>2022-08-03T09:02:55Z</time>
      </trkpt>
      <trkpt lat="49.84554" lon="2.57616">
        <ele>95.3</ele>
        <time>2022-08-03T09:02:56Z</time>
      </trkpt>
      <trkpt lat="49.84554" lon="2.57616">
        <ele>95.3</ele>
        <time>2022-08-03T09:02:57Z</time>
      </trkpt>
      <trkpt lat="49.84554" lon="2.57616">
        <ele>95.3</ele>
        <time>2022-08-03T09:02:58Z</time>
      </trkpt>
      <trkpt lat="49.84554" lon="2.57616">
        <ele>95.3</ele>
        <time>2022-08-03T09:02:59Z</time>
      </trkpt>
      <trkpt lat="49.84554" lon="2.57616">
        <ele>95.3</ele>
        <time>2022-08-03T09:03:00Z</time>
      </trkpt>
      <trkpt lat="49.84554" lon="2.57616">
        <ele>95.3</ele>
        <time>2022-08-03T09:03:01Z</time>
      </trkpt>
      <trkpt lat="49.84554" lon="2.57616">
        <ele>95.3</ele>
        <time>2022-08-03T09:03:02Z</time>
      </trkpt>
      <trkpt lat="49.84554" lon="2.57616">
        <ele>95.3</ele>
        <time>2022-08-03T09:03:03Z</time>
      </trkpt>
      <trkpt lat="49.84554" lon="2.57616">
        <ele>95.3</ele>
        <time>2022-08-03T09:03:04Z</time>
      </trkpt>
      <trkpt lat="49.84554" lon="2.57616">
        <ele>95.3</ele>
        <time>2022-08-03T09:03:05Z</time>
      </trkpt>
      <trkpt lat="49.84554" lon="2.57616">
        <ele>95.3</ele>
        <time>2022-08-03T09:03:06Z</time>
      </trkpt>
      <trkpt lat="49.84554" lon="2.57616">
        <ele>95.3</ele>
        <time>2022-08-03T09:03:07Z</time>
      </trkpt>
      <trkpt lat="49.84554" lon="2.57616">
        <ele>95.3</ele>
        <time>2022-08-03T09:03:08Z</time>
      </trkpt>
      <trkpt lat="49.84554" lon="2.57616">
        <ele>95.3</ele>
        <time>2022-08-03T09:03:09Z</time>
      </trkpt>
      <trkpt lat="49.84554" lon="2.57616">
        <ele>95.3</ele>
        <time>2022-08-03T09:03:10Z</time>
      </trkpt>
      <trkpt lat="49.84554" lon="2.57616">
        <ele>95.3</ele>
        <time>2022-08-03T09:03:11Z</time>
      </trkpt>
      <trkpt lat="49.84554" lon="2.57616">
        <ele>95.3</ele>
        <time>2022-08-03T09:03:12Z</time>
      </trkpt>
      <trkpt lat="49.84554" lon="2.57616">
        <ele>95.3</ele>
        <time>2022-08-03T09:03:13Z</time>
      </trkpt>
      <trkpt lat="49.84554" lon="2.57616">
        <ele>95.3</ele>
        <time>2022-08-03T09:03:14Z</time>
      </trkpt>
      <trkpt lat="49.84554" lon="2.57616">
        <ele>95.3</ele>
        <time>2022-08-03T09:03:15Z</time>
      </trkpt>
      <trkpt lat="49.84554" lon="2.57616">
        <ele>95.3</ele>
        <time>2022-08-03T09:03:16Z</time>
      </trkpt>
      <trkpt lat="49.84554" lon="2.57616">
        <ele>95.3</ele>
        <time>2022-08-03T09:03:17Z</time>
      </trkpt>
      <trkpt lat="49.84554" lon="2.57616">
        <ele>95.3</ele>
        <time>2022-08-03T09:03:18Z</time>
      </trkpt>
      <trkpt lat="49.84554" lon="2.57616">
        <ele>95.3</ele>
        <time>2022-08-03T09:03:19Z</time>
      </trkpt>
      <trkpt lat="49.84554" lon="2.57616">
        <ele>95.3</ele>
        <time>2022-08-03T09:03:20Z</time>
      </trkpt>
      <trkpt lat="49.84554" lon="2.57616">
        <ele>95.3</ele>
        <time>2022-08-03T09:03:21Z</time>
      </trkpt>
      <trkpt lat="49.84554" lon="2.57616">
        <ele>95.3</ele>
        <time>2022-08-03T09:03:22Z</time>
      </trkpt>
      <trkpt lat="49.84554" lon="2.57616">
        <ele>95.3</ele>
        <time>2022-08-03T09:03:23Z</time>
      </trkpt>
      <trkpt lat="49.84554" lon="2.57616">
        <ele>95.3</ele>
        <time>2022-08-03T09:03:24Z</time>
      </trkpt>
      <trkpt lat="49.84554" lon="2.57616">
        <ele>95.3</ele>
        <time>2022-08-03T09:03:25Z</time>
      </trkpt>
      <trkpt lat="49.84554" lon="2.57615">
        <ele>95.3</ele>
        <time>2022-08-03T09:03:26Z</time>
      </trkpt>
      <trkpt lat="49.84553" lon="2.57614">
        <ele>95.3</ele>
        <time>2022-08-03T09:03:27Z</time>
      </trkpt>
      <trkpt lat="49.84554" lon="2.57613">
        <ele>95.3</ele>
        <time>2022-08-03T09:03:28Z</time>
      </trkpt>
      <trkpt lat="49.84555" lon="2.57613">
        <ele>95.3</ele>
        <time>2022-08-03T09:03:29Z</time>
      </trkpt>
      <trkpt lat="49.84555" lon="2.57613">
        <ele>95.3</ele>
        <time>2022-08-03T09:03:30Z</time>
      </trkpt>
      <trkpt lat="49.84556" lon="2.57612">
        <ele>95.3</ele>
        <time>2022-08-03T09:03:31Z</time>
      </trkpt>
      <trkpt lat="49.84557" lon="2.57612">
        <ele>95.3</ele>
        <time>2022-08-03T09:03:32Z</time>
      </trkpt>
      <trkpt lat="49.8456" lon="2.5761">
        <ele>95.4</ele>
        <time>2022-08-03T09:03:33Z</time>
      </trkpt>
      <trkpt lat="49.84561" lon="2.57609">
        <ele>95.4</ele>
        <time>2022-08-03T09:03:34Z</time>
      </trkpt>
      <trkpt lat="49.84564" lon="2.57607">
        <ele>95.4</ele>
        <time>2022-08-03T09:03:35Z</time>
      </trkpt>
      <trkpt lat="49.84565" lon="2.57607">
        <ele>95.4</ele>
        <time>2022-08-03T09:03:36Z</time>
      </trkpt>
      <trkpt lat="49.84566" lon="2.57606">
        <ele>95.4</ele>
        <time>2022-08-03T09:03:38Z</time>
      </trkpt>
      <trkpt lat="49.84566" lon="2.57606">
        <ele>95.4</ele>
        <time>2022-08-03T09:03:39Z</time>
      </trkpt>
      <trkpt lat="49.84567" lon="2.57605">
        <ele>95.4</ele>
        <time>2022-08-03T09:03:40Z</time>
      </trkpt>
      <trkpt lat="49.84568" lon="2.57605">
        <ele>95.4</ele>
        <time>2022-08-03T09:03:41Z</time>
      </trkpt>
      <trkpt lat="49.8457" lon="2.57605">
        <ele>95.4</ele>
        <time>2022-08-03T09:03:42Z</time>
      </trkpt>
      <trkpt lat="49.84571" lon="2.57604">
        <ele>95.4</ele>
        <time>2022-08-03T09:03:44Z</time>
      </trkpt>
      <trkpt lat="49.84573" lon="2.57602">
        <ele>95.4</ele>
        <time>2022-08-03T09:03:45Z</time>
      </trkpt>
      <trkpt lat="49.84574" lon="2.576">
        <ele>95.4</ele>
        <time>2022-08-03T09:03:47Z</time>
      </trkpt>
      <trkpt lat="49.84576" lon="2.57599">
        <ele>95.4</ele>
        <time>2022-08-03T09:03:48Z</time>
      </trkpt>
      <trkpt lat="49.84578" lon="2.57598">
        <ele>95.5</ele>
        <time>2022-08-03T09:03:50Z</time>
      </trkpt>
      <trkpt lat="49.84579" lon="2.57599">
        <ele>95.5</ele>
        <time>2022-08-03T09:03:51Z</time>
      </trkpt>
      <trkpt lat="49.8458" lon="2.57599">
        <ele>95.5</ele>
        <time>2022-08-03T09:03:52Z</time>
      </trkpt>
      <trkpt lat="49.84581" lon="2.57598">
        <ele>95.5</ele>
        <time>2022-08-03T09:03:53Z</time>
      </trkpt>
      <trkpt lat="49.84583" lon="2.57596">
        <ele>95.5</ele>
        <time>2022-08-03T09:03:54Z</time>
      </trkpt>
      <trkpt lat="49.84583" lon="2.57595">
        <ele>95.5</ele>
        <time>2022-08-03T09:03:55Z</time>
      </trkpt>
      <trkpt lat="49.84584" lon="2.57594">
        <ele>95.5</ele>
        <time>2022-08-03T09:03:56Z</time>
      </trkpt>
      <trkpt lat="49.84584" lon="2.57594">
        <ele>95.5</ele>
        <time>2022-08-03T09:03:58Z</time>
      </trkpt>
      <trkpt lat="49.84586" lon="2.57593">
        <ele>95.5</ele>
        <time>2022-08-03T09:03:59Z</time>
      </trkpt>
      <trkpt lat="49.84586" lon="2.57592">
        <ele>95.5</ele>
        <time>2022-08-03T09:04:00Z</time>
      </trkpt>
      <trkpt lat="49.84587" lon="2.57592">
        <ele>95.5</ele>
        <time>2022-08-03T09:04:01Z</time>
      </trkpt>
      <trkpt lat="49.84589" lon="2.57591">
        <ele>95.5</ele>
        <time>2022-08-03T09:04:02Z</time>
      </trkpt>
      <trkpt lat="49.8459" lon="2.57591">
        <ele>95.5</ele>
        <time>2022-08-03T09:04:03Z</time>
      </trkpt>
      <trkpt lat="49.84591" lon="2.57591">
        <ele>95.5</ele>
        <time>2022-08-03T09:04:05Z</time>
      </trkpt>
      <trkpt lat="49.84592" lon="2.5759">
        <ele>95.5</ele>
        <time>2022-08-03T09:04:06Z</time>
      </trkpt>
      <trkpt lat="49.84593" lon="2.5759">
        <ele>95.5</ele>
        <time>2022-08-03T09:04:07Z</time>
      </trkpt>
      <trkpt lat="49.84594" lon="2.57589">
        <ele>95.6</ele>
        <time>2022-08-03T09:04:08Z</time>
      </trkpt>
      <trkpt lat="49.84595" lon="2.57587">
        <ele>95.6</ele>
        <time>2022-08-03T09:04:09Z</time>
      </trkpt>
      <trkpt lat="49.84596" lon="2.57586">
        <ele>95.6</ele>
        <time>2022-08-03T09:04:10Z</time>
      </trkpt>
      <trkpt lat="49.84596" lon="2.57586">
        <ele>95.6</ele>
        <time>2022-08-03T09:04:11Z</time>
      </trkpt>
      <trkpt lat="49.84597" lon="2.57585">
        <ele>95.6</ele>
        <time>2022-08-03T09:04:12Z</time>
      </trkpt>
      <trkpt lat="49.84598" lon="2.57585">
        <ele>95.6</ele>
        <time>2022-08-03T09:04:13Z</time>
      </trkpt>
      <trkpt lat="49.84599" lon="2.57585">
        <ele>95.6</ele>
        <time>2022-08-03T09:04:14Z</time>
      </trkpt>
      <trkpt lat="49.846" lon="2.57584">
        <ele>95.6</ele>
        <time>2022-08-03T09:04:15Z</time>
      </trkpt>
      <trkpt lat="49.84601" lon="2.57583">
        <ele>95.6</ele>
        <time>2022-08-03T09:04:17Z</time>
      </trkpt>
      <trkpt lat="49.84602" lon="2.57583">
        <ele>95.6</ele>
        <time>2022-08-03T09:04:18Z</time>
      </trkpt>
      <trkpt lat="49.84604" lon="2.57582">
        <ele>95.6</ele>
        <time>2022-08-03T09:04:19Z</time>
      </trkpt>
      <trkpt lat="49.84605" lon="2.57581">
        <ele>95.6</ele>
        <time>2022-08-03T09:04:20Z</time>
      </trkpt>
      <trkpt lat="49.84605" lon="2.5758">
        <ele>95.6</ele>
        <time>2022-08-03T09:04:21Z</time>
      </trkpt>
      <trkpt lat="49.84607" lon="2.57579">
        <ele>95.6</ele>
        <time>2022-08-03T09:04:22Z</time>
      </trkpt>
      <trkpt lat="49.84608" lon="2.57578">
        <ele>95.6</ele>
        <time>2022-08-03T09:04:24Z</time>
      </trkpt>
      <trkpt lat="49.84609" lon="2.57577">
        <ele>95.7</ele>
        <time>2022-08-03T09:04:25Z</time>
      </trkpt>
      <trkpt lat="49.8461" lon="2.57576">
        <ele>95.7</ele>
        <time>2022-08-03T09:04:26Z</time>
      </trkpt>
      <trkpt lat="49.84611" lon="2.57576">
        <ele>95.7</ele>
        <time>2022-08-03T09:04:27Z</time>
      </trkpt>
      <trkpt lat="49.84612" lon="2.57575">
        <ele>95.7</ele>
        <time>2022-08-03T09:04:28Z</time>
      </trkpt>
      <trkpt lat="49.84613" lon="2.57575">
        <ele>95.7</ele>
        <time>2022-08-03T09:04:29Z</time>
      </trkpt>
      <trkpt lat="49.84614" lon="2.57574">
        <ele>95.7</ele>
        <time>2022-08-03T09:04:30Z</time>
      </trkpt>
      <trkpt lat="49.84615" lon="2.57573">
        <ele>95.7</ele>
        <time>2022-08-03T09:04:31Z</time>
      </trkpt>
      <trkpt lat="49.84616" lon="2.57573">
        <ele>95.7</ele>
        <time>2022-08-03T09:04:32Z</time>
      </trkpt>
      <trkpt lat="49.84617" lon="2.57573">
        <ele>95.7</ele>
        <time>2022-08-03T09:04:33Z</time>
      </trkpt>
      <trkpt lat="49.84618" lon="2.57572">
        <ele>95.7</ele>
        <time>2022-08-03T09:04:35Z</time>
      </trkpt>
      <trkpt lat="49.84618" lon="2.57572">
        <ele>95.7</ele>
        <time>2022-08-03T09:04:36Z</time>
      </trkpt>
      <trkpt lat="49.8462" lon="2.57571">
        <ele>95.7</ele>
        <time>2022-08-03T09:04:37Z</time>
      </trkpt>
      <trkpt lat="49.84621" lon="2.5757">
        <ele>95.7</ele>
        <time>2022-08-03T09:04:38Z</time>
      </trkpt>
      <trkpt lat="49.84622" lon="2.5757">
        <ele>95.7</ele>
        <time>2022-08-03T09:04:39Z</time>
      </trkpt>
      <trkpt lat="49.84623" lon="2.57569">
        <ele>95.7</ele>
        <time>2022-08-03T09:04:41Z</time>
      </trkpt>
      <trkpt lat="49.84624" lon="2.57569">
        <ele>95.7</ele>
        <time>2022-08-03T09:04:42Z</time>
      </trkpt>
      <trkpt lat="49.84625" lon="2.57568">
        <ele>95.7</ele>
        <time>2022-08-03T09:04:43Z</time>
      </trkpt>
      <trkpt lat="49.84626" lon="2.57568">
        <ele>95.8</ele>
        <time>2022-08-03T09:04:44Z</time>
      </trkpt>
      <trkpt lat="49.84627" lon="2.57567">
        <ele>95.8</ele>
        <time>2022-08-03T09:04:45Z</time>
      </trkpt>
      <trkpt lat="49.84628" lon="2.57566">
        <ele>95.8</ele>
        <time>2022-08-03T09:04:46Z</time>
      </trkpt>
      <trkpt lat="49.84629" lon="2.57566">
        <ele>95.8</ele>
        <time>2022-08-03T09:04:47Z</time>
      </trkpt>
      <trkpt lat="49.8463" lon="2.57565">
        <ele>95.8</ele>
        <time>2022-08-03T09:04:48Z</time>
      </trkpt>
      <trkpt lat="49.84631" lon="2.57564">
        <ele>95.8</ele>
        <time>2022-08-03T09:04:49Z</time>
      </trkpt>
      <trkpt lat="49.84632" lon="2.57564">
        <ele>95.8</ele>
        <time>2022-08-03T09:04:50Z</time>
      </trkpt>
      <trkpt lat="49.84633" lon="2.57562">
        <ele>95.8</ele>
        <time>2022-08-03T09:04:51Z</time>
      </trkpt>
      <trkpt lat="49.84634" lon="2.57562">
        <ele>95.8</ele>
        <time>2022-08-03T09:04:53Z</time>
      </trkpt>
      <trkpt lat="49.84635" lon="2.57562">
        <ele>95.8</ele>
        <time>2022-08-03T09:04:54Z</time>
      </trkpt>
      <trkpt lat="49.84636" lon="2.57561">
        <ele>95.8</ele>
        <time>2022-08-03T09:04:55Z</time>
      </trkpt>
      <trkpt lat="49.84637" lon="2.57561">
        <ele>95.8</ele>
        <time>2022-08-03T09:04:56Z</time>
      </trkpt>
      <trkpt lat="49.84639" lon="2.57561">
        <ele>95.8</ele>
        <time>2022-08-03T09:04:58Z</time>
      </trkpt>
      <trkpt lat="49.8464" lon="2.57561">
        <ele>95.8</ele>
        <time>2022-08-03T09:04:59Z</time>
      </trkpt>
      <trkpt lat="49.84641" lon="2.57561">
        <ele>95.8</ele>
        <time>2022-08-03T09:05:00Z</time>
      </trkpt>
      <trkpt lat="49.84642" lon="2.57561">
        <ele>95.8</ele>
        <time>2022-08-03T09:05:01Z</time>
      </trkpt>
      <trkpt lat="49.84643" lon="2.57561">
        <ele>95.8</ele>
        <time>2022-08-03T09:05:02Z</time>
      </trkpt>
      <trkpt lat="49.84644" lon="2.57561">
        <ele>95.8</ele>
        <time>2022-08-03T09:05:03Z</time>
      </trkpt>
      <trkpt lat="49.84645" lon="2.57561">
        <ele>95.8</ele>
        <time>2022-08-03T09:05:04Z</time>
      </trkpt>
      <trkpt lat="49.84646" lon="2.57561">
        <ele>95.8</ele>
        <time>2022-08-03T09:05:05Z</time>
      </trkpt>
      <trkpt lat="49.84647" lon="2.57562">
        <ele>95.8</ele>
        <time>2022-08-03T09:05:06Z</time>
      </trkpt>
      <trkpt lat="49.84648" lon="2.57563">
        <ele>95.8</ele>
        <time>2022-08-03T09:05:07Z</time>
      </trkpt>
      <trkpt lat="49.84649" lon="2.57564">
        <ele>95.9</ele>
        <time>2022-08-03T09:05:08Z</time>
      </trkpt>
      <trkpt lat="49.84651" lon="2.57564">
        <ele>95.9</ele>
        <time>2022-08-03T09:05:09Z</time>
      </trkpt>
      <trkpt lat="49.84652" lon="2.57564">
        <ele>95.9</ele>
        <time>2022-08-03T09:05:10Z</time>
      </trkpt>
      <trkpt lat="49.84654" lon="2.57564">
        <ele>95.9</ele>
        <time>2022-08-03T09:05:12Z</time>
      </trkpt>
      <trkpt lat="49.84655" lon="2.57564">
        <ele>95.9</ele>
        <time>2022-08-03T09:05:13Z</time>
      </trkpt>
      <trkpt lat="49.84657" lon="2.57564">
        <ele>95.9</ele>
        <time>2022-08-03T09:05:14Z</time>
      </trkpt>
      <trkpt lat="49.84658" lon="2.57564">
        <ele>95.9</ele>
        <time>2022-08-03T09:05:15Z</time>
      </trkpt>
      <trkpt lat="49.8466" lon="2.57564">
        <ele>95.9</ele>
        <time>2022-08-03T09:05:16Z</time>
      </trkpt>
      <trkpt lat="49.84661" lon="2.57564">
        <ele>95.9</ele>
        <time>2022-08-03T09:05:17Z</time>
      </trkpt>
      <trkpt lat="49.84662" lon="2.57564">
        <ele>95.9</ele>
        <time>2022-08-03T09:05:19Z</time>
      </trkpt>
      <trkpt lat="49.84662" lon="2.57564">
        <ele>95.9</ele>
        <time>2022-08-03T09:05:20Z</time>
      </trkpt>
      <trkpt lat="49.84663" lon="2.57562">
        <ele>95.9</ele>
        <time>2022-08-03T09:05:21Z</time>
      </trkpt>
      <trkpt lat="49.84662" lon="2.57561">
        <ele>95.9</ele>
        <time>2022-08-03T09:05:22Z</time>
      </trkpt>
      <trkpt lat="49.84662" lon="2.57559">
        <ele>95.9</ele>
        <time>2022-08-03T09:05:23Z</time>
      </trkpt>
      <trkpt lat="49.84662" lon="2.57558">
        <ele>95.9</ele>
        <time>2022-08-03T09:05:25Z</time>
      </trkpt>
      <trkpt lat="49.84661" lon="2.57557">
        <ele>95.9</ele>
        <time>2022-08-03T09:05:26Z</time>
      </trkpt>
      <trkpt lat="49.84661" lon="2.57555">
        <ele>95.9</ele>
        <time>2022-08-03T09:05:27Z</time>
      </trkpt>
      <trkpt lat="49.8466" lon="2.57554">
        <ele>95.9</ele>
        <time>2022-08-03T09:05:28Z</time>
      </trkpt>
      <trkpt lat="49.84662" lon="2.5755">
        <ele>96</ele>
        <time>2022-08-03T09:05:29Z</time>
      </trkpt>
      <trkpt lat="49.84662" lon="2.57549">
        <ele>96</ele>
        <time>2022-08-03T09:05:31Z</time>
      </trkpt>
      <trkpt lat="49.84663" lon="2.57548">
        <ele>96</ele>
        <time>2022-08-03T09:05:32Z</time>
      </trkpt>
      <trkpt lat="49.84664" lon="2.57547">
        <ele>96</ele>
        <time>2022-08-03T09:05:33Z</time>
      </trkpt>
      <trkpt lat="49.84665" lon="2.57546">
        <ele>96</ele>
        <time>2022-08-03T09:05:34Z</time>
      </trkpt>
      <trkpt lat="49.84666" lon="2.57544">
        <ele>96</ele>
        <time>2022-08-03T09:05:35Z</time>
      </trkpt>
      <trkpt lat="49.84667" lon="2.57543">
        <ele>96</ele>
        <time>2022-08-03T09:05:37Z</time>
      </trkpt>
      <trkpt lat="49.84668" lon="2.57542">
        <ele>96</ele>
        <time>2022-08-03T09:05:38Z</time>
      </trkpt>
      <trkpt lat="49.84669" lon="2.57541">
        <ele>96</ele>
        <time>2022-08-03T09:05:39Z</time>
      </trkpt>
      <trkpt lat="49.8467" lon="2.57541">
        <ele>96</ele>
        <time>2022-08-03T09:05:40Z</time>
      </trkpt>
      <trkpt lat="49.8467" lon="2.5754">
        <ele>96</ele>
        <time>2022-08-03T09:05:41Z</time>
      </trkpt>
      <trkpt lat="49.84671" lon="2.57539">
        <ele>96</ele>
        <time>2022-08-03T09:05:42Z</time>
      </trkpt>
      <trkpt lat="49.84672" lon="2.57539">
        <ele>96</ele>
        <time>2022-08-03T09:05:43Z</time>
      </trkpt>
      <trkpt lat="49.84673" lon="2.57538">
        <ele>96</ele>
        <time>2022-08-03T09:05:44Z</time>
      </trkpt>
      <trkpt lat="49.84674" lon="2.57537">
        <ele>96</ele>
        <time>2022-08-03T09:05:45Z</time>
      </trkpt>
      <trkpt lat="49.84675" lon="2.57537">
        <ele>96</ele>
        <time>2022-08-03T09:05:46Z</time>
      </trkpt>
      <trkpt lat="49.84676" lon="2.57537">
        <ele>96</ele>
        <time>2022-08-03T09:05:48Z</time>
      </trkpt>
      <trkpt lat="49.84677" lon="2.57537">
        <ele>96</ele>
        <time>2022-08-03T09:05:49Z</time>
      </trkpt>
      <trkpt lat="49.84678" lon="2.57536">
        <ele>96</ele>
        <time>2022-08-03T09:05:51Z</time>
      </trkpt>
      <trkpt lat="49.84679" lon="2.57536">
        <ele>96</ele>
        <time>2022-08-03T09:05:52Z</time>
      </trkpt>
      <trkpt lat="49.8468" lon="2.57536">
        <ele>96</ele>
        <time>2022-08-03T09:05:53Z</time>
      </trkpt>
      <trkpt lat="49.84681" lon="2.57536">
        <ele>96</ele>
        <time>2022-08-03T09:05:54Z</time>
      </trkpt>
      <trkpt lat="49.84682" lon="2.57536">
        <ele>96</ele>
        <time>2022-08-03T09:05:55Z</time>
      </trkpt>
      <trkpt lat="49.84683" lon="2.57536">
        <ele>96</ele>
        <time>2022-08-03T09:05:56Z</time>
      </trkpt>
      <trkpt lat="49.84683" lon="2.57535">
        <ele>96</ele>
        <time>2022-08-03T09:05:57Z</time>
      </trkpt>
      <trkpt lat="49.84684" lon="2.57535">
        <ele>96</ele>
        <time>2022-08-03T09:05:59Z</time>
      </trkpt>
      <trkpt lat="49.84685" lon="2.57535">
        <ele>96</ele>
        <time>2022-08-03T09:06:00Z</time>
      </trkpt>
      <trkpt lat="49.84686" lon="2.57535">
        <ele>96</ele>
        <time>2022-08-03T09:06:01Z</time>
      </trkpt>
      <trkpt lat="49.84687" lon="2.57535">
        <ele>96</ele>
        <time>2022-08-03T09:06:02Z</time>
      </trkpt>
      <trkpt lat="49.84688" lon="2.57536">
        <ele>96</ele>
        <time>2022-08-03T09:06:04Z</time>
      </trkpt>
      <trkpt lat="49.84688" lon="2.57537">
        <ele>96</ele>
        <time>2022-08-03T09:06:05Z</time>
      </trkpt>
      <trkpt lat="49.84689" lon="2.57538">
        <ele>96.1</ele>
        <time>2022-08-03T09:06:06Z</time>
      </trkpt>
      <trkpt lat="49.8469" lon="2.57539">
        <ele>96.1</ele>
        <time>2022-08-03T09:06:07Z</time>
      </trkpt>
      <trkpt lat="49.8469" lon="2.57539">
        <ele>96.1</ele>
        <time>2022-08-03T09:06:08Z</time>
      </trkpt>
      <trkpt lat="49.84691" lon="2.5754">
        <ele>96.1</ele>
        <time>2022-08-03T09:06:09Z</time>
      </trkpt>
      <trkpt lat="49.84691" lon="2.5754">
        <ele>96.1</ele>
        <time>2022-08-03T09:06:10Z</time>
      </trkpt>
      <trkpt lat="49.84691" lon="2.5754">
        <ele>96.1</ele>
        <time>2022-08-03T09:06:12Z</time>
      </trkpt>
      <trkpt lat="49.84691" lon="2.5754">
        <ele>96.1</ele>
        <time>2022-08-03T09:06:13Z</time>
      </trkpt>
      <trkpt lat="49.84692" lon="2.57539">
        <ele>96.1</ele>
        <time>2022-08-03T09:06:14Z</time>
      </trkpt>
      <trkpt lat="49.84692" lon="2.57539">
        <ele>96.1</ele>
        <time>2022-08-03T09:06:15Z</time>
      </trkpt>
      <trkpt lat="49.84692" lon="2.57539">
        <ele>96.1</ele>
        <time>2022-08-03T09:06:16Z</time>
      </trkpt>
      <trkpt lat="49.84692" lon="2.57539">
        <ele>96.1</ele>
        <time>2022-08-03T09:06:17Z</time>
      </trkpt>
      <trkpt lat="49.84692" lon="2.57539">
        <ele>96.1</ele>
        <time>2022-08-03T09:06:18Z</time>
      </trkpt>
      <trkpt lat="49.84693" lon="2.57539">
        <ele>96.1</ele>
        <time>2022-08-03T09:06:19Z</time>
      </trkpt>
      <trkpt lat="49.84693" lon="2.57538">
        <ele>96.1</ele>
        <time>2022-08-03T09:06:20Z</time>
      </trkpt>
      <trkpt lat="49.84693" lon="2.57538">
        <ele>96.1</ele>
        <time>2022-08-03T09:06:21Z</time>
      </trkpt>
      <trkpt lat="49.84693" lon="2.57538">
        <ele>96.1</ele>
        <time>2022-08-03T09:06:22Z</time>
      </trkpt>
      <trkpt lat="49.84694" lon="2.57538">
        <ele>96.1</ele>
        <time>2022-08-03T09:06:23Z</time>
      </trkpt>
      <trkpt lat="49.84694" lon="2.57538">
        <ele>96.1</ele>
        <time>2022-08-03T09:06:24Z</time>
      </trkpt>
      <trkpt lat="49.84695" lon="2.57537">
        <ele>96.1</ele>
        <time>2022-08-03T09:06:25Z</time>
      </trkpt>
      <trkpt lat="49.84696" lon="2.57537">
        <ele>96.1</ele>
        <time>2022-08-03T09:06:26Z</time>
      </trkpt>
      <trkpt lat="49.84697" lon="2.57537">
        <ele>96.1</ele>
        <time>2022-08-03T09:06:28Z</time>
      </trkpt>
      <trkpt lat="49.84698" lon="2.57537">
        <ele>96.1</ele>
        <time>2022-08-03T09:06:29Z</time>
      </trkpt>
      <trkpt lat="49.84699" lon="2.57536">
        <ele>96.1</ele>
        <time>2022-08-03T09:06:30Z</time>
      </trkpt>
      <trkpt lat="49.847" lon="2.57536">
        <ele>96.1</ele>
        <time>2022-08-03T09:06:31Z</time>
      </trkpt>
      <trkpt lat="49.847" lon="2.57533">
        <ele>96.1</ele>
        <time>2022-08-03T09:06:32Z</time>
      </trkpt>
      <trkpt lat="49.847" lon="2.57531">
        <ele>96.1</ele>
        <time>2022-08-03T09:06:33Z</time>
      </trkpt>
      <trkpt lat="49.847" lon="2.5753">
        <ele>96.1</ele>
        <time>2022-08-03T09:06:34Z</time>
      </trkpt>
      <trkpt lat="49.847" lon="2.57529">
        <ele>96.1</ele>
        <time>2022-08-03T09:06:35Z</time>
      </trkpt>
      <trkpt lat="49.84702" lon="2.57528">
        <ele>96.2</ele>
        <time>2022-08-03T09:06:36Z</time>
      </trkpt>
      <trkpt lat="49.84703" lon="2.57527">
        <ele>96.2</ele>
        <time>2022-08-03T09:06:38Z</time>
      </trkpt>
      <trkpt lat="49.84705" lon="2.57526">
        <ele>96.2</ele>
        <time>2022-08-03T09:06:39Z</time>
      </trkpt>
      <trkpt lat="49.84706" lon="2.57526">
        <ele>96.2</ele>
        <time>2022-08-03T09:06:40Z</time>
      </trkpt>
      <trkpt lat="49.84707" lon="2.57525">
        <ele>96.2</ele>
        <time>2022-08-03T09:06:41Z</time>
      </trkpt>
      <trkpt lat="49.84708" lon="2.57525">
        <ele>96.2</ele>
        <time>2022-08-03T09:06:42Z</time>
      </trkpt>
      <trkpt lat="49.8471" lon="2.57524">
        <ele>96.2</ele>
        <time>2022-08-03T09:06:43Z</time>
      </trkpt>
      <trkpt lat="49.84711" lon="2.57523">
        <ele>96.2</ele>
        <time>2022-08-03T09:06:44Z</time>
      </trkpt>
      <trkpt lat="49.84713" lon="2.57522">
        <ele>96.2</ele>
        <time>2022-08-03T09:06:45Z</time>
      </trkpt>
      <trkpt lat="49.84714" lon="2.57521">
        <ele>96.2</ele>
        <time>2022-08-03T09:06:46Z</time>
      </trkpt>
      <trkpt lat="49.84715" lon="2.5752">
        <ele>96.2</ele>
        <time>2022-08-03T09:06:48Z</time>
      </trkpt>
      <trkpt lat="49.84716" lon="2.5752">
        <ele>96.2</ele>
        <time>2022-08-03T09:06:49Z</time>
      </trkpt>
      <trkpt lat="49.84718" lon="2.57519">
        <ele>96.2</ele>
        <time>2022-08-03T09:06:50Z</time>
      </trkpt>
      <trkpt lat="49.84719" lon="2.57518">
        <ele>96.3</ele>
        <time>2022-08-03T09:06:51Z</time>
      </trkpt>
      <trkpt lat="49.84721" lon="2.57518">
        <ele>96.3</ele>
        <time>2022-08-03T09:06:52Z</time>
      </trkpt>
      <trkpt lat="49.84722" lon="2.57518">
        <ele>96.3</ele>
        <time>2022-08-03T09:06:53Z</time>
      </trkpt>
      <trkpt lat="49.84723" lon="2.57518">
        <ele>96.3</ele>
        <time>2022-08-03T09:06:54Z</time>
      </trkpt>
      <trkpt lat="49.84726" lon="2.57517">
        <ele>96.3</ele>
        <time>2022-08-03T09:06:55Z</time>
      </trkpt>
      <trkpt lat="49.84727" lon="2.57517">
        <ele>96.3</ele>
        <time>2022-08-03T09:06:57Z</time>
      </trkpt>
      <trkpt lat="49.84728" lon="2.57517">
        <ele>96.3</ele>
        <time>2022-08-03T09:06:58Z</time>
      </trkpt>
      <trkpt lat="49.84729" lon="2.57517">
        <ele>96.3</ele>
        <time>2022-08-03T09:06:59Z</time>
      </trkpt>
      <trkpt lat="49.8473" lon="2.57517">
        <ele>96.3</ele>
        <time>2022-08-03T09:07:00Z</time>
      </trkpt>
      <trkpt lat="49.84732" lon="2.57517">
        <ele>96.3</ele>
        <time>2022-08-03T09:07:01Z</time>
      </trkpt>
      <trkpt lat="49.84733" lon="2.57518">
        <ele>96.3</ele>
        <time>2022-08-03T09:07:02Z</time>
      </trkpt>
      <trkpt lat="49.84734" lon="2.57518">
        <ele>96.3</ele>
        <time>2022-08-03T09:07:04Z</time>
      </trkpt>
      <trkpt lat="49.84737" lon="2.57519">
        <ele>96.4</ele>
        <time>2022-08-03T09:07:05Z</time>
      </trkpt>
      <trkpt lat="49.84738" lon="2.5752">
        <ele>96.4</ele>
        <time>2022-08-03T09:07:06Z</time>
      </trkpt>
      <trkpt lat="49.84739" lon="2.5752">
        <ele>96.4</ele>
        <time>2022-08-03T09:07:07Z</time>
      </trkpt>
      <trkpt lat="49.84741" lon="2.5752">
        <ele>96.4</ele>
        <time>2022-08-03T09:07:09Z</time>
      </trkpt>
      <trkpt lat="49.84742" lon="2.57521">
        <ele>96.4</ele>
        <time>2022-08-03T09:07:10Z</time>
      </trkpt>
      <trkpt lat="49.84743" lon="2.57522">
        <ele>96.4</ele>
        <time>2022-08-03T09:07:11Z</time>
      </trkpt>
      <trkpt lat="49.84744" lon="2.57523">
        <ele>96.4</ele>
        <time>2022-08-03T09:07:12Z</time>
      </trkpt>
      <trkpt lat="49.84746" lon="2.57523">
        <ele>96.4</ele>
        <time>2022-08-03T09:07:13Z</time>
      </trkpt>
      <trkpt lat="49.84747" lon="2.57524">
        <ele>96.4</ele>
        <time>2022-08-03T09:07:14Z</time>
      </trkpt>
      <trkpt lat="49.84749" lon="2.57525">
        <ele>96.4</ele>
        <time>2022-08-03T09:07:15Z</time>
      </trkpt>
      <trkpt lat="49.8475" lon="2.57525">
        <ele>96.4</ele>
        <time>2022-08-03T09:07:16Z</time>
      </trkpt>
      <trkpt lat="49.84751" lon="2.57526">
        <ele>96.4</ele>
        <time>2022-08-03T09:07:17Z</time>
      </trkpt>
      <trkpt lat="49.84752" lon="2.57527">
        <ele>96.4</ele>
        <time>2022-08-03T09:07:18Z</time>
      </trkpt>
      <trkpt lat="49.84754" lon="2.57528">
        <ele>96.5</ele>
        <time>2022-08-03T09:07:19Z</time>
      </trkpt>
      <trkpt lat="49.84755" lon="2.57528">
        <ele>96.5</ele>
        <time>2022-08-03T09:07:21Z</time>
      </trkpt>
      <trkpt lat="49.84756" lon="2.57528">
        <ele>96.5</ele>
        <time>2022-08-03T09:07:22Z</time>
      </trkpt>
      <trkpt lat="49.84757" lon="2.57529">
        <ele>96.5</ele>
        <time>2022-08-03T09:07:23Z</time>
      </trkpt>
      <trkpt lat="49.84758" lon="2.57529">
        <ele>96.5</ele>
        <time>2022-08-03T09:07:24Z</time>
      </trkpt>
      <trkpt lat="49.84759" lon="2.5753">
        <ele>96.5</ele>
        <time>2022-08-03T09:07:25Z</time>
      </trkpt>
      <trkpt lat="49.84761" lon="2.5753">
        <ele>96.5</ele>
        <time>2022-08-03T09:07:26Z</time>
      </trkpt>
      <trkpt lat="49.84762" lon="2.57531">
        <ele>96.5</ele>
        <time>2022-08-03T09:07:27Z</time>
      </trkpt>
      <trkpt lat="49.84764" lon="2.57532">
        <ele>96.5</ele>
        <time>2022-08-03T09:07:28Z</time>
      </trkpt>
      <trkpt lat="49.84765" lon="2.57532">
        <ele>96.5</ele>
        <time>2022-08-03T09:07:30Z</time>
      </trkpt>
      <trkpt lat="49.84765" lon="2.57532">
        <ele>96.5</ele>
        <time>2022-08-03T09:07:31Z</time>
      </trkpt>
      <trkpt lat="49.84766" lon="2.57532">
        <ele>96.5</ele>
        <time>2022-08-03T09:07:32Z</time>
      </trkpt>
      <trkpt lat="49.84768" lon="2.57532">
        <ele>96.5</ele>
        <time>2022-08-03T09:07:33Z</time>
      </trkpt>
      <trkpt lat="49.84769" lon="2.57533">
        <ele>96.5</ele>
        <time>2022-08-03T09:07:34Z</time>
      </trkpt>
      <trkpt lat="49.8477" lon="2.57534">
        <ele>96.5</ele>
        <time>2022-08-03T09:07:35Z</time>
      </trkpt>
      <trkpt lat="49.84771" lon="2.57534">
        <ele>96.5</ele>
        <time>2022-08-03T09:07:36Z</time>
      </trkpt>
      <trkpt lat="49.84772" lon="2.57534">
        <ele>96.6</ele>
        <time>2022-08-03T09:07:38Z</time>
      </trkpt>
      <trkpt lat="49.84773" lon="2.57534">
        <ele>96.6</ele>
        <time>2022-08-03T09:07:39Z</time>
      </trkpt>
      <trkpt lat="49.84773" lon="2.57534">
        <ele>96.6</ele>
        <time>2022-08-03T09:07:40Z</time>
      </trkpt>
      <trkpt lat="49.84775" lon="2.57534">
        <ele>96.6</ele>
        <time>2022-08-03T09:07:41Z</time>
      </trkpt>
      <trkpt lat="49.84776" lon="2.57534">
        <ele>96.6</ele>
        <time>2022-08-03T09:07:43Z</time>
      </trkpt>
      <trkpt lat="49.84776" lon="2.57533">
        <ele>96.6</ele>
        <time>2022-08-03T09:07:44Z</time>
      </trkpt>
      <trkpt lat="49.84777" lon="2.57532">
        <ele>96.6</ele>
        <time>2022-08-03T09:07:45Z</time>
      </trkpt>
      <trkpt lat="49.84777" lon="2.57531">
        <ele>96.6</ele>
        <time>2022-08-03T09:07:46Z</time>
      </trkpt>
      <trkpt lat="49.84778" lon="2.5753">
        <ele>96.6</ele>
        <time>2022-08-03T09:07:47Z</time>
      </trkpt>
      <trkpt lat="49.84778" lon="2.57529">
        <ele>96.6</ele>
        <time>2022-08-03T09:07:48Z</time>
      </trkpt>
      <trkpt lat="49.84779" lon="2.57527">
        <ele>96.7</ele>
        <time>2022-08-03T09:07:49Z</time>
      </trkpt>
      <trkpt lat="49.84779" lon="2.57524">
        <ele>96.7</ele>
        <time>2022-08-03T09:07:50Z</time>
      </trkpt>
      <trkpt lat="49.84779" lon="2.57522">
        <ele>96.7</ele>
        <time>2022-08-03T09:07:51Z</time>
      </trkpt>
      <trkpt lat="49.84779" lon="2.5752">
        <ele>96.7</ele>
        <time>2022-08-03T09:07:52Z</time>
      </trkpt>
      <trkpt lat="49.84779" lon="2.57518">
        <ele>96.7</ele>
        <time>2022-08-03T09:07:53Z</time>
      </trkpt>
      <trkpt lat="49.84779" lon="2.57516">
        <ele>96.7</ele>
        <time>2022-08-03T09:07:54Z</time>
      </trkpt>
      <trkpt lat="49.84779" lon="2.57513">
        <ele>96.7</ele>
        <time>2022-08-03T09:07:55Z</time>
      </trkpt>
      <trkpt lat="49.84779" lon="2.57509">
        <ele>96.8</ele>
        <time>2022-08-03T09:07:56Z</time>
      </trkpt>
      <trkpt lat="49.84779" lon="2.57507">
        <ele>96.8</ele>
        <time>2022-08-03T09:07:57Z</time>
      </trkpt>
      <trkpt lat="49.8478" lon="2.57505">
        <ele>96.8</ele>
        <time>2022-08-03T09:07:59Z</time>
      </trkpt>
      <trkpt lat="49.8478" lon="2.57502">
        <ele>96.8</ele>
        <time>2022-08-03T09:08:00Z</time>
      </trkpt>
      <trkpt lat="49.8478" lon="2.575">
        <ele>96.8</ele>
        <time>2022-08-03T09:08:01Z</time>
      </trkpt>
      <trkpt lat="49.84781" lon="2.57497">
        <ele>96.9</ele>
        <time>2022-08-03T09:08:02Z</time>
      </trkpt>
      <trkpt lat="49.84782" lon="2.57493">
        <ele>96.9</ele>
        <time>2022-08-03T09:08:03Z</time>
      </trkpt>
      <trkpt lat="49.84782" lon="2.57492">
        <ele>96.9</ele>
        <time>2022-08-03T09:08:04Z</time>
      </trkpt>
      <trkpt lat="49.84783" lon="2.57488">
        <ele>96.9</ele>
        <time>2022-08-03T09:08:05Z</time>
      </trkpt>
      <trkpt lat="49.84783" lon="2.57487">
        <ele>97</ele>
        <time>2022-08-03T09:08:07Z</time>
      </trkpt>
      <trkpt lat="49.84784" lon="2.57485">
        <ele>97</ele>
        <time>2022-08-03T09:08:08Z</time>
      </trkpt>
      <trkpt lat="49.84784" lon="2.57483">
        <ele>97</ele>
        <time>2022-08-03T09:08:09Z</time>
      </trkpt>
      <trkpt lat="49.84784" lon="2.57482">
        <ele>97</ele>
        <time>2022-08-03T09:08:10Z</time>
      </trkpt>
      <trkpt lat="49.84785" lon="2.5748">
        <ele>97</ele>
        <time>2022-08-03T09:08:11Z</time>
      </trkpt>
      <trkpt lat="49.84786" lon="2.57477">
        <ele>97.1</ele>
        <time>2022-08-03T09:08:12Z</time>
      </trkpt>
      <trkpt lat="49.84786" lon="2.57475">
        <ele>97.1</ele>
        <time>2022-08-03T09:08:13Z</time>
      </trkpt>
      <trkpt lat="49.84787" lon="2.57474">
        <ele>97.1</ele>
        <time>2022-08-03T09:08:14Z</time>
      </trkpt>
      <trkpt lat="49.84787" lon="2.57472">
        <ele>97.1</ele>
        <time>2022-08-03T09:08:15Z</time>
      </trkpt>
      <trkpt lat="49.84788" lon="2.57471">
        <ele>97.1</ele>
        <time>2022-08-03T09:08:16Z</time>
      </trkpt>
      <trkpt lat="49.84788" lon="2.57469">
        <ele>97.2</ele>
        <time>2022-08-03T09:08:17Z</time>
      </trkpt>
      <trkpt lat="49.84789" lon="2.57467">
        <ele>97.2</ele>
        <time>2022-08-03T09:08:18Z</time>
      </trkpt>
      <trkpt lat="49.84789" lon="2.57466">
        <ele>97.2</ele>
        <time>2022-08-03T09:08:20Z</time>
      </trkpt>
      <trkpt lat="49.84789" lon="2.57464">
        <ele>97.2</ele>
        <time>2022-08-03T09:08:21Z</time>
      </trkpt>
      <trkpt lat="49.8479" lon="2.57463">
        <ele>97.2</ele>
        <time>2022-08-03T09:08:22Z</time>
      </trkpt>
      <trkpt lat="49.8479" lon="2.57461">
        <ele>97.2</ele>
        <time>2022-08-03T09:08:23Z</time>
      </trkpt>
      <trkpt lat="49.84791" lon="2.57459">
        <ele>97.3</ele>
        <time>2022-08-03T09:08:24Z</time>
      </trkpt>
      <trkpt lat="49.84791" lon="2.57457">
        <ele>97.3</ele>
        <time>2022-08-03T09:08:25Z</time>
      </trkpt>
      <trkpt lat="49.84792" lon="2.57455">
        <ele>97.3</ele>
        <time>2022-08-03T09:08:26Z</time>
      </trkpt>
      <trkpt lat="49.84792" lon="2.57453">
        <ele>97.3</ele>
        <time>2022-08-03T09:08:27Z</time>
      </trkpt>
      <trkpt lat="49.84793" lon="2.57451">
        <ele>97.4</ele>
        <time>2022-08-03T09:08:29Z</time>
      </trkpt>
      <trkpt lat="49.84793" lon="2.57448">
        <ele>97.4</ele>
        <time>2022-08-03T09:08:30Z</time>
      </trkpt>
      <trkpt lat="49.84794" lon="2.57446">
        <ele>97.4</ele>
        <time>2022-08-03T09:08:31Z</time>
      </trkpt>
      <trkpt lat="49.84794" lon="2.57444">
        <ele>97.4</ele>
        <time>2022-08-03T09:08:32Z</time>
      </trkpt>
      <trkpt lat="49.84795" lon="2.57442">
        <ele>97.5</ele>
        <time>2022-08-03T09:08:33Z</time>
      </trkpt>
      <trkpt lat="49.84795" lon="2.5744">
        <ele>97.5</ele>
        <time>2022-08-03T09:08:34Z</time>
      </trkpt>
      <trkpt lat="49.84795" lon="2.57439">
        <ele>97.5</ele>
        <time>2022-08-03T09:08:35Z</time>
      </trkpt>
      <trkpt lat="49.84795" lon="2.57438">
        <ele>97.5</ele>
        <time>2022-08-03T09:08:36Z</time>
      </trkpt>
      <trkpt lat="49.84796" lon="2.57437">
        <ele>97.5</ele>
        <time>2022-08-03T09:08:37Z</time>
      </trkpt>
      <trkpt lat="49.84796" lon="2.57435">
        <ele>97.5</ele>
        <time>2022-08-03T09:08:38Z</time>
      </trkpt>
      <trkpt lat="49.84796" lon="2.57434">
        <ele>97.5</ele>
        <time>2022-08-03T09:08:39Z</time>
      </trkpt>
      <trkpt lat="49.84796" lon="2.57433">
        <ele>97.5</ele>
        <time>2022-08-03T09:08:40Z</time>
      </trkpt>
      <trkpt lat="49.84797" lon="2.57431">
        <ele>97.5</ele>
        <time>2022-08-03T09:08:42Z</time>
      </trkpt>
      <trkpt lat="49.84798" lon="2.57428">
        <ele>97.6</ele>
        <time>2022-08-03T09:08:43Z</time>
      </trkpt>
      <trkpt lat="49.84798" lon="2.57427">
        <ele>97.6</ele>
        <time>2022-08-03T09:08:44Z</time>
      </trkpt>
      <trkpt lat="49.84798" lon="2.57426">
        <ele>97.6</ele>
        <time>2022-08-03T09:08:45Z</time>
      </trkpt>
      <trkpt lat="49.84798" lon="2.57424">
        <ele>97.6</ele>
        <time>2022-08-03T09:08:46Z</time>
      </trkpt>
      <trkpt lat="49.84799" lon="2.57421">
        <ele>97.6</ele>
        <time>2022-08-03T09:08:47Z</time>
      </trkpt>
      <trkpt lat="49.84798" lon="2.57418">
        <ele>97.6</ele>
        <time>2022-08-03T09:08:49Z</time>
      </trkpt>
      <trkpt lat="49.84798" lon="2.57417">
        <ele>97.7</ele>
        <time>2022-08-03T09:08:50Z</time>
      </trkpt>
      <trkpt lat="49.84798" lon="2.57415">
        <ele>97.7</ele>
        <time>2022-08-03T09:08:51Z</time>
      </trkpt>
      <trkpt lat="49.84797" lon="2.57412">
        <ele>97.7</ele>
        <time>2022-08-03T09:08:52Z</time>
      </trkpt>
      <trkpt lat="49.84797" lon="2.57411">
        <ele>97.7</ele>
        <time>2022-08-03T09:08:53Z</time>
      </trkpt>
      <trkpt lat="49.84797" lon="2.57409">
        <ele>97.7</ele>
        <time>2022-08-03T09:08:54Z</time>
      </trkpt>
      <trkpt lat="49.84798" lon="2.57406">
        <ele>97.7</ele>
        <time>2022-08-03T09:08:55Z</time>
      </trkpt>
      <trkpt lat="49.84798" lon="2.57404">
        <ele>97.7</ele>
        <time>2022-08-03T09:08:57Z</time>
      </trkpt>
      <trkpt lat="49.84798" lon="2.57402">
        <ele>97.8</ele>
        <time>2022-08-03T09:08:58Z</time>
      </trkpt>
      <trkpt lat="49.84798" lon="2.574">
        <ele>97.8</ele>
        <time>2022-08-03T09:08:59Z</time>
      </trkpt>
      <trkpt lat="49.84798" lon="2.57399">
        <ele>97.8</ele>
        <time>2022-08-03T09:09:00Z</time>
      </trkpt>
      <trkpt lat="49.84798" lon="2.57396">
        <ele>97.8</ele>
        <time>2022-08-03T09:09:01Z</time>
      </trkpt>
      <trkpt lat="49.84798" lon="2.57394">
        <ele>97.8</ele>
        <time>2022-08-03T09:09:02Z</time>
      </trkpt>
      <trkpt lat="49.84798" lon="2.57391">
        <ele>97.8</ele>
        <time>2022-08-03T09:09:03Z</time>
      </trkpt>
      <trkpt lat="49.84798" lon="2.57389">
        <ele>97.9</ele>
        <time>2022-08-03T09:09:04Z</time>
      </trkpt>
      <trkpt lat="49.84798" lon="2.57388">
        <ele>97.9</ele>
        <time>2022-08-03T09:09:05Z</time>
      </trkpt>
      <trkpt lat="49.84798" lon="2.57386">
        <ele>97.9</ele>
        <time>2022-08-03T09:09:06Z</time>
      </trkpt>
      <trkpt lat="49.84799" lon="2.57384">
        <ele>97.9</ele>
        <time>2022-08-03T09:09:07Z</time>
      </trkpt>
      <trkpt lat="49.84799" lon="2.57382">
        <ele>97.9</ele>
        <time>2022-08-03T09:09:09Z</time>
      </trkpt>
      <trkpt lat="49.848" lon="2.57379">
        <ele>97.9</ele>
        <time>2022-08-03T09:09:10Z</time>
      </trkpt>
      <trkpt lat="49.848" lon="2.57377">
        <ele>97.9</ele>
        <time>2022-08-03T09:09:11Z</time>
      </trkpt>
      <trkpt lat="49.848" lon="2.57376">
        <ele>97.9</ele>
        <time>2022-08-03T09:09:12Z</time>
      </trkpt>
      <trkpt lat="49.848" lon="2.57373">
        <ele>98</ele>
        <time>2022-08-03T09:09:13Z</time>
      </trkpt>
      <trkpt lat="49.848" lon="2.57371">
        <ele>98</ele>
        <time>2022-08-03T09:09:14Z</time>
      </trkpt>
      <trkpt lat="49.84801" lon="2.5737">
        <ele>98</ele>
        <time>2022-08-03T09:09:15Z</time>
      </trkpt>
      <trkpt lat="49.84801" lon="2.57367">
        <ele>98</ele>
        <time>2022-08-03T09:09:16Z</time>
      </trkpt>
      <trkpt lat="49.84801" lon="2.57366">
        <ele>98</ele>
        <time>2022-08-03T09:09:17Z</time>
      </trkpt>
      <trkpt lat="49.84801" lon="2.57364">
        <ele>98</ele>
        <time>2022-08-03T09:09:19Z</time>
      </trkpt>
      <trkpt lat="49.84801" lon="2.57362">
        <ele>98</ele>
        <time>2022-08-03T09:09:20Z</time>
      </trkpt>
      <trkpt lat="49.84801" lon="2.57361">
        <ele>98</ele>
        <time>2022-08-03T09:09:21Z</time>
      </trkpt>
      <trkpt lat="49.84802" lon="2.57359">
        <ele>98</ele>
        <time>2022-08-03T09:09:22Z</time>
      </trkpt>
      <trkpt lat="49.84802" lon="2.57356">
        <ele>98</ele>
        <time>2022-08-03T09:09:23Z</time>
      </trkpt>
      <trkpt lat="49.84802" lon="2.57355">
        <ele>98.1</ele>
        <time>2022-08-03T09:09:24Z</time>
      </trkpt>
      <trkpt lat="49.84803" lon="2.57353">
        <ele>98.1</ele>
        <time>2022-08-03T09:09:25Z</time>
      </trkpt>
      <trkpt lat="49.84803" lon="2.57352">
        <ele>98.1</ele>
        <time>2022-08-03T09:09:26Z</time>
      </trkpt>
      <trkpt lat="49.84803" lon="2.5735">
        <ele>98.1</ele>
        <time>2022-08-03T09:09:27Z</time>
      </trkpt>
      <trkpt lat="49.84803" lon="2.57349">
        <ele>98.1</ele>
        <time>2022-08-03T09:09:28Z</time>
      </trkpt>
      <trkpt lat="49.84803" lon="2.57347">
        <ele>98.1</ele>
        <time>2022-08-03T09:09:29Z</time>
      </trkpt>
      <trkpt lat="49.84803" lon="2.57346">
        <ele>98.1</ele>
        <time>2022-08-03T09:09:30Z</time>
      </trkpt>
      <trkpt lat="49.84803" lon="2.57344">
        <ele>98.1</ele>
        <time>2022-08-03T09:09:31Z</time>
      </trkpt>
      <trkpt lat="49.84803" lon="2.57343">
        <ele>98.1</ele>
        <time>2022-08-03T09:09:32Z</time>
      </trkpt>
      <trkpt lat="49.84804" lon="2.57341">
        <ele>98.1</ele>
        <time>2022-08-03T09:09:33Z</time>
      </trkpt>
      <trkpt lat="49.84804" lon="2.5734">
        <ele>98.1</ele>
        <time>2022-08-03T09:09:34Z</time>
      </trkpt>
      <trkpt lat="49.84804" lon="2.57339">
        <ele>98.1</ele>
        <time>2022-08-03T09:09:36Z</time>
      </trkpt>
      <trkpt lat="49.84805" lon="2.57338">
        <ele>98.1</ele>
        <time>2022-08-03T09:09:37Z</time>
      </trkpt>
      <trkpt lat="49.84805" lon="2.57337">
        <ele>98.1</ele>
        <time>2022-08-03T09:09:38Z</time>
      </trkpt>
      <trkpt lat="49.84805" lon="2.57336">
        <ele>98.1</ele>
        <time>2022-08-03T09:09:39Z</time>
      </trkpt>
      <trkpt lat="49.84805" lon="2.57334">
        <ele>98.1</ele>
        <time>2022-08-03T09:09:40Z</time>
      </trkpt>
      <trkpt lat="49.84805" lon="2.57332">
        <ele>98.1</ele>
        <time>2022-08-03T09:09:41Z</time>
      </trkpt>
      <trkpt lat="49.84805" lon="2.57331">
        <ele>98.1</ele>
        <time>2022-08-03T09:09:43Z</time>
      </trkpt>
      <trkpt lat="49.84805" lon="2.57329">
        <ele>98.1</ele>
        <time>2022-08-03T09:09:44Z</time>
      </trkpt>
      <trkpt lat="49.84805" lon="2.57328">
        <ele>98.1</ele>
        <time>2022-08-03T09:09:45Z</time>
      </trkpt>
      <trkpt lat="49.84805" lon="2.57326">
        <ele>98.1</ele>
        <time>2022-08-03T09:09:46Z</time>
      </trkpt>
      <trkpt lat="49.84805" lon="2.57325">
        <ele>98.1</ele>
        <time>2022-08-03T09:09:47Z</time>
      </trkpt>
      <trkpt lat="49.84806" lon="2.57323">
        <ele>98.1</ele>
        <time>2022-08-03T09:09:48Z</time>
      </trkpt>
      <trkpt lat="49.84806" lon="2.57322">
        <ele>98.1</ele>
        <time>2022-08-03T09:09:50Z</time>
      </trkpt>
      <trkpt lat="49.84806" lon="2.57321">
        <ele>98.1</ele>
        <time>2022-08-03T09:09:51Z</time>
      </trkpt>
      <trkpt lat="49.84806" lon="2.5732">
        <ele>98.1</ele>
        <time>2022-08-03T09:09:52Z</time>
      </trkpt>
      <trkpt lat="49.84807" lon="2.57319">
        <ele>98.1</ele>
        <time>2022-08-03T09:09:53Z</time>
      </trkpt>
      <trkpt lat="49.84808" lon="2.57317">
        <ele>98.1</ele>
        <time>2022-08-03T09:09:54Z</time>
      </trkpt>
      <trkpt lat="49.84809" lon="2.57316">
        <ele>98.1</ele>
        <time>2022-08-03T09:09:56Z</time>
      </trkpt>
      <trkpt lat="49.84809" lon="2.57315">
        <ele>98.1</ele>
        <time>2022-08-03T09:09:57Z</time>
      </trkpt>
      <trkpt lat="49.84811" lon="2.57315">
        <ele>98.1</ele>
        <time>2022-08-03T09:09:58Z</time>
      </trkpt>
      <trkpt lat="49.84812" lon="2.57315">
        <ele>98.1</ele>
        <time>2022-08-03T09:09:59Z</time>
      </trkpt>
      <trkpt lat="49.84813" lon="2.57316">
        <ele>98.1</ele>
        <time>2022-08-03T09:10:01Z</time>
      </trkpt>
      <trkpt lat="49.84814" lon="2.57318">
        <ele>98.1</ele>
        <time>2022-08-03T09:10:02Z</time>
      </trkpt>
      <trkpt lat="49.84816" lon="2.57319">
        <ele>98.1</ele>
        <time>2022-08-03T09:10:04Z</time>
      </trkpt>
      <trkpt lat="49.84817" lon="2.57319">
        <ele>98.1</ele>
        <time>2022-08-03T09:10:05Z</time>
      </trkpt>
      <trkpt lat="49.84817" lon="2.57321">
        <ele>98.1</ele>
        <time>2022-08-03T09:10:06Z</time>
      </trkpt>
      <trkpt lat="49.84817" lon="2.57322">
        <ele>98.1</ele>
        <time>2022-08-03T09:10:07Z</time>
      </trkpt>
      <trkpt lat="49.84817" lon="2.57324">
        <ele>98.1</ele>
        <time>2022-08-03T09:10:08Z</time>
      </trkpt>
      <trkpt lat="49.84817" lon="2.57325">
        <ele>98.1</ele>
        <time>2022-08-03T09:10:09Z</time>
      </trkpt>
      <trkpt lat="49.84817" lon="2.57327">
        <ele>98.1</ele>
        <time>2022-08-03T09:10:10Z</time>
      </trkpt>
      <trkpt lat="49.84816" lon="2.57327">
        <ele>98.1</ele>
        <time>2022-08-03T09:10:11Z</time>
      </trkpt>
      <trkpt lat="49.84816" lon="2.57327">
        <ele>98.1</ele>
        <time>2022-08-03T09:10:12Z</time>
      </trkpt>
      <trkpt lat="49.84815" lon="2.57327">
        <ele>98.1</ele>
        <time>2022-08-03T09:10:13Z</time>
      </trkpt>
      <trkpt lat="49.84815" lon="2.57327">
        <ele>98.1</ele>
        <time>2022-08-03T09:10:14Z</time>
      </trkpt>
      <trkpt lat="49.84814" lon="2.57327">
        <ele>98.1</ele>
        <time>2022-08-03T09:10:15Z</time>
      </trkpt>
      <trkpt lat="49.84814" lon="2.57326">
        <ele>98.1</ele>
        <time>2022-08-03T09:10:16Z</time>
      </trkpt>
      <trkpt lat="49.84814" lon="2.57326">
        <ele>98.1</ele>
        <time>2022-08-03T09:10:17Z</time>
      </trkpt>
      <trkpt lat="49.84814" lon="2.57326">
        <ele>98.1</ele>
        <time>2022-08-03T09:10:18Z</time>
      </trkpt>
      <trkpt lat="49.84814" lon="2.57326">
        <ele>98.1</ele>
        <time>2022-08-03T09:10:19Z</time>
      </trkpt>
      <trkpt lat="49.84814" lon="2.57326">
        <ele>98.1</ele>
        <time>2022-08-03T09:10:20Z</time>
      </trkpt>
      <trkpt lat="49.84814" lon="2.57326">
        <ele>98.1</ele>
        <time>2022-08-03T09:10:21Z</time>
      </trkpt>
      <trkpt lat="49.84814" lon="2.57326">
        <ele>98.1</ele>
        <time>2022-08-03T09:10:22Z</time>
      </trkpt>
      <trkpt lat="49.84814" lon="2.57326">
        <ele>98.1</ele>
        <time>2022-08-03T09:10:23Z</time>
      </trkpt>
      <trkpt lat="49.84814" lon="2.57326">
        <ele>98.1</ele>
        <time>2022-08-03T09:10:24Z</time>
      </trkpt>
      <trkpt lat="49.84813" lon="2.57326">
        <ele>98.1</ele>
        <time>2022-08-03T09:10:25Z</time>
      </trkpt>
      <trkpt lat="49.84813" lon="2.57326">
        <ele>98.1</ele>
        <time>2022-08-03T09:10:26Z</time>
      </trkpt>
      <trkpt lat="49.84813" lon="2.57326">
        <ele>98.1</ele>
        <time>2022-08-03T09:10:27Z</time>
      </trkpt>
      <trkpt lat="49.84813" lon="2.57326">
        <ele>98.1</ele>
        <time>2022-08-03T09:10:28Z</time>
      </trkpt>
      <trkpt lat="49.84813" lon="2.57325">
        <ele>98.1</ele>
        <time>2022-08-03T09:10:29Z</time>
      </trkpt>
      <trkpt lat="49.84813" lon="2.57325">
        <ele>98.1</ele>
        <time>2022-08-03T09:10:30Z</time>
      </trkpt>
      <trkpt lat="49.84813" lon="2.57325">
        <ele>98.1</ele>
        <time>2022-08-03T09:10:31Z</time>
      </trkpt>
      <trkpt lat="49.84813" lon="2.57325">
        <ele>98.1</ele>
        <time>2022-08-03T09:10:32Z</time>
      </trkpt>
      <trkpt lat="49.84813" lon="2.57325">
        <ele>98.1</ele>
        <time>2022-08-03T09:10:33Z</time>
      </trkpt>
      <trkpt lat="49.84813" lon="2.57325">
        <ele>98.1</ele>
        <time>2022-08-03T09:10:34Z</time>
      </trkpt>
      <trkpt lat="49.84812" lon="2.57325">
        <ele>98.1</ele>
        <time>2022-08-03T09:10:35Z</time>
      </trkpt>
      <trkpt lat="49.84812" lon="2.57325">
        <ele>98.1</ele>
        <time>2022-08-03T09:10:36Z</time>
      </trkpt>
      <trkpt lat="49.84812" lon="2.57325">
        <ele>98.1</ele>
        <time>2022-08-03T09:10:37Z</time>
      </trkpt>
      <trkpt lat="49.84812" lon="2.57325">
        <ele>98.1</ele>
        <time>2022-08-03T09:10:38Z</time>
      </trkpt>
      <trkpt lat="49.84812" lon="2.57325">
        <ele>98.1</ele>
        <time>2022-08-03T09:10:39Z</time>
      </trkpt>
      <trkpt lat="49.84812" lon="2.57325">
        <ele>98.1</ele>
        <time>2022-08-03T09:10:40Z</time>
      </trkpt>
      <trkpt lat="49.84812" lon="2.57324">
        <ele>98.1</ele>
        <time>2022-08-03T09:10:41Z</time>
      </trkpt>
      <trkpt lat="49.84812" lon="2.57324">
        <ele>98.1</ele>
        <time>2022-08-03T09:10:42Z</time>
      </trkpt>
      <trkpt lat="49.84812" lon="2.57324">
        <ele>98.1</ele>
        <time>2022-08-03T09:10:43Z</time>
      </trkpt>
      <trkpt lat="49.84811" lon="2.57324">
        <ele>98.1</ele>
        <time>2022-08-03T09:10:44Z</time>
      </trkpt>
      <trkpt lat="49.84811" lon="2.57324">
        <ele>98.1</ele>
        <time>2022-08-03T09:10:45Z</time>
      </trkpt>
      <trkpt lat="49.84811" lon="2.57324">
        <ele>98.1</ele>
        <time>2022-08-03T09:10:46Z</time>
      </trkpt>
      <trkpt lat="49.84811" lon="2.57324">
        <ele>98.1</ele>
        <time>2022-08-03T09:10:47Z</time>
      </trkpt>
      <trkpt lat="49.84811" lon="2.57324">
        <ele>98.1</ele>
        <time>2022-08-03T09:10:48Z</time>
      </trkpt>
      <trkpt lat="49.84811" lon="2.57324">
        <ele>98.1</ele>
        <time>2022-08-03T09:10:49Z</time>
      </trkpt>
      <trkpt lat="49.84811" lon="2.57324">
        <ele>98.1</ele>
        <time>2022-08-03T09:10:50Z</time>
      </trkpt>
      <trkpt lat="49.84811" lon="2.57324">
        <ele>98.1</ele>
        <time>2022-08-03T09:10:51Z</time>
      </trkpt>
      <trkpt lat="49.84811" lon="2.57324">
        <ele>98.1</ele>
        <time>2022-08-03T09:10:52Z</time>
      </trkpt>
      <trkpt lat="49.84811" lon="2.57323">
        <ele>98.1</ele>
        <time>2022-08-03T09:10:53Z</time>
      </trkpt>
      <trkpt lat="49.8481" lon="2.57323">
        <ele>98.1</ele>
        <time>2022-08-03T09:10:54Z</time>
      </trkpt>
      <trkpt lat="49.84807" lon="2.57322">
        <ele>98.1</ele>
        <time>2022-08-03T09:10:55Z</time>
      </trkpt>
      <trkpt lat="49.84806" lon="2.57321">
        <ele>98.1</ele>
        <time>2022-08-03T09:10:56Z</time>
      </trkpt>
      <trkpt lat="49.84806" lon="2.5732">
        <ele>98.1</ele>
        <time>2022-08-03T09:10:57Z</time>
      </trkpt>
      <trkpt lat="49.84805" lon="2.5732">
        <ele>98.1</ele>
        <time>2022-08-03T09:10:58Z</time>
      </trkpt>
      <trkpt lat="49.84805" lon="2.5732">
        <ele>98.1</ele>
        <time>2022-08-03T09:10:59Z</time>
      </trkpt>
      <trkpt lat="49.84805" lon="2.5732">
        <ele>98.1</ele>
        <time>2022-08-03T09:11:00Z</time>
      </trkpt>
      <trkpt lat="49.84805" lon="2.5732">
        <ele>98.1</ele>
        <time>2022-08-03T09:11:01Z</time>
      </trkpt>
      <trkpt lat="49.84805" lon="2.5732">
        <ele>98.1</ele>
        <time>2022-08-03T09:11:02Z</time>
      </trkpt>
      <trkpt lat="49.84805" lon="2.5732">
        <ele>98.1</ele>
        <time>2022-08-03T09:11:03Z</time>
      </trkpt>
      <trkpt lat="49.84805" lon="2.5732">
        <ele>98.1</ele>
        <time>2022-08-03T09:11:04Z</time>
      </trkpt>
      <trkpt lat="49.84805" lon="2.5732">
        <ele>98.1</ele>
        <time>2022-08-03T09:11:05Z</time>
      </trkpt>
      <trkpt lat="49.84805" lon="2.5732">
        <ele>98.1</ele>
        <time>2022-08-03T09:11:06Z</time>
      </trkpt>
      <trkpt lat="49.84805" lon="2.5732">
        <ele>98.1</ele>
        <time>2022-08-03T09:11:07Z</time>
      </trkpt>
      <trkpt lat="49.84805" lon="2.5732">
        <ele>98.1</ele>
        <time>2022-08-03T09:11:08Z</time>
      </trkpt>
      <trkpt lat="49.84805" lon="2.5732">
        <ele>98.1</ele>
        <time>2022-08-03T09:11:09Z</time>
      </trkpt>
      <trkpt lat="49.84805" lon="2.5732">
        <ele>98.1</ele>
        <time>2022-08-03T09:11:10Z</time>
      </trkpt>
      <trkpt lat="49.84805" lon="2.5732">
        <ele>98.1</ele>
        <time>2022-08-03T09:11:11Z</time>
      </trkpt>
      <trkpt lat="49.84805" lon="2.5732">
        <ele>98.1</ele>
        <time>2022-08-03T09:11:12Z</time>
      </trkpt>
      <trkpt lat="49.84805" lon="2.5732">
        <ele>98.1</ele>
        <time>2022-08-03T09:11:13Z</time>
      </trkpt>
      <trkpt lat="49.84805" lon="2.5732">
        <ele>98.1</ele>
        <time>2022-08-03T09:11:14Z</time>
      </trkpt>
      <trkpt lat="49.84805" lon="2.5732">
        <ele>98.1</ele>
        <time>2022-08-03T09:11:15Z</time>
      </trkpt>
      <trkpt lat="49.84805" lon="2.5732">
        <ele>98.1</ele>
        <time>2022-08-03T09:11:16Z</time>
      </trkpt>
      <trkpt lat="49.84805" lon="2.5732">
        <ele>98.1</ele>
        <time>2022-08-03T09:11:17Z</time>
      </trkpt>
      <trkpt lat="49.84805" lon="2.5732">
        <ele>98.1</ele>
        <time>2022-08-03T09:11:18Z</time>
      </trkpt>
      <trkpt lat="49.84805" lon="2.5732">
        <ele>98.1</ele>
        <time>2022-08-03T09:11:19Z</time>
      </trkpt>
      <trkpt lat="49.84805" lon="2.5732">
        <ele>98.1</ele>
        <time>2022-08-03T09:11:20Z</time>
      </trkpt>
      <trkpt lat="49.84805" lon="2.5732">
        <ele>98.1</ele>
        <time>2022-08-03T09:11:21Z</time>
      </trkpt>
      <trkpt lat="49.84805" lon="2.5732">
        <ele>98.1</ele>
        <time>2022-08-03T09:11:22Z</time>
      </trkpt>
      <trkpt lat="49.84805" lon="2.5732">
        <ele>98.1</ele>
        <time>2022-08-03T09:11:23Z</time>
      </trkpt>
      <trkpt lat="49.84805" lon="2.5732">
        <ele>98.1</ele>
        <time>2022-08-03T09:11:24Z</time>
      </trkpt>
      <trkpt lat="49.84805" lon="2.5732">
        <ele>98.1</ele>
        <time>2022-08-03T09:11:25Z</time>
      </trkpt>
      <trkpt lat="49.84805" lon="2.5732">
        <ele>98.1</ele>
        <time>2022-08-03T09:11:26Z</time>
      </trkpt>
      <trkpt lat="49.84805" lon="2.5732">
        <ele>98.1</ele>
        <time>2022-08-03T09:11:27Z</time>
      </trkpt>
      <trkpt lat="49.84805" lon="2.5732">
        <ele>98.1</ele>
        <time>2022-08-03T09:11:28Z</time>
      </trkpt>
      <trkpt lat="49.84805" lon="2.5732">
        <ele>98.1</ele>
        <time>2022-08-03T09:11:29Z</time>
      </trkpt>
      <trkpt lat="49.84805" lon="2.5732">
        <ele>98.1</ele>
        <time>2022-08-03T09:11:30Z</time>
      </trkpt>
      <trkpt lat="49.84805" lon="2.5732">
        <ele>98.1</ele>
        <time>2022-08-03T09:11:31Z</time>
      </trkpt>
      <trkpt lat="49.84805" lon="2.5732">
        <ele>98.1</ele>
        <time>2022-08-03T09:11:32Z</time>
      </trkpt>
      <trkpt lat="49.84805" lon="2.5732">
        <ele>98.1</ele>
        <time>2022-08-03T09:11:33Z</time>
      </trkpt>
      <trkpt lat="49.84805" lon="2.5732">
        <ele>98.1</ele>
        <time>2022-08-03T09:11:34Z</time>
      </trkpt>
      <trkpt lat="49.84805" lon="2.5732">
        <ele>98.1</ele>
        <time>2022-08-03T09:11:35Z</time>
      </trkpt>
      <trkpt lat="49.84805" lon="2.5732">
        <ele>98.1</ele>
        <time>2022-08-03T09:11:36Z</time>
      </trkpt>
      <trkpt lat="49.84805" lon="2.5732">
        <ele>98.1</ele>
        <time>2022-08-03T09:11:37Z</time>
      </trkpt>
      <trkpt lat="49.84805" lon="2.5732">
        <ele>98.1</ele>
        <time>2022-08-03T09:11:38Z</time>
      </trkpt>
      <trkpt lat="49.84805" lon="2.5732">
        <ele>98.1</ele>
        <time>2022-08-03T09:11:39Z</time>
      </trkpt>
      <trkpt lat="49.84805" lon="2.5732">
        <ele>98.1</ele>
        <time>2022-08-03T09:11:40Z</time>
      </trkpt>
      <trkpt lat="49.84805" lon="2.5732">
        <ele>98.1</ele>
        <time>2022-08-03T09:11:41Z</time>
      </trkpt>
      <trkpt lat="49.84805" lon="2.5732">
        <ele>98.1</ele>
        <time>2022-08-03T09:11:42Z</time>
      </trkpt>
      <trkpt lat="49.84805" lon="2.5732">
        <ele>98.1</ele>
        <time>2022-08-03T09:11:43Z</time>
      </trkpt>
      <trkpt lat="49.84805" lon="2.5732">
        <ele>98.1</ele>
        <time>2022-08-03T09:11:44Z</time>
      </trkpt>
      <trkpt lat="49.84805" lon="2.5732">
        <ele>98.1</ele>
        <time>2022-08-03T09:11:45Z</time>
      </trkpt>
      <trkpt lat="49.84805" lon="2.5732">
        <ele>98.1</ele>
        <time>2022-08-03T09:11:46Z</time>
      </trkpt>
      <trkpt lat="49.84805" lon="2.5732">
        <ele>98.1</ele>
        <time>2022-08-03T09:11:47Z</time>
      </trkpt>
      <trkpt lat="49.84805" lon="2.5732">
        <ele>98.1</ele>
        <time>2022-08-03T09:11:48Z</time>
      </trkpt>
      <trkpt lat="49.84805" lon="2.5732">
        <ele>98.1</ele>
        <time>2022-08-03T09:11:49Z</time>
      </trkpt>
      <trkpt lat="49.84805" lon="2.5732">
        <ele>98.1</ele>
        <time>2022-08-03T09:11:50Z</time>
      </trkpt>
      <trkpt lat="49.84805" lon="2.5732">
        <ele>98.1</ele>
        <time>2022-08-03T09:11:51Z</time>
      </trkpt>
      <trkpt lat="49.84805" lon="2.5732">
        <ele>98.1</ele>
        <time>2022-08-03T09:11:52Z</time>
      </trkpt>
      <trkpt lat="49.84805" lon="2.5732">
        <ele>98.1</ele>
        <time>2022-08-03T09:11:53Z</time>
      </trkpt>
      <trkpt lat="49.84805" lon="2.5732">
        <ele>98.1</ele>
        <time>2022-08-03T09:11:54Z</time>
      </trkpt>
      <trkpt lat="49.84805" lon="2.5732">
        <ele>98.1</ele>
        <time>2022-08-03T09:11:55Z</time>
      </trkpt>
      <trkpt lat="49.84806" lon="2.57319">
        <ele>98.1</ele>
        <time>2022-08-03T09:11:56Z</time>
      </trkpt>
      <trkpt lat="49.84807" lon="2.57318">
        <ele>98.1</ele>
        <time>2022-08-03T09:11:57Z</time>
      </trkpt>
      <trkpt lat="49.84806" lon="2.57319">
        <ele>98.1</ele>
        <time>2022-08-03T09:11:58Z</time>
      </trkpt>
      <trkpt lat="49.84806" lon="2.57318">
        <ele>98.1</ele>
        <time>2022-08-03T09:12:00Z</time>
      </trkpt>
      <trkpt lat="49.84806" lon="2.57318">
        <ele>98.1</ele>
        <time>2022-08-03T09:12:01Z</time>
      </trkpt>
      <trkpt lat="49.84806" lon="2.57318">
        <ele>98.1</ele>
        <time>2022-08-03T09:12:02Z</time>
      </trkpt>
      <trkpt lat="49.84806" lon="2.57317">
        <ele>98.1</ele>
        <time>2022-08-03T09:12:03Z</time>
      </trkpt>
      <trkpt lat="49.84806" lon="2.57318">
        <ele>98.1</ele>
        <time>2022-08-03T09:12:05Z</time>
      </trkpt>
      <trkpt lat="49.84806" lon="2.57318">
        <ele>98.1</ele>
        <time>2022-08-03T09:12:06Z</time>
      </trkpt>
      <trkpt lat="49.84806" lon="2.57318">
        <ele>98.1</ele>
        <time>2022-08-03T09:12:07Z</time>
      </trkpt>
      <trkpt lat="49.84806" lon="2.57318">
        <ele>98.1</ele>
        <time>2022-08-03T09:12:08Z</time>
      </trkpt>
      <trkpt lat="49.84806" lon="2.57318">
        <ele>98.1</ele>
        <time>2022-08-03T09:12:09Z</time>
      </trkpt>
      <trkpt lat="49.84806" lon="2.57318">
        <ele>98.1</ele>
        <time>2022-08-03T09:12:10Z</time>
      </trkpt>
      <trkpt lat="49.84806" lon="2.57318">
        <ele>98.1</ele>
        <time>2022-08-03T09:12:11Z</time>
      </trkpt>
      <trkpt lat="49.84806" lon="2.57318">
        <ele>98.1</ele>
        <time>2022-08-03T09:12:12Z</time>
      </trkpt>
      <trkpt lat="49.84806" lon="2.57318">
        <ele>98.1</ele>
        <time>2022-08-03T09:12:13Z</time>
      </trkpt>
      <trkpt lat="49.84806" lon="2.57318">
        <ele>98.1</ele>
        <time>2022-08-03T09:12:14Z</time>
      </trkpt>
      <trkpt lat="49.84806" lon="2.57318">
        <ele>98.1</ele>
        <time>2022-08-03T09:12:15Z</time>
      </trkpt>
      <trkpt lat="49.84806" lon="2.57318">
        <ele>98.1</ele>
        <time>2022-08-03T09:12:16Z</time>
      </trkpt>
      <trkpt lat="49.84806" lon="2.57318">
        <ele>98.1</ele>
        <time>2022-08-03T09:12:17Z</time>
      </trkpt>
    </trkseg>
  </trk>
</gpx>